<?xml version='1.0' encoding='UTF-8'?><gpx version="1.1" creator="JPX - https://github.com/jenetics/jpx" xmlns="http://www.topografix.com/GPX/1/1"><trk><trkseg><trkpt lat="43.4217488" lon="11.1812584"><ele>174.0</ele><time>2026-05-02T06:31:14.511Z</time></trkpt><trkpt lat="43.4217068" lon="11.1811586"><ele>174.0</ele><time>2026-05-02T06:31:17.511Z</time></trkpt><trkpt lat="43.4216645" lon="11.181058"><ele>174.0</ele><time>2026-05-02T06:31:20.493Z</time></trkpt><trkpt lat="43.421629" lon="11.1809642"><ele>174.0</ele><time>2026-05-02T06:31:23.51Z</time></trkpt><trkpt lat="43.4215997" lon="11.1808638"><ele>174.0</ele><time>2026-05-02T06:31:26.498Z</time></trkpt><trkpt lat="43.421571" lon="11.1807611"><ele>174.0</ele><time>2026-05-02T06:31:29.488Z</time></trkpt><trkpt lat="43.4215487" lon="11.1806611"><ele>173.83333333333334</ele><time>2026-05-02T06:31:32.486Z</time></trkpt><trkpt lat="43.4215235" lon="11.1805625"><ele>173.66666666666666</ele><time>2026-05-02T06:31:35.492Z</time></trkpt><trkpt lat="43.4215" lon="11.1804626"><ele>173.5</ele><time>2026-05-02T06:31:38.49Z</time></trkpt><trkpt lat="43.4214806" lon="11.1803632"><ele>173.33333333333331</ele><time>2026-05-02T06:31:41.493Z</time></trkpt><trkpt lat="43.4214742" lon="11.1802473"><ele>173.16666666666666</ele><time>2026-05-02T06:31:44.488Z</time></trkpt><trkpt lat="43.4214926" lon="11.180142"><ele>173.0</ele><time>2026-05-02T06:31:47.49Z</time></trkpt><trkpt lat="43.4215277" lon="11.1800362"><ele>173.0</ele><time>2026-05-02T06:31:50.498Z</time></trkpt><trkpt lat="43.4215681" lon="11.1799303"><ele>173.0</ele><time>2026-05-02T06:31:53.499Z</time></trkpt><trkpt lat="43.4216275" lon="11.1798461"><ele>173.0</ele><time>2026-05-02T06:31:56.5Z</time></trkpt><trkpt lat="43.4217031" lon="11.1797864"><ele>173.0</ele><time>2026-05-02T06:31:59.489Z</time></trkpt><trkpt lat="43.4217946" lon="11.1797424"><ele>173.0</ele><time>2026-05-02T06:32:02.5Z</time></trkpt><trkpt lat="43.4218666" lon="11.179716"><ele>173.0</ele><time>2026-05-02T06:32:04.512Z</time></trkpt><trkpt lat="43.4219405" lon="11.1796881"><ele>173.5</ele><time>2026-05-02T06:32:06.49Z</time></trkpt><trkpt lat="43.4220077" lon="11.1796548"><ele>174.0</ele><time>2026-05-02T06:32:08.492Z</time></trkpt><trkpt lat="43.4220791" lon="11.179625"><ele>174.5</ele><time>2026-05-02T06:32:10.476Z</time></trkpt><trkpt lat="43.4221552" lon="11.1795908"><ele>175.0</ele><time>2026-05-02T06:32:12.504Z</time></trkpt><trkpt lat="43.4222354" lon="11.1795626"><ele>175.5</ele><time>2026-05-02T06:32:14.483Z</time></trkpt><trkpt lat="43.4223134" lon="11.1795281"><ele>176.0</ele><time>2026-05-02T06:32:16.481Z</time></trkpt><trkpt lat="43.4223894" lon="11.1794991"><ele>176.33333333333331</ele><time>2026-05-02T06:32:18.496Z</time></trkpt><trkpt lat="43.4224717" lon="11.1794754"><ele>176.66666666666666</ele><time>2026-05-02T06:32:20.515Z</time></trkpt><trkpt lat="43.4225571" lon="11.1794546"><ele>177.0</ele><time>2026-05-02T06:32:22.483Z</time></trkpt><trkpt lat="43.4226451" lon="11.179432"><ele>177.33333333333334</ele><time>2026-05-02T06:32:24.492Z</time></trkpt><trkpt lat="43.4227369" lon="11.1794098"><ele>177.66666666666669</ele><time>2026-05-02T06:32:26.508Z</time></trkpt><trkpt lat="43.4228289" lon="11.1793854"><ele>178.0</ele><time>2026-05-02T06:32:28.509Z</time></trkpt><trkpt lat="43.422927" lon="11.1793613"><ele>177.0</ele><time>2026-05-02T06:32:30.504Z</time></trkpt><trkpt lat="43.4230254" lon="11.1793368"><ele>176.0</ele><time>2026-05-02T06:32:32.488Z</time></trkpt><trkpt lat="43.4231217" lon="11.1793083"><ele>175.0</ele><time>2026-05-02T06:32:34.513Z</time></trkpt><trkpt lat="43.4232224" lon="11.1792787"><ele>174.0</ele><time>2026-05-02T06:32:36.482Z</time></trkpt><trkpt lat="43.4233264" lon="11.1792512"><ele>173.0</ele><time>2026-05-02T06:32:38.476Z</time></trkpt><trkpt lat="43.4234287" lon="11.1792222"><ele>173.0</ele><time>2026-05-02T06:32:40.476Z</time></trkpt><trkpt lat="43.4235258" lon="11.1792017"><ele>173.0</ele><time>2026-05-02T06:32:42.503Z</time></trkpt><trkpt lat="43.4236253" lon="11.1791757"><ele>173.0</ele><time>2026-05-02T06:32:44.479Z</time></trkpt><trkpt lat="43.4237234" lon="11.1791511"><ele>173.0</ele><time>2026-05-02T06:32:46.487Z</time></trkpt><trkpt lat="43.4238222" lon="11.1791294"><ele>173.0</ele><time>2026-05-02T06:32:48.49Z</time></trkpt><trkpt lat="43.4239213" lon="11.1791045"><ele>172.60000000000002</ele><time>2026-05-02T06:32:50.492Z</time></trkpt><trkpt lat="43.4240241" lon="11.1790807"><ele>172.20000000000002</ele><time>2026-05-02T06:32:52.48Z</time></trkpt><trkpt lat="43.4241256" lon="11.179056"><ele>171.8</ele><time>2026-05-02T06:32:54.492Z</time></trkpt><trkpt lat="43.4242314" lon="11.1790324"><ele>171.4</ele><time>2026-05-02T06:32:56.497Z</time></trkpt><trkpt lat="43.4243425" lon="11.1790065"><ele>171.0</ele><time>2026-05-02T06:32:58.483Z</time></trkpt><trkpt lat="43.4244573" lon="11.1789793"><ele>171.16666666666666</ele><time>2026-05-02T06:33:00.5Z</time></trkpt><trkpt lat="43.4245798" lon="11.1789502"><ele>171.33333333333334</ele><time>2026-05-02T06:33:02.494Z</time></trkpt><trkpt lat="43.4246455" lon="11.1789384"><ele>171.5</ele><time>2026-05-02T06:33:03.499Z</time></trkpt><trkpt lat="43.4247127" lon="11.1789274"><ele>171.66666666666669</ele><time>2026-05-02T06:33:04.48Z</time></trkpt><trkpt lat="43.4247765" lon="11.1789144"><ele>171.83333333333334</ele><time>2026-05-02T06:33:05.479Z</time></trkpt><trkpt lat="43.4248993" lon="11.1788971"><ele>172.0</ele><time>2026-05-02T06:33:07.484Z</time></trkpt><trkpt lat="43.4249645" lon="11.1788879"><ele>172.00000000000003</ele><time>2026-05-02T06:33:08.503Z</time></trkpt><trkpt lat="43.4250287" lon="11.1788831"><ele>172.0</ele><time>2026-05-02T06:33:09.495Z</time></trkpt><trkpt lat="43.4250955" lon="11.1788813"><ele>172.0</ele><time>2026-05-02T06:33:10.504Z</time></trkpt><trkpt lat="43.4251604" lon="11.1788813"><ele>172.0</ele><time>2026-05-02T06:33:11.5Z</time></trkpt><trkpt lat="43.425226" lon="11.1788859"><ele>172.0</ele><time>2026-05-02T06:33:12.501Z</time></trkpt><trkpt lat="43.425293" lon="11.1788927"><ele>172.00000000000003</ele><time>2026-05-02T06:33:13.501Z</time></trkpt><trkpt lat="43.4253574" lon="11.1788972"><ele>172.0</ele><time>2026-05-02T06:33:14.488Z</time></trkpt><trkpt lat="43.4254217" lon="11.1789055"><ele>171.2</ele><time>2026-05-02T06:33:15.489Z</time></trkpt><trkpt lat="43.4255418" lon="11.1789332"><ele>170.39999999999998</ele><time>2026-05-02T06:33:17.476Z</time></trkpt><trkpt lat="43.4256443" lon="11.1789854"><ele>169.60000000000002</ele><time>2026-05-02T06:33:19.498Z</time></trkpt><trkpt lat="43.4257182" lon="11.1790817"><ele>168.8</ele><time>2026-05-02T06:33:21.499Z</time></trkpt><trkpt lat="43.4257782" lon="11.1791943"><ele>168.0</ele><time>2026-05-02T06:33:23.51Z</time></trkpt><trkpt lat="43.4258548" lon="11.1792868"><ele>168.0</ele><time>2026-05-02T06:33:25.503Z</time></trkpt><trkpt lat="43.4259523" lon="11.1793009"><ele>168.0</ele><time>2026-05-02T06:33:27.496Z</time></trkpt><trkpt lat="43.4260477" lon="11.1792367"><ele>168.0</ele><time>2026-05-02T06:33:29.508Z</time></trkpt><trkpt lat="43.4260997" lon="11.1791165"><ele>168.0</ele><time>2026-05-02T06:33:31.503Z</time></trkpt><trkpt lat="43.4261141" lon="11.1789881"><ele>168.0</ele><time>2026-05-02T06:33:33.507Z</time></trkpt><trkpt lat="43.4261054" lon="11.1788633"><ele>168.0</ele><time>2026-05-02T06:33:35.526Z</time></trkpt><trkpt lat="43.4261249" lon="11.1787471"><ele>168.0</ele><time>2026-05-02T06:33:37.497Z</time></trkpt><trkpt lat="43.4261627" lon="11.1786467"><ele>168.0</ele><time>2026-05-02T06:33:39.5Z</time></trkpt><trkpt lat="43.4262205" lon="11.178562"><ele>168.0</ele><time>2026-05-02T06:33:41.507Z</time></trkpt><trkpt lat="43.4262734" lon="11.1784776"><ele>168.0</ele><time>2026-05-02T06:33:43.501Z</time></trkpt><trkpt lat="43.4263201" lon="11.1783932"><ele>168.0</ele><time>2026-05-02T06:33:45.513Z</time></trkpt><trkpt lat="43.4263729" lon="11.1783087"><ele>167.5</ele><time>2026-05-02T06:33:47.51Z</time></trkpt><trkpt lat="43.4264262" lon="11.1782092"><ele>167.0</ele><time>2026-05-02T06:33:49.516Z</time></trkpt><trkpt lat="43.4264681" lon="11.1780853"><ele>166.5</ele><time>2026-05-02T06:33:51.505Z</time></trkpt><trkpt lat="43.4265148" lon="11.1779901"><ele>166.0</ele><time>2026-05-02T06:33:53.487Z</time></trkpt><trkpt lat="43.4265692" lon="11.177905"><ele>165.5</ele><time>2026-05-02T06:33:55.498Z</time></trkpt><trkpt lat="43.4266378" lon="11.1778174"><ele>165.0</ele><time>2026-05-02T06:33:58.479Z</time></trkpt><trkpt lat="43.4266986" lon="11.1777168"><ele>165.0</ele><time>2026-05-02T06:34:00.499Z</time></trkpt><trkpt lat="43.4267473" lon="11.1776338"><ele>165.0</ele><time>2026-05-02T06:34:02.518Z</time></trkpt><trkpt lat="43.4267974" lon="11.1775331"><ele>165.0</ele><time>2026-05-02T06:34:04.526Z</time></trkpt><trkpt lat="43.4268499" lon="11.1774359"><ele>165.0</ele><time>2026-05-02T06:34:06.512Z</time></trkpt><trkpt lat="43.426908" lon="11.1773297"><ele>165.0</ele><time>2026-05-02T06:34:08.516Z</time></trkpt><trkpt lat="43.4269641" lon="11.1772242"><ele>165.0</ele><time>2026-05-02T06:34:10.505Z</time></trkpt><trkpt lat="43.4270186" lon="11.1771209"><ele>165.0</ele><time>2026-05-02T06:34:12.523Z</time></trkpt><trkpt lat="43.4270697" lon="11.1770115"><ele>165.0</ele><time>2026-05-02T06:34:14.508Z</time></trkpt><trkpt lat="43.4271214" lon="11.1769002"><ele>165.0</ele><time>2026-05-02T06:34:16.506Z</time></trkpt><trkpt lat="43.4271685" lon="11.176783"><ele>165.0</ele><time>2026-05-02T06:34:18.511Z</time></trkpt><trkpt lat="43.427208" lon="11.1766563"><ele>165.0</ele><time>2026-05-02T06:34:20.52Z</time></trkpt><trkpt lat="43.4272351" lon="11.1765164"><ele>164.4</ele><time>2026-05-02T06:34:22.518Z</time></trkpt><trkpt lat="43.4272495" lon="11.1763765"><ele>163.8</ele><time>2026-05-02T06:34:24.495Z</time></trkpt><trkpt lat="43.4272608" lon="11.176234"><ele>163.2</ele><time>2026-05-02T06:34:26.513Z</time></trkpt><trkpt lat="43.4272692" lon="11.1760953"><ele>162.6</ele><time>2026-05-02T06:34:28.515Z</time></trkpt><trkpt lat="43.4272652" lon="11.1759534"><ele>162.0</ele><time>2026-05-02T06:34:30.515Z</time></trkpt><trkpt lat="43.4272619" lon="11.1758204"><ele>163.39999999999998</ele><time>2026-05-02T06:34:32.497Z</time></trkpt><trkpt lat="43.4272603" lon="11.1756869"><ele>164.79999999999998</ele><time>2026-05-02T06:34:34.484Z</time></trkpt><trkpt lat="43.4272672" lon="11.1755379"><ele>166.2</ele><time>2026-05-02T06:34:36.509Z</time></trkpt><trkpt lat="43.4273414" lon="11.1754384"><ele>167.6</ele><time>2026-05-02T06:34:38.508Z</time></trkpt><trkpt lat="43.427429" lon="11.175365"><ele>169.0</ele><time>2026-05-02T06:34:40.493Z</time></trkpt><trkpt lat="43.4275164" lon="11.1753192"><ele>169.0</ele><time>2026-05-02T06:34:42.506Z</time></trkpt><trkpt lat="43.427608" lon="11.1752825"><ele>169.0</ele><time>2026-05-02T06:34:44.507Z</time></trkpt><trkpt lat="43.4277" lon="11.1752448"><ele>169.0</ele><time>2026-05-02T06:34:46.508Z</time></trkpt><trkpt lat="43.4277852" lon="11.1752145"><ele>169.0</ele><time>2026-05-02T06:34:48.488Z</time></trkpt><trkpt lat="43.4278625" lon="11.175178"><ele>169.0</ele><time>2026-05-02T06:34:50.501Z</time></trkpt><trkpt lat="43.4279393" lon="11.1751446"><ele>169.0</ele><time>2026-05-02T06:34:52.491Z</time></trkpt><trkpt lat="43.4280157" lon="11.1751094"><ele>168.5</ele><time>2026-05-02T06:34:54.519Z</time></trkpt><trkpt lat="43.4280853" lon="11.1750699"><ele>168.0</ele><time>2026-05-02T06:34:56.507Z</time></trkpt><trkpt lat="43.4281631" lon="11.1750233"><ele>167.5</ele><time>2026-05-02T06:34:58.511Z</time></trkpt><trkpt lat="43.4282306" lon="11.1749927"><ele>167.0</ele><time>2026-05-02T06:35:00.513Z</time></trkpt><trkpt lat="43.4283095" lon="11.174964"><ele>166.5</ele><time>2026-05-02T06:35:02.495Z</time></trkpt><trkpt lat="43.4283804" lon="11.1749257"><ele>166.0</ele><time>2026-05-02T06:35:04.507Z</time></trkpt><trkpt lat="43.4284556" lon="11.1748982"><ele>167.8</ele><time>2026-05-02T06:35:06.491Z</time></trkpt><trkpt lat="43.4286173" lon="11.1748092"><ele>169.60000000000002</ele><time>2026-05-02T06:35:10.484Z</time></trkpt><trkpt lat="43.4287078" lon="11.1747705"><ele>171.4</ele><time>2026-05-02T06:35:13.501Z</time></trkpt><trkpt lat="43.4287867" lon="11.1747553"><ele>173.2</ele><time>2026-05-02T06:35:15.493Z</time></trkpt><trkpt lat="43.4288714" lon="11.174747"><ele>175.0</ele><time>2026-05-02T06:35:17.513Z</time></trkpt><trkpt lat="43.4289545" lon="11.1747489"><ele>175.0</ele><time>2026-05-02T06:35:19.506Z</time></trkpt><trkpt lat="43.4290359" lon="11.1747657"><ele>175.0</ele><time>2026-05-02T06:35:21.502Z</time></trkpt><trkpt lat="43.4291139" lon="11.1747969"><ele>175.0</ele><time>2026-05-02T06:35:23.5Z</time></trkpt><trkpt lat="43.4291902" lon="11.1748496"><ele>175.0</ele><time>2026-05-02T06:35:25.501Z</time></trkpt><trkpt lat="43.4292642" lon="11.1749163"><ele>175.0</ele><time>2026-05-02T06:35:27.509Z</time></trkpt><trkpt lat="43.4293284" lon="11.1749968"><ele>175.0</ele><time>2026-05-02T06:35:29.504Z</time></trkpt><trkpt lat="43.4293946" lon="11.1750854"><ele>174.0</ele><time>2026-05-02T06:35:31.509Z</time></trkpt><trkpt lat="43.4294649" lon="11.1751653"><ele>173.0</ele><time>2026-05-02T06:35:33.499Z</time></trkpt><trkpt lat="43.4295391" lon="11.1752528"><ele>172.0</ele><time>2026-05-02T06:35:35.545Z</time></trkpt><trkpt lat="43.4296095" lon="11.1753434"><ele>171.0</ele><time>2026-05-02T06:35:37.502Z</time></trkpt><trkpt lat="43.4296881" lon="11.1754255"><ele>170.0</ele><time>2026-05-02T06:35:39.502Z</time></trkpt><trkpt lat="43.4297623" lon="11.1755135"><ele>169.0</ele><time>2026-05-02T06:35:41.51Z</time></trkpt><trkpt lat="43.4298463" lon="11.1756079"><ele>168.0</ele><time>2026-05-02T06:35:43.504Z</time></trkpt><trkpt lat="43.4299362" lon="11.1756863"><ele>167.0</ele><time>2026-05-02T06:35:45.527Z</time></trkpt><trkpt lat="43.4300451" lon="11.1757119"><ele>166.0</ele><time>2026-05-02T06:35:47.511Z</time></trkpt><trkpt lat="43.4301628" lon="11.1756862"><ele>165.0</ele><time>2026-05-02T06:35:49.514Z</time></trkpt><trkpt lat="43.4302576" lon="11.1756085"><ele>165.0</ele><time>2026-05-02T06:35:51.512Z</time></trkpt><trkpt lat="43.4303359" lon="11.1754839"><ele>165.0</ele><time>2026-05-02T06:35:53.496Z</time></trkpt><trkpt lat="43.4303862" lon="11.175342"><ele>165.0</ele><time>2026-05-02T06:35:55.521Z</time></trkpt><trkpt lat="43.4304423" lon="11.1751995"><ele>165.0</ele><time>2026-05-02T06:35:57.511Z</time></trkpt><trkpt lat="43.4305254" lon="11.175102"><ele>164.4</ele><time>2026-05-02T06:35:59.508Z</time></trkpt><trkpt lat="43.4306319" lon="11.1750606"><ele>163.8</ele><time>2026-05-02T06:36:01.514Z</time></trkpt><trkpt lat="43.4307456" lon="11.1750313"><ele>163.2</ele><time>2026-05-02T06:36:03.501Z</time></trkpt><trkpt lat="43.4308596" lon="11.1750106"><ele>162.6</ele><time>2026-05-02T06:36:05.502Z</time></trkpt><trkpt lat="43.4309617" lon="11.1750238"><ele>162.0</ele><time>2026-05-02T06:36:07.506Z</time></trkpt><trkpt lat="43.4310523" lon="11.1750892"><ele>162.0</ele><time>2026-05-02T06:36:09.588Z</time></trkpt><trkpt lat="43.4311115" lon="11.1751751"><ele>162.0</ele><time>2026-05-02T06:36:11.506Z</time></trkpt><trkpt lat="43.431142" lon="11.1753067"><ele>162.0</ele><time>2026-05-02T06:36:13.492Z</time></trkpt><trkpt lat="43.4311766" lon="11.1754642"><ele>162.0</ele><time>2026-05-02T06:36:15.511Z</time></trkpt><trkpt lat="43.4312226" lon="11.1756121"><ele>162.0</ele><time>2026-05-02T06:36:17.509Z</time></trkpt><trkpt lat="43.4312701" lon="11.1757267"><ele>162.2</ele><time>2026-05-02T06:36:19.501Z</time></trkpt><trkpt lat="43.431305" lon="11.1758609"><ele>162.39999999999998</ele><time>2026-05-02T06:36:21.508Z</time></trkpt><trkpt lat="43.4313586" lon="11.1759934"><ele>162.60000000000002</ele><time>2026-05-02T06:36:23.505Z</time></trkpt><trkpt lat="43.4314277" lon="11.1761071"><ele>162.8</ele><time>2026-05-02T06:36:25.508Z</time></trkpt><trkpt lat="43.4315026" lon="11.1762041"><ele>163.0</ele><time>2026-05-02T06:36:27.509Z</time></trkpt><trkpt lat="43.4315842" lon="11.1762868"><ele>163.0</ele><time>2026-05-02T06:36:29.508Z</time></trkpt><trkpt lat="43.4316699" lon="11.1763752"><ele>163.0</ele><time>2026-05-02T06:36:31.499Z</time></trkpt><trkpt lat="43.4317533" lon="11.176462"><ele>163.0</ele><time>2026-05-02T06:36:33.577Z</time></trkpt><trkpt lat="43.4318278" lon="11.176545"><ele>163.0</ele><time>2026-05-02T06:36:35.521Z</time></trkpt><trkpt lat="43.4319126" lon="11.176636"><ele>163.0</ele><time>2026-05-02T06:36:37.503Z</time></trkpt><trkpt lat="43.4320047" lon="11.1767272"><ele>162.20000000000002</ele><time>2026-05-02T06:36:39.581Z</time></trkpt><trkpt lat="43.4320895" lon="11.1768112"><ele>161.4</ele><time>2026-05-02T06:36:41.519Z</time></trkpt><trkpt lat="43.4321777" lon="11.1768945"><ele>160.60000000000002</ele><time>2026-05-02T06:36:43.574Z</time></trkpt><trkpt lat="43.432276" lon="11.176978"><ele>159.8</ele><time>2026-05-02T06:36:45.507Z</time></trkpt><trkpt lat="43.4323678" lon="11.1770264"><ele>159.0</ele><time>2026-05-02T06:36:47.505Z</time></trkpt><trkpt lat="43.4324622" lon="11.1770454"><ele>159.0</ele><time>2026-05-02T06:36:49.584Z</time></trkpt><trkpt lat="43.4325512" lon="11.177077"><ele>159.0</ele><time>2026-05-02T06:36:51.485Z</time></trkpt><trkpt lat="43.4326513" lon="11.17709"><ele>159.0</ele><time>2026-05-02T06:36:53.481Z</time></trkpt><trkpt lat="43.4327496" lon="11.1770705"><ele>159.0</ele><time>2026-05-02T06:36:55.502Z</time></trkpt><trkpt lat="43.4328423" lon="11.1770316"><ele>159.0</ele><time>2026-05-02T06:36:57.523Z</time></trkpt><trkpt lat="43.4329368" lon="11.1769906"><ele>158.6</ele><time>2026-05-02T06:36:59.504Z</time></trkpt><trkpt lat="43.4330358" lon="11.1769451"><ele>158.2</ele><time>2026-05-02T06:37:01.515Z</time></trkpt><trkpt lat="43.4331371" lon="11.1768959"><ele>157.79999999999998</ele><time>2026-05-02T06:37:03.481Z</time></trkpt><trkpt lat="43.4332374" lon="11.1768486"><ele>157.4</ele><time>2026-05-02T06:37:05.497Z</time></trkpt><trkpt lat="43.4333437" lon="11.1767968"><ele>157.0</ele><time>2026-05-02T06:37:07.508Z</time></trkpt><trkpt lat="43.4334369" lon="11.1767487"><ele>157.0</ele><time>2026-05-02T06:37:09.566Z</time></trkpt><trkpt lat="43.4335307" lon="11.1766967"><ele>157.0</ele><time>2026-05-02T06:37:11.517Z</time></trkpt><trkpt lat="43.4335899" lon="11.1766644"><ele>157.0</ele><time>2026-05-02T06:37:12.509Z</time></trkpt><trkpt lat="43.4336973" lon="11.1766209"><ele>157.0</ele><time>2026-05-02T06:37:14.495Z</time></trkpt><trkpt lat="43.4337574" lon="11.176594"><ele>157.0</ele><time>2026-05-02T06:37:15.499Z</time></trkpt><trkpt lat="43.4338623" lon="11.1765406"><ele>157.4</ele><time>2026-05-02T06:37:17.5Z</time></trkpt><trkpt lat="43.4339516" lon="11.1764866"><ele>157.79999999999998</ele><time>2026-05-02T06:37:19.569Z</time></trkpt><trkpt lat="43.4340317" lon="11.1764246"><ele>158.2</ele><time>2026-05-02T06:37:21.517Z</time></trkpt><trkpt lat="43.4341077" lon="11.1763572"><ele>158.6</ele><time>2026-05-02T06:37:23.48Z</time></trkpt><trkpt lat="43.4341861" lon="11.1763182"><ele>159.0</ele><time>2026-05-02T06:37:25.508Z</time></trkpt><trkpt lat="43.4342721" lon="11.1762543"><ele>159.0</ele><time>2026-05-02T06:37:27.496Z</time></trkpt><trkpt lat="43.4343539" lon="11.1761807"><ele>159.0</ele><time>2026-05-02T06:37:29.508Z</time></trkpt><trkpt lat="43.4344337" lon="11.1760994"><ele>159.0</ele><time>2026-05-02T06:37:31.511Z</time></trkpt><trkpt lat="43.4345174" lon="11.1760087"><ele>159.0</ele><time>2026-05-02T06:37:33.507Z</time></trkpt><trkpt lat="43.4345981" lon="11.1759136"><ele>159.0</ele><time>2026-05-02T06:37:35.499Z</time></trkpt><trkpt lat="43.4346876" lon="11.1758079"><ele>158.4</ele><time>2026-05-02T06:37:37.502Z</time></trkpt><trkpt lat="43.4347835" lon="11.1757066"><ele>157.8</ele><time>2026-05-02T06:37:39.512Z</time></trkpt><trkpt lat="43.4348319" lon="11.17565"><ele>157.2</ele><time>2026-05-02T06:37:40.509Z</time></trkpt><trkpt lat="43.4349209" lon="11.1755372"><ele>156.6</ele><time>2026-05-02T06:37:42.597Z</time></trkpt><trkpt lat="43.435015" lon="11.1754215"><ele>156.0</ele><time>2026-05-02T06:37:44.487Z</time></trkpt><trkpt lat="43.4350673" lon="11.1753599"><ele>155.8</ele><time>2026-05-02T06:37:45.515Z</time></trkpt><trkpt lat="43.4351182" lon="11.1753037"><ele>155.6</ele><time>2026-05-02T06:37:46.506Z</time></trkpt><trkpt lat="43.4352028" lon="11.175191"><ele>155.4</ele><time>2026-05-02T06:37:48.586Z</time></trkpt><trkpt lat="43.4352764" lon="11.1750602"><ele>155.2</ele><time>2026-05-02T06:37:50.51Z</time></trkpt><trkpt lat="43.4353767" lon="11.1749547"><ele>155.0</ele><time>2026-05-02T06:37:52.5Z</time></trkpt><trkpt lat="43.4354738" lon="11.1748451"><ele>154.83333333333331</ele><time>2026-05-02T06:37:54.504Z</time></trkpt><trkpt lat="43.4355345" lon="11.1747868"><ele>154.66666666666666</ele><time>2026-05-02T06:37:55.524Z</time></trkpt><trkpt lat="43.4355841" lon="11.1747304"><ele>154.5</ele><time>2026-05-02T06:37:56.526Z</time></trkpt><trkpt lat="43.4356677" lon="11.1746033"><ele>154.33333333333334</ele><time>2026-05-02T06:37:58.569Z</time></trkpt><trkpt lat="43.4357122" lon="11.1745362"><ele>154.16666666666669</ele><time>2026-05-02T06:37:59.497Z</time></trkpt><trkpt lat="43.4357607" lon="11.1744678"><ele>154.0</ele><time>2026-05-02T06:38:00.503Z</time></trkpt><trkpt lat="43.435844" lon="11.1743583"><ele>154.0</ele><time>2026-05-02T06:38:02.505Z</time></trkpt><trkpt lat="43.4359306" lon="11.1742504"><ele>154.0</ele><time>2026-05-02T06:38:04.502Z</time></trkpt><trkpt lat="43.4360214" lon="11.1741316"><ele>154.0</ele><time>2026-05-02T06:38:06.512Z</time></trkpt><trkpt lat="43.4360712" lon="11.1740654"><ele>154.0</ele><time>2026-05-02T06:38:07.498Z</time></trkpt><trkpt lat="43.436122" lon="11.1740004"><ele>154.0</ele><time>2026-05-02T06:38:08.495Z</time></trkpt><trkpt lat="43.4361736" lon="11.173935"><ele>154.0</ele><time>2026-05-02T06:38:09.517Z</time></trkpt><trkpt lat="43.4362258" lon="11.1738703"><ele>154.0</ele><time>2026-05-02T06:38:10.506Z</time></trkpt><trkpt lat="43.4362764" lon="11.1738048"><ele>154.0</ele><time>2026-05-02T06:38:11.495Z</time></trkpt><trkpt lat="43.4363301" lon="11.1737359"><ele>154.0</ele><time>2026-05-02T06:38:12.611Z</time></trkpt><trkpt lat="43.436382" lon="11.1736689"><ele>154.0</ele><time>2026-05-02T06:38:13.574Z</time></trkpt><trkpt lat="43.4364336" lon="11.1736025"><ele>154.0</ele><time>2026-05-02T06:38:14.5Z</time></trkpt><trkpt lat="43.4364871" lon="11.1735364"><ele>154.0</ele><time>2026-05-02T06:38:15.487Z</time></trkpt><trkpt lat="43.4365409" lon="11.1734715"><ele>153.14285714285714</ele><time>2026-05-02T06:38:16.515Z</time></trkpt><trkpt lat="43.4365935" lon="11.1734051"><ele>152.28571428571428</ele><time>2026-05-02T06:38:17.498Z</time></trkpt><trkpt lat="43.4366471" lon="11.173337"><ele>151.42857142857144</ele><time>2026-05-02T06:38:18.517Z</time></trkpt><trkpt lat="43.4366979" lon="11.1732671"><ele>150.57142857142856</ele><time>2026-05-02T06:38:19.5Z</time></trkpt><trkpt lat="43.4367517" lon="11.1731927"><ele>149.71428571428572</ele><time>2026-05-02T06:38:20.501Z</time></trkpt><trkpt lat="43.4368058" lon="11.1731213"><ele>148.85714285714286</ele><time>2026-05-02T06:38:21.518Z</time></trkpt><trkpt lat="43.4368604" lon="11.1730504"><ele>148.0</ele><time>2026-05-02T06:38:22.504Z</time></trkpt><trkpt lat="43.436919" lon="11.172976"><ele>148.0</ele><time>2026-05-02T06:38:23.568Z</time></trkpt><trkpt lat="43.4369757" lon="11.1729103"><ele>148.0</ele><time>2026-05-02T06:38:24.573Z</time></trkpt><trkpt lat="43.4370302" lon="11.1728509"><ele>148.0</ele><time>2026-05-02T06:38:25.499Z</time></trkpt><trkpt lat="43.4370837" lon="11.1727914"><ele>148.0</ele><time>2026-05-02T06:38:26.502Z</time></trkpt><trkpt lat="43.4371355" lon="11.1727272"><ele>148.0</ele><time>2026-05-02T06:38:27.51Z</time></trkpt><trkpt lat="43.4371884" lon="11.1726576"><ele>148.0</ele><time>2026-05-02T06:38:28.571Z</time></trkpt><trkpt lat="43.4372327" lon="11.1725879"><ele>148.0</ele><time>2026-05-02T06:38:29.57Z</time></trkpt><trkpt lat="43.437271" lon="11.17251"><ele>147.71428571428572</ele><time>2026-05-02T06:38:30.479Z</time></trkpt><trkpt lat="43.4373144" lon="11.1724253"><ele>147.42857142857142</ele><time>2026-05-02T06:38:31.51Z</time></trkpt><trkpt lat="43.4373553" lon="11.1723465"><ele>147.14285714285714</ele><time>2026-05-02T06:38:32.497Z</time></trkpt><trkpt lat="43.4373958" lon="11.1722703"><ele>146.85714285714286</ele><time>2026-05-02T06:38:33.479Z</time></trkpt><trkpt lat="43.4374342" lon="11.1721988"><ele>146.57142857142858</ele><time>2026-05-02T06:38:34.499Z</time></trkpt><trkpt lat="43.4374662" lon="11.1721184"><ele>146.28571428571428</ele><time>2026-05-02T06:38:35.503Z</time></trkpt><trkpt lat="43.4374966" lon="11.1720381"><ele>146.0</ele><time>2026-05-02T06:38:36.5Z</time></trkpt><trkpt lat="43.4375217" lon="11.171957"><ele>146.0</ele><time>2026-05-02T06:38:37.51Z</time></trkpt><trkpt lat="43.4375637" lon="11.1717969"><ele>146.0</ele><time>2026-05-02T06:38:39.508Z</time></trkpt><trkpt lat="43.4375889" lon="11.1716309"><ele>146.0</ele><time>2026-05-02T06:38:41.505Z</time></trkpt><trkpt lat="43.437616" lon="11.1714669"><ele>146.0</ele><time>2026-05-02T06:38:43.515Z</time></trkpt><trkpt lat="43.4376322" lon="11.1713805"><ele>146.0</ele><time>2026-05-02T06:38:44.573Z</time></trkpt><trkpt lat="43.4376964" lon="11.1710576"><ele>145.8</ele><time>2026-05-02T06:38:48.497Z</time></trkpt><trkpt lat="43.4377325" lon="11.1709804"><ele>145.6</ele><time>2026-05-02T06:38:49.52Z</time></trkpt><trkpt lat="43.4377169" lon="11.1708821"><ele>145.4</ele><time>2026-05-02T06:38:50.503Z</time></trkpt><trkpt lat="43.4377498" lon="11.1707267"><ele>145.2</ele><time>2026-05-02T06:38:52.507Z</time></trkpt><trkpt lat="43.437774" lon="11.1705642"><ele>145.0</ele><time>2026-05-02T06:38:54.501Z</time></trkpt><trkpt lat="43.4377975" lon="11.1704055"><ele>144.6</ele><time>2026-05-02T06:38:56.477Z</time></trkpt><trkpt lat="43.4378023" lon="11.170319"><ele>144.2</ele><time>2026-05-02T06:38:57.508Z</time></trkpt><trkpt lat="43.437813" lon="11.1701667"><ele>143.8</ele><time>2026-05-02T06:38:59.596Z</time></trkpt><trkpt lat="43.4378237" lon="11.170003"><ele>143.4</ele><time>2026-05-02T06:39:01.516Z</time></trkpt><trkpt lat="43.437849" lon="11.1698394"><ele>143.0</ele><time>2026-05-02T06:39:03.572Z</time></trkpt><trkpt lat="43.4378601" lon="11.169703"><ele>142.16666666666666</ele><time>2026-05-02T06:39:05.509Z</time></trkpt><trkpt lat="43.4378089" lon="11.1695858"><ele>141.33333333333331</ele><time>2026-05-02T06:39:07.513Z</time></trkpt><trkpt lat="43.4377141" lon="11.1695252"><ele>140.5</ele><time>2026-05-02T06:39:09.594Z</time></trkpt><trkpt lat="43.437649" lon="11.1695233"><ele>139.66666666666666</ele><time>2026-05-02T06:39:11.528Z</time></trkpt><trkpt lat="43.4375731" lon="11.169513"><ele>138.83333333333334</ele><time>2026-05-02T06:39:13.514Z</time></trkpt><trkpt lat="43.4374909" lon="11.1694865"><ele>138.0</ele><time>2026-05-02T06:39:15.501Z</time></trkpt><trkpt lat="43.4374106" lon="11.169446"><ele>138.0</ele><time>2026-05-02T06:39:17.51Z</time></trkpt><trkpt lat="43.4373376" lon="11.1694118"><ele>138.0</ele><time>2026-05-02T06:39:19.502Z</time></trkpt><trkpt lat="43.4372629" lon="11.1693735"><ele>138.0</ele><time>2026-05-02T06:39:21.521Z</time></trkpt><trkpt lat="43.4371904" lon="11.1693373"><ele>138.0</ele><time>2026-05-02T06:39:23.509Z</time></trkpt><trkpt lat="43.4371144" lon="11.1693008"><ele>138.0</ele><time>2026-05-02T06:39:25.513Z</time></trkpt><trkpt lat="43.4370361" lon="11.1692687"><ele>138.0</ele><time>2026-05-02T06:39:27.565Z</time></trkpt><trkpt lat="43.4369639" lon="11.1692642"><ele>139.33333333333334</ele><time>2026-05-02T06:39:29.512Z</time></trkpt><trkpt lat="43.4369001" lon="11.1692542"><ele>140.66666666666666</ele><time>2026-05-02T06:39:31.516Z</time></trkpt><trkpt lat="43.4368271" lon="11.1692271"><ele>142.0</ele><time>2026-05-02T06:39:33.504Z</time></trkpt><trkpt lat="43.4367336" lon="11.1692118"><ele>143.33333333333331</ele><time>2026-05-02T06:39:35.506Z</time></trkpt><trkpt lat="43.4366532" lon="11.1692043"><ele>144.66666666666666</ele><time>2026-05-02T06:39:37.505Z</time></trkpt><trkpt lat="43.4365833" lon="11.1691962"><ele>146.0</ele><time>2026-05-02T06:39:39.508Z</time></trkpt><trkpt lat="43.4365142" lon="11.1691196"><ele>145.16666666666666</ele><time>2026-05-02T06:39:42.517Z</time></trkpt><trkpt lat="43.4364948" lon="11.1690133"><ele>144.33333333333331</ele><time>2026-05-02T06:39:45.509Z</time></trkpt><trkpt lat="43.4364991" lon="11.1689195"><ele>143.5</ele><time>2026-05-02T06:39:47.513Z</time></trkpt><trkpt lat="43.4365049" lon="11.1688172"><ele>142.66666666666666</ele><time>2026-05-02T06:39:49.505Z</time></trkpt><trkpt lat="43.4365089" lon="11.1687055"><ele>141.83333333333334</ele><time>2026-05-02T06:39:51.502Z</time></trkpt><trkpt lat="43.4365243" lon="11.1685903"><ele>141.0</ele><time>2026-05-02T06:39:53.496Z</time></trkpt><trkpt lat="43.4365144" lon="11.1684803"><ele>141.0</ele><time>2026-05-02T06:39:55.508Z</time></trkpt><trkpt lat="43.4364822" lon="11.168379"><ele>141.0</ele><time>2026-05-02T06:39:57.508Z</time></trkpt><trkpt lat="43.4364345" lon="11.1682906"><ele>141.0</ele><time>2026-05-02T06:39:59.575Z</time></trkpt><trkpt lat="43.4363962" lon="11.1682103"><ele>141.0</ele><time>2026-05-02T06:40:01.504Z</time></trkpt><trkpt lat="43.4363492" lon="11.1681516"><ele>141.0</ele><time>2026-05-02T06:40:03.511Z</time></trkpt><trkpt lat="43.4362733" lon="11.1680768"><ele>141.0</ele><time>2026-05-02T06:40:06.5Z</time></trkpt><trkpt lat="43.4362175" lon="11.1680122"><ele>142.28571428571428</ele><time>2026-05-02T06:40:09.507Z</time></trkpt><trkpt lat="43.4361636" lon="11.1679482"><ele>143.57142857142856</ele><time>2026-05-02T06:40:12.497Z</time></trkpt><trkpt lat="43.4361089" lon="11.1678857"><ele>144.85714285714283</ele><time>2026-05-02T06:40:15.5Z</time></trkpt><trkpt lat="43.4360558" lon="11.1678201"><ele>146.14285714285714</ele><time>2026-05-02T06:40:18.497Z</time></trkpt><trkpt lat="43.436005" lon="11.1677492"><ele>147.42857142857142</ele><time>2026-05-02T06:40:21.506Z</time></trkpt><trkpt lat="43.4359498" lon="11.1676771"><ele>148.7142857142857</ele><time>2026-05-02T06:40:24.507Z</time></trkpt><trkpt lat="43.4358873" lon="11.1676062"><ele>150.0</ele><time>2026-05-02T06:40:27.502Z</time></trkpt><trkpt lat="43.4358292" lon="11.1675326"><ele>150.0</ele><time>2026-05-02T06:40:30.52Z</time></trkpt><trkpt lat="43.435771" lon="11.1674546"><ele>150.0</ele><time>2026-05-02T06:40:33.5Z</time></trkpt><trkpt lat="43.4357097" lon="11.1673767"><ele>150.0</ele><time>2026-05-02T06:40:36.509Z</time></trkpt><trkpt lat="43.4356498" lon="11.1672991"><ele>150.0</ele><time>2026-05-02T06:40:39.493Z</time></trkpt><trkpt lat="43.4355879" lon="11.1672249"><ele>150.0</ele><time>2026-05-02T06:40:42.508Z</time></trkpt><trkpt lat="43.4355311" lon="11.1671501"><ele>150.0</ele><time>2026-05-02T06:40:45.496Z</time></trkpt><trkpt lat="43.4354745" lon="11.1670685"><ele>151.28571428571428</ele><time>2026-05-02T06:40:48.573Z</time></trkpt><trkpt lat="43.4354143" lon="11.1669931"><ele>152.57142857142856</ele><time>2026-05-02T06:40:51.501Z</time></trkpt><trkpt lat="43.4353583" lon="11.1669263"><ele>153.85714285714283</ele><time>2026-05-02T06:40:54.563Z</time></trkpt><trkpt lat="43.435304" lon="11.1668585"><ele>155.14285714285714</ele><time>2026-05-02T06:40:57.507Z</time></trkpt><trkpt lat="43.4352518" lon="11.1667931"><ele>156.42857142857144</ele><time>2026-05-02T06:41:00.506Z</time></trkpt><trkpt lat="43.4352012" lon="11.1667336"><ele>157.7142857142857</ele><time>2026-05-02T06:41:03.512Z</time></trkpt><trkpt lat="43.4351531" lon="11.1666678"><ele>159.0</ele><time>2026-05-02T06:41:06.514Z</time></trkpt><trkpt lat="43.4351049" lon="11.1666036"><ele>159.0</ele><time>2026-05-02T06:41:09.57Z</time></trkpt><trkpt lat="43.4350342" lon="11.1665423"><ele>159.0</ele><time>2026-05-02T06:41:13.505Z</time></trkpt><trkpt lat="43.4349789" lon="11.1664979"><ele>159.0</ele><time>2026-05-02T06:41:16.498Z</time></trkpt><trkpt lat="43.4349188" lon="11.1665241"><ele>159.0</ele><time>2026-05-02T06:41:20.507Z</time></trkpt><trkpt lat="43.434855" lon="11.1665548"><ele>159.0</ele><time>2026-05-02T06:41:23.518Z</time></trkpt><trkpt lat="43.4347822" lon="11.1665825"><ele>159.0</ele><time>2026-05-02T06:41:27.506Z</time></trkpt><trkpt lat="43.4347207" lon="11.1666177"><ele>159.0</ele><time>2026-05-02T06:41:30.491Z</time></trkpt><trkpt lat="43.4346554" lon="11.1666507"><ele>161.14285714285714</ele><time>2026-05-02T06:41:33.502Z</time></trkpt><trkpt lat="43.4345935" lon="11.1666855"><ele>163.2857142857143</ele><time>2026-05-02T06:41:37.493Z</time></trkpt><trkpt lat="43.434521" lon="11.1667246"><ele>165.42857142857144</ele><time>2026-05-02T06:41:41.492Z</time></trkpt><trkpt lat="43.4344583" lon="11.1667494"><ele>167.57142857142856</ele><time>2026-05-02T06:41:44.51Z</time></trkpt><trkpt lat="43.4343728" lon="11.1667634"><ele>169.71428571428572</ele><time>2026-05-02T06:41:48.564Z</time></trkpt><trkpt lat="43.4343091" lon="11.1667597"><ele>171.85714285714286</ele><time>2026-05-02T06:41:51.513Z</time></trkpt><trkpt lat="43.4342429" lon="11.1667472"><ele>174.0</ele><time>2026-05-02T06:41:54.559Z</time></trkpt><trkpt lat="43.4341745" lon="11.1667159"><ele>174.0</ele><time>2026-05-02T06:41:57.497Z</time></trkpt><trkpt lat="43.4341688" lon="11.1665978"><ele>174.0</ele><time>2026-05-02T06:42:01.502Z</time></trkpt><trkpt lat="43.4341589" lon="11.1664822"><ele>174.0</ele><time>2026-05-02T06:42:04.512Z</time></trkpt><trkpt lat="43.4341451" lon="11.1663933"><ele>174.0</ele><time>2026-05-02T06:42:06.478Z</time></trkpt><trkpt lat="43.4341304" lon="11.1662972"><ele>174.0</ele><time>2026-05-02T06:42:08.495Z</time></trkpt><trkpt lat="43.4341026" lon="11.1661746"><ele>174.0</ele><time>2026-05-02T06:42:10.486Z</time></trkpt><trkpt lat="43.4340787" lon="11.1660571"><ele>172.6</ele><time>2026-05-02T06:42:12.514Z</time></trkpt><trkpt lat="43.4340586" lon="11.1659281"><ele>171.2</ele><time>2026-05-02T06:42:14.487Z</time></trkpt><trkpt lat="43.4340222" lon="11.1657832"><ele>169.79999999999998</ele><time>2026-05-02T06:42:16.518Z</time></trkpt><trkpt lat="43.434006" lon="11.1656408"><ele>168.39999999999998</ele><time>2026-05-02T06:42:18.502Z</time></trkpt><trkpt lat="43.4340105" lon="11.1654892"><ele>167.0</ele><time>2026-05-02T06:42:20.509Z</time></trkpt><trkpt lat="43.4340234" lon="11.1653325"><ele>165.6</ele><time>2026-05-02T06:42:22.499Z</time></trkpt><trkpt lat="43.4340346" lon="11.1651703"><ele>164.2</ele><time>2026-05-02T06:42:24.504Z</time></trkpt><trkpt lat="43.4340407" lon="11.1650152"><ele>162.8</ele><time>2026-05-02T06:42:26.505Z</time></trkpt><trkpt lat="43.4340507" lon="11.1648558"><ele>161.4</ele><time>2026-05-02T06:42:28.503Z</time></trkpt><trkpt lat="43.4340611" lon="11.1647674"><ele>160.0</ele><time>2026-05-02T06:42:29.497Z</time></trkpt><trkpt lat="43.4340699" lon="11.1646768"><ele>159.83333333333334</ele><time>2026-05-02T06:42:30.507Z</time></trkpt><trkpt lat="43.4340771" lon="11.1645904"><ele>159.66666666666669</ele><time>2026-05-02T06:42:31.507Z</time></trkpt><trkpt lat="43.434078" lon="11.1644216"><ele>159.5</ele><time>2026-05-02T06:42:33.564Z</time></trkpt><trkpt lat="43.4340673" lon="11.1643327"><ele>159.33333333333334</ele><time>2026-05-02T06:42:34.567Z</time></trkpt><trkpt lat="43.4340746" lon="11.1642435"><ele>159.16666666666666</ele><time>2026-05-02T06:42:35.481Z</time></trkpt><trkpt lat="43.4340889" lon="11.1641585"><ele>159.0</ele><time>2026-05-02T06:42:36.507Z</time></trkpt><trkpt lat="43.4341012" lon="11.1639907"><ele>158.8</ele><time>2026-05-02T06:42:38.593Z</time></trkpt><trkpt lat="43.4341133" lon="11.1638296"><ele>158.60000000000002</ele><time>2026-05-02T06:42:40.495Z</time></trkpt><trkpt lat="43.4341185" lon="11.163672"><ele>158.4</ele><time>2026-05-02T06:42:42.506Z</time></trkpt><trkpt lat="43.4341118" lon="11.1635343"><ele>158.20000000000002</ele><time>2026-05-02T06:42:44.505Z</time></trkpt><trkpt lat="43.4340893" lon="11.1634184"><ele>158.0</ele><time>2026-05-02T06:42:46.504Z</time></trkpt><trkpt lat="43.43405" lon="11.1633163"><ele>158.0</ele><time>2026-05-02T06:42:48.499Z</time></trkpt><trkpt lat="43.4340192" lon="11.1632309"><ele>158.0</ele><time>2026-05-02T06:42:50.501Z</time></trkpt><trkpt lat="43.4339925" lon="11.1631298"><ele>158.0</ele><time>2026-05-02T06:42:53.501Z</time></trkpt><trkpt lat="43.4339805" lon="11.1630424"><ele>158.0</ele><time>2026-05-02T06:42:55.508Z</time></trkpt><trkpt lat="43.4339797" lon="11.1629375"><ele>158.0</ele><time>2026-05-02T06:42:56.5Z</time></trkpt><trkpt lat="43.4339957" lon="11.1628424"><ele>158.0</ele><time>2026-05-02T06:42:57.496Z</time></trkpt><trkpt lat="43.4340564" lon="11.1627035"><ele>158.0</ele><time>2026-05-02T06:42:59.503Z</time></trkpt><trkpt lat="43.4341156" lon="11.1625866"><ele>158.0</ele><time>2026-05-02T06:43:01.507Z</time></trkpt><trkpt lat="43.4341581" lon="11.1624731"><ele>158.0</ele><time>2026-05-02T06:43:03.505Z</time></trkpt><trkpt lat="43.4341819" lon="11.162367"><ele>158.0</ele><time>2026-05-02T06:43:05.5Z</time></trkpt><trkpt lat="43.4341723" lon="11.1622544"><ele>158.0</ele><time>2026-05-02T06:43:07.509Z</time></trkpt><trkpt lat="43.4341587" lon="11.1621525"><ele>158.0</ele><time>2026-05-02T06:43:09.498Z</time></trkpt><trkpt lat="43.4341512" lon="11.1620264"><ele>159.14285714285717</ele><time>2026-05-02T06:43:11.498Z</time></trkpt><trkpt lat="43.4341377" lon="11.1619116"><ele>160.28571428571428</ele><time>2026-05-02T06:43:13.515Z</time></trkpt><trkpt lat="43.4341079" lon="11.1618268"><ele>161.42857142857144</ele><time>2026-05-02T06:43:15.511Z</time></trkpt><trkpt lat="43.4340575" lon="11.1617669"><ele>162.57142857142858</ele><time>2026-05-02T06:43:18.506Z</time></trkpt><trkpt lat="43.4339921" lon="11.1616935"><ele>163.71428571428572</ele><time>2026-05-02T06:43:22.493Z</time></trkpt><trkpt lat="43.4339441" lon="11.1616114"><ele>164.85714285714286</ele><time>2026-05-02T06:43:27.498Z</time></trkpt><trkpt lat="43.4339086" lon="11.1615357"><ele>166.0</ele><time>2026-05-02T06:43:31.493Z</time></trkpt><trkpt lat="43.4338766" lon="11.1614559"><ele>166.28571428571428</ele><time>2026-05-02T06:43:35.491Z</time></trkpt><trkpt lat="43.433843" lon="11.1613819"><ele>166.57142857142858</ele><time>2026-05-02T06:43:39.501Z</time></trkpt><trkpt lat="43.433805" lon="11.1613069"><ele>166.85714285714286</ele><time>2026-05-02T06:43:43.501Z</time></trkpt><trkpt lat="43.4337659" lon="11.1612333"><ele>167.14285714285714</ele><time>2026-05-02T06:43:47.518Z</time></trkpt><trkpt lat="43.4337358" lon="11.1611465"><ele>167.42857142857144</ele><time>2026-05-02T06:43:51.501Z</time></trkpt><trkpt lat="43.4336928" lon="11.1610705"><ele>167.71428571428572</ele><time>2026-05-02T06:43:55.5Z</time></trkpt><trkpt lat="43.4336582" lon="11.1609783"><ele>168.0</ele><time>2026-05-02T06:44:00.483Z</time></trkpt><trkpt lat="43.4336571" lon="11.160888"><ele>168.0</ele><time>2026-05-02T06:44:05.502Z</time></trkpt><trkpt lat="43.4337174" lon="11.1608446"><ele>168.0</ele><time>2026-05-02T06:44:09.587Z</time></trkpt><trkpt lat="43.4337773" lon="11.1607688"><ele>168.0</ele><time>2026-05-02T06:44:13.501Z</time></trkpt><trkpt lat="43.4338461" lon="11.1607513"><ele>168.0</ele><time>2026-05-02T06:44:16.498Z</time></trkpt><trkpt lat="43.433918" lon="11.1607228"><ele>168.0</ele><time>2026-05-02T06:44:20.488Z</time></trkpt><trkpt lat="43.4339652" lon="11.1606574"><ele>168.0</ele><time>2026-05-02T06:44:23.505Z</time></trkpt><trkpt lat="43.433994" lon="11.1605762"><ele>168.0</ele><time>2026-05-02T06:44:25.51Z</time></trkpt><trkpt lat="43.4340142" lon="11.1604443"><ele>168.33333333333334</ele><time>2026-05-02T06:44:28.506Z</time></trkpt><trkpt lat="43.434024" lon="11.1603461"><ele>168.66666666666666</ele><time>2026-05-02T06:44:30.498Z</time></trkpt><trkpt lat="43.434028" lon="11.1602355"><ele>169.0</ele><time>2026-05-02T06:44:32.517Z</time></trkpt><trkpt lat="43.4340382" lon="11.16012"><ele>169.33333333333331</ele><time>2026-05-02T06:44:34.497Z</time></trkpt><trkpt lat="43.4340485" lon="11.1600043"><ele>169.66666666666666</ele><time>2026-05-02T06:44:36.512Z</time></trkpt><trkpt lat="43.4340653" lon="11.159881"><ele>170.0</ele><time>2026-05-02T06:44:38.52Z</time></trkpt><trkpt lat="43.4341023" lon="11.1597572"><ele>172.0</ele><time>2026-05-02T06:44:40.487Z</time></trkpt><trkpt lat="43.4341459" lon="11.159628"><ele>174.0</ele><time>2026-05-02T06:44:42.509Z</time></trkpt><trkpt lat="43.4341915" lon="11.1594998"><ele>176.0</ele><time>2026-05-02T06:44:44.515Z</time></trkpt><trkpt lat="43.4342352" lon="11.1593598"><ele>178.0</ele><time>2026-05-02T06:44:46.496Z</time></trkpt><trkpt lat="43.4342776" lon="11.1592071"><ele>180.0</ele><time>2026-05-02T06:44:48.586Z</time></trkpt><trkpt lat="43.4343055" lon="11.1590699"><ele>181.8</ele><time>2026-05-02T06:44:50.511Z</time></trkpt><trkpt lat="43.4343538" lon="11.1589483"><ele>183.6</ele><time>2026-05-02T06:44:52.496Z</time></trkpt><trkpt lat="43.4344109" lon="11.1588419"><ele>185.39999999999998</ele><time>2026-05-02T06:44:54.513Z</time></trkpt><trkpt lat="43.4344507" lon="11.1587292"><ele>187.2</ele><time>2026-05-02T06:44:56.501Z</time></trkpt><trkpt lat="43.4344924" lon="11.1585915"><ele>189.0</ele><time>2026-05-02T06:44:58.506Z</time></trkpt><trkpt lat="43.4345455" lon="11.1584449"><ele>189.0</ele><time>2026-05-02T06:45:00.509Z</time></trkpt><trkpt lat="43.4345984" lon="11.1583086"><ele>189.0</ele><time>2026-05-02T06:45:02.51Z</time></trkpt><trkpt lat="43.4346502" lon="11.1581689"><ele>189.0</ele><time>2026-05-02T06:45:04.504Z</time></trkpt><trkpt lat="43.4346875" lon="11.1580311"><ele>189.0</ele><time>2026-05-02T06:45:06.499Z</time></trkpt><trkpt lat="43.4347134" lon="11.1578711"><ele>187.0</ele><time>2026-05-02T06:45:08.478Z</time></trkpt><trkpt lat="43.4347321" lon="11.1577857"><ele>185.0</ele><time>2026-05-02T06:45:09.486Z</time></trkpt><trkpt lat="43.4347529" lon="11.1577018"><ele>183.0</ele><time>2026-05-02T06:45:10.487Z</time></trkpt><trkpt lat="43.4347777" lon="11.1576142"><ele>181.0</ele><time>2026-05-02T06:45:11.48Z</time></trkpt><trkpt lat="43.4348025" lon="11.1575282"><ele>179.0</ele><time>2026-05-02T06:45:12.513Z</time></trkpt><trkpt lat="43.4348281" lon="11.1574401"><ele>177.0</ele><time>2026-05-02T06:45:13.504Z</time></trkpt><trkpt lat="43.4348528" lon="11.1573495"><ele>175.0</ele><time>2026-05-02T06:45:14.506Z</time></trkpt><trkpt lat="43.4348813" lon="11.1571828"><ele>175.0</ele><time>2026-05-02T06:45:16.508Z</time></trkpt><trkpt lat="43.4349076" lon="11.1570245"><ele>175.0</ele><time>2026-05-02T06:45:18.498Z</time></trkpt><trkpt lat="43.4349321" lon="11.1568777"><ele>175.0</ele><time>2026-05-02T06:45:20.505Z</time></trkpt><trkpt lat="43.4349729" lon="11.1567641"><ele>175.0</ele><time>2026-05-02T06:45:22.506Z</time></trkpt><trkpt lat="43.4349893" lon="11.1566564"><ele>175.0</ele><time>2026-05-02T06:45:25.518Z</time></trkpt><trkpt lat="43.4350135" lon="11.1565395"><ele>177.6</ele><time>2026-05-02T06:45:28.492Z</time></trkpt><trkpt lat="43.4350491" lon="11.1564241"><ele>180.2</ele><time>2026-05-02T06:45:31.509Z</time></trkpt><trkpt lat="43.4350831" lon="11.1563031"><ele>182.8</ele><time>2026-05-02T06:45:34.511Z</time></trkpt><trkpt lat="43.435111" lon="11.1562016"><ele>185.4</ele><time>2026-05-02T06:45:36.503Z</time></trkpt><trkpt lat="43.4351658" lon="11.1560829"><ele>188.0</ele><time>2026-05-02T06:45:38.496Z</time></trkpt><trkpt lat="43.4352237" lon="11.1559808"><ele>188.0</ele><time>2026-05-02T06:45:40.505Z</time></trkpt><trkpt lat="43.4352735" lon="11.155874"><ele>188.0</ele><time>2026-05-02T06:45:42.501Z</time></trkpt><trkpt lat="43.4353204" lon="11.1557642"><ele>188.0</ele><time>2026-05-02T06:45:44.506Z</time></trkpt><trkpt lat="43.435373" lon="11.1556585"><ele>188.0</ele><time>2026-05-02T06:45:46.499Z</time></trkpt><trkpt lat="43.4354334" lon="11.1555545"><ele>188.0</ele><time>2026-05-02T06:45:48.5Z</time></trkpt><trkpt lat="43.4354987" lon="11.1554623"><ele>183.8</ele><time>2026-05-02T06:45:50.508Z</time></trkpt><trkpt lat="43.4355609" lon="11.1553464"><ele>179.60000000000002</ele><time>2026-05-02T06:45:52.497Z</time></trkpt><trkpt lat="43.435624" lon="11.1552417"><ele>175.39999999999998</ele><time>2026-05-02T06:45:54.501Z</time></trkpt><trkpt lat="43.4356793" lon="11.1551296"><ele>171.2</ele><time>2026-05-02T06:45:56.511Z</time></trkpt><trkpt lat="43.435743" lon="11.155022"><ele>167.0</ele><time>2026-05-02T06:45:58.512Z</time></trkpt><trkpt lat="43.4358116" lon="11.1549164"><ele>171.8</ele><time>2026-05-02T06:46:00.499Z</time></trkpt><trkpt lat="43.4358805" lon="11.1548023"><ele>176.6</ele><time>2026-05-02T06:46:02.499Z</time></trkpt><trkpt lat="43.4359504" lon="11.1546858"><ele>181.4</ele><time>2026-05-02T06:46:04.503Z</time></trkpt><trkpt lat="43.4360215" lon="11.1545705"><ele>186.20000000000002</ele><time>2026-05-02T06:46:06.481Z</time></trkpt><trkpt lat="43.4360987" lon="11.154472"><ele>191.0</ele><time>2026-05-02T06:46:08.509Z</time></trkpt><trkpt lat="43.4361786" lon="11.1543856"><ele>191.0</ele><time>2026-05-02T06:46:10.493Z</time></trkpt><trkpt lat="43.4362683" lon="11.1542916"><ele>191.0</ele><time>2026-05-02T06:46:12.495Z</time></trkpt><trkpt lat="43.4363624" lon="11.1542171"><ele>191.0</ele><time>2026-05-02T06:46:14.501Z</time></trkpt><trkpt lat="43.4364582" lon="11.1541535"><ele>191.0</ele><time>2026-05-02T06:46:16.509Z</time></trkpt><trkpt lat="43.4365508" lon="11.1540898"><ele>191.0</ele><time>2026-05-02T06:46:18.498Z</time></trkpt><trkpt lat="43.4366441" lon="11.1540183"><ele>190.60000000000002</ele><time>2026-05-02T06:46:20.495Z</time></trkpt><trkpt lat="43.4367329" lon="11.1539368"><ele>190.2</ele><time>2026-05-02T06:46:22.496Z</time></trkpt><trkpt lat="43.4368177" lon="11.1538461"><ele>189.8</ele><time>2026-05-02T06:46:24.507Z</time></trkpt><trkpt lat="43.4368924" lon="11.1537462"><ele>189.39999999999998</ele><time>2026-05-02T06:46:26.499Z</time></trkpt><trkpt lat="43.4369642" lon="11.1536339"><ele>189.0</ele><time>2026-05-02T06:46:28.503Z</time></trkpt><trkpt lat="43.4370326" lon="11.153523"><ele>189.0</ele><time>2026-05-02T06:46:30.499Z</time></trkpt><trkpt lat="43.4371131" lon="11.1534404"><ele>189.0</ele><time>2026-05-02T06:46:32.497Z</time></trkpt><trkpt lat="43.4372232" lon="11.1533352"><ele>189.0</ele><time>2026-05-02T06:46:34.497Z</time></trkpt><trkpt lat="43.4372768" lon="11.1532776"><ele>189.0</ele><time>2026-05-02T06:46:35.502Z</time></trkpt><trkpt lat="43.4373747" lon="11.1531659"><ele>189.0</ele><time>2026-05-02T06:46:37.503Z</time></trkpt><trkpt lat="43.4374263" lon="11.1531053"><ele>186.0</ele><time>2026-05-02T06:46:38.506Z</time></trkpt><trkpt lat="43.4374831" lon="11.1530443"><ele>183.0</ele><time>2026-05-02T06:46:39.505Z</time></trkpt><trkpt lat="43.4375402" lon="11.152989"><ele>180.0</ele><time>2026-05-02T06:46:40.499Z</time></trkpt><trkpt lat="43.4375993" lon="11.1529385"><ele>177.0</ele><time>2026-05-02T06:46:41.5Z</time></trkpt><trkpt lat="43.4376596" lon="11.1528814"><ele>174.0</ele><time>2026-05-02T06:46:42.477Z</time></trkpt><trkpt lat="43.4377089" lon="11.152824"><ele>171.0</ele><time>2026-05-02T06:46:43.494Z</time></trkpt><trkpt lat="43.4377598" lon="11.1527692"><ele>168.0</ele><time>2026-05-02T06:46:44.498Z</time></trkpt><trkpt lat="43.4378549" lon="11.1526441"><ele>168.0</ele><time>2026-05-02T06:46:46.478Z</time></trkpt><trkpt lat="43.4378984" lon="11.1525776"><ele>168.0</ele><time>2026-05-02T06:46:47.503Z</time></trkpt><trkpt lat="43.4379855" lon="11.1524598"><ele>168.0</ele><time>2026-05-02T06:46:49.498Z</time></trkpt><trkpt lat="43.4380733" lon="11.1523377"><ele>168.0</ele><time>2026-05-02T06:46:51.503Z</time></trkpt><trkpt lat="43.438146" lon="11.1522197"><ele>168.0</ele><time>2026-05-02T06:46:53.523Z</time></trkpt><trkpt lat="43.4382164" lon="11.1521075"><ele>165.4</ele><time>2026-05-02T06:46:55.501Z</time></trkpt><trkpt lat="43.4382678" lon="11.1519849"><ele>162.8</ele><time>2026-05-02T06:46:57.517Z</time></trkpt><trkpt lat="43.4382986" lon="11.1518571"><ele>160.2</ele><time>2026-05-02T06:46:59.5Z</time></trkpt><trkpt lat="43.4383221" lon="11.1517355"><ele>157.6</ele><time>2026-05-02T06:47:01.511Z</time></trkpt><trkpt lat="43.4383364" lon="11.1516122"><ele>155.0</ele><time>2026-05-02T06:47:03.514Z</time></trkpt><trkpt lat="43.4383503" lon="11.1514932"><ele>155.0</ele><time>2026-05-02T06:47:05.511Z</time></trkpt><trkpt lat="43.438374" lon="11.1513709"><ele>155.0</ele><time>2026-05-02T06:47:07.507Z</time></trkpt><trkpt lat="43.4383854" lon="11.1512491"><ele>155.0</ele><time>2026-05-02T06:47:09.51Z</time></trkpt><trkpt lat="43.4383913" lon="11.151127"><ele>155.0</ele><time>2026-05-02T06:47:11.484Z</time></trkpt><trkpt lat="43.438399" lon="11.1510031"><ele>155.0</ele><time>2026-05-02T06:47:13.513Z</time></trkpt><trkpt lat="43.4384103" lon="11.1509012"><ele>155.0</ele><time>2026-05-02T06:47:15.498Z</time></trkpt><trkpt lat="43.438418" lon="11.1508014"><ele>155.5</ele><time>2026-05-02T06:47:17.509Z</time></trkpt><trkpt lat="43.4384218" lon="11.1506961"><ele>156.0</ele><time>2026-05-02T06:47:19.512Z</time></trkpt><trkpt lat="43.438429" lon="11.1505955"><ele>156.5</ele><time>2026-05-02T06:47:21.506Z</time></trkpt><trkpt lat="43.4384364" lon="11.1504962"><ele>157.0</ele><time>2026-05-02T06:47:23.51Z</time></trkpt><trkpt lat="43.4384481" lon="11.1503894"><ele>157.5</ele><time>2026-05-02T06:47:25.504Z</time></trkpt><trkpt lat="43.4384752" lon="11.1502921"><ele>158.0</ele><time>2026-05-02T06:47:27.501Z</time></trkpt><trkpt lat="43.4385082" lon="11.1501977"><ele>158.0</ele><time>2026-05-02T06:47:29.482Z</time></trkpt><trkpt lat="43.438546" lon="11.1501101"><ele>158.0</ele><time>2026-05-02T06:47:31.491Z</time></trkpt><trkpt lat="43.43859" lon="11.1500167"><ele>158.0</ele><time>2026-05-02T06:47:33.49Z</time></trkpt><trkpt lat="43.4386332" lon="11.149916"><ele>158.0</ele><time>2026-05-02T06:47:35.506Z</time></trkpt><trkpt lat="43.4386752" lon="11.1498195"><ele>158.0</ele><time>2026-05-02T06:47:37.5Z</time></trkpt><trkpt lat="43.438718" lon="11.1497281"><ele>158.0</ele><time>2026-05-02T06:47:39.502Z</time></trkpt><trkpt lat="43.438759" lon="11.1496618"><ele>158.33333333333331</ele><time>2026-05-02T06:47:41.481Z</time></trkpt><trkpt lat="43.4388136" lon="11.1495685"><ele>158.66666666666666</ele><time>2026-05-02T06:47:44.515Z</time></trkpt><trkpt lat="43.4388934" lon="11.1495108"><ele>159.0</ele><time>2026-05-02T06:47:47.5Z</time></trkpt><trkpt lat="43.4389673" lon="11.1495142"><ele>159.33333333333334</ele><time>2026-05-02T06:47:50.503Z</time></trkpt><trkpt lat="43.4390365" lon="11.149533"><ele>159.66666666666669</ele><time>2026-05-02T06:47:53.517Z</time></trkpt><trkpt lat="43.4391216" lon="11.149562"><ele>160.0</ele><time>2026-05-02T06:47:56.505Z</time></trkpt><trkpt lat="43.439195" lon="11.1495317"><ele>160.0</ele><time>2026-05-02T06:47:59.498Z</time></trkpt><trkpt lat="43.4392588" lon="11.1494427"><ele>160.0</ele><time>2026-05-02T06:48:02.494Z</time></trkpt><trkpt lat="43.4393211" lon="11.1493395"><ele>160.0</ele><time>2026-05-02T06:48:07.519Z</time></trkpt><trkpt lat="43.4393645" lon="11.1492624"><ele>160.0</ele><time>2026-05-02T06:48:09.577Z</time></trkpt><trkpt lat="43.4393982" lon="11.1491339"><ele>160.0</ele><time>2026-05-02T06:48:11.502Z</time></trkpt><trkpt lat="43.4394303" lon="11.1490546"><ele>160.0</ele><time>2026-05-02T06:48:13.496Z</time></trkpt><trkpt lat="43.4394315" lon="11.1489607"><ele>161.0</ele><time>2026-05-02T06:48:21.513Z</time></trkpt><trkpt lat="43.4394027" lon="11.1488573"><ele>162.0</ele><time>2026-05-02T06:48:26.513Z</time></trkpt><trkpt lat="43.4393367" lon="11.1487882"><ele>163.0</ele><time>2026-05-02T06:48:29.508Z</time></trkpt><trkpt lat="43.439269" lon="11.1487122"><ele>164.0</ele><time>2026-05-02T06:48:32.511Z</time></trkpt><trkpt lat="43.4392037" lon="11.1486288"><ele>165.0</ele><time>2026-05-02T06:48:35.512Z</time></trkpt><trkpt lat="43.4391377" lon="11.1485423"><ele>166.0</ele><time>2026-05-02T06:48:38.507Z</time></trkpt><trkpt lat="43.4390826" lon="11.1484738"><ele>166.0</ele><time>2026-05-02T06:48:40.511Z</time></trkpt><trkpt lat="43.4390258" lon="11.1484081"><ele>166.0</ele><time>2026-05-02T06:48:42.578Z</time></trkpt><trkpt lat="43.4389663" lon="11.1483195"><ele>166.0</ele><time>2026-05-02T06:48:44.51Z</time></trkpt><trkpt lat="43.4389106" lon="11.1482365"><ele>166.0</ele><time>2026-05-02T06:48:46.511Z</time></trkpt><trkpt lat="43.4388559" lon="11.1481529"><ele>166.0</ele><time>2026-05-02T06:48:48.486Z</time></trkpt><trkpt lat="43.4387772" lon="11.1480367"><ele>166.0</ele><time>2026-05-02T06:48:51.499Z</time></trkpt><trkpt lat="43.4387187" lon="11.1479603"><ele>164.4</ele><time>2026-05-02T06:48:53.497Z</time></trkpt><trkpt lat="43.4386601" lon="11.1478778"><ele>162.8</ele><time>2026-05-02T06:48:55.509Z</time></trkpt><trkpt lat="43.4385958" lon="11.1477984"><ele>161.20000000000002</ele><time>2026-05-02T06:48:57.509Z</time></trkpt><trkpt lat="43.4385351" lon="11.1477077"><ele>159.60000000000002</ele><time>2026-05-02T06:48:59.498Z</time></trkpt><trkpt lat="43.4384685" lon="11.147614"><ele>158.0</ele><time>2026-05-02T06:49:01.489Z</time></trkpt><trkpt lat="43.4383977" lon="11.1475255"><ele>158.00000000000003</ele><time>2026-05-02T06:49:03.484Z</time></trkpt><trkpt lat="43.4383502" lon="11.1474393"><ele>158.0</ele><time>2026-05-02T06:49:05.489Z</time></trkpt><trkpt lat="43.4383852" lon="11.1473617"><ele>158.0</ele><time>2026-05-02T06:49:07.501Z</time></trkpt><trkpt lat="43.4384411" lon="11.1474187"><ele>158.0</ele><time>2026-05-02T06:49:09.484Z</time></trkpt><trkpt lat="43.4384804" lon="11.1474928"><ele>158.0</ele><time>2026-05-02T06:49:11.519Z</time></trkpt><trkpt lat="43.4385376" lon="11.1475679"><ele>158.00000000000003</ele><time>2026-05-02T06:49:14.494Z</time></trkpt><trkpt lat="43.4386104" lon="11.1475717"><ele>158.0</ele><time>2026-05-02T06:49:17.494Z</time></trkpt><trkpt lat="43.4386785" lon="11.1475084"><ele>158.0</ele><time>2026-05-02T06:49:21.493Z</time></trkpt><trkpt lat="43.438749" lon="11.1474283"><ele>158.0</ele><time>2026-05-02T06:49:24.49Z</time></trkpt><trkpt lat="43.4388179" lon="11.1473783"><ele>158.0</ele><time>2026-05-02T06:49:26.492Z</time></trkpt><trkpt lat="43.4388864" lon="11.1473098"><ele>158.0</ele><time>2026-05-02T06:49:28.486Z</time></trkpt><trkpt lat="43.4389608" lon="11.1472254"><ele>158.0</ele><time>2026-05-02T06:49:30.49Z</time></trkpt><trkpt lat="43.4390426" lon="11.1471473"><ele>157.8</ele><time>2026-05-02T06:49:32.507Z</time></trkpt><trkpt lat="43.4391185" lon="11.1470637"><ele>157.60000000000002</ele><time>2026-05-02T06:49:34.508Z</time></trkpt><trkpt lat="43.439189" lon="11.1469659"><ele>157.39999999999998</ele><time>2026-05-02T06:49:36.496Z</time></trkpt><trkpt lat="43.4392509" lon="11.146865"><ele>157.2</ele><time>2026-05-02T06:49:38.493Z</time></trkpt><trkpt lat="43.4393113" lon="11.1467503"><ele>157.0</ele><time>2026-05-02T06:49:40.494Z</time></trkpt><trkpt lat="43.439365" lon="11.1466326"><ele>155.79999999999998</ele><time>2026-05-02T06:49:42.486Z</time></trkpt><trkpt lat="43.4394155" lon="11.1465103"><ele>154.6</ele><time>2026-05-02T06:49:44.485Z</time></trkpt><trkpt lat="43.4394637" lon="11.1463928"><ele>153.39999999999998</ele><time>2026-05-02T06:49:46.501Z</time></trkpt><trkpt lat="43.4395023" lon="11.1462725"><ele>152.2</ele><time>2026-05-02T06:49:48.495Z</time></trkpt><trkpt lat="43.4395278" lon="11.14615"><ele>151.0</ele><time>2026-05-02T06:49:50.508Z</time></trkpt><trkpt lat="43.4395569" lon="11.1460343"><ele>151.0</ele><time>2026-05-02T06:49:52.511Z</time></trkpt><trkpt lat="43.4395924" lon="11.1459294"><ele>151.0</ele><time>2026-05-02T06:49:54.497Z</time></trkpt><trkpt lat="43.4396267" lon="11.1458355"><ele>151.0</ele><time>2026-05-02T06:49:56.508Z</time></trkpt><trkpt lat="43.4396683" lon="11.145752"><ele>151.0</ele><time>2026-05-02T06:49:58.498Z</time></trkpt><trkpt lat="43.4397193" lon="11.1456789"><ele>151.0</ele><time>2026-05-02T06:50:00.495Z</time></trkpt><trkpt lat="43.4397769" lon="11.1456059"><ele>151.0</ele><time>2026-05-02T06:50:02.489Z</time></trkpt><trkpt lat="43.4398416" lon="11.1455334"><ele>152.57142857142858</ele><time>2026-05-02T06:50:04.519Z</time></trkpt><trkpt lat="43.4398953" lon="11.1454541"><ele>154.14285714285714</ele><time>2026-05-02T06:50:06.498Z</time></trkpt><trkpt lat="43.4399476" lon="11.1453776"><ele>155.71428571428572</ele><time>2026-05-02T06:50:08.506Z</time></trkpt><trkpt lat="43.4399973" lon="11.1452993"><ele>157.28571428571428</ele><time>2026-05-02T06:50:10.507Z</time></trkpt><trkpt lat="43.4400417" lon="11.1452225"><ele>158.85714285714286</ele><time>2026-05-02T06:50:12.563Z</time></trkpt><trkpt lat="43.4400846" lon="11.1451514"><ele>160.42857142857144</ele><time>2026-05-02T06:50:14.495Z</time></trkpt><trkpt lat="43.4401288" lon="11.1450848"><ele>162.0</ele><time>2026-05-02T06:50:16.514Z</time></trkpt><trkpt lat="43.4401999" lon="11.1450099"><ele>162.0</ele><time>2026-05-02T06:50:19.49Z</time></trkpt><trkpt lat="43.4402814" lon="11.1449608"><ele>162.0</ele><time>2026-05-02T06:50:22.489Z</time></trkpt><trkpt lat="43.4403501" lon="11.1449116"><ele>162.0</ele><time>2026-05-02T06:50:25.503Z</time></trkpt><trkpt lat="43.4404225" lon="11.1448573"><ele>162.0</ele><time>2026-05-02T06:50:28.569Z</time></trkpt><trkpt lat="43.4405066" lon="11.1448459"><ele>162.0</ele><time>2026-05-02T06:50:31.493Z</time></trkpt><trkpt lat="43.4405741" lon="11.1448111"><ele>162.0</ele><time>2026-05-02T06:50:33.471Z</time></trkpt><trkpt lat="43.440664" lon="11.1447712"><ele>161.57142857142858</ele><time>2026-05-02T06:50:35.496Z</time></trkpt><trkpt lat="43.4407396" lon="11.1447358"><ele>161.14285714285714</ele><time>2026-05-02T06:50:37.499Z</time></trkpt><trkpt lat="43.4407984" lon="11.1446956"><ele>160.71428571428572</ele><time>2026-05-02T06:50:39.5Z</time></trkpt><trkpt lat="43.4408662" lon="11.1446576"><ele>160.28571428571428</ele><time>2026-05-02T06:50:41.495Z</time></trkpt><trkpt lat="43.4409273" lon="11.1446244"><ele>159.85714285714286</ele><time>2026-05-02T06:50:43.47Z</time></trkpt><trkpt lat="43.4409953" lon="11.1445883"><ele>159.42857142857142</ele><time>2026-05-02T06:50:45.498Z</time></trkpt><trkpt lat="43.4410679" lon="11.1445534"><ele>159.0</ele><time>2026-05-02T06:50:47.49Z</time></trkpt><trkpt lat="43.4411573" lon="11.1445308"><ele>159.0</ele><time>2026-05-02T06:50:49.512Z</time></trkpt><trkpt lat="43.4412486" lon="11.1445014"><ele>159.0</ele><time>2026-05-02T06:50:51.488Z</time></trkpt><trkpt lat="43.4413303" lon="11.1444708"><ele>159.0</ele><time>2026-05-02T06:50:53.492Z</time></trkpt><trkpt lat="43.4414044" lon="11.1444402"><ele>159.0</ele><time>2026-05-02T06:50:55.47Z</time></trkpt><trkpt lat="43.4415003" lon="11.1444016"><ele>159.0</ele><time>2026-05-02T06:50:57.505Z</time></trkpt><trkpt lat="43.4415903" lon="11.1443858"><ele>159.0</ele><time>2026-05-02T06:50:59.487Z</time></trkpt><trkpt lat="43.4416811" lon="11.1443721"><ele>159.16666666666666</ele><time>2026-05-02T06:51:01.488Z</time></trkpt><trkpt lat="43.441773" lon="11.1443701"><ele>159.33333333333334</ele><time>2026-05-02T06:51:03.491Z</time></trkpt><trkpt lat="43.4418655" lon="11.1443808"><ele>159.5</ele><time>2026-05-02T06:51:05.501Z</time></trkpt><trkpt lat="43.4419528" lon="11.1443856"><ele>159.66666666666669</ele><time>2026-05-02T06:51:07.507Z</time></trkpt><trkpt lat="43.4420408" lon="11.1443934"><ele>159.83333333333334</ele><time>2026-05-02T06:51:09.501Z</time></trkpt><trkpt lat="43.4421185" lon="11.1444012"><ele>160.0</ele><time>2026-05-02T06:51:11.492Z</time></trkpt><trkpt lat="43.4422" lon="11.1444067"><ele>160.0</ele><time>2026-05-02T06:51:13.487Z</time></trkpt><trkpt lat="43.4422766" lon="11.1444169"><ele>160.0</ele><time>2026-05-02T06:51:15.489Z</time></trkpt><trkpt lat="43.4423452" lon="11.1444385"><ele>160.0</ele><time>2026-05-02T06:51:17.49Z</time></trkpt><trkpt lat="43.442424" lon="11.144474"><ele>160.0</ele><time>2026-05-02T06:51:19.497Z</time></trkpt><trkpt lat="43.4425027" lon="11.1445214"><ele>160.0</ele><time>2026-05-02T06:51:21.488Z</time></trkpt><trkpt lat="43.4425881" lon="11.1445681"><ele>160.0</ele><time>2026-05-02T06:51:23.498Z</time></trkpt><trkpt lat="43.4426739" lon="11.1446229"><ele>160.0</ele><time>2026-05-02T06:51:25.512Z</time></trkpt><trkpt lat="43.4427549" lon="11.1446935"><ele>160.0</ele><time>2026-05-02T06:51:27.505Z</time></trkpt><trkpt lat="43.4428366" lon="11.1447598"><ele>160.0</ele><time>2026-05-02T06:51:29.594Z</time></trkpt><trkpt lat="43.442921" lon="11.1448194"><ele>160.0</ele><time>2026-05-02T06:51:31.507Z</time></trkpt><trkpt lat="43.4430176" lon="11.144849"><ele>160.0</ele><time>2026-05-02T06:51:33.564Z</time></trkpt><trkpt lat="43.4431182" lon="11.1447902"><ele>160.2</ele><time>2026-05-02T06:51:35.49Z</time></trkpt><trkpt lat="43.4431969" lon="11.1447156"><ele>160.4</ele><time>2026-05-02T06:51:37.496Z</time></trkpt><trkpt lat="43.4432817" lon="11.1446461"><ele>160.60000000000002</ele><time>2026-05-02T06:51:39.569Z</time></trkpt><trkpt lat="43.4433637" lon="11.144562"><ele>160.8</ele><time>2026-05-02T06:51:41.502Z</time></trkpt><trkpt lat="43.4434354" lon="11.1444818"><ele>161.0</ele><time>2026-05-02T06:51:43.497Z</time></trkpt><trkpt lat="43.443499" lon="11.1444021"><ele>161.0</ele><time>2026-05-02T06:51:45.499Z</time></trkpt><trkpt lat="43.443564" lon="11.1443494"><ele>161.0</ele><time>2026-05-02T06:51:47.511Z</time></trkpt><trkpt lat="43.4436465" lon="11.1442964"><ele>161.0</ele><time>2026-05-02T06:51:49.5Z</time></trkpt><trkpt lat="43.4437368" lon="11.14425"><ele>161.0</ele><time>2026-05-02T06:51:51.479Z</time></trkpt><trkpt lat="43.4438332" lon="11.1442108"><ele>161.0</ele><time>2026-05-02T06:51:53.501Z</time></trkpt><trkpt lat="43.4439293" lon="11.1441734"><ele>159.0</ele><time>2026-05-02T06:51:55.501Z</time></trkpt><trkpt lat="43.4440275" lon="11.1441367"><ele>157.0</ele><time>2026-05-02T06:51:57.499Z</time></trkpt><trkpt lat="43.4441287" lon="11.1440914"><ele>155.0</ele><time>2026-05-02T06:51:59.59Z</time></trkpt><trkpt lat="43.4442142" lon="11.144047"><ele>153.0</ele><time>2026-05-02T06:52:01.498Z</time></trkpt><trkpt lat="43.4443054" lon="11.1439884"><ele>151.0</ele><time>2026-05-02T06:52:03.551Z</time></trkpt><trkpt lat="43.4443948" lon="11.1439173"><ele>151.0</ele><time>2026-05-02T06:52:05.493Z</time></trkpt><trkpt lat="43.4444357" lon="11.1438476"><ele>151.0</ele><time>2026-05-02T06:52:06.504Z</time></trkpt><trkpt lat="43.4445219" lon="11.1437207"><ele>151.0</ele><time>2026-05-02T06:52:08.5Z</time></trkpt><trkpt lat="43.4446059" lon="11.143616"><ele>151.0</ele><time>2026-05-02T06:52:10.494Z</time></trkpt><trkpt lat="43.4446978" lon="11.143529"><ele>151.0</ele><time>2026-05-02T06:52:12.494Z</time></trkpt><trkpt lat="43.4447895" lon="11.1434365"><ele>151.2</ele><time>2026-05-02T06:52:14.495Z</time></trkpt><trkpt lat="43.4448641" lon="11.1433483"><ele>151.39999999999998</ele><time>2026-05-02T06:52:16.495Z</time></trkpt><trkpt lat="43.444917" lon="11.1432437"><ele>151.6</ele><time>2026-05-02T06:52:18.507Z</time></trkpt><trkpt lat="43.4449317" lon="11.1431282"><ele>151.79999999999998</ele><time>2026-05-02T06:52:20.499Z</time></trkpt><trkpt lat="43.4449292" lon="11.1429983"><ele>152.0</ele><time>2026-05-02T06:52:22.501Z</time></trkpt><trkpt lat="43.4449143" lon="11.1428738"><ele>152.0</ele><time>2026-05-02T06:52:24.498Z</time></trkpt><trkpt lat="43.4448965" lon="11.1427327"><ele>152.0</ele><time>2026-05-02T06:52:26.492Z</time></trkpt><trkpt lat="43.4448818" lon="11.1425745"><ele>152.0</ele><time>2026-05-02T06:52:28.495Z</time></trkpt><trkpt lat="43.4448656" lon="11.1424211"><ele>152.0</ele><time>2026-05-02T06:52:30.495Z</time></trkpt><trkpt lat="43.4448618" lon="11.1422684"><ele>152.0</ele><time>2026-05-02T06:52:32.502Z</time></trkpt><trkpt lat="43.4448594" lon="11.1421201"><ele>150.6</ele><time>2026-05-02T06:52:34.489Z</time></trkpt><trkpt lat="43.4448754" lon="11.1420028"><ele>149.2</ele><time>2026-05-02T06:52:36.505Z</time></trkpt><trkpt lat="43.4449053" lon="11.1418848"><ele>147.8</ele><time>2026-05-02T06:52:38.498Z</time></trkpt><trkpt lat="43.4449503" lon="11.1417784"><ele>146.4</ele><time>2026-05-02T06:52:40.569Z</time></trkpt><trkpt lat="43.445005" lon="11.1416714"><ele>145.0</ele><time>2026-05-02T06:52:42.496Z</time></trkpt><trkpt lat="43.4450605" lon="11.1415519"><ele>143.5</ele><time>2026-05-02T06:52:44.575Z</time></trkpt><trkpt lat="43.4451163" lon="11.1414119"><ele>142.0</ele><time>2026-05-02T06:52:46.497Z</time></trkpt><trkpt lat="43.4451625" lon="11.1412706"><ele>140.5</ele><time>2026-05-02T06:52:48.566Z</time></trkpt><trkpt lat="43.4451933" lon="11.1411198"><ele>139.0</ele><time>2026-05-02T06:52:50.491Z</time></trkpt><trkpt lat="43.4452192" lon="11.1409691"><ele>139.0</ele><time>2026-05-02T06:52:52.587Z</time></trkpt><trkpt lat="43.4452668" lon="11.1408289"><ele>139.0</ele><time>2026-05-02T06:52:54.494Z</time></trkpt><trkpt lat="43.4453063" lon="11.1406955"><ele>139.0</ele><time>2026-05-02T06:52:56.498Z</time></trkpt><trkpt lat="43.4452901" lon="11.1405337"><ele>139.0</ele><time>2026-05-02T06:52:58.495Z</time></trkpt><trkpt lat="43.4452654" lon="11.1404213"><ele>139.0</ele><time>2026-05-02T06:53:00.498Z</time></trkpt><trkpt lat="43.4452372" lon="11.1402936"><ele>139.0</ele><time>2026-05-02T06:53:02.5Z</time></trkpt><trkpt lat="43.4452019" lon="11.1401839"><ele>139.0</ele><time>2026-05-02T06:53:04.497Z</time></trkpt><trkpt lat="43.4451613" lon="11.140078"><ele>139.0</ele><time>2026-05-02T06:53:06.499Z</time></trkpt><trkpt lat="43.4451157" lon="11.1399797"><ele>139.0</ele><time>2026-05-02T06:53:08.498Z</time></trkpt><trkpt lat="43.4450731" lon="11.1398808"><ele>139.0</ele><time>2026-05-02T06:53:10.48Z</time></trkpt><trkpt lat="43.4450428" lon="11.1397807"><ele>139.0</ele><time>2026-05-02T06:53:12.517Z</time></trkpt><trkpt lat="43.4450427" lon="11.1396521"><ele>139.0</ele><time>2026-05-02T06:53:14.576Z</time></trkpt><trkpt lat="43.4450394" lon="11.1395533"><ele>139.0</ele><time>2026-05-02T06:53:16.498Z</time></trkpt><trkpt lat="43.4450103" lon="11.1394532"><ele>139.0</ele><time>2026-05-02T06:53:18.508Z</time></trkpt><trkpt lat="43.4449637" lon="11.1393418"><ele>139.0</ele><time>2026-05-02T06:53:20.515Z</time></trkpt><trkpt lat="43.4448971" lon="11.1392359"><ele>139.0</ele><time>2026-05-02T06:53:22.503Z</time></trkpt><trkpt lat="43.4448342" lon="11.1391396"><ele>139.0</ele><time>2026-05-02T06:53:24.59Z</time></trkpt><trkpt lat="43.4447504" lon="11.1390263"><ele>138.5</ele><time>2026-05-02T06:53:26.491Z</time></trkpt><trkpt lat="43.4446934" lon="11.138977"><ele>138.0</ele><time>2026-05-02T06:53:27.497Z</time></trkpt><trkpt lat="43.4446084" lon="11.1388913"><ele>137.5</ele><time>2026-05-02T06:53:29.576Z</time></trkpt><trkpt lat="43.444569" lon="11.1387861"><ele>137.0</ele><time>2026-05-02T06:53:31.5Z</time></trkpt><trkpt lat="43.4444841" lon="11.1386929"><ele>136.5</ele><time>2026-05-02T06:53:33.495Z</time></trkpt><trkpt lat="43.4444208" lon="11.13866"><ele>136.0</ele><time>2026-05-02T06:53:34.497Z</time></trkpt><trkpt lat="43.4443067" lon="11.1386073"><ele>133.6</ele><time>2026-05-02T06:53:36.514Z</time></trkpt><trkpt lat="43.4441969" lon="11.1385502"><ele>131.2</ele><time>2026-05-02T06:53:38.509Z</time></trkpt><trkpt lat="43.4440847" lon="11.1384894"><ele>128.8</ele><time>2026-05-02T06:53:40.493Z</time></trkpt><trkpt lat="43.4439893" lon="11.1384322"><ele>126.4</ele><time>2026-05-02T06:53:42.502Z</time></trkpt><trkpt lat="43.4439133" lon="11.1383769"><ele>124.0</ele><time>2026-05-02T06:53:44.513Z</time></trkpt><trkpt lat="43.4438506" lon="11.1383256"><ele>124.00000000000001</ele><time>2026-05-02T06:53:46.502Z</time></trkpt><trkpt lat="43.4438051" lon="11.1382489"><ele>124.0</ele><time>2026-05-02T06:53:48.504Z</time></trkpt><trkpt lat="43.4437597" lon="11.1381445"><ele>124.0</ele><time>2026-05-02T06:53:50.498Z</time></trkpt><trkpt lat="43.4437242" lon="11.1380273"><ele>124.0</ele><time>2026-05-02T06:53:52.51Z</time></trkpt><trkpt lat="43.4437131" lon="11.1379304"><ele>124.00000000000001</ele><time>2026-05-02T06:53:54.515Z</time></trkpt><trkpt lat="43.4437096" lon="11.1378364"><ele>124.0</ele><time>2026-05-02T06:53:56.501Z</time></trkpt><trkpt lat="43.4436781" lon="11.1377092"><ele>121.83333333333334</ele><time>2026-05-02T06:53:58.499Z</time></trkpt><trkpt lat="43.4436829" lon="11.137583"><ele>119.66666666666667</ele><time>2026-05-02T06:54:00.503Z</time></trkpt><trkpt lat="43.4437062" lon="11.1374822"><ele>117.5</ele><time>2026-05-02T06:54:02.511Z</time></trkpt><trkpt lat="43.4437087" lon="11.1373846"><ele>115.33333333333334</ele><time>2026-05-02T06:54:04.579Z</time></trkpt><trkpt lat="43.4437553" lon="11.137271"><ele>113.16666666666667</ele><time>2026-05-02T06:54:07.501Z</time></trkpt><trkpt lat="43.4438163" lon="11.1371829"><ele>111.0</ele><time>2026-05-02T06:54:10.5Z</time></trkpt><trkpt lat="43.4438597" lon="11.1371125"><ele>110.5</ele><time>2026-05-02T06:54:12.488Z</time></trkpt><trkpt lat="43.4439148" lon="11.1370345"><ele>110.0</ele><time>2026-05-02T06:54:14.496Z</time></trkpt><trkpt lat="43.4439739" lon="11.1369494"><ele>109.5</ele><time>2026-05-02T06:54:16.501Z</time></trkpt><trkpt lat="43.4440265" lon="11.1368559"><ele>109.0</ele><time>2026-05-02T06:54:18.502Z</time></trkpt><trkpt lat="43.4440833" lon="11.1367625"><ele>108.5</ele><time>2026-05-02T06:54:20.501Z</time></trkpt><trkpt lat="43.4441418" lon="11.1366609"><ele>108.0</ele><time>2026-05-02T06:54:22.506Z</time></trkpt><trkpt lat="43.4441972" lon="11.1365567"><ele>108.2</ele><time>2026-05-02T06:54:24.597Z</time></trkpt><trkpt lat="43.444308" lon="11.1364806"><ele>108.4</ele><time>2026-05-02T06:54:26.499Z</time></trkpt><trkpt lat="43.4443343" lon="11.1363813"><ele>108.60000000000001</ele><time>2026-05-02T06:54:28.514Z</time></trkpt><trkpt lat="43.4444101" lon="11.1362344"><ele>108.80000000000001</ele><time>2026-05-02T06:54:31.493Z</time></trkpt><trkpt lat="43.4444592" lon="11.1361272"><ele>109.0</ele><time>2026-05-02T06:54:33.498Z</time></trkpt><trkpt lat="43.4445108" lon="11.1360299"><ele>109.0</ele><time>2026-05-02T06:54:35.575Z</time></trkpt><trkpt lat="43.4445896" lon="11.1359397"><ele>109.0</ele><time>2026-05-02T06:54:37.504Z</time></trkpt><trkpt lat="43.4446544" lon="11.1358416"><ele>109.0</ele><time>2026-05-02T06:54:39.504Z</time></trkpt><trkpt lat="43.444704" lon="11.1357523"><ele>109.0</ele><time>2026-05-02T06:54:41.508Z</time></trkpt><trkpt lat="43.4447544" lon="11.1356496"><ele>109.0</ele><time>2026-05-02T06:54:43.499Z</time></trkpt><trkpt lat="43.4448076" lon="11.1355528"><ele>108.6</ele><time>2026-05-02T06:54:45.509Z</time></trkpt><trkpt lat="43.4448617" lon="11.1354532"><ele>108.2</ele><time>2026-05-02T06:54:47.481Z</time></trkpt><trkpt lat="43.4449226" lon="11.1353524"><ele>107.79999999999998</ele><time>2026-05-02T06:54:49.5Z</time></trkpt><trkpt lat="43.4449854" lon="11.135242"><ele>107.39999999999999</ele><time>2026-05-02T06:54:51.508Z</time></trkpt><trkpt lat="43.4450434" lon="11.1351416"><ele>107.0</ele><time>2026-05-02T06:54:53.51Z</time></trkpt><trkpt lat="43.4451051" lon="11.1350328"><ele>107.0</ele><time>2026-05-02T06:54:55.503Z</time></trkpt><trkpt lat="43.4451644" lon="11.1349363"><ele>106.99999999999999</ele><time>2026-05-02T06:54:57.496Z</time></trkpt><trkpt lat="43.4452252" lon="11.1348378"><ele>106.99999999999999</ele><time>2026-05-02T06:54:59.509Z</time></trkpt><trkpt lat="43.4452828" lon="11.1347384"><ele>107.0</ele><time>2026-05-02T06:55:01.51Z</time></trkpt><trkpt lat="43.4453405" lon="11.1346358"><ele>107.0</ele><time>2026-05-02T06:55:03.498Z</time></trkpt><trkpt lat="43.4453992" lon="11.1345308"><ele>106.8</ele><time>2026-05-02T06:55:05.511Z</time></trkpt><trkpt lat="43.4454575" lon="11.1344286"><ele>106.6</ele><time>2026-05-02T06:55:07.507Z</time></trkpt><trkpt lat="43.445513" lon="11.1343198"><ele>106.39999999999999</ele><time>2026-05-02T06:55:09.496Z</time></trkpt><trkpt lat="43.4455663" lon="11.1342136"><ele>106.19999999999999</ele><time>2026-05-02T06:55:11.505Z</time></trkpt><trkpt lat="43.4456202" lon="11.1341112"><ele>106.0</ele><time>2026-05-02T06:55:13.499Z</time></trkpt><trkpt lat="43.4456754" lon="11.1340015"><ele>106.6</ele><time>2026-05-02T06:55:15.504Z</time></trkpt><trkpt lat="43.4457273" lon="11.1338894"><ele>107.19999999999999</ele><time>2026-05-02T06:55:17.495Z</time></trkpt><trkpt lat="43.4457722" lon="11.1337771"><ele>107.80000000000001</ele><time>2026-05-02T06:55:19.499Z</time></trkpt><trkpt lat="43.4458178" lon="11.1336672"><ele>108.4</ele><time>2026-05-02T06:55:21.499Z</time></trkpt><trkpt lat="43.4458672" lon="11.1335497"><ele>109.0</ele><time>2026-05-02T06:55:23.48Z</time></trkpt><trkpt lat="43.4459194" lon="11.1334318"><ele>109.00000000000001</ele><time>2026-05-02T06:55:25.507Z</time></trkpt><trkpt lat="43.4459648" lon="11.1333149"><ele>109.0</ele><time>2026-05-02T06:55:27.52Z</time></trkpt><trkpt lat="43.4460122" lon="11.1332013"><ele>109.0</ele><time>2026-05-02T06:55:29.497Z</time></trkpt><trkpt lat="43.4460587" lon="11.1330936"><ele>109.0</ele><time>2026-05-02T06:55:31.499Z</time></trkpt><trkpt lat="43.4461014" lon="11.1330061"><ele>109.00000000000001</ele><time>2026-05-02T06:55:33.511Z</time></trkpt><trkpt lat="43.4461415" lon="11.132921"><ele>109.0</ele><time>2026-05-02T06:55:35.511Z</time></trkpt><trkpt lat="43.4461991" lon="11.1328195"><ele>109.0</ele><time>2026-05-02T06:55:37.498Z</time></trkpt><trkpt lat="43.4462576" lon="11.1327153"><ele>109.0</ele><time>2026-05-02T06:55:39.512Z</time></trkpt><trkpt lat="43.4463225" lon="11.1326119"><ele>109.0</ele><time>2026-05-02T06:55:41.496Z</time></trkpt><trkpt lat="43.4463945" lon="11.1325139"><ele>109.0</ele><time>2026-05-02T06:55:43.493Z</time></trkpt><trkpt lat="43.446468" lon="11.1324255"><ele>109.0</ele><time>2026-05-02T06:55:45.498Z</time></trkpt><trkpt lat="43.4465381" lon="11.132339"><ele>109.0</ele><time>2026-05-02T06:55:47.503Z</time></trkpt><trkpt lat="43.4466159" lon="11.1322612"><ele>109.0</ele><time>2026-05-02T06:55:49.504Z</time></trkpt><trkpt lat="43.4466973" lon="11.132194"><ele>109.0</ele><time>2026-05-02T06:55:51.497Z</time></trkpt><trkpt lat="43.4467799" lon="11.1321263"><ele>109.0</ele><time>2026-05-02T06:55:53.5Z</time></trkpt><trkpt lat="43.446866" lon="11.1320573"><ele>109.0</ele><time>2026-05-02T06:55:55.5Z</time></trkpt><trkpt lat="43.4469563" lon="11.1319998"><ele>109.0</ele><time>2026-05-02T06:55:57.49Z</time></trkpt><trkpt lat="43.4470533" lon="11.131943"><ele>109.0</ele><time>2026-05-02T06:55:59.479Z</time></trkpt><trkpt lat="43.4471438" lon="11.1318961"><ele>109.0</ele><time>2026-05-02T06:56:01.502Z</time></trkpt><trkpt lat="43.4472364" lon="11.1318571"><ele>109.0</ele><time>2026-05-02T06:56:03.5Z</time></trkpt><trkpt lat="43.4473338" lon="11.1318235"><ele>109.0</ele><time>2026-05-02T06:56:05.499Z</time></trkpt><trkpt lat="43.4474316" lon="11.1318001"><ele>109.6</ele><time>2026-05-02T06:56:07.493Z</time></trkpt><trkpt lat="43.4475256" lon="11.1317945"><ele>110.2</ele><time>2026-05-02T06:56:09.511Z</time></trkpt><trkpt lat="43.4476233" lon="11.131788"><ele>110.79999999999998</ele><time>2026-05-02T06:56:11.502Z</time></trkpt><trkpt lat="43.4477241" lon="11.1317813"><ele>111.39999999999999</ele><time>2026-05-02T06:56:13.519Z</time></trkpt><trkpt lat="43.4478258" lon="11.1317857"><ele>112.0</ele><time>2026-05-02T06:56:15.501Z</time></trkpt><trkpt lat="43.447931" lon="11.1317945"><ele>112.0</ele><time>2026-05-02T06:56:17.507Z</time></trkpt><trkpt lat="43.4480359" lon="11.131809"><ele>111.99999999999999</ele><time>2026-05-02T06:56:19.496Z</time></trkpt><trkpt lat="43.4481383" lon="11.1318145"><ele>111.99999999999999</ele><time>2026-05-02T06:56:21.493Z</time></trkpt><trkpt lat="43.4482437" lon="11.1318215"><ele>112.0</ele><time>2026-05-02T06:56:23.502Z</time></trkpt><trkpt lat="43.4483501" lon="11.1318356"><ele>112.0</ele><time>2026-05-02T06:56:25.506Z</time></trkpt><trkpt lat="43.4484532" lon="11.1318409"><ele>112.0</ele><time>2026-05-02T06:56:27.496Z</time></trkpt><trkpt lat="43.448558" lon="11.1318482"><ele>111.99999999999999</ele><time>2026-05-02T06:56:29.484Z</time></trkpt><trkpt lat="43.4486545" lon="11.1318536"><ele>111.99999999999999</ele><time>2026-05-02T06:56:31.514Z</time></trkpt><trkpt lat="43.448753" lon="11.1318649"><ele>112.0</ele><time>2026-05-02T06:56:33.497Z</time></trkpt><trkpt lat="43.4488549" lon="11.1318665"><ele>112.0</ele><time>2026-05-02T06:56:35.474Z</time></trkpt><trkpt lat="43.4489543" lon="11.1318724"><ele>111.19999999999999</ele><time>2026-05-02T06:56:37.495Z</time></trkpt><trkpt lat="43.4490543" lon="11.1318792"><ele>110.39999999999999</ele><time>2026-05-02T06:56:39.488Z</time></trkpt><trkpt lat="43.4491566" lon="11.1318924"><ele>109.60000000000001</ele><time>2026-05-02T06:56:41.509Z</time></trkpt><trkpt lat="43.4492558" lon="11.1319"><ele>108.80000000000001</ele><time>2026-05-02T06:56:43.505Z</time></trkpt><trkpt lat="43.4493489" lon="11.1319072"><ele>108.0</ele><time>2026-05-02T06:56:45.496Z</time></trkpt><trkpt lat="43.4494452" lon="11.1319124"><ele>108.0</ele><time>2026-05-02T06:56:47.494Z</time></trkpt><trkpt lat="43.449536" lon="11.1319237"><ele>108.00000000000001</ele><time>2026-05-02T06:56:49.497Z</time></trkpt><trkpt lat="43.4496256" lon="11.1319315"><ele>108.00000000000001</ele><time>2026-05-02T06:56:51.504Z</time></trkpt><trkpt lat="43.4497152" lon="11.1319383"><ele>108.0</ele><time>2026-05-02T06:56:53.507Z</time></trkpt><trkpt lat="43.4498063" lon="11.1319492"><ele>108.0</ele><time>2026-05-02T06:56:55.495Z</time></trkpt><trkpt lat="43.4498938" lon="11.1319447"><ele>107.60000000000001</ele><time>2026-05-02T06:56:57.507Z</time></trkpt><trkpt lat="43.4499842" lon="11.131966"><ele>107.20000000000002</ele><time>2026-05-02T06:56:59.489Z</time></trkpt><trkpt lat="43.4500833" lon="11.1319777"><ele>106.8</ele><time>2026-05-02T06:57:01.504Z</time></trkpt><trkpt lat="43.4501804" lon="11.1319851"><ele>106.4</ele><time>2026-05-02T06:57:03.514Z</time></trkpt><trkpt lat="43.450277" lon="11.1319887"><ele>106.0</ele><time>2026-05-02T06:57:05.491Z</time></trkpt><trkpt lat="43.4503729" lon="11.1319939"><ele>105.8</ele><time>2026-05-02T06:57:07.5Z</time></trkpt><trkpt lat="43.4504699" lon="11.1320034"><ele>105.6</ele><time>2026-05-02T06:57:09.494Z</time></trkpt><trkpt lat="43.4505617" lon="11.1320127"><ele>105.4</ele><time>2026-05-02T06:57:11.492Z</time></trkpt><trkpt lat="43.4506646" lon="11.1320223"><ele>105.2</ele><time>2026-05-02T06:57:13.506Z</time></trkpt><trkpt lat="43.4507488" lon="11.1320373"><ele>105.0</ele><time>2026-05-02T06:57:15.481Z</time></trkpt><trkpt lat="43.4508408" lon="11.1320581"><ele>105.0</ele><time>2026-05-02T06:57:17.572Z</time></trkpt><trkpt lat="43.4509334" lon="11.1320779"><ele>105.0</ele><time>2026-05-02T06:57:19.487Z</time></trkpt><trkpt lat="43.451026" lon="11.1320972"><ele>105.0</ele><time>2026-05-02T06:57:21.509Z</time></trkpt><trkpt lat="43.4511194" lon="11.1321221"><ele>105.0</ele><time>2026-05-02T06:57:23.501Z</time></trkpt><trkpt lat="43.4512113" lon="11.1321623"><ele>105.0</ele><time>2026-05-02T06:57:25.49Z</time></trkpt><trkpt lat="43.4513017" lon="11.132203"><ele>105.4</ele><time>2026-05-02T06:57:27.497Z</time></trkpt><trkpt lat="43.451395" lon="11.1322319"><ele>105.8</ele><time>2026-05-02T06:57:29.517Z</time></trkpt><trkpt lat="43.4514885" lon="11.1322713"><ele>106.19999999999999</ele><time>2026-05-02T06:57:31.502Z</time></trkpt><trkpt lat="43.4515856" lon="11.1323213"><ele>106.6</ele><time>2026-05-02T06:57:33.517Z</time></trkpt><trkpt lat="43.4516791" lon="11.1323675"><ele>107.0</ele><time>2026-05-02T06:57:35.518Z</time></trkpt><trkpt lat="43.4517719" lon="11.1324134"><ele>107.0</ele><time>2026-05-02T06:57:37.502Z</time></trkpt><trkpt lat="43.4518653" lon="11.1324582"><ele>106.99999999999999</ele><time>2026-05-02T06:57:39.494Z</time></trkpt><trkpt lat="43.4519593" lon="11.1325048"><ele>106.99999999999999</ele><time>2026-05-02T06:57:41.5Z</time></trkpt><trkpt lat="43.4520546" lon="11.1325513"><ele>107.0</ele><time>2026-05-02T06:57:43.5Z</time></trkpt><trkpt lat="43.4521465" lon="11.1325996"><ele>107.0</ele><time>2026-05-02T06:57:45.512Z</time></trkpt><trkpt lat="43.4522425" lon="11.1326445"><ele>106.39999999999999</ele><time>2026-05-02T06:57:47.493Z</time></trkpt><trkpt lat="43.4523296" lon="11.1326889"><ele>105.79999999999998</ele><time>2026-05-02T06:57:49.556Z</time></trkpt><trkpt lat="43.4524104" lon="11.1327349"><ele>105.2</ele><time>2026-05-02T06:57:51.49Z</time></trkpt><trkpt lat="43.452497" lon="11.13278"><ele>104.6</ele><time>2026-05-02T06:57:53.487Z</time></trkpt><trkpt lat="43.4525923" lon="11.1328266"><ele>104.0</ele><time>2026-05-02T06:57:55.493Z</time></trkpt><trkpt lat="43.4526803" lon="11.1328801"><ele>104.0</ele><time>2026-05-02T06:57:57.513Z</time></trkpt><trkpt lat="43.4527707" lon="11.1329278"><ele>104.0</ele><time>2026-05-02T06:57:59.487Z</time></trkpt><trkpt lat="43.4528645" lon="11.1329669"><ele>104.0</ele><time>2026-05-02T06:58:01.49Z</time></trkpt><trkpt lat="43.4529544" lon="11.1330074"><ele>104.0</ele><time>2026-05-02T06:58:03.566Z</time></trkpt><trkpt lat="43.4530163" lon="11.1330362"><ele>104.0</ele><time>2026-05-02T06:58:04.56Z</time></trkpt><trkpt lat="43.4531055" lon="11.1330869"><ele>103.99999999999999</ele><time>2026-05-02T06:58:06.502Z</time></trkpt><trkpt lat="43.4531884" lon="11.1331351"><ele>104.0</ele><time>2026-05-02T06:58:08.51Z</time></trkpt><trkpt lat="43.4532729" lon="11.1331792"><ele>104.0</ele><time>2026-05-02T06:58:10.496Z</time></trkpt><trkpt lat="43.4533635" lon="11.1332206"><ele>104.0</ele><time>2026-05-02T06:58:12.507Z</time></trkpt><trkpt lat="43.4534421" lon="11.1332641"><ele>103.99999999999999</ele><time>2026-05-02T06:58:14.499Z</time></trkpt><trkpt lat="43.4535216" lon="11.1333012"><ele>104.0</ele><time>2026-05-02T06:58:16.497Z</time></trkpt><trkpt lat="43.4535939" lon="11.1333267"><ele>104.0</ele><time>2026-05-02T06:58:18.512Z</time></trkpt><trkpt lat="43.4536598" lon="11.133352"><ele>104.0</ele><time>2026-05-02T06:58:20.513Z</time></trkpt><trkpt lat="43.4537215" lon="11.1333892"><ele>104.0</ele><time>2026-05-02T06:58:22.502Z</time></trkpt><trkpt lat="43.4537884" lon="11.133421"><ele>104.0</ele><time>2026-05-02T06:58:24.581Z</time></trkpt><trkpt lat="43.4538571" lon="11.1334471"><ele>104.0</ele><time>2026-05-02T06:58:26.478Z</time></trkpt><trkpt lat="43.4539237" lon="11.1334822"><ele>104.0</ele><time>2026-05-02T06:58:28.588Z</time></trkpt><trkpt lat="43.453992" lon="11.133515"><ele>104.0</ele><time>2026-05-02T06:58:30.564Z</time></trkpt><trkpt lat="43.4540658" lon="11.1335485"><ele>103.66666666666666</ele><time>2026-05-02T06:58:32.591Z</time></trkpt><trkpt lat="43.4541391" lon="11.1335879"><ele>103.33333333333333</ele><time>2026-05-02T06:58:34.577Z</time></trkpt><trkpt lat="43.4542139" lon="11.1336274"><ele>103.0</ele><time>2026-05-02T06:58:36.496Z</time></trkpt><trkpt lat="43.4542862" lon="11.1336666"><ele>102.66666666666666</ele><time>2026-05-02T06:58:38.497Z</time></trkpt><trkpt lat="43.4543568" lon="11.1337028"><ele>102.33333333333333</ele><time>2026-05-02T06:58:40.492Z</time></trkpt><trkpt lat="43.4544311" lon="11.1337433"><ele>102.0</ele><time>2026-05-02T06:58:42.494Z</time></trkpt><trkpt lat="43.4545087" lon="11.1337874"><ele>102.0</ele><time>2026-05-02T06:58:44.51Z</time></trkpt><trkpt lat="43.4545849" lon="11.1338303"><ele>102.0</ele><time>2026-05-02T06:58:46.499Z</time></trkpt><trkpt lat="43.4546646" lon="11.1338633"><ele>102.0</ele><time>2026-05-02T06:58:48.489Z</time></trkpt><trkpt lat="43.4547375" lon="11.1338976"><ele>102.0</ele><time>2026-05-02T06:58:50.491Z</time></trkpt><trkpt lat="43.4548079" lon="11.1339304"><ele>102.0</ele><time>2026-05-02T06:58:52.495Z</time></trkpt><trkpt lat="43.4548761" lon="11.1339607"><ele>102.0</ele><time>2026-05-02T06:58:54.5Z</time></trkpt><trkpt lat="43.4549454" lon="11.1339818"><ele>102.83333333333333</ele><time>2026-05-02T06:58:56.501Z</time></trkpt><trkpt lat="43.4550176" lon="11.1340094"><ele>103.66666666666666</ele><time>2026-05-02T06:58:58.492Z</time></trkpt><trkpt lat="43.4550928" lon="11.1340303"><ele>104.5</ele><time>2026-05-02T06:59:00.573Z</time></trkpt><trkpt lat="43.4551876" lon="11.1340569"><ele>105.33333333333333</ele><time>2026-05-02T06:59:02.513Z</time></trkpt><trkpt lat="43.4552806" lon="11.1340526"><ele>106.16666666666666</ele><time>2026-05-02T06:59:05.499Z</time></trkpt><trkpt lat="43.4553675" lon="11.1340691"><ele>107.0</ele><time>2026-05-02T06:59:08.507Z</time></trkpt><trkpt lat="43.4554509" lon="11.1340918"><ele>106.99999999999999</ele><time>2026-05-02T06:59:10.56Z</time></trkpt><trkpt lat="43.4555206" lon="11.1340905"><ele>107.0</ele><time>2026-05-02T06:59:13.487Z</time></trkpt><trkpt lat="43.4555891" lon="11.1340556"><ele>107.0</ele><time>2026-05-02T06:59:15.497Z</time></trkpt><trkpt lat="43.4556543" lon="11.1340103"><ele>107.0</ele><time>2026-05-02T06:59:17.488Z</time></trkpt><trkpt lat="43.4557224" lon="11.1339943"><ele>106.99999999999999</ele><time>2026-05-02T06:59:19.495Z</time></trkpt><trkpt lat="43.455796" lon="11.1339609"><ele>107.0</ele><time>2026-05-02T06:59:21.499Z</time></trkpt><trkpt lat="43.4558803" lon="11.1339055"><ele>111.0</ele><time>2026-05-02T06:59:23.505Z</time></trkpt><trkpt lat="43.4560091" lon="11.1338438"><ele>115.0</ele><time>2026-05-02T06:59:26.493Z</time></trkpt><trkpt lat="43.4560857" lon="11.133793"><ele>119.0</ele><time>2026-05-02T06:59:28.505Z</time></trkpt><trkpt lat="43.4562129" lon="11.1337142"><ele>123.0</ele><time>2026-05-02T06:59:31.485Z</time></trkpt><trkpt lat="43.4562991" lon="11.1336605"><ele>123.0</ele><time>2026-05-02T06:59:33.48Z</time></trkpt><trkpt lat="43.4563921" lon="11.1335984"><ele>123.00000000000001</ele><time>2026-05-02T06:59:35.576Z</time></trkpt><trkpt lat="43.4564885" lon="11.133547"><ele>123.00000000000001</ele><time>2026-05-02T06:59:37.483Z</time></trkpt><trkpt lat="43.4565694" lon="11.1335081"><ele>123.0</ele><time>2026-05-02T06:59:39.507Z</time></trkpt><trkpt lat="43.4566557" lon="11.1334817"><ele>123.0</ele><time>2026-05-02T06:59:41.48Z</time></trkpt><trkpt lat="43.4567395" lon="11.1334648"><ele>123.0</ele><time>2026-05-02T06:59:43.486Z</time></trkpt><trkpt lat="43.4568203" lon="11.1334501"><ele>123.0</ele><time>2026-05-02T06:59:45.479Z</time></trkpt><trkpt lat="43.4569018" lon="11.1334498"><ele>123.0</ele><time>2026-05-02T06:59:47.497Z</time></trkpt><trkpt lat="43.4569904" lon="11.1334485"><ele>123.0</ele><time>2026-05-02T06:59:49.481Z</time></trkpt><trkpt lat="43.4570757" lon="11.1334556"><ele>123.0</ele><time>2026-05-02T06:59:51.49Z</time></trkpt><trkpt lat="43.457161" lon="11.1334708"><ele>123.0</ele><time>2026-05-02T06:59:53.467Z</time></trkpt><trkpt lat="43.457244" lon="11.1334907"><ele>124.33333333333333</ele><time>2026-05-02T06:59:55.497Z</time></trkpt><trkpt lat="43.4573256" lon="11.1335216"><ele>125.66666666666666</ele><time>2026-05-02T06:59:57.465Z</time></trkpt><trkpt lat="43.4574056" lon="11.1335591"><ele>127.0</ele><time>2026-05-02T06:59:59.49Z</time></trkpt><trkpt lat="43.4574771" lon="11.1336018"><ele>128.33333333333331</ele><time>2026-05-02T07:00:01.515Z</time></trkpt><trkpt lat="43.4575577" lon="11.1336566"><ele>129.66666666666666</ele><time>2026-05-02T07:00:03.488Z</time></trkpt><trkpt lat="43.4576323" lon="11.1337106"><ele>131.0</ele><time>2026-05-02T07:00:05.587Z</time></trkpt><trkpt lat="43.4577059" lon="11.1337692"><ele>131.0</ele><time>2026-05-02T07:00:07.49Z</time></trkpt><trkpt lat="43.4577767" lon="11.1338253"><ele>131.0</ele><time>2026-05-02T07:00:09.491Z</time></trkpt><trkpt lat="43.4578504" lon="11.1338647"><ele>131.0</ele><time>2026-05-02T07:00:11.498Z</time></trkpt><trkpt lat="43.4579018" lon="11.133922"><ele>131.0</ele><time>2026-05-02T07:00:13.489Z</time></trkpt><trkpt lat="43.4579549" lon="11.1339972"><ele>131.0</ele><time>2026-05-02T07:00:15.592Z</time></trkpt><trkpt lat="43.4580102" lon="11.1340791"><ele>131.0</ele><time>2026-05-02T07:00:17.496Z</time></trkpt><trkpt lat="43.4580663" lon="11.1341814"><ele>130.5</ele><time>2026-05-02T07:00:19.491Z</time></trkpt><trkpt lat="43.4581057" lon="11.1342782"><ele>130.0</ele><time>2026-05-02T07:00:21.499Z</time></trkpt><trkpt lat="43.4581404" lon="11.1343695"><ele>129.5</ele><time>2026-05-02T07:00:23.488Z</time></trkpt><trkpt lat="43.4581728" lon="11.1344638"><ele>129.0</ele><time>2026-05-02T07:00:25.491Z</time></trkpt><trkpt lat="43.458219" lon="11.1345761"><ele>128.5</ele><time>2026-05-02T07:00:27.488Z</time></trkpt><trkpt lat="43.4582738" lon="11.1346815"><ele>128.0</ele><time>2026-05-02T07:00:29.471Z</time></trkpt><trkpt lat="43.4583212" lon="11.1347804"><ele>128.0</ele><time>2026-05-02T07:00:31.491Z</time></trkpt><trkpt lat="43.4583682" lon="11.1348748"><ele>128.0</ele><time>2026-05-02T07:00:33.589Z</time></trkpt><trkpt lat="43.4584041" lon="11.1349871"><ele>128.0</ele><time>2026-05-02T07:00:35.484Z</time></trkpt><trkpt lat="43.4584641" lon="11.1350879"><ele>128.0</ele><time>2026-05-02T07:00:37.493Z</time></trkpt><trkpt lat="43.4585294" lon="11.1352146"><ele>128.0</ele><time>2026-05-02T07:00:39.489Z</time></trkpt><trkpt lat="43.4585753" lon="11.1353491"><ele>126.83333333333333</ele><time>2026-05-02T07:00:41.498Z</time></trkpt><trkpt lat="43.4586134" lon="11.1354546"><ele>125.66666666666666</ele><time>2026-05-02T07:00:43.501Z</time></trkpt><trkpt lat="43.4586705" lon="11.1355461"><ele>124.5</ele><time>2026-05-02T07:00:45.585Z</time></trkpt><trkpt lat="43.4587196" lon="11.1356329"><ele>123.33333333333334</ele><time>2026-05-02T07:00:47.483Z</time></trkpt><trkpt lat="43.4587732" lon="11.1357153"><ele>122.16666666666667</ele><time>2026-05-02T07:00:49.497Z</time></trkpt><trkpt lat="43.4588343" lon="11.135807"><ele>121.0</ele><time>2026-05-02T07:00:51.473Z</time></trkpt><trkpt lat="43.4588949" lon="11.1359061"><ele>121.0</ele><time>2026-05-02T07:00:53.494Z</time></trkpt><trkpt lat="43.4589418" lon="11.1359952"><ele>121.0</ele><time>2026-05-02T07:00:55.576Z</time></trkpt><trkpt lat="43.4589982" lon="11.1360702"><ele>121.0</ele><time>2026-05-02T07:00:57.507Z</time></trkpt><trkpt lat="43.4590914" lon="11.1361741"><ele>121.0</ele><time>2026-05-02T07:00:59.493Z</time></trkpt><trkpt lat="43.459188" lon="11.1362679"><ele>121.0</ele><time>2026-05-02T07:01:01.51Z</time></trkpt><trkpt lat="43.4592791" lon="11.1363569"><ele>121.0</ele><time>2026-05-02T07:01:03.502Z</time></trkpt><trkpt lat="43.4593717" lon="11.1364335"><ele>121.0</ele><time>2026-05-02T07:01:05.481Z</time></trkpt><trkpt lat="43.4594682" lon="11.1364947"><ele>121.0</ele><time>2026-05-02T07:01:07.498Z</time></trkpt><trkpt lat="43.4595725" lon="11.1365547"><ele>121.0</ele><time>2026-05-02T07:01:09.563Z</time></trkpt><trkpt lat="43.4596733" lon="11.1366082"><ele>121.0</ele><time>2026-05-02T07:01:11.481Z</time></trkpt><trkpt lat="43.4597745" lon="11.1366573"><ele>119.4</ele><time>2026-05-02T07:01:13.491Z</time></trkpt><trkpt lat="43.459871" lon="11.1366812"><ele>117.8</ele><time>2026-05-02T07:01:15.565Z</time></trkpt><trkpt lat="43.4599746" lon="11.1367021"><ele>116.20000000000002</ele><time>2026-05-02T07:01:17.506Z</time></trkpt><trkpt lat="43.460038" lon="11.1367096"><ele>114.60000000000001</ele><time>2026-05-02T07:01:18.507Z</time></trkpt><trkpt lat="43.4601502" lon="11.1367275"><ele>113.0</ele><time>2026-05-02T07:01:20.578Z</time></trkpt><trkpt lat="43.4602764" lon="11.1367448"><ele>113.0</ele><time>2026-05-02T07:01:22.513Z</time></trkpt><trkpt lat="43.4603425" lon="11.1367495"><ele>113.00000000000001</ele><time>2026-05-02T07:01:23.502Z</time></trkpt><trkpt lat="43.460453" lon="11.1367497"><ele>113.00000000000001</ele><time>2026-05-02T07:01:25.563Z</time></trkpt><trkpt lat="43.4605642" lon="11.1367572"><ele>113.0</ele><time>2026-05-02T07:01:27.503Z</time></trkpt><trkpt lat="43.460679" lon="11.1367403"><ele>113.0</ele><time>2026-05-02T07:01:29.571Z</time></trkpt><trkpt lat="43.4607853" lon="11.1367035"><ele>111.75</ele><time>2026-05-02T07:01:31.501Z</time></trkpt><trkpt lat="43.4608912" lon="11.1366622"><ele>110.5</ele><time>2026-05-02T07:01:33.486Z</time></trkpt><trkpt lat="43.461012" lon="11.1366321"><ele>109.25</ele><time>2026-05-02T07:01:35.492Z</time></trkpt><trkpt lat="43.4611302" lon="11.136605"><ele>108.0</ele><time>2026-05-02T07:01:37.505Z</time></trkpt><trkpt lat="43.4612396" lon="11.1365855"><ele>108.0</ele><time>2026-05-02T07:01:39.513Z</time></trkpt><trkpt lat="43.4613447" lon="11.1365708"><ele>108.0</ele><time>2026-05-02T07:01:41.493Z</time></trkpt><trkpt lat="43.4614591" lon="11.1365652"><ele>108.0</ele><time>2026-05-02T07:01:43.497Z</time></trkpt><trkpt lat="43.4615704" lon="11.1365783"><ele>108.0</ele><time>2026-05-02T07:01:45.571Z</time></trkpt><trkpt lat="43.4616893" lon="11.1366011"><ele>108.0</ele><time>2026-05-02T07:01:47.496Z</time></trkpt><trkpt lat="43.4617562" lon="11.1366141"><ele>108.0</ele><time>2026-05-02T07:01:48.493Z</time></trkpt><trkpt lat="43.4618187" lon="11.1366358"><ele>108.0</ele><time>2026-05-02T07:01:49.561Z</time></trkpt><trkpt lat="43.4619473" lon="11.1366654"><ele>108.0</ele><time>2026-05-02T07:01:51.492Z</time></trkpt><trkpt lat="43.4620062" lon="11.1367016"><ele>108.0</ele><time>2026-05-02T07:01:52.492Z</time></trkpt><trkpt lat="43.4620635" lon="11.1367384"><ele>108.0</ele><time>2026-05-02T07:01:53.489Z</time></trkpt><trkpt lat="43.4621248" lon="11.1367676"><ele>112.80000000000001</ele><time>2026-05-02T07:01:54.557Z</time></trkpt><trkpt lat="43.4622048" lon="11.1368472"><ele>117.60000000000001</ele><time>2026-05-02T07:01:56.477Z</time></trkpt><trkpt lat="43.4622937" lon="11.1369286"><ele>122.39999999999999</ele><time>2026-05-02T07:01:58.499Z</time></trkpt><trkpt lat="43.4623418" lon="11.136987"><ele>127.19999999999999</ele><time>2026-05-02T07:01:59.556Z</time></trkpt><trkpt lat="43.4624333" lon="11.1370927"><ele>132.0</ele><time>2026-05-02T07:02:01.475Z</time></trkpt><trkpt lat="43.4625246" lon="11.1372079"><ele>132.0</ele><time>2026-05-02T07:02:03.488Z</time></trkpt><trkpt lat="43.4625727" lon="11.1372751"><ele>132.0</ele><time>2026-05-02T07:02:04.552Z</time></trkpt><trkpt lat="43.4626145" lon="11.1373408"><ele>132.0</ele><time>2026-05-02T07:02:05.5Z</time></trkpt><trkpt lat="43.4626565" lon="11.1374092"><ele>132.0</ele><time>2026-05-02T07:02:06.487Z</time></trkpt><trkpt lat="43.4627402" lon="11.1375441"><ele>132.0</ele><time>2026-05-02T07:02:08.498Z</time></trkpt><trkpt lat="43.4628203" lon="11.1376688"><ele>132.0</ele><time>2026-05-02T07:02:10.484Z</time></trkpt><trkpt lat="43.4628937" lon="11.137801"><ele>131.25</ele><time>2026-05-02T07:02:12.515Z</time></trkpt><trkpt lat="43.4629586" lon="11.1379367"><ele>130.5</ele><time>2026-05-02T07:02:14.504Z</time></trkpt><trkpt lat="43.4630136" lon="11.1380788"><ele>129.75</ele><time>2026-05-02T07:02:16.503Z</time></trkpt><trkpt lat="43.4630665" lon="11.1382156"><ele>129.0</ele><time>2026-05-02T07:02:18.564Z</time></trkpt><trkpt lat="43.4631167" lon="11.1383566"><ele>126.0</ele><time>2026-05-02T07:02:20.484Z</time></trkpt><trkpt lat="43.4631579" lon="11.1384805"><ele>123.0</ele><time>2026-05-02T07:02:22.49Z</time></trkpt><trkpt lat="43.4631878" lon="11.1386266"><ele>120.0</ele><time>2026-05-02T07:02:24.555Z</time></trkpt><trkpt lat="43.4632189" lon="11.1387694"><ele>117.0</ele><time>2026-05-02T07:02:26.478Z</time></trkpt><trkpt lat="43.4632531" lon="11.1389119"><ele>114.0</ele><time>2026-05-02T07:02:28.503Z</time></trkpt><trkpt lat="43.463289" lon="11.139046"><ele>113.0</ele><time>2026-05-02T07:02:30.554Z</time></trkpt><trkpt lat="43.4633268" lon="11.1391765"><ele>112.0</ele><time>2026-05-02T07:02:32.499Z</time></trkpt><trkpt lat="43.4633561" lon="11.1392993"><ele>111.0</ele><time>2026-05-02T07:02:34.56Z</time></trkpt><trkpt lat="43.4633991" lon="11.1393854"><ele>110.0</ele><time>2026-05-02T07:02:36.495Z</time></trkpt><trkpt lat="43.463448" lon="11.1394927"><ele>109.0</ele><time>2026-05-02T07:02:38.5Z</time></trkpt><trkpt lat="43.4634985" lon="11.1395856"><ele>108.0</ele><time>2026-05-02T07:02:40.566Z</time></trkpt><trkpt lat="43.4635424" lon="11.1397071"><ele>108.0</ele><time>2026-05-02T07:02:42.489Z</time></trkpt><trkpt lat="43.4636241" lon="11.1398248"><ele>108.0</ele><time>2026-05-02T07:02:44.489Z</time></trkpt><trkpt lat="43.4637094" lon="11.1399306"><ele>108.0</ele><time>2026-05-02T07:02:46.486Z</time></trkpt><trkpt lat="43.463796" lon="11.1400265"><ele>108.0</ele><time>2026-05-02T07:02:48.474Z</time></trkpt><trkpt lat="43.4638816" lon="11.1401198"><ele>107.80000000000001</ele><time>2026-05-02T07:02:50.494Z</time></trkpt><trkpt lat="43.4639698" lon="11.140205"><ele>107.60000000000001</ele><time>2026-05-02T07:02:52.487Z</time></trkpt><trkpt lat="43.464055" lon="11.1402859"><ele>107.39999999999999</ele><time>2026-05-02T07:02:54.566Z</time></trkpt><trkpt lat="43.464145" lon="11.1403656"><ele>107.19999999999999</ele><time>2026-05-02T07:02:56.492Z</time></trkpt><trkpt lat="43.4642315" lon="11.1404449"><ele>107.0</ele><time>2026-05-02T07:02:58.508Z</time></trkpt><trkpt lat="43.464318" lon="11.1405183"><ele>106.99999999999999</ele><time>2026-05-02T07:03:00.555Z</time></trkpt><trkpt lat="43.4643757" lon="11.1405622"><ele>107.0</ele><time>2026-05-02T07:03:01.494Z</time></trkpt><trkpt lat="43.4644316" lon="11.1406049"><ele>107.0</ele><time>2026-05-02T07:03:02.49Z</time></trkpt><trkpt lat="43.464508" lon="11.1406418"><ele>107.0</ele><time>2026-05-02T07:03:04.563Z</time></trkpt><trkpt lat="43.4645847" lon="11.1407042"><ele>106.99999999999999</ele><time>2026-05-02T07:03:06.481Z</time></trkpt><trkpt lat="43.4646819" lon="11.1407545"><ele>107.0</ele><time>2026-05-02T07:03:08.493Z</time></trkpt><trkpt lat="43.4647758" lon="11.1408009"><ele>105.99999999999999</ele><time>2026-05-02T07:03:10.56Z</time></trkpt><trkpt lat="43.4648652" lon="11.1408553"><ele>105.0</ele><time>2026-05-02T07:03:12.489Z</time></trkpt><trkpt lat="43.4649537" lon="11.1408908"><ele>104.0</ele><time>2026-05-02T07:03:14.552Z</time></trkpt><trkpt lat="43.4650402" lon="11.1409122"><ele>103.0</ele><time>2026-05-02T07:03:16.503Z</time></trkpt><trkpt lat="43.4651182" lon="11.1409357"><ele>101.99999999999999</ele><time>2026-05-02T07:03:18.502Z</time></trkpt><trkpt lat="43.4651973" lon="11.1409641"><ele>101.0</ele><time>2026-05-02T07:03:20.501Z</time></trkpt><trkpt lat="43.4652689" lon="11.1409808"><ele>100.99999999999999</ele><time>2026-05-02T07:03:22.487Z</time></trkpt><trkpt lat="43.4653406" lon="11.1409954"><ele>101.0</ele><time>2026-05-02T07:03:24.497Z</time></trkpt><trkpt lat="43.4654155" lon="11.141012"><ele>101.0</ele><time>2026-05-02T07:03:26.493Z</time></trkpt><trkpt lat="43.4654988" lon="11.1410192"><ele>101.0</ele><time>2026-05-02T07:03:28.576Z</time></trkpt><trkpt lat="43.4655828" lon="11.1410239"><ele>100.99999999999999</ele><time>2026-05-02T07:03:30.563Z</time></trkpt><trkpt lat="43.4656516" lon="11.1410431"><ele>101.0</ele><time>2026-05-02T07:03:32.495Z</time></trkpt><trkpt lat="43.465721" lon="11.1410397"><ele>100.33333333333333</ele><time>2026-05-02T07:03:34.503Z</time></trkpt><trkpt lat="43.4658076" lon="11.1410222"><ele>99.66666666666666</ele><time>2026-05-02T07:03:36.502Z</time></trkpt><trkpt lat="43.4658979" lon="11.1409975"><ele>99.0</ele><time>2026-05-02T07:03:38.481Z</time></trkpt><trkpt lat="43.465998" lon="11.140991"><ele>98.33333333333334</ele><time>2026-05-02T07:03:40.56Z</time></trkpt><trkpt lat="43.4660731" lon="11.1409658"><ele>97.66666666666667</ele><time>2026-05-02T07:03:42.502Z</time></trkpt><trkpt lat="43.4661434" lon="11.1409608"><ele>97.0</ele><time>2026-05-02T07:03:44.556Z</time></trkpt><trkpt lat="43.466219" lon="11.14094"><ele>96.66666666666667</ele><time>2026-05-02T07:03:46.474Z</time></trkpt><trkpt lat="43.4662968" lon="11.1409384"><ele>96.33333333333334</ele><time>2026-05-02T07:03:48.492Z</time></trkpt><trkpt lat="43.466377" lon="11.1409177"><ele>96.0</ele><time>2026-05-02T07:03:50.486Z</time></trkpt><trkpt lat="43.4664719" lon="11.1409165"><ele>95.66666666666667</ele><time>2026-05-02T07:03:52.501Z</time></trkpt><trkpt lat="43.4665374" lon="11.1409133"><ele>95.33333333333334</ele><time>2026-05-02T07:03:54.505Z</time></trkpt><trkpt lat="43.4666211" lon="11.1409067"><ele>95.0</ele><time>2026-05-02T07:03:57.495Z</time></trkpt><trkpt lat="43.4666911" lon="11.1408907"><ele>95.0</ele><time>2026-05-02T07:04:01.493Z</time></trkpt><trkpt lat="43.4667703" lon="11.1408764"><ele>95.0</ele><time>2026-05-02T07:04:05.482Z</time></trkpt><trkpt lat="43.4668422" lon="11.1408667"><ele>95.0</ele><time>2026-05-02T07:05:15.563Z</time></trkpt><trkpt lat="43.4669041" lon="11.1408933"><ele>95.0</ele><time>2026-05-02T07:05:25.564Z</time></trkpt><trkpt lat="43.4669659" lon="11.1408388"><ele>95.0</ele><time>2026-05-02T07:05:29.505Z</time></trkpt><trkpt lat="43.4669456" lon="11.1407198"><ele>95.0</ele><time>2026-05-02T07:05:32.503Z</time></trkpt><trkpt lat="43.4669191" lon="11.140627"><ele>95.5</ele><time>2026-05-02T07:05:34.498Z</time></trkpt><trkpt lat="43.4668763" lon="11.1405296"><ele>96.0</ele><time>2026-05-02T07:05:36.507Z</time></trkpt><trkpt lat="43.4668364" lon="11.1404437"><ele>96.5</ele><time>2026-05-02T07:05:38.507Z</time></trkpt><trkpt lat="43.4667904" lon="11.1403495"><ele>97.0</ele><time>2026-05-02T07:05:41.495Z</time></trkpt><trkpt lat="43.4667519" lon="11.1402758"><ele>97.49999999999999</ele><time>2026-05-02T07:05:44.488Z</time></trkpt><trkpt lat="43.4667148" lon="11.1401841"><ele>98.0</ele><time>2026-05-02T07:05:47.496Z</time></trkpt><trkpt lat="43.4666695" lon="11.1400829"><ele>97.99999999999999</ele><time>2026-05-02T07:05:50.511Z</time></trkpt><trkpt lat="43.4666267" lon="11.140001"><ele>98.0</ele><time>2026-05-02T07:05:52.501Z</time></trkpt><trkpt lat="43.466585" lon="11.1399169"><ele>98.0</ele><time>2026-05-02T07:05:54.492Z</time></trkpt><trkpt lat="43.4665464" lon="11.1398305"><ele>98.0</ele><time>2026-05-02T07:05:56.51Z</time></trkpt><trkpt lat="43.466506" lon="11.1397584"><ele>97.99999999999999</ele><time>2026-05-02T07:05:58.504Z</time></trkpt><trkpt lat="43.4664483" lon="11.1396697"><ele>98.0</ele><time>2026-05-02T07:06:01.505Z</time></trkpt><trkpt lat="43.466398" lon="11.1395849"><ele>97.85714285714286</ele><time>2026-05-02T07:06:04.505Z</time></trkpt><trkpt lat="43.4663508" lon="11.1395012"><ele>97.71428571428572</ele><time>2026-05-02T07:06:07.505Z</time></trkpt><trkpt lat="43.4663047" lon="11.139423"><ele>97.57142857142857</ele><time>2026-05-02T07:06:10.502Z</time></trkpt><trkpt lat="43.4662644" lon="11.1393444"><ele>97.42857142857143</ele><time>2026-05-02T07:06:13.505Z</time></trkpt><trkpt lat="43.4662208" lon="11.1392596"><ele>97.28571428571429</ele><time>2026-05-02T07:06:17.495Z</time></trkpt><trkpt lat="43.4661795" lon="11.1391757"><ele>97.14285714285714</ele><time>2026-05-02T07:06:21.492Z</time></trkpt><trkpt lat="43.4661403" lon="11.1390974"><ele>97.0</ele><time>2026-05-02T07:06:24.499Z</time></trkpt><trkpt lat="43.4660911" lon="11.1390092"><ele>98.28571428571428</ele><time>2026-05-02T07:06:28.497Z</time></trkpt><trkpt lat="43.4660623" lon="11.1389294"><ele>99.57142857142858</ele><time>2026-05-02T07:06:31.489Z</time></trkpt><trkpt lat="43.4660175" lon="11.1388529"><ele>100.85714285714286</ele><time>2026-05-02T07:06:34.501Z</time></trkpt><trkpt lat="43.4659763" lon="11.138759"><ele>102.14285714285714</ele><time>2026-05-02T07:06:38.492Z</time></trkpt><trkpt lat="43.4659424" lon="11.1386721"><ele>103.42857142857142</ele><time>2026-05-02T07:06:42.489Z</time></trkpt><trkpt lat="43.4659032" lon="11.1385868"><ele>104.71428571428572</ele><time>2026-05-02T07:06:46.495Z</time></trkpt><trkpt lat="43.4658559" lon="11.1384966"><ele>106.0</ele><time>2026-05-02T07:06:50.489Z</time></trkpt><trkpt lat="43.465807" lon="11.1384089"><ele>106.0</ele><time>2026-05-02T07:06:54.494Z</time></trkpt><trkpt lat="43.4657474" lon="11.1383526"><ele>106.0</ele><time>2026-05-02T07:06:57.505Z</time></trkpt><trkpt lat="43.4656737" lon="11.1383564"><ele>106.0</ele><time>2026-05-02T07:07:00.498Z</time></trkpt><trkpt lat="43.465599" lon="11.1383809"><ele>106.0</ele><time>2026-05-02T07:07:03.494Z</time></trkpt><trkpt lat="43.4655284" lon="11.1384105"><ele>106.0</ele><time>2026-05-02T07:07:06.487Z</time></trkpt><trkpt lat="43.4654616" lon="11.1384511"><ele>106.0</ele><time>2026-05-02T07:07:09.502Z</time></trkpt><trkpt lat="43.4653967" lon="11.1384896"><ele>106.0</ele><time>2026-05-02T07:07:12.498Z</time></trkpt><trkpt lat="43.4653367" lon="11.1385268"><ele>106.85714285714286</ele><time>2026-05-02T07:07:15.499Z</time></trkpt><trkpt lat="43.4652752" lon="11.138563"><ele>107.71428571428571</ele><time>2026-05-02T07:07:18.498Z</time></trkpt><trkpt lat="43.4652091" lon="11.1386006"><ele>108.57142857142857</ele><time>2026-05-02T07:07:21.493Z</time></trkpt><trkpt lat="43.4651266" lon="11.1386248"><ele>109.42857142857143</ele><time>2026-05-02T07:07:24.553Z</time></trkpt><trkpt lat="43.465056" lon="11.1386742"><ele>110.28571428571428</ele><time>2026-05-02T07:07:27.513Z</time></trkpt><trkpt lat="43.4649954" lon="11.1387284"><ele>111.14285714285714</ele><time>2026-05-02T07:07:30.49Z</time></trkpt><trkpt lat="43.4649316" lon="11.1387681"><ele>112.0</ele><time>2026-05-02T07:07:33.499Z</time></trkpt><trkpt lat="43.464868" lon="11.1388136"><ele>112.00000000000001</ele><time>2026-05-02T07:07:36.491Z</time></trkpt><trkpt lat="43.4648114" lon="11.1388578"><ele>112.0</ele><time>2026-05-02T07:07:39.558Z</time></trkpt><trkpt lat="43.4647408" lon="11.1389164"><ele>112.0</ele><time>2026-05-02T07:07:43.494Z</time></trkpt><trkpt lat="43.4646703" lon="11.1389598"><ele>112.0</ele><time>2026-05-02T07:07:46.478Z</time></trkpt><trkpt lat="43.4645888" lon="11.1390031"><ele>112.00000000000001</ele><time>2026-05-02T07:07:49.571Z</time></trkpt><trkpt lat="43.464518" lon="11.1390488"><ele>112.0</ele><time>2026-05-02T07:07:52.488Z</time></trkpt><trkpt lat="43.4644565" lon="11.1391182"><ele>112.57142857142857</ele><time>2026-05-02T07:07:55.56Z</time></trkpt><trkpt lat="43.4643944" lon="11.1391645"><ele>113.14285714285714</ele><time>2026-05-02T07:07:58.483Z</time></trkpt><trkpt lat="43.4643405" lon="11.1390777"><ele>113.71428571428572</ele><time>2026-05-02T07:08:01.478Z</time></trkpt><trkpt lat="43.4643021" lon="11.1389955"><ele>114.28571428571429</ele><time>2026-05-02T07:08:04.494Z</time></trkpt><trkpt lat="43.4642728" lon="11.1389002"><ele>114.85714285714286</ele><time>2026-05-02T07:08:08.484Z</time></trkpt><trkpt lat="43.464248" lon="11.1388172"><ele>115.42857142857144</ele><time>2026-05-02T07:08:12.492Z</time></trkpt><trkpt lat="43.4642264" lon="11.1387101"><ele>116.00000000000001</ele><time>2026-05-02T07:08:17.489Z</time></trkpt><trkpt lat="43.4642002" lon="11.1386089"><ele>117.83333333333333</ele><time>2026-05-02T07:08:22.499Z</time></trkpt><trkpt lat="43.4641418" lon="11.1385228"><ele>119.66666666666666</ele><time>2026-05-02T07:08:27.486Z</time></trkpt><trkpt lat="43.4641649" lon="11.1384135"><ele>121.5</ele><time>2026-05-02T07:08:32.499Z</time></trkpt><trkpt lat="43.4641823" lon="11.13832"><ele>123.33333333333334</ele><time>2026-05-02T07:08:36.477Z</time></trkpt><trkpt lat="43.4642065" lon="11.1382265"><ele>125.16666666666667</ele><time>2026-05-02T07:08:41.498Z</time></trkpt><trkpt lat="43.464236" lon="11.1381426"><ele>127.0</ele><time>2026-05-02T07:08:47.492Z</time></trkpt><trkpt lat="43.4642821" lon="11.1380425"><ele>130.33333333333334</ele><time>2026-05-02T07:08:53.492Z</time></trkpt><trkpt lat="43.4643224" lon="11.1379319"><ele>133.66666666666669</ele><time>2026-05-02T07:08:56.481Z</time></trkpt><trkpt lat="43.4643749" lon="11.1378765"><ele>137.0</ele><time>2026-05-02T07:09:01.469Z</time></trkpt><trkpt lat="43.4644338" lon="11.1377973"><ele>140.33333333333334</ele><time>2026-05-02T07:09:04.559Z</time></trkpt><trkpt lat="43.4644733" lon="11.1377171"><ele>143.66666666666666</ele><time>2026-05-02T07:09:07.492Z</time></trkpt><trkpt lat="43.4645129" lon="11.1376477"><ele>147.0</ele><time>2026-05-02T07:09:10.501Z</time></trkpt><trkpt lat="43.4645554" lon="11.1375506"><ele>147.0</ele><time>2026-05-02T07:09:14.469Z</time></trkpt><trkpt lat="43.4646066" lon="11.1374693"><ele>147.0</ele><time>2026-05-02T07:09:18.489Z</time></trkpt><trkpt lat="43.4646545" lon="11.1373927"><ele>147.0</ele><time>2026-05-02T07:09:22.499Z</time></trkpt><trkpt lat="43.4646841" lon="11.1373081"><ele>147.0</ele><time>2026-05-02T07:09:26.492Z</time></trkpt><trkpt lat="43.4647266" lon="11.1372336"><ele>147.0</ele><time>2026-05-02T07:09:29.556Z</time></trkpt><trkpt lat="43.4647846" lon="11.1371722"><ele>147.0</ele><time>2026-05-02T07:09:32.502Z</time></trkpt><trkpt lat="43.4648437" lon="11.1371015"><ele>147.0</ele><time>2026-05-02T07:09:35.563Z</time></trkpt><trkpt lat="43.4648949" lon="11.1370191"><ele>147.85714285714286</ele><time>2026-05-02T07:09:39.558Z</time></trkpt><trkpt lat="43.4648901" lon="11.1369167"><ele>148.71428571428572</ele><time>2026-05-02T07:09:46.502Z</time></trkpt><trkpt lat="43.4649329" lon="11.1368313"><ele>149.57142857142856</ele><time>2026-05-02T07:09:48.49Z</time></trkpt><trkpt lat="43.4649801" lon="11.1367569"><ele>150.42857142857144</ele><time>2026-05-02T07:09:50.489Z</time></trkpt><trkpt lat="43.4650264" lon="11.1366789"><ele>151.28571428571428</ele><time>2026-05-02T07:09:55.561Z</time></trkpt><trkpt lat="43.4650238" lon="11.1365888"><ele>152.14285714285714</ele><time>2026-05-02T07:09:58.502Z</time></trkpt><trkpt lat="43.4650785" lon="11.1365402"><ele>153.0</ele><time>2026-05-02T07:10:02.491Z</time></trkpt><trkpt lat="43.4651262" lon="11.1364697"><ele>153.85714285714286</ele><time>2026-05-02T07:10:06.47Z</time></trkpt><trkpt lat="43.4651495" lon="11.1363863"><ele>154.71428571428572</ele><time>2026-05-02T07:10:10.566Z</time></trkpt><trkpt lat="43.4651641" lon="11.1362871"><ele>155.57142857142856</ele><time>2026-05-02T07:10:14.569Z</time></trkpt><trkpt lat="43.4651352" lon="11.1361728"><ele>156.42857142857144</ele><time>2026-05-02T07:10:17.494Z</time></trkpt><trkpt lat="43.4651786" lon="11.1361059"><ele>157.2857142857143</ele><time>2026-05-02T07:10:21.48Z</time></trkpt><trkpt lat="43.4652119" lon="11.1360303"><ele>158.14285714285714</ele><time>2026-05-02T07:10:25.491Z</time></trkpt><trkpt lat="43.4652221" lon="11.13593"><ele>159.0</ele><time>2026-05-02T07:10:29.493Z</time></trkpt><trkpt lat="43.4652599" lon="11.1358331"><ele>159.0</ele><time>2026-05-02T07:10:35.488Z</time></trkpt><trkpt lat="43.465278" lon="11.1357249"><ele>159.0</ele><time>2026-05-02T07:10:39.561Z</time></trkpt><trkpt lat="43.4652919" lon="11.1356181"><ele>159.0</ele><time>2026-05-02T07:10:43.492Z</time></trkpt><trkpt lat="43.4652963" lon="11.1355111"><ele>159.0</ele><time>2026-05-02T07:10:47.491Z</time></trkpt><trkpt lat="43.4653231" lon="11.1354131"><ele>159.0</ele><time>2026-05-02T07:10:51.505Z</time></trkpt><trkpt lat="43.465385" lon="11.1353433"><ele>159.0</ele><time>2026-05-02T07:10:55.511Z</time></trkpt><trkpt lat="43.4654115" lon="11.1352575"><ele>158.5</ele><time>2026-05-02T07:10:59.492Z</time></trkpt><trkpt lat="43.4654437" lon="11.1351713"><ele>158.0</ele><time>2026-05-02T07:11:03.493Z</time></trkpt><trkpt lat="43.4654766" lon="11.1350818"><ele>157.5</ele><time>2026-05-02T07:11:08.562Z</time></trkpt><trkpt lat="43.4655175" lon="11.1350052"><ele>157.0</ele><time>2026-05-02T07:11:12.507Z</time></trkpt><trkpt lat="43.4656197" lon="11.1348674"><ele>156.5</ele><time>2026-05-02T07:11:17.483Z</time></trkpt><trkpt lat="43.4656479" lon="11.1347888"><ele>156.0</ele><time>2026-05-02T07:11:19.561Z</time></trkpt><trkpt lat="43.4657082" lon="11.1347239"><ele>155.33333333333334</ele><time>2026-05-02T07:11:24.554Z</time></trkpt><trkpt lat="43.4657622" lon="11.1346564"><ele>154.66666666666666</ele><time>2026-05-02T07:11:28.486Z</time></trkpt><trkpt lat="43.4658112" lon="11.13458"><ele>154.0</ele><time>2026-05-02T07:11:32.489Z</time></trkpt><trkpt lat="43.4658598" lon="11.1344782"><ele>153.33333333333331</ele><time>2026-05-02T07:11:44.567Z</time></trkpt><trkpt lat="43.4659182" lon="11.1343889"><ele>152.66666666666666</ele><time>2026-05-02T07:11:47.496Z</time></trkpt><trkpt lat="43.4659729" lon="11.1343179"><ele>152.0</ele><time>2026-05-02T07:11:50.56Z</time></trkpt><trkpt lat="43.4660245" lon="11.1342472"><ele>152.0</ele><time>2026-05-02T07:11:53.496Z</time></trkpt><trkpt lat="43.4660886" lon="11.1342112"><ele>152.0</ele><time>2026-05-02T07:11:56.486Z</time></trkpt><trkpt lat="43.4660158" lon="11.1341914"><ele>152.0</ele><time>2026-05-02T07:12:01.502Z</time></trkpt><trkpt lat="43.465931" lon="11.1342143"><ele>152.0</ele><time>2026-05-02T07:12:05.486Z</time></trkpt><trkpt lat="43.4658631" lon="11.1342618"><ele>152.0</ele><time>2026-05-02T07:12:08.494Z</time></trkpt><trkpt lat="43.4658055" lon="11.1343006"><ele>152.0</ele><time>2026-05-02T07:12:11.497Z</time></trkpt><trkpt lat="43.4657316" lon="11.1343426"><ele>152.0</ele><time>2026-05-02T07:12:14.495Z</time></trkpt><trkpt lat="43.4656612" lon="11.134363"><ele>152.0</ele><time>2026-05-02T07:12:17.495Z</time></trkpt><trkpt lat="43.4656011" lon="11.1343932"><ele>152.0</ele><time>2026-05-02T07:12:21.489Z</time></trkpt><trkpt lat="43.4655183" lon="11.1344281"><ele>152.0</ele><time>2026-05-02T07:12:25.572Z</time></trkpt><trkpt lat="43.4654573" lon="11.1344851"><ele>152.0</ele><time>2026-05-02T07:12:27.49Z</time></trkpt><trkpt lat="43.4653875" lon="11.1345209"><ele>152.0</ele><time>2026-05-02T07:12:30.556Z</time></trkpt><trkpt lat="43.4653042" lon="11.1345454"><ele>151.16666666666666</ele><time>2026-05-02T07:12:34.566Z</time></trkpt><trkpt lat="43.4652488" lon="11.1346126"><ele>150.33333333333331</ele><time>2026-05-02T07:12:37.508Z</time></trkpt><trkpt lat="43.465161" lon="11.1346465"><ele>149.5</ele><time>2026-05-02T07:12:40.559Z</time></trkpt><trkpt lat="43.4650818" lon="11.134676"><ele>148.66666666666666</ele><time>2026-05-02T07:12:43.508Z</time></trkpt><trkpt lat="43.4650168" lon="11.1347081"><ele>147.83333333333334</ele><time>2026-05-02T07:12:46.501Z</time></trkpt><trkpt lat="43.4649535" lon="11.1347399"><ele>147.0</ele><time>2026-05-02T07:12:49.504Z</time></trkpt><trkpt lat="43.464882" lon="11.1347895"><ele>147.0</ele><time>2026-05-02T07:12:53.488Z</time></trkpt><trkpt lat="43.4648107" lon="11.1348336"><ele>147.0</ele><time>2026-05-02T07:12:56.502Z</time></trkpt><trkpt lat="43.4647327" lon="11.1348833"><ele>147.0</ele><time>2026-05-02T07:12:59.545Z</time></trkpt><trkpt lat="43.464676" lon="11.1349262"><ele>147.0</ele><time>2026-05-02T07:13:02.492Z</time></trkpt><trkpt lat="43.4646123" lon="11.1349623"><ele>147.0</ele><time>2026-05-02T07:13:05.561Z</time></trkpt><trkpt lat="43.4645496" lon="11.135"><ele>147.0</ele><time>2026-05-02T07:13:08.564Z</time></trkpt><trkpt lat="43.4644681" lon="11.1350535"><ele>148.42857142857142</ele><time>2026-05-02T07:13:12.485Z</time></trkpt><trkpt lat="43.4643894" lon="11.1350783"><ele>149.85714285714286</ele><time>2026-05-02T07:13:15.569Z</time></trkpt><trkpt lat="43.4643158" lon="11.1350768"><ele>151.28571428571428</ele><time>2026-05-02T07:13:17.481Z</time></trkpt><trkpt lat="43.464252" lon="11.1351136"><ele>152.71428571428572</ele><time>2026-05-02T07:13:20.49Z</time></trkpt><trkpt lat="43.4641935" lon="11.1351626"><ele>154.14285714285714</ele><time>2026-05-02T07:13:23.474Z</time></trkpt><trkpt lat="43.4641287" lon="11.1352099"><ele>155.57142857142856</ele><time>2026-05-02T07:13:26.497Z</time></trkpt><trkpt lat="43.4640673" lon="11.1352487"><ele>157.0</ele><time>2026-05-02T07:13:29.495Z</time></trkpt><trkpt lat="43.4640094" lon="11.135294"><ele>156.99999999999997</ele><time>2026-05-02T07:13:33.571Z</time></trkpt><trkpt lat="43.4639441" lon="11.1353457"><ele>157.0</ele><time>2026-05-02T07:13:37.496Z</time></trkpt><trkpt lat="43.4638672" lon="11.135387"><ele>157.0</ele><time>2026-05-02T07:13:41.502Z</time></trkpt><trkpt lat="43.4638049" lon="11.1354328"><ele>157.0</ele><time>2026-05-02T07:13:44.554Z</time></trkpt><trkpt lat="43.463738" lon="11.1354774"><ele>157.0</ele><time>2026-05-02T07:13:47.502Z</time></trkpt><trkpt lat="43.463661" lon="11.1354675"><ele>156.99999999999997</ele><time>2026-05-02T07:13:53.492Z</time></trkpt><trkpt lat="43.4635987" lon="11.1354447"><ele>157.0</ele><time>2026-05-02T07:13:57.487Z</time></trkpt><trkpt lat="43.4635284" lon="11.1354036"><ele>158.66666666666669</ele><time>2026-05-02T07:14:02.486Z</time></trkpt><trkpt lat="43.4634531" lon="11.1353704"><ele>160.33333333333334</ele><time>2026-05-02T07:14:07.506Z</time></trkpt><trkpt lat="43.4633921" lon="11.1353089"><ele>162.0</ele><time>2026-05-02T07:14:12.482Z</time></trkpt><trkpt lat="43.4632994" lon="11.1352951"><ele>163.66666666666666</ele><time>2026-05-02T07:14:16.487Z</time></trkpt><trkpt lat="43.4632302" lon="11.135267"><ele>165.33333333333331</ele><time>2026-05-02T07:14:19.568Z</time></trkpt><trkpt lat="43.4631518" lon="11.1352507"><ele>167.0</ele><time>2026-05-02T07:14:25.559Z</time></trkpt><trkpt lat="43.4630807" lon="11.1352126"><ele>167.0</ele><time>2026-05-02T07:14:28.512Z</time></trkpt><trkpt lat="43.4630094" lon="11.1351783"><ele>167.0</ele><time>2026-05-02T07:14:32.492Z</time></trkpt><trkpt lat="43.4629464" lon="11.1351329"><ele>167.0</ele><time>2026-05-02T07:14:36.492Z</time></trkpt><trkpt lat="43.4628847" lon="11.1350845"><ele>167.0</ele><time>2026-05-02T07:14:41.497Z</time></trkpt><trkpt lat="43.4628452" lon="11.1350113"><ele>167.0</ele><time>2026-05-02T07:14:46.497Z</time></trkpt><trkpt lat="43.4627863" lon="11.1349506"><ele>167.0</ele><time>2026-05-02T07:14:50.567Z</time></trkpt><trkpt lat="43.4627455" lon="11.1348777"><ele>167.0</ele><time>2026-05-02T07:14:54.566Z</time></trkpt><trkpt lat="43.4627456" lon="11.1347644"><ele>168.5</ele><time>2026-05-02T07:15:02.49Z</time></trkpt><trkpt lat="43.4627556" lon="11.1346525"><ele>170.0</ele><time>2026-05-02T07:15:04.565Z</time></trkpt><trkpt lat="43.4627502" lon="11.1345362"><ele>171.5</ele><time>2026-05-02T07:15:07.486Z</time></trkpt><trkpt lat="43.4627165" lon="11.1344218"><ele>173.0</ele><time>2026-05-02T07:15:10.499Z</time></trkpt><trkpt lat="43.4626801" lon="11.1343429"><ele>174.5</ele><time>2026-05-02T07:15:13.483Z</time></trkpt><trkpt lat="43.4626625" lon="11.1342512"><ele>176.0</ele><time>2026-05-02T07:15:16.491Z</time></trkpt><trkpt lat="43.4626511" lon="11.1341625"><ele>176.0</ele><time>2026-05-02T07:15:19.571Z</time></trkpt><trkpt lat="43.4626601" lon="11.134069"><ele>176.0</ele><time>2026-05-02T07:15:23.491Z</time></trkpt><trkpt lat="43.4626551" lon="11.1339739"><ele>176.0</ele><time>2026-05-02T07:15:26.473Z</time></trkpt><trkpt lat="43.4626607" lon="11.1338796"><ele>176.0</ele><time>2026-05-02T07:15:30.559Z</time></trkpt><trkpt lat="43.4626934" lon="11.133786"><ele>176.0</ele><time>2026-05-02T07:15:35.568Z</time></trkpt><trkpt lat="43.4627302" lon="11.133705"><ele>176.0</ele><time>2026-05-02T07:15:38.495Z</time></trkpt><trkpt lat="43.4627532" lon="11.1336099"><ele>176.0</ele><time>2026-05-02T07:15:41.505Z</time></trkpt><trkpt lat="43.4628035" lon="11.1335187"><ele>176.0</ele><time>2026-05-02T07:15:44.495Z</time></trkpt><trkpt lat="43.4628204" lon="11.1334251"><ele>176.0</ele><time>2026-05-02T07:15:47.493Z</time></trkpt><trkpt lat="43.4628395" lon="11.1333313"><ele>176.0</ele><time>2026-05-02T07:15:51.502Z</time></trkpt><trkpt lat="43.4628536" lon="11.133242"><ele>176.0</ele><time>2026-05-02T07:15:54.577Z</time></trkpt><trkpt lat="43.4628923" lon="11.1331582"><ele>176.0</ele><time>2026-05-02T07:15:57.491Z</time></trkpt><trkpt lat="43.4629156" lon="11.1330558"><ele>176.0</ele><time>2026-05-02T07:16:00.57Z</time></trkpt><trkpt lat="43.4629144" lon="11.1329416"><ele>176.0</ele><time>2026-05-02T07:16:03.486Z</time></trkpt><trkpt lat="43.4629037" lon="11.1328331"><ele>176.0</ele><time>2026-05-02T07:16:06.491Z</time></trkpt><trkpt lat="43.46285" lon="11.1327525"><ele>176.0</ele><time>2026-05-02T07:16:09.542Z</time></trkpt><trkpt lat="43.4628228" lon="11.1326653"><ele>176.0</ele><time>2026-05-02T07:16:12.487Z</time></trkpt><trkpt lat="43.4628159" lon="11.1325432"><ele>176.0</ele><time>2026-05-02T07:16:15.482Z</time></trkpt><trkpt lat="43.4627981" lon="11.1324451"><ele>176.0</ele><time>2026-05-02T07:16:18.5Z</time></trkpt><trkpt lat="43.4627868" lon="11.1323393"><ele>176.0</ele><time>2026-05-02T07:16:22.489Z</time></trkpt><trkpt lat="43.4627777" lon="11.132244"><ele>176.42857142857144</ele><time>2026-05-02T07:16:25.499Z</time></trkpt><trkpt lat="43.4627671" lon="11.1321536"><ele>176.85714285714286</ele><time>2026-05-02T07:16:28.49Z</time></trkpt><trkpt lat="43.4627692" lon="11.132062"><ele>177.28571428571428</ele><time>2026-05-02T07:16:31.492Z</time></trkpt><trkpt lat="43.462771" lon="11.1319579"><ele>177.71428571428572</ele><time>2026-05-02T07:16:34.568Z</time></trkpt><trkpt lat="43.4627565" lon="11.1318328"><ele>178.14285714285714</ele><time>2026-05-02T07:16:37.491Z</time></trkpt><trkpt lat="43.4627522" lon="11.1317352"><ele>178.57142857142858</ele><time>2026-05-02T07:16:39.57Z</time></trkpt><trkpt lat="43.4627419" lon="11.1316389"><ele>179.0</ele><time>2026-05-02T07:16:44.555Z</time></trkpt><trkpt lat="43.462684" lon="11.1315828"><ele>179.0</ele><time>2026-05-02T07:16:49.568Z</time></trkpt><trkpt lat="43.4625883" lon="11.1315447"><ele>179.0</ele><time>2026-05-02T07:16:54.505Z</time></trkpt><trkpt lat="43.4625201" lon="11.1315343"><ele>179.0</ele><time>2026-05-02T07:16:57.498Z</time></trkpt><trkpt lat="43.4624456" lon="11.1314952"><ele>179.0</ele><time>2026-05-02T07:17:01.49Z</time></trkpt><trkpt lat="43.4623606" lon="11.1314841"><ele>179.0</ele><time>2026-05-02T07:17:05.571Z</time></trkpt><trkpt lat="43.4622884" lon="11.1315082"><ele>179.0</ele><time>2026-05-02T07:17:08.486Z</time></trkpt><trkpt lat="43.4622194" lon="11.131558"><ele>179.0</ele><time>2026-05-02T07:17:12.488Z</time></trkpt><trkpt lat="43.4621615" lon="11.1316096"><ele>179.0</ele><time>2026-05-02T07:17:21.515Z</time></trkpt><trkpt lat="43.4620976" lon="11.1316408"><ele>179.0</ele><time>2026-05-02T07:17:24.575Z</time></trkpt><trkpt lat="43.461998" lon="11.1316909"><ele>179.0</ele><time>2026-05-02T07:17:28.484Z</time></trkpt><trkpt lat="43.4619244" lon="11.1316755"><ele>179.0</ele><time>2026-05-02T07:17:33.558Z</time></trkpt><trkpt lat="43.4618545" lon="11.1317199"><ele>179.0</ele><time>2026-05-02T07:17:38.489Z</time></trkpt><trkpt lat="43.4617757" lon="11.1317316"><ele>180.00000000000003</ele><time>2026-05-02T07:17:41.467Z</time></trkpt><trkpt lat="43.4617002" lon="11.1317611"><ele>181.0</ele><time>2026-05-02T07:17:44.497Z</time></trkpt><trkpt lat="43.4616436" lon="11.1318291"><ele>182.0</ele><time>2026-05-02T07:17:48.491Z</time></trkpt><trkpt lat="43.4615772" lon="11.1318545"><ele>183.0</ele><time>2026-05-02T07:17:51.474Z</time></trkpt><trkpt lat="43.4615178" lon="11.1318847"><ele>184.0</ele><time>2026-05-02T07:17:55.559Z</time></trkpt><trkpt lat="43.4614303" lon="11.1318988"><ele>185.00000000000003</ele><time>2026-05-02T07:18:00.484Z</time></trkpt><trkpt lat="43.4613573" lon="11.131905"><ele>186.0</ele><time>2026-05-02T07:18:04.466Z</time></trkpt><trkpt lat="43.461291" lon="11.1319118"><ele>187.0</ele><time>2026-05-02T07:18:08.466Z</time></trkpt><trkpt lat="43.4611935" lon="11.1319237"><ele>188.0</ele><time>2026-05-02T07:18:12.493Z</time></trkpt><trkpt lat="43.461116" lon="11.1319273"><ele>189.0</ele><time>2026-05-02T07:18:15.561Z</time></trkpt><trkpt lat="43.4610426" lon="11.131954"><ele>190.0</ele><time>2026-05-02T07:18:19.575Z</time></trkpt><trkpt lat="43.4609786" lon="11.1319327"><ele>191.0</ele><time>2026-05-02T07:18:22.492Z</time></trkpt><trkpt lat="43.4609094" lon="11.1319345"><ele>192.0</ele><time>2026-05-02T07:18:25.562Z</time></trkpt><trkpt lat="43.4608336" lon="11.1319202"><ele>192.0</ele><time>2026-05-02T07:18:28.49Z</time></trkpt><trkpt lat="43.4607692" lon="11.131925"><ele>192.0</ele><time>2026-05-02T07:18:31.479Z</time></trkpt><trkpt lat="43.4606988" lon="11.1319199"><ele>192.0</ele><time>2026-05-02T07:18:34.486Z</time></trkpt><trkpt lat="43.4606107" lon="11.1319005"><ele>192.0</ele><time>2026-05-02T07:18:37.493Z</time></trkpt><trkpt lat="43.4605262" lon="11.1318735"><ele>192.0</ele><time>2026-05-02T07:18:40.487Z</time></trkpt><trkpt lat="43.4604554" lon="11.1318707"><ele>192.0</ele><time>2026-05-02T07:18:43.499Z</time></trkpt><trkpt lat="43.4603855" lon="11.1319033"><ele>191.99999999999997</ele><time>2026-05-02T07:18:46.492Z</time></trkpt><trkpt lat="43.4603133" lon="11.131942"><ele>192.0</ele><time>2026-05-02T07:18:49.575Z</time></trkpt><trkpt lat="43.460239" lon="11.1319858"><ele>192.0</ele><time>2026-05-02T07:18:53.509Z</time></trkpt><trkpt lat="43.4601758" lon="11.1320027"><ele>192.0</ele><time>2026-05-02T07:18:55.557Z</time></trkpt><trkpt lat="43.4600963" lon="11.1320464"><ele>192.0</ele><time>2026-05-02T07:18:58.498Z</time></trkpt><trkpt lat="43.4600356" lon="11.1320714"><ele>191.99999999999997</ele><time>2026-05-02T07:19:01.47Z</time></trkpt><trkpt lat="43.4599636" lon="11.1320861"><ele>192.0</ele><time>2026-05-02T07:19:04.555Z</time></trkpt><trkpt lat="43.4598865" lon="11.1321312"><ele>192.0</ele><time>2026-05-02T07:19:07.489Z</time></trkpt><trkpt lat="43.4598288" lon="11.1321693"><ele>192.0</ele><time>2026-05-02T07:19:09.472Z</time></trkpt><trkpt lat="43.4597478" lon="11.1322062"><ele>192.0</ele><time>2026-05-02T07:19:12.489Z</time></trkpt><trkpt lat="43.459662" lon="11.1321955"><ele>192.0</ele><time>2026-05-02T07:19:15.492Z</time></trkpt><trkpt lat="43.4596017" lon="11.1321611"><ele>192.0</ele><time>2026-05-02T07:19:17.483Z</time></trkpt><trkpt lat="43.4595137" lon="11.1321094"><ele>192.0</ele><time>2026-05-02T07:19:20.499Z</time></trkpt><trkpt lat="43.4594393" lon="11.1320635"><ele>191.33333333333334</ele><time>2026-05-02T07:19:22.505Z</time></trkpt><trkpt lat="43.4593429" lon="11.1320474"><ele>190.66666666666666</ele><time>2026-05-02T07:19:24.559Z</time></trkpt><trkpt lat="43.4592784" lon="11.1320459"><ele>190.0</ele><time>2026-05-02T07:19:25.493Z</time></trkpt><trkpt lat="43.4591999" lon="11.131982"><ele>189.33333333333331</ele><time>2026-05-02T07:19:27.481Z</time></trkpt><trkpt lat="43.459123" lon="11.1319419"><ele>188.66666666666666</ele><time>2026-05-02T07:19:29.561Z</time></trkpt><trkpt lat="43.4590571" lon="11.1319239"><ele>188.0</ele><time>2026-05-02T07:19:31.482Z</time></trkpt><trkpt lat="43.4589699" lon="11.1319116"><ele>188.0</ele><time>2026-05-02T07:19:33.485Z</time></trkpt><trkpt lat="43.4589008" lon="11.131871"><ele>188.0</ele><time>2026-05-02T07:19:35.488Z</time></trkpt><trkpt lat="43.4588298" lon="11.13177"><ele>188.0</ele><time>2026-05-02T07:19:37.501Z</time></trkpt><trkpt lat="43.4587592" lon="11.1316687"><ele>188.0</ele><time>2026-05-02T07:19:39.588Z</time></trkpt><trkpt lat="43.458674" lon="11.1316076"><ele>188.0</ele><time>2026-05-02T07:19:41.505Z</time></trkpt><trkpt lat="43.4585835" lon="11.1315614"><ele>187.2</ele><time>2026-05-02T07:19:43.499Z</time></trkpt><trkpt lat="43.4584884" lon="11.1315092"><ele>186.4</ele><time>2026-05-02T07:19:45.497Z</time></trkpt><trkpt lat="43.4583975" lon="11.1314529"><ele>185.6</ele><time>2026-05-02T07:19:47.511Z</time></trkpt><trkpt lat="43.4583016" lon="11.1313845"><ele>184.79999999999998</ele><time>2026-05-02T07:19:49.491Z</time></trkpt><trkpt lat="43.4581966" lon="11.1313264"><ele>184.0</ele><time>2026-05-02T07:19:51.498Z</time></trkpt><trkpt lat="43.4580947" lon="11.131276"><ele>184.0</ele><time>2026-05-02T07:19:53.501Z</time></trkpt><trkpt lat="43.4580043" lon="11.1312332"><ele>184.0</ele><time>2026-05-02T07:19:55.565Z</time></trkpt><trkpt lat="43.4579353" lon="11.13117"><ele>184.0</ele><time>2026-05-02T07:19:57.503Z</time></trkpt><trkpt lat="43.457858" lon="11.1311215"><ele>184.0</ele><time>2026-05-02T07:19:59.565Z</time></trkpt><trkpt lat="43.4577722" lon="11.1310951"><ele>184.0</ele><time>2026-05-02T07:20:01.496Z</time></trkpt><trkpt lat="43.4576973" lon="11.1311014"><ele>184.0</ele><time>2026-05-02T07:20:04.549Z</time></trkpt><trkpt lat="43.4576178" lon="11.1310497"><ele>185.0</ele><time>2026-05-02T07:20:08.499Z</time></trkpt><trkpt lat="43.4575695" lon="11.1309687"><ele>186.0</ele><time>2026-05-02T07:20:10.494Z</time></trkpt><trkpt lat="43.457527" lon="11.1308827"><ele>187.0</ele><time>2026-05-02T07:20:12.497Z</time></trkpt><trkpt lat="43.4574689" lon="11.1308042"><ele>188.0</ele><time>2026-05-02T07:20:15.59Z</time></trkpt><trkpt lat="43.4574165" lon="11.1307326"><ele>189.0</ele><time>2026-05-02T07:20:18.5Z</time></trkpt><trkpt lat="43.4573515" lon="11.1306589"><ele>190.0</ele><time>2026-05-02T07:20:21.472Z</time></trkpt><trkpt lat="43.4572967" lon="11.1305898"><ele>190.33333333333334</ele><time>2026-05-02T07:20:24.488Z</time></trkpt><trkpt lat="43.4572345" lon="11.1305137"><ele>190.66666666666669</ele><time>2026-05-02T07:20:27.479Z</time></trkpt><trkpt lat="43.4571765" lon="11.1304378"><ele>191.0</ele><time>2026-05-02T07:20:30.587Z</time></trkpt><trkpt lat="43.4571125" lon="11.130365"><ele>191.33333333333334</ele><time>2026-05-02T07:20:33.496Z</time></trkpt><trkpt lat="43.4570067" lon="11.1303009"><ele>191.66666666666666</ele><time>2026-05-02T07:20:37.505Z</time></trkpt><trkpt lat="43.4569647" lon="11.130213"><ele>192.0</ele><time>2026-05-02T07:20:40.554Z</time></trkpt><trkpt lat="43.4569326" lon="11.1301329"><ele>192.85714285714283</ele><time>2026-05-02T07:20:42.507Z</time></trkpt><trkpt lat="43.4568753" lon="11.130055"><ele>193.71428571428572</ele><time>2026-05-02T07:20:46.488Z</time></trkpt><trkpt lat="43.4568316" lon="11.1299897"><ele>194.57142857142856</ele><time>2026-05-02T07:20:49.493Z</time></trkpt><trkpt lat="43.4567818" lon="11.129916"><ele>195.42857142857142</ele><time>2026-05-02T07:20:52.498Z</time></trkpt><trkpt lat="43.4567297" lon="11.1298459"><ele>196.28571428571428</ele><time>2026-05-02T07:20:55.491Z</time></trkpt><trkpt lat="43.4566741" lon="11.1297734"><ele>197.14285714285714</ele><time>2026-05-02T07:20:58.495Z</time></trkpt><trkpt lat="43.4566189" lon="11.1297088"><ele>198.0</ele><time>2026-05-02T07:21:01.5Z</time></trkpt><trkpt lat="43.4565586" lon="11.1296323"><ele>198.0</ele><time>2026-05-02T07:21:05.502Z</time></trkpt><trkpt lat="43.4565154" lon="11.1295688"><ele>198.0</ele><time>2026-05-02T07:21:08.49Z</time></trkpt><trkpt lat="43.4564681" lon="11.1295022"><ele>198.0</ele><time>2026-05-02T07:21:11.509Z</time></trkpt><trkpt lat="43.4564024" lon="11.1294314"><ele>198.0</ele><time>2026-05-02T07:21:15.495Z</time></trkpt><trkpt lat="43.456349" lon="11.1293673"><ele>198.0</ele><time>2026-05-02T07:21:18.495Z</time></trkpt><trkpt lat="43.456303" lon="11.129299"><ele>198.0</ele><time>2026-05-02T07:21:21.495Z</time></trkpt><trkpt lat="43.4562592" lon="11.1292252"><ele>198.0</ele><time>2026-05-02T07:21:24.507Z</time></trkpt><trkpt lat="43.4562189" lon="11.1291508"><ele>197.57142857142858</ele><time>2026-05-02T07:21:27.508Z</time></trkpt><trkpt lat="43.4561776" lon="11.1290674"><ele>197.14285714285714</ele><time>2026-05-02T07:21:30.493Z</time></trkpt><trkpt lat="43.4561379" lon="11.1289912"><ele>196.71428571428572</ele><time>2026-05-02T07:21:33.498Z</time></trkpt><trkpt lat="43.4561038" lon="11.1289006"><ele>196.28571428571428</ele><time>2026-05-02T07:21:36.492Z</time></trkpt><trkpt lat="43.4560695" lon="11.12881"><ele>195.85714285714283</ele><time>2026-05-02T07:21:39.511Z</time></trkpt><trkpt lat="43.4560304" lon="11.1287114"><ele>195.42857142857142</ele><time>2026-05-02T07:21:42.5Z</time></trkpt><trkpt lat="43.4560074" lon="11.1286083"><ele>195.0</ele><time>2026-05-02T07:21:45.505Z</time></trkpt><trkpt lat="43.4560001" lon="11.1285081"><ele>196.0</ele><time>2026-05-02T07:21:48.495Z</time></trkpt><trkpt lat="43.4559903" lon="11.1284144"><ele>197.0</ele><time>2026-05-02T07:21:51.494Z</time></trkpt><trkpt lat="43.4559846" lon="11.1283142"><ele>198.0</ele><time>2026-05-02T07:21:54.494Z</time></trkpt><trkpt lat="43.4559707" lon="11.1282179"><ele>199.0</ele><time>2026-05-02T07:21:57.493Z</time></trkpt><trkpt lat="43.4559584" lon="11.1281198"><ele>200.0</ele><time>2026-05-02T07:22:00.495Z</time></trkpt><trkpt lat="43.4559517" lon="11.1280139"><ele>201.0</ele><time>2026-05-02T07:22:03.505Z</time></trkpt><trkpt lat="43.4559476" lon="11.1279169"><ele>202.0</ele><time>2026-05-02T07:22:06.489Z</time></trkpt><trkpt lat="43.4559316" lon="11.1278248"><ele>203.6</ele><time>2026-05-02T07:22:09.51Z</time></trkpt><trkpt lat="43.4558735" lon="11.1277565"><ele>205.2</ele><time>2026-05-02T07:22:12.49Z</time></trkpt><trkpt lat="43.4558158" lon="11.1277182"><ele>206.8</ele><time>2026-05-02T07:22:14.496Z</time></trkpt><trkpt lat="43.4557115" lon="11.1276814"><ele>208.4</ele><time>2026-05-02T07:22:17.5Z</time></trkpt><trkpt lat="43.4555985" lon="11.127646"><ele>210.0</ele><time>2026-05-02T07:22:19.503Z</time></trkpt><trkpt lat="43.4554817" lon="11.1275889"><ele>207.6</ele><time>2026-05-02T07:22:21.505Z</time></trkpt><trkpt lat="43.4553831" lon="11.1275318"><ele>205.2</ele><time>2026-05-02T07:22:23.504Z</time></trkpt><trkpt lat="43.4552873" lon="11.1274836"><ele>202.8</ele><time>2026-05-02T07:22:25.496Z</time></trkpt><trkpt lat="43.4551647" lon="11.1274422"><ele>200.4</ele><time>2026-05-02T07:22:27.495Z</time></trkpt><trkpt lat="43.4550994" lon="11.127428"><ele>198.0</ele><time>2026-05-02T07:22:28.49Z</time></trkpt><trkpt lat="43.4550347" lon="11.1274126"><ele>198.0</ele><time>2026-05-02T07:22:29.502Z</time></trkpt><trkpt lat="43.4549631" lon="11.1273977"><ele>198.0</ele><time>2026-05-02T07:22:30.491Z</time></trkpt><trkpt lat="43.4548944" lon="11.1273884"><ele>198.0</ele><time>2026-05-02T07:22:31.488Z</time></trkpt><trkpt lat="43.4548257" lon="11.1273721"><ele>198.0</ele><time>2026-05-02T07:22:32.502Z</time></trkpt><trkpt lat="43.454757" lon="11.1273619"><ele>198.0</ele><time>2026-05-02T07:22:33.5Z</time></trkpt><trkpt lat="43.4546907" lon="11.1273474"><ele>198.0</ele><time>2026-05-02T07:22:34.5Z</time></trkpt><trkpt lat="43.4545696" lon="11.1273113"><ele>197.83333333333334</ele><time>2026-05-02T07:22:36.502Z</time></trkpt><trkpt lat="43.4544523" lon="11.1272647"><ele>197.66666666666669</ele><time>2026-05-02T07:22:38.501Z</time></trkpt><trkpt lat="43.4543896" lon="11.1272355"><ele>197.5</ele><time>2026-05-02T07:22:39.492Z</time></trkpt><trkpt lat="43.4543263" lon="11.1272039"><ele>197.33333333333334</ele><time>2026-05-02T07:22:40.5Z</time></trkpt><trkpt lat="43.4542603" lon="11.1271747"><ele>197.16666666666669</ele><time>2026-05-02T07:22:41.479Z</time></trkpt><trkpt lat="43.4541993" lon="11.1271532"><ele>197.0</ele><time>2026-05-02T07:22:42.498Z</time></trkpt><trkpt lat="43.4541364" lon="11.1271346"><ele>197.0</ele><time>2026-05-02T07:22:43.503Z</time></trkpt><trkpt lat="43.4540744" lon="11.1271182"><ele>197.0</ele><time>2026-05-02T07:22:44.497Z</time></trkpt><trkpt lat="43.4540104" lon="11.1271039"><ele>197.0</ele><time>2026-05-02T07:22:45.493Z</time></trkpt><trkpt lat="43.4538897" lon="11.1270753"><ele>197.0</ele><time>2026-05-02T07:22:47.489Z</time></trkpt><trkpt lat="43.4537774" lon="11.1270096"><ele>197.0</ele><time>2026-05-02T07:22:49.496Z</time></trkpt><trkpt lat="43.4536635" lon="11.1269452"><ele>195.8</ele><time>2026-05-02T07:22:51.496Z</time></trkpt><trkpt lat="43.4535477" lon="11.1268949"><ele>194.6</ele><time>2026-05-02T07:22:53.488Z</time></trkpt><trkpt lat="43.4534356" lon="11.1268875"><ele>193.4</ele><time>2026-05-02T07:22:55.493Z</time></trkpt><trkpt lat="43.4533281" lon="11.1268896"><ele>192.20000000000002</ele><time>2026-05-02T07:22:57.503Z</time></trkpt><trkpt lat="43.4532299" lon="11.126901"><ele>191.0</ele><time>2026-05-02T07:22:59.5Z</time></trkpt><trkpt lat="43.4531366" lon="11.1269113"><ele>191.0</ele><time>2026-05-02T07:23:01.502Z</time></trkpt><trkpt lat="43.4530399" lon="11.126913"><ele>191.0</ele><time>2026-05-02T07:23:03.505Z</time></trkpt><trkpt lat="43.4529512" lon="11.1269067"><ele>191.0</ele><time>2026-05-02T07:23:05.507Z</time></trkpt><trkpt lat="43.452866" lon="11.1268949"><ele>191.0</ele><time>2026-05-02T07:23:07.496Z</time></trkpt><trkpt lat="43.4527772" lon="11.1268747"><ele>191.0</ele><time>2026-05-02T07:23:09.492Z</time></trkpt><trkpt lat="43.4526893" lon="11.1268508"><ele>190.83333333333331</ele><time>2026-05-02T07:23:11.497Z</time></trkpt><trkpt lat="43.4526052" lon="11.1268317"><ele>190.66666666666666</ele><time>2026-05-02T07:23:13.503Z</time></trkpt><trkpt lat="43.4525247" lon="11.126816"><ele>190.5</ele><time>2026-05-02T07:23:15.474Z</time></trkpt><trkpt lat="43.4524473" lon="11.1268063"><ele>190.33333333333334</ele><time>2026-05-02T07:23:17.496Z</time></trkpt><trkpt lat="43.4523646" lon="11.1267975"><ele>190.16666666666669</ele><time>2026-05-02T07:23:19.501Z</time></trkpt><trkpt lat="43.4522751" lon="11.1267895"><ele>190.0</ele><time>2026-05-02T07:23:21.496Z</time></trkpt><trkpt lat="43.4521854" lon="11.1267811"><ele>189.8</ele><time>2026-05-02T07:23:23.504Z</time></trkpt><trkpt lat="43.4520846" lon="11.1267842"><ele>189.6</ele><time>2026-05-02T07:23:25.497Z</time></trkpt><trkpt lat="43.4519789" lon="11.1267919"><ele>189.39999999999998</ele><time>2026-05-02T07:23:27.505Z</time></trkpt><trkpt lat="43.4518793" lon="11.1268099"><ele>189.2</ele><time>2026-05-02T07:23:29.496Z</time></trkpt><trkpt lat="43.4517828" lon="11.1268268"><ele>189.0</ele><time>2026-05-02T07:23:31.506Z</time></trkpt><trkpt lat="43.4516788" lon="11.1268396"><ele>189.0</ele><time>2026-05-02T07:23:33.489Z</time></trkpt><trkpt lat="43.4515842" lon="11.1268529"><ele>189.0</ele><time>2026-05-02T07:23:35.5Z</time></trkpt><trkpt lat="43.4514837" lon="11.1268703"><ele>189.0</ele><time>2026-05-02T07:23:37.472Z</time></trkpt><trkpt lat="43.4513887" lon="11.1268856"><ele>189.0</ele><time>2026-05-02T07:23:39.502Z</time></trkpt><trkpt lat="43.4513047" lon="11.1269077"><ele>189.0</ele><time>2026-05-02T07:23:41.48Z</time></trkpt><trkpt lat="43.4512077" lon="11.126914"><ele>190.5</ele><time>2026-05-02T07:23:43.494Z</time></trkpt><trkpt lat="43.4511191" lon="11.1269262"><ele>192.0</ele><time>2026-05-02T07:23:45.568Z</time></trkpt><trkpt lat="43.4510338" lon="11.1269433"><ele>193.5</ele><time>2026-05-02T07:23:47.488Z</time></trkpt><trkpt lat="43.450951" lon="11.1269467"><ele>195.0</ele><time>2026-05-02T07:23:49.558Z</time></trkpt><trkpt lat="43.4508703" lon="11.1269611"><ele>196.5</ele><time>2026-05-02T07:23:51.488Z</time></trkpt><trkpt lat="43.4507953" lon="11.1269815"><ele>198.0</ele><time>2026-05-02T07:23:53.491Z</time></trkpt><trkpt lat="43.4507239" lon="11.1270019"><ele>198.0</ele><time>2026-05-02T07:23:55.49Z</time></trkpt><trkpt lat="43.4506554" lon="11.1270235"><ele>198.0</ele><time>2026-05-02T07:23:57.485Z</time></trkpt><trkpt lat="43.4505904" lon="11.1270417"><ele>198.0</ele><time>2026-05-02T07:23:59.497Z</time></trkpt><trkpt lat="43.4505192" lon="11.1270609"><ele>198.0</ele><time>2026-05-02T07:24:01.498Z</time></trkpt><trkpt lat="43.4504433" lon="11.1270787"><ele>198.0</ele><time>2026-05-02T07:24:03.482Z</time></trkpt><trkpt lat="43.4503723" lon="11.1270891"><ele>198.0</ele><time>2026-05-02T07:24:05.496Z</time></trkpt><trkpt lat="43.4502911" lon="11.127096"><ele>198.0</ele><time>2026-05-02T07:24:07.494Z</time></trkpt><trkpt lat="43.4502176" lon="11.1271262"><ele>198.2857142857143</ele><time>2026-05-02T07:24:09.57Z</time></trkpt><trkpt lat="43.4501497" lon="11.127114"><ele>198.57142857142856</ele><time>2026-05-02T07:24:11.494Z</time></trkpt><trkpt lat="43.4500859" lon="11.1271315"><ele>198.85714285714286</ele><time>2026-05-02T07:24:13.492Z</time></trkpt><trkpt lat="43.4500162" lon="11.1271585"><ele>199.14285714285717</ele><time>2026-05-02T07:24:15.583Z</time></trkpt><trkpt lat="43.4499453" lon="11.1271756"><ele>199.42857142857144</ele><time>2026-05-02T07:24:17.491Z</time></trkpt><trkpt lat="43.4498802" lon="11.1271801"><ele>199.71428571428572</ele><time>2026-05-02T07:24:19.553Z</time></trkpt><trkpt lat="43.4498154" lon="11.1271652"><ele>200.0</ele><time>2026-05-02T07:24:21.502Z</time></trkpt><trkpt lat="43.4497429" lon="11.1271627"><ele>200.00000000000003</ele><time>2026-05-02T07:24:23.491Z</time></trkpt><trkpt lat="43.4496513" lon="11.1271464"><ele>200.0</ele><time>2026-05-02T07:24:26.502Z</time></trkpt><trkpt lat="43.449592" lon="11.1270824"><ele>200.0</ele><time>2026-05-02T07:24:29.487Z</time></trkpt><trkpt lat="43.449525" lon="11.1270259"><ele>200.0</ele><time>2026-05-02T07:24:32.488Z</time></trkpt><trkpt lat="43.4494482" lon="11.1269437"><ele>200.00000000000003</ele><time>2026-05-02T07:24:35.493Z</time></trkpt><trkpt lat="43.4493674" lon="11.1268928"><ele>200.0</ele><time>2026-05-02T07:24:37.478Z</time></trkpt><trkpt lat="43.4492919" lon="11.1268322"><ele>198.66666666666669</ele><time>2026-05-02T07:24:39.48Z</time></trkpt><trkpt lat="43.4492124" lon="11.1268067"><ele>197.33333333333334</ele><time>2026-05-02T07:24:42.47Z</time></trkpt><trkpt lat="43.4491463" lon="11.1267985"><ele>196.0</ele><time>2026-05-02T07:24:44.497Z</time></trkpt><trkpt lat="43.4490547" lon="11.1267684"><ele>194.66666666666669</ele><time>2026-05-02T07:24:47.472Z</time></trkpt><trkpt lat="43.4489744" lon="11.1267478"><ele>193.33333333333334</ele><time>2026-05-02T07:24:49.498Z</time></trkpt><trkpt lat="43.4488965" lon="11.1267225"><ele>192.0</ele><time>2026-05-02T07:24:51.493Z</time></trkpt><trkpt lat="43.4488071" lon="11.1266985"><ele>192.39999999999998</ele><time>2026-05-02T07:24:53.488Z</time></trkpt><trkpt lat="43.4487111" lon="11.126688"><ele>192.79999999999998</ele><time>2026-05-02T07:24:55.566Z</time></trkpt><trkpt lat="43.4486135" lon="11.1266748"><ele>193.2</ele><time>2026-05-02T07:24:57.492Z</time></trkpt><trkpt lat="43.4485312" lon="11.1266433"><ele>193.6</ele><time>2026-05-02T07:24:59.488Z</time></trkpt><trkpt lat="43.4484426" lon="11.126601"><ele>194.0</ele><time>2026-05-02T07:25:01.495Z</time></trkpt><trkpt lat="43.4483392" lon="11.1265666"><ele>189.5</ele><time>2026-05-02T07:25:03.493Z</time></trkpt><trkpt lat="43.4482283" lon="11.1265441"><ele>185.0</ele><time>2026-05-02T07:25:05.501Z</time></trkpt><trkpt lat="43.4481163" lon="11.1265198"><ele>180.5</ele><time>2026-05-02T07:25:07.495Z</time></trkpt><trkpt lat="43.4480029" lon="11.1264984"><ele>176.0</ele><time>2026-05-02T07:25:09.494Z</time></trkpt><trkpt lat="43.4478938" lon="11.1264676"><ele>175.16666666666666</ele><time>2026-05-02T07:25:11.48Z</time></trkpt><trkpt lat="43.4477978" lon="11.1264471"><ele>174.33333333333331</ele><time>2026-05-02T07:25:13.483Z</time></trkpt><trkpt lat="43.4477071" lon="11.1264289"><ele>173.5</ele><time>2026-05-02T07:25:15.477Z</time></trkpt><trkpt lat="43.44759" lon="11.1264045"><ele>172.66666666666666</ele><time>2026-05-02T07:25:17.492Z</time></trkpt><trkpt lat="43.4475215" lon="11.1264057"><ele>171.83333333333334</ele><time>2026-05-02T07:25:18.485Z</time></trkpt><trkpt lat="43.4474504" lon="11.126414"><ele>171.0</ele><time>2026-05-02T07:25:19.567Z</time></trkpt><trkpt lat="43.4473856" lon="11.1264257"><ele>170.99999999999997</ele><time>2026-05-02T07:25:20.489Z</time></trkpt><trkpt lat="43.4473183" lon="11.1264501"><ele>171.0</ele><time>2026-05-02T07:25:21.489Z</time></trkpt><trkpt lat="43.4472522" lon="11.1264683"><ele>171.0</ele><time>2026-05-02T07:25:22.49Z</time></trkpt><trkpt lat="43.4471785" lon="11.1264667"><ele>171.0</ele><time>2026-05-02T07:25:23.496Z</time></trkpt><trkpt lat="43.4471102" lon="11.1264533"><ele>171.0</ele><time>2026-05-02T07:25:24.589Z</time></trkpt><trkpt lat="43.4470478" lon="11.1264329"><ele>170.99999999999997</ele><time>2026-05-02T07:25:25.496Z</time></trkpt><trkpt lat="43.4469835" lon="11.1264098"><ele>171.0</ele><time>2026-05-02T07:25:26.491Z</time></trkpt><trkpt lat="43.4468768" lon="11.1263514"><ele>172.5</ele><time>2026-05-02T07:25:28.496Z</time></trkpt><trkpt lat="43.4467871" lon="11.1262891"><ele>174.0</ele><time>2026-05-02T07:25:30.495Z</time></trkpt><trkpt lat="43.446706" lon="11.1262347"><ele>175.5</ele><time>2026-05-02T07:25:32.488Z</time></trkpt><trkpt lat="43.4466364" lon="11.1261863"><ele>177.0</ele><time>2026-05-02T07:25:34.491Z</time></trkpt><trkpt lat="43.446565" lon="11.1261381"><ele>178.5</ele><time>2026-05-02T07:25:36.498Z</time></trkpt><trkpt lat="43.4464918" lon="11.1261018"><ele>180.0</ele><time>2026-05-02T07:25:38.489Z</time></trkpt><trkpt lat="43.4464303" lon="11.1260624"><ele>180.0</ele><time>2026-05-02T07:25:40.491Z</time></trkpt><trkpt lat="43.4463667" lon="11.1260221"><ele>180.0</ele><time>2026-05-02T07:25:42.466Z</time></trkpt><trkpt lat="43.4463036" lon="11.1259821"><ele>180.0</ele><time>2026-05-02T07:25:44.488Z</time></trkpt><trkpt lat="43.4462381" lon="11.1259409"><ele>180.0</ele><time>2026-05-02T07:25:46.485Z</time></trkpt><trkpt lat="43.4461641" lon="11.1258697"><ele>180.0</ele><time>2026-05-02T07:25:49.497Z</time></trkpt><trkpt lat="43.4460945" lon="11.1258072"><ele>180.0</ele><time>2026-05-02T07:25:52.485Z</time></trkpt><trkpt lat="43.4460386" lon="11.1257521"><ele>182.5</ele><time>2026-05-02T07:25:55.582Z</time></trkpt><trkpt lat="43.4459765" lon="11.1257018"><ele>185.0</ele><time>2026-05-02T07:25:58.485Z</time></trkpt><trkpt lat="43.4458894" lon="11.1256458"><ele>187.5</ele><time>2026-05-02T07:26:02.494Z</time></trkpt><trkpt lat="43.4458251" lon="11.1256086"><ele>190.0</ele><time>2026-05-02T07:26:05.554Z</time></trkpt><trkpt lat="43.4457486" lon="11.1255736"><ele>192.5</ele><time>2026-05-02T07:26:09.487Z</time></trkpt><trkpt lat="43.4456766" lon="11.1255314"><ele>195.0</ele><time>2026-05-02T07:26:13.482Z</time></trkpt><trkpt lat="43.4456063" lon="11.1254889"><ele>195.0</ele><time>2026-05-02T07:26:17.485Z</time></trkpt><trkpt lat="43.4455465" lon="11.12542"><ele>195.0</ele><time>2026-05-02T07:26:23.501Z</time></trkpt><trkpt lat="43.445482" lon="11.125351"><ele>195.0</ele><time>2026-05-02T07:26:27.474Z</time></trkpt><trkpt lat="43.4454424" lon="11.1252738"><ele>195.0</ele><time>2026-05-02T07:26:30.553Z</time></trkpt><trkpt lat="43.4454176" lon="11.1251867"><ele>195.0</ele><time>2026-05-02T07:26:33.494Z</time></trkpt><trkpt lat="43.4453839" lon="11.1251103"><ele>195.0</ele><time>2026-05-02T07:26:37.463Z</time></trkpt><trkpt lat="43.4453568" lon="11.1250112"><ele>195.0</ele><time>2026-05-02T07:26:41.474Z</time></trkpt><trkpt lat="43.4453296" lon="11.124924"><ele>195.33333333333334</ele><time>2026-05-02T07:26:45.497Z</time></trkpt><trkpt lat="43.4452981" lon="11.1248347"><ele>195.66666666666669</ele><time>2026-05-02T07:26:49.496Z</time></trkpt><trkpt lat="43.4452652" lon="11.1247407"><ele>196.0</ele><time>2026-05-02T07:26:53.499Z</time></trkpt><trkpt lat="43.4452336" lon="11.1246445"><ele>196.33333333333334</ele><time>2026-05-02T07:26:57.49Z</time></trkpt><trkpt lat="43.4452037" lon="11.1245531"><ele>196.66666666666669</ele><time>2026-05-02T07:27:01.496Z</time></trkpt><trkpt lat="43.4451304" lon="11.1244412"><ele>197.0</ele><time>2026-05-02T07:27:04.464Z</time></trkpt><trkpt lat="43.4450599" lon="11.1244269"><ele>197.0</ele><time>2026-05-02T07:27:07.46Z</time></trkpt><trkpt lat="43.444995" lon="11.124354"><ele>197.0</ele><time>2026-05-02T07:27:10.554Z</time></trkpt><trkpt lat="43.4450285" lon="11.1242673"><ele>197.0</ele><time>2026-05-02T07:27:12.474Z</time></trkpt><trkpt lat="43.4450455" lon="11.1241746"><ele>197.0</ele><time>2026-05-02T07:27:15.477Z</time></trkpt><trkpt lat="43.4450303" lon="11.1240867"><ele>197.0</ele><time>2026-05-02T07:27:18.487Z</time></trkpt><trkpt lat="43.4450098" lon="11.1239915"><ele>197.0</ele><time>2026-05-02T07:27:21.478Z</time></trkpt><trkpt lat="43.4449758" lon="11.1239018"><ele>197.0</ele><time>2026-05-02T07:27:24.469Z</time></trkpt><trkpt lat="43.4449533" lon="11.1238067"><ele>197.83333333333334</ele><time>2026-05-02T07:27:27.469Z</time></trkpt><trkpt lat="43.4449135" lon="11.123714"><ele>198.66666666666669</ele><time>2026-05-02T07:27:30.541Z</time></trkpt><trkpt lat="43.4449143" lon="11.1235993"><ele>199.5</ele><time>2026-05-02T07:27:34.544Z</time></trkpt><trkpt lat="43.4448783" lon="11.1235155"><ele>200.33333333333331</ele><time>2026-05-02T07:27:38.47Z</time></trkpt><trkpt lat="43.4448607" lon="11.1234021"><ele>201.16666666666666</ele><time>2026-05-02T07:27:41.451Z</time></trkpt><trkpt lat="43.4447995" lon="11.1233147"><ele>202.0</ele><time>2026-05-02T07:27:44.558Z</time></trkpt><trkpt lat="43.4447606" lon="11.1232254"><ele>202.33333333333331</ele><time>2026-05-02T07:27:47.467Z</time></trkpt><trkpt lat="43.4447229" lon="11.1231283"><ele>202.66666666666666</ele><time>2026-05-02T07:27:50.452Z</time></trkpt><trkpt lat="43.4446845" lon="11.1230335"><ele>203.0</ele><time>2026-05-02T07:27:53.453Z</time></trkpt><trkpt lat="43.4446421" lon="11.1229463"><ele>203.33333333333331</ele><time>2026-05-02T07:27:56.459Z</time></trkpt><trkpt lat="43.4445931" lon="11.1228563"><ele>203.66666666666666</ele><time>2026-05-02T07:27:59.476Z</time></trkpt><trkpt lat="43.4445436" lon="11.122788"><ele>204.0</ele><time>2026-05-02T07:28:02.467Z</time></trkpt><trkpt lat="43.4444686" lon="11.1227029"><ele>204.0</ele><time>2026-05-02T07:28:05.472Z</time></trkpt><trkpt lat="43.4444226" lon="11.1226395"><ele>204.0</ele><time>2026-05-02T07:28:07.478Z</time></trkpt><trkpt lat="43.4443732" lon="11.1225616"><ele>204.0</ele><time>2026-05-02T07:28:09.477Z</time></trkpt><trkpt lat="43.4443065" lon="11.1225307"><ele>204.0</ele><time>2026-05-02T07:28:12.477Z</time></trkpt><trkpt lat="43.4442363" lon="11.1224999"><ele>204.0</ele><time>2026-05-02T07:28:15.545Z</time></trkpt><trkpt lat="43.4441606" lon="11.1224633"><ele>204.0</ele><time>2026-05-02T07:28:18.487Z</time></trkpt><trkpt lat="43.4440928" lon="11.122416"><ele>204.0</ele><time>2026-05-02T07:28:21.562Z</time></trkpt><trkpt lat="43.4440165" lon="11.122373"><ele>204.83333333333334</ele><time>2026-05-02T07:28:24.576Z</time></trkpt><trkpt lat="43.4439321" lon="11.1223403"><ele>205.66666666666669</ele><time>2026-05-02T07:28:28.485Z</time></trkpt><trkpt lat="43.4438607" lon="11.122299"><ele>206.5</ele><time>2026-05-02T07:28:31.476Z</time></trkpt><trkpt lat="43.4438" lon="11.12227"><ele>207.33333333333334</ele><time>2026-05-02T07:28:34.482Z</time></trkpt><trkpt lat="43.4437337" lon="11.1222333"><ele>208.16666666666669</ele><time>2026-05-02T07:28:37.45Z</time></trkpt><trkpt lat="43.443663" lon="11.1221935"><ele>209.0</ele><time>2026-05-02T07:28:40.464Z</time></trkpt><trkpt lat="43.4435841" lon="11.1221538"><ele>209.0</ele><time>2026-05-02T07:28:44.458Z</time></trkpt><trkpt lat="43.4435196" lon="11.1221293"><ele>209.0</ele><time>2026-05-02T07:28:47.476Z</time></trkpt><trkpt lat="43.4434553" lon="11.1220733"><ele>209.0</ele><time>2026-05-02T07:28:51.545Z</time></trkpt><trkpt lat="43.4434593" lon="11.1219788"><ele>209.0</ele><time>2026-05-02T07:28:55.552Z</time></trkpt><trkpt lat="43.4434452" lon="11.1218838"><ele>209.0</ele><time>2026-05-02T07:28:58.473Z</time></trkpt><trkpt lat="43.4434752" lon="11.1217907"><ele>209.0</ele><time>2026-05-02T07:29:02.491Z</time></trkpt><trkpt lat="43.4435344" lon="11.1217203"><ele>209.0</ele><time>2026-05-02T07:29:06.479Z</time></trkpt><trkpt lat="43.4435911" lon="11.1216331"><ele>209.50000000000003</ele><time>2026-05-02T07:29:10.479Z</time></trkpt><trkpt lat="43.4436358" lon="11.1215503"><ele>210.0</ele><time>2026-05-02T07:29:14.481Z</time></trkpt><trkpt lat="43.4436831" lon="11.1214832"><ele>210.5</ele><time>2026-05-02T07:29:18.478Z</time></trkpt><trkpt lat="43.4437405" lon="11.1214067"><ele>211.0</ele><time>2026-05-02T07:29:23.468Z</time></trkpt><trkpt lat="43.4438013" lon="11.1213561"><ele>211.50000000000003</ele><time>2026-05-02T07:29:27.481Z</time></trkpt><trkpt lat="43.443858" lon="11.1212541"><ele>212.0</ele><time>2026-05-02T07:29:31.543Z</time></trkpt><trkpt lat="43.4439083" lon="11.1211796"><ele>212.83333333333334</ele><time>2026-05-02T07:29:34.481Z</time></trkpt><trkpt lat="43.4439745" lon="11.121113"><ele>213.66666666666669</ele><time>2026-05-02T07:29:38.467Z</time></trkpt><trkpt lat="43.4440273" lon="11.1210436"><ele>214.5</ele><time>2026-05-02T07:29:41.481Z</time></trkpt><trkpt lat="43.4440829" lon="11.1209804"><ele>215.33333333333331</ele><time>2026-05-02T07:29:43.469Z</time></trkpt><trkpt lat="43.4441658" lon="11.1208951"><ele>216.16666666666666</ele><time>2026-05-02T07:29:45.471Z</time></trkpt><trkpt lat="43.4442664" lon="11.1208085"><ele>217.0</ele><time>2026-05-02T07:29:47.469Z</time></trkpt><trkpt lat="43.4443648" lon="11.1207174"><ele>216.39999999999998</ele><time>2026-05-02T07:29:49.555Z</time></trkpt><trkpt lat="43.4444556" lon="11.1206096"><ele>215.79999999999998</ele><time>2026-05-02T07:29:51.572Z</time></trkpt><trkpt lat="43.4445342" lon="11.120501"><ele>215.2</ele><time>2026-05-02T07:29:53.491Z</time></trkpt><trkpt lat="43.444603" lon="11.1203838"><ele>214.6</ele><time>2026-05-02T07:29:55.563Z</time></trkpt><trkpt lat="43.4446632" lon="11.1202849"><ele>214.0</ele><time>2026-05-02T07:29:57.497Z</time></trkpt><trkpt lat="43.4447148" lon="11.1201825"><ele>214.00000000000003</ele><time>2026-05-02T07:29:59.476Z</time></trkpt><trkpt lat="43.4447592" lon="11.1200882"><ele>214.0</ele><time>2026-05-02T07:30:01.562Z</time></trkpt><trkpt lat="43.444788" lon="11.1199827"><ele>214.0</ele><time>2026-05-02T07:30:03.469Z</time></trkpt><trkpt lat="43.4448235" lon="11.1199001"><ele>214.0</ele><time>2026-05-02T07:30:05.476Z</time></trkpt><trkpt lat="43.4448768" lon="11.1198426"><ele>214.0</ele><time>2026-05-02T07:30:07.495Z</time></trkpt><trkpt lat="43.444932" lon="11.1197835"><ele>214.00000000000003</ele><time>2026-05-02T07:30:09.572Z</time></trkpt><trkpt lat="43.4449751" lon="11.1197124"><ele>214.0</ele><time>2026-05-02T07:30:11.5Z</time></trkpt><trkpt lat="43.4450148" lon="11.1196393"><ele>214.66666666666666</ele><time>2026-05-02T07:30:13.486Z</time></trkpt><trkpt lat="43.445098" lon="11.1196032"><ele>215.33333333333331</ele><time>2026-05-02T07:30:17.499Z</time></trkpt><trkpt lat="43.4451668" lon="11.1195653"><ele>216.0</ele><time>2026-05-02T07:30:20.479Z</time></trkpt><trkpt lat="43.4452426" lon="11.1195126"><ele>216.66666666666669</ele><time>2026-05-02T07:30:23.493Z</time></trkpt><trkpt lat="43.4453239" lon="11.1194702"><ele>217.33333333333334</ele><time>2026-05-02T07:30:26.47Z</time></trkpt><trkpt lat="43.4453991" lon="11.1194214"><ele>218.0</ele><time>2026-05-02T07:30:29.494Z</time></trkpt><trkpt lat="43.4454687" lon="11.1193653"><ele>218.28571428571428</ele><time>2026-05-02T07:30:32.488Z</time></trkpt><trkpt lat="43.4455212" lon="11.1192943"><ele>218.57142857142858</ele><time>2026-05-02T07:30:35.466Z</time></trkpt><trkpt lat="43.4455659" lon="11.119208"><ele>218.85714285714283</ele><time>2026-05-02T07:30:39.49Z</time></trkpt><trkpt lat="43.4455979" lon="11.1191227"><ele>219.14285714285714</ele><time>2026-05-02T07:30:42.496Z</time></trkpt><trkpt lat="43.445633" lon="11.1190485"><ele>219.42857142857142</ele><time>2026-05-02T07:30:44.482Z</time></trkpt><trkpt lat="43.4456636" lon="11.1189592"><ele>219.7142857142857</ele><time>2026-05-02T07:30:46.553Z</time></trkpt><trkpt lat="43.445695" lon="11.1188493"><ele>220.0</ele><time>2026-05-02T07:30:48.497Z</time></trkpt><trkpt lat="43.4457149" lon="11.118746"><ele>219.99999999999997</ele><time>2026-05-02T07:30:50.496Z</time></trkpt><trkpt lat="43.4457359" lon="11.1186428"><ele>220.0</ele><time>2026-05-02T07:30:52.491Z</time></trkpt><trkpt lat="43.4457449" lon="11.1185295"><ele>220.0</ele><time>2026-05-02T07:30:54.494Z</time></trkpt><trkpt lat="43.4457452" lon="11.1184172"><ele>220.0</ele><time>2026-05-02T07:30:56.489Z</time></trkpt><trkpt lat="43.4457364" lon="11.118315"><ele>220.0</ele><time>2026-05-02T07:30:58.493Z</time></trkpt><trkpt lat="43.4457162" lon="11.118232"><ele>219.99999999999997</ele><time>2026-05-02T07:31:00.531Z</time></trkpt><trkpt lat="43.4457011" lon="11.118144"><ele>220.0</ele><time>2026-05-02T07:31:02.487Z</time></trkpt><trkpt lat="43.4456817" lon="11.1180609"><ele>219.66666666666666</ele><time>2026-05-02T07:31:04.489Z</time></trkpt><trkpt lat="43.4456622" lon="11.1179701"><ele>219.33333333333331</ele><time>2026-05-02T07:31:06.496Z</time></trkpt><trkpt lat="43.4456502" lon="11.1178845"><ele>219.0</ele><time>2026-05-02T07:31:08.49Z</time></trkpt><trkpt lat="43.445624" lon="11.1177616"><ele>218.66666666666669</ele><time>2026-05-02T07:31:11.486Z</time></trkpt><trkpt lat="43.4456104" lon="11.1176758"><ele>218.33333333333334</ele><time>2026-05-02T07:31:13.486Z</time></trkpt><trkpt lat="43.445609" lon="11.1175478"><ele>218.0</ele><time>2026-05-02T07:31:16.571Z</time></trkpt><trkpt lat="43.4456279" lon="11.1174399"><ele>217.16666666666669</ele><time>2026-05-02T07:31:18.491Z</time></trkpt><trkpt lat="43.445686" lon="11.1173345"><ele>216.33333333333334</ele><time>2026-05-02T07:31:21.507Z</time></trkpt><trkpt lat="43.445754" lon="11.1172683"><ele>215.5</ele><time>2026-05-02T07:31:23.486Z</time></trkpt><trkpt lat="43.4458305" lon="11.1172152"><ele>214.66666666666669</ele><time>2026-05-02T07:31:25.493Z</time></trkpt><trkpt lat="43.4459194" lon="11.1171798"><ele>213.83333333333334</ele><time>2026-05-02T07:31:27.494Z</time></trkpt><trkpt lat="43.4460086" lon="11.1171499"><ele>213.0</ele><time>2026-05-02T07:31:29.49Z</time></trkpt><trkpt lat="43.4460852" lon="11.1170911"><ele>213.0</ele><time>2026-05-02T07:31:31.482Z</time></trkpt><trkpt lat="43.4461425" lon="11.1170058"><ele>213.0</ele><time>2026-05-02T07:31:33.491Z</time></trkpt><trkpt lat="43.446184" lon="11.1168985"><ele>213.0</ele><time>2026-05-02T07:31:35.495Z</time></trkpt><trkpt lat="43.4461934" lon="11.1167785"><ele>213.0</ele><time>2026-05-02T07:31:37.498Z</time></trkpt><trkpt lat="43.4461856" lon="11.1166677"><ele>213.0</ele><time>2026-05-02T07:31:39.493Z</time></trkpt><trkpt lat="43.4461793" lon="11.1165505"><ele>213.0</ele><time>2026-05-02T07:31:41.465Z</time></trkpt><trkpt lat="43.4461446" lon="11.1164525"><ele>213.0</ele><time>2026-05-02T07:31:43.478Z</time></trkpt><trkpt lat="43.4461025" lon="11.1163604"><ele>213.0</ele><time>2026-05-02T07:31:45.567Z</time></trkpt><trkpt lat="43.4460442" lon="11.1162616"><ele>213.0</ele><time>2026-05-02T07:31:47.501Z</time></trkpt><trkpt lat="43.4459865" lon="11.1161594"><ele>213.0</ele><time>2026-05-02T07:31:49.496Z</time></trkpt><trkpt lat="43.4459129" lon="11.1160543"><ele>213.0</ele><time>2026-05-02T07:31:51.502Z</time></trkpt><trkpt lat="43.4458389" lon="11.1159672"><ele>213.0</ele><time>2026-05-02T07:31:53.499Z</time></trkpt><trkpt lat="43.4457672" lon="11.1158982"><ele>213.0</ele><time>2026-05-02T07:31:55.488Z</time></trkpt><trkpt lat="43.4457025" lon="11.1158405"><ele>213.0</ele><time>2026-05-02T07:31:57.491Z</time></trkpt><trkpt lat="43.4456474" lon="11.1157845"><ele>213.0</ele><time>2026-05-02T07:31:59.483Z</time></trkpt><trkpt lat="43.445582" lon="11.1157355"><ele>213.0</ele><time>2026-05-02T07:32:01.498Z</time></trkpt><trkpt lat="43.4455117" lon="11.1156538"><ele>213.0</ele><time>2026-05-02T07:32:04.496Z</time></trkpt><trkpt lat="43.4454472" lon="11.1155787"><ele>214.33333333333334</ele><time>2026-05-02T07:32:07.503Z</time></trkpt><trkpt lat="43.4453898" lon="11.1154979"><ele>215.66666666666669</ele><time>2026-05-02T07:32:10.489Z</time></trkpt><trkpt lat="43.445337" lon="11.1154168"><ele>217.0</ele><time>2026-05-02T07:32:13.466Z</time></trkpt><trkpt lat="43.4452806" lon="11.115326"><ele>218.33333333333334</ele><time>2026-05-02T07:32:16.559Z</time></trkpt><trkpt lat="43.4452452" lon="11.1152348"><ele>219.66666666666669</ele><time>2026-05-02T07:32:19.483Z</time></trkpt><trkpt lat="43.445187" lon="11.1151493"><ele>221.0</ele><time>2026-05-02T07:32:22.476Z</time></trkpt><trkpt lat="43.4451339" lon="11.1150563"><ele>221.00000000000003</ele><time>2026-05-02T07:32:25.48Z</time></trkpt><trkpt lat="43.445077" lon="11.1149734"><ele>221.0</ele><time>2026-05-02T07:32:28.487Z</time></trkpt><trkpt lat="43.4450381" lon="11.1148955"><ele>221.0</ele><time>2026-05-02T07:32:31.485Z</time></trkpt><trkpt lat="43.4449809" lon="11.1148335"><ele>221.0</ele><time>2026-05-02T07:32:34.489Z</time></trkpt><trkpt lat="43.4449345" lon="11.1147626"><ele>221.0</ele><time>2026-05-02T07:32:37.494Z</time></trkpt><trkpt lat="43.4448872" lon="11.1146812"><ele>221.00000000000003</ele><time>2026-05-02T07:32:40.469Z</time></trkpt><trkpt lat="43.4448421" lon="11.1145951"><ele>221.0</ele><time>2026-05-02T07:32:43.497Z</time></trkpt><trkpt lat="43.4448145" lon="11.1145067"><ele>221.16666666666669</ele><time>2026-05-02T07:32:46.489Z</time></trkpt><trkpt lat="43.4447668" lon="11.1144117"><ele>221.33333333333334</ele><time>2026-05-02T07:32:49.491Z</time></trkpt><trkpt lat="43.444719" lon="11.1143035"><ele>221.5</ele><time>2026-05-02T07:32:52.49Z</time></trkpt><trkpt lat="43.4446882" lon="11.1142173"><ele>221.66666666666669</ele><time>2026-05-02T07:32:54.51Z</time></trkpt><trkpt lat="43.4446448" lon="11.1141061"><ele>221.83333333333334</ele><time>2026-05-02T07:32:56.471Z</time></trkpt><trkpt lat="43.4446242" lon="11.1140037"><ele>222.0</ele><time>2026-05-02T07:32:58.493Z</time></trkpt><trkpt lat="43.444616" lon="11.113901"><ele>221.5</ele><time>2026-05-02T07:33:00.499Z</time></trkpt><trkpt lat="43.4446185" lon="11.1137723"><ele>221.0</ele><time>2026-05-02T07:33:03.506Z</time></trkpt><trkpt lat="43.4446412" lon="11.1136531"><ele>220.5</ele><time>2026-05-02T07:33:06.518Z</time></trkpt><trkpt lat="43.4446659" lon="11.1135318"><ele>220.0</ele><time>2026-05-02T07:33:09.508Z</time></trkpt><trkpt lat="43.44468" lon="11.1134428"><ele>219.5</ele><time>2026-05-02T07:33:11.498Z</time></trkpt><trkpt lat="43.4446943" lon="11.1133513"><ele>219.0</ele><time>2026-05-02T07:33:13.502Z</time></trkpt><trkpt lat="43.4447169" lon="11.1132623"><ele>219.0</ele><time>2026-05-02T07:33:15.511Z</time></trkpt><trkpt lat="43.4447456" lon="11.1131782"><ele>219.0</ele><time>2026-05-02T07:33:17.481Z</time></trkpt><trkpt lat="43.4447943" lon="11.1130878"><ele>219.0</ele><time>2026-05-02T07:33:19.489Z</time></trkpt><trkpt lat="43.4448395" lon="11.1130107"><ele>219.0</ele><time>2026-05-02T07:33:21.556Z</time></trkpt><trkpt lat="43.4448823" lon="11.1128988"><ele>219.0</ele><time>2026-05-02T07:33:23.496Z</time></trkpt><trkpt lat="43.4449249" lon="11.1127866"><ele>219.0</ele><time>2026-05-02T07:33:25.564Z</time></trkpt><trkpt lat="43.4449811" lon="11.1126863"><ele>219.0</ele><time>2026-05-02T07:33:27.496Z</time></trkpt><trkpt lat="43.4450341" lon="11.1125861"><ele>219.0</ele><time>2026-05-02T07:33:29.495Z</time></trkpt><trkpt lat="43.4450716" lon="11.11249"><ele>219.0</ele><time>2026-05-02T07:33:31.493Z</time></trkpt><trkpt lat="43.4451147" lon="11.1123899"><ele>219.0</ele><time>2026-05-02T07:33:33.49Z</time></trkpt><trkpt lat="43.4451467" lon="11.1122961"><ele>219.0</ele><time>2026-05-02T07:33:35.477Z</time></trkpt><trkpt lat="43.4451726" lon="11.1121901"><ele>219.0</ele><time>2026-05-02T07:33:37.494Z</time></trkpt><trkpt lat="43.4451998" lon="11.1121015"><ele>219.5</ele><time>2026-05-02T07:33:39.482Z</time></trkpt><trkpt lat="43.4452394" lon="11.1119855"><ele>220.0</ele><time>2026-05-02T07:33:42.502Z</time></trkpt><trkpt lat="43.4452705" lon="11.1118663"><ele>220.5</ele><time>2026-05-02T07:33:45.483Z</time></trkpt><trkpt lat="43.4452949" lon="11.1117859"><ele>221.0</ele><time>2026-05-02T07:33:47.484Z</time></trkpt><trkpt lat="43.4453209" lon="11.1117018"><ele>221.5</ele><time>2026-05-02T07:33:49.487Z</time></trkpt><trkpt lat="43.4453502" lon="11.1115931"><ele>222.0</ele><time>2026-05-02T07:33:52.488Z</time></trkpt><trkpt lat="43.445367" lon="11.1114817"><ele>222.33333333333334</ele><time>2026-05-02T07:33:55.468Z</time></trkpt><trkpt lat="43.4454044" lon="11.1113856"><ele>222.66666666666669</ele><time>2026-05-02T07:33:58.495Z</time></trkpt><trkpt lat="43.445446" lon="11.1112832"><ele>223.0</ele><time>2026-05-02T07:34:01.589Z</time></trkpt><trkpt lat="43.4454759" lon="11.1111693"><ele>223.33333333333334</ele><time>2026-05-02T07:34:03.508Z</time></trkpt><trkpt lat="43.4455148" lon="11.11107"><ele>223.66666666666669</ele><time>2026-05-02T07:34:05.49Z</time></trkpt><trkpt lat="43.4455621" lon="11.1109726"><ele>224.0</ele><time>2026-05-02T07:34:07.49Z</time></trkpt><trkpt lat="43.4456253" lon="11.1108831"><ele>223.39999999999998</ele><time>2026-05-02T07:34:09.483Z</time></trkpt><trkpt lat="43.4457126" lon="11.1107804"><ele>222.79999999999998</ele><time>2026-05-02T07:34:11.5Z</time></trkpt><trkpt lat="43.445787" lon="11.1106794"><ele>222.20000000000002</ele><time>2026-05-02T07:34:13.485Z</time></trkpt><trkpt lat="43.4458498" lon="11.1105795"><ele>221.60000000000002</ele><time>2026-05-02T07:34:15.479Z</time></trkpt><trkpt lat="43.4459044" lon="11.1104766"><ele>221.0</ele><time>2026-05-02T07:34:17.482Z</time></trkpt><trkpt lat="43.4459734" lon="11.1104008"><ele>221.0</ele><time>2026-05-02T07:34:19.555Z</time></trkpt><trkpt lat="43.4460776" lon="11.1103363"><ele>221.00000000000003</ele><time>2026-05-02T07:34:21.557Z</time></trkpt><trkpt lat="43.4461806" lon="11.1102851"><ele>221.00000000000003</ele><time>2026-05-02T07:34:23.492Z</time></trkpt><trkpt lat="43.4462742" lon="11.1102243"><ele>221.0</ele><time>2026-05-02T07:34:25.569Z</time></trkpt><trkpt lat="43.4463298" lon="11.1101409"><ele>221.0</ele><time>2026-05-02T07:34:27.499Z</time></trkpt><trkpt lat="43.4463023" lon="11.110062"><ele>221.00000000000003</ele><time>2026-05-02T07:34:30.502Z</time></trkpt><trkpt lat="43.4462568" lon="11.1099666"><ele>221.0</ele><time>2026-05-02T07:34:34.477Z</time></trkpt><trkpt lat="43.4462127" lon="11.1098672"><ele>221.0</ele><time>2026-05-02T07:34:38.493Z</time></trkpt><trkpt lat="43.4461508" lon="11.1097824"><ele>221.0</ele><time>2026-05-02T07:34:41.465Z</time></trkpt><trkpt lat="43.4460911" lon="11.1097418"><ele>221.00000000000003</ele><time>2026-05-02T07:34:43.484Z</time></trkpt><trkpt lat="43.4460222" lon="11.1096787"><ele>221.0</ele><time>2026-05-02T07:34:45.481Z</time></trkpt><trkpt lat="43.4459558" lon="11.1096214"><ele>219.33333333333334</ele><time>2026-05-02T07:34:47.482Z</time></trkpt><trkpt lat="43.4458814" lon="11.1095574"><ele>217.66666666666669</ele><time>2026-05-02T07:34:49.489Z</time></trkpt><trkpt lat="43.4458101" lon="11.1095038"><ele>216.0</ele><time>2026-05-02T07:34:51.49Z</time></trkpt><trkpt lat="43.4457394" lon="11.1094532"><ele>214.33333333333331</ele><time>2026-05-02T07:34:53.499Z</time></trkpt><trkpt lat="43.4456682" lon="11.1094048"><ele>212.66666666666666</ele><time>2026-05-02T07:34:55.481Z</time></trkpt><trkpt lat="43.4455927" lon="11.1093761"><ele>211.0</ele><time>2026-05-02T07:34:57.492Z</time></trkpt><trkpt lat="43.4455199" lon="11.1093456"><ele>211.66666666666666</ele><time>2026-05-02T07:34:59.5Z</time></trkpt><trkpt lat="43.4454385" lon="11.1092916"><ele>212.33333333333331</ele><time>2026-05-02T07:35:02.481Z</time></trkpt><trkpt lat="43.4453491" lon="11.1092503"><ele>213.0</ele><time>2026-05-02T07:35:05.478Z</time></trkpt><trkpt lat="43.445289" lon="11.109211"><ele>213.66666666666669</ele><time>2026-05-02T07:35:07.473Z</time></trkpt><trkpt lat="43.4452232" lon="11.1091828"><ele>214.33333333333334</ele><time>2026-05-02T07:35:09.497Z</time></trkpt><trkpt lat="43.4451588" lon="11.1091842"><ele>215.0</ele><time>2026-05-02T07:35:11.56Z</time></trkpt><trkpt lat="43.4450872" lon="11.1091901"><ele>215.0</ele><time>2026-05-02T07:35:13.486Z</time></trkpt><trkpt lat="43.4450166" lon="11.1092084"><ele>215.0</ele><time>2026-05-02T07:35:15.486Z</time></trkpt><trkpt lat="43.444933" lon="11.109226"><ele>215.0</ele><time>2026-05-02T07:35:17.501Z</time></trkpt><trkpt lat="43.4448325" lon="11.109228"><ele>215.0</ele><time>2026-05-02T07:35:19.49Z</time></trkpt><trkpt lat="43.4447204" lon="11.1092432"><ele>215.0</ele><time>2026-05-02T07:35:21.501Z</time></trkpt><trkpt lat="43.4445999" lon="11.1092575"><ele>215.16666666666669</ele><time>2026-05-02T07:35:23.496Z</time></trkpt><trkpt lat="43.4444973" lon="11.1092618"><ele>215.33333333333334</ele><time>2026-05-02T07:35:25.5Z</time></trkpt><trkpt lat="43.4444186" lon="11.1092633"><ele>215.5</ele><time>2026-05-02T07:35:27.47Z</time></trkpt><trkpt lat="43.4443477" lon="11.1092505"><ele>215.66666666666669</ele><time>2026-05-02T07:35:29.49Z</time></trkpt><trkpt lat="43.4442572" lon="11.1092373"><ele>215.83333333333334</ele><time>2026-05-02T07:35:32.495Z</time></trkpt><trkpt lat="43.4441657" lon="11.1092114"><ele>216.0</ele><time>2026-05-02T07:35:35.468Z</time></trkpt><trkpt lat="43.4441012" lon="11.1091725"><ele>216.0</ele><time>2026-05-02T07:35:37.48Z</time></trkpt><trkpt lat="43.4440568" lon="11.1090917"><ele>216.0</ele><time>2026-05-02T07:35:39.501Z</time></trkpt><trkpt lat="43.4440122" lon="11.1089684"><ele>216.0</ele><time>2026-05-02T07:35:41.565Z</time></trkpt><trkpt lat="43.4439973" lon="11.1088578"><ele>216.0</ele><time>2026-05-02T07:35:43.496Z</time></trkpt><trkpt lat="43.4439439" lon="11.1087546"><ele>216.0</ele><time>2026-05-02T07:35:45.462Z</time></trkpt><trkpt lat="43.4438974" lon="11.1086772"><ele>216.0</ele><time>2026-05-02T07:35:47.47Z</time></trkpt><trkpt lat="43.4438612" lon="11.1085938"><ele>215.0</ele><time>2026-05-02T07:35:49.485Z</time></trkpt><trkpt lat="43.4438299" lon="11.1084892"><ele>214.0</ele><time>2026-05-02T07:35:51.496Z</time></trkpt><trkpt lat="43.4438049" lon="11.108379"><ele>213.0</ele><time>2026-05-02T07:35:53.493Z</time></trkpt><trkpt lat="43.4437958" lon="11.108272"><ele>212.0</ele><time>2026-05-02T07:35:55.492Z</time></trkpt><trkpt lat="43.4437835" lon="11.1081694"><ele>211.0</ele><time>2026-05-02T07:35:57.503Z</time></trkpt><trkpt lat="43.4437742" lon="11.1080744"><ele>210.0</ele><time>2026-05-02T07:35:59.5Z</time></trkpt><trkpt lat="43.4437696" lon="11.1079868"><ele>209.85714285714286</ele><time>2026-05-02T07:36:01.489Z</time></trkpt><trkpt lat="43.4437654" lon="11.1078926"><ele>209.71428571428572</ele><time>2026-05-02T07:36:03.497Z</time></trkpt><trkpt lat="43.4437641" lon="11.1077973"><ele>209.57142857142856</ele><time>2026-05-02T07:36:05.489Z</time></trkpt><trkpt lat="43.4437513" lon="11.1077011"><ele>209.42857142857144</ele><time>2026-05-02T07:36:07.484Z</time></trkpt><trkpt lat="43.443745" lon="11.1075977"><ele>209.28571428571428</ele><time>2026-05-02T07:36:09.557Z</time></trkpt><trkpt lat="43.4437304" lon="11.1074783"><ele>209.14285714285714</ele><time>2026-05-02T07:36:11.487Z</time></trkpt><trkpt lat="43.4437151" lon="11.1073757"><ele>209.0</ele><time>2026-05-02T07:36:13.481Z</time></trkpt><trkpt lat="43.4436891" lon="11.1072719"><ele>209.50000000000003</ele><time>2026-05-02T07:36:15.482Z</time></trkpt><trkpt lat="43.4436547" lon="11.107171"><ele>210.0</ele><time>2026-05-02T07:36:17.461Z</time></trkpt><trkpt lat="43.4436172" lon="11.1070805"><ele>210.5</ele><time>2026-05-02T07:36:19.496Z</time></trkpt><trkpt lat="43.4435799" lon="11.1069885"><ele>211.0</ele><time>2026-05-02T07:36:21.565Z</time></trkpt><trkpt lat="43.4435386" lon="11.1068996"><ele>211.50000000000003</ele><time>2026-05-02T07:36:23.488Z</time></trkpt><trkpt lat="43.4434906" lon="11.1068169"><ele>212.0</ele><time>2026-05-02T07:36:25.491Z</time></trkpt><trkpt lat="43.4434456" lon="11.1067386"><ele>212.0</ele><time>2026-05-02T07:36:27.492Z</time></trkpt><trkpt lat="43.4434068" lon="11.1066524"><ele>212.0</ele><time>2026-05-02T07:36:29.475Z</time></trkpt><trkpt lat="43.4433733" lon="11.1065708"><ele>212.0</ele><time>2026-05-02T07:36:31.511Z</time></trkpt><trkpt lat="43.4433396" lon="11.1064574"><ele>212.0</ele><time>2026-05-02T07:36:34.502Z</time></trkpt><trkpt lat="43.4433119" lon="11.1063782"><ele>212.0</ele><time>2026-05-02T07:36:36.469Z</time></trkpt><trkpt lat="43.4432754" lon="11.1062939"><ele>212.0</ele><time>2026-05-02T07:36:38.492Z</time></trkpt><trkpt lat="43.4432288" lon="11.1062016"><ele>212.0</ele><time>2026-05-02T07:36:40.463Z</time></trkpt><trkpt lat="43.4431624" lon="11.1061122"><ele>212.50000000000003</ele><time>2026-05-02T07:36:43.484Z</time></trkpt><trkpt lat="43.4431346" lon="11.1060146"><ele>213.0</ele><time>2026-05-02T07:36:45.49Z</time></trkpt><trkpt lat="43.4431008" lon="11.1059355"><ele>213.5</ele><time>2026-05-02T07:36:47.479Z</time></trkpt><trkpt lat="43.4430681" lon="11.1058515"><ele>214.0</ele><time>2026-05-02T07:36:49.492Z</time></trkpt><trkpt lat="43.4430296" lon="11.105733"><ele>214.50000000000003</ele><time>2026-05-02T07:36:52.49Z</time></trkpt><trkpt lat="43.4430004" lon="11.105635"><ele>215.0</ele><time>2026-05-02T07:36:56.496Z</time></trkpt><trkpt lat="43.4429641" lon="11.1055452"><ele>216.28571428571428</ele><time>2026-05-02T07:37:00.504Z</time></trkpt><trkpt lat="43.4429286" lon="11.1054482"><ele>217.57142857142858</ele><time>2026-05-02T07:37:04.499Z</time></trkpt><trkpt lat="43.4428986" lon="11.1053711"><ele>218.85714285714286</ele><time>2026-05-02T07:37:07.484Z</time></trkpt><trkpt lat="43.4428654" lon="11.1052957"><ele>220.14285714285714</ele><time>2026-05-02T07:37:10.484Z</time></trkpt><trkpt lat="43.4428344" lon="11.1052152"><ele>221.42857142857144</ele><time>2026-05-02T07:37:13.505Z</time></trkpt><trkpt lat="43.4428037" lon="11.1051395"><ele>222.71428571428572</ele><time>2026-05-02T07:37:16.495Z</time></trkpt><trkpt lat="43.4427737" lon="11.105053"><ele>224.0</ele><time>2026-05-02T07:37:20.489Z</time></trkpt><trkpt lat="43.4427714" lon="11.1049609"><ele>223.14285714285714</ele><time>2026-05-02T07:37:23.486Z</time></trkpt><trkpt lat="43.4427419" lon="11.1048842"><ele>222.28571428571428</ele><time>2026-05-02T07:37:26.561Z</time></trkpt><trkpt lat="43.4426876" lon="11.1048186"><ele>221.42857142857144</ele><time>2026-05-02T07:37:30.494Z</time></trkpt><trkpt lat="43.4426442" lon="11.1047223"><ele>220.57142857142856</ele><time>2026-05-02T07:37:33.484Z</time></trkpt><trkpt lat="43.4426194" lon="11.1046328"><ele>219.71428571428572</ele><time>2026-05-02T07:37:35.488Z</time></trkpt><trkpt lat="43.4426249" lon="11.1045198"><ele>218.85714285714286</ele><time>2026-05-02T07:37:37.495Z</time></trkpt><trkpt lat="43.4426517" lon="11.1044175"><ele>218.0</ele><time>2026-05-02T07:37:39.498Z</time></trkpt><trkpt lat="43.4426943" lon="11.104332"><ele>218.0</ele><time>2026-05-02T07:37:41.495Z</time></trkpt><trkpt lat="43.4427323" lon="11.104259"><ele>218.0</ele><time>2026-05-02T07:37:43.502Z</time></trkpt><trkpt lat="43.4427809" lon="11.1041686"><ele>218.0</ele><time>2026-05-02T07:37:46.559Z</time></trkpt><trkpt lat="43.442829" lon="11.1040795"><ele>218.0</ele><time>2026-05-02T07:37:49.487Z</time></trkpt><trkpt lat="43.442861" lon="11.1040034"><ele>218.0</ele><time>2026-05-02T07:37:51.56Z</time></trkpt><trkpt lat="43.4428998" lon="11.1039338"><ele>218.0</ele><time>2026-05-02T07:37:53.489Z</time></trkpt><trkpt lat="43.4429362" lon="11.1038625"><ele>218.0</ele><time>2026-05-02T07:37:55.563Z</time></trkpt><trkpt lat="43.4429918" lon="11.1037649"><ele>218.57142857142858</ele><time>2026-05-02T07:37:58.501Z</time></trkpt><trkpt lat="43.4430323" lon="11.103685"><ele>219.14285714285717</ele><time>2026-05-02T07:38:00.485Z</time></trkpt><trkpt lat="43.4430731" lon="11.1036023"><ele>219.71428571428572</ele><time>2026-05-02T07:38:02.482Z</time></trkpt><trkpt lat="43.4431119" lon="11.103521"><ele>220.28571428571428</ele><time>2026-05-02T07:38:04.475Z</time></trkpt><trkpt lat="43.4431516" lon="11.1034421"><ele>220.85714285714286</ele><time>2026-05-02T07:38:06.495Z</time></trkpt><trkpt lat="43.4431911" lon="11.1033695"><ele>221.42857142857142</ele><time>2026-05-02T07:38:08.5Z</time></trkpt><trkpt lat="43.4432289" lon="11.1032993"><ele>222.0</ele><time>2026-05-02T07:38:10.499Z</time></trkpt><trkpt lat="43.4432853" lon="11.1031978"><ele>222.42857142857142</ele><time>2026-05-02T07:38:13.502Z</time></trkpt><trkpt lat="43.4433222" lon="11.1031216"><ele>222.8571428571429</ele><time>2026-05-02T07:38:15.492Z</time></trkpt><trkpt lat="43.4433559" lon="11.1030413"><ele>223.2857142857143</ele><time>2026-05-02T07:38:17.493Z</time></trkpt><trkpt lat="43.4433945" lon="11.1029497"><ele>223.71428571428572</ele><time>2026-05-02T07:38:20.49Z</time></trkpt><trkpt lat="43.4434314" lon="11.10286"><ele>224.14285714285717</ele><time>2026-05-02T07:38:23.497Z</time></trkpt><trkpt lat="43.4434661" lon="11.1027854"><ele>224.5714285714286</ele><time>2026-05-02T07:38:25.57Z</time></trkpt><trkpt lat="43.4435065" lon="11.1026978"><ele>225.00000000000003</ele><time>2026-05-02T07:38:27.489Z</time></trkpt><trkpt lat="43.4435305" lon="11.1026043"><ele>225.0</ele><time>2026-05-02T07:38:29.487Z</time></trkpt><trkpt lat="43.4435722" lon="11.1025027"><ele>225.0</ele><time>2026-05-02T07:38:31.493Z</time></trkpt><trkpt lat="43.4436265" lon="11.1024132"><ele>225.0</ele><time>2026-05-02T07:38:33.489Z</time></trkpt><trkpt lat="43.4436702" lon="11.1023137"><ele>225.0</ele><time>2026-05-02T07:38:35.569Z</time></trkpt><trkpt lat="43.4437133" lon="11.1022241"><ele>225.0</ele><time>2026-05-02T07:38:37.488Z</time></trkpt><trkpt lat="43.4437572" lon="11.1021048"><ele>225.0</ele><time>2026-05-02T07:38:39.504Z</time></trkpt><trkpt lat="43.4438081" lon="11.1019814"><ele>223.4</ele><time>2026-05-02T07:38:41.49Z</time></trkpt><trkpt lat="43.4438691" lon="11.1018478"><ele>221.8</ele><time>2026-05-02T07:38:43.489Z</time></trkpt><trkpt lat="43.4439326" lon="11.1017255"><ele>220.2</ele><time>2026-05-02T07:38:45.488Z</time></trkpt><trkpt lat="43.4439899" lon="11.1015945"><ele>218.6</ele><time>2026-05-02T07:38:47.496Z</time></trkpt><trkpt lat="43.4440534" lon="11.1014707"><ele>217.0</ele><time>2026-05-02T07:38:49.494Z</time></trkpt><trkpt lat="43.4441063" lon="11.1013558"><ele>216.99999999999997</ele><time>2026-05-02T07:38:51.49Z</time></trkpt><trkpt lat="43.4441552" lon="11.1012565"><ele>217.0</ele><time>2026-05-02T07:38:53.481Z</time></trkpt><trkpt lat="43.4442021" lon="11.1011599"><ele>217.0</ele><time>2026-05-02T07:38:55.57Z</time></trkpt><trkpt lat="43.444251" lon="11.1010764"><ele>217.0</ele><time>2026-05-02T07:38:57.49Z</time></trkpt><trkpt lat="43.4442903" lon="11.1009804"><ele>216.99999999999997</ele><time>2026-05-02T07:38:59.5Z</time></trkpt><trkpt lat="43.4443142" lon="11.1008741"><ele>217.0</ele><time>2026-05-02T07:39:01.558Z</time></trkpt><trkpt lat="43.4442943" lon="11.1007824"><ele>216.16666666666666</ele><time>2026-05-02T07:39:04.491Z</time></trkpt><trkpt lat="43.4442342" lon="11.1007133"><ele>215.33333333333331</ele><time>2026-05-02T07:39:07.484Z</time></trkpt><trkpt lat="43.4441847" lon="11.1006477"><ele>214.5</ele><time>2026-05-02T07:39:09.502Z</time></trkpt><trkpt lat="43.4441302" lon="11.100563"><ele>213.66666666666669</ele><time>2026-05-02T07:39:11.496Z</time></trkpt><trkpt lat="43.4440796" lon="11.1004789"><ele>212.83333333333334</ele><time>2026-05-02T07:39:13.498Z</time></trkpt><trkpt lat="43.4440362" lon="11.1003793"><ele>212.0</ele><time>2026-05-02T07:39:15.582Z</time></trkpt><trkpt lat="43.4439967" lon="11.1002732"><ele>212.00000000000003</ele><time>2026-05-02T07:39:17.488Z</time></trkpt><trkpt lat="43.4439475" lon="11.1001679"><ele>212.0</ele><time>2026-05-02T07:39:19.496Z</time></trkpt><trkpt lat="43.4438967" lon="11.1000722"><ele>212.0</ele><time>2026-05-02T07:39:21.474Z</time></trkpt><trkpt lat="43.4438504" lon="11.0999855"><ele>212.0</ele><time>2026-05-02T07:39:23.494Z</time></trkpt><trkpt lat="43.443807" lon="11.0998947"><ele>212.00000000000003</ele><time>2026-05-02T07:39:25.491Z</time></trkpt><trkpt lat="43.4437719" lon="11.0998094"><ele>212.0</ele><time>2026-05-02T07:39:27.485Z</time></trkpt><trkpt lat="43.4437178" lon="11.0996966"><ele>212.00000000000003</ele><time>2026-05-02T07:39:30.567Z</time></trkpt><trkpt lat="43.4437034" lon="11.0995876"><ele>212.0</ele><time>2026-05-02T07:39:32.493Z</time></trkpt><trkpt lat="43.4437713" lon="11.0995965"><ele>212.0</ele><time>2026-05-02T07:39:37.479Z</time></trkpt><trkpt lat="43.4438295" lon="11.0996826"><ele>212.0</ele><time>2026-05-02T07:39:39.504Z</time></trkpt><trkpt lat="43.4438892" lon="11.0997758"><ele>212.00000000000003</ele><time>2026-05-02T07:39:41.558Z</time></trkpt><trkpt lat="43.4439719" lon="11.0998484"><ele>212.0</ele><time>2026-05-02T07:39:43.499Z</time></trkpt><trkpt lat="43.4440501" lon="11.0999444"><ele>212.00000000000003</ele><time>2026-05-02T07:39:45.563Z</time></trkpt><trkpt lat="43.4441368" lon="11.1000444"><ele>212.0</ele><time>2026-05-02T07:39:47.5Z</time></trkpt><trkpt lat="43.4441878" lon="11.100112"><ele>212.0</ele><time>2026-05-02T07:39:48.5Z</time></trkpt><trkpt lat="43.4442458" lon="11.1001759"><ele>212.0</ele><time>2026-05-02T07:39:49.502Z</time></trkpt><trkpt lat="43.4443114" lon="11.1002352"><ele>212.00000000000003</ele><time>2026-05-02T07:39:50.57Z</time></trkpt><trkpt lat="43.4443678" lon="11.1002962"><ele>212.0</ele><time>2026-05-02T07:39:51.553Z</time></trkpt><trkpt lat="43.4444307" lon="11.1003562"><ele>212.0</ele><time>2026-05-02T07:39:52.471Z</time></trkpt><trkpt lat="43.4445109" lon="11.1003772"><ele>212.0</ele><time>2026-05-02T07:39:53.488Z</time></trkpt><trkpt lat="43.4445782" lon="11.1003985"><ele>212.0</ele><time>2026-05-02T07:39:54.486Z</time></trkpt><trkpt lat="43.4446513" lon="11.1004"><ele>212.0</ele><time>2026-05-02T07:39:55.486Z</time></trkpt><trkpt lat="43.4447196" lon="11.1003872"><ele>212.0</ele><time>2026-05-02T07:39:56.488Z</time></trkpt><trkpt lat="43.4447905" lon="11.1003549"><ele>212.0</ele><time>2026-05-02T07:39:57.467Z</time></trkpt><trkpt lat="43.4448582" lon="11.1003016"><ele>212.0</ele><time>2026-05-02T07:39:58.488Z</time></trkpt><trkpt lat="43.4449151" lon="11.1002394"><ele>211.16666666666669</ele><time>2026-05-02T07:39:59.489Z</time></trkpt><trkpt lat="43.444965" lon="11.1001598"><ele>210.33333333333334</ele><time>2026-05-02T07:40:00.498Z</time></trkpt><trkpt lat="43.4450035" lon="11.1000597"><ele>209.5</ele><time>2026-05-02T07:40:01.564Z</time></trkpt><trkpt lat="43.4450386" lon="11.0999733"><ele>208.66666666666669</ele><time>2026-05-02T07:40:02.489Z</time></trkpt><trkpt lat="43.4450793" lon="11.0998706"><ele>207.83333333333334</ele><time>2026-05-02T07:40:03.491Z</time></trkpt><trkpt lat="43.4450952" lon="11.0997596"><ele>207.0</ele><time>2026-05-02T07:40:04.493Z</time></trkpt><trkpt lat="43.445094" lon="11.099635"><ele>206.16666666666666</ele><time>2026-05-02T07:40:05.564Z</time></trkpt><trkpt lat="43.4450807" lon="11.0995397"><ele>205.33333333333331</ele><time>2026-05-02T07:40:06.561Z</time></trkpt><trkpt lat="43.4450555" lon="11.0994534"><ele>204.5</ele><time>2026-05-02T07:40:07.487Z</time></trkpt><trkpt lat="43.4450162" lon="11.0993695"><ele>203.66666666666666</ele><time>2026-05-02T07:40:08.487Z</time></trkpt><trkpt lat="43.4449603" lon="11.0992692"><ele>202.83333333333331</ele><time>2026-05-02T07:40:09.498Z</time></trkpt><trkpt lat="43.4449184" lon="11.0991611"><ele>202.0</ele><time>2026-05-02T07:40:10.56Z</time></trkpt><trkpt lat="43.444892" lon="11.099072"><ele>200.83333333333331</ele><time>2026-05-02T07:40:11.499Z</time></trkpt><trkpt lat="43.4448607" lon="11.0989788"><ele>199.66666666666666</ele><time>2026-05-02T07:40:12.5Z</time></trkpt><trkpt lat="43.4448182" lon="11.0988841"><ele>198.5</ele><time>2026-05-02T07:40:13.487Z</time></trkpt><trkpt lat="43.444779" lon="11.0987828"><ele>197.33333333333331</ele><time>2026-05-02T07:40:14.484Z</time></trkpt><trkpt lat="43.4447432" lon="11.0986755"><ele>196.16666666666666</ele><time>2026-05-02T07:40:15.487Z</time></trkpt><trkpt lat="43.4447069" lon="11.0985663"><ele>195.0</ele><time>2026-05-02T07:40:16.553Z</time></trkpt><trkpt lat="43.4446688" lon="11.0984569"><ele>195.0</ele><time>2026-05-02T07:40:17.492Z</time></trkpt><trkpt lat="43.4446311" lon="11.0983445"><ele>195.0</ele><time>2026-05-02T07:40:18.5Z</time></trkpt><trkpt lat="43.4445925" lon="11.0982265"><ele>195.0</ele><time>2026-05-02T07:40:19.486Z</time></trkpt><trkpt lat="43.4445539" lon="11.0981051"><ele>195.0</ele><time>2026-05-02T07:40:20.562Z</time></trkpt><trkpt lat="43.4445253" lon="11.0979893"><ele>195.0</ele><time>2026-05-02T07:40:21.481Z</time></trkpt><trkpt lat="43.4444911" lon="11.0978606"><ele>195.0</ele><time>2026-05-02T07:40:22.486Z</time></trkpt><trkpt lat="43.4444525" lon="11.0977332"><ele>195.0</ele><time>2026-05-02T07:40:23.49Z</time></trkpt><trkpt lat="43.444406" lon="11.0975953"><ele>195.0</ele><time>2026-05-02T07:40:24.559Z</time></trkpt><trkpt lat="43.4443622" lon="11.09747"><ele>195.0</ele><time>2026-05-02T07:40:25.485Z</time></trkpt><trkpt lat="43.444318" lon="11.0973288"><ele>195.0</ele><time>2026-05-02T07:40:26.496Z</time></trkpt><trkpt lat="43.4442887" lon="11.0971779"><ele>195.0</ele><time>2026-05-02T07:40:27.501Z</time></trkpt><trkpt lat="43.4443066" lon="11.0970196"><ele>195.0</ele><time>2026-05-02T07:40:28.487Z</time></trkpt><trkpt lat="43.4443588" lon="11.0968532"><ele>195.0</ele><time>2026-05-02T07:40:29.495Z</time></trkpt><trkpt lat="43.4444209" lon="11.0967218"><ele>195.0</ele><time>2026-05-02T07:40:30.483Z</time></trkpt><trkpt lat="43.4445024" lon="11.0966071"><ele>193.5</ele><time>2026-05-02T07:40:31.49Z</time></trkpt><trkpt lat="43.4446004" lon="11.0965133"><ele>192.0</ele><time>2026-05-02T07:40:32.501Z</time></trkpt><trkpt lat="43.4447039" lon="11.0964273"><ele>190.5</ele><time>2026-05-02T07:40:33.496Z</time></trkpt><trkpt lat="43.4448032" lon="11.0963413"><ele>189.0</ele><time>2026-05-02T07:40:34.496Z</time></trkpt><trkpt lat="43.4449031" lon="11.0962529"><ele>189.0</ele><time>2026-05-02T07:40:35.487Z</time></trkpt><trkpt lat="43.4450061" lon="11.0961663"><ele>189.0</ele><time>2026-05-02T07:40:36.485Z</time></trkpt><trkpt lat="43.4451089" lon="11.0960855"><ele>189.0</ele><time>2026-05-02T07:40:37.492Z</time></trkpt><trkpt lat="43.4452099" lon="11.0960064"><ele>189.0</ele><time>2026-05-02T07:40:38.495Z</time></trkpt><trkpt lat="43.4453143" lon="11.095922"><ele>189.0</ele><time>2026-05-02T07:40:39.558Z</time></trkpt><trkpt lat="43.4454141" lon="11.0958401"><ele>189.0</ele><time>2026-05-02T07:40:40.569Z</time></trkpt><trkpt lat="43.4455118" lon="11.0957597"><ele>189.0</ele><time>2026-05-02T07:40:41.55Z</time></trkpt><trkpt lat="43.4456011" lon="11.0956784"><ele>189.0</ele><time>2026-05-02T07:40:42.468Z</time></trkpt><trkpt lat="43.445692" lon="11.0955886"><ele>189.0</ele><time>2026-05-02T07:40:43.488Z</time></trkpt><trkpt lat="43.4457848" lon="11.0954952"><ele>187.6</ele><time>2026-05-02T07:40:44.493Z</time></trkpt><trkpt lat="43.4458779" lon="11.0954097"><ele>186.2</ele><time>2026-05-02T07:40:45.565Z</time></trkpt><trkpt lat="43.4459667" lon="11.0953309"><ele>184.79999999999998</ele><time>2026-05-02T07:40:46.569Z</time></trkpt><trkpt lat="43.4460578" lon="11.0952605"><ele>183.39999999999998</ele><time>2026-05-02T07:40:47.475Z</time></trkpt><trkpt lat="43.4461522" lon="11.095181"><ele>182.0</ele><time>2026-05-02T07:40:48.494Z</time></trkpt><trkpt lat="43.4462382" lon="11.0950791"><ele>180.39999999999998</ele><time>2026-05-02T07:40:49.486Z</time></trkpt><trkpt lat="43.4463142" lon="11.0949579"><ele>178.79999999999998</ele><time>2026-05-02T07:40:50.555Z</time></trkpt><trkpt lat="43.4463724" lon="11.0948362"><ele>177.2</ele><time>2026-05-02T07:40:51.579Z</time></trkpt><trkpt lat="43.4464185" lon="11.0947135"><ele>175.6</ele><time>2026-05-02T07:40:52.484Z</time></trkpt><trkpt lat="43.4464645" lon="11.0945714"><ele>174.0</ele><time>2026-05-02T07:40:53.502Z</time></trkpt><trkpt lat="43.4465065" lon="11.0944492"><ele>174.0</ele><time>2026-05-02T07:40:54.488Z</time></trkpt><trkpt lat="43.4465711" lon="11.0943503"><ele>174.0</ele><time>2026-05-02T07:40:55.568Z</time></trkpt><trkpt lat="43.4466401" lon="11.0942665"><ele>174.0</ele><time>2026-05-02T07:40:56.554Z</time></trkpt><trkpt lat="43.44672" lon="11.0942019"><ele>174.0</ele><time>2026-05-02T07:40:57.505Z</time></trkpt><trkpt lat="43.4468074" lon="11.0941512"><ele>174.0</ele><time>2026-05-02T07:40:58.503Z</time></trkpt><trkpt lat="43.4468914" lon="11.0941044"><ele>173.5</ele><time>2026-05-02T07:40:59.493Z</time></trkpt><trkpt lat="43.4469736" lon="11.0940598"><ele>173.0</ele><time>2026-05-02T07:41:00.476Z</time></trkpt><trkpt lat="43.4470513" lon="11.0940062"><ele>172.5</ele><time>2026-05-02T07:41:01.476Z</time></trkpt><trkpt lat="43.4471234" lon="11.0939313"><ele>172.0</ele><time>2026-05-02T07:41:02.493Z</time></trkpt><trkpt lat="43.4471889" lon="11.0938432"><ele>171.5</ele><time>2026-05-02T07:41:03.489Z</time></trkpt><trkpt lat="43.4472499" lon="11.0937565"><ele>171.0</ele><time>2026-05-02T07:41:04.49Z</time></trkpt><trkpt lat="43.4473067" lon="11.0936702"><ele>171.0</ele><time>2026-05-02T07:41:05.508Z</time></trkpt><trkpt lat="43.4473661" lon="11.0935844"><ele>171.0</ele><time>2026-05-02T07:41:06.493Z</time></trkpt><trkpt lat="43.4474343" lon="11.0935011"><ele>171.0</ele><time>2026-05-02T07:41:07.487Z</time></trkpt><trkpt lat="43.4475124" lon="11.0934285"><ele>171.0</ele><time>2026-05-02T07:41:08.489Z</time></trkpt><trkpt lat="43.4475972" lon="11.0933669"><ele>171.0</ele><time>2026-05-02T07:41:09.488Z</time></trkpt><trkpt lat="43.4476908" lon="11.0933261"><ele>171.0</ele><time>2026-05-02T07:41:10.557Z</time></trkpt><trkpt lat="43.4477748" lon="11.0933044"><ele>171.0</ele><time>2026-05-02T07:41:11.481Z</time></trkpt><trkpt lat="43.4478607" lon="11.0932905"><ele>171.0</ele><time>2026-05-02T07:41:12.491Z</time></trkpt><trkpt lat="43.4479463" lon="11.0932698"><ele>171.0</ele><time>2026-05-02T07:41:13.493Z</time></trkpt><trkpt lat="43.4480294" lon="11.0932516"><ele>171.0</ele><time>2026-05-02T07:41:14.497Z</time></trkpt><trkpt lat="43.4481149" lon="11.0932351"><ele>171.0</ele><time>2026-05-02T07:41:15.489Z</time></trkpt><trkpt lat="43.4482107" lon="11.0932087"><ele>171.4</ele><time>2026-05-02T07:41:16.573Z</time></trkpt><trkpt lat="43.4482985" lon="11.0931829"><ele>171.8</ele><time>2026-05-02T07:41:17.483Z</time></trkpt><trkpt lat="43.4483962" lon="11.093168"><ele>172.20000000000002</ele><time>2026-05-02T07:41:18.491Z</time></trkpt><trkpt lat="43.448491" lon="11.0931523"><ele>172.60000000000002</ele><time>2026-05-02T07:41:19.482Z</time></trkpt><trkpt lat="43.4485848" lon="11.0931359"><ele>173.0</ele><time>2026-05-02T07:41:20.489Z</time></trkpt><trkpt lat="43.4486773" lon="11.0931149"><ele>173.0</ele><time>2026-05-02T07:41:21.492Z</time></trkpt><trkpt lat="43.4487754" lon="11.0930855"><ele>173.0</ele><time>2026-05-02T07:41:22.494Z</time></trkpt><trkpt lat="43.4488728" lon="11.0930407"><ele>173.0</ele><time>2026-05-02T07:41:23.496Z</time></trkpt><trkpt lat="43.4489658" lon="11.0929832"><ele>173.0</ele><time>2026-05-02T07:41:24.558Z</time></trkpt><trkpt lat="43.4491702" lon="11.0927246"><ele>171.0</ele><time>2026-05-02T07:41:27.466Z</time></trkpt><trkpt lat="43.4492148" lon="11.0926151"><ele>169.0</ele><time>2026-05-02T07:41:28.495Z</time></trkpt><trkpt lat="43.4492584" lon="11.0924994"><ele>167.0</ele><time>2026-05-02T07:41:29.482Z</time></trkpt><trkpt lat="43.4492692" lon="11.092386"><ele>165.0</ele><time>2026-05-02T07:41:30.553Z</time></trkpt><trkpt lat="43.4492963" lon="11.0922488"><ele>163.0</ele><time>2026-05-02T07:41:31.563Z</time></trkpt><trkpt lat="43.4493301" lon="11.092127"><ele>163.0</ele><time>2026-05-02T07:41:32.469Z</time></trkpt><trkpt lat="43.4493661" lon="11.091994"><ele>163.0</ele><time>2026-05-02T07:41:33.482Z</time></trkpt><trkpt lat="43.4494078" lon="11.0918502"><ele>163.0</ele><time>2026-05-02T07:41:34.491Z</time></trkpt><trkpt lat="43.4494582" lon="11.0916962"><ele>163.0</ele><time>2026-05-02T07:41:35.488Z</time></trkpt><trkpt lat="43.4494894" lon="11.0915437"><ele>160.25</ele><time>2026-05-02T07:41:36.493Z</time></trkpt><trkpt lat="43.4494826" lon="11.0913905"><ele>157.5</ele><time>2026-05-02T07:41:37.486Z</time></trkpt><trkpt lat="43.449452" lon="11.0912419"><ele>154.75</ele><time>2026-05-02T07:41:38.5Z</time></trkpt><trkpt lat="43.4493947" lon="11.0911102"><ele>152.0</ele><time>2026-05-02T07:41:39.486Z</time></trkpt><trkpt lat="43.4493138" lon="11.0909941"><ele>152.0</ele><time>2026-05-02T07:41:40.486Z</time></trkpt><trkpt lat="43.44922" lon="11.0908989"><ele>152.0</ele><time>2026-05-02T07:41:41.491Z</time></trkpt><trkpt lat="43.4491246" lon="11.0908175"><ele>152.0</ele><time>2026-05-02T07:41:42.497Z</time></trkpt><trkpt lat="43.44903" lon="11.090744"><ele>152.0</ele><time>2026-05-02T07:41:43.494Z</time></trkpt><trkpt lat="43.4489406" lon="11.0906638"><ele>152.0</ele><time>2026-05-02T07:41:44.486Z</time></trkpt><trkpt lat="43.448858" lon="11.0905708"><ele>150.2</ele><time>2026-05-02T07:41:45.549Z</time></trkpt><trkpt lat="43.4487904" lon="11.0904677"><ele>148.39999999999998</ele><time>2026-05-02T07:41:46.573Z</time></trkpt><trkpt lat="43.4487389" lon="11.0903481"><ele>146.60000000000002</ele><time>2026-05-02T07:41:47.485Z</time></trkpt><trkpt lat="43.4486844" lon="11.0902263"><ele>144.8</ele><time>2026-05-02T07:41:48.503Z</time></trkpt><trkpt lat="43.4486188" lon="11.0901191"><ele>143.0</ele><time>2026-05-02T07:41:49.5Z</time></trkpt><trkpt lat="43.4485352" lon="11.09003"><ele>143.0</ele><time>2026-05-02T07:41:50.554Z</time></trkpt><trkpt lat="43.4484397" lon="11.0899683"><ele>143.0</ele><time>2026-05-02T07:41:51.553Z</time></trkpt><trkpt lat="43.4483352" lon="11.0899469"><ele>143.0</ele><time>2026-05-02T07:41:52.492Z</time></trkpt><trkpt lat="43.4482231" lon="11.0899552"><ele>143.0</ele><time>2026-05-02T07:41:53.482Z</time></trkpt><trkpt lat="43.4481144" lon="11.0899915"><ele>143.0</ele><time>2026-05-02T07:41:54.468Z</time></trkpt><trkpt lat="43.4480245" lon="11.0900533"><ele>141.8</ele><time>2026-05-02T07:41:55.562Z</time></trkpt><trkpt lat="43.4479547" lon="11.0901257"><ele>140.60000000000002</ele><time>2026-05-02T07:41:56.548Z</time></trkpt><trkpt lat="43.4478867" lon="11.0902105"><ele>139.39999999999998</ele><time>2026-05-02T07:41:57.467Z</time></trkpt><trkpt lat="43.4478069" lon="11.0903192"><ele>138.2</ele><time>2026-05-02T07:41:58.479Z</time></trkpt><trkpt lat="43.4477311" lon="11.0904473"><ele>137.0</ele><time>2026-05-02T07:41:59.479Z</time></trkpt><trkpt lat="43.447654" lon="11.0905301"><ele>137.0</ele><time>2026-05-02T07:42:00.481Z</time></trkpt><trkpt lat="43.4475543" lon="11.0905435"><ele>137.0</ele><time>2026-05-02T07:42:01.545Z</time></trkpt><trkpt lat="43.4474556" lon="11.0905195"><ele>137.0</ele><time>2026-05-02T07:42:02.461Z</time></trkpt><trkpt lat="43.447363" lon="11.0904669"><ele>137.0</ele><time>2026-05-02T07:42:03.48Z</time></trkpt><trkpt lat="43.4472803" lon="11.0903641"><ele>137.0</ele><time>2026-05-02T07:42:04.54Z</time></trkpt><trkpt lat="43.447232" lon="11.0902383"><ele>137.0</ele><time>2026-05-02T07:42:05.563Z</time></trkpt><trkpt lat="43.4472154" lon="11.0900972"><ele>137.0</ele><time>2026-05-02T07:42:06.556Z</time></trkpt><trkpt lat="43.4472283" lon="11.0899616"><ele>137.0</ele><time>2026-05-02T07:42:07.487Z</time></trkpt><trkpt lat="43.4472796" lon="11.0898284"><ele>137.0</ele><time>2026-05-02T07:42:08.482Z</time></trkpt><trkpt lat="43.4473592" lon="11.089718"><ele>137.0</ele><time>2026-05-02T07:42:09.493Z</time></trkpt><trkpt lat="43.4474607" lon="11.0896478"><ele>133.5</ele><time>2026-05-02T07:42:10.469Z</time></trkpt><trkpt lat="43.4475745" lon="11.0895994"><ele>130.0</ele><time>2026-05-02T07:42:11.477Z</time></trkpt><trkpt lat="43.4476863" lon="11.0895645"><ele>126.5</ele><time>2026-05-02T07:42:12.479Z</time></trkpt><trkpt lat="43.4478027" lon="11.0895348"><ele>123.0</ele><time>2026-05-02T07:42:13.483Z</time></trkpt><trkpt lat="43.4479172" lon="11.0895072"><ele>122.5</ele><time>2026-05-02T07:42:14.484Z</time></trkpt><trkpt lat="43.4480296" lon="11.0894822"><ele>122.0</ele><time>2026-05-02T07:42:15.477Z</time></trkpt><trkpt lat="43.4481421" lon="11.0894603"><ele>121.5</ele><time>2026-05-02T07:42:16.485Z</time></trkpt><trkpt lat="43.448259" lon="11.089441"><ele>121.0</ele><time>2026-05-02T07:42:17.469Z</time></trkpt><trkpt lat="43.4483804" lon="11.0894277"><ele>121.0</ele><time>2026-05-02T07:42:18.471Z</time></trkpt><trkpt lat="43.4485032" lon="11.0894214"><ele>121.0</ele><time>2026-05-02T07:42:19.474Z</time></trkpt><trkpt lat="43.4486254" lon="11.0894206"><ele>121.0</ele><time>2026-05-02T07:42:20.483Z</time></trkpt><trkpt lat="43.4487515" lon="11.0894206"><ele>121.0</ele><time>2026-05-02T07:42:21.54Z</time></trkpt><trkpt lat="43.4488715" lon="11.0894218"><ele>119.75</ele><time>2026-05-02T07:42:22.486Z</time></trkpt><trkpt lat="43.448994" lon="11.0894191"><ele>118.5</ele><time>2026-05-02T07:42:23.491Z</time></trkpt><trkpt lat="43.4491106" lon="11.0894134"><ele>117.25</ele><time>2026-05-02T07:42:24.468Z</time></trkpt><trkpt lat="43.4492295" lon="11.0894036"><ele>116.0</ele><time>2026-05-02T07:42:25.497Z</time></trkpt><trkpt lat="43.4493463" lon="11.0893887"><ele>116.0</ele><time>2026-05-02T07:42:26.487Z</time></trkpt><trkpt lat="43.449468" lon="11.0893656"><ele>116.0</ele><time>2026-05-02T07:42:27.481Z</time></trkpt><trkpt lat="43.4495875" lon="11.0893336"><ele>116.0</ele><time>2026-05-02T07:42:28.481Z</time></trkpt><trkpt lat="43.4497099" lon="11.0893003"><ele>116.0</ele><time>2026-05-02T07:42:29.48Z</time></trkpt><trkpt lat="43.449831" lon="11.0892617"><ele>115.25</ele><time>2026-05-02T07:42:30.487Z</time></trkpt><trkpt lat="43.4499524" lon="11.0892185"><ele>114.5</ele><time>2026-05-02T07:42:31.491Z</time></trkpt><trkpt lat="43.4500766" lon="11.0891705"><ele>113.75</ele><time>2026-05-02T07:42:32.492Z</time></trkpt><trkpt lat="43.4501993" lon="11.0891227"><ele>113.0</ele><time>2026-05-02T07:42:33.485Z</time></trkpt><trkpt lat="43.4503247" lon="11.0890792"><ele>111.5</ele><time>2026-05-02T07:42:34.483Z</time></trkpt><trkpt lat="43.450447" lon="11.089039"><ele>110.0</ele><time>2026-05-02T07:42:35.555Z</time></trkpt><trkpt lat="43.4505615" lon="11.0890008"><ele>108.5</ele><time>2026-05-02T07:42:36.561Z</time></trkpt><trkpt lat="43.450675" lon="11.088966"><ele>107.0</ele><time>2026-05-02T07:42:37.469Z</time></trkpt><trkpt lat="43.4507928" lon="11.0889307"><ele>107.0</ele><time>2026-05-02T07:42:38.492Z</time></trkpt><trkpt lat="43.4509015" lon="11.0888962"><ele>106.99999999999999</ele><time>2026-05-02T07:42:39.476Z</time></trkpt><trkpt lat="43.4510107" lon="11.0888613"><ele>106.99999999999999</ele><time>2026-05-02T07:42:40.561Z</time></trkpt><trkpt lat="43.4511114" lon="11.0888264"><ele>107.0</ele><time>2026-05-02T07:42:41.566Z</time></trkpt><trkpt lat="43.4512105" lon="11.0887914"><ele>107.0</ele><time>2026-05-02T07:42:42.472Z</time></trkpt><trkpt lat="43.4513106" lon="11.0887562"><ele>106.99999999999999</ele><time>2026-05-02T07:42:43.476Z</time></trkpt><trkpt lat="43.4514061" lon="11.0887217"><ele>107.0</ele><time>2026-05-02T07:42:44.494Z</time></trkpt><trkpt lat="43.4514912" lon="11.0886781"><ele>107.0</ele><time>2026-05-02T07:42:45.484Z</time></trkpt><trkpt lat="43.4515678" lon="11.0886259"><ele>107.0</ele><time>2026-05-02T07:42:46.483Z</time></trkpt><trkpt lat="43.4516369" lon="11.0885664"><ele>106.99999999999999</ele><time>2026-05-02T07:42:47.487Z</time></trkpt><trkpt lat="43.4516959" lon="11.0884987"><ele>107.0</ele><time>2026-05-02T07:42:48.495Z</time></trkpt><trkpt lat="43.4517505" lon="11.0884226"><ele>107.00000000000001</ele><time>2026-05-02T07:42:49.494Z</time></trkpt><trkpt lat="43.4518003" lon="11.0883424"><ele>107.0</ele><time>2026-05-02T07:42:50.495Z</time></trkpt><trkpt lat="43.4518444" lon="11.0882635"><ele>107.0</ele><time>2026-05-02T07:42:51.495Z</time></trkpt><trkpt lat="43.4518835" lon="11.0881857"><ele>107.0</ele><time>2026-05-02T07:42:52.492Z</time></trkpt><trkpt lat="43.4519189" lon="11.0881058"><ele>107.0</ele><time>2026-05-02T07:42:53.482Z</time></trkpt><trkpt lat="43.4519447" lon="11.0880229"><ele>107.00000000000001</ele><time>2026-05-02T07:42:54.494Z</time></trkpt><trkpt lat="43.4519656" lon="11.0879409"><ele>107.0</ele><time>2026-05-02T07:42:55.487Z</time></trkpt><trkpt lat="43.4519972" lon="11.0877799"><ele>107.0</ele><time>2026-05-02T07:42:57.488Z</time></trkpt><trkpt lat="43.4520223" lon="11.0876126"><ele>106.99999999999999</ele><time>2026-05-02T07:42:59.475Z</time></trkpt><trkpt lat="43.4520386" lon="11.0875272"><ele>106.99999999999999</ele><time>2026-05-02T07:43:00.499Z</time></trkpt><trkpt lat="43.4520532" lon="11.0874423"><ele>107.0</ele><time>2026-05-02T07:43:01.562Z</time></trkpt><trkpt lat="43.4520811" lon="11.0872858"><ele>107.0</ele><time>2026-05-02T07:43:03.487Z</time></trkpt><trkpt lat="43.4521199" lon="11.0871315"><ele>107.39999999999999</ele><time>2026-05-02T07:43:05.549Z</time></trkpt><trkpt lat="43.4521599" lon="11.0869973"><ele>107.79999999999998</ele><time>2026-05-02T07:43:07.488Z</time></trkpt><trkpt lat="43.4521972" lon="11.0868522"><ele>108.2</ele><time>2026-05-02T07:43:09.487Z</time></trkpt><trkpt lat="43.4522226" lon="11.086715"><ele>108.6</ele><time>2026-05-02T07:43:11.564Z</time></trkpt><trkpt lat="43.4522521" lon="11.0865879"><ele>109.0</ele><time>2026-05-02T07:43:13.491Z</time></trkpt><trkpt lat="43.4522691" lon="11.0864612"><ele>109.33333333333334</ele><time>2026-05-02T07:43:15.565Z</time></trkpt><trkpt lat="43.4523056" lon="11.0863342"><ele>109.66666666666667</ele><time>2026-05-02T07:43:17.486Z</time></trkpt><trkpt lat="43.4523332" lon="11.0862172"><ele>110.0</ele><time>2026-05-02T07:43:19.494Z</time></trkpt><trkpt lat="43.4523576" lon="11.0861245"><ele>110.33333333333334</ele><time>2026-05-02T07:43:21.472Z</time></trkpt><trkpt lat="43.452377" lon="11.0860034"><ele>110.66666666666667</ele><time>2026-05-02T07:43:23.473Z</time></trkpt><trkpt lat="43.4524041" lon="11.0858774"><ele>111.0</ele><time>2026-05-02T07:43:25.48Z</time></trkpt><trkpt lat="43.452431" lon="11.0857542"><ele>111.33333333333333</ele><time>2026-05-02T07:43:27.497Z</time></trkpt><trkpt lat="43.4524513" lon="11.0856381"><ele>111.66666666666666</ele><time>2026-05-02T07:43:29.489Z</time></trkpt><trkpt lat="43.4524744" lon="11.0855227"><ele>112.0</ele><time>2026-05-02T07:43:31.484Z</time></trkpt><trkpt lat="43.4524981" lon="11.0854124"><ele>112.33333333333333</ele><time>2026-05-02T07:43:33.485Z</time></trkpt><trkpt lat="43.452517" lon="11.0852991"><ele>112.66666666666666</ele><time>2026-05-02T07:43:35.489Z</time></trkpt><trkpt lat="43.4525348" lon="11.0851844"><ele>113.0</ele><time>2026-05-02T07:43:37.487Z</time></trkpt><trkpt lat="43.4525614" lon="11.0850577"><ele>112.99999999999999</ele><time>2026-05-02T07:43:39.579Z</time></trkpt><trkpt lat="43.4525783" lon="11.0849452"><ele>113.0</ele><time>2026-05-02T07:43:41.5Z</time></trkpt><trkpt lat="43.4526051" lon="11.0848281"><ele>113.0</ele><time>2026-05-02T07:43:43.49Z</time></trkpt><trkpt lat="43.4526265" lon="11.0847195"><ele>113.0</ele><time>2026-05-02T07:43:45.572Z</time></trkpt><trkpt lat="43.4526393" lon="11.0846128"><ele>112.99999999999999</ele><time>2026-05-02T07:43:47.489Z</time></trkpt><trkpt lat="43.4526487" lon="11.084511"><ele>113.0</ele><time>2026-05-02T07:43:49.506Z</time></trkpt><trkpt lat="43.4526693" lon="11.0844079"><ele>113.14285714285714</ele><time>2026-05-02T07:43:51.53Z</time></trkpt><trkpt lat="43.4526927" lon="11.0843103"><ele>113.28571428571428</ele><time>2026-05-02T07:43:53.486Z</time></trkpt><trkpt lat="43.452705" lon="11.0842172"><ele>113.42857142857142</ele><time>2026-05-02T07:43:55.571Z</time></trkpt><trkpt lat="43.452757" lon="11.0841218"><ele>113.57142857142857</ele><time>2026-05-02T07:43:57.496Z</time></trkpt><trkpt lat="43.4528029" lon="11.0840289"><ele>113.7142857142857</ele><time>2026-05-02T07:44:00.499Z</time></trkpt><trkpt lat="43.4528591" lon="11.0839787"><ele>113.85714285714285</ele><time>2026-05-02T07:44:05.489Z</time></trkpt><trkpt lat="43.4529014" lon="11.0839075"><ele>114.0</ele><time>2026-05-02T07:44:08.5Z</time></trkpt><trkpt lat="43.4529761" lon="11.08384"><ele>116.2</ele><time>2026-05-02T07:44:11.559Z</time></trkpt><trkpt lat="43.4530043" lon="11.0836735"><ele>118.4</ele><time>2026-05-02T07:44:14.467Z</time></trkpt><trkpt lat="43.4530382" lon="11.0835695"><ele>120.6</ele><time>2026-05-02T07:44:16.545Z</time></trkpt><trkpt lat="43.4530174" lon="11.0834465"><ele>122.8</ele><time>2026-05-02T07:44:18.479Z</time></trkpt><trkpt lat="43.4529912" lon="11.0833219"><ele>125.0</ele><time>2026-05-02T07:44:20.563Z</time></trkpt><trkpt lat="43.4529784" lon="11.0831914"><ele>124.99999999999999</ele><time>2026-05-02T07:44:22.492Z</time></trkpt><trkpt lat="43.4529677" lon="11.083099"><ele>125.0</ele><time>2026-05-02T07:44:24.486Z</time></trkpt><trkpt lat="43.4529772" lon="11.0830075"><ele>125.0</ele><time>2026-05-02T07:44:26.565Z</time></trkpt><trkpt lat="43.453003" lon="11.0828841"><ele>125.0</ele><time>2026-05-02T07:44:28.489Z</time></trkpt><trkpt lat="43.453005" lon="11.082759"><ele>124.99999999999999</ele><time>2026-05-02T07:44:30.569Z</time></trkpt><trkpt lat="43.4530012" lon="11.0826383"><ele>125.0</ele><time>2026-05-02T07:44:32.468Z</time></trkpt><trkpt lat="43.453011" lon="11.0825052"><ele>124.4</ele><time>2026-05-02T07:44:34.491Z</time></trkpt><trkpt lat="43.4530285" lon="11.0823705"><ele>123.8</ele><time>2026-05-02T07:44:36.481Z</time></trkpt><trkpt lat="43.453043" lon="11.0822421"><ele>123.19999999999999</ele><time>2026-05-02T07:44:38.506Z</time></trkpt><trkpt lat="43.4530577" lon="11.0821086"><ele>122.6</ele><time>2026-05-02T07:44:40.494Z</time></trkpt><trkpt lat="43.4530844" lon="11.0819847"><ele>122.0</ele><time>2026-05-02T07:44:42.491Z</time></trkpt><trkpt lat="43.4531103" lon="11.0819016"><ele>122.0</ele><time>2026-05-02T07:44:44.483Z</time></trkpt><trkpt lat="43.4531397" lon="11.0816784"><ele>121.99999999999999</ele><time>2026-05-02T07:44:50.557Z</time></trkpt><trkpt lat="43.4531739" lon="11.0815561"><ele>121.99999999999999</ele><time>2026-05-02T07:44:57.546Z</time></trkpt><trkpt lat="43.4531572" lon="11.0816562"><ele>122.0</ele><time>2026-05-02T07:45:16.486Z</time></trkpt><trkpt lat="43.4531245" lon="11.0817477"><ele>122.0</ele><time>2026-05-02T07:45:21.483Z</time></trkpt><trkpt lat="43.4530786" lon="11.0818093"><ele>122.0</ele><time>2026-05-02T07:45:31.491Z</time></trkpt><trkpt lat="43.453032" lon="11.0818889"><ele>121.99999999999999</ele><time>2026-05-02T07:45:35.481Z</time></trkpt><trkpt lat="43.4530061" lon="11.0819707"><ele>121.99999999999999</ele><time>2026-05-02T07:45:37.485Z</time></trkpt><trkpt lat="43.4529905" lon="11.0820729"><ele>122.0</ele><time>2026-05-02T07:45:39.502Z</time></trkpt><trkpt lat="43.4529423" lon="11.0822807"><ele>122.0</ele><time>2026-05-02T07:45:44.486Z</time></trkpt><trkpt lat="43.452877" lon="11.0823578"><ele>120.99999999999999</ele><time>2026-05-02T07:45:46.489Z</time></trkpt><trkpt lat="43.4528092" lon="11.0823845"><ele>120.0</ele><time>2026-05-02T07:45:48.49Z</time></trkpt><trkpt lat="43.4527278" lon="11.0824126"><ele>119.0</ele><time>2026-05-02T07:45:50.486Z</time></trkpt><trkpt lat="43.4526311" lon="11.0824633"><ele>118.0</ele><time>2026-05-02T07:45:52.486Z</time></trkpt><trkpt lat="43.4525175" lon="11.0825246"><ele>116.99999999999999</ele><time>2026-05-02T07:45:54.489Z</time></trkpt><trkpt lat="43.452457" lon="11.0825532"><ele>116.0</ele><time>2026-05-02T07:45:55.547Z</time></trkpt><trkpt lat="43.4523491" lon="11.0826203"><ele>115.6</ele><time>2026-05-02T07:45:57.483Z</time></trkpt><trkpt lat="43.4522531" lon="11.0826804"><ele>115.19999999999999</ele><time>2026-05-02T07:45:59.486Z</time></trkpt><trkpt lat="43.4521356" lon="11.0827277"><ele>114.80000000000001</ele><time>2026-05-02T07:46:01.484Z</time></trkpt><trkpt lat="43.4520763" lon="11.0827617"><ele>114.4</ele><time>2026-05-02T07:46:02.491Z</time></trkpt><trkpt lat="43.4519649" lon="11.0828068"><ele>114.0</ele><time>2026-05-02T07:46:04.485Z</time></trkpt><trkpt lat="43.4518546" lon="11.0828333"><ele>113.75</ele><time>2026-05-02T07:46:06.541Z</time></trkpt><trkpt lat="43.4517494" lon="11.0828593"><ele>113.5</ele><time>2026-05-02T07:46:08.483Z</time></trkpt><trkpt lat="43.4516511" lon="11.0829151"><ele>113.25</ele><time>2026-05-02T07:46:10.547Z</time></trkpt><trkpt lat="43.4514634" lon="11.0829757"><ele>113.0</ele><time>2026-05-02T07:46:14.472Z</time></trkpt><trkpt lat="43.4513803" lon="11.0830147"><ele>114.2</ele><time>2026-05-02T07:46:16.471Z</time></trkpt><trkpt lat="43.4512614" lon="11.0830229"><ele>115.4</ele><time>2026-05-02T07:46:18.472Z</time></trkpt><trkpt lat="43.4511616" lon="11.0830175"><ele>116.60000000000001</ele><time>2026-05-02T07:46:20.469Z</time></trkpt><trkpt lat="43.4510671" lon="11.0830176"><ele>117.80000000000001</ele><time>2026-05-02T07:46:22.47Z</time></trkpt><trkpt lat="43.4509825" lon="11.083023"><ele>119.0</ele><time>2026-05-02T07:46:24.47Z</time></trkpt><trkpt lat="43.4509095" lon="11.0830239"><ele>118.99999999999999</ele><time>2026-05-02T07:46:26.545Z</time></trkpt><trkpt lat="43.4508433" lon="11.0830348"><ele>119.0</ele><time>2026-05-02T07:46:27.474Z</time></trkpt><trkpt lat="43.4508148" lon="11.0829075"><ele>119.0</ele><time>2026-05-02T07:46:31.563Z</time></trkpt><trkpt lat="43.4507128" lon="11.0829535"><ele>119.0</ele><time>2026-05-02T07:46:32.463Z</time></trkpt><trkpt lat="43.4506288" lon="11.0830179"><ele>118.99999999999999</ele><time>2026-05-02T07:46:33.492Z</time></trkpt><trkpt lat="43.4505575" lon="11.0830108"><ele>119.0</ele><time>2026-05-02T07:46:37.492Z</time></trkpt><trkpt lat="43.4505594" lon="11.0831"><ele>119.0</ele><time>2026-05-02T07:47:57.49Z</time></trkpt><trkpt lat="43.4504845" lon="11.0831072"><ele>119.0</ele><time>2026-05-02T07:48:29.486Z</time></trkpt><trkpt lat="43.4504261" lon="11.0830714"><ele>119.0</ele><time>2026-05-02T07:48:35.555Z</time></trkpt><trkpt lat="43.4503645" lon="11.0830482"><ele>119.0</ele><time>2026-05-02T07:48:40.478Z</time></trkpt><trkpt lat="43.4502973" lon="11.0830393"><ele>119.0</ele><time>2026-05-02T07:48:43.482Z</time></trkpt><trkpt lat="43.4502223" lon="11.0830294"><ele>119.0</ele><time>2026-05-02T07:48:46.469Z</time></trkpt><trkpt lat="43.4501443" lon="11.0830407"><ele>119.0</ele><time>2026-05-02T07:48:49.551Z</time></trkpt><trkpt lat="43.4500655" lon="11.0830468"><ele>118.57142857142857</ele><time>2026-05-02T07:48:51.555Z</time></trkpt><trkpt lat="43.4499893" lon="11.0830446"><ele>118.14285714285714</ele><time>2026-05-02T07:48:54.463Z</time></trkpt><trkpt lat="43.4499078" lon="11.0830405"><ele>117.71428571428572</ele><time>2026-05-02T07:48:57.472Z</time></trkpt><trkpt lat="43.4498421" lon="11.0830343"><ele>117.28571428571429</ele><time>2026-05-02T07:48:59.484Z</time></trkpt><trkpt lat="43.4497785" lon="11.0830309"><ele>116.85714285714286</ele><time>2026-05-02T07:49:01.549Z</time></trkpt><trkpt lat="43.449714" lon="11.0830097"><ele>116.42857142857144</ele><time>2026-05-02T07:49:03.488Z</time></trkpt><trkpt lat="43.4496315" lon="11.0830181"><ele>116.00000000000001</ele><time>2026-05-02T07:49:05.478Z</time></trkpt><trkpt lat="43.4495206" lon="11.0830261"><ele>115.4</ele><time>2026-05-02T07:49:07.472Z</time></trkpt><trkpt lat="43.449423" lon="11.0830402"><ele>114.8</ele><time>2026-05-02T07:49:09.479Z</time></trkpt><trkpt lat="43.4493446" lon="11.083026"><ele>114.20000000000002</ele><time>2026-05-02T07:49:11.569Z</time></trkpt><trkpt lat="43.4492538" lon="11.083009"><ele>113.60000000000001</ele><time>2026-05-02T07:49:13.491Z</time></trkpt><trkpt lat="43.4491541" lon="11.0830034"><ele>113.0</ele><time>2026-05-02T07:49:15.483Z</time></trkpt><trkpt lat="43.4490402" lon="11.0830139"><ele>112.99999999999999</ele><time>2026-05-02T07:49:17.503Z</time></trkpt><trkpt lat="43.4489282" lon="11.0830912"><ele>113.0</ele><time>2026-05-02T07:49:19.485Z</time></trkpt><trkpt lat="43.4488745" lon="11.0831492"><ele>113.0</ele><time>2026-05-02T07:49:20.496Z</time></trkpt><trkpt lat="43.4488265" lon="11.0832107"><ele>113.0</ele><time>2026-05-02T07:49:21.469Z</time></trkpt><trkpt lat="43.4487804" lon="11.0832713"><ele>112.99999999999999</ele><time>2026-05-02T07:49:22.499Z</time></trkpt><trkpt lat="43.4486936" lon="11.0833917"><ele>113.0</ele><time>2026-05-02T07:49:24.494Z</time></trkpt><trkpt lat="43.4486092" lon="11.0835082"><ele>112.60000000000001</ele><time>2026-05-02T07:49:26.568Z</time></trkpt><trkpt lat="43.4485122" lon="11.0836193"><ele>112.20000000000002</ele><time>2026-05-02T07:49:28.49Z</time></trkpt><trkpt lat="43.4484444" lon="11.0837111"><ele>111.8</ele><time>2026-05-02T07:49:30.5Z</time></trkpt><trkpt lat="43.448387" lon="11.0838164"><ele>111.4</ele><time>2026-05-02T07:49:32.477Z</time></trkpt><trkpt lat="43.4483178" lon="11.0839242"><ele>111.0</ele><time>2026-05-02T07:49:34.481Z</time></trkpt><trkpt lat="43.4482327" lon="11.0840313"><ele>110.83333333333333</ele><time>2026-05-02T07:49:36.485Z</time></trkpt><trkpt lat="43.4481803" lon="11.0841058"><ele>110.66666666666666</ele><time>2026-05-02T07:49:38.485Z</time></trkpt><trkpt lat="43.4481043" lon="11.0841898"><ele>110.5</ele><time>2026-05-02T07:49:40.49Z</time></trkpt><trkpt lat="43.4480342" lon="11.0842735"><ele>110.33333333333333</ele><time>2026-05-02T07:49:42.474Z</time></trkpt><trkpt lat="43.4479674" lon="11.0843413"><ele>110.16666666666666</ele><time>2026-05-02T07:49:44.489Z</time></trkpt><trkpt lat="43.4478971" lon="11.0843983"><ele>110.0</ele><time>2026-05-02T07:49:46.481Z</time></trkpt><trkpt lat="43.4478248" lon="11.0844247"><ele>109.85714285714285</ele><time>2026-05-02T07:49:48.493Z</time></trkpt><trkpt lat="43.4477541" lon="11.084453"><ele>109.71428571428571</ele><time>2026-05-02T07:49:50.466Z</time></trkpt><trkpt lat="43.4476869" lon="11.0844747"><ele>109.57142857142857</ele><time>2026-05-02T07:49:52.488Z</time></trkpt><trkpt lat="43.4476205" lon="11.0844985"><ele>109.42857142857142</ele><time>2026-05-02T07:49:54.465Z</time></trkpt><trkpt lat="43.4475523" lon="11.0845355"><ele>109.28571428571429</ele><time>2026-05-02T07:49:56.51Z</time></trkpt><trkpt lat="43.4474911" lon="11.0845649"><ele>109.14285714285714</ele><time>2026-05-02T07:49:58.49Z</time></trkpt><trkpt lat="43.4474205" lon="11.0845902"><ele>109.0</ele><time>2026-05-02T07:50:00.503Z</time></trkpt><trkpt lat="43.4473512" lon="11.0846084"><ele>109.00000000000001</ele><time>2026-05-02T07:50:02.478Z</time></trkpt><trkpt lat="43.4472749" lon="11.0846144"><ele>109.0</ele><time>2026-05-02T07:50:04.492Z</time></trkpt><trkpt lat="43.4471905" lon="11.0846066"><ele>109.0</ele><time>2026-05-02T07:50:06.487Z</time></trkpt><trkpt lat="43.4471227" lon="11.0845946"><ele>109.0</ele><time>2026-05-02T07:50:08.49Z</time></trkpt><trkpt lat="43.447041" lon="11.084626"><ele>109.00000000000001</ele><time>2026-05-02T07:50:11.481Z</time></trkpt><trkpt lat="43.4469636" lon="11.0846772"><ele>109.0</ele><time>2026-05-02T07:50:14.491Z</time></trkpt><trkpt lat="43.4468845" lon="11.0847161"><ele>110.71428571428572</ele><time>2026-05-02T07:50:17.472Z</time></trkpt><trkpt lat="43.4468164" lon="11.0847351"><ele>112.42857142857143</ele><time>2026-05-02T07:50:20.557Z</time></trkpt><trkpt lat="43.4467376" lon="11.0847597"><ele>114.14285714285714</ele><time>2026-05-02T07:50:22.492Z</time></trkpt><trkpt lat="43.4466738" lon="11.0847733"><ele>115.85714285714286</ele><time>2026-05-02T07:50:25.481Z</time></trkpt><trkpt lat="43.4465988" lon="11.0847954"><ele>117.57142857142856</ele><time>2026-05-02T07:50:29.476Z</time></trkpt><trkpt lat="43.4465147" lon="11.0848258"><ele>119.28571428571428</ele><time>2026-05-02T07:50:32.483Z</time></trkpt><trkpt lat="43.4464519" lon="11.0848393"><ele>121.0</ele><time>2026-05-02T07:50:34.482Z</time></trkpt><trkpt lat="43.446387" lon="11.0848449"><ele>122.00000000000001</ele><time>2026-05-02T07:50:36.487Z</time></trkpt><trkpt lat="43.4462934" lon="11.0848401"><ele>123.0</ele><time>2026-05-02T07:50:39.546Z</time></trkpt><trkpt lat="43.4462176" lon="11.0848273"><ele>124.0</ele><time>2026-05-02T07:50:41.553Z</time></trkpt><trkpt lat="43.4461416" lon="11.0848183"><ele>125.0</ele><time>2026-05-02T07:50:43.486Z</time></trkpt><trkpt lat="43.4460552" lon="11.0847875"><ele>126.00000000000001</ele><time>2026-05-02T07:50:45.561Z</time></trkpt><trkpt lat="43.4459792" lon="11.0847373"><ele>127.0</ele><time>2026-05-02T07:50:47.477Z</time></trkpt><trkpt lat="43.4458802" lon="11.0847375"><ele>127.00000000000001</ele><time>2026-05-02T07:50:49.475Z</time></trkpt><trkpt lat="43.4457719" lon="11.0847228"><ele>127.0</ele><time>2026-05-02T07:50:51.547Z</time></trkpt><trkpt lat="43.4456775" lon="11.0847246"><ele>127.0</ele><time>2026-05-02T07:50:53.469Z</time></trkpt><trkpt lat="43.4455987" lon="11.0847236"><ele>127.0</ele><time>2026-05-02T07:50:55.548Z</time></trkpt><trkpt lat="43.4455347" lon="11.0846969"><ele>127.00000000000001</ele><time>2026-05-02T07:50:57.485Z</time></trkpt><trkpt lat="43.4454675" lon="11.084683"><ele>127.0</ele><time>2026-05-02T07:51:00.472Z</time></trkpt><trkpt lat="43.4453767" lon="11.0847118"><ele>128.16666666666669</ele><time>2026-05-02T07:51:03.483Z</time></trkpt><trkpt lat="43.4453028" lon="11.0847389"><ele>129.33333333333334</ele><time>2026-05-02T07:51:05.462Z</time></trkpt><trkpt lat="43.4452274" lon="11.0847664"><ele>130.5</ele><time>2026-05-02T07:51:07.481Z</time></trkpt><trkpt lat="43.4451562" lon="11.0848001"><ele>131.66666666666666</ele><time>2026-05-02T07:51:09.486Z</time></trkpt><trkpt lat="43.445071" lon="11.0848378"><ele>132.83333333333331</ele><time>2026-05-02T07:51:12.491Z</time></trkpt><trkpt lat="43.4449984" lon="11.0848664"><ele>134.0</ele><time>2026-05-02T07:51:14.489Z</time></trkpt><trkpt lat="43.4449278" lon="11.0848961"><ele>132.33333333333331</ele><time>2026-05-02T07:51:16.47Z</time></trkpt><trkpt lat="43.4448456" lon="11.0849409"><ele>130.66666666666666</ele><time>2026-05-02T07:51:19.492Z</time></trkpt><trkpt lat="43.4447728" lon="11.0849771"><ele>129.0</ele><time>2026-05-02T07:51:21.484Z</time></trkpt><trkpt lat="43.444703" lon="11.0850187"><ele>127.33333333333334</ele><time>2026-05-02T07:51:23.483Z</time></trkpt><trkpt lat="43.4446322" lon="11.08507"><ele>125.66666666666667</ele><time>2026-05-02T07:51:25.484Z</time></trkpt><trkpt lat="43.4445587" lon="11.0851219"><ele>124.0</ele><time>2026-05-02T07:51:27.495Z</time></trkpt><trkpt lat="43.4444842" lon="11.0851813"><ele>124.0</ele><time>2026-05-02T07:51:29.494Z</time></trkpt><trkpt lat="43.4444052" lon="11.0852637"><ele>124.0</ele><time>2026-05-02T07:51:31.501Z</time></trkpt><trkpt lat="43.4443324" lon="11.0853301"><ele>124.0</ele><time>2026-05-02T07:51:33.486Z</time></trkpt><trkpt lat="43.4442548" lon="11.0853981"><ele>124.0</ele><time>2026-05-02T07:51:35.49Z</time></trkpt><trkpt lat="43.4441741" lon="11.0854681"><ele>124.0</ele><time>2026-05-02T07:51:37.488Z</time></trkpt><trkpt lat="43.4440883" lon="11.0855448"><ele>124.00000000000001</ele><time>2026-05-02T07:51:39.494Z</time></trkpt><trkpt lat="43.4440164" lon="11.0856147"><ele>124.0</ele><time>2026-05-02T07:51:41.464Z</time></trkpt><trkpt lat="43.4439503" lon="11.0856863"><ele>124.0</ele><time>2026-05-02T07:51:43.484Z</time></trkpt><trkpt lat="43.4438847" lon="11.0857512"><ele>124.0</ele><time>2026-05-02T07:51:45.487Z</time></trkpt><trkpt lat="43.4438244" lon="11.0858081"><ele>124.00000000000001</ele><time>2026-05-02T07:51:47.486Z</time></trkpt><trkpt lat="43.4437659" lon="11.0858666"><ele>124.0</ele><time>2026-05-02T07:51:49.484Z</time></trkpt><trkpt lat="43.4437151" lon="11.0859198"><ele>122.66666666666667</ele><time>2026-05-02T07:51:51.479Z</time></trkpt><trkpt lat="43.443638" lon="11.0859692"><ele>121.33333333333334</ele><time>2026-05-02T07:51:54.482Z</time></trkpt><trkpt lat="43.4435508" lon="11.0860082"><ele>120.0</ele><time>2026-05-02T07:51:57.487Z</time></trkpt><trkpt lat="43.4434825" lon="11.0860192"><ele>118.66666666666666</ele><time>2026-05-02T07:51:59.484Z</time></trkpt><trkpt lat="43.4433958" lon="11.086018"><ele>117.33333333333333</ele><time>2026-05-02T07:52:02.489Z</time></trkpt><trkpt lat="43.4433324" lon="11.0860078"><ele>116.0</ele><time>2026-05-02T07:52:04.487Z</time></trkpt><trkpt lat="43.4432551" lon="11.0859944"><ele>115.99999999999999</ele><time>2026-05-02T07:52:07.488Z</time></trkpt><trkpt lat="43.443182" lon="11.0859666"><ele>116.0</ele><time>2026-05-02T07:52:10.496Z</time></trkpt><trkpt lat="43.4431138" lon="11.0859227"><ele>116.0</ele><time>2026-05-02T07:52:13.505Z</time></trkpt><trkpt lat="43.4430429" lon="11.0858573"><ele>116.0</ele><time>2026-05-02T07:52:16.483Z</time></trkpt><trkpt lat="43.4429666" lon="11.0857878"><ele>115.99999999999999</ele><time>2026-05-02T07:52:19.484Z</time></trkpt><trkpt lat="43.4428931" lon="11.0857124"><ele>116.0</ele><time>2026-05-02T07:52:22.483Z</time></trkpt><trkpt lat="43.4428247" lon="11.085642"><ele>116.71428571428572</ele><time>2026-05-02T07:52:25.501Z</time></trkpt><trkpt lat="43.4427697" lon="11.0855971"><ele>117.42857142857143</ele><time>2026-05-02T07:52:27.488Z</time></trkpt><trkpt lat="43.4427201" lon="11.0855415"><ele>118.14285714285714</ele><time>2026-05-02T07:52:29.483Z</time></trkpt><trkpt lat="43.4426645" lon="11.0854925"><ele>118.85714285714286</ele><time>2026-05-02T07:52:31.498Z</time></trkpt><trkpt lat="43.4426137" lon="11.08544"><ele>119.57142857142856</ele><time>2026-05-02T07:52:33.491Z</time></trkpt><trkpt lat="43.4425614" lon="11.085383"><ele>120.28571428571428</ele><time>2026-05-02T07:52:35.498Z</time></trkpt><trkpt lat="43.4424848" lon="11.085312"><ele>121.0</ele><time>2026-05-02T07:52:38.494Z</time></trkpt><trkpt lat="43.4424301" lon="11.0852584"><ele>121.0</ele><time>2026-05-02T07:52:40.494Z</time></trkpt><trkpt lat="43.4423535" lon="11.0851821"><ele>120.99999999999999</ele><time>2026-05-02T07:52:43.494Z</time></trkpt><trkpt lat="43.442299" lon="11.085132"><ele>121.0</ele><time>2026-05-02T07:52:45.485Z</time></trkpt><trkpt lat="43.4422457" lon="11.0850728"><ele>121.0</ele><time>2026-05-02T07:52:47.484Z</time></trkpt><trkpt lat="43.4421921" lon="11.0850145"><ele>120.99999999999999</ele><time>2026-05-02T07:52:49.496Z</time></trkpt><trkpt lat="43.4421346" lon="11.0849622"><ele>121.0</ele><time>2026-05-02T07:52:51.491Z</time></trkpt><trkpt lat="43.442079" lon="11.0849076"><ele>121.0</ele><time>2026-05-02T07:52:53.488Z</time></trkpt><trkpt lat="43.4420169" lon="11.0848582"><ele>121.8</ele><time>2026-05-02T07:52:55.48Z</time></trkpt><trkpt lat="43.4419377" lon="11.0847826"><ele>122.6</ele><time>2026-05-02T07:52:57.49Z</time></trkpt><trkpt lat="43.4418387" lon="11.0846958"><ele>123.4</ele><time>2026-05-02T07:52:59.495Z</time></trkpt><trkpt lat="43.4417353" lon="11.0845976"><ele>124.2</ele><time>2026-05-02T07:53:01.487Z</time></trkpt><trkpt lat="43.4416849" lon="11.0845433"><ele>125.0</ele><time>2026-05-02T07:53:02.485Z</time></trkpt><trkpt lat="43.4415966" lon="11.0844293"><ele>125.0</ele><time>2026-05-02T07:53:04.464Z</time></trkpt><trkpt lat="43.4415229" lon="11.0843316"><ele>125.0</ele><time>2026-05-02T07:53:06.489Z</time></trkpt><trkpt lat="43.4414561" lon="11.0842343"><ele>125.0</ele><time>2026-05-02T07:53:08.495Z</time></trkpt><trkpt lat="43.4413897" lon="11.0841365"><ele>125.0</ele><time>2026-05-02T07:53:10.572Z</time></trkpt><trkpt lat="43.4413311" lon="11.0840509"><ele>125.0</ele><time>2026-05-02T07:53:12.477Z</time></trkpt><trkpt lat="43.4412708" lon="11.0839467"><ele>125.33333333333333</ele><time>2026-05-02T07:53:15.494Z</time></trkpt><trkpt lat="43.4412091" lon="11.0838598"><ele>125.66666666666666</ele><time>2026-05-02T07:53:17.495Z</time></trkpt><trkpt lat="43.441153" lon="11.0837638"><ele>126.0</ele><time>2026-05-02T07:53:19.495Z</time></trkpt><trkpt lat="43.4410961" lon="11.0836858"><ele>126.33333333333334</ele><time>2026-05-02T07:53:21.486Z</time></trkpt><trkpt lat="43.4410323" lon="11.0836245"><ele>126.66666666666667</ele><time>2026-05-02T07:53:23.489Z</time></trkpt><trkpt lat="43.4409695" lon="11.0835797"><ele>127.0</ele><time>2026-05-02T07:53:25.485Z</time></trkpt><trkpt lat="43.440905" lon="11.083514"><ele>127.00000000000001</ele><time>2026-05-02T07:53:27.463Z</time></trkpt><trkpt lat="43.4408588" lon="11.0834518"><ele>127.0</ele><time>2026-05-02T07:53:29.481Z</time></trkpt><trkpt lat="43.440788" lon="11.083431"><ele>127.0</ele><time>2026-05-02T07:53:31.546Z</time></trkpt><trkpt lat="43.4407105" lon="11.0834253"><ele>127.0</ele><time>2026-05-02T07:53:33.488Z</time></trkpt><trkpt lat="43.4406277" lon="11.0834264"><ele>127.00000000000001</ele><time>2026-05-02T07:53:35.549Z</time></trkpt><trkpt lat="43.4405549" lon="11.0833506"><ele>127.0</ele><time>2026-05-02T07:53:37.48Z</time></trkpt><trkpt lat="43.4404897" lon="11.0833279"><ele>125.85714285714286</ele><time>2026-05-02T07:53:39.481Z</time></trkpt><trkpt lat="43.4404018" lon="11.0833416"><ele>124.71428571428571</ele><time>2026-05-02T07:53:42.499Z</time></trkpt><trkpt lat="43.4403318" lon="11.0833131"><ele>123.57142857142857</ele><time>2026-05-02T07:53:44.483Z</time></trkpt><trkpt lat="43.4402626" lon="11.0833087"><ele>122.42857142857143</ele><time>2026-05-02T07:53:46.484Z</time></trkpt><trkpt lat="43.4401986" lon="11.0832822"><ele>121.28571428571428</ele><time>2026-05-02T07:53:48.483Z</time></trkpt><trkpt lat="43.4401342" lon="11.0832658"><ele>120.14285714285714</ele><time>2026-05-02T07:53:50.482Z</time></trkpt><trkpt lat="43.440058" lon="11.0832497"><ele>119.0</ele><time>2026-05-02T07:53:52.482Z</time></trkpt><trkpt lat="43.4399883" lon="11.0832223"><ele>119.33333333333333</ele><time>2026-05-02T07:53:54.474Z</time></trkpt><trkpt lat="43.4399213" lon="11.0831934"><ele>119.66666666666666</ele><time>2026-05-02T07:53:56.503Z</time></trkpt><trkpt lat="43.4398586" lon="11.0831639"><ele>120.0</ele><time>2026-05-02T07:53:58.48Z</time></trkpt><trkpt lat="43.439774" lon="11.0831287"><ele>120.33333333333334</ele><time>2026-05-02T07:54:01.491Z</time></trkpt><trkpt lat="43.4396956" lon="11.0830974"><ele>120.66666666666667</ele><time>2026-05-02T07:54:04.546Z</time></trkpt><trkpt lat="43.439626" lon="11.0830538"><ele>121.0</ele><time>2026-05-02T07:54:07.468Z</time></trkpt><trkpt lat="43.4395414" lon="11.0830291"><ele>121.0</ele><time>2026-05-02T07:54:11.551Z</time></trkpt><trkpt lat="43.4394725" lon="11.0829575"><ele>121.0</ele><time>2026-05-02T07:54:14.476Z</time></trkpt><trkpt lat="43.4394022" lon="11.0828763"><ele>121.0</ele><time>2026-05-02T07:54:17.461Z</time></trkpt><trkpt lat="43.4393311" lon="11.0828039"><ele>121.0</ele><time>2026-05-02T07:54:20.544Z</time></trkpt><trkpt lat="43.4392259" lon="11.0827383"><ele>121.0</ele><time>2026-05-02T07:54:23.5Z</time></trkpt><trkpt lat="43.4391575" lon="11.0826856"><ele>121.00000000000001</ele><time>2026-05-02T07:54:26.499Z</time></trkpt><trkpt lat="43.4391007" lon="11.0826194"><ele>121.0</ele><time>2026-05-02T07:54:29.489Z</time></trkpt><trkpt lat="43.4390328" lon="11.082551"><ele>121.0</ele><time>2026-05-02T07:54:32.493Z</time></trkpt><trkpt lat="43.4389632" lon="11.08248"><ele>121.0</ele><time>2026-05-02T07:54:35.556Z</time></trkpt><trkpt lat="43.4388921" lon="11.0824139"><ele>121.00000000000001</ele><time>2026-05-02T07:54:38.493Z</time></trkpt><trkpt lat="43.438827" lon="11.0823405"><ele>121.0</ele><time>2026-05-02T07:54:41.56Z</time></trkpt><trkpt lat="43.4387612" lon="11.0822712"><ele>121.85714285714285</ele><time>2026-05-02T07:54:44.482Z</time></trkpt><trkpt lat="43.4387024" lon="11.0822033"><ele>122.7142857142857</ele><time>2026-05-02T07:54:47.464Z</time></trkpt><trkpt lat="43.4386423" lon="11.0821552"><ele>123.57142857142857</ele><time>2026-05-02T07:54:49.483Z</time></trkpt><trkpt lat="43.4385848" lon="11.0821076"><ele>124.42857142857142</ele><time>2026-05-02T07:54:51.55Z</time></trkpt><trkpt lat="43.438521" lon="11.0820466"><ele>125.28571428571428</ele><time>2026-05-02T07:54:53.483Z</time></trkpt><trkpt lat="43.4384689" lon="11.0819881"><ele>126.14285714285714</ele><time>2026-05-02T07:54:55.545Z</time></trkpt><trkpt lat="43.43841" lon="11.0819232"><ele>127.0</ele><time>2026-05-02T07:54:57.487Z</time></trkpt><trkpt lat="43.4383513" lon="11.0818617"><ele>127.0</ele><time>2026-05-02T07:54:59.501Z</time></trkpt><trkpt lat="43.43829" lon="11.0818117"><ele>127.0</ele><time>2026-05-02T07:55:01.492Z</time></trkpt><trkpt lat="43.4382308" lon="11.0817689"><ele>127.0</ele><time>2026-05-02T07:55:03.498Z</time></trkpt><trkpt lat="43.4381778" lon="11.0817103"><ele>127.0</ele><time>2026-05-02T07:55:05.482Z</time></trkpt><trkpt lat="43.4381238" lon="11.0816411"><ele>127.0</ele><time>2026-05-02T07:55:07.487Z</time></trkpt><trkpt lat="43.4380595" lon="11.0815659"><ele>127.0</ele><time>2026-05-02T07:55:09.494Z</time></trkpt><trkpt lat="43.4380146" lon="11.0814924"><ele>127.0</ele><time>2026-05-02T07:55:11.559Z</time></trkpt><trkpt lat="43.4379628" lon="11.0814406"><ele>127.14285714285714</ele><time>2026-05-02T07:55:13.495Z</time></trkpt><trkpt lat="43.4379006" lon="11.0813959"><ele>127.28571428571428</ele><time>2026-05-02T07:55:15.564Z</time></trkpt><trkpt lat="43.4378423" lon="11.0813573"><ele>127.42857142857142</ele><time>2026-05-02T07:55:17.472Z</time></trkpt><trkpt lat="43.4377868" lon="11.0813069"><ele>127.57142857142857</ele><time>2026-05-02T07:55:19.495Z</time></trkpt><trkpt lat="43.4377267" lon="11.0812746"><ele>127.7142857142857</ele><time>2026-05-02T07:55:21.552Z</time></trkpt><trkpt lat="43.4376693" lon="11.0812214"><ele>127.85714285714285</ele><time>2026-05-02T07:55:24.495Z</time></trkpt><trkpt lat="43.4376311" lon="11.0811404"><ele>128.0</ele><time>2026-05-02T07:55:27.473Z</time></trkpt><trkpt lat="43.4375508" lon="11.0810762"><ele>128.0</ele><time>2026-05-02T07:55:30.552Z</time></trkpt><trkpt lat="43.4374747" lon="11.0809936"><ele>127.99999999999999</ele><time>2026-05-02T07:55:33.472Z</time></trkpt><trkpt lat="43.4374219" lon="11.0809335"><ele>128.0</ele><time>2026-05-02T07:55:35.492Z</time></trkpt><trkpt lat="43.4373667" lon="11.0808825"><ele>128.0</ele><time>2026-05-02T07:55:37.495Z</time></trkpt><trkpt lat="43.4373142" lon="11.0808294"><ele>127.99999999999999</ele><time>2026-05-02T07:55:39.483Z</time></trkpt><trkpt lat="43.4372607" lon="11.0807835"><ele>128.0</ele><time>2026-05-02T07:55:41.482Z</time></trkpt><trkpt lat="43.4372084" lon="11.0807333"><ele>128.0</ele><time>2026-05-02T07:55:43.478Z</time></trkpt><trkpt lat="43.4371542" lon="11.0806891"><ele>128.16666666666666</ele><time>2026-05-02T07:55:45.493Z</time></trkpt><trkpt lat="43.4370988" lon="11.0806299"><ele>128.33333333333331</ele><time>2026-05-02T07:55:47.478Z</time></trkpt><trkpt lat="43.4370366" lon="11.080575"><ele>128.5</ele><time>2026-05-02T07:55:49.48Z</time></trkpt><trkpt lat="43.4369809" lon="11.0805138"><ele>128.66666666666666</ele><time>2026-05-02T07:55:51.549Z</time></trkpt><trkpt lat="43.4369224" lon="11.0804222"><ele>128.83333333333334</ele><time>2026-05-02T07:55:53.505Z</time></trkpt><trkpt lat="43.4368645" lon="11.0803562"><ele>129.0</ele><time>2026-05-02T07:55:55.554Z</time></trkpt><trkpt lat="43.436814" lon="11.0802624"><ele>129.0</ele><time>2026-05-02T07:55:58.482Z</time></trkpt><trkpt lat="43.4367865" lon="11.0801825"><ele>129.0</ele><time>2026-05-02T07:56:00.482Z</time></trkpt><trkpt lat="43.4367597" lon="11.0800891"><ele>129.0</ele><time>2026-05-02T07:56:02.487Z</time></trkpt><trkpt lat="43.4367398" lon="11.0799989"><ele>129.0</ele><time>2026-05-02T07:56:04.484Z</time></trkpt><trkpt lat="43.4367034" lon="11.0798705"><ele>129.0</ele><time>2026-05-02T07:56:07.522Z</time></trkpt><trkpt lat="43.4366775" lon="11.0797741"><ele>129.0</ele><time>2026-05-02T07:56:10.474Z</time></trkpt><trkpt lat="43.4366412" lon="11.0796799"><ele>130.85714285714283</ele><time>2026-05-02T07:56:13.488Z</time></trkpt><trkpt lat="43.4366151" lon="11.0795879"><ele>132.71428571428572</ele><time>2026-05-02T07:56:16.482Z</time></trkpt><trkpt lat="43.4365877" lon="11.0795005"><ele>134.57142857142856</ele><time>2026-05-02T07:56:19.471Z</time></trkpt><trkpt lat="43.4365481" lon="11.0794001"><ele>136.42857142857142</ele><time>2026-05-02T07:56:23.484Z</time></trkpt><trkpt lat="43.436517" lon="11.0793206"><ele>138.28571428571428</ele><time>2026-05-02T07:56:26.578Z</time></trkpt><trkpt lat="43.4364762" lon="11.0792319"><ele>140.14285714285714</ele><time>2026-05-02T07:56:29.492Z</time></trkpt><trkpt lat="43.4364336" lon="11.0791372"><ele>142.0</ele><time>2026-05-02T07:56:32.484Z</time></trkpt><trkpt lat="43.4363968" lon="11.0790517"><ele>140.5</ele><time>2026-05-02T07:56:35.464Z</time></trkpt><trkpt lat="43.4364007" lon="11.0789458"><ele>139.0</ele><time>2026-05-02T07:56:39.48Z</time></trkpt><trkpt lat="43.436387" lon="11.0788477"><ele>137.5</ele><time>2026-05-02T07:56:42.486Z</time></trkpt><trkpt lat="43.4363181" lon="11.0787678"><ele>136.0</ele><time>2026-05-02T07:56:45.487Z</time></trkpt><trkpt lat="43.4362733" lon="11.0787062"><ele>134.5</ele><time>2026-05-02T07:56:47.482Z</time></trkpt><trkpt lat="43.4362216" lon="11.0786174"><ele>133.0</ele><time>2026-05-02T07:56:50.484Z</time></trkpt><trkpt lat="43.4361689" lon="11.0785144"><ele>133.0</ele><time>2026-05-02T07:56:53.49Z</time></trkpt><trkpt lat="43.4361211" lon="11.0784191"><ele>133.0</ele><time>2026-05-02T07:56:56.541Z</time></trkpt><trkpt lat="43.4360713" lon="11.0783193"><ele>133.0</ele><time>2026-05-02T07:56:59.479Z</time></trkpt><trkpt lat="43.436013" lon="11.0782075"><ele>133.0</ele><time>2026-05-02T07:57:03.484Z</time></trkpt><trkpt lat="43.4359712" lon="11.0781296"><ele>133.0</ele><time>2026-05-02T07:57:06.465Z</time></trkpt><trkpt lat="43.4359216" lon="11.0780391"><ele>133.0</ele><time>2026-05-02T07:57:10.58Z</time></trkpt><trkpt lat="43.4358801" lon="11.0779464"><ele>135.0</ele><time>2026-05-02T07:57:13.485Z</time></trkpt><trkpt lat="43.4358456" lon="11.0778662"><ele>137.0</ele><time>2026-05-02T07:57:16.499Z</time></trkpt><trkpt lat="43.4358221" lon="11.0777834"><ele>139.0</ele><time>2026-05-02T07:57:19.493Z</time></trkpt><trkpt lat="43.435789" lon="11.0776912"><ele>141.0</ele><time>2026-05-02T07:57:22.495Z</time></trkpt><trkpt lat="43.4357555" lon="11.0775887"><ele>143.0</ele><time>2026-05-02T07:57:25.485Z</time></trkpt><trkpt lat="43.4357271" lon="11.0774811"><ele>145.0</ele><time>2026-05-02T07:57:28.497Z</time></trkpt><trkpt lat="43.4356941" lon="11.0773617"><ele>146.0</ele><time>2026-05-02T07:57:31.551Z</time></trkpt><trkpt lat="43.4356648" lon="11.077248"><ele>147.0</ele><time>2026-05-02T07:57:34.473Z</time></trkpt><trkpt lat="43.4356486" lon="11.0771591"><ele>148.0</ele><time>2026-05-02T07:57:36.554Z</time></trkpt><trkpt lat="43.4356288" lon="11.0770472"><ele>149.0</ele><time>2026-05-02T07:57:39.479Z</time></trkpt><trkpt lat="43.4356332" lon="11.0769216"><ele>150.0</ele><time>2026-05-02T07:57:42.484Z</time></trkpt><trkpt lat="43.4356058" lon="11.0768182"><ele>151.0</ele><time>2026-05-02T07:57:45.549Z</time></trkpt><trkpt lat="43.4356063" lon="11.0767212"><ele>151.0</ele><time>2026-05-02T07:57:47.493Z</time></trkpt><trkpt lat="43.4355764" lon="11.0766316"><ele>151.0</ele><time>2026-05-02T07:57:50.489Z</time></trkpt><trkpt lat="43.4355559" lon="11.0765348"><ele>151.0</ele><time>2026-05-02T07:57:53.489Z</time></trkpt><trkpt lat="43.4355277" lon="11.0764291"><ele>151.0</ele><time>2026-05-02T07:57:56.494Z</time></trkpt><trkpt lat="43.4354992" lon="11.0763303"><ele>151.0</ele><time>2026-05-02T07:57:59.494Z</time></trkpt><trkpt lat="43.4354729" lon="11.076236"><ele>151.0</ele><time>2026-05-02T07:58:02.497Z</time></trkpt><trkpt lat="43.4354499" lon="11.0761328"><ele>149.33333333333334</ele><time>2026-05-02T07:58:05.465Z</time></trkpt><trkpt lat="43.4354312" lon="11.0760203"><ele>147.66666666666669</ele><time>2026-05-02T07:58:08.474Z</time></trkpt><trkpt lat="43.4354074" lon="11.0759195"><ele>146.0</ele><time>2026-05-02T07:58:11.562Z</time></trkpt><trkpt lat="43.4354215" lon="11.0758153"><ele>144.33333333333334</ele><time>2026-05-02T07:58:14.464Z</time></trkpt><trkpt lat="43.435395" lon="11.0757183"><ele>142.66666666666666</ele><time>2026-05-02T07:58:17.478Z</time></trkpt><trkpt lat="43.4353624" lon="11.075608"><ele>141.0</ele><time>2026-05-02T07:58:20.55Z</time></trkpt><trkpt lat="43.4353358" lon="11.0755109"><ele>141.0</ele><time>2026-05-02T07:58:23.491Z</time></trkpt><trkpt lat="43.4353157" lon="11.0754099"><ele>141.0</ele><time>2026-05-02T07:58:26.491Z</time></trkpt><trkpt lat="43.4352916" lon="11.0753011"><ele>141.0</ele><time>2026-05-02T07:58:29.492Z</time></trkpt><trkpt lat="43.4352747" lon="11.0751911"><ele>141.0</ele><time>2026-05-02T07:58:32.496Z</time></trkpt><trkpt lat="43.4352575" lon="11.0750775"><ele>141.0</ele><time>2026-05-02T07:58:35.502Z</time></trkpt><trkpt lat="43.4352373" lon="11.0749633"><ele>141.0</ele><time>2026-05-02T07:58:38.489Z</time></trkpt><trkpt lat="43.4352094" lon="11.0748454"><ele>141.71428571428572</ele><time>2026-05-02T07:58:41.555Z</time></trkpt><trkpt lat="43.4351911" lon="11.0747466"><ele>142.42857142857142</ele><time>2026-05-02T07:58:44.547Z</time></trkpt><trkpt lat="43.435177" lon="11.074654"><ele>143.14285714285714</ele><time>2026-05-02T07:58:46.557Z</time></trkpt><trkpt lat="43.4351562" lon="11.074563"><ele>143.85714285714286</ele><time>2026-05-02T07:58:48.479Z</time></trkpt><trkpt lat="43.4351247" lon="11.0744783"><ele>144.57142857142858</ele><time>2026-05-02T07:58:50.47Z</time></trkpt><trkpt lat="43.4351066" lon="11.0743745"><ele>145.28571428571428</ele><time>2026-05-02T07:58:52.5Z</time></trkpt><trkpt lat="43.4350997" lon="11.0742709"><ele>146.0</ele><time>2026-05-02T07:58:54.48Z</time></trkpt><trkpt lat="43.4350686" lon="11.0741869"><ele>147.33333333333331</ele><time>2026-05-02T07:58:56.481Z</time></trkpt><trkpt lat="43.4350198" lon="11.0741015"><ele>148.66666666666666</ele><time>2026-05-02T07:58:58.487Z</time></trkpt><trkpt lat="43.4349849" lon="11.0739943"><ele>150.0</ele><time>2026-05-02T07:59:01.554Z</time></trkpt><trkpt lat="43.4349484" lon="11.0738741"><ele>151.33333333333334</ele><time>2026-05-02T07:59:04.458Z</time></trkpt><trkpt lat="43.434924" lon="11.0737928"><ele>152.66666666666669</ele><time>2026-05-02T07:59:06.478Z</time></trkpt><trkpt lat="43.4348982" lon="11.0737113"><ele>154.0</ele><time>2026-05-02T07:59:08.476Z</time></trkpt><trkpt lat="43.4348753" lon="11.0735959"><ele>154.0</ele><time>2026-05-02T07:59:11.479Z</time></trkpt><trkpt lat="43.4348481" lon="11.0734786"><ele>154.0</ele><time>2026-05-02T07:59:14.481Z</time></trkpt><trkpt lat="43.4348169" lon="11.0733527"><ele>154.0</ele><time>2026-05-02T07:59:17.482Z</time></trkpt><trkpt lat="43.4347996" lon="11.0732477"><ele>154.0</ele><time>2026-05-02T07:59:19.49Z</time></trkpt><trkpt lat="43.4347658" lon="11.0731331"><ele>154.0</ele><time>2026-05-02T07:59:22.552Z</time></trkpt><trkpt lat="43.4347257" lon="11.0730219"><ele>154.0</ele><time>2026-05-02T07:59:25.486Z</time></trkpt><trkpt lat="43.4346826" lon="11.0729177"><ele>153.0</ele><time>2026-05-02T07:59:28.478Z</time></trkpt><trkpt lat="43.4346502" lon="11.0727782"><ele>152.0</ele><time>2026-05-02T07:59:31.547Z</time></trkpt><trkpt lat="43.4346374" lon="11.0726678"><ele>151.0</ele><time>2026-05-02T07:59:33.477Z</time></trkpt><trkpt lat="43.4345746" lon="11.0725475"><ele>150.0</ele><time>2026-05-02T07:59:38.499Z</time></trkpt><trkpt lat="43.4345371" lon="11.0724698"><ele>149.0</ele><time>2026-05-02T07:59:41.488Z</time></trkpt><trkpt lat="43.4344981" lon="11.0723739"><ele>148.0</ele><time>2026-05-02T07:59:44.499Z</time></trkpt><trkpt lat="43.4344648" lon="11.0722697"><ele>148.0</ele><time>2026-05-02T07:59:47.489Z</time></trkpt><trkpt lat="43.4344274" lon="11.0721737"><ele>148.0</ele><time>2026-05-02T07:59:50.466Z</time></trkpt><trkpt lat="43.4343915" lon="11.0720576"><ele>148.0</ele><time>2026-05-02T07:59:53.478Z</time></trkpt><trkpt lat="43.4343531" lon="11.0719424"><ele>148.0</ele><time>2026-05-02T07:59:56.457Z</time></trkpt><trkpt lat="43.4343217" lon="11.071849"><ele>148.0</ele><time>2026-05-02T07:59:58.494Z</time></trkpt><trkpt lat="43.434293" lon="11.0717427"><ele>148.0</ele><time>2026-05-02T08:00:02.477Z</time></trkpt><trkpt lat="43.4342747" lon="11.0716586"><ele>148.83333333333334</ele><time>2026-05-02T08:00:04.481Z</time></trkpt><trkpt lat="43.4342492" lon="11.0715689"><ele>149.66666666666669</ele><time>2026-05-02T08:00:06.554Z</time></trkpt><trkpt lat="43.4342123" lon="11.0714581"><ele>150.5</ele><time>2026-05-02T08:00:08.464Z</time></trkpt><trkpt lat="43.4341929" lon="11.0713414"><ele>151.33333333333334</ele><time>2026-05-02T08:00:10.488Z</time></trkpt><trkpt lat="43.434182" lon="11.0712493"><ele>152.16666666666666</ele><time>2026-05-02T08:00:12.499Z</time></trkpt><trkpt lat="43.4341461" lon="11.0711387"><ele>153.0</ele><time>2026-05-02T08:00:15.497Z</time></trkpt><trkpt lat="43.4341202" lon="11.071048"><ele>153.0</ele><time>2026-05-02T08:00:17.484Z</time></trkpt><trkpt lat="43.4340923" lon="11.0709461"><ele>153.0</ele><time>2026-05-02T08:00:19.462Z</time></trkpt><trkpt lat="43.4340615" lon="11.0708532"><ele>153.0</ele><time>2026-05-02T08:00:21.489Z</time></trkpt><trkpt lat="43.4340334" lon="11.0707687"><ele>153.0</ele><time>2026-05-02T08:00:23.498Z</time></trkpt><trkpt lat="43.4340036" lon="11.0706756"><ele>153.0</ele><time>2026-05-02T08:00:25.547Z</time></trkpt><trkpt lat="43.4339759" lon="11.0705764"><ele>153.0</ele><time>2026-05-02T08:00:27.488Z</time></trkpt><trkpt lat="43.4339437" lon="11.0704879"><ele>153.0</ele><time>2026-05-02T08:00:29.481Z</time></trkpt><trkpt lat="43.433916" lon="11.0704027"><ele>153.71428571428572</ele><time>2026-05-02T08:00:31.463Z</time></trkpt><trkpt lat="43.4339037" lon="11.070311"><ele>154.42857142857144</ele><time>2026-05-02T08:00:33.464Z</time></trkpt><trkpt lat="43.4338677" lon="11.0702065"><ele>155.14285714285717</ele><time>2026-05-02T08:00:35.484Z</time></trkpt><trkpt lat="43.4338298" lon="11.0701227"><ele>155.85714285714286</ele><time>2026-05-02T08:00:37.47Z</time></trkpt><trkpt lat="43.4337919" lon="11.0700322"><ele>156.57142857142858</ele><time>2026-05-02T08:00:39.48Z</time></trkpt><trkpt lat="43.4337493" lon="11.0699519"><ele>157.2857142857143</ele><time>2026-05-02T08:00:41.484Z</time></trkpt><trkpt lat="43.4337117" lon="11.0698735"><ele>158.0</ele><time>2026-05-02T08:00:43.495Z</time></trkpt><trkpt lat="43.4336689" lon="11.0697885"><ele>156.33333333333331</ele><time>2026-05-02T08:00:45.477Z</time></trkpt><trkpt lat="43.4336208" lon="11.0696948"><ele>154.66666666666666</ele><time>2026-05-02T08:00:47.483Z</time></trkpt><trkpt lat="43.4335656" lon="11.0696077"><ele>153.0</ele><time>2026-05-02T08:00:49.47Z</time></trkpt><trkpt lat="43.4335003" lon="11.0695268"><ele>151.33333333333334</ele><time>2026-05-02T08:00:51.485Z</time></trkpt><trkpt lat="43.4334384" lon="11.0694481"><ele>149.66666666666669</ele><time>2026-05-02T08:00:53.485Z</time></trkpt><trkpt lat="43.4333699" lon="11.0693792"><ele>148.0</ele><time>2026-05-02T08:00:55.481Z</time></trkpt><trkpt lat="43.4332973" lon="11.0693056"><ele>148.0</ele><time>2026-05-02T08:00:57.491Z</time></trkpt><trkpt lat="43.4332309" lon="11.0692353"><ele>148.0</ele><time>2026-05-02T08:00:59.497Z</time></trkpt><trkpt lat="43.4331648" lon="11.0691715"><ele>148.0</ele><time>2026-05-02T08:01:01.468Z</time></trkpt><trkpt lat="43.4330976" lon="11.069114"><ele>148.0</ele><time>2026-05-02T08:01:03.509Z</time></trkpt><trkpt lat="43.4330331" lon="11.0690582"><ele>148.0</ele><time>2026-05-02T08:01:05.489Z</time></trkpt><trkpt lat="43.4329716" lon="11.0690114"><ele>148.0</ele><time>2026-05-02T08:01:07.561Z</time></trkpt><trkpt lat="43.4329113" lon="11.0689666"><ele>148.0</ele><time>2026-05-02T08:01:09.485Z</time></trkpt><trkpt lat="43.4328414" lon="11.0689087"><ele>148.0</ele><time>2026-05-02T08:01:11.465Z</time></trkpt><trkpt lat="43.4327771" lon="11.0688483"><ele>148.0</ele><time>2026-05-02T08:01:13.458Z</time></trkpt><trkpt lat="43.43272" lon="11.0687724"><ele>148.0</ele><time>2026-05-02T08:01:15.475Z</time></trkpt><trkpt lat="43.4326759" lon="11.068672"><ele>148.0</ele><time>2026-05-02T08:01:17.481Z</time></trkpt><trkpt lat="43.4325622" lon="11.0685992"><ele>148.0</ele><time>2026-05-02T08:01:20.485Z</time></trkpt><trkpt lat="43.4325069" lon="11.0685243"><ele>148.0</ele><time>2026-05-02T08:01:22.483Z</time></trkpt><trkpt lat="43.432441" lon="11.0684666"><ele>148.0</ele><time>2026-05-02T08:01:24.488Z</time></trkpt><trkpt lat="43.4323823" lon="11.0684059"><ele>148.0</ele><time>2026-05-02T08:01:26.492Z</time></trkpt><trkpt lat="43.4323267" lon="11.0683385"><ele>148.0</ele><time>2026-05-02T08:01:28.491Z</time></trkpt><trkpt lat="43.4322984" lon="11.0682549"><ele>148.0</ele><time>2026-05-02T08:01:30.487Z</time></trkpt><trkpt lat="43.4322992" lon="11.0681383"><ele>148.0</ele><time>2026-05-02T08:01:33.482Z</time></trkpt><trkpt lat="43.4322983" lon="11.068042"><ele>148.0</ele><time>2026-05-02T08:01:36.482Z</time></trkpt><trkpt lat="43.4322928" lon="11.0679491"><ele>148.5</ele><time>2026-05-02T08:01:39.486Z</time></trkpt><trkpt lat="43.4323247" lon="11.0678297"><ele>149.0</ele><time>2026-05-02T08:01:42.481Z</time></trkpt><trkpt lat="43.4322656" lon="11.0677616"><ele>149.5</ele><time>2026-05-02T08:01:45.565Z</time></trkpt><trkpt lat="43.4322157" lon="11.0676415"><ele>150.0</ele><time>2026-05-02T08:01:48.484Z</time></trkpt><trkpt lat="43.4321211" lon="11.0675975"><ele>150.5</ele><time>2026-05-02T08:01:50.486Z</time></trkpt><trkpt lat="43.43205" lon="11.0675919"><ele>151.0</ele><time>2026-05-02T08:01:52.565Z</time></trkpt><trkpt lat="43.4319641" lon="11.0675807"><ele>149.33333333333334</ele><time>2026-05-02T08:01:55.484Z</time></trkpt><trkpt lat="43.4318879" lon="11.0676017"><ele>147.66666666666669</ele><time>2026-05-02T08:01:58.489Z</time></trkpt><trkpt lat="43.4318083" lon="11.0676426"><ele>146.0</ele><time>2026-05-02T08:02:01.493Z</time></trkpt><trkpt lat="43.4317248" lon="11.0676763"><ele>144.33333333333334</ele><time>2026-05-02T08:02:04.501Z</time></trkpt><trkpt lat="43.4316478" lon="11.0677141"><ele>142.66666666666666</ele><time>2026-05-02T08:02:07.487Z</time></trkpt><trkpt lat="43.4315832" lon="11.0677726"><ele>141.0</ele><time>2026-05-02T08:02:10.491Z</time></trkpt><trkpt lat="43.4315273" lon="11.0678151"><ele>141.0</ele><time>2026-05-02T08:02:13.489Z</time></trkpt><trkpt lat="43.431462" lon="11.0678734"><ele>141.0</ele><time>2026-05-02T08:02:16.49Z</time></trkpt><trkpt lat="43.4313958" lon="11.0679273"><ele>141.0</ele><time>2026-05-02T08:02:19.486Z</time></trkpt><trkpt lat="43.4313387" lon="11.0679773"><ele>141.0</ele><time>2026-05-02T08:02:21.56Z</time></trkpt><trkpt lat="43.4312421" lon="11.06806"><ele>141.0</ele><time>2026-05-02T08:02:24.487Z</time></trkpt><trkpt lat="43.4311435" lon="11.0681714"><ele>139.6</ele><time>2026-05-02T08:02:26.54Z</time></trkpt><trkpt lat="43.4310418" lon="11.0682787"><ele>138.2</ele><time>2026-05-02T08:02:28.485Z</time></trkpt><trkpt lat="43.4309454" lon="11.0683814"><ele>136.8</ele><time>2026-05-02T08:02:30.48Z</time></trkpt><trkpt lat="43.4308557" lon="11.0684224"><ele>135.4</ele><time>2026-05-02T08:02:32.489Z</time></trkpt><trkpt lat="43.4307871" lon="11.068357"><ele>134.0</ele><time>2026-05-02T08:02:34.481Z</time></trkpt><trkpt lat="43.4307313" lon="11.0682681"><ele>134.0</ele><time>2026-05-02T08:02:36.458Z</time></trkpt><trkpt lat="43.4306787" lon="11.0681862"><ele>134.0</ele><time>2026-05-02T08:02:38.487Z</time></trkpt><trkpt lat="43.4306175" lon="11.0681113"><ele>134.0</ele><time>2026-05-02T08:02:40.492Z</time></trkpt><trkpt lat="43.4305627" lon="11.0680568"><ele>134.0</ele><time>2026-05-02T08:02:42.48Z</time></trkpt><trkpt lat="43.4305116" lon="11.067998"><ele>134.0</ele><time>2026-05-02T08:02:44.48Z</time></trkpt><trkpt lat="43.430456" lon="11.0679023"><ele>134.0</ele><time>2026-05-02T08:02:47.499Z</time></trkpt><trkpt lat="43.4304025" lon="11.0678109"><ele>134.0</ele><time>2026-05-02T08:02:50.473Z</time></trkpt><trkpt lat="43.4303539" lon="11.0677192"><ele>134.0</ele><time>2026-05-02T08:02:53.487Z</time></trkpt><trkpt lat="43.4303099" lon="11.0676523"><ele>134.0</ele><time>2026-05-02T08:02:56.569Z</time></trkpt><trkpt lat="43.4302657" lon="11.0675786"><ele>134.0</ele><time>2026-05-02T08:02:59.481Z</time></trkpt><trkpt lat="43.4302278" lon="11.0675089"><ele>134.0</ele><time>2026-05-02T08:03:02.496Z</time></trkpt><trkpt lat="43.4301831" lon="11.0674294"><ele>134.0</ele><time>2026-05-02T08:03:05.495Z</time></trkpt><trkpt lat="43.4301347" lon="11.0673724"><ele>134.0</ele><time>2026-05-02T08:03:08.496Z</time></trkpt><trkpt lat="43.4300916" lon="11.0673044"><ele>134.0</ele><time>2026-05-02T08:03:11.482Z</time></trkpt><trkpt lat="43.4300528" lon="11.067221"><ele>134.0</ele><time>2026-05-02T08:03:14.48Z</time></trkpt><trkpt lat="43.4300152" lon="11.067136"><ele>134.0</ele><time>2026-05-02T08:03:17.463Z</time></trkpt><trkpt lat="43.4299659" lon="11.0670615"><ele>134.0</ele><time>2026-05-02T08:03:22.549Z</time></trkpt><trkpt lat="43.4299047" lon="11.06697"><ele>134.0</ele><time>2026-05-02T08:03:25.47Z</time></trkpt><trkpt lat="43.4298607" lon="11.0668717"><ele>134.0</ele><time>2026-05-02T08:03:28.486Z</time></trkpt><trkpt lat="43.429813" lon="11.0667826"><ele>134.0</ele><time>2026-05-02T08:03:32.559Z</time></trkpt><trkpt lat="43.42976" lon="11.0667135"><ele>134.0</ele><time>2026-05-02T08:03:36.547Z</time></trkpt><trkpt lat="43.4296974" lon="11.0666414"><ele>134.0</ele><time>2026-05-02T08:04:12.552Z</time></trkpt><trkpt lat="43.4296414" lon="11.0665782"><ele>134.0</ele><time>2026-05-02T08:04:15.481Z</time></trkpt><trkpt lat="43.4295766" lon="11.0665391"><ele>134.0</ele><time>2026-05-02T08:04:17.546Z</time></trkpt><trkpt lat="43.4295052" lon="11.0665479"><ele>134.0</ele><time>2026-05-02T08:04:20.486Z</time></trkpt><trkpt lat="43.4294431" lon="11.0666227"><ele>133.83333333333331</ele><time>2026-05-02T08:04:24.477Z</time></trkpt><trkpt lat="43.4293597" lon="11.0666719"><ele>133.66666666666666</ele><time>2026-05-02T08:04:27.478Z</time></trkpt><trkpt lat="43.4292965" lon="11.0667053"><ele>133.5</ele><time>2026-05-02T08:04:29.491Z</time></trkpt><trkpt lat="43.4292142" lon="11.0667579"><ele>133.33333333333334</ele><time>2026-05-02T08:04:32.478Z</time></trkpt><trkpt lat="43.4291658" lon="11.0668143"><ele>133.16666666666669</ele><time>2026-05-02T08:04:35.482Z</time></trkpt><trkpt lat="43.4291479" lon="11.0669121"><ele>133.0</ele><time>2026-05-02T08:04:38.473Z</time></trkpt><trkpt lat="43.4291342" lon="11.0670218"><ele>133.0</ele><time>2026-05-02T08:04:42.551Z</time></trkpt><trkpt lat="43.4290776" lon="11.0671041"><ele>133.0</ele><time>2026-05-02T08:04:46.562Z</time></trkpt><trkpt lat="43.4290264" lon="11.0671691"><ele>133.0</ele><time>2026-05-02T08:04:49.484Z</time></trkpt><trkpt lat="43.4289684" lon="11.0672292"><ele>133.0</ele><time>2026-05-02T08:04:52.556Z</time></trkpt><trkpt lat="43.4289175" lon="11.0673015"><ele>133.0</ele><time>2026-05-02T08:04:56.553Z</time></trkpt><trkpt lat="43.4288617" lon="11.0674054"><ele>133.0</ele><time>2026-05-02T08:04:59.49Z</time></trkpt><trkpt lat="43.4288023" lon="11.0675002"><ele>135.16666666666669</ele><time>2026-05-02T08:05:02.482Z</time></trkpt><trkpt lat="43.4287471" lon="11.0675866"><ele>137.33333333333334</ele><time>2026-05-02T08:05:05.501Z</time></trkpt><trkpt lat="43.4286823" lon="11.0676859"><ele>139.5</ele><time>2026-05-02T08:05:08.471Z</time></trkpt><trkpt lat="43.4286536" lon="11.0677767"><ele>141.66666666666666</ele><time>2026-05-02T08:05:10.483Z</time></trkpt><trkpt lat="43.428625" lon="11.0678799"><ele>143.83333333333331</ele><time>2026-05-02T08:05:13.484Z</time></trkpt><trkpt lat="43.4285997" lon="11.0679605"><ele>146.0</ele><time>2026-05-02T08:05:16.481Z</time></trkpt><trkpt lat="43.4285671" lon="11.0680384"><ele>146.0</ele><time>2026-05-02T08:05:20.473Z</time></trkpt><trkpt lat="43.4285511" lon="11.0681353"><ele>146.0</ele><time>2026-05-02T08:05:24.477Z</time></trkpt><trkpt lat="43.4285654" lon="11.0682408"><ele>146.0</ele><time>2026-05-02T08:05:29.489Z</time></trkpt><trkpt lat="43.428544" lon="11.0683348"><ele>146.0</ele><time>2026-05-02T08:05:32.497Z</time></trkpt><trkpt lat="43.4285185" lon="11.0684189"><ele>146.0</ele><time>2026-05-02T08:05:35.47Z</time></trkpt><trkpt lat="43.4285019" lon="11.0685074"><ele>146.0</ele><time>2026-05-02T08:05:38.484Z</time></trkpt><trkpt lat="43.4284776" lon="11.0685935"><ele>146.0</ele><time>2026-05-02T08:05:41.486Z</time></trkpt><trkpt lat="43.4284398" lon="11.068672"><ele>146.0</ele><time>2026-05-02T08:05:44.472Z</time></trkpt><trkpt lat="43.4284008" lon="11.0687565"><ele>146.0</ele><time>2026-05-02T08:05:48.474Z</time></trkpt><trkpt lat="43.4283383" lon="11.0687952"><ele>146.0</ele><time>2026-05-02T08:05:53.481Z</time></trkpt><trkpt lat="43.4282846" lon="11.0688747"><ele>146.0</ele><time>2026-05-02T08:05:57.561Z</time></trkpt><trkpt lat="43.4282131" lon="11.0689336"><ele>146.0</ele><time>2026-05-02T08:06:01.554Z</time></trkpt><trkpt lat="43.4280798" lon="11.0689362"><ele>146.0</ele><time>2026-05-02T08:06:04.476Z</time></trkpt><trkpt lat="43.4280246" lon="11.0690088"><ele>146.14285714285714</ele><time>2026-05-02T08:06:10.492Z</time></trkpt><trkpt lat="43.4279667" lon="11.0690524"><ele>146.28571428571428</ele><time>2026-05-02T08:06:14.494Z</time></trkpt><trkpt lat="43.4279152" lon="11.0691043"><ele>146.42857142857144</ele><time>2026-05-02T08:06:18.479Z</time></trkpt><trkpt lat="43.4278492" lon="11.0691789"><ele>146.57142857142856</ele><time>2026-05-02T08:06:21.556Z</time></trkpt><trkpt lat="43.4277857" lon="11.0692493"><ele>146.71428571428572</ele><time>2026-05-02T08:06:24.491Z</time></trkpt><trkpt lat="43.4277596" lon="11.0693312"><ele>146.85714285714286</ele><time>2026-05-02T08:06:26.549Z</time></trkpt><trkpt lat="43.4277384" lon="11.0694261"><ele>147.0</ele><time>2026-05-02T08:06:30.486Z</time></trkpt><trkpt lat="43.4277182" lon="11.0695396"><ele>146.5</ele><time>2026-05-02T08:06:34.489Z</time></trkpt><trkpt lat="43.4277054" lon="11.069647"><ele>146.0</ele><time>2026-05-02T08:06:39.488Z</time></trkpt><trkpt lat="43.427678" lon="11.0697483"><ele>145.5</ele><time>2026-05-02T08:06:42.493Z</time></trkpt><trkpt lat="43.427643" lon="11.0698524"><ele>145.0</ele><time>2026-05-02T08:06:45.49Z</time></trkpt><trkpt lat="43.4276191" lon="11.069941"><ele>144.5</ele><time>2026-05-02T08:06:49.489Z</time></trkpt><trkpt lat="43.427548" lon="11.069963"><ele>144.0</ele><time>2026-05-02T08:06:55.488Z</time></trkpt><trkpt lat="43.4274698" lon="11.0700266"><ele>145.0</ele><time>2026-05-02T08:06:57.562Z</time></trkpt><trkpt lat="43.4274045" lon="11.0701"><ele>146.0</ele><time>2026-05-02T08:06:59.487Z</time></trkpt><trkpt lat="43.4273267" lon="11.0701401"><ele>147.0</ele><time>2026-05-02T08:07:02.556Z</time></trkpt><trkpt lat="43.4272532" lon="11.0701598"><ele>148.0</ele><time>2026-05-02T08:07:05.478Z</time></trkpt><trkpt lat="43.4271796" lon="11.0701687"><ele>149.0</ele><time>2026-05-02T08:07:08.485Z</time></trkpt><trkpt lat="43.4270899" lon="11.0701914"><ele>150.0</ele><time>2026-05-02T08:07:11.55Z</time></trkpt><trkpt lat="43.4270199" lon="11.0701957"><ele>150.0</ele><time>2026-05-02T08:07:14.479Z</time></trkpt><trkpt lat="43.4269366" lon="11.0702004"><ele>150.0</ele><time>2026-05-02T08:07:17.483Z</time></trkpt><trkpt lat="43.4268506" lon="11.0702073"><ele>150.0</ele><time>2026-05-02T08:07:20.494Z</time></trkpt><trkpt lat="43.4267639" lon="11.0702163"><ele>150.0</ele><time>2026-05-02T08:07:23.497Z</time></trkpt><trkpt lat="43.4266701" lon="11.0702366"><ele>150.0</ele><time>2026-05-02T08:07:26.503Z</time></trkpt><trkpt lat="43.4266038" lon="11.070263"><ele>150.0</ele><time>2026-05-02T08:07:29.493Z</time></trkpt><trkpt lat="43.4265203" lon="11.0702973"><ele>149.99999999999997</ele><time>2026-05-02T08:07:32.563Z</time></trkpt><trkpt lat="43.4264637" lon="11.0703593"><ele>150.0</ele><time>2026-05-02T08:07:34.482Z</time></trkpt><trkpt lat="43.4263966" lon="11.0704147"><ele>150.0</ele><time>2026-05-02T08:07:36.556Z</time></trkpt><trkpt lat="43.4263245" lon="11.0704532"><ele>150.0</ele><time>2026-05-02T08:07:38.459Z</time></trkpt><trkpt lat="43.426251" lon="11.0704675"><ele>150.0</ele><time>2026-05-02T08:07:40.489Z</time></trkpt><trkpt lat="43.4261732" lon="11.0704752"><ele>149.99999999999997</ele><time>2026-05-02T08:07:43.49Z</time></trkpt><trkpt lat="43.4261096" lon="11.0704694"><ele>150.0</ele><time>2026-05-02T08:07:45.482Z</time></trkpt><trkpt lat="43.4260337" lon="11.0704463"><ele>149.83333333333334</ele><time>2026-05-02T08:07:48.477Z</time></trkpt><trkpt lat="43.4259537" lon="11.070485"><ele>149.66666666666666</ele><time>2026-05-02T08:07:51.493Z</time></trkpt><trkpt lat="43.4258914" lon="11.0705148"><ele>149.5</ele><time>2026-05-02T08:07:54.494Z</time></trkpt><trkpt lat="43.4258171" lon="11.0705605"><ele>149.33333333333331</ele><time>2026-05-02T08:07:57.486Z</time></trkpt><trkpt lat="43.4257434" lon="11.0705909"><ele>149.16666666666666</ele><time>2026-05-02T08:08:00.497Z</time></trkpt><trkpt lat="43.4256681" lon="11.0705966"><ele>149.0</ele><time>2026-05-02T08:08:04.486Z</time></trkpt><trkpt lat="43.425596" lon="11.0705858"><ele>149.0</ele><time>2026-05-02T08:08:08.488Z</time></trkpt><trkpt lat="43.4255144" lon="11.0705468"><ele>149.0</ele><time>2026-05-02T08:08:12.466Z</time></trkpt><trkpt lat="43.425441" lon="11.0705422"><ele>149.0</ele><time>2026-05-02T08:08:15.478Z</time></trkpt><trkpt lat="43.4253602" lon="11.0705654"><ele>149.0</ele><time>2026-05-02T08:08:18.492Z</time></trkpt><trkpt lat="43.425286" lon="11.070602"><ele>149.0</ele><time>2026-05-02T08:08:21.554Z</time></trkpt><trkpt lat="43.4252194" lon="11.0706354"><ele>149.0</ele><time>2026-05-02T08:08:24.48Z</time></trkpt><trkpt lat="43.4251416" lon="11.0706506"><ele>149.71428571428572</ele><time>2026-05-02T08:08:28.48Z</time></trkpt><trkpt lat="43.4250778" lon="11.0706593"><ele>150.42857142857142</ele><time>2026-05-02T08:08:31.465Z</time></trkpt><trkpt lat="43.4250083" lon="11.070648"><ele>151.14285714285714</ele><time>2026-05-02T08:08:34.463Z</time></trkpt><trkpt lat="43.4249453" lon="11.0706209"><ele>151.85714285714286</ele><time>2026-05-02T08:08:37.482Z</time></trkpt><trkpt lat="43.4248718" lon="11.0706132"><ele>152.57142857142856</ele><time>2026-05-02T08:08:41.563Z</time></trkpt><trkpt lat="43.4247943" lon="11.0706251"><ele>153.28571428571428</ele><time>2026-05-02T08:08:45.492Z</time></trkpt><trkpt lat="43.4247225" lon="11.070637"><ele>154.0</ele><time>2026-05-02T08:08:49.492Z</time></trkpt><trkpt lat="43.424641" lon="11.0706361"><ele>155.16666666666669</ele><time>2026-05-02T08:08:54.495Z</time></trkpt><trkpt lat="43.4245604" lon="11.0706307"><ele>156.33333333333334</ele><time>2026-05-02T08:08:57.553Z</time></trkpt><trkpt lat="43.4244932" lon="11.0706426"><ele>157.5</ele><time>2026-05-02T08:09:00.491Z</time></trkpt><trkpt lat="43.4244227" lon="11.0706844"><ele>158.66666666666666</ele><time>2026-05-02T08:09:04.494Z</time></trkpt><trkpt lat="43.424341" lon="11.0707188"><ele>159.83333333333331</ele><time>2026-05-02T08:09:07.484Z</time></trkpt><trkpt lat="43.4242567" lon="11.0707357"><ele>161.0</ele><time>2026-05-02T08:09:10.479Z</time></trkpt><trkpt lat="43.4241783" lon="11.0707495"><ele>161.0</ele><time>2026-05-02T08:09:13.5Z</time></trkpt><trkpt lat="43.4241152" lon="11.0707499"><ele>161.0</ele><time>2026-05-02T08:09:16.555Z</time></trkpt><trkpt lat="43.4240435" lon="11.0707697"><ele>161.0</ele><time>2026-05-02T08:09:20.492Z</time></trkpt><trkpt lat="43.4239839" lon="11.0708063"><ele>161.0</ele><time>2026-05-02T08:09:24.488Z</time></trkpt><trkpt lat="43.423914" lon="11.0708099"><ele>161.0</ele><time>2026-05-02T08:09:28.477Z</time></trkpt><trkpt lat="43.4238247" lon="11.070807"><ele>161.0</ele><time>2026-05-02T08:09:31.545Z</time></trkpt><trkpt lat="43.4237535" lon="11.0707967"><ele>161.0</ele><time>2026-05-02T08:09:34.501Z</time></trkpt><trkpt lat="43.4236847" lon="11.070814"><ele>162.42857142857142</ele><time>2026-05-02T08:09:37.551Z</time></trkpt><trkpt lat="43.4236204" lon="11.0708047"><ele>163.85714285714286</ele><time>2026-05-02T08:09:40.486Z</time></trkpt><trkpt lat="43.4235563" lon="11.070802"><ele>165.28571428571428</ele><time>2026-05-02T08:09:43.498Z</time></trkpt><trkpt lat="43.4234824" lon="11.0708018"><ele>166.71428571428572</ele><time>2026-05-02T08:09:47.49Z</time></trkpt><trkpt lat="43.4234077" lon="11.0708295"><ele>168.14285714285714</ele><time>2026-05-02T08:09:51.544Z</time></trkpt><trkpt lat="43.4233413" lon="11.0708625"><ele>169.57142857142856</ele><time>2026-05-02T08:09:54.499Z</time></trkpt><trkpt lat="43.4232655" lon="11.070905"><ele>171.0</ele><time>2026-05-02T08:09:58.5Z</time></trkpt><trkpt lat="43.4232042" lon="11.0709491"><ele>171.0</ele><time>2026-05-02T08:10:02.567Z</time></trkpt><trkpt lat="43.4230442" lon="11.0710885"><ele>171.0</ele><time>2026-05-02T08:10:07.564Z</time></trkpt><trkpt lat="43.422985" lon="11.0711221"><ele>171.0</ele><time>2026-05-02T08:10:15.49Z</time></trkpt><trkpt lat="43.4229392" lon="11.0712009"><ele>171.0</ele><time>2026-05-02T08:10:18.498Z</time></trkpt><trkpt lat="43.4228726" lon="11.0712601"><ele>171.0</ele><time>2026-05-02T08:10:22.465Z</time></trkpt><trkpt lat="43.4228119" lon="11.0713044"><ele>171.16666666666666</ele><time>2026-05-02T08:10:27.562Z</time></trkpt><trkpt lat="43.422703" lon="11.0713939"><ele>171.33333333333334</ele><time>2026-05-02T08:10:32.561Z</time></trkpt><trkpt lat="43.4226514" lon="11.0714558"><ele>171.5</ele><time>2026-05-02T08:10:35.488Z</time></trkpt><trkpt lat="43.4225983" lon="11.0715221"><ele>171.66666666666669</ele><time>2026-05-02T08:10:38.475Z</time></trkpt><trkpt lat="43.4225375" lon="11.0715526"><ele>171.83333333333334</ele><time>2026-05-02T08:10:42.556Z</time></trkpt><trkpt lat="43.4224434" lon="11.0715672"><ele>172.0</ele><time>2026-05-02T08:10:45.489Z</time></trkpt><trkpt lat="43.4223832" lon="11.0716135"><ele>172.16666666666669</ele><time>2026-05-02T08:10:50.496Z</time></trkpt><trkpt lat="43.4223309" lon="11.0716919"><ele>172.33333333333334</ele><time>2026-05-02T08:10:53.491Z</time></trkpt><trkpt lat="43.4222658" lon="11.0717697"><ele>172.5</ele><time>2026-05-02T08:10:56.486Z</time></trkpt><trkpt lat="43.4222075" lon="11.0718356"><ele>172.66666666666666</ele><time>2026-05-02T08:10:59.489Z</time></trkpt><trkpt lat="43.4221516" lon="11.0719081"><ele>172.83333333333331</ele><time>2026-05-02T08:11:02.548Z</time></trkpt><trkpt lat="43.4220922" lon="11.071975"><ele>173.0</ele><time>2026-05-02T08:11:05.481Z</time></trkpt><trkpt lat="43.4220217" lon="11.0720216"><ele>173.0</ele><time>2026-05-02T08:11:10.493Z</time></trkpt><trkpt lat="43.421941" lon="11.0721212"><ele>173.0</ele><time>2026-05-02T08:11:14.502Z</time></trkpt><trkpt lat="43.4218928" lon="11.0721897"><ele>173.0</ele><time>2026-05-02T08:11:16.566Z</time></trkpt><trkpt lat="43.4218255" lon="11.0722445"><ele>173.0</ele><time>2026-05-02T08:11:20.488Z</time></trkpt><trkpt lat="43.4217749" lon="11.0723242"><ele>173.0</ele><time>2026-05-02T08:11:24.493Z</time></trkpt><trkpt lat="43.4217296" lon="11.0723907"><ele>173.0</ele><time>2026-05-02T08:11:26.479Z</time></trkpt><trkpt lat="43.4216696" lon="11.072461"><ele>174.5</ele><time>2026-05-02T08:11:28.486Z</time></trkpt><trkpt lat="43.4216137" lon="11.0725247"><ele>176.0</ele><time>2026-05-02T08:11:30.483Z</time></trkpt><trkpt lat="43.421554" lon="11.072589"><ele>177.5</ele><time>2026-05-02T08:11:32.49Z</time></trkpt><trkpt lat="43.4214967" lon="11.0726503"><ele>179.0</ele><time>2026-05-02T08:11:35.492Z</time></trkpt><trkpt lat="43.4214327" lon="11.0727008"><ele>180.5</ele><time>2026-05-02T08:11:38.487Z</time></trkpt><trkpt lat="43.4213635" lon="11.0727181"><ele>182.0</ele><time>2026-05-02T08:11:41.56Z</time></trkpt><trkpt lat="43.4212733" lon="11.0726931"><ele>181.0</ele><time>2026-05-02T08:11:43.465Z</time></trkpt><trkpt lat="43.4212135" lon="11.0726538"><ele>180.0</ele><time>2026-05-02T08:11:45.482Z</time></trkpt><trkpt lat="43.4211561" lon="11.0725876"><ele>179.0</ele><time>2026-05-02T08:11:48.471Z</time></trkpt><trkpt lat="43.4210967" lon="11.0724681"><ele>178.0</ele><time>2026-05-02T08:11:51.568Z</time></trkpt><trkpt lat="43.4210201" lon="11.0723673"><ele>177.0</ele><time>2026-05-02T08:11:53.464Z</time></trkpt><trkpt lat="43.4209349" lon="11.0722596"><ele>177.0</ele><time>2026-05-02T08:11:55.48Z</time></trkpt><trkpt lat="43.420852" lon="11.072156"><ele>177.0</ele><time>2026-05-02T08:11:57.546Z</time></trkpt><trkpt lat="43.420762" lon="11.0720649"><ele>177.0</ele><time>2026-05-02T08:11:59.491Z</time></trkpt><trkpt lat="43.42067" lon="11.0720096"><ele>177.0</ele><time>2026-05-02T08:12:01.55Z</time></trkpt><trkpt lat="43.4205826" lon="11.0719808"><ele>177.0</ele><time>2026-05-02T08:12:03.478Z</time></trkpt><trkpt lat="43.4204684" lon="11.0719519"><ele>179.6</ele><time>2026-05-02T08:12:05.478Z</time></trkpt><trkpt lat="43.4204024" lon="11.0719354"><ele>182.2</ele><time>2026-05-02T08:12:06.475Z</time></trkpt><trkpt lat="43.4202902" lon="11.0718843"><ele>184.8</ele><time>2026-05-02T08:12:08.48Z</time></trkpt><trkpt lat="43.4201892" lon="11.0718179"><ele>187.4</ele><time>2026-05-02T08:12:10.542Z</time></trkpt><trkpt lat="43.4200923" lon="11.0717359"><ele>190.0</ele><time>2026-05-02T08:12:12.477Z</time></trkpt><trkpt lat="43.4200055" lon="11.071659"><ele>189.4</ele><time>2026-05-02T08:12:14.488Z</time></trkpt><trkpt lat="43.4199314" lon="11.0715651"><ele>188.8</ele><time>2026-05-02T08:12:16.551Z</time></trkpt><trkpt lat="43.4198515" lon="11.0714831"><ele>188.2</ele><time>2026-05-02T08:12:18.497Z</time></trkpt><trkpt lat="43.4197846" lon="11.0714179"><ele>187.6</ele><time>2026-05-02T08:12:20.479Z</time></trkpt><trkpt lat="43.4197024" lon="11.0713547"><ele>187.0</ele><time>2026-05-02T08:12:23.499Z</time></trkpt><trkpt lat="43.4196242" lon="11.0713143"><ele>187.0</ele><time>2026-05-02T08:12:26.547Z</time></trkpt><trkpt lat="43.4195852" lon="11.0712144"><ele>187.0</ele><time>2026-05-02T08:12:29.494Z</time></trkpt><trkpt lat="43.4195157" lon="11.0711721"><ele>187.0</ele><time>2026-05-02T08:12:31.552Z</time></trkpt><trkpt lat="43.4194587" lon="11.0711134"><ele>187.0</ele><time>2026-05-02T08:12:33.482Z</time></trkpt><trkpt lat="43.419368" lon="11.0710772"><ele>187.0</ele><time>2026-05-02T08:12:36.482Z</time></trkpt><trkpt lat="43.4193049" lon="11.0710022"><ele>187.0</ele><time>2026-05-02T08:12:39.491Z</time></trkpt><trkpt lat="43.419255" lon="11.0709241"><ele>185.6</ele><time>2026-05-02T08:12:43.498Z</time></trkpt><trkpt lat="43.4191108" lon="11.0706963"><ele>184.2</ele><time>2026-05-02T08:12:48.472Z</time></trkpt><trkpt lat="43.4190676" lon="11.070626"><ele>182.8</ele><time>2026-05-02T08:12:51.55Z</time></trkpt><trkpt lat="43.4190003" lon="11.0705964"><ele>181.4</ele><time>2026-05-02T08:12:54.481Z</time></trkpt><trkpt lat="43.4189424" lon="11.0705555"><ele>180.0</ele><time>2026-05-02T08:12:58.476Z</time></trkpt><trkpt lat="43.418882" lon="11.0705123"><ele>180.0</ele><time>2026-05-02T08:13:02.487Z</time></trkpt><trkpt lat="43.4187991" lon="11.0704977"><ele>180.0</ele><time>2026-05-02T08:13:05.493Z</time></trkpt><trkpt lat="43.4187288" lon="11.0704517"><ele>180.0</ele><time>2026-05-02T08:13:08.486Z</time></trkpt><trkpt lat="43.418654" lon="11.0704078"><ele>180.0</ele><time>2026-05-02T08:13:11.477Z</time></trkpt><trkpt lat="43.4185735" lon="11.0703629"><ele>180.0</ele><time>2026-05-02T08:13:14.486Z</time></trkpt><trkpt lat="43.4184966" lon="11.0703213"><ele>180.0</ele><time>2026-05-02T08:13:17.495Z</time></trkpt><trkpt lat="43.4184313" lon="11.0702956"><ele>180.0</ele><time>2026-05-02T08:13:19.466Z</time></trkpt><trkpt lat="43.4183548" lon="11.0702684"><ele>180.0</ele><time>2026-05-02T08:13:21.555Z</time></trkpt><trkpt lat="43.4182859" lon="11.0702299"><ele>180.0</ele><time>2026-05-02T08:13:23.469Z</time></trkpt><trkpt lat="43.4182292" lon="11.0701563"><ele>180.0</ele><time>2026-05-02T08:13:26.557Z</time></trkpt><trkpt lat="43.4181495" lon="11.0701805"><ele>180.0</ele><time>2026-05-02T08:13:29.491Z</time></trkpt><trkpt lat="43.4180713" lon="11.0701667"><ele>180.0</ele><time>2026-05-02T08:13:31.546Z</time></trkpt><trkpt lat="43.4180247" lon="11.070108"><ele>180.16666666666666</ele><time>2026-05-02T08:13:33.479Z</time></trkpt><trkpt lat="43.417956" lon="11.0700809"><ele>180.33333333333334</ele><time>2026-05-02T08:13:35.501Z</time></trkpt><trkpt lat="43.417879" lon="11.0700691"><ele>180.5</ele><time>2026-05-02T08:13:37.571Z</time></trkpt><trkpt lat="43.4178092" lon="11.0700691"><ele>180.66666666666669</ele><time>2026-05-02T08:13:39.502Z</time></trkpt><trkpt lat="43.4177444" lon="11.07007"><ele>180.83333333333334</ele><time>2026-05-02T08:13:41.567Z</time></trkpt><trkpt lat="43.4176604" lon="11.0700732"><ele>181.0</ele><time>2026-05-02T08:13:44.512Z</time></trkpt><trkpt lat="43.4175779" lon="11.0700878"><ele>181.0</ele><time>2026-05-02T08:13:47.506Z</time></trkpt><trkpt lat="43.4174839" lon="11.0701063"><ele>181.0</ele><time>2026-05-02T08:13:50.501Z</time></trkpt><trkpt lat="43.4174092" lon="11.0701226"><ele>181.0</ele><time>2026-05-02T08:13:52.578Z</time></trkpt><trkpt lat="43.4173421" lon="11.0701467"><ele>181.0</ele><time>2026-05-02T08:13:54.499Z</time></trkpt><trkpt lat="43.4172797" lon="11.0701738"><ele>181.0</ele><time>2026-05-02T08:13:56.576Z</time></trkpt><trkpt lat="43.4172032" lon="11.0701771"><ele>181.0</ele><time>2026-05-02T08:13:58.502Z</time></trkpt><trkpt lat="43.417132" lon="11.0701608"><ele>181.5</ele><time>2026-05-02T08:14:00.483Z</time></trkpt><trkpt lat="43.4170657" lon="11.0701637"><ele>182.0</ele><time>2026-05-02T08:14:02.562Z</time></trkpt><trkpt lat="43.4169796" lon="11.0701818"><ele>182.5</ele><time>2026-05-02T08:14:05.497Z</time></trkpt><trkpt lat="43.4168891" lon="11.0701831"><ele>183.0</ele><time>2026-05-02T08:14:08.492Z</time></trkpt><trkpt lat="43.416802" lon="11.0701775"><ele>183.5</ele><time>2026-05-02T08:14:11.558Z</time></trkpt><trkpt lat="43.4167257" lon="11.0701294"><ele>184.0</ele><time>2026-05-02T08:14:15.493Z</time></trkpt><trkpt lat="43.4166539" lon="11.070114"><ele>184.0</ele><time>2026-05-02T08:14:17.489Z</time></trkpt><trkpt lat="43.416582" lon="11.070096"><ele>184.0</ele><time>2026-05-02T08:14:19.481Z</time></trkpt><trkpt lat="43.4165182" lon="11.0700699"><ele>184.0</ele><time>2026-05-02T08:14:21.492Z</time></trkpt><trkpt lat="43.416451" lon="11.0700556"><ele>184.0</ele><time>2026-05-02T08:14:23.484Z</time></trkpt><trkpt lat="43.4163864" lon="11.0700146"><ele>184.0</ele><time>2026-05-02T08:14:26.47Z</time></trkpt><trkpt lat="43.4163226" lon="11.0699995"><ele>184.0</ele><time>2026-05-02T08:14:30.492Z</time></trkpt><trkpt lat="43.4162573" lon="11.0699835"><ele>184.0</ele><time>2026-05-02T08:15:24.484Z</time></trkpt><trkpt lat="43.4163167" lon="11.070016"><ele>184.0</ele><time>2026-05-02T08:15:43.477Z</time></trkpt><trkpt lat="43.4162642" lon="11.0699644"><ele>184.0</ele><time>2026-05-02T08:16:13.474Z</time></trkpt><trkpt lat="43.4163046" lon="11.0700394"><ele>184.0</ele><time>2026-05-02T08:16:51.545Z</time></trkpt><trkpt lat="43.4162342" lon="11.0700706"><ele>184.0</ele><time>2026-05-02T08:17:45.467Z</time></trkpt><trkpt lat="43.4161787" lon="11.070134"><ele>184.0</ele><time>2026-05-02T08:17:51.501Z</time></trkpt><trkpt lat="43.4161621" lon="11.0702188"><ele>184.0</ele><time>2026-05-02T08:17:56.543Z</time></trkpt><trkpt lat="43.4162224" lon="11.0701918"><ele>184.0</ele><time>2026-05-02T08:17:58.47Z</time></trkpt><trkpt lat="43.4161612" lon="11.0701274"><ele>184.0</ele><time>2026-05-02T08:18:01.556Z</time></trkpt><trkpt lat="43.4160966" lon="11.0700757"><ele>184.0</ele><time>2026-05-02T08:18:03.483Z</time></trkpt><trkpt lat="43.4159974" lon="11.0700625"><ele>184.0</ele><time>2026-05-02T08:18:05.486Z</time></trkpt><trkpt lat="43.4158987" lon="11.0700927"><ele>184.0</ele><time>2026-05-02T08:18:07.559Z</time></trkpt><trkpt lat="43.4158194" lon="11.0701081"><ele>184.0</ele><time>2026-05-02T08:18:09.502Z</time></trkpt><trkpt lat="43.4157434" lon="11.070119"><ele>184.0</ele><time>2026-05-02T08:18:11.557Z</time></trkpt><trkpt lat="43.4156719" lon="11.0701414"><ele>184.0</ele><time>2026-05-02T08:18:14.504Z</time></trkpt><trkpt lat="43.4155866" lon="11.0701645"><ele>184.0</ele><time>2026-05-02T08:18:16.485Z</time></trkpt><trkpt lat="43.4155011" lon="11.0701834"><ele>184.0</ele><time>2026-05-02T08:18:18.491Z</time></trkpt><trkpt lat="43.415422" lon="11.0702035"><ele>184.0</ele><time>2026-05-02T08:18:20.492Z</time></trkpt><trkpt lat="43.4153402" lon="11.0702257"><ele>184.0</ele><time>2026-05-02T08:18:22.492Z</time></trkpt><trkpt lat="43.4152587" lon="11.0702655"><ele>184.0</ele><time>2026-05-02T08:18:24.485Z</time></trkpt><trkpt lat="43.415195" lon="11.0702828"><ele>183.83333333333334</ele><time>2026-05-02T08:18:26.57Z</time></trkpt><trkpt lat="43.4151005" lon="11.0703256"><ele>183.66666666666669</ele><time>2026-05-02T08:18:29.508Z</time></trkpt><trkpt lat="43.4150137" lon="11.0703573"><ele>183.5</ele><time>2026-05-02T08:18:31.529Z</time></trkpt><trkpt lat="43.4149298" lon="11.0703799"><ele>183.33333333333334</ele><time>2026-05-02T08:18:33.497Z</time></trkpt><trkpt lat="43.4148512" lon="11.0703997"><ele>183.16666666666666</ele><time>2026-05-02T08:18:35.487Z</time></trkpt><trkpt lat="43.4147713" lon="11.070416"><ele>183.0</ele><time>2026-05-02T08:18:37.555Z</time></trkpt><trkpt lat="43.4146895" lon="11.070445"><ele>182.83333333333334</ele><time>2026-05-02T08:18:39.478Z</time></trkpt><trkpt lat="43.4146139" lon="11.0704676"><ele>182.66666666666666</ele><time>2026-05-02T08:18:41.57Z</time></trkpt><trkpt lat="43.414538" lon="11.0704799"><ele>182.5</ele><time>2026-05-02T08:18:43.486Z</time></trkpt><trkpt lat="43.4144535" lon="11.0704996"><ele>182.33333333333331</ele><time>2026-05-02T08:18:45.497Z</time></trkpt><trkpt lat="43.4143858" lon="11.0705183"><ele>182.16666666666666</ele><time>2026-05-02T08:18:47.554Z</time></trkpt><trkpt lat="43.4142976" lon="11.0705471"><ele>182.0</ele><time>2026-05-02T08:18:50.47Z</time></trkpt><trkpt lat="43.4142035" lon="11.0705632"><ele>182.0</ele><time>2026-05-02T08:18:53.471Z</time></trkpt><trkpt lat="43.4141331" lon="11.0705852"><ele>182.0</ele><time>2026-05-02T08:18:55.483Z</time></trkpt><trkpt lat="43.4140698" lon="11.0706018"><ele>182.0</ele><time>2026-05-02T08:18:57.481Z</time></trkpt><trkpt lat="43.4140012" lon="11.0706246"><ele>182.0</ele><time>2026-05-02T08:18:59.466Z</time></trkpt><trkpt lat="43.4139374" lon="11.0706519"><ele>182.0</ele><time>2026-05-02T08:19:01.581Z</time></trkpt><trkpt lat="43.4138522" lon="11.0707017"><ele>182.0</ele><time>2026-05-02T08:19:04.473Z</time></trkpt><trkpt lat="43.4137719" lon="11.0707588"><ele>182.33333333333331</ele><time>2026-05-02T08:19:07.565Z</time></trkpt><trkpt lat="43.4137049" lon="11.0707901"><ele>182.66666666666666</ele><time>2026-05-02T08:19:09.486Z</time></trkpt><trkpt lat="43.4136328" lon="11.0708165"><ele>183.0</ele><time>2026-05-02T08:19:12.56Z</time></trkpt><trkpt lat="43.4135641" lon="11.0708906"><ele>183.33333333333334</ele><time>2026-05-02T08:19:15.477Z</time></trkpt><trkpt lat="43.4135078" lon="11.0709473"><ele>183.66666666666669</ele><time>2026-05-02T08:19:17.488Z</time></trkpt><trkpt lat="43.4134236" lon="11.0709968"><ele>184.0</ele><time>2026-05-02T08:19:19.481Z</time></trkpt><trkpt lat="43.4133515" lon="11.0710303"><ele>184.0</ele><time>2026-05-02T08:19:21.467Z</time></trkpt><trkpt lat="43.4132757" lon="11.0710676"><ele>184.0</ele><time>2026-05-02T08:19:25.49Z</time></trkpt><trkpt lat="43.4132" lon="11.0711177"><ele>184.0</ele><time>2026-05-02T08:19:28.479Z</time></trkpt><trkpt lat="43.4131543" lon="11.0711892"><ele>184.0</ele><time>2026-05-02T08:19:31.489Z</time></trkpt><trkpt lat="43.4131472" lon="11.0713002"><ele>184.0</ele><time>2026-05-02T08:19:34.469Z</time></trkpt><trkpt lat="43.4131472" lon="11.0714123"><ele>184.0</ele><time>2026-05-02T08:19:37.557Z</time></trkpt><trkpt lat="43.4131523" lon="11.0715106"><ele>184.66666666666669</ele><time>2026-05-02T08:19:39.498Z</time></trkpt><trkpt lat="43.4131492" lon="11.0716366"><ele>185.33333333333334</ele><time>2026-05-02T08:19:42.559Z</time></trkpt><trkpt lat="43.4131387" lon="11.0717414"><ele>186.0</ele><time>2026-05-02T08:19:46.563Z</time></trkpt><trkpt lat="43.4131263" lon="11.0718717"><ele>186.66666666666666</ele><time>2026-05-02T08:19:50.487Z</time></trkpt><trkpt lat="43.4130873" lon="11.0719423"><ele>187.33333333333331</ele><time>2026-05-02T08:19:52.547Z</time></trkpt><trkpt lat="43.4130816" lon="11.0720329"><ele>188.0</ele><time>2026-05-02T08:19:55.486Z</time></trkpt><trkpt lat="43.4130877" lon="11.0721275"><ele>188.0</ele><time>2026-05-02T08:19:59.484Z</time></trkpt><trkpt lat="43.4130741" lon="11.0722136"><ele>188.0</ele><time>2026-05-02T08:20:02.5Z</time></trkpt><trkpt lat="43.4130595" lon="11.0723035"><ele>188.0</ele><time>2026-05-02T08:20:05.481Z</time></trkpt><trkpt lat="43.4130618" lon="11.0724165"><ele>188.0</ele><time>2026-05-02T08:20:09.495Z</time></trkpt><trkpt lat="43.413072" lon="11.0725137"><ele>188.0</ele><time>2026-05-02T08:20:12.557Z</time></trkpt><trkpt lat="43.4130787" lon="11.072621"><ele>188.0</ele><time>2026-05-02T08:20:15.503Z</time></trkpt><trkpt lat="43.4130794" lon="11.0727176"><ele>188.0</ele><time>2026-05-02T08:20:19.49Z</time></trkpt><trkpt lat="43.4130723" lon="11.0728085"><ele>189.0</ele><time>2026-05-02T08:20:23.466Z</time></trkpt><trkpt lat="43.4130834" lon="11.0729159"><ele>190.0</ele><time>2026-05-02T08:20:28.495Z</time></trkpt><trkpt lat="43.413066" lon="11.0730198"><ele>191.0</ele><time>2026-05-02T08:20:32.493Z</time></trkpt><trkpt lat="43.4130405" lon="11.0731314"><ele>192.0</ele><time>2026-05-02T08:20:36.485Z</time></trkpt><trkpt lat="43.4129962" lon="11.0732178"><ele>193.00000000000003</ele><time>2026-05-02T08:20:39.495Z</time></trkpt><trkpt lat="43.41293" lon="11.0733089"><ele>194.0</ele><time>2026-05-02T08:20:42.552Z</time></trkpt><trkpt lat="43.4128592" lon="11.0733952"><ele>194.14285714285714</ele><time>2026-05-02T08:20:45.501Z</time></trkpt><trkpt lat="43.412804" lon="11.0734556"><ele>194.2857142857143</ele><time>2026-05-02T08:20:47.571Z</time></trkpt><trkpt lat="43.4127508" lon="11.0735235"><ele>194.42857142857144</ele><time>2026-05-02T08:20:49.491Z</time></trkpt><trkpt lat="43.4126987" lon="11.0736011"><ele>194.57142857142856</ele><time>2026-05-02T08:20:51.558Z</time></trkpt><trkpt lat="43.4126433" lon="11.0736758"><ele>194.71428571428572</ele><time>2026-05-02T08:20:53.481Z</time></trkpt><trkpt lat="43.4125672" lon="11.073703"><ele>194.85714285714286</ele><time>2026-05-02T08:20:55.488Z</time></trkpt><trkpt lat="43.4125045" lon="11.0736668"><ele>195.0</ele><time>2026-05-02T08:20:58.5Z</time></trkpt><trkpt lat="43.4124482" lon="11.0735374"><ele>195.0</ele><time>2026-05-02T08:21:01.55Z</time></trkpt><trkpt lat="43.4124008" lon="11.0734377"><ele>195.0</ele><time>2026-05-02T08:21:03.497Z</time></trkpt><trkpt lat="43.4123501" lon="11.0733275"><ele>195.0</ele><time>2026-05-02T08:21:05.489Z</time></trkpt><trkpt lat="43.4123052" lon="11.073234"><ele>195.0</ele><time>2026-05-02T08:21:07.484Z</time></trkpt><trkpt lat="43.4122642" lon="11.0731636"><ele>195.0</ele><time>2026-05-02T08:21:10.483Z</time></trkpt><trkpt lat="43.4121987" lon="11.0732237"><ele>195.0</ele><time>2026-05-02T08:21:15.565Z</time></trkpt><trkpt lat="43.412223" lon="11.073326"><ele>195.0</ele><time>2026-05-02T08:21:18.486Z</time></trkpt><trkpt lat="43.4122365" lon="11.0734217"><ele>195.0</ele><time>2026-05-02T08:21:22.491Z</time></trkpt><trkpt lat="43.4122703" lon="11.0734967"><ele>195.0</ele><time>2026-05-02T08:21:25.481Z</time></trkpt><trkpt lat="43.4123108" lon="11.0735792"><ele>195.0</ele><time>2026-05-02T08:21:28.488Z</time></trkpt><trkpt lat="43.4123476" lon="11.0736632"><ele>195.0</ele><time>2026-05-02T08:21:31.493Z</time></trkpt><trkpt lat="43.4123776" lon="11.0737474"><ele>195.0</ele><time>2026-05-02T08:21:34.489Z</time></trkpt><trkpt lat="43.4123349" lon="11.073824"><ele>195.0</ele><time>2026-05-02T08:21:48.49Z</time></trkpt><trkpt lat="43.4122802" lon="11.0738776"><ele>195.0</ele><time>2026-05-02T08:21:51.549Z</time></trkpt><trkpt lat="43.4122209" lon="11.0739256"><ele>195.0</ele><time>2026-05-02T08:21:54.487Z</time></trkpt><trkpt lat="43.4121595" lon="11.0739607"><ele>195.0</ele><time>2026-05-02T08:21:57.491Z</time></trkpt><trkpt lat="43.412083" lon="11.0739913"><ele>195.0</ele><time>2026-05-02T08:22:00.485Z</time></trkpt><trkpt lat="43.4120127" lon="11.0740488"><ele>195.0</ele><time>2026-05-02T08:22:03.493Z</time></trkpt><trkpt lat="43.4119462" lon="11.0740437"><ele>195.0</ele><time>2026-05-02T08:22:06.488Z</time></trkpt><trkpt lat="43.4118582" lon="11.0740303"><ele>193.83333333333334</ele><time>2026-05-02T08:22:09.487Z</time></trkpt><trkpt lat="43.4117635" lon="11.074043"><ele>192.66666666666666</ele><time>2026-05-02T08:22:12.569Z</time></trkpt><trkpt lat="43.4116787" lon="11.0740476"><ele>191.5</ele><time>2026-05-02T08:22:14.486Z</time></trkpt><trkpt lat="43.4115956" lon="11.0740452"><ele>190.33333333333331</ele><time>2026-05-02T08:22:16.489Z</time></trkpt><trkpt lat="43.4115097" lon="11.0740493"><ele>189.16666666666666</ele><time>2026-05-02T08:22:18.495Z</time></trkpt><trkpt lat="43.4114216" lon="11.07407"><ele>188.0</ele><time>2026-05-02T08:22:20.491Z</time></trkpt><trkpt lat="43.411334" lon="11.0740882"><ele>188.33333333333331</ele><time>2026-05-02T08:22:22.508Z</time></trkpt><trkpt lat="43.4112439" lon="11.0741035"><ele>188.66666666666666</ele><time>2026-05-02T08:22:24.491Z</time></trkpt><trkpt lat="43.4111757" lon="11.0741141"><ele>189.0</ele><time>2026-05-02T08:22:26.503Z</time></trkpt><trkpt lat="43.4110872" lon="11.0741304"><ele>189.33333333333334</ele><time>2026-05-02T08:22:29.495Z</time></trkpt><trkpt lat="43.4110238" lon="11.0741447"><ele>189.66666666666669</ele><time>2026-05-02T08:22:31.489Z</time></trkpt><trkpt lat="43.4109626" lon="11.0741659"><ele>190.0</ele><time>2026-05-02T08:22:33.487Z</time></trkpt><trkpt lat="43.4108775" lon="11.0741986"><ele>190.0</ele><time>2026-05-02T08:22:36.556Z</time></trkpt><trkpt lat="43.4108107" lon="11.0742182"><ele>190.0</ele><time>2026-05-02T08:22:38.498Z</time></trkpt><trkpt lat="43.4107359" lon="11.0742566"><ele>190.0</ele><time>2026-05-02T08:22:40.576Z</time></trkpt><trkpt lat="43.4106601" lon="11.0742647"><ele>190.0</ele><time>2026-05-02T08:22:44.5Z</time></trkpt><trkpt lat="43.4105748" lon="11.0742219"><ele>190.0</ele><time>2026-05-02T08:22:46.492Z</time></trkpt><trkpt lat="43.4104699" lon="11.0741322"><ele>190.0</ele><time>2026-05-02T08:22:48.493Z</time></trkpt><trkpt lat="43.4103703" lon="11.0740559"><ele>189.0</ele><time>2026-05-02T08:22:50.499Z</time></trkpt><trkpt lat="43.4102804" lon="11.0739493"><ele>188.0</ele><time>2026-05-02T08:22:52.481Z</time></trkpt><trkpt lat="43.4101757" lon="11.0738569"><ele>187.0</ele><time>2026-05-02T08:22:54.5Z</time></trkpt><trkpt lat="43.4101142" lon="11.0738165"><ele>186.0</ele><time>2026-05-02T08:22:55.493Z</time></trkpt><trkpt lat="43.4100553" lon="11.0737821"><ele>185.0</ele><time>2026-05-02T08:22:56.558Z</time></trkpt><trkpt lat="43.409943" lon="11.0737591"><ele>185.0</ele><time>2026-05-02T08:22:58.484Z</time></trkpt><trkpt lat="43.4098287" lon="11.0737596"><ele>185.0</ele><time>2026-05-02T08:23:00.467Z</time></trkpt><trkpt lat="43.4097617" lon="11.0737381"><ele>185.0</ele><time>2026-05-02T08:23:01.479Z</time></trkpt><trkpt lat="43.4096542" lon="11.073727"><ele>185.0</ele><time>2026-05-02T08:23:03.494Z</time></trkpt><trkpt lat="43.409549" lon="11.0737119"><ele>185.0</ele><time>2026-05-02T08:23:05.496Z</time></trkpt><trkpt lat="43.4094587" lon="11.0736841"><ele>185.2</ele><time>2026-05-02T08:23:07.484Z</time></trkpt><trkpt lat="43.4093711" lon="11.0736681"><ele>185.4</ele><time>2026-05-02T08:23:09.485Z</time></trkpt><trkpt lat="43.4092787" lon="11.0736457"><ele>185.60000000000002</ele><time>2026-05-02T08:23:11.493Z</time></trkpt><trkpt lat="43.4091824" lon="11.0736304"><ele>185.8</ele><time>2026-05-02T08:23:13.489Z</time></trkpt><trkpt lat="43.4090886" lon="11.0736215"><ele>186.0</ele><time>2026-05-02T08:23:15.48Z</time></trkpt><trkpt lat="43.4089999" lon="11.0736133"><ele>186.0</ele><time>2026-05-02T08:23:17.562Z</time></trkpt><trkpt lat="43.4089059" lon="11.0736183"><ele>186.0</ele><time>2026-05-02T08:23:19.47Z</time></trkpt><trkpt lat="43.4088349" lon="11.0735992"><ele>186.0</ele><time>2026-05-02T08:23:21.485Z</time></trkpt><trkpt lat="43.4087526" lon="11.0735846"><ele>186.0</ele><time>2026-05-02T08:23:23.484Z</time></trkpt><trkpt lat="43.4086806" lon="11.0735714"><ele>186.0</ele><time>2026-05-02T08:23:25.502Z</time></trkpt><trkpt lat="43.4086163" lon="11.073549"><ele>186.0</ele><time>2026-05-02T08:23:28.496Z</time></trkpt><trkpt lat="43.4085235" lon="11.0735408"><ele>186.2857142857143</ele><time>2026-05-02T08:25:29.476Z</time></trkpt><trkpt lat="43.4084587" lon="11.0735507"><ele>186.57142857142858</ele><time>2026-05-02T08:25:32.493Z</time></trkpt><trkpt lat="43.4083909" lon="11.0735607"><ele>186.85714285714286</ele><time>2026-05-02T08:25:36.498Z</time></trkpt><trkpt lat="43.4083376" lon="11.0736266"><ele>187.14285714285717</ele><time>2026-05-02T08:25:39.477Z</time></trkpt><trkpt lat="43.4082714" lon="11.0736599"><ele>187.42857142857142</ele><time>2026-05-02T08:25:42.491Z</time></trkpt><trkpt lat="43.4081937" lon="11.0736927"><ele>187.71428571428572</ele><time>2026-05-02T08:25:45.555Z</time></trkpt><trkpt lat="43.4081308" lon="11.0737207"><ele>188.0</ele><time>2026-05-02T08:25:48.485Z</time></trkpt><trkpt lat="43.4080533" lon="11.0736963"><ele>187.71428571428572</ele><time>2026-05-02T08:25:50.484Z</time></trkpt><trkpt lat="43.407986" lon="11.0736796"><ele>187.42857142857142</ele><time>2026-05-02T08:25:53.47Z</time></trkpt><trkpt lat="43.4079072" lon="11.0736935"><ele>187.14285714285717</ele><time>2026-05-02T08:25:57.564Z</time></trkpt><trkpt lat="43.4078318" lon="11.0737149"><ele>186.85714285714286</ele><time>2026-05-02T08:26:00.496Z</time></trkpt><trkpt lat="43.4077701" lon="11.0737616"><ele>186.57142857142858</ele><time>2026-05-02T08:26:04.486Z</time></trkpt><trkpt lat="43.4077049" lon="11.0737488"><ele>186.2857142857143</ele><time>2026-05-02T08:26:06.553Z</time></trkpt><trkpt lat="43.4076395" lon="11.0737345"><ele>186.0</ele><time>2026-05-02T08:26:09.483Z</time></trkpt><trkpt lat="43.4075679" lon="11.0737453"><ele>186.00000000000003</ele><time>2026-05-02T08:26:12.495Z</time></trkpt><trkpt lat="43.4075037" lon="11.0737466"><ele>186.0</ele><time>2026-05-02T08:26:15.484Z</time></trkpt><trkpt lat="43.4074332" lon="11.0737531"><ele>186.0</ele><time>2026-05-02T08:26:18.494Z</time></trkpt><trkpt lat="43.4073689" lon="11.0737592"><ele>186.0</ele><time>2026-05-02T08:26:21.559Z</time></trkpt><trkpt lat="43.4073023" lon="11.0737676"><ele>186.0</ele><time>2026-05-02T08:26:24.489Z</time></trkpt><trkpt lat="43.4072254" lon="11.073816"><ele>186.00000000000003</ele><time>2026-05-02T08:26:29.487Z</time></trkpt><trkpt lat="43.4071478" lon="11.0738056"><ele>186.0</ele><time>2026-05-02T08:26:32.563Z</time></trkpt><trkpt lat="43.4070798" lon="11.0738143"><ele>186.2857142857143</ele><time>2026-05-02T08:26:35.49Z</time></trkpt><trkpt lat="43.4070098" lon="11.0738137"><ele>186.57142857142858</ele><time>2026-05-02T08:26:40.488Z</time></trkpt><trkpt lat="43.4069169" lon="11.0737987"><ele>186.85714285714286</ele><time>2026-05-02T08:26:46.483Z</time></trkpt><trkpt lat="43.4068536" lon="11.0737939"><ele>187.14285714285717</ele><time>2026-05-02T08:26:48.495Z</time></trkpt><trkpt lat="43.4067885" lon="11.0737887"><ele>187.42857142857142</ele><time>2026-05-02T08:26:50.498Z</time></trkpt><trkpt lat="43.4067206" lon="11.0737606"><ele>187.71428571428572</ele><time>2026-05-02T08:26:53.481Z</time></trkpt><trkpt lat="43.4066555" lon="11.0737394"><ele>188.0</ele><time>2026-05-02T08:26:56.57Z</time></trkpt><trkpt lat="43.4065779" lon="11.0737521"><ele>188.0</ele><time>2026-05-02T08:27:01.569Z</time></trkpt><trkpt lat="43.4065115" lon="11.0737401"><ele>188.0</ele><time>2026-05-02T08:27:04.498Z</time></trkpt><trkpt lat="43.4064476" lon="11.0737186"><ele>188.0</ele><time>2026-05-02T08:27:07.563Z</time></trkpt><trkpt lat="43.4064013" lon="11.0736566"><ele>188.0</ele><time>2026-05-02T08:27:09.47Z</time></trkpt><trkpt lat="43.4063287" lon="11.0735901"><ele>188.0</ele><time>2026-05-02T08:27:13.48Z</time></trkpt><trkpt lat="43.4062503" lon="11.073587"><ele>188.0</ele><time>2026-05-02T08:27:16.563Z</time></trkpt><trkpt lat="43.4062132" lon="11.0736879"><ele>188.0</ele><time>2026-05-02T08:27:18.49Z</time></trkpt><trkpt lat="43.4061401" lon="11.07368"><ele>188.5</ele><time>2026-05-02T08:27:21.479Z</time></trkpt><trkpt lat="43.406069" lon="11.0736636"><ele>189.0</ele><time>2026-05-02T08:27:24.491Z</time></trkpt><trkpt lat="43.4059906" lon="11.0736536"><ele>189.5</ele><time>2026-05-02T08:27:27.487Z</time></trkpt><trkpt lat="43.4059145" lon="11.0736407"><ele>190.0</ele><time>2026-05-02T08:27:30.558Z</time></trkpt><trkpt lat="43.4058349" lon="11.0736488"><ele>190.5</ele><time>2026-05-02T08:27:34.479Z</time></trkpt><trkpt lat="43.4057791" lon="11.0735858"><ele>191.0</ele><time>2026-05-02T08:27:38.469Z</time></trkpt><trkpt lat="43.4057104" lon="11.073613"><ele>191.0</ele><time>2026-05-02T08:27:45.485Z</time></trkpt><trkpt lat="43.4056545" lon="11.0736906"><ele>191.0</ele><time>2026-05-02T08:27:48.484Z</time></trkpt><trkpt lat="43.4055853" lon="11.0737263"><ele>191.0</ele><time>2026-05-02T08:27:51.554Z</time></trkpt><trkpt lat="43.4055081" lon="11.0737484"><ele>191.0</ele><time>2026-05-02T08:27:56.498Z</time></trkpt><trkpt lat="43.4054487" lon="11.0737823"><ele>191.0</ele><time>2026-05-02T08:27:59.485Z</time></trkpt><trkpt lat="43.4053827" lon="11.0738132"><ele>191.0</ele><time>2026-05-02T08:28:02.555Z</time></trkpt><trkpt lat="43.4053277" lon="11.0738856"><ele>191.0</ele><time>2026-05-02T08:28:04.483Z</time></trkpt><trkpt lat="43.4052738" lon="11.073932"><ele>190.85714285714286</ele><time>2026-05-02T08:28:08.488Z</time></trkpt><trkpt lat="43.4051931" lon="11.0739292"><ele>190.7142857142857</ele><time>2026-05-02T08:28:11.553Z</time></trkpt><trkpt lat="43.4051366" lon="11.073969"><ele>190.57142857142856</ele><time>2026-05-02T08:28:13.479Z</time></trkpt><trkpt lat="43.4050595" lon="11.0740152"><ele>190.42857142857144</ele><time>2026-05-02T08:28:16.551Z</time></trkpt><trkpt lat="43.4049958" lon="11.0740136"><ele>190.28571428571428</ele><time>2026-05-02T08:28:19.467Z</time></trkpt><trkpt lat="43.4049303" lon="11.0740176"><ele>190.14285714285714</ele><time>2026-05-02T08:28:22.562Z</time></trkpt><trkpt lat="43.4048672" lon="11.0740381"><ele>190.0</ele><time>2026-05-02T08:28:25.485Z</time></trkpt><trkpt lat="43.4048046" lon="11.0740615"><ele>190.0</ele><time>2026-05-02T08:28:28.477Z</time></trkpt><trkpt lat="43.4047242" lon="11.0740846"><ele>190.0</ele><time>2026-05-02T08:28:32.489Z</time></trkpt><trkpt lat="43.4046626" lon="11.0741101"><ele>190.0</ele><time>2026-05-02T08:28:35.478Z</time></trkpt><trkpt lat="43.4046002" lon="11.0741919"><ele>190.0</ele><time>2026-05-02T08:28:38.467Z</time></trkpt><trkpt lat="43.4045298" lon="11.0742021"><ele>190.0</ele><time>2026-05-02T08:28:42.553Z</time></trkpt><trkpt lat="43.4044647" lon="11.0742244"><ele>190.0</ele><time>2026-05-02T08:28:46.541Z</time></trkpt><trkpt lat="43.4044216" lon="11.0742944"><ele>190.0</ele><time>2026-05-02T08:28:51.554Z</time></trkpt><trkpt lat="43.4043522" lon="11.0743529"><ele>190.85714285714286</ele><time>2026-05-02T08:28:54.492Z</time></trkpt><trkpt lat="43.4042832" lon="11.0744078"><ele>191.71428571428572</ele><time>2026-05-02T08:28:57.465Z</time></trkpt><trkpt lat="43.4042295" lon="11.0744549"><ele>192.57142857142856</ele><time>2026-05-02T08:29:01.473Z</time></trkpt><trkpt lat="43.4041751" lon="11.0744995"><ele>193.42857142857144</ele><time>2026-05-02T08:29:06.48Z</time></trkpt><trkpt lat="43.4041205" lon="11.0745452"><ele>194.28571428571428</ele><time>2026-05-02T08:29:11.482Z</time></trkpt><trkpt lat="43.4040509" lon="11.0745838"><ele>195.14285714285714</ele><time>2026-05-02T08:29:19.487Z</time></trkpt><trkpt lat="43.4040092" lon="11.0746583"><ele>196.0</ele><time>2026-05-02T08:29:23.458Z</time></trkpt><trkpt lat="43.4039444" lon="11.0746736"><ele>197.20000000000002</ele><time>2026-05-02T08:29:29.49Z</time></trkpt><trkpt lat="43.4037776" lon="11.0747486"><ele>198.4</ele><time>2026-05-02T08:29:39.484Z</time></trkpt><trkpt lat="43.4037093" lon="11.074735"><ele>199.6</ele><time>2026-05-02T08:29:44.49Z</time></trkpt><trkpt lat="43.4036538" lon="11.0746516"><ele>200.8</ele><time>2026-05-02T08:29:54.482Z</time></trkpt><trkpt lat="43.4035847" lon="11.074616"><ele>202.0</ele><time>2026-05-02T08:29:57.567Z</time></trkpt><trkpt lat="43.4035224" lon="11.0745997"><ele>201.99999999999997</ele><time>2026-05-02T08:30:02.55Z</time></trkpt><trkpt lat="43.4034525" lon="11.0745335"><ele>202.0</ele><time>2026-05-02T08:30:09.486Z</time></trkpt><trkpt lat="43.4033903" lon="11.0745058"><ele>202.0</ele><time>2026-05-02T08:30:12.477Z</time></trkpt><trkpt lat="43.4033223" lon="11.0744677"><ele>202.0</ele><time>2026-05-02T08:30:16.561Z</time></trkpt><trkpt lat="43.4032562" lon="11.0744797"><ele>201.99999999999997</ele><time>2026-05-02T08:30:19.498Z</time></trkpt><trkpt lat="43.4032163" lon="11.0745738"><ele>202.0</ele><time>2026-05-02T08:30:23.462Z</time></trkpt><trkpt lat="43.4031945" lon="11.0744632"><ele>202.0</ele><time>2026-05-02T08:30:43.481Z</time></trkpt><trkpt lat="43.4031764" lon="11.0743727"><ele>202.0</ele><time>2026-05-02T08:30:48.476Z</time></trkpt><trkpt lat="43.4031283" lon="11.0742981"><ele>202.0</ele><time>2026-05-02T08:30:52.548Z</time></trkpt><trkpt lat="43.4030998" lon="11.074219"><ele>202.0</ele><time>2026-05-02T08:30:56.544Z</time></trkpt><trkpt lat="43.4030403" lon="11.074179"><ele>202.0</ele><time>2026-05-02T08:30:59.492Z</time></trkpt><trkpt lat="43.4029505" lon="11.0741608"><ele>202.0</ele><time>2026-05-02T08:31:02.553Z</time></trkpt><trkpt lat="43.4028675" lon="11.0741345"><ele>202.0</ele><time>2026-05-02T08:31:05.471Z</time></trkpt><trkpt lat="43.4027872" lon="11.0741232"><ele>203.42857142857142</ele><time>2026-05-02T08:31:12.551Z</time></trkpt><trkpt lat="43.4026982" lon="11.0741429"><ele>204.85714285714283</ele><time>2026-05-02T08:31:19.478Z</time></trkpt><trkpt lat="43.4026336" lon="11.074153"><ele>206.28571428571428</ele><time>2026-05-02T08:31:22.478Z</time></trkpt><trkpt lat="43.4025701" lon="11.0741899"><ele>207.71428571428572</ele><time>2026-05-02T08:31:25.493Z</time></trkpt><trkpt lat="43.4025125" lon="11.0742254"><ele>209.14285714285714</ele><time>2026-05-02T08:31:28.497Z</time></trkpt><trkpt lat="43.4024503" lon="11.0742043"><ele>210.57142857142858</ele><time>2026-05-02T08:31:37.557Z</time></trkpt><trkpt lat="43.4024099" lon="11.0742828"><ele>212.0</ele><time>2026-05-02T08:31:39.467Z</time></trkpt><trkpt lat="43.4023454" lon="11.0742067"><ele>212.0</ele><time>2026-05-02T08:31:43.472Z</time></trkpt><trkpt lat="43.4022732" lon="11.0741232"><ele>212.0</ele><time>2026-05-02T08:31:46.569Z</time></trkpt><trkpt lat="43.4022063" lon="11.0740836"><ele>212.0</ele><time>2026-05-02T08:31:49.476Z</time></trkpt><trkpt lat="43.4021607" lon="11.0739915"><ele>212.0</ele><time>2026-05-02T08:31:53.499Z</time></trkpt><trkpt lat="43.4021094" lon="11.0738758"><ele>212.0</ele><time>2026-05-02T08:31:56.555Z</time></trkpt><trkpt lat="43.4020413" lon="11.0737456"><ele>211.83333333333334</ele><time>2026-05-02T08:31:58.469Z</time></trkpt><trkpt lat="43.4019549" lon="11.0736287"><ele>211.66666666666669</ele><time>2026-05-02T08:32:00.483Z</time></trkpt><trkpt lat="43.4019092" lon="11.0735324"><ele>211.5</ele><time>2026-05-02T08:32:02.555Z</time></trkpt><trkpt lat="43.4018845" lon="11.0734511"><ele>211.33333333333331</ele><time>2026-05-02T08:32:04.49Z</time></trkpt><trkpt lat="43.4018522" lon="11.073375"><ele>211.16666666666666</ele><time>2026-05-02T08:32:06.564Z</time></trkpt><trkpt lat="43.401792" lon="11.0733055"><ele>211.0</ele><time>2026-05-02T08:32:09.486Z</time></trkpt><trkpt lat="43.401752" lon="11.0732128"><ele>208.99999999999997</ele><time>2026-05-02T08:32:11.563Z</time></trkpt><trkpt lat="43.4016735" lon="11.0731127"><ele>207.0</ele><time>2026-05-02T08:32:14.471Z</time></trkpt><trkpt lat="43.4016065" lon="11.0730698"><ele>205.0</ele><time>2026-05-02T08:32:16.572Z</time></trkpt><trkpt lat="43.4015431" lon="11.0730534"><ele>203.0</ele><time>2026-05-02T08:32:19.487Z</time></trkpt><trkpt lat="43.4014606" lon="11.0730221"><ele>200.99999999999997</ele><time>2026-05-02T08:32:24.472Z</time></trkpt><trkpt lat="43.4013977" lon="11.0729879"><ele>199.0</ele><time>2026-05-02T08:32:28.476Z</time></trkpt><trkpt lat="43.4013327" lon="11.072942"><ele>200.7142857142857</ele><time>2026-05-02T08:32:32.546Z</time></trkpt><trkpt lat="43.4012659" lon="11.0729195"><ele>202.42857142857142</ele><time>2026-05-02T08:32:38.495Z</time></trkpt><trkpt lat="43.4012043" lon="11.0728973"><ele>204.14285714285714</ele><time>2026-05-02T08:32:41.558Z</time></trkpt><trkpt lat="43.4011404" lon="11.0728741"><ele>205.85714285714283</ele><time>2026-05-02T08:32:44.476Z</time></trkpt><trkpt lat="43.4010684" lon="11.072849"><ele>207.57142857142858</ele><time>2026-05-02T08:32:48.494Z</time></trkpt><trkpt lat="43.4009945" lon="11.0728777"><ele>209.28571428571428</ele><time>2026-05-02T08:32:54.474Z</time></trkpt><trkpt lat="43.4009269" lon="11.0728876"><ele>211.0</ele><time>2026-05-02T08:33:01.482Z</time></trkpt><trkpt lat="43.400952" lon="11.0728039"><ele>211.0</ele><time>2026-05-02T08:33:12.56Z</time></trkpt><trkpt lat="43.4009287" lon="11.0726907"><ele>211.0</ele><time>2026-05-02T08:33:45.484Z</time></trkpt><trkpt lat="43.4008641" lon="11.0726294"><ele>211.0</ele><time>2026-05-02T08:33:47.564Z</time></trkpt><trkpt lat="43.4007832" lon="11.0725647"><ele>211.0</ele><time>2026-05-02T08:33:49.477Z</time></trkpt><trkpt lat="43.4007303" lon="11.0724263"><ele>211.0</ele><time>2026-05-02T08:33:51.554Z</time></trkpt><trkpt lat="43.4006631" lon="11.0722944"><ele>210.14285714285714</ele><time>2026-05-02T08:33:53.478Z</time></trkpt><trkpt lat="43.4006242" lon="11.0722139"><ele>209.28571428571428</ele><time>2026-05-02T08:33:54.486Z</time></trkpt><trkpt lat="43.4005781" lon="11.0721468"><ele>208.42857142857144</ele><time>2026-05-02T08:33:55.477Z</time></trkpt><trkpt lat="43.4005271" lon="11.0720669"><ele>207.57142857142856</ele><time>2026-05-02T08:33:56.557Z</time></trkpt><trkpt lat="43.4004761" lon="11.0719996"><ele>206.7142857142857</ele><time>2026-05-02T08:33:57.559Z</time></trkpt><trkpt lat="43.4004178" lon="11.0719438"><ele>205.85714285714286</ele><time>2026-05-02T08:33:58.477Z</time></trkpt><trkpt lat="43.4003488" lon="11.0718633"><ele>205.0</ele><time>2026-05-02T08:33:59.49Z</time></trkpt><trkpt lat="43.400284" lon="11.0717883"><ele>204.99999999999997</ele><time>2026-05-02T08:34:00.489Z</time></trkpt><trkpt lat="43.4002251" lon="11.0717098"><ele>205.0</ele><time>2026-05-02T08:34:01.465Z</time></trkpt><trkpt lat="43.4001696" lon="11.0716357"><ele>205.0</ele><time>2026-05-02T08:34:02.47Z</time></trkpt><trkpt lat="43.4001011" lon="11.0715654"><ele>205.0</ele><time>2026-05-02T08:34:03.491Z</time></trkpt><trkpt lat="43.4000331" lon="11.0714883"><ele>204.99999999999997</ele><time>2026-05-02T08:34:04.489Z</time></trkpt><trkpt lat="43.3999716" lon="11.0714324"><ele>205.0</ele><time>2026-05-02T08:34:05.488Z</time></trkpt><trkpt lat="43.3999117" lon="11.071367"><ele>203.49999999999997</ele><time>2026-05-02T08:34:06.491Z</time></trkpt><trkpt lat="43.399849" lon="11.0712929"><ele>202.0</ele><time>2026-05-02T08:34:07.475Z</time></trkpt><trkpt lat="43.3997821" lon="11.0712148"><ele>200.5</ele><time>2026-05-02T08:34:08.488Z</time></trkpt><trkpt lat="43.399716" lon="11.0711287"><ele>199.0</ele><time>2026-05-02T08:34:09.462Z</time></trkpt><trkpt lat="43.39965" lon="11.0710475"><ele>197.49999999999997</ele><time>2026-05-02T08:34:10.47Z</time></trkpt><trkpt lat="43.3995872" lon="11.070973"><ele>196.0</ele><time>2026-05-02T08:34:11.485Z</time></trkpt><trkpt lat="43.3995308" lon="11.0709081"><ele>195.99999999999997</ele><time>2026-05-02T08:34:12.473Z</time></trkpt><trkpt lat="43.3994842" lon="11.0708458"><ele>196.0</ele><time>2026-05-02T08:34:13.497Z</time></trkpt><trkpt lat="43.3994076" lon="11.0707636"><ele>196.0</ele><time>2026-05-02T08:34:15.487Z</time></trkpt><trkpt lat="43.3993267" lon="11.0707446"><ele>196.0</ele><time>2026-05-02T08:34:17.542Z</time></trkpt><trkpt lat="43.3992209" lon="11.0707961"><ele>195.99999999999997</ele><time>2026-05-02T08:34:19.48Z</time></trkpt><trkpt lat="43.3991426" lon="11.0708338"><ele>196.0</ele><time>2026-05-02T08:34:21.557Z</time></trkpt><trkpt lat="43.3990709" lon="11.0708859"><ele>195.99999999999997</ele><time>2026-05-02T08:34:24.489Z</time></trkpt><trkpt lat="43.3990119" lon="11.070934"><ele>196.0</ele><time>2026-05-02T08:34:26.562Z</time></trkpt><trkpt lat="43.3989417" lon="11.07101"><ele>196.0</ele><time>2026-05-02T08:34:28.481Z</time></trkpt><trkpt lat="43.3988867" lon="11.071054"><ele>196.0</ele><time>2026-05-02T08:34:30.482Z</time></trkpt><trkpt lat="43.3988155" lon="11.0710908"><ele>195.99999999999997</ele><time>2026-05-02T08:34:32.565Z</time></trkpt><trkpt lat="43.3987458" lon="11.0711425"><ele>196.0</ele><time>2026-05-02T08:34:34.487Z</time></trkpt><trkpt lat="43.3986788" lon="11.0711913"><ele>195.66666666666666</ele><time>2026-05-02T08:34:36.57Z</time></trkpt><trkpt lat="43.3986158" lon="11.0712371"><ele>195.33333333333331</ele><time>2026-05-02T08:34:38.483Z</time></trkpt><trkpt lat="43.3985567" lon="11.0712744"><ele>195.0</ele><time>2026-05-02T08:34:40.478Z</time></trkpt><trkpt lat="43.3984828" lon="11.0713226"><ele>194.66666666666669</ele><time>2026-05-02T08:34:43.483Z</time></trkpt><trkpt lat="43.3984113" lon="11.071371"><ele>194.33333333333334</ele><time>2026-05-02T08:34:46.564Z</time></trkpt><trkpt lat="43.398346" lon="11.0714314"><ele>194.0</ele><time>2026-05-02T08:34:50.482Z</time></trkpt><trkpt lat="43.398272" lon="11.0715268"><ele>194.0</ele><time>2026-05-02T08:34:53.479Z</time></trkpt><trkpt lat="43.3982163" lon="11.0715714"><ele>194.0</ele><time>2026-05-02T08:34:57.565Z</time></trkpt><trkpt lat="43.3981521" lon="11.0716188"><ele>194.0</ele><time>2026-05-02T08:35:00.477Z</time></trkpt><trkpt lat="43.3980829" lon="11.0716488"><ele>194.0</ele><time>2026-05-02T08:35:03.492Z</time></trkpt><trkpt lat="43.3980189" lon="11.0716702"><ele>194.0</ele><time>2026-05-02T08:35:06.501Z</time></trkpt><trkpt lat="43.3979535" lon="11.0717286"><ele>194.0</ele><time>2026-05-02T08:35:10.482Z</time></trkpt><trkpt lat="43.3978874" lon="11.071773"><ele>194.0</ele><time>2026-05-02T08:35:13.478Z</time></trkpt><trkpt lat="43.3978257" lon="11.0718169"><ele>195.0</ele><time>2026-05-02T08:35:17.479Z</time></trkpt><trkpt lat="43.3977679" lon="11.071882"><ele>196.0</ele><time>2026-05-02T08:35:23.487Z</time></trkpt><trkpt lat="43.3977067" lon="11.0719224"><ele>197.0</ele><time>2026-05-02T08:35:27.492Z</time></trkpt><trkpt lat="43.3976346" lon="11.0719646"><ele>198.0</ele><time>2026-05-02T08:35:31.49Z</time></trkpt><trkpt lat="43.3975762" lon="11.0719996"><ele>199.0</ele><time>2026-05-02T08:35:34.5Z</time></trkpt><trkpt lat="43.3975009" lon="11.0720612"><ele>200.0</ele><time>2026-05-02T08:35:37.488Z</time></trkpt><trkpt lat="43.3974331" lon="11.0720841"><ele>201.0</ele><time>2026-05-02T08:35:39.489Z</time></trkpt><trkpt lat="43.3973641" lon="11.0721055"><ele>201.0</ele><time>2026-05-02T08:35:41.573Z</time></trkpt><trkpt lat="43.3972621" lon="11.0720901"><ele>201.0</ele><time>2026-05-02T08:35:44.483Z</time></trkpt><trkpt lat="43.3971419" lon="11.0720624"><ele>201.0</ele><time>2026-05-02T08:35:46.487Z</time></trkpt><trkpt lat="43.3970713" lon="11.0720504"><ele>201.0</ele><time>2026-05-02T08:35:47.481Z</time></trkpt><trkpt lat="43.3970101" lon="11.0720245"><ele>201.0</ele><time>2026-05-02T08:35:48.484Z</time></trkpt><trkpt lat="43.3969412" lon="11.0719269"><ele>202.25</ele><time>2026-05-02T08:35:50.501Z</time></trkpt><trkpt lat="43.3968798" lon="11.0718459"><ele>203.5</ele><time>2026-05-02T08:35:52.474Z</time></trkpt><trkpt lat="43.3967159" lon="11.0715894"><ele>204.75</ele><time>2026-05-02T08:36:01.471Z</time></trkpt><trkpt lat="43.396706" lon="11.0714976"><ele>206.0</ele><time>2026-05-02T08:36:06.556Z</time></trkpt><trkpt lat="43.3966438" lon="11.0714601"><ele>206.28571428571428</ele><time>2026-05-02T08:36:09.476Z</time></trkpt><trkpt lat="43.3966298" lon="11.0713723"><ele>206.57142857142856</ele><time>2026-05-02T08:36:12.54Z</time></trkpt><trkpt lat="43.3966012" lon="11.0712945"><ele>206.85714285714283</ele><time>2026-05-02T08:36:14.479Z</time></trkpt><trkpt lat="43.3965912" lon="11.0712068"><ele>207.14285714285714</ele><time>2026-05-02T08:36:17.461Z</time></trkpt><trkpt lat="43.3965802" lon="11.0711105"><ele>207.42857142857144</ele><time>2026-05-02T08:36:21.481Z</time></trkpt><trkpt lat="43.3965957" lon="11.0710072"><ele>207.7142857142857</ele><time>2026-05-02T08:36:26.547Z</time></trkpt><trkpt lat="43.3965768" lon="11.0708924"><ele>208.0</ele><time>2026-05-02T08:36:30.483Z</time></trkpt><trkpt lat="43.3965846" lon="11.0707908"><ele>208.16666666666666</ele><time>2026-05-02T08:36:34.49Z</time></trkpt><trkpt lat="43.3965573" lon="11.0706729"><ele>208.33333333333331</ele><time>2026-05-02T08:36:40.476Z</time></trkpt><trkpt lat="43.3965278" lon="11.0705823"><ele>208.5</ele><time>2026-05-02T08:36:45.478Z</time></trkpt><trkpt lat="43.396498" lon="11.0704862"><ele>208.66666666666669</ele><time>2026-05-02T08:36:48.476Z</time></trkpt><trkpt lat="43.3964411" lon="11.0703883"><ele>208.83333333333334</ele><time>2026-05-02T08:36:51.48Z</time></trkpt><trkpt lat="43.3963976" lon="11.0702853"><ele>209.0</ele><time>2026-05-02T08:36:54.485Z</time></trkpt><trkpt lat="43.3963555" lon="11.0702104"><ele>210.57142857142856</ele><time>2026-05-02T08:36:57.488Z</time></trkpt><trkpt lat="43.396316" lon="11.0701279"><ele>212.14285714285714</ele><time>2026-05-02T08:37:00.486Z</time></trkpt><trkpt lat="43.396282" lon="11.0700276"><ele>213.71428571428572</ele><time>2026-05-02T08:37:04.489Z</time></trkpt><trkpt lat="43.396251" lon="11.069927"><ele>215.28571428571428</ele><time>2026-05-02T08:37:08.486Z</time></trkpt><trkpt lat="43.3962105" lon="11.0698572"><ele>216.85714285714286</ele><time>2026-05-02T08:37:11.475Z</time></trkpt><trkpt lat="43.3961557" lon="11.0697862"><ele>218.42857142857142</ele><time>2026-05-02T08:37:14.485Z</time></trkpt><trkpt lat="43.3960963" lon="11.069718"><ele>220.0</ele><time>2026-05-02T08:37:18.555Z</time></trkpt><trkpt lat="43.3960688" lon="11.0696312"><ele>220.0</ele><time>2026-05-02T08:37:22.481Z</time></trkpt><trkpt lat="43.396032" lon="11.0695494"><ele>220.0</ele><time>2026-05-02T08:37:26.478Z</time></trkpt><trkpt lat="43.3960016" lon="11.0694702"><ele>220.0</ele><time>2026-05-02T08:37:30.491Z</time></trkpt><trkpt lat="43.3958993" lon="11.069182"><ele>220.0</ele><time>2026-05-02T08:37:35.473Z</time></trkpt><trkpt lat="43.395875" lon="11.0690829"><ele>220.0</ele><time>2026-05-02T08:37:37.546Z</time></trkpt><trkpt lat="43.3958418" lon="11.0689966"><ele>218.83333333333331</ele><time>2026-05-02T08:37:41.553Z</time></trkpt><trkpt lat="43.3958057" lon="11.0689021"><ele>217.66666666666666</ele><time>2026-05-02T08:37:47.567Z</time></trkpt><trkpt lat="43.395811" lon="11.0688055"><ele>216.5</ele><time>2026-05-02T08:37:50.474Z</time></trkpt><trkpt lat="43.3957933" lon="11.068712"><ele>215.33333333333331</ele><time>2026-05-02T08:37:53.486Z</time></trkpt><trkpt lat="43.3957169" lon="11.0686928"><ele>214.16666666666666</ele><time>2026-05-02T08:37:56.472Z</time></trkpt><trkpt lat="43.3956344" lon="11.0686389"><ele>213.0</ele><time>2026-05-02T08:37:59.475Z</time></trkpt><trkpt lat="43.3955704" lon="11.0685779"><ele>213.0</ele><time>2026-05-02T08:38:03.481Z</time></trkpt><trkpt lat="43.3955513" lon="11.0684784"><ele>213.0</ele><time>2026-05-02T08:38:09.475Z</time></trkpt><trkpt lat="43.3955123" lon="11.068376"><ele>213.0</ele><time>2026-05-02T08:38:13.465Z</time></trkpt><trkpt lat="43.3954589" lon="11.0682353"><ele>213.0</ele><time>2026-05-02T08:38:16.551Z</time></trkpt><trkpt lat="43.395412" lon="11.0681731"><ele>213.0</ele><time>2026-05-02T08:38:18.467Z</time></trkpt><trkpt lat="43.3953623" lon="11.0681016"><ele>213.0</ele><time>2026-05-02T08:38:22.555Z</time></trkpt><trkpt lat="43.3953031" lon="11.0680426"><ele>215.85714285714283</ele><time>2026-05-02T08:38:26.562Z</time></trkpt><trkpt lat="43.3952717" lon="11.0679456"><ele>218.71428571428572</ele><time>2026-05-02T08:38:29.483Z</time></trkpt><trkpt lat="43.3952162" lon="11.0679031"><ele>221.57142857142856</ele><time>2026-05-02T08:38:35.48Z</time></trkpt><trkpt lat="43.395154" lon="11.0678876"><ele>224.42857142857142</ele><time>2026-05-02T08:38:41.474Z</time></trkpt><trkpt lat="43.3950859" lon="11.0678656"><ele>227.28571428571428</ele><time>2026-05-02T08:38:47.569Z</time></trkpt><trkpt lat="43.3950372" lon="11.0678065"><ele>230.14285714285714</ele><time>2026-05-02T08:38:51.554Z</time></trkpt><trkpt lat="43.3949868" lon="11.0677334"><ele>233.0</ele><time>2026-05-02T08:38:56.546Z</time></trkpt><trkpt lat="43.3949434" lon="11.0676678"><ele>233.0</ele><time>2026-05-02T08:39:03.483Z</time></trkpt><trkpt lat="43.3948975" lon="11.0675938"><ele>233.0</ele><time>2026-05-02T08:39:09.481Z</time></trkpt><trkpt lat="43.3948648" lon="11.0675196"><ele>233.0</ele><time>2026-05-02T08:39:17.562Z</time></trkpt><trkpt lat="43.3948453" lon="11.0674203"><ele>233.0</ele><time>2026-05-02T08:39:20.479Z</time></trkpt><trkpt lat="43.3948168" lon="11.0673333"><ele>233.0</ele><time>2026-05-02T08:39:23.468Z</time></trkpt><trkpt lat="43.3947543" lon="11.067279"><ele>233.0</ele><time>2026-05-02T08:39:26.554Z</time></trkpt><trkpt lat="43.3947148" lon="11.0672005"><ele>233.0</ele><time>2026-05-02T08:39:30.478Z</time></trkpt><trkpt lat="43.39467" lon="11.0671307"><ele>234.85714285714286</ele><time>2026-05-02T08:39:39.48Z</time></trkpt><trkpt lat="43.3946176" lon="11.0670566"><ele>236.71428571428572</ele><time>2026-05-02T08:39:44.47Z</time></trkpt><trkpt lat="43.3945789" lon="11.066957"><ele>238.57142857142858</ele><time>2026-05-02T08:39:50.476Z</time></trkpt><trkpt lat="43.3945542" lon="11.0668745"><ele>240.42857142857144</ele><time>2026-05-02T08:39:57.544Z</time></trkpt><trkpt lat="43.3944923" lon="11.0668149"><ele>242.28571428571428</ele><time>2026-05-02T08:40:03.471Z</time></trkpt><trkpt lat="43.3944561" lon="11.0667308"><ele>244.14285714285717</ele><time>2026-05-02T08:40:06.552Z</time></trkpt><trkpt lat="43.3944239" lon="11.0666457"><ele>246.00000000000003</ele><time>2026-05-02T08:40:09.475Z</time></trkpt><trkpt lat="43.3944116" lon="11.0665584"><ele>246.00000000000003</ele><time>2026-05-02T08:40:13.487Z</time></trkpt><trkpt lat="43.3943707" lon="11.0664888"><ele>246.0</ele><time>2026-05-02T08:40:17.484Z</time></trkpt><trkpt lat="43.3943425" lon="11.0663956"><ele>246.00000000000003</ele><time>2026-05-02T08:40:22.546Z</time></trkpt><trkpt lat="43.3943454" lon="11.0662923"><ele>246.00000000000003</ele><time>2026-05-02T08:40:26.559Z</time></trkpt><trkpt lat="43.3943118" lon="11.0661985"><ele>246.0</ele><time>2026-05-02T08:40:29.477Z</time></trkpt><trkpt lat="43.3942609" lon="11.066134"><ele>246.00000000000003</ele><time>2026-05-02T08:40:32.557Z</time></trkpt><trkpt lat="43.3941973" lon="11.0661541"><ele>246.00000000000003</ele><time>2026-05-02T08:40:39.485Z</time></trkpt><trkpt lat="43.3941241" lon="11.0661471"><ele>246.0</ele><time>2026-05-02T08:40:49.48Z</time></trkpt><trkpt lat="43.3940502" lon="11.0661304"><ele>246.0</ele><time>2026-05-02T08:40:53.473Z</time></trkpt><trkpt lat="43.3939818" lon="11.066115"><ele>246.0</ele><time>2026-05-02T08:40:57.543Z</time></trkpt><trkpt lat="43.3939051" lon="11.0661166"><ele>246.0</ele><time>2026-05-02T08:41:01.565Z</time></trkpt><trkpt lat="43.3938428" lon="11.0661521"><ele>246.0</ele><time>2026-05-02T08:41:09.488Z</time></trkpt><trkpt lat="43.3937701" lon="11.0661979"><ele>246.0</ele><time>2026-05-02T08:41:12.562Z</time></trkpt><trkpt lat="43.3936887" lon="11.0662001"><ele>247.5714285714286</ele><time>2026-05-02T08:41:16.558Z</time></trkpt><trkpt lat="43.3936271" lon="11.0662227"><ele>249.14285714285717</ele><time>2026-05-02T08:41:19.486Z</time></trkpt><trkpt lat="43.3935492" lon="11.0662404"><ele>250.71428571428572</ele><time>2026-05-02T08:41:23.487Z</time></trkpt><trkpt lat="43.393518" lon="11.0663159"><ele>252.2857142857143</ele><time>2026-05-02T08:41:26.492Z</time></trkpt><trkpt lat="43.3934867" lon="11.0663977"><ele>253.8571428571429</ele><time>2026-05-02T08:41:29.485Z</time></trkpt><trkpt lat="43.3934634" lon="11.0664884"><ele>255.42857142857142</ele><time>2026-05-02T08:41:33.566Z</time></trkpt><trkpt lat="43.3934063" lon="11.066526"><ele>257.0</ele><time>2026-05-02T08:41:36.486Z</time></trkpt><trkpt lat="43.3933732" lon="11.0666004"><ele>256.83333333333337</ele><time>2026-05-02T08:41:39.486Z</time></trkpt><trkpt lat="43.3933841" lon="11.066701"><ele>256.6666666666667</ele><time>2026-05-02T08:41:42.563Z</time></trkpt><trkpt lat="43.3934081" lon="11.0667869"><ele>256.5</ele><time>2026-05-02T08:41:47.488Z</time></trkpt><trkpt lat="43.3933977" lon="11.0668939"><ele>256.3333333333333</ele><time>2026-05-02T08:41:50.485Z</time></trkpt><trkpt lat="43.3934363" lon="11.0670035"><ele>256.16666666666663</ele><time>2026-05-02T08:41:54.495Z</time></trkpt><trkpt lat="43.393457" lon="11.0671005"><ele>256.0</ele><time>2026-05-02T08:41:58.481Z</time></trkpt><trkpt lat="43.3934807" lon="11.0671966"><ele>256.0</ele><time>2026-05-02T08:42:02.493Z</time></trkpt><trkpt lat="43.3935047" lon="11.0672937"><ele>255.99999999999997</ele><time>2026-05-02T08:42:07.565Z</time></trkpt><trkpt lat="43.3935315" lon="11.0673817"><ele>256.0</ele><time>2026-05-02T08:42:10.488Z</time></trkpt><trkpt lat="43.3935802" lon="11.0674484"><ele>256.0</ele><time>2026-05-02T08:42:14.477Z</time></trkpt><trkpt lat="43.3936395" lon="11.0675321"><ele>255.99999999999997</ele><time>2026-05-02T08:42:18.461Z</time></trkpt><trkpt lat="43.3936779" lon="11.0676024"><ele>256.0</ele><time>2026-05-02T08:42:20.487Z</time></trkpt><trkpt lat="43.3937071" lon="11.0677164"><ele>256.0</ele><time>2026-05-02T08:42:23.49Z</time></trkpt><trkpt lat="43.3937322" lon="11.0678031"><ele>256.16666666666663</ele><time>2026-05-02T08:42:25.492Z</time></trkpt><trkpt lat="43.3937784" lon="11.0678863"><ele>256.3333333333333</ele><time>2026-05-02T08:42:27.478Z</time></trkpt><trkpt lat="43.3938371" lon="11.067946"><ele>256.5</ele><time>2026-05-02T08:42:29.479Z</time></trkpt><trkpt lat="43.3939014" lon="11.0680145"><ele>256.6666666666667</ele><time>2026-05-02T08:42:32.464Z</time></trkpt><trkpt lat="43.3939376" lon="11.068105"><ele>256.83333333333337</ele><time>2026-05-02T08:42:36.458Z</time></trkpt><trkpt lat="43.393986" lon="11.0682217"><ele>257.0</ele><time>2026-05-02T08:42:46.563Z</time></trkpt><trkpt lat="43.3939486" lon="11.0683094"><ele>257.2857142857143</ele><time>2026-05-02T08:42:50.478Z</time></trkpt><trkpt lat="43.3938999" lon="11.0683876"><ele>257.57142857142856</ele><time>2026-05-02T08:42:55.483Z</time></trkpt><trkpt lat="43.3938247" lon="11.0684324"><ele>257.8571428571429</ele><time>2026-05-02T08:42:59.561Z</time></trkpt><trkpt lat="43.3937629" lon="11.0684718"><ele>258.1428571428571</ele><time>2026-05-02T08:43:02.487Z</time></trkpt><trkpt lat="43.3936981" lon="11.0685144"><ele>258.42857142857144</ele><time>2026-05-02T08:43:06.502Z</time></trkpt><trkpt lat="43.393626" lon="11.0685539"><ele>258.7142857142857</ele><time>2026-05-02T08:43:10.485Z</time></trkpt><trkpt lat="43.3935599" lon="11.0685973"><ele>259.0</ele><time>2026-05-02T08:43:13.556Z</time></trkpt><trkpt lat="43.3935354" lon="11.0686935"><ele>259.57142857142856</ele><time>2026-05-02T08:43:17.477Z</time></trkpt><trkpt lat="43.3935108" lon="11.0687782"><ele>260.1428571428571</ele><time>2026-05-02T08:43:20.468Z</time></trkpt><trkpt lat="43.3934559" lon="11.0688322"><ele>260.7142857142857</ele><time>2026-05-02T08:43:23.567Z</time></trkpt><trkpt lat="43.3933986" lon="11.0688911"><ele>261.2857142857143</ele><time>2026-05-02T08:43:27.478Z</time></trkpt><trkpt lat="43.3933308" lon="11.0689184"><ele>261.85714285714283</ele><time>2026-05-02T08:43:33.552Z</time></trkpt><trkpt lat="43.3932543" lon="11.0689463"><ele>262.42857142857144</ele><time>2026-05-02T08:43:37.486Z</time></trkpt><trkpt lat="43.393196" lon="11.0690084"><ele>263.0</ele><time>2026-05-02T08:43:41.48Z</time></trkpt><trkpt lat="43.3931417" lon="11.0690568"><ele>263.1666666666667</ele><time>2026-05-02T08:43:44.462Z</time></trkpt><trkpt lat="43.3930881" lon="11.0691101"><ele>263.33333333333337</ele><time>2026-05-02T08:43:47.556Z</time></trkpt><trkpt lat="43.3930409" lon="11.0691885"><ele>263.5</ele><time>2026-05-02T08:43:52.475Z</time></trkpt><trkpt lat="43.3929766" lon="11.0692486"><ele>263.6666666666667</ele><time>2026-05-02T08:43:58.56Z</time></trkpt><trkpt lat="43.3929199" lon="11.069313"><ele>263.8333333333333</ele><time>2026-05-02T08:44:03.554Z</time></trkpt><trkpt lat="43.3928711" lon="11.069404"><ele>264.0</ele><time>2026-05-02T08:44:06.488Z</time></trkpt><trkpt lat="43.3927956" lon="11.069423"><ele>264.6666666666667</ele><time>2026-05-02T08:44:09.479Z</time></trkpt><trkpt lat="43.392718" lon="11.0694282"><ele>265.3333333333333</ele><time>2026-05-02T08:44:12.477Z</time></trkpt><trkpt lat="43.3926412" lon="11.0694579"><ele>266.0</ele><time>2026-05-02T08:44:15.476Z</time></trkpt><trkpt lat="43.3925979" lon="11.0695294"><ele>266.66666666666663</ele><time>2026-05-02T08:44:17.471Z</time></trkpt><trkpt lat="43.3925537" lon="11.069614"><ele>267.3333333333333</ele><time>2026-05-02T08:44:19.479Z</time></trkpt><trkpt lat="43.3925005" lon="11.0697012"><ele>268.0</ele><time>2026-05-02T08:44:22.48Z</time></trkpt><trkpt lat="43.3924466" lon="11.0697584"><ele>268.0</ele><time>2026-05-02T08:44:25.478Z</time></trkpt><trkpt lat="43.3924084" lon="11.0698552"><ele>268.0</ele><time>2026-05-02T08:44:29.478Z</time></trkpt><trkpt lat="43.3923793" lon="11.0699342"><ele>268.0</ele><time>2026-05-02T08:44:32.487Z</time></trkpt><trkpt lat="43.3923468" lon="11.0700475"><ele>268.0</ele><time>2026-05-02T08:44:35.503Z</time></trkpt><trkpt lat="43.3923033" lon="11.070156"><ele>268.0</ele><time>2026-05-02T08:44:37.482Z</time></trkpt><trkpt lat="43.3922369" lon="11.0702839"><ele>268.0</ele><time>2026-05-02T08:44:45.482Z</time></trkpt><trkpt lat="43.3921782" lon="11.0703366"><ele>268.8571428571429</ele><time>2026-05-02T08:44:48.493Z</time></trkpt><trkpt lat="43.3921113" lon="11.0703919"><ele>269.7142857142857</ele><time>2026-05-02T08:44:53.555Z</time></trkpt><trkpt lat="43.3920612" lon="11.0704538"><ele>270.57142857142856</ele><time>2026-05-02T08:44:57.476Z</time></trkpt><trkpt lat="43.3919893" lon="11.0704332"><ele>271.42857142857144</ele><time>2026-05-02T08:45:02.481Z</time></trkpt><trkpt lat="43.3919402" lon="11.0705301"><ele>272.2857142857143</ele><time>2026-05-02T08:45:07.473Z</time></trkpt><trkpt lat="43.3918895" lon="11.0705871"><ele>273.14285714285717</ele><time>2026-05-02T08:45:10.463Z</time></trkpt><trkpt lat="43.3918267" lon="11.0706532"><ele>274.0</ele><time>2026-05-02T08:45:13.552Z</time></trkpt><trkpt lat="43.391766" lon="11.0707383"><ele>274.42857142857144</ele><time>2026-05-02T08:45:16.474Z</time></trkpt><trkpt lat="43.3917315" lon="11.0708117"><ele>274.8571428571429</ele><time>2026-05-02T08:45:20.477Z</time></trkpt><trkpt lat="43.3916963" lon="11.0708942"><ele>275.2857142857143</ele><time>2026-05-02T08:45:25.486Z</time></trkpt><trkpt lat="43.3916464" lon="11.0709662"><ele>275.7142857142857</ele><time>2026-05-02T08:45:30.481Z</time></trkpt><trkpt lat="43.3915754" lon="11.07103"><ele>276.1428571428571</ele><time>2026-05-02T08:45:36.48Z</time></trkpt><trkpt lat="43.3915227" lon="11.0711279"><ele>276.57142857142856</ele><time>2026-05-02T08:45:39.556Z</time></trkpt><trkpt lat="43.3915073" lon="11.0712135"><ele>277.0</ele><time>2026-05-02T08:45:41.47Z</time></trkpt><trkpt lat="43.3914662" lon="11.071294"><ele>277.0</ele><time>2026-05-02T08:45:45.466Z</time></trkpt><trkpt lat="43.3914076" lon="11.0713294"><ele>277.0</ele><time>2026-05-02T08:45:48.553Z</time></trkpt><trkpt lat="43.391352" lon="11.0713796"><ele>277.0</ele><time>2026-05-02T08:45:54.472Z</time></trkpt><trkpt lat="43.3912966" lon="11.0714546"><ele>277.0</ele><time>2026-05-02T08:46:01.483Z</time></trkpt><trkpt lat="43.3912557" lon="11.0715228"><ele>277.0</ele><time>2026-05-02T08:46:05.493Z</time></trkpt><trkpt lat="43.3912091" lon="11.0715912"><ele>277.0</ele><time>2026-05-02T08:46:09.567Z</time></trkpt><trkpt lat="43.391146" lon="11.0716523"><ele>277.0</ele><time>2026-05-02T08:46:14.553Z</time></trkpt><trkpt lat="43.3910956" lon="11.0717228"><ele>277.42857142857144</ele><time>2026-05-02T08:46:18.553Z</time></trkpt><trkpt lat="43.3910438" lon="11.0716588"><ele>277.85714285714283</ele><time>2026-05-02T08:46:24.562Z</time></trkpt><trkpt lat="43.3909684" lon="11.0717053"><ele>278.2857142857143</ele><time>2026-05-02T08:46:29.481Z</time></trkpt><trkpt lat="43.3909267" lon="11.0717753"><ele>278.7142857142857</ele><time>2026-05-02T08:46:35.493Z</time></trkpt><trkpt lat="43.3908833" lon="11.0718423"><ele>279.1428571428571</ele><time>2026-05-02T08:46:38.497Z</time></trkpt><trkpt lat="43.3908456" lon="11.0719242"><ele>279.57142857142856</ele><time>2026-05-02T08:46:42.494Z</time></trkpt><trkpt lat="43.3907776" lon="11.0719807"><ele>280.0</ele><time>2026-05-02T08:46:48.556Z</time></trkpt><trkpt lat="43.3907133" lon="11.0719965"><ele>280.0</ele><time>2026-05-02T08:46:51.485Z</time></trkpt><trkpt lat="43.390648" lon="11.0719904"><ele>280.0</ele><time>2026-05-02T08:46:53.562Z</time></trkpt><trkpt lat="43.3905643" lon="11.0720262"><ele>280.0</ele><time>2026-05-02T08:46:58.55Z</time></trkpt><trkpt lat="43.3904848" lon="11.072056"><ele>280.0</ele><time>2026-05-02T08:47:02.487Z</time></trkpt><trkpt lat="43.3904196" lon="11.0721148"><ele>280.0</ele><time>2026-05-02T08:47:05.481Z</time></trkpt><trkpt lat="43.3903516" lon="11.0722034"><ele>280.0</ele><time>2026-05-02T08:47:08.479Z</time></trkpt><trkpt lat="43.3903035" lon="11.0722852"><ele>279.8</ele><time>2026-05-02T08:47:10.494Z</time></trkpt><trkpt lat="43.3902386" lon="11.0724103"><ele>279.6</ele><time>2026-05-02T08:47:12.489Z</time></trkpt><trkpt lat="43.3901941" lon="11.0724753"><ele>279.4</ele><time>2026-05-02T08:47:13.494Z</time></trkpt><trkpt lat="43.3901139" lon="11.0725819"><ele>279.2</ele><time>2026-05-02T08:47:15.486Z</time></trkpt><trkpt lat="43.390037" lon="11.0726759"><ele>279.0</ele><time>2026-05-02T08:47:17.476Z</time></trkpt><trkpt lat="43.3899582" lon="11.0727439"><ele>279.0</ele><time>2026-05-02T08:47:19.563Z</time></trkpt><trkpt lat="43.3898966" lon="11.0728266"><ele>279.0</ele><time>2026-05-02T08:47:21.483Z</time></trkpt><trkpt lat="43.389854" lon="11.0729065"><ele>279.0</ele><time>2026-05-02T08:47:23.547Z</time></trkpt><trkpt lat="43.3898165" lon="11.073005"><ele>279.0</ele><time>2026-05-02T08:47:25.463Z</time></trkpt><trkpt lat="43.3897736" lon="11.0730891"><ele>279.0</ele><time>2026-05-02T08:47:27.486Z</time></trkpt><trkpt lat="43.3897207" lon="11.0731768"><ele>279.0</ele><time>2026-05-02T08:47:30.478Z</time></trkpt><trkpt lat="43.3896583" lon="11.0732596"><ele>278.1666666666667</ele><time>2026-05-02T08:47:33.558Z</time></trkpt><trkpt lat="43.3895856" lon="11.0733419"><ele>277.3333333333333</ele><time>2026-05-02T08:47:36.479Z</time></trkpt><trkpt lat="43.3895342" lon="11.0734133"><ele>276.5</ele><time>2026-05-02T08:47:38.56Z</time></trkpt><trkpt lat="43.3894645" lon="11.0734905"><ele>275.66666666666663</ele><time>2026-05-02T08:47:41.476Z</time></trkpt><trkpt lat="43.3894453" lon="11.0735857"><ele>274.8333333333333</ele><time>2026-05-02T08:47:43.489Z</time></trkpt><trkpt lat="43.3894474" lon="11.0736943"><ele>274.0</ele><time>2026-05-02T08:47:45.462Z</time></trkpt><trkpt lat="43.3894656" lon="11.0737904"><ele>274.0</ele><time>2026-05-02T08:47:47.488Z</time></trkpt><trkpt lat="43.3894905" lon="11.0738816"><ele>274.0</ele><time>2026-05-02T08:47:49.478Z</time></trkpt><trkpt lat="43.3895098" lon="11.0739979"><ele>274.0</ele><time>2026-05-02T08:47:52.556Z</time></trkpt><trkpt lat="43.3895005" lon="11.0741093"><ele>274.0</ele><time>2026-05-02T08:47:55.493Z</time></trkpt><trkpt lat="43.3894791" lon="11.0742138"><ele>274.0</ele><time>2026-05-02T08:47:58.471Z</time></trkpt><trkpt lat="43.3894707" lon="11.0743314"><ele>274.0</ele><time>2026-05-02T08:48:01.474Z</time></trkpt><trkpt lat="43.3894391" lon="11.074412"><ele>274.16666666666663</ele><time>2026-05-02T08:48:04.554Z</time></trkpt><trkpt lat="43.3894145" lon="11.0745091"><ele>274.3333333333333</ele><time>2026-05-02T08:48:07.495Z</time></trkpt><trkpt lat="43.3893785" lon="11.0746074"><ele>274.5</ele><time>2026-05-02T08:48:09.56Z</time></trkpt><trkpt lat="43.3893473" lon="11.0747149"><ele>274.6666666666667</ele><time>2026-05-02T08:48:11.479Z</time></trkpt><trkpt lat="43.3893294" lon="11.0748118"><ele>274.83333333333337</ele><time>2026-05-02T08:48:13.552Z</time></trkpt><trkpt lat="43.3893043" lon="11.0749518"><ele>275.0</ele><time>2026-05-02T08:48:16.472Z</time></trkpt><trkpt lat="43.3893037" lon="11.0750563"><ele>275.6666666666667</ele><time>2026-05-02T08:48:20.476Z</time></trkpt><trkpt lat="43.3893099" lon="11.0751633"><ele>276.33333333333337</ele><time>2026-05-02T08:48:23.477Z</time></trkpt><trkpt lat="43.3893172" lon="11.0752572"><ele>277.0</ele><time>2026-05-02T08:48:26.485Z</time></trkpt><trkpt lat="43.3893121" lon="11.0753467"><ele>277.6666666666667</ele><time>2026-05-02T08:48:29.566Z</time></trkpt><trkpt lat="43.3893021" lon="11.0754543"><ele>278.3333333333333</ele><time>2026-05-02T08:48:33.569Z</time></trkpt><trkpt lat="43.3892877" lon="11.075576"><ele>279.0</ele><time>2026-05-02T08:48:36.485Z</time></trkpt><trkpt lat="43.3892891" lon="11.0757076"><ele>278.57142857142856</ele><time>2026-05-02T08:48:39.516Z</time></trkpt><trkpt lat="43.389295" lon="11.0757971"><ele>278.1428571428571</ele><time>2026-05-02T08:48:41.485Z</time></trkpt><trkpt lat="43.3892818" lon="11.0759052"><ele>277.7142857142857</ele><time>2026-05-02T08:48:44.541Z</time></trkpt><trkpt lat="43.3892603" lon="11.0759883"><ele>277.2857142857143</ele><time>2026-05-02T08:48:46.491Z</time></trkpt><trkpt lat="43.3892427" lon="11.0760731"><ele>276.8571428571429</ele><time>2026-05-02T08:48:50.487Z</time></trkpt><trkpt lat="43.3892228" lon="11.0761673"><ele>276.42857142857144</ele><time>2026-05-02T08:48:56.482Z</time></trkpt><trkpt lat="43.3892106" lon="11.0762546"><ele>276.0</ele><time>2026-05-02T08:49:01.465Z</time></trkpt><trkpt lat="43.3892158" lon="11.0763606"><ele>276.0</ele><time>2026-05-02T08:49:05.481Z</time></trkpt><trkpt lat="43.3892024" lon="11.0764472"><ele>276.0</ele><time>2026-05-02T08:49:09.546Z</time></trkpt><trkpt lat="43.3892042" lon="11.0765446"><ele>276.0</ele><time>2026-05-02T08:49:13.552Z</time></trkpt><trkpt lat="43.3892075" lon="11.076647"><ele>276.0</ele><time>2026-05-02T08:49:19.568Z</time></trkpt><trkpt lat="43.3892004" lon="11.0767495"><ele>276.0</ele><time>2026-05-02T08:49:22.48Z</time></trkpt><trkpt lat="43.3892051" lon="11.0768422"><ele>276.0</ele><time>2026-05-02T08:49:26.468Z</time></trkpt><trkpt lat="43.3891985" lon="11.0769388"><ele>276.0</ele><time>2026-05-02T08:49:28.481Z</time></trkpt><trkpt lat="43.3891766" lon="11.07703"><ele>275.0</ele><time>2026-05-02T08:49:31.465Z</time></trkpt><trkpt lat="43.389156" lon="11.0771341"><ele>274.0</ele><time>2026-05-02T08:49:34.478Z</time></trkpt><trkpt lat="43.3891188" lon="11.0772476"><ele>273.0</ele><time>2026-05-02T08:49:37.564Z</time></trkpt><trkpt lat="43.3890119" lon="11.0772953"><ele>272.0</ele><time>2026-05-02T08:49:41.487Z</time></trkpt><trkpt lat="43.3889708" lon="11.0773839"><ele>271.0</ele><time>2026-05-02T08:49:43.555Z</time></trkpt><trkpt lat="43.3889097" lon="11.0775349"><ele>270.40000000000003</ele><time>2026-05-02T08:49:46.492Z</time></trkpt><trkpt lat="43.3888789" lon="11.0776547"><ele>269.8</ele><time>2026-05-02T08:49:48.564Z</time></trkpt><trkpt lat="43.3888359" lon="11.0777678"><ele>269.20000000000005</ele><time>2026-05-02T08:49:50.543Z</time></trkpt><trkpt lat="43.3888118" lon="11.0778964"><ele>268.6</ele><time>2026-05-02T08:49:52.47Z</time></trkpt><trkpt lat="43.3887682" lon="11.0780536"><ele>268.0</ele><time>2026-05-02T08:49:54.548Z</time></trkpt><trkpt lat="43.388737" lon="11.0781415"><ele>267.0</ele><time>2026-05-02T08:49:56.49Z</time></trkpt><trkpt lat="43.3887142" lon="11.0782335"><ele>266.0</ele><time>2026-05-02T08:49:58.554Z</time></trkpt><trkpt lat="43.3886774" lon="11.0783932"><ele>265.0</ele><time>2026-05-02T08:50:00.476Z</time></trkpt><trkpt lat="43.3886632" lon="11.0785465"><ele>264.0</ele><time>2026-05-02T08:50:02.488Z</time></trkpt><trkpt lat="43.3886358" lon="11.0786755"><ele>263.0</ele><time>2026-05-02T08:50:04.481Z</time></trkpt><trkpt lat="43.3886222" lon="11.0788062"><ele>262.6666666666667</ele><time>2026-05-02T08:50:06.473Z</time></trkpt><trkpt lat="43.3886085" lon="11.0789271"><ele>262.33333333333337</ele><time>2026-05-02T08:50:08.482Z</time></trkpt><trkpt lat="43.3885888" lon="11.0790413"><ele>262.0</ele><time>2026-05-02T08:50:10.49Z</time></trkpt><trkpt lat="43.3885643" lon="11.0791679"><ele>261.6666666666667</ele><time>2026-05-02T08:50:12.493Z</time></trkpt><trkpt lat="43.388524" lon="11.079261"><ele>261.3333333333333</ele><time>2026-05-02T08:50:14.544Z</time></trkpt><trkpt lat="43.3884709" lon="11.0793129"><ele>261.0</ele><time>2026-05-02T08:50:16.487Z</time></trkpt><trkpt lat="43.3883942" lon="11.0793821"><ele>261.0</ele><time>2026-05-02T08:50:19.564Z</time></trkpt><trkpt lat="43.388316" lon="11.0794577"><ele>261.0</ele><time>2026-05-02T08:50:22.47Z</time></trkpt><trkpt lat="43.388264" lon="11.0795345"><ele>261.0</ele><time>2026-05-02T08:50:25.487Z</time></trkpt><trkpt lat="43.3882375" lon="11.079614"><ele>261.0</ele><time>2026-05-02T08:50:27.483Z</time></trkpt><trkpt lat="43.3882022" lon="11.0797005"><ele>261.0</ele><time>2026-05-02T08:50:29.485Z</time></trkpt><trkpt lat="43.3881732" lon="11.0797874"><ele>261.0</ele><time>2026-05-02T08:50:31.494Z</time></trkpt><trkpt lat="43.3881329" lon="11.0798739"><ele>261.5</ele><time>2026-05-02T08:50:33.527Z</time></trkpt><trkpt lat="43.3880895" lon="11.0799635"><ele>262.0</ele><time>2026-05-02T08:50:36.497Z</time></trkpt><trkpt lat="43.3880349" lon="11.0800661"><ele>262.5</ele><time>2026-05-02T08:50:40.491Z</time></trkpt><trkpt lat="43.3879955" lon="11.0801537"><ele>263.0</ele><time>2026-05-02T08:50:43.482Z</time></trkpt><trkpt lat="43.3879537" lon="11.0802313"><ele>263.5</ele><time>2026-05-02T08:50:46.488Z</time></trkpt><trkpt lat="43.3879134" lon="11.0803111"><ele>264.0</ele><time>2026-05-02T08:50:49.553Z</time></trkpt><trkpt lat="43.3878612" lon="11.0803951"><ele>264.3333333333333</ele><time>2026-05-02T08:50:52.481Z</time></trkpt><trkpt lat="43.3877965" lon="11.0804596"><ele>264.6666666666667</ele><time>2026-05-02T08:50:55.47Z</time></trkpt><trkpt lat="43.3877291" lon="11.0805286"><ele>265.0</ele><time>2026-05-02T08:50:59.577Z</time></trkpt><trkpt lat="43.3876626" lon="11.0805848"><ele>265.33333333333337</ele><time>2026-05-02T08:51:02.485Z</time></trkpt><trkpt lat="43.3876022" lon="11.0806396"><ele>265.6666666666667</ele><time>2026-05-02T08:51:07.491Z</time></trkpt><trkpt lat="43.3875546" lon="11.0807287"><ele>266.0</ele><time>2026-05-02T08:51:11.471Z</time></trkpt><trkpt lat="43.3874833" lon="11.0807815"><ele>266.0</ele><time>2026-05-02T08:51:15.486Z</time></trkpt><trkpt lat="43.3874363" lon="11.0808394"><ele>266.0</ele><time>2026-05-02T08:51:18.478Z</time></trkpt><trkpt lat="43.3873783" lon="11.0809067"><ele>266.0</ele><time>2026-05-02T08:51:21.489Z</time></trkpt><trkpt lat="43.3873085" lon="11.0809684"><ele>266.0</ele><time>2026-05-02T08:51:24.494Z</time></trkpt><trkpt lat="43.3872282" lon="11.0810201"><ele>266.0</ele><time>2026-05-02T08:51:27.548Z</time></trkpt><trkpt lat="43.3871534" lon="11.0810701"><ele>266.0</ele><time>2026-05-02T08:51:29.472Z</time></trkpt><trkpt lat="43.3871106" lon="11.0811368"><ele>265.6</ele><time>2026-05-02T08:51:31.493Z</time></trkpt><trkpt lat="43.3870842" lon="11.081259"><ele>265.20000000000005</ele><time>2026-05-02T08:51:34.563Z</time></trkpt><trkpt lat="43.387087" lon="11.0813701"><ele>264.79999999999995</ele><time>2026-05-02T08:51:37.478Z</time></trkpt><trkpt lat="43.3870794" lon="11.0814846"><ele>264.4</ele><time>2026-05-02T08:51:40.48Z</time></trkpt><trkpt lat="43.3870952" lon="11.0816092"><ele>264.0</ele><time>2026-05-02T08:51:43.565Z</time></trkpt><trkpt lat="43.387078" lon="11.0817533"><ele>263.8333333333333</ele><time>2026-05-02T08:51:47.484Z</time></trkpt><trkpt lat="43.3870634" lon="11.0818407"><ele>263.6666666666667</ele><time>2026-05-02T08:51:49.488Z</time></trkpt><trkpt lat="43.3870775" lon="11.081965"><ele>263.5</ele><time>2026-05-02T08:51:51.491Z</time></trkpt><trkpt lat="43.3870865" lon="11.0820992"><ele>263.33333333333337</ele><time>2026-05-02T08:51:53.483Z</time></trkpt><trkpt lat="43.3871226" lon="11.0822634"><ele>263.1666666666667</ele><time>2026-05-02T08:51:55.48Z</time></trkpt><trkpt lat="43.3871336" lon="11.0823509"><ele>263.0</ele><time>2026-05-02T08:51:56.479Z</time></trkpt><trkpt lat="43.3871739" lon="11.0824743"><ele>262.6666666666667</ele><time>2026-05-02T08:51:58.48Z</time></trkpt><trkpt lat="43.3872046" lon="11.0825785"><ele>262.33333333333337</ele><time>2026-05-02T08:52:00.49Z</time></trkpt><trkpt lat="43.387211" lon="11.0826656"><ele>262.0</ele><time>2026-05-02T08:52:02.487Z</time></trkpt><trkpt lat="43.387208" lon="11.0827581"><ele>261.6666666666667</ele><time>2026-05-02T08:52:04.553Z</time></trkpt><trkpt lat="43.387233" lon="11.0828687"><ele>261.3333333333333</ele><time>2026-05-02T08:52:06.483Z</time></trkpt><trkpt lat="43.3872318" lon="11.0829892"><ele>261.0</ele><time>2026-05-02T08:52:08.551Z</time></trkpt><trkpt lat="43.3872155" lon="11.0830763"><ele>261.0</ele><time>2026-05-02T08:52:10.482Z</time></trkpt><trkpt lat="43.3872053" lon="11.0831911"><ele>261.0</ele><time>2026-05-02T08:52:13.556Z</time></trkpt><trkpt lat="43.387229" lon="11.0832973"><ele>261.0</ele><time>2026-05-02T08:52:15.482Z</time></trkpt><trkpt lat="43.3872466" lon="11.0833879"><ele>261.0</ele><time>2026-05-02T08:52:18.56Z</time></trkpt><trkpt lat="43.387279" lon="11.0834854"><ele>261.0</ele><time>2026-05-02T08:52:22.56Z</time></trkpt><trkpt lat="43.3873051" lon="11.0835801"><ele>261.0</ele><time>2026-05-02T08:52:25.486Z</time></trkpt><trkpt lat="43.3873271" lon="11.083675"><ele>261.0</ele><time>2026-05-02T08:52:29.48Z</time></trkpt><trkpt lat="43.3873452" lon="11.0837605"><ele>261.0</ele><time>2026-05-02T08:52:32.48Z</time></trkpt><trkpt lat="43.3873475" lon="11.0838791"><ele>261.0</ele><time>2026-05-02T08:52:36.476Z</time></trkpt><trkpt lat="43.3873333" lon="11.0839741"><ele>261.0</ele><time>2026-05-02T08:52:39.559Z</time></trkpt><trkpt lat="43.3872773" lon="11.0840719"><ele>261.0</ele><time>2026-05-02T08:52:43.553Z</time></trkpt><trkpt lat="43.3872158" lon="11.0841629"><ele>261.0</ele><time>2026-05-02T08:52:46.475Z</time></trkpt><trkpt lat="43.3871726" lon="11.0842264"><ele>261.0</ele><time>2026-05-02T08:52:48.543Z</time></trkpt><trkpt lat="43.3871092" lon="11.0843091"><ele>261.0</ele><time>2026-05-02T08:52:50.468Z</time></trkpt><trkpt lat="43.38705" lon="11.084423"><ele>261.0</ele><time>2026-05-02T08:52:52.472Z</time></trkpt><trkpt lat="43.3869993" lon="11.0845254"><ele>261.0</ele><time>2026-05-02T08:52:54.555Z</time></trkpt><trkpt lat="43.3869692" lon="11.0846106"><ele>261.0</ele><time>2026-05-02T08:52:55.526Z</time></trkpt><trkpt lat="43.3868932" lon="11.0847539"><ele>261.0</ele><time>2026-05-02T08:52:57.481Z</time></trkpt><trkpt lat="43.3868701" lon="11.0848721"><ele>261.0</ele><time>2026-05-02T08:52:59.5Z</time></trkpt><trkpt lat="43.3869186" lon="11.0850053"><ele>261.0</ele><time>2026-05-02T08:53:01.48Z</time></trkpt><trkpt lat="43.3869687" lon="11.0851295"><ele>261.0</ele><time>2026-05-02T08:53:03.484Z</time></trkpt><trkpt lat="43.387016" lon="11.0852563"><ele>261.0</ele><time>2026-05-02T08:53:05.498Z</time></trkpt><trkpt lat="43.3870677" lon="11.0853705"><ele>261.0</ele><time>2026-05-02T08:53:07.482Z</time></trkpt><trkpt lat="43.387113" lon="11.0854897"><ele>261.0</ele><time>2026-05-02T08:53:09.486Z</time></trkpt><trkpt lat="43.3871559" lon="11.0855987"><ele>261.0</ele><time>2026-05-02T08:53:11.487Z</time></trkpt><trkpt lat="43.3871999" lon="11.0857117"><ele>261.0</ele><time>2026-05-02T08:53:13.471Z</time></trkpt><trkpt lat="43.3872442" lon="11.0858289"><ele>261.0</ele><time>2026-05-02T08:53:15.49Z</time></trkpt><trkpt lat="43.3872848" lon="11.0859531"><ele>260.2</ele><time>2026-05-02T08:53:17.493Z</time></trkpt><trkpt lat="43.3873227" lon="11.08607"><ele>259.40000000000003</ele><time>2026-05-02T08:53:19.487Z</time></trkpt><trkpt lat="43.3873182" lon="11.0862006"><ele>258.6</ele><time>2026-05-02T08:53:21.494Z</time></trkpt><trkpt lat="43.3872505" lon="11.0862916"><ele>257.8</ele><time>2026-05-02T08:53:23.484Z</time></trkpt><trkpt lat="43.3871515" lon="11.0863265"><ele>257.0</ele><time>2026-05-02T08:53:25.49Z</time></trkpt><trkpt lat="43.3870485" lon="11.0863558"><ele>257.0</ele><time>2026-05-02T08:53:27.484Z</time></trkpt><trkpt lat="43.3869541" lon="11.0863637"><ele>257.0</ele><time>2026-05-02T08:53:29.567Z</time></trkpt><trkpt lat="43.3868592" lon="11.0863328"><ele>257.0</ele><time>2026-05-02T08:53:31.488Z</time></trkpt><trkpt lat="43.3867726" lon="11.086312"><ele>257.0</ele><time>2026-05-02T08:53:33.483Z</time></trkpt><trkpt lat="43.3866826" lon="11.0862963"><ele>257.0</ele><time>2026-05-02T08:53:35.502Z</time></trkpt><trkpt lat="43.3865928" lon="11.0862817"><ele>257.0</ele><time>2026-05-02T08:53:37.5Z</time></trkpt><trkpt lat="43.3865023" lon="11.0862683"><ele>257.0</ele><time>2026-05-02T08:53:39.478Z</time></trkpt><trkpt lat="43.386411" lon="11.0862573"><ele>257.0</ele><time>2026-05-02T08:53:41.491Z</time></trkpt><trkpt lat="43.3863196" lon="11.0862523"><ele>257.0</ele><time>2026-05-02T08:53:43.504Z</time></trkpt><trkpt lat="43.3862027" lon="11.0862176"><ele>257.0</ele><time>2026-05-02T08:53:46.474Z</time></trkpt><trkpt lat="43.3861297" lon="11.0861935"><ele>257.33333333333337</ele><time>2026-05-02T08:53:48.543Z</time></trkpt><trkpt lat="43.3860512" lon="11.0861761"><ele>257.6666666666667</ele><time>2026-05-02T08:53:50.483Z</time></trkpt><trkpt lat="43.3859809" lon="11.0861508"><ele>258.0</ele><time>2026-05-02T08:53:52.497Z</time></trkpt><trkpt lat="43.3859042" lon="11.0861092"><ele>258.3333333333333</ele><time>2026-05-02T08:53:55.477Z</time></trkpt><trkpt lat="43.3858392" lon="11.0861713"><ele>258.66666666666663</ele><time>2026-05-02T08:53:58.551Z</time></trkpt><trkpt lat="43.3857994" lon="11.0862492"><ele>259.0</ele><time>2026-05-02T08:54:00.562Z</time></trkpt><trkpt lat="43.385791" lon="11.0863451"><ele>259.0</ele><time>2026-05-02T08:54:02.478Z</time></trkpt><trkpt lat="43.3857865" lon="11.0864699"><ele>259.0</ele><time>2026-05-02T08:54:04.547Z</time></trkpt><trkpt lat="43.3858072" lon="11.0865965"><ele>259.0</ele><time>2026-05-02T08:54:06.492Z</time></trkpt><trkpt lat="43.385827" lon="11.0866901"><ele>259.0</ele><time>2026-05-02T08:54:08.485Z</time></trkpt><trkpt lat="43.3858324" lon="11.0867787"><ele>259.0</ele><time>2026-05-02T08:54:10.487Z</time></trkpt><trkpt lat="43.3858385" lon="11.0868683"><ele>259.0</ele><time>2026-05-02T08:54:12.497Z</time></trkpt><trkpt lat="43.3858385" lon="11.086962"><ele>259.0</ele><time>2026-05-02T08:54:14.479Z</time></trkpt><trkpt lat="43.3858384" lon="11.0870539"><ele>259.0</ele><time>2026-05-02T08:54:16.464Z</time></trkpt><trkpt lat="43.385842" lon="11.0871751"><ele>259.0</ele><time>2026-05-02T08:54:19.475Z</time></trkpt><trkpt lat="43.3858393" lon="11.087296"><ele>259.0</ele><time>2026-05-02T08:54:22.556Z</time></trkpt><trkpt lat="43.3858373" lon="11.0873828"><ele>259.0</ele><time>2026-05-02T08:54:24.559Z</time></trkpt><trkpt lat="43.3858397" lon="11.0875084"><ele>259.0</ele><time>2026-05-02T08:54:27.559Z</time></trkpt><trkpt lat="43.3858469" lon="11.0876014"><ele>259.2857142857143</ele><time>2026-05-02T08:54:29.566Z</time></trkpt><trkpt lat="43.3858679" lon="11.0877221"><ele>259.57142857142856</ele><time>2026-05-02T08:54:31.47Z</time></trkpt><trkpt lat="43.3858877" lon="11.087809"><ele>259.8571428571429</ele><time>2026-05-02T08:54:34.556Z</time></trkpt><trkpt lat="43.3859223" lon="11.0878838"><ele>260.1428571428571</ele><time>2026-05-02T08:54:38.559Z</time></trkpt><trkpt lat="43.3858664" lon="11.087924"><ele>260.42857142857144</ele><time>2026-05-02T08:54:41.496Z</time></trkpt><trkpt lat="43.3857973" lon="11.0879688"><ele>260.7142857142857</ele><time>2026-05-02T08:54:44.497Z</time></trkpt><trkpt lat="43.3857286" lon="11.0879999"><ele>261.0</ele><time>2026-05-02T08:54:46.485Z</time></trkpt><trkpt lat="43.3856561" lon="11.0880311"><ele>261.0</ele><time>2026-05-02T08:54:48.486Z</time></trkpt><trkpt lat="43.3855906" lon="11.0880917"><ele>261.0</ele><time>2026-05-02T08:54:50.489Z</time></trkpt><trkpt lat="43.3855023" lon="11.0881001"><ele>261.0</ele><time>2026-05-02T08:54:52.471Z</time></trkpt><trkpt lat="43.3854008" lon="11.0880721"><ele>261.0</ele><time>2026-05-02T08:54:54.487Z</time></trkpt><trkpt lat="43.3853035" lon="11.0880537"><ele>261.0</ele><time>2026-05-02T08:54:56.483Z</time></trkpt><trkpt lat="43.3852088" lon="11.0880436"><ele>261.0</ele><time>2026-05-02T08:54:58.536Z</time></trkpt><trkpt lat="43.3851049" lon="11.088041"><ele>261.0</ele><time>2026-05-02T08:55:00.481Z</time></trkpt><trkpt lat="43.385016" lon="11.0880608"><ele>261.0</ele><time>2026-05-02T08:55:02.49Z</time></trkpt><trkpt lat="43.3849351" lon="11.0880508"><ele>261.0</ele><time>2026-05-02T08:55:04.473Z</time></trkpt><trkpt lat="43.3848565" lon="11.0880737"><ele>261.0</ele><time>2026-05-02T08:55:06.476Z</time></trkpt><trkpt lat="43.3847996" lon="11.0881625"><ele>261.0</ele><time>2026-05-02T08:55:09.485Z</time></trkpt><trkpt lat="43.3848127" lon="11.088275"><ele>261.0</ele><time>2026-05-02T08:55:11.491Z</time></trkpt><trkpt lat="43.3848511" lon="11.088409"><ele>261.0</ele><time>2026-05-02T08:55:13.567Z</time></trkpt><trkpt lat="43.3848919" lon="11.0885243"><ele>261.0</ele><time>2026-05-02T08:55:15.463Z</time></trkpt><trkpt lat="43.3849293" lon="11.0886223"><ele>261.0</ele><time>2026-05-02T08:55:17.482Z</time></trkpt><trkpt lat="43.384999" lon="11.0887118"><ele>261.0</ele><time>2026-05-02T08:55:19.493Z</time></trkpt><trkpt lat="43.3850826" lon="11.0888149"><ele>261.0</ele><time>2026-05-02T08:55:21.469Z</time></trkpt><trkpt lat="43.3851664" lon="11.0889329"><ele>261.0</ele><time>2026-05-02T08:55:23.509Z</time></trkpt><trkpt lat="43.3852145" lon="11.0890532"><ele>261.0</ele><time>2026-05-02T08:55:25.481Z</time></trkpt><trkpt lat="43.3852508" lon="11.0891681"><ele>261.0</ele><time>2026-05-02T08:55:27.495Z</time></trkpt><trkpt lat="43.3852815" lon="11.0892816"><ele>261.0</ele><time>2026-05-02T08:55:29.46Z</time></trkpt><trkpt lat="43.3852985" lon="11.0893892"><ele>260.3333333333333</ele><time>2026-05-02T08:55:31.494Z</time></trkpt><trkpt lat="43.3853158" lon="11.0895066"><ele>259.6666666666667</ele><time>2026-05-02T08:55:33.545Z</time></trkpt><trkpt lat="43.3853254" lon="11.0896317"><ele>259.0</ele><time>2026-05-02T08:55:35.489Z</time></trkpt><trkpt lat="43.3853431" lon="11.0897469"><ele>258.33333333333337</ele><time>2026-05-02T08:55:37.485Z</time></trkpt><trkpt lat="43.3853479" lon="11.0898627"><ele>257.6666666666667</ele><time>2026-05-02T08:55:39.548Z</time></trkpt><trkpt lat="43.3853758" lon="11.0899943"><ele>257.0</ele><time>2026-05-02T08:55:41.489Z</time></trkpt><trkpt lat="43.3854229" lon="11.0900644"><ele>256.83333333333337</ele><time>2026-05-02T08:55:43.551Z</time></trkpt><trkpt lat="43.3854718" lon="11.0901593"><ele>256.6666666666667</ele><time>2026-05-02T08:55:46.499Z</time></trkpt><trkpt lat="43.3855191" lon="11.0902705"><ele>256.5</ele><time>2026-05-02T08:55:49.492Z</time></trkpt><trkpt lat="43.3855555" lon="11.0903523"><ele>256.3333333333333</ele><time>2026-05-02T08:55:51.495Z</time></trkpt><trkpt lat="43.3855974" lon="11.0904294"><ele>256.16666666666663</ele><time>2026-05-02T08:55:53.468Z</time></trkpt><trkpt lat="43.3856296" lon="11.0905151"><ele>256.0</ele><time>2026-05-02T08:55:55.479Z</time></trkpt><trkpt lat="43.3856445" lon="11.0906224"><ele>256.3333333333333</ele><time>2026-05-02T08:55:57.487Z</time></trkpt><trkpt lat="43.3856464" lon="11.0907265"><ele>256.66666666666663</ele><time>2026-05-02T08:55:59.464Z</time></trkpt><trkpt lat="43.3856377" lon="11.0908235"><ele>257.0</ele><time>2026-05-02T08:56:01.463Z</time></trkpt><trkpt lat="43.3855905" lon="11.0909538"><ele>257.3333333333333</ele><time>2026-05-02T08:56:04.502Z</time></trkpt><trkpt lat="43.3855497" lon="11.0910259"><ele>257.6666666666667</ele><time>2026-05-02T08:56:06.488Z</time></trkpt><trkpt lat="43.3855058" lon="11.0911292"><ele>258.0</ele><time>2026-05-02T08:56:09.471Z</time></trkpt><trkpt lat="43.3854685" lon="11.0912131"><ele>257.2857142857143</ele><time>2026-05-02T08:56:11.471Z</time></trkpt><trkpt lat="43.385429" lon="11.0912958"><ele>256.57142857142856</ele><time>2026-05-02T08:56:13.483Z</time></trkpt><trkpt lat="43.3854001" lon="11.0913771"><ele>255.85714285714286</ele><time>2026-05-02T08:56:15.482Z</time></trkpt><trkpt lat="43.3853785" lon="11.0914788"><ele>255.14285714285714</ele><time>2026-05-02T08:56:17.512Z</time></trkpt><trkpt lat="43.3853477" lon="11.0915747"><ele>254.42857142857144</ele><time>2026-05-02T08:56:19.482Z</time></trkpt><trkpt lat="43.385333" lon="11.0916723"><ele>253.71428571428575</ele><time>2026-05-02T08:56:21.467Z</time></trkpt><trkpt lat="43.385317" lon="11.0917748"><ele>253.00000000000003</ele><time>2026-05-02T08:56:23.477Z</time></trkpt><trkpt lat="43.3853088" lon="11.091883"><ele>252.99999999999997</ele><time>2026-05-02T08:56:25.482Z</time></trkpt><trkpt lat="43.3853068" lon="11.0919884"><ele>253.0</ele><time>2026-05-02T08:56:27.488Z</time></trkpt><trkpt lat="43.3853148" lon="11.0920876"><ele>253.0</ele><time>2026-05-02T08:56:29.494Z</time></trkpt><trkpt lat="43.385334" lon="11.0921853"><ele>253.0</ele><time>2026-05-02T08:56:31.508Z</time></trkpt><trkpt lat="43.3853408" lon="11.0922918"><ele>252.99999999999997</ele><time>2026-05-02T08:56:33.485Z</time></trkpt><trkpt lat="43.3853615" lon="11.0923998"><ele>253.0</ele><time>2026-05-02T08:56:35.476Z</time></trkpt><trkpt lat="43.3853887" lon="11.0925038"><ele>252.99999999999997</ele><time>2026-05-02T08:56:37.473Z</time></trkpt><trkpt lat="43.3854253" lon="11.0925978"><ele>253.0</ele><time>2026-05-02T08:56:39.466Z</time></trkpt><trkpt lat="43.3854665" lon="11.0926858"><ele>253.0</ele><time>2026-05-02T08:56:41.474Z</time></trkpt><trkpt lat="43.3855193" lon="11.0927918"><ele>253.0</ele><time>2026-05-02T08:56:43.488Z</time></trkpt><trkpt lat="43.3855789" lon="11.0929023"><ele>252.99999999999997</ele><time>2026-05-02T08:56:45.481Z</time></trkpt><trkpt lat="43.385635" lon="11.092998"><ele>253.0</ele><time>2026-05-02T08:56:47.494Z</time></trkpt><trkpt lat="43.3856905" lon="11.0930937"><ele>253.0</ele><time>2026-05-02T08:56:49.504Z</time></trkpt><trkpt lat="43.3857441" lon="11.0931979"><ele>253.0</ele><time>2026-05-02T08:56:51.502Z</time></trkpt><trkpt lat="43.3857961" lon="11.0933083"><ele>253.0</ele><time>2026-05-02T08:56:53.486Z</time></trkpt><trkpt lat="43.3858461" lon="11.0934176"><ele>253.0</ele><time>2026-05-02T08:56:55.505Z</time></trkpt><trkpt lat="43.3858918" lon="11.0935248"><ele>253.0</ele><time>2026-05-02T08:56:57.482Z</time></trkpt><trkpt lat="43.3859369" lon="11.0936372"><ele>252.71428571428575</ele><time>2026-05-02T08:56:59.488Z</time></trkpt><trkpt lat="43.3859681" lon="11.0937301"><ele>252.42857142857144</ele><time>2026-05-02T08:57:01.486Z</time></trkpt><trkpt lat="43.3859943" lon="11.0938101"><ele>252.14285714285714</ele><time>2026-05-02T08:57:03.485Z</time></trkpt><trkpt lat="43.3860262" lon="11.0938905"><ele>251.85714285714286</ele><time>2026-05-02T08:57:05.472Z</time></trkpt><trkpt lat="43.3860681" lon="11.0939613"><ele>251.57142857142856</ele><time>2026-05-02T08:57:07.475Z</time></trkpt><trkpt lat="43.3861158" lon="11.0940298"><ele>251.28571428571425</ele><time>2026-05-02T08:57:09.473Z</time></trkpt><trkpt lat="43.3861702" lon="11.094101"><ele>250.99999999999997</ele><time>2026-05-02T08:57:11.493Z</time></trkpt><trkpt lat="43.3862214" lon="11.0941731"><ele>250.99999999999997</ele><time>2026-05-02T08:57:13.49Z</time></trkpt><trkpt lat="43.3862722" lon="11.0942417"><ele>251.0</ele><time>2026-05-02T08:57:15.487Z</time></trkpt><trkpt lat="43.3863145" lon="11.0943108"><ele>250.99999999999997</ele><time>2026-05-02T08:57:17.482Z</time></trkpt><trkpt lat="43.3863612" lon="11.0943848"><ele>250.99999999999997</ele><time>2026-05-02T08:57:19.478Z</time></trkpt><trkpt lat="43.3864112" lon="11.0944638"><ele>251.0</ele><time>2026-05-02T08:57:21.486Z</time></trkpt><trkpt lat="43.3864646" lon="11.0945492"><ele>250.99999999999997</ele><time>2026-05-02T08:57:23.491Z</time></trkpt><trkpt lat="43.3865167" lon="11.0946336"><ele>250.99999999999997</ele><time>2026-05-02T08:57:25.513Z</time></trkpt><trkpt lat="43.3865613" lon="11.0947194"><ele>250.99999999999997</ele><time>2026-05-02T08:57:27.474Z</time></trkpt><trkpt lat="43.3866082" lon="11.0948095"><ele>251.0</ele><time>2026-05-02T08:57:29.474Z</time></trkpt><trkpt lat="43.3866543" lon="11.0948937"><ele>250.99999999999997</ele><time>2026-05-02T08:57:31.481Z</time></trkpt><trkpt lat="43.3866919" lon="11.0949814"><ele>250.99999999999997</ele><time>2026-05-02T08:57:33.483Z</time></trkpt><trkpt lat="43.3867283" lon="11.0950737"><ele>251.0</ele><time>2026-05-02T08:57:35.472Z</time></trkpt><trkpt lat="43.3867629" lon="11.0951616"><ele>250.99999999999997</ele><time>2026-05-02T08:57:37.468Z</time></trkpt><trkpt lat="43.3868061" lon="11.0952348"><ele>250.99999999999997</ele><time>2026-05-02T08:57:39.468Z</time></trkpt><trkpt lat="43.3868549" lon="11.0953277"><ele>250.99999999999997</ele><time>2026-05-02T08:57:42.48Z</time></trkpt><trkpt lat="43.3869023" lon="11.0954014"><ele>251.0</ele><time>2026-05-02T08:57:45.495Z</time></trkpt><trkpt lat="43.3869488" lon="11.0954636"><ele>250.99999999999997</ele><time>2026-05-02T08:57:47.49Z</time></trkpt><trkpt lat="43.3870053" lon="11.0955366"><ele>250.99999999999997</ele><time>2026-05-02T08:57:49.471Z</time></trkpt><trkpt lat="43.387065" lon="11.0956024"><ele>251.0</ele><time>2026-05-02T08:57:51.482Z</time></trkpt><trkpt lat="43.3871252" lon="11.0956651"><ele>250.99999999999997</ele><time>2026-05-02T08:57:53.473Z</time></trkpt><trkpt lat="43.3871863" lon="11.0957372"><ele>250.99999999999997</ele><time>2026-05-02T08:57:55.512Z</time></trkpt><trkpt lat="43.3872446" lon="11.0958243"><ele>251.16666666666669</ele><time>2026-05-02T08:57:57.482Z</time></trkpt><trkpt lat="43.3872971" lon="11.0959207"><ele>251.33333333333334</ele><time>2026-05-02T08:57:59.486Z</time></trkpt><trkpt lat="43.3873344" lon="11.0960202"><ele>251.5</ele><time>2026-05-02T08:58:01.502Z</time></trkpt><trkpt lat="43.3873585" lon="11.0961211"><ele>251.66666666666669</ele><time>2026-05-02T08:58:03.482Z</time></trkpt><trkpt lat="43.3873777" lon="11.0962322"><ele>251.83333333333334</ele><time>2026-05-02T08:58:05.49Z</time></trkpt><trkpt lat="43.3873918" lon="11.0963367"><ele>252.0</ele><time>2026-05-02T08:58:07.478Z</time></trkpt><trkpt lat="43.3873966" lon="11.0964349"><ele>252.0</ele><time>2026-05-02T08:58:09.49Z</time></trkpt><trkpt lat="43.3873964" lon="11.096535"><ele>252.0</ele><time>2026-05-02T08:58:11.487Z</time></trkpt><trkpt lat="43.3873999" lon="11.0966372"><ele>252.0</ele><time>2026-05-02T08:58:13.478Z</time></trkpt><trkpt lat="43.387399" lon="11.0967462"><ele>252.0</ele><time>2026-05-02T08:58:15.474Z</time></trkpt><trkpt lat="43.3873945" lon="11.0968564"><ele>252.0</ele><time>2026-05-02T08:58:17.509Z</time></trkpt><trkpt lat="43.3873935" lon="11.096962"><ele>252.0</ele><time>2026-05-02T08:58:19.481Z</time></trkpt><trkpt lat="43.3873921" lon="11.0970612"><ele>251.85714285714286</ele><time>2026-05-02T08:58:21.474Z</time></trkpt><trkpt lat="43.3873993" lon="11.0971559"><ele>251.71428571428572</ele><time>2026-05-02T08:58:23.493Z</time></trkpt><trkpt lat="43.3874056" lon="11.0972444"><ele>251.57142857142856</ele><time>2026-05-02T08:58:25.467Z</time></trkpt><trkpt lat="43.387413" lon="11.0973316"><ele>251.42857142857142</ele><time>2026-05-02T08:58:27.484Z</time></trkpt><trkpt lat="43.3874538" lon="11.0974556"><ele>251.28571428571428</ele><time>2026-05-02T08:58:30.474Z</time></trkpt><trkpt lat="43.3874806" lon="11.0975512"><ele>251.1428571428571</ele><time>2026-05-02T08:58:32.482Z</time></trkpt><trkpt lat="43.3875114" lon="11.0976307"><ele>250.99999999999997</ele><time>2026-05-02T08:58:34.476Z</time></trkpt><trkpt lat="43.3875641" lon="11.0977021"><ele>251.00000000000003</ele><time>2026-05-02T08:58:36.478Z</time></trkpt><trkpt lat="43.3876168" lon="11.0977679"><ele>251.0</ele><time>2026-05-02T08:58:38.5Z</time></trkpt><trkpt lat="43.3876812" lon="11.0978138"><ele>251.0</ele><time>2026-05-02T08:58:40.515Z</time></trkpt><trkpt lat="43.3877678" lon="11.0978576"><ele>251.0</ele><time>2026-05-02T08:58:42.513Z</time></trkpt><trkpt lat="43.3878478" lon="11.0979063"><ele>251.00000000000003</ele><time>2026-05-02T08:58:44.469Z</time></trkpt><trkpt lat="43.3879335" lon="11.0979342"><ele>251.0</ele><time>2026-05-02T08:58:46.499Z</time></trkpt><trkpt lat="43.3880131" lon="11.0979716"><ele>250.83333333333334</ele><time>2026-05-02T08:58:48.478Z</time></trkpt><trkpt lat="43.3880876" lon="11.0980046"><ele>250.66666666666669</ele><time>2026-05-02T08:58:50.508Z</time></trkpt><trkpt lat="43.3881578" lon="11.0980434"><ele>250.5</ele><time>2026-05-02T08:58:52.465Z</time></trkpt><trkpt lat="43.3882215" lon="11.0980806"><ele>250.33333333333331</ele><time>2026-05-02T08:58:54.473Z</time></trkpt><trkpt lat="43.3883028" lon="11.0981014"><ele>250.16666666666666</ele><time>2026-05-02T08:58:57.472Z</time></trkpt><trkpt lat="43.3883916" lon="11.0981439"><ele>250.0</ele><time>2026-05-02T08:59:00.463Z</time></trkpt><trkpt lat="43.3884544" lon="11.0981736"><ele>249.99999999999997</ele><time>2026-05-02T08:59:02.473Z</time></trkpt><trkpt lat="43.3885307" lon="11.0982425"><ele>250.0</ele><time>2026-05-02T08:59:05.471Z</time></trkpt><trkpt lat="43.388576" lon="11.0983177"><ele>250.0</ele><time>2026-05-02T08:59:07.475Z</time></trkpt><trkpt lat="43.3886118" lon="11.0983927"><ele>250.0</ele><time>2026-05-02T08:59:09.47Z</time></trkpt><trkpt lat="43.3886445" lon="11.0984741"><ele>249.99999999999997</ele><time>2026-05-02T08:59:11.476Z</time></trkpt><trkpt lat="43.3886939" lon="11.098584"><ele>250.0</ele><time>2026-05-02T08:59:14.464Z</time></trkpt><trkpt lat="43.3887559" lon="11.0986727"><ele>249.83333333333331</ele><time>2026-05-02T08:59:17.48Z</time></trkpt><trkpt lat="43.3888128" lon="11.0987494"><ele>249.66666666666666</ele><time>2026-05-02T08:59:20.474Z</time></trkpt><trkpt lat="43.3888746" lon="11.0988434"><ele>249.5</ele><time>2026-05-02T08:59:23.466Z</time></trkpt><trkpt lat="43.3889281" lon="11.0989387"><ele>249.33333333333331</ele><time>2026-05-02T08:59:26.479Z</time></trkpt><trkpt lat="43.3889583" lon="11.0990185"><ele>249.16666666666666</ele><time>2026-05-02T08:59:28.472Z</time></trkpt><trkpt lat="43.3889723" lon="11.0991085"><ele>249.0</ele><time>2026-05-02T08:59:30.471Z</time></trkpt><trkpt lat="43.3889801" lon="11.0992253"><ele>248.79999999999998</ele><time>2026-05-02T08:59:33.478Z</time></trkpt><trkpt lat="43.388996" lon="11.0993519"><ele>248.59999999999997</ele><time>2026-05-02T08:59:36.494Z</time></trkpt><trkpt lat="43.3890108" lon="11.099473"><ele>248.4</ele><time>2026-05-02T08:59:39.477Z</time></trkpt><trkpt lat="43.3890325" lon="11.0996049"><ele>248.2</ele><time>2026-05-02T08:59:42.48Z</time></trkpt><trkpt lat="43.389049" lon="11.0997073"><ele>248.0</ele><time>2026-05-02T08:59:44.492Z</time></trkpt><trkpt lat="43.389057" lon="11.0998365"><ele>247.33333333333334</ele><time>2026-05-02T08:59:46.484Z</time></trkpt><trkpt lat="43.3890597" lon="11.0999661"><ele>246.66666666666669</ele><time>2026-05-02T08:59:48.483Z</time></trkpt><trkpt lat="43.3890547" lon="11.100097"><ele>246.0</ele><time>2026-05-02T08:59:50.489Z</time></trkpt><trkpt lat="43.3890512" lon="11.1002236"><ele>245.33333333333331</ele><time>2026-05-02T08:59:52.489Z</time></trkpt><trkpt lat="43.3890553" lon="11.10034"><ele>244.66666666666666</ele><time>2026-05-02T08:59:54.487Z</time></trkpt><trkpt lat="43.3890384" lon="11.1004512"><ele>244.0</ele><time>2026-05-02T08:59:56.481Z</time></trkpt><trkpt lat="43.3889893" lon="11.1005366"><ele>243.99999999999997</ele><time>2026-05-02T08:59:58.487Z</time></trkpt><trkpt lat="43.3889221" lon="11.1005798"><ele>244.0</ele><time>2026-05-02T09:00:00.477Z</time></trkpt><trkpt lat="43.3888483" lon="11.1006024"><ele>244.0</ele><time>2026-05-02T09:00:02.48Z</time></trkpt><trkpt lat="43.3887581" lon="11.1006342"><ele>244.0</ele><time>2026-05-02T09:00:05.476Z</time></trkpt><trkpt lat="43.3886848" lon="11.1006572"><ele>243.99999999999997</ele><time>2026-05-02T09:00:07.481Z</time></trkpt><trkpt lat="43.3886117" lon="11.1006933"><ele>244.0</ele><time>2026-05-02T09:00:09.499Z</time></trkpt><trkpt lat="43.3885427" lon="11.1007261"><ele>242.57142857142856</ele><time>2026-05-02T09:00:11.491Z</time></trkpt><trkpt lat="43.3884808" lon="11.100759"><ele>241.14285714285714</ele><time>2026-05-02T09:00:13.502Z</time></trkpt><trkpt lat="43.3884163" lon="11.1007947"><ele>239.71428571428572</ele><time>2026-05-02T09:00:15.484Z</time></trkpt><trkpt lat="43.3883449" lon="11.1008256"><ele>238.28571428571428</ele><time>2026-05-02T09:00:17.482Z</time></trkpt><trkpt lat="43.3882775" lon="11.1008553"><ele>236.8571428571429</ele><time>2026-05-02T09:00:19.49Z</time></trkpt><trkpt lat="43.3882038" lon="11.1008559"><ele>235.42857142857144</ele><time>2026-05-02T09:00:21.481Z</time></trkpt><trkpt lat="43.3881187" lon="11.1008372"><ele>234.0</ele><time>2026-05-02T09:00:23.469Z</time></trkpt><trkpt lat="43.3880216" lon="11.1008498"><ele>233.0</ele><time>2026-05-02T09:00:25.481Z</time></trkpt><trkpt lat="43.3879178" lon="11.1008911"><ele>231.99999999999997</ele><time>2026-05-02T09:00:27.468Z</time></trkpt><trkpt lat="43.3878058" lon="11.1009387"><ele>230.99999999999997</ele><time>2026-05-02T09:00:29.479Z</time></trkpt><trkpt lat="43.3877044" lon="11.1009804"><ele>230.0</ele><time>2026-05-02T09:00:31.497Z</time></trkpt><trkpt lat="43.3875963" lon="11.1010212"><ele>229.0</ele><time>2026-05-02T09:00:33.476Z</time></trkpt><trkpt lat="43.3874892" lon="11.1010626"><ele>229.0</ele><time>2026-05-02T09:00:35.484Z</time></trkpt><trkpt lat="43.3873804" lon="11.1011078"><ele>228.99999999999997</ele><time>2026-05-02T09:00:37.494Z</time></trkpt><trkpt lat="43.3872667" lon="11.1011557"><ele>228.99999999999997</ele><time>2026-05-02T09:00:39.485Z</time></trkpt><trkpt lat="43.3871451" lon="11.1012123"><ele>229.0</ele><time>2026-05-02T09:00:41.476Z</time></trkpt><trkpt lat="43.3870815" lon="11.1012403"><ele>229.0</ele><time>2026-05-02T09:00:42.502Z</time></trkpt><trkpt lat="43.3870187" lon="11.101267"><ele>228.39999999999998</ele><time>2026-05-02T09:00:43.485Z</time></trkpt><trkpt lat="43.3869573" lon="11.1012916"><ele>227.79999999999998</ele><time>2026-05-02T09:00:44.467Z</time></trkpt><trkpt lat="43.3868426" lon="11.1013357"><ele>227.20000000000002</ele><time>2026-05-02T09:00:46.489Z</time></trkpt><trkpt lat="43.3867254" lon="11.1013776"><ele>226.60000000000002</ele><time>2026-05-02T09:00:48.485Z</time></trkpt><trkpt lat="43.3866159" lon="11.1014149"><ele>226.0</ele><time>2026-05-02T09:00:50.485Z</time></trkpt><trkpt lat="43.3865344" lon="11.1014563"><ele>225.99999999999997</ele><time>2026-05-02T09:00:52.484Z</time></trkpt><trkpt lat="43.3864909" lon="11.1015512"><ele>226.0</ele><time>2026-05-02T09:00:54.502Z</time></trkpt><trkpt lat="43.3864865" lon="11.1016645"><ele>226.0</ele><time>2026-05-02T09:00:56.47Z</time></trkpt><trkpt lat="43.3865146" lon="11.1017637"><ele>226.0</ele><time>2026-05-02T09:00:59.477Z</time></trkpt><trkpt lat="43.386527" lon="11.1018626"><ele>225.99999999999997</ele><time>2026-05-02T09:01:02.508Z</time></trkpt><trkpt lat="43.3865467" lon="11.1019542"><ele>226.0</ele><time>2026-05-02T09:01:05.48Z</time></trkpt><trkpt lat="43.3865703" lon="11.1020583"><ele>225.85714285714286</ele><time>2026-05-02T09:01:08.493Z</time></trkpt><trkpt lat="43.3865923" lon="11.1021449"><ele>225.71428571428572</ele><time>2026-05-02T09:01:11.474Z</time></trkpt><trkpt lat="43.3865853" lon="11.1022385"><ele>225.57142857142858</ele><time>2026-05-02T09:01:15.48Z</time></trkpt><trkpt lat="43.3866001" lon="11.1023264"><ele>225.42857142857144</ele><time>2026-05-02T09:01:18.465Z</time></trkpt><trkpt lat="43.3866298" lon="11.1024068"><ele>225.28571428571428</ele><time>2026-05-02T09:01:21.47Z</time></trkpt><trkpt lat="43.3866553" lon="11.1025017"><ele>225.14285714285717</ele><time>2026-05-02T09:01:24.485Z</time></trkpt><trkpt lat="43.386677" lon="11.1025891"><ele>225.00000000000003</ele><time>2026-05-02T09:01:26.481Z</time></trkpt><trkpt lat="43.3867152" lon="11.1027066"><ele>225.00000000000003</ele><time>2026-05-02T09:01:29.503Z</time></trkpt><trkpt lat="43.3867533" lon="11.1027859"><ele>225.0</ele><time>2026-05-02T09:01:31.474Z</time></trkpt><trkpt lat="43.3867923" lon="11.1028622"><ele>225.00000000000003</ele><time>2026-05-02T09:01:33.466Z</time></trkpt><trkpt lat="43.3868478" lon="11.1029461"><ele>225.00000000000003</ele><time>2026-05-02T09:01:35.466Z</time></trkpt><trkpt lat="43.3868997" lon="11.1030438"><ele>225.0</ele><time>2026-05-02T09:01:37.48Z</time></trkpt><trkpt lat="43.3869352" lon="11.1031316"><ele>225.00000000000003</ele><time>2026-05-02T09:01:39.496Z</time></trkpt><trkpt lat="43.3869722" lon="11.1032029"><ele>225.00000000000003</ele><time>2026-05-02T09:01:41.486Z</time></trkpt><trkpt lat="43.3870168" lon="11.1033175"><ele>225.28571428571433</ele><time>2026-05-02T09:01:44.502Z</time></trkpt><trkpt lat="43.3870345" lon="11.1034091"><ele>225.57142857142858</ele><time>2026-05-02T09:01:46.5Z</time></trkpt><trkpt lat="43.3870639" lon="11.1035135"><ele>225.8571428571429</ele><time>2026-05-02T09:01:48.487Z</time></trkpt><trkpt lat="43.387087" lon="11.103616"><ele>226.14285714285717</ele><time>2026-05-02T09:01:50.471Z</time></trkpt><trkpt lat="43.3870952" lon="11.1037335"><ele>226.42857142857144</ele><time>2026-05-02T09:01:53.497Z</time></trkpt><trkpt lat="43.3871095" lon="11.1038256"><ele>226.71428571428572</ele><time>2026-05-02T09:01:55.476Z</time></trkpt><trkpt lat="43.3871223" lon="11.1039149"><ele>227.0</ele><time>2026-05-02T09:01:57.492Z</time></trkpt><trkpt lat="43.3871266" lon="11.104019"><ele>226.66666666666669</ele><time>2026-05-02T09:01:59.478Z</time></trkpt><trkpt lat="43.3871216" lon="11.10412"><ele>226.33333333333334</ele><time>2026-05-02T09:02:01.486Z</time></trkpt><trkpt lat="43.3870984" lon="11.1042034"><ele>226.0</ele><time>2026-05-02T09:02:03.477Z</time></trkpt><trkpt lat="43.387063" lon="11.1043041"><ele>225.66666666666669</ele><time>2026-05-02T09:02:06.497Z</time></trkpt><trkpt lat="43.3870527" lon="11.1043951"><ele>225.33333333333334</ele><time>2026-05-02T09:02:09.499Z</time></trkpt><trkpt lat="43.3870291" lon="11.1045225"><ele>225.0</ele><time>2026-05-02T09:02:12.475Z</time></trkpt><trkpt lat="43.3870011" lon="11.104617"><ele>225.00000000000003</ele><time>2026-05-02T09:02:14.475Z</time></trkpt><trkpt lat="43.3869776" lon="11.1047102"><ele>225.0</ele><time>2026-05-02T09:02:16.494Z</time></trkpt><trkpt lat="43.3869592" lon="11.1048311"><ele>225.00000000000003</ele><time>2026-05-02T09:02:19.481Z</time></trkpt><trkpt lat="43.3869519" lon="11.104921"><ele>225.00000000000003</ele><time>2026-05-02T09:02:21.466Z</time></trkpt><trkpt lat="43.3869438" lon="11.1050138"><ele>225.0</ele><time>2026-05-02T09:02:23.486Z</time></trkpt><trkpt lat="43.3869494" lon="11.1051019"><ele>225.00000000000003</ele><time>2026-05-02T09:02:25.493Z</time></trkpt><trkpt lat="43.3869476" lon="11.1052209"><ele>225.00000000000003</ele><time>2026-05-02T09:02:28.478Z</time></trkpt><trkpt lat="43.3869385" lon="11.1053096"><ele>224.83333333333334</ele><time>2026-05-02T09:02:30.465Z</time></trkpt><trkpt lat="43.3869372" lon="11.1054279"><ele>224.66666666666669</ele><time>2026-05-02T09:02:32.473Z</time></trkpt><trkpt lat="43.3869331" lon="11.105566"><ele>224.5</ele><time>2026-05-02T09:02:34.46Z</time></trkpt><trkpt lat="43.3869326" lon="11.1056896"><ele>224.33333333333334</ele><time>2026-05-02T09:02:36.481Z</time></trkpt><trkpt lat="43.3869531" lon="11.1058044"><ele>224.16666666666669</ele><time>2026-05-02T09:02:38.459Z</time></trkpt><trkpt lat="43.3869892" lon="11.1059138"><ele>224.0</ele><time>2026-05-02T09:02:40.477Z</time></trkpt><trkpt lat="43.3870285" lon="11.1060127"><ele>223.83333333333334</ele><time>2026-05-02T09:02:42.468Z</time></trkpt><trkpt lat="43.3870604" lon="11.1061105"><ele>223.66666666666669</ele><time>2026-05-02T09:02:44.472Z</time></trkpt><trkpt lat="43.3871065" lon="11.1062558"><ele>223.5</ele><time>2026-05-02T09:02:46.471Z</time></trkpt><trkpt lat="43.3871343" lon="11.1063397"><ele>223.33333333333331</ele><time>2026-05-02T09:02:47.489Z</time></trkpt><trkpt lat="43.3871599" lon="11.1064195"><ele>223.16666666666666</ele><time>2026-05-02T09:02:48.462Z</time></trkpt><trkpt lat="43.3871928" lon="11.1065032"><ele>223.0</ele><time>2026-05-02T09:02:49.456Z</time></trkpt><trkpt lat="43.3872228" lon="11.1065855"><ele>222.33333333333331</ele><time>2026-05-02T09:02:50.475Z</time></trkpt><trkpt lat="43.3872857" lon="11.1067471"><ele>221.66666666666666</ele><time>2026-05-02T09:02:52.469Z</time></trkpt><trkpt lat="43.3873066" lon="11.1068533"><ele>221.0</ele><time>2026-05-02T09:02:54.464Z</time></trkpt><trkpt lat="43.3873002" lon="11.106952"><ele>220.33333333333331</ele><time>2026-05-02T09:02:56.477Z</time></trkpt><trkpt lat="43.3872865" lon="11.107057"><ele>219.66666666666666</ele><time>2026-05-02T09:02:58.463Z</time></trkpt><trkpt lat="43.3873143" lon="11.1071583"><ele>219.0</ele><time>2026-05-02T09:03:00.489Z</time></trkpt><trkpt lat="43.387347" lon="11.1072403"><ele>219.0</ele><time>2026-05-02T09:03:02.482Z</time></trkpt><trkpt lat="43.3873696" lon="11.1073228"><ele>219.0</ele><time>2026-05-02T09:03:04.474Z</time></trkpt><trkpt lat="43.3874213" lon="11.1074218"><ele>219.0</ele><time>2026-05-02T09:03:07.489Z</time></trkpt><trkpt lat="43.3874554" lon="11.1075128"><ele>219.0</ele><time>2026-05-02T09:03:09.555Z</time></trkpt><trkpt lat="43.3874735" lon="11.1076209"><ele>219.0</ele><time>2026-05-02T09:03:11.485Z</time></trkpt><trkpt lat="43.3874913" lon="11.1077495"><ele>219.0</ele><time>2026-05-02T09:03:13.48Z</time></trkpt><trkpt lat="43.3875118" lon="11.1078591"><ele>218.5</ele><time>2026-05-02T09:03:15.464Z</time></trkpt><trkpt lat="43.3875455" lon="11.1079552"><ele>218.0</ele><time>2026-05-02T09:03:17.468Z</time></trkpt><trkpt lat="43.3875699" lon="11.1080575"><ele>217.5</ele><time>2026-05-02T09:03:19.47Z</time></trkpt><trkpt lat="43.3876147" lon="11.1081484"><ele>217.0</ele><time>2026-05-02T09:03:22.479Z</time></trkpt><trkpt lat="43.3876689" lon="11.1082205"><ele>216.5</ele><time>2026-05-02T09:03:25.452Z</time></trkpt><trkpt lat="43.3877382" lon="11.1083054"><ele>216.0</ele><time>2026-05-02T09:03:28.477Z</time></trkpt><trkpt lat="43.3877958" lon="11.108364"><ele>216.0</ele><time>2026-05-02T09:03:30.541Z</time></trkpt><trkpt lat="43.3878065" lon="11.1084702"><ele>216.0</ele><time>2026-05-02T09:03:35.557Z</time></trkpt><trkpt lat="43.3878282" lon="11.10856"><ele>216.0</ele><time>2026-05-02T09:03:37.488Z</time></trkpt><trkpt lat="43.3878652" lon="11.1086566"><ele>216.0</ele><time>2026-05-02T09:03:39.555Z</time></trkpt><trkpt lat="43.3879131" lon="11.1087182"><ele>216.0</ele><time>2026-05-02T09:03:41.47Z</time></trkpt><trkpt lat="43.3879497" lon="11.1088104"><ele>216.0</ele><time>2026-05-02T09:03:44.551Z</time></trkpt><trkpt lat="43.3879874" lon="11.1089146"><ele>216.83333333333334</ele><time>2026-05-02T09:03:47.484Z</time></trkpt><trkpt lat="43.3880254" lon="11.1089947"><ele>217.66666666666669</ele><time>2026-05-02T09:03:49.559Z</time></trkpt><trkpt lat="43.388078" lon="11.1090837"><ele>218.5</ele><time>2026-05-02T09:03:51.494Z</time></trkpt><trkpt lat="43.3881407" lon="11.109171"><ele>219.33333333333334</ele><time>2026-05-02T09:03:53.499Z</time></trkpt><trkpt lat="43.3882041" lon="11.1092224"><ele>220.16666666666669</ele><time>2026-05-02T09:03:55.486Z</time></trkpt><trkpt lat="43.3882485" lon="11.1092886"><ele>221.0</ele><time>2026-05-02T09:03:57.471Z</time></trkpt><trkpt lat="43.3882734" lon="11.1093873"><ele>221.00000000000003</ele><time>2026-05-02T09:03:59.487Z</time></trkpt><trkpt lat="43.3882631" lon="11.1095085"><ele>221.0</ele><time>2026-05-02T09:04:02.457Z</time></trkpt><trkpt lat="43.3882509" lon="11.1096075"><ele>221.0</ele><time>2026-05-02T09:04:05.551Z</time></trkpt><trkpt lat="43.3882714" lon="11.1097139"><ele>221.0</ele><time>2026-05-02T09:04:08.487Z</time></trkpt><trkpt lat="43.3882986" lon="11.1098185"><ele>221.00000000000003</ele><time>2026-05-02T09:04:11.484Z</time></trkpt><trkpt lat="43.3883264" lon="11.1099124"><ele>221.0</ele><time>2026-05-02T09:04:14.548Z</time></trkpt><trkpt lat="43.3883509" lon="11.1100097"><ele>220.00000000000003</ele><time>2026-05-02T09:04:16.468Z</time></trkpt><trkpt lat="43.3883923" lon="11.110107"><ele>219.0</ele><time>2026-05-02T09:04:18.492Z</time></trkpt><trkpt lat="43.3884399" lon="11.1102168"><ele>218.0</ele><time>2026-05-02T09:04:21.469Z</time></trkpt><trkpt lat="43.3884911" lon="11.1103274"><ele>217.0</ele><time>2026-05-02T09:04:23.475Z</time></trkpt><trkpt lat="43.3885238" lon="11.110417"><ele>216.00000000000003</ele><time>2026-05-02T09:04:25.548Z</time></trkpt><trkpt lat="43.3885775" lon="11.1104891"><ele>215.0</ele><time>2026-05-02T09:04:27.463Z</time></trkpt><trkpt lat="43.3886144" lon="11.1105647"><ele>215.0</ele><time>2026-05-02T09:04:28.486Z</time></trkpt><trkpt lat="43.3886771" lon="11.1106763"><ele>215.0</ele><time>2026-05-02T09:04:30.479Z</time></trkpt><trkpt lat="43.3887235" lon="11.1107903"><ele>215.0</ele><time>2026-05-02T09:04:32.474Z</time></trkpt><trkpt lat="43.388768" lon="11.1109034"><ele>215.0</ele><time>2026-05-02T09:04:34.488Z</time></trkpt><trkpt lat="43.3888059" lon="11.1110084"><ele>215.0</ele><time>2026-05-02T09:04:37.494Z</time></trkpt><trkpt lat="43.3888178" lon="11.1111121"><ele>215.16666666666669</ele><time>2026-05-02T09:04:40.487Z</time></trkpt><trkpt lat="43.3888284" lon="11.1112018"><ele>215.33333333333334</ele><time>2026-05-02T09:04:42.479Z</time></trkpt><trkpt lat="43.3888387" lon="11.1112932"><ele>215.5</ele><time>2026-05-02T09:04:44.556Z</time></trkpt><trkpt lat="43.3888698" lon="11.1114076"><ele>215.66666666666669</ele><time>2026-05-02T09:04:46.496Z</time></trkpt><trkpt lat="43.3888966" lon="11.1114986"><ele>215.83333333333334</ele><time>2026-05-02T09:04:48.49Z</time></trkpt><trkpt lat="43.3888921" lon="11.1115886"><ele>216.0</ele><time>2026-05-02T09:04:50.564Z</time></trkpt><trkpt lat="43.3888788" lon="11.1117199"><ele>216.42857142857142</ele><time>2026-05-02T09:04:52.483Z</time></trkpt><trkpt lat="43.3889123" lon="11.1118105"><ele>216.85714285714283</ele><time>2026-05-02T09:04:56.475Z</time></trkpt><trkpt lat="43.3889942" lon="11.1118287"><ele>217.28571428571428</ele><time>2026-05-02T09:05:26.48Z</time></trkpt><trkpt lat="43.3889316" lon="11.1118496"><ele>217.71428571428572</ele><time>2026-05-02T09:05:39.484Z</time></trkpt><trkpt lat="43.3889486" lon="11.1119413"><ele>218.14285714285714</ele><time>2026-05-02T09:05:46.492Z</time></trkpt><trkpt lat="43.3889872" lon="11.1120388"><ele>218.57142857142858</ele><time>2026-05-02T09:05:50.466Z</time></trkpt><trkpt lat="43.3890485" lon="11.1120899"><ele>219.0</ele><time>2026-05-02T09:05:54.544Z</time></trkpt><trkpt lat="43.3890819" lon="11.1121651"><ele>219.0</ele><time>2026-05-02T09:06:02.474Z</time></trkpt><trkpt lat="43.3891127" lon="11.1122515"><ele>218.99999999999997</ele><time>2026-05-02T09:06:07.486Z</time></trkpt><trkpt lat="43.3891851" lon="11.1123049"><ele>218.99999999999997</ele><time>2026-05-02T09:06:14.483Z</time></trkpt><trkpt lat="43.3892741" lon="11.112384"><ele>219.0</ele><time>2026-05-02T09:06:23.484Z</time></trkpt><trkpt lat="43.3893137" lon="11.1124865"><ele>219.0</ele><time>2026-05-02T09:06:36.458Z</time></trkpt><trkpt lat="43.3894211" lon="11.1125616"><ele>217.33333333333334</ele><time>2026-05-02T09:06:38.475Z</time></trkpt><trkpt lat="43.3895049" lon="11.1125934"><ele>215.66666666666669</ele><time>2026-05-02T09:06:47.475Z</time></trkpt><trkpt lat="43.3895692" lon="11.1126557"><ele>214.0</ele><time>2026-05-02T09:06:50.456Z</time></trkpt><trkpt lat="43.3895583" lon="11.1127579"><ele>212.33333333333334</ele><time>2026-05-02T09:06:56.475Z</time></trkpt><trkpt lat="43.3895597" lon="11.1128608"><ele>210.66666666666669</ele><time>2026-05-02T09:06:59.492Z</time></trkpt><trkpt lat="43.3895841" lon="11.1129768"><ele>209.0</ele><time>2026-05-02T09:07:02.466Z</time></trkpt><trkpt lat="43.3896191" lon="11.1130744"><ele>209.00000000000003</ele><time>2026-05-02T09:07:05.561Z</time></trkpt><trkpt lat="43.3896293" lon="11.1132069"><ele>209.0</ele><time>2026-05-02T09:07:08.474Z</time></trkpt><trkpt lat="43.3896139" lon="11.113313"><ele>209.0</ele><time>2026-05-02T09:07:10.456Z</time></trkpt><trkpt lat="43.3895845" lon="11.1134108"><ele>209.0</ele><time>2026-05-02T09:07:12.476Z</time></trkpt><trkpt lat="43.3895968" lon="11.113506"><ele>209.00000000000003</ele><time>2026-05-02T09:07:14.555Z</time></trkpt><trkpt lat="43.3896263" lon="11.1136605"><ele>209.0</ele><time>2026-05-02T09:07:16.46Z</time></trkpt><trkpt lat="43.3896495" lon="11.1137904"><ele>208.66666666666669</ele><time>2026-05-02T09:07:18.478Z</time></trkpt><trkpt lat="43.3896431" lon="11.1138946"><ele>208.33333333333334</ele><time>2026-05-02T09:07:20.558Z</time></trkpt><trkpt lat="43.3896398" lon="11.1139949"><ele>208.0</ele><time>2026-05-02T09:07:22.487Z</time></trkpt><trkpt lat="43.3896474" lon="11.1141067"><ele>207.66666666666669</ele><time>2026-05-02T09:07:25.539Z</time></trkpt><trkpt lat="43.3896712" lon="11.1141899"><ele>207.33333333333334</ele><time>2026-05-02T09:07:27.474Z</time></trkpt><trkpt lat="43.389703" lon="11.1142801"><ele>207.0</ele><time>2026-05-02T09:07:29.487Z</time></trkpt><trkpt lat="43.3897534" lon="11.1143696"><ele>207.85714285714286</ele><time>2026-05-02T09:07:31.482Z</time></trkpt><trkpt lat="43.3897993" lon="11.1144374"><ele>208.71428571428572</ele><time>2026-05-02T09:07:33.484Z</time></trkpt><trkpt lat="43.3898628" lon="11.1145221"><ele>209.57142857142856</ele><time>2026-05-02T09:07:36.48Z</time></trkpt><trkpt lat="43.3899176" lon="11.1145679"><ele>210.42857142857144</ele><time>2026-05-02T09:07:39.569Z</time></trkpt><trkpt lat="43.3899682" lon="11.1146406"><ele>211.28571428571428</ele><time>2026-05-02T09:07:41.467Z</time></trkpt><trkpt lat="43.3900287" lon="11.1146748"><ele>212.14285714285714</ele><time>2026-05-02T09:07:44.559Z</time></trkpt><trkpt lat="43.3900835" lon="11.1147302"><ele>213.0</ele><time>2026-05-02T09:07:48.48Z</time></trkpt><trkpt lat="43.3901517" lon="11.1147416"><ele>213.0</ele><time>2026-05-02T09:07:51.531Z</time></trkpt><trkpt lat="43.3902298" lon="11.1147588"><ele>213.0</ele><time>2026-05-02T09:07:54.563Z</time></trkpt><trkpt lat="43.3903172" lon="11.1147611"><ele>213.0</ele><time>2026-05-02T09:07:57.482Z</time></trkpt><trkpt lat="43.3903845" lon="11.11481"><ele>213.0</ele><time>2026-05-02T09:08:00.548Z</time></trkpt><trkpt lat="43.3904363" lon="11.1148734"><ele>213.0</ele><time>2026-05-02T09:08:03.473Z</time></trkpt><trkpt lat="43.3904885" lon="11.1149234"><ele>213.0</ele><time>2026-05-02T09:08:06.493Z</time></trkpt><trkpt lat="43.3905666" lon="11.1149768"><ele>212.7142857142857</ele><time>2026-05-02T09:08:09.485Z</time></trkpt><trkpt lat="43.390629" lon="11.1150131"><ele>212.42857142857142</ele><time>2026-05-02T09:08:11.483Z</time></trkpt><trkpt lat="43.3906937" lon="11.1150562"><ele>212.14285714285714</ele><time>2026-05-02T09:08:13.498Z</time></trkpt><trkpt lat="43.3907487" lon="11.1151199"><ele>211.85714285714283</ele><time>2026-05-02T09:08:15.548Z</time></trkpt><trkpt lat="43.3907997" lon="11.1151901"><ele>211.57142857142858</ele><time>2026-05-02T09:08:17.49Z</time></trkpt><trkpt lat="43.3908503" lon="11.1152555"><ele>211.28571428571428</ele><time>2026-05-02T09:08:19.458Z</time></trkpt><trkpt lat="43.3909098" lon="11.1153322"><ele>211.0</ele><time>2026-05-02T09:08:21.482Z</time></trkpt><trkpt lat="43.3909704" lon="11.1154037"><ele>210.99999999999997</ele><time>2026-05-02T09:08:23.556Z</time></trkpt><trkpt lat="43.3910136" lon="11.1154803"><ele>211.0</ele><time>2026-05-02T09:08:25.558Z</time></trkpt><trkpt lat="43.3910323" lon="11.1155631"><ele>211.0</ele><time>2026-05-02T09:08:27.481Z</time></trkpt><trkpt lat="43.3910818" lon="11.1156626"><ele>211.0</ele><time>2026-05-02T09:08:30.571Z</time></trkpt><trkpt lat="43.3911237" lon="11.1157354"><ele>210.99999999999997</ele><time>2026-05-02T09:08:32.479Z</time></trkpt><trkpt lat="43.3911931" lon="11.1158206"><ele>211.0</ele><time>2026-05-02T09:08:35.551Z</time></trkpt><trkpt lat="43.3912599" lon="11.115873"><ele>209.99999999999997</ele><time>2026-05-02T09:08:37.488Z</time></trkpt><trkpt lat="43.3913236" lon="11.1158777"><ele>209.0</ele><time>2026-05-02T09:08:39.486Z</time></trkpt><trkpt lat="43.3914106" lon="11.1159061"><ele>208.0</ele><time>2026-05-02T09:08:41.485Z</time></trkpt><trkpt lat="43.3914718" lon="11.116004"><ele>207.0</ele><time>2026-05-02T09:08:44.48Z</time></trkpt><trkpt lat="43.3915163" lon="11.1160882"><ele>205.99999999999997</ele><time>2026-05-02T09:08:46.471Z</time></trkpt><trkpt lat="43.3915917" lon="11.1161586"><ele>205.0</ele><time>2026-05-02T09:08:48.48Z</time></trkpt><trkpt lat="43.391652" lon="11.1162195"><ele>204.83333333333331</ele><time>2026-05-02T09:08:51.462Z</time></trkpt><trkpt lat="43.3917026" lon="11.1163277"><ele>204.66666666666666</ele><time>2026-05-02T09:08:57.49Z</time></trkpt><trkpt lat="43.3917675" lon="11.1164282"><ele>204.5</ele><time>2026-05-02T09:08:59.558Z</time></trkpt><trkpt lat="43.3918205" lon="11.1164839"><ele>204.33333333333331</ele><time>2026-05-02T09:09:00.562Z</time></trkpt><trkpt lat="43.3918889" lon="11.1165151"><ele>204.16666666666666</ele><time>2026-05-02T09:09:03.489Z</time></trkpt><trkpt lat="43.3919555" lon="11.116593"><ele>204.0</ele><time>2026-05-02T09:09:05.543Z</time></trkpt><trkpt lat="43.3920089" lon="11.1166774"><ele>203.33333333333334</ele><time>2026-05-02T09:09:07.49Z</time></trkpt><trkpt lat="43.3920429" lon="11.1168136"><ele>202.66666666666669</ele><time>2026-05-02T09:09:09.564Z</time></trkpt><trkpt lat="43.3920744" lon="11.1169535"><ele>202.0</ele><time>2026-05-02T09:09:11.49Z</time></trkpt><trkpt lat="43.392106" lon="11.1170342"><ele>201.33333333333334</ele><time>2026-05-02T09:09:12.463Z</time></trkpt><trkpt lat="43.3921439" lon="11.1171069"><ele>200.66666666666669</ele><time>2026-05-02T09:09:13.482Z</time></trkpt><trkpt lat="43.3921819" lon="11.1171891"><ele>200.0</ele><time>2026-05-02T09:09:14.491Z</time></trkpt><trkpt lat="43.3922217" lon="11.1172642"><ele>198.83333333333334</ele><time>2026-05-02T09:09:15.477Z</time></trkpt><trkpt lat="43.3922602" lon="11.1173409"><ele>197.66666666666669</ele><time>2026-05-02T09:09:16.496Z</time></trkpt><trkpt lat="43.3922883" lon="11.1174373"><ele>196.5</ele><time>2026-05-02T09:09:17.473Z</time></trkpt><trkpt lat="43.3923272" lon="11.1175557"><ele>195.33333333333331</ele><time>2026-05-02T09:09:18.481Z</time></trkpt><trkpt lat="43.3923784" lon="11.1176647"><ele>194.16666666666666</ele><time>2026-05-02T09:09:19.471Z</time></trkpt><trkpt lat="43.392436" lon="11.1177696"><ele>193.0</ele><time>2026-05-02T09:09:20.483Z</time></trkpt><trkpt lat="43.3924734" lon="11.1178689"><ele>192.99999999999997</ele><time>2026-05-02T09:09:21.488Z</time></trkpt><trkpt lat="43.3924996" lon="11.1179516"><ele>193.0</ele><time>2026-05-02T09:09:22.475Z</time></trkpt><trkpt lat="43.3925251" lon="11.1180875"><ele>193.0</ele><time>2026-05-02T09:09:24.49Z</time></trkpt><trkpt lat="43.392526" lon="11.118224"><ele>193.0</ele><time>2026-05-02T09:09:26.464Z</time></trkpt><trkpt lat="43.3925004" lon="11.1183314"><ele>192.99999999999997</ele><time>2026-05-02T09:09:28.568Z</time></trkpt><trkpt lat="43.3924852" lon="11.1184355"><ele>193.0</ele><time>2026-05-02T09:09:30.48Z</time></trkpt><trkpt lat="43.392491" lon="11.1185228"><ele>192.57142857142858</ele><time>2026-05-02T09:09:32.478Z</time></trkpt><trkpt lat="43.3924971" lon="11.1186094"><ele>192.14285714285714</ele><time>2026-05-02T09:09:34.565Z</time></trkpt><trkpt lat="43.3925163" lon="11.1186972"><ele>191.71428571428572</ele><time>2026-05-02T09:09:36.49Z</time></trkpt><trkpt lat="43.3925468" lon="11.1188003"><ele>191.28571428571428</ele><time>2026-05-02T09:09:39.478Z</time></trkpt><trkpt lat="43.3926075" lon="11.1188418"><ele>190.85714285714286</ele><time>2026-05-02T09:09:45.556Z</time></trkpt><trkpt lat="43.3926311" lon="11.1189286"><ele>190.42857142857144</ele><time>2026-05-02T09:10:00.48Z</time></trkpt><trkpt lat="43.3926532" lon="11.1190336"><ele>190.0</ele><time>2026-05-02T09:10:04.546Z</time></trkpt><trkpt lat="43.3926992" lon="11.11912"><ele>189.57142857142858</ele><time>2026-05-02T09:10:09.563Z</time></trkpt><trkpt lat="43.392731" lon="11.1192078"><ele>189.14285714285717</ele><time>2026-05-02T09:10:11.457Z</time></trkpt><trkpt lat="43.3927455" lon="11.119297"><ele>188.71428571428572</ele><time>2026-05-02T09:10:15.546Z</time></trkpt><trkpt lat="43.392782" lon="11.119374"><ele>188.28571428571428</ele><time>2026-05-02T09:10:48.55Z</time></trkpt><trkpt lat="43.3928489" lon="11.1193838"><ele>187.85714285714286</ele><time>2026-05-02T09:11:17.48Z</time></trkpt><trkpt lat="43.3928021" lon="11.1192885"><ele>187.42857142857142</ele><time>2026-05-02T09:11:30.562Z</time></trkpt><trkpt lat="43.3927663" lon="11.1191951"><ele>187.0</ele><time>2026-05-02T09:11:34.477Z</time></trkpt><trkpt lat="43.3927235" lon="11.1191121"><ele>187.42857142857142</ele><time>2026-05-02T09:11:37.47Z</time></trkpt><trkpt lat="43.392681" lon="11.119016"><ele>187.85714285714286</ele><time>2026-05-02T09:11:40.486Z</time></trkpt><trkpt lat="43.3926622" lon="11.1189321"><ele>188.28571428571428</ele><time>2026-05-02T09:11:43.48Z</time></trkpt><trkpt lat="43.392658" lon="11.1188361"><ele>188.71428571428572</ele><time>2026-05-02T09:11:49.548Z</time></trkpt><trkpt lat="43.3927336" lon="11.1188457"><ele>189.14285714285717</ele><time>2026-05-02T09:11:53.486Z</time></trkpt><trkpt lat="43.392804" lon="11.1188692"><ele>189.57142857142858</ele><time>2026-05-02T09:11:57.467Z</time></trkpt><trkpt lat="43.3928636" lon="11.1188122"><ele>190.0</ele><time>2026-05-02T09:12:02.491Z</time></trkpt><trkpt lat="43.3929404" lon="11.1188164"><ele>190.5</ele><time>2026-05-02T09:12:05.483Z</time></trkpt><trkpt lat="43.3930211" lon="11.1188396"><ele>191.0</ele><time>2026-05-02T09:12:08.481Z</time></trkpt><trkpt lat="43.3930862" lon="11.118835"><ele>191.5</ele><time>2026-05-02T09:12:11.483Z</time></trkpt><trkpt lat="43.3931308" lon="11.1189244"><ele>192.0</ele><time>2026-05-02T09:12:15.482Z</time></trkpt><trkpt lat="43.3931825" lon="11.1190126"><ele>192.49999999999997</ele><time>2026-05-02T09:12:18.534Z</time></trkpt><trkpt lat="43.393236" lon="11.1191144"><ele>193.0</ele><time>2026-05-02T09:12:21.48Z</time></trkpt><trkpt lat="43.3932873" lon="11.119228"><ele>192.99999999999997</ele><time>2026-05-02T09:12:24.55Z</time></trkpt><trkpt lat="43.3933125" lon="11.1193471"><ele>193.0</ele><time>2026-05-02T09:12:27.479Z</time></trkpt><trkpt lat="43.3933368" lon="11.1194443"><ele>193.0</ele><time>2026-05-02T09:12:30.558Z</time></trkpt><trkpt lat="43.393366" lon="11.1195702"><ele>193.0</ele><time>2026-05-02T09:12:33.487Z</time></trkpt><trkpt lat="43.393379" lon="11.1196619"><ele>192.99999999999997</ele><time>2026-05-02T09:12:35.48Z</time></trkpt><trkpt lat="43.3934078" lon="11.1197549"><ele>193.0</ele><time>2026-05-02T09:12:37.476Z</time></trkpt><trkpt lat="43.3934444" lon="11.1198465"><ele>191.8</ele><time>2026-05-02T09:12:40.479Z</time></trkpt><trkpt lat="43.3934639" lon="11.1199477"><ele>190.60000000000002</ele><time>2026-05-02T09:12:42.496Z</time></trkpt><trkpt lat="43.3934741" lon="11.1200494"><ele>189.39999999999998</ele><time>2026-05-02T09:12:44.494Z</time></trkpt><trkpt lat="43.3935082" lon="11.1201702"><ele>188.2</ele><time>2026-05-02T09:12:47.49Z</time></trkpt><trkpt lat="43.3935903" lon="11.1202706"><ele>187.0</ele><time>2026-05-02T09:12:49.485Z</time></trkpt><trkpt lat="43.393687" lon="11.1203618"><ele>187.0</ele><time>2026-05-02T09:12:51.501Z</time></trkpt><trkpt lat="43.3937388" lon="11.1204431"><ele>187.0</ele><time>2026-05-02T09:12:53.49Z</time></trkpt><trkpt lat="43.3937392" lon="11.1205481"><ele>187.0</ele><time>2026-05-02T09:12:55.566Z</time></trkpt><trkpt lat="43.3937029" lon="11.1206559"><ele>187.0</ele><time>2026-05-02T09:12:57.48Z</time></trkpt><trkpt lat="43.3936385" lon="11.1207451"><ele>187.0</ele><time>2026-05-02T09:12:59.554Z</time></trkpt><trkpt lat="43.3935682" lon="11.120804"><ele>187.0</ele><time>2026-05-02T09:13:01.461Z</time></trkpt><trkpt lat="43.3935134" lon="11.1208516"><ele>187.0</ele><time>2026-05-02T09:13:03.485Z</time></trkpt><trkpt lat="43.39345" lon="11.1208845"><ele>187.0</ele><time>2026-05-02T09:13:06.474Z</time></trkpt><trkpt lat="43.3933851" lon="11.1208214"><ele>187.0</ele><time>2026-05-02T09:13:09.475Z</time></trkpt><trkpt lat="43.3933458" lon="11.1207149"><ele>187.0</ele><time>2026-05-02T09:13:12.482Z</time></trkpt><trkpt lat="43.3933145" lon="11.1206396"><ele>187.0</ele><time>2026-05-02T09:13:14.472Z</time></trkpt><trkpt lat="43.3932592" lon="11.120527"><ele>187.0</ele><time>2026-05-02T09:13:17.481Z</time></trkpt><trkpt lat="43.3932178" lon="11.1204587"><ele>187.0</ele><time>2026-05-02T09:13:19.489Z</time></trkpt><trkpt lat="43.3931738" lon="11.1203838"><ele>187.0</ele><time>2026-05-02T09:13:21.479Z</time></trkpt><trkpt lat="43.3931289" lon="11.1203095"><ele>187.0</ele><time>2026-05-02T09:13:23.489Z</time></trkpt><trkpt lat="43.3930903" lon="11.1202407"><ele>187.0</ele><time>2026-05-02T09:13:25.484Z</time></trkpt><trkpt lat="43.3930077" lon="11.1202349"><ele>187.0</ele><time>2026-05-02T09:13:29.481Z</time></trkpt><trkpt lat="43.392941" lon="11.1202555"><ele>187.0</ele><time>2026-05-02T09:13:32.474Z</time></trkpt><trkpt lat="43.3928837" lon="11.120325"><ele>187.0</ele><time>2026-05-02T09:13:36.466Z</time></trkpt><trkpt lat="43.3928025" lon="11.120302"><ele>187.0</ele><time>2026-05-02T09:13:40.487Z</time></trkpt><trkpt lat="43.3927564" lon="11.1202147"><ele>187.0</ele><time>2026-05-02T09:13:43.565Z</time></trkpt><trkpt lat="43.3927133" lon="11.1201256"><ele>187.0</ele><time>2026-05-02T09:13:46.469Z</time></trkpt><trkpt lat="43.3926595" lon="11.1200259"><ele>187.0</ele><time>2026-05-02T09:13:49.56Z</time></trkpt><trkpt lat="43.3926103" lon="11.1199546"><ele>187.0</ele><time>2026-05-02T09:13:52.483Z</time></trkpt><trkpt lat="43.3925494" lon="11.1198945"><ele>187.0</ele><time>2026-05-02T09:13:55.485Z</time></trkpt><trkpt lat="43.3924949" lon="11.1198355"><ele>187.0</ele><time>2026-05-02T09:14:02.477Z</time></trkpt><trkpt lat="43.392439" lon="11.1197635"><ele>187.0</ele><time>2026-05-02T09:14:08.491Z</time></trkpt><trkpt lat="43.3923703" lon="11.1196635"><ele>187.0</ele><time>2026-05-02T09:14:12.47Z</time></trkpt><trkpt lat="43.3923261" lon="11.119576"><ele>187.0</ele><time>2026-05-02T09:14:15.543Z</time></trkpt><trkpt lat="43.392362" lon="11.1196637"><ele>187.0</ele><time>2026-05-02T09:14:25.568Z</time></trkpt><trkpt lat="43.3924387" lon="11.1197363"><ele>187.0</ele><time>2026-05-02T09:14:45.547Z</time></trkpt><trkpt lat="43.3924907" lon="11.1198186"><ele>187.0</ele><time>2026-05-02T09:14:56.478Z</time></trkpt><trkpt lat="43.3925416" lon="11.1198875"><ele>187.0</ele><time>2026-05-02T09:15:00.547Z</time></trkpt><trkpt lat="43.3925641" lon="11.1199723"><ele>187.0</ele><time>2026-05-02T09:15:14.496Z</time></trkpt><trkpt lat="43.3925957" lon="11.1200507"><ele>187.0</ele><time>2026-05-02T09:15:31.467Z</time></trkpt><trkpt lat="43.3926441" lon="11.1201405"><ele>187.0</ele><time>2026-05-02T09:15:35.57Z</time></trkpt><trkpt lat="43.3926934" lon="11.1202092"><ele>187.0</ele><time>2026-05-02T09:15:37.494Z</time></trkpt><trkpt lat="43.3927532" lon="11.1202753"><ele>187.0</ele><time>2026-05-02T09:15:39.572Z</time></trkpt><trkpt lat="43.3928058" lon="11.1203323"><ele>187.0</ele><time>2026-05-02T09:15:41.487Z</time></trkpt><trkpt lat="43.3928743" lon="11.1203408"><ele>187.0</ele><time>2026-05-02T09:15:44.488Z</time></trkpt><trkpt lat="43.3929568" lon="11.1203"><ele>187.0</ele><time>2026-05-02T09:15:47.494Z</time></trkpt><trkpt lat="43.3930362" lon="11.1202836"><ele>187.0</ele><time>2026-05-02T09:15:49.576Z</time></trkpt><trkpt lat="43.3931133" lon="11.1203289"><ele>187.0</ele><time>2026-05-02T09:15:52.496Z</time></trkpt><trkpt lat="43.39315" lon="11.1204298"><ele>187.0</ele><time>2026-05-02T09:15:55.561Z</time></trkpt><trkpt lat="43.3932035" lon="11.1205061"><ele>187.0</ele><time>2026-05-02T09:15:58.495Z</time></trkpt><trkpt lat="43.3932674" lon="11.1206121"><ele>187.0</ele><time>2026-05-02T09:16:01.488Z</time></trkpt><trkpt lat="43.3933104" lon="11.1207076"><ele>187.0</ele><time>2026-05-02T09:16:03.493Z</time></trkpt><trkpt lat="43.3933652" lon="11.1207842"><ele>187.0</ele><time>2026-05-02T09:16:05.48Z</time></trkpt><trkpt lat="43.3934376" lon="11.1208738"><ele>187.0</ele><time>2026-05-02T09:16:08.479Z</time></trkpt><trkpt lat="43.3934763" lon="11.1209525"><ele>187.0</ele><time>2026-05-02T09:16:11.488Z</time></trkpt><trkpt lat="43.3935179" lon="11.1210501"><ele>187.28571428571428</ele><time>2026-05-02T09:16:14.476Z</time></trkpt><trkpt lat="43.3935559" lon="11.1211382"><ele>187.57142857142858</ele><time>2026-05-02T09:16:16.508Z</time></trkpt><trkpt lat="43.39359" lon="11.1212154"><ele>187.85714285714286</ele><time>2026-05-02T09:16:18.504Z</time></trkpt><trkpt lat="43.3936248" lon="11.1212976"><ele>188.14285714285714</ele><time>2026-05-02T09:16:20.487Z</time></trkpt><trkpt lat="43.3936685" lon="11.1213641"><ele>188.42857142857144</ele><time>2026-05-02T09:16:22.5Z</time></trkpt><trkpt lat="43.3937238" lon="11.1214266"><ele>188.71428571428572</ele><time>2026-05-02T09:16:24.495Z</time></trkpt><trkpt lat="43.3937769" lon="11.1214777"><ele>189.0</ele><time>2026-05-02T09:16:26.488Z</time></trkpt><trkpt lat="43.3938504" lon="11.1215305"><ele>188.16666666666666</ele><time>2026-05-02T09:16:29.561Z</time></trkpt><trkpt lat="43.3939102" lon="11.1216169"><ele>187.33333333333334</ele><time>2026-05-02T09:16:31.484Z</time></trkpt><trkpt lat="43.3939568" lon="11.1216972"><ele>186.5</ele><time>2026-05-02T09:16:33.477Z</time></trkpt><trkpt lat="43.3939919" lon="11.1218039"><ele>185.66666666666669</ele><time>2026-05-02T09:16:35.558Z</time></trkpt><trkpt lat="43.3940247" lon="11.1219136"><ele>184.83333333333334</ele><time>2026-05-02T09:16:37.489Z</time></trkpt><trkpt lat="43.394072" lon="11.1219964"><ele>184.0</ele><time>2026-05-02T09:16:39.558Z</time></trkpt><trkpt lat="43.3940977" lon="11.1220912"><ele>184.0</ele><time>2026-05-02T09:16:41.486Z</time></trkpt><trkpt lat="43.3941226" lon="11.1221863"><ele>184.0</ele><time>2026-05-02T09:16:43.501Z</time></trkpt><trkpt lat="43.3941557" lon="11.1222882"><ele>184.0</ele><time>2026-05-02T09:16:45.465Z</time></trkpt><trkpt lat="43.3941989" lon="11.1223963"><ele>184.0</ele><time>2026-05-02T09:16:47.492Z</time></trkpt><trkpt lat="43.3942365" lon="11.1224959"><ele>184.0</ele><time>2026-05-02T09:16:49.487Z</time></trkpt><trkpt lat="43.3942651" lon="11.1225975"><ele>184.0</ele><time>2026-05-02T09:16:51.483Z</time></trkpt><trkpt lat="43.3942957" lon="11.1226784"><ele>183.5</ele><time>2026-05-02T09:16:53.473Z</time></trkpt><trkpt lat="43.3943258" lon="11.1227656"><ele>183.0</ele><time>2026-05-02T09:16:55.491Z</time></trkpt><trkpt lat="43.3943552" lon="11.1228567"><ele>182.5</ele><time>2026-05-02T09:16:57.483Z</time></trkpt><trkpt lat="43.3944053" lon="11.1229871"><ele>182.0</ele><time>2026-05-02T09:17:00.554Z</time></trkpt><trkpt lat="43.3944618" lon="11.1230729"><ele>181.5</ele><time>2026-05-02T09:17:02.481Z</time></trkpt><trkpt lat="43.3944991" lon="11.1231552"><ele>181.0</ele><time>2026-05-02T09:17:04.552Z</time></trkpt><trkpt lat="43.3945438" lon="11.1232399"><ele>181.0</ele><time>2026-05-02T09:17:06.5Z</time></trkpt><trkpt lat="43.3946088" lon="11.1233153"><ele>181.0</ele><time>2026-05-02T09:17:08.486Z</time></trkpt><trkpt lat="43.3946701" lon="11.1233727"><ele>181.0</ele><time>2026-05-02T09:17:10.544Z</time></trkpt><trkpt lat="43.3947437" lon="11.1234216"><ele>181.0</ele><time>2026-05-02T09:17:12.498Z</time></trkpt><trkpt lat="43.3948164" lon="11.1234851"><ele>181.0</ele><time>2026-05-02T09:17:14.495Z</time></trkpt><trkpt lat="43.3948915" lon="11.1235542"><ele>181.0</ele><time>2026-05-02T09:17:16.481Z</time></trkpt><trkpt lat="43.3949783" lon="11.1236374"><ele>181.4</ele><time>2026-05-02T09:17:18.469Z</time></trkpt><trkpt lat="43.3950487" lon="11.1237398"><ele>181.8</ele><time>2026-05-02T09:17:20.487Z</time></trkpt><trkpt lat="43.3951203" lon="11.123861"><ele>182.20000000000002</ele><time>2026-05-02T09:17:22.5Z</time></trkpt><trkpt lat="43.3951689" lon="11.1239641"><ele>182.60000000000002</ele><time>2026-05-02T09:17:24.497Z</time></trkpt><trkpt lat="43.3951832" lon="11.1240724"><ele>183.0</ele><time>2026-05-02T09:17:26.493Z</time></trkpt><trkpt lat="43.3951827" lon="11.1241648"><ele>182.0</ele><time>2026-05-02T09:17:28.489Z</time></trkpt><trkpt lat="43.395185" lon="11.1242875"><ele>181.0</ele><time>2026-05-02T09:17:31.488Z</time></trkpt><trkpt lat="43.39517" lon="11.1243771"><ele>180.0</ele><time>2026-05-02T09:17:33.578Z</time></trkpt><trkpt lat="43.3951742" lon="11.1244762"><ele>179.0</ele><time>2026-05-02T09:17:35.491Z</time></trkpt><trkpt lat="43.395184" lon="11.1245955"><ele>178.0</ele><time>2026-05-02T09:17:37.497Z</time></trkpt><trkpt lat="43.3952034" lon="11.1247168"><ele>177.0</ele><time>2026-05-02T09:17:39.486Z</time></trkpt><trkpt lat="43.3952324" lon="11.1248145"><ele>176.8</ele><time>2026-05-02T09:17:41.493Z</time></trkpt><trkpt lat="43.3952782" lon="11.1248996"><ele>176.6</ele><time>2026-05-02T09:17:43.498Z</time></trkpt><trkpt lat="43.3953221" lon="11.1250067"><ele>176.4</ele><time>2026-05-02T09:17:45.592Z</time></trkpt><trkpt lat="43.3953337" lon="11.1251789"><ele>176.20000000000002</ele><time>2026-05-02T09:17:47.492Z</time></trkpt><trkpt lat="43.3954532" lon="11.1251198"><ele>176.0</ele><time>2026-05-02T09:17:49.498Z</time></trkpt><trkpt lat="43.3955223" lon="11.1251019"><ele>176.33333333333331</ele><time>2026-05-02T09:17:50.487Z</time></trkpt><trkpt lat="43.3956174" lon="11.1250941"><ele>176.66666666666666</ele><time>2026-05-02T09:17:52.505Z</time></trkpt><trkpt lat="43.3957031" lon="11.1250822"><ele>177.0</ele><time>2026-05-02T09:17:54.485Z</time></trkpt><trkpt lat="43.3957849" lon="11.1250674"><ele>177.33333333333334</ele><time>2026-05-02T09:17:56.483Z</time></trkpt><trkpt lat="43.3958609" lon="11.1250495"><ele>177.66666666666669</ele><time>2026-05-02T09:17:58.487Z</time></trkpt><trkpt lat="43.395965" lon="11.1250131"><ele>178.0</ele><time>2026-05-02T09:18:00.489Z</time></trkpt><trkpt lat="43.3960655" lon="11.1250075"><ele>178.0</ele><time>2026-05-02T09:18:02.484Z</time></trkpt><trkpt lat="43.3961531" lon="11.1250296"><ele>178.0</ele><time>2026-05-02T09:18:04.502Z</time></trkpt><trkpt lat="43.3962495" lon="11.1250514"><ele>178.0</ele><time>2026-05-02T09:18:06.489Z</time></trkpt><trkpt lat="43.3963375" lon="11.1251035"><ele>178.0</ele><time>2026-05-02T09:18:08.493Z</time></trkpt><trkpt lat="43.3964063" lon="11.1251812"><ele>178.0</ele><time>2026-05-02T09:18:10.553Z</time></trkpt><trkpt lat="43.3964735" lon="11.1252579"><ele>178.60000000000002</ele><time>2026-05-02T09:18:12.49Z</time></trkpt><trkpt lat="43.3965284" lon="11.1253408"><ele>179.20000000000002</ele><time>2026-05-02T09:18:14.553Z</time></trkpt><trkpt lat="43.396596" lon="11.1254134"><ele>179.8</ele><time>2026-05-02T09:18:16.475Z</time></trkpt><trkpt lat="43.3966709" lon="11.1254637"><ele>180.4</ele><time>2026-05-02T09:18:18.497Z</time></trkpt><trkpt lat="43.3967537" lon="11.1255464"><ele>181.0</ele><time>2026-05-02T09:18:20.47Z</time></trkpt><trkpt lat="43.3968585" lon="11.1256237"><ele>180.20000000000002</ele><time>2026-05-02T09:18:22.488Z</time></trkpt><trkpt lat="43.3969327" lon="11.1257463"><ele>179.4</ele><time>2026-05-02T09:18:24.464Z</time></trkpt><trkpt lat="43.3969834" lon="11.1258698"><ele>178.6</ele><time>2026-05-02T09:18:26.487Z</time></trkpt><trkpt lat="43.3970407" lon="11.1259763"><ele>177.8</ele><time>2026-05-02T09:18:28.482Z</time></trkpt><trkpt lat="43.3970889" lon="11.1260976"><ele>177.0</ele><time>2026-05-02T09:18:30.485Z</time></trkpt><trkpt lat="43.3971402" lon="11.1262326"><ele>177.39999999999998</ele><time>2026-05-02T09:18:32.492Z</time></trkpt><trkpt lat="43.3971891" lon="11.1263615"><ele>177.79999999999998</ele><time>2026-05-02T09:18:34.492Z</time></trkpt><trkpt lat="43.3972425" lon="11.1264921"><ele>178.2</ele><time>2026-05-02T09:18:36.487Z</time></trkpt><trkpt lat="43.3972933" lon="11.1266122"><ele>178.6</ele><time>2026-05-02T09:18:38.507Z</time></trkpt><trkpt lat="43.3973391" lon="11.1267374"><ele>179.0</ele><time>2026-05-02T09:18:40.502Z</time></trkpt><trkpt lat="43.397391" lon="11.1268632"><ele>179.0</ele><time>2026-05-02T09:18:42.492Z</time></trkpt><trkpt lat="43.3974564" lon="11.1269869"><ele>179.0</ele><time>2026-05-02T09:18:44.481Z</time></trkpt><trkpt lat="43.3975188" lon="11.1271192"><ele>179.0</ele><time>2026-05-02T09:18:46.482Z</time></trkpt><trkpt lat="43.3975685" lon="11.1272658"><ele>179.0</ele><time>2026-05-02T09:18:48.486Z</time></trkpt><trkpt lat="43.3976094" lon="11.1274259"><ele>179.0</ele><time>2026-05-02T09:18:50.554Z</time></trkpt><trkpt lat="43.3976418" lon="11.1275833"><ele>179.0</ele><time>2026-05-02T09:18:52.501Z</time></trkpt><trkpt lat="43.3976599" lon="11.1277367"><ele>179.0</ele><time>2026-05-02T09:18:54.47Z</time></trkpt><trkpt lat="43.397668" lon="11.1278731"><ele>179.0</ele><time>2026-05-02T09:18:56.486Z</time></trkpt><trkpt lat="43.3976552" lon="11.1280061"><ele>179.0</ele><time>2026-05-02T09:18:58.481Z</time></trkpt><trkpt lat="43.3976451" lon="11.1281187"><ele>179.0</ele><time>2026-05-02T09:19:00.495Z</time></trkpt><trkpt lat="43.397645" lon="11.1282243"><ele>179.0</ele><time>2026-05-02T09:19:02.497Z</time></trkpt><trkpt lat="43.3976496" lon="11.1283678"><ele>179.0</ele><time>2026-05-02T09:19:04.555Z</time></trkpt><trkpt lat="43.3976346" lon="11.1284678"><ele>179.0</ele><time>2026-05-02T09:19:05.479Z</time></trkpt><trkpt lat="43.3976194" lon="11.1285795"><ele>179.0</ele><time>2026-05-02T09:19:06.504Z</time></trkpt><trkpt lat="43.3976244" lon="11.1287026"><ele>179.0</ele><time>2026-05-02T09:19:08.495Z</time></trkpt><trkpt lat="43.3976299" lon="11.1288175"><ele>178.6</ele><time>2026-05-02T09:19:10.483Z</time></trkpt><trkpt lat="43.3976526" lon="11.1289361"><ele>178.2</ele><time>2026-05-02T09:19:12.49Z</time></trkpt><trkpt lat="43.3976728" lon="11.1290543"><ele>177.79999999999998</ele><time>2026-05-02T09:19:14.547Z</time></trkpt><trkpt lat="43.3976977" lon="11.1292168"><ele>177.39999999999998</ele><time>2026-05-02T09:19:17.483Z</time></trkpt><trkpt lat="43.3977558" lon="11.1293632"><ele>177.0</ele><time>2026-05-02T09:19:19.479Z</time></trkpt><trkpt lat="43.3978097" lon="11.1294944"><ele>177.0</ele><time>2026-05-02T09:19:21.468Z</time></trkpt><trkpt lat="43.3978455" lon="11.1296214"><ele>177.0</ele><time>2026-05-02T09:19:23.509Z</time></trkpt><trkpt lat="43.3978534" lon="11.1297695"><ele>177.0</ele><time>2026-05-02T09:19:25.566Z</time></trkpt><trkpt lat="43.3978483" lon="11.1299226"><ele>177.0</ele><time>2026-05-02T09:19:27.479Z</time></trkpt><trkpt lat="43.3978375" lon="11.1300616"><ele>177.0</ele><time>2026-05-02T09:19:29.564Z</time></trkpt><trkpt lat="43.3978293" lon="11.1301887"><ele>177.0</ele><time>2026-05-02T09:19:31.488Z</time></trkpt><trkpt lat="43.3977742" lon="11.130281"><ele>177.0</ele><time>2026-05-02T09:19:33.49Z</time></trkpt><trkpt lat="43.3976895" lon="11.1302982"><ele>177.0</ele><time>2026-05-02T09:19:35.531Z</time></trkpt><trkpt lat="43.3975768" lon="11.1302827"><ele>177.0</ele><time>2026-05-02T09:19:37.478Z</time></trkpt><trkpt lat="43.3974766" lon="11.130213"><ele>177.0</ele><time>2026-05-02T09:19:39.49Z</time></trkpt><trkpt lat="43.3973872" lon="11.1301324"><ele>177.0</ele><time>2026-05-02T09:19:41.489Z</time></trkpt><trkpt lat="43.3973018" lon="11.1300592"><ele>177.0</ele><time>2026-05-02T09:19:43.487Z</time></trkpt><trkpt lat="43.3972254" lon="11.1300021"><ele>177.0</ele><time>2026-05-02T09:19:45.496Z</time></trkpt><trkpt lat="43.3971443" lon="11.1299609"><ele>177.0</ele><time>2026-05-02T09:19:47.494Z</time></trkpt><trkpt lat="43.3970626" lon="11.1299094"><ele>177.0</ele><time>2026-05-02T09:19:49.493Z</time></trkpt><trkpt lat="43.3969474" lon="11.1298349"><ele>176.66666666666666</ele><time>2026-05-02T09:19:52.49Z</time></trkpt><trkpt lat="43.396857" lon="11.1298055"><ele>176.33333333333334</ele><time>2026-05-02T09:19:54.547Z</time></trkpt><trkpt lat="43.3967921" lon="11.1297893"><ele>176.0</ele><time>2026-05-02T09:19:56.486Z</time></trkpt><trkpt lat="43.3967124" lon="11.1297836"><ele>175.66666666666669</ele><time>2026-05-02T09:19:58.495Z</time></trkpt><trkpt lat="43.3966303" lon="11.1298001"><ele>175.33333333333334</ele><time>2026-05-02T09:20:00.557Z</time></trkpt><trkpt lat="43.3965576" lon="11.1298253"><ele>175.0</ele><time>2026-05-02T09:20:02.484Z</time></trkpt><trkpt lat="43.396468" lon="11.129861"><ele>175.0</ele><time>2026-05-02T09:20:04.541Z</time></trkpt><trkpt lat="43.3963865" lon="11.1298814"><ele>175.0</ele><time>2026-05-02T09:20:06.482Z</time></trkpt><trkpt lat="43.3963036" lon="11.1298993"><ele>175.0</ele><time>2026-05-02T09:20:08.484Z</time></trkpt><trkpt lat="43.3962085" lon="11.1298853"><ele>175.0</ele><time>2026-05-02T09:20:10.546Z</time></trkpt><trkpt lat="43.3961273" lon="11.1298776"><ele>175.0</ele><time>2026-05-02T09:20:12.49Z</time></trkpt><trkpt lat="43.3960389" lon="11.1298594"><ele>175.0</ele><time>2026-05-02T09:20:14.487Z</time></trkpt><trkpt lat="43.3959701" lon="11.1298705"><ele>174.85714285714286</ele><time>2026-05-02T09:20:16.458Z</time></trkpt><trkpt lat="43.3959029" lon="11.1298744"><ele>174.71428571428572</ele><time>2026-05-02T09:20:18.459Z</time></trkpt><trkpt lat="43.3958306" lon="11.1298881"><ele>174.57142857142856</ele><time>2026-05-02T09:20:20.48Z</time></trkpt><trkpt lat="43.3957594" lon="11.129925"><ele>174.42857142857144</ele><time>2026-05-02T09:20:22.473Z</time></trkpt><trkpt lat="43.3957113" lon="11.1299898"><ele>174.28571428571428</ele><time>2026-05-02T09:20:24.488Z</time></trkpt><trkpt lat="43.3956887" lon="11.1300788"><ele>174.14285714285714</ele><time>2026-05-02T09:20:26.462Z</time></trkpt><trkpt lat="43.3956766" lon="11.1301801"><ele>174.0</ele><time>2026-05-02T09:20:28.553Z</time></trkpt><trkpt lat="43.3956664" lon="11.1302754"><ele>174.71428571428572</ele><time>2026-05-02T09:20:30.565Z</time></trkpt><trkpt lat="43.3956475" lon="11.1303682"><ele>175.42857142857144</ele><time>2026-05-02T09:20:32.483Z</time></trkpt><trkpt lat="43.3956342" lon="11.1304656"><ele>176.14285714285717</ele><time>2026-05-02T09:20:34.568Z</time></trkpt><trkpt lat="43.3956263" lon="11.1305642"><ele>176.85714285714286</ele><time>2026-05-02T09:20:36.469Z</time></trkpt><trkpt lat="43.3956094" lon="11.1306563"><ele>177.57142857142858</ele><time>2026-05-02T09:20:38.495Z</time></trkpt><trkpt lat="43.3955686" lon="11.1307517"><ele>178.2857142857143</ele><time>2026-05-02T09:20:40.557Z</time></trkpt><trkpt lat="43.3955534" lon="11.1308498"><ele>179.0</ele><time>2026-05-02T09:20:42.476Z</time></trkpt><trkpt lat="43.395547" lon="11.1309477"><ele>179.33333333333331</ele><time>2026-05-02T09:20:44.49Z</time></trkpt><trkpt lat="43.3955336" lon="11.1310377"><ele>179.66666666666666</ele><time>2026-05-02T09:20:46.483Z</time></trkpt><trkpt lat="43.3955164" lon="11.1311287"><ele>180.0</ele><time>2026-05-02T09:20:48.566Z</time></trkpt><trkpt lat="43.3955272" lon="11.131249"><ele>180.33333333333334</ele><time>2026-05-02T09:20:51.489Z</time></trkpt><trkpt lat="43.395476" lon="11.1313253"><ele>180.66666666666669</ele><time>2026-05-02T09:20:54.492Z</time></trkpt><trkpt lat="43.3954245" lon="11.1314107"><ele>181.0</ele><time>2026-05-02T09:20:58.464Z</time></trkpt><trkpt lat="43.3954079" lon="11.1315165"><ele>181.0</ele><time>2026-05-02T09:21:01.467Z</time></trkpt><trkpt lat="43.3953201" lon="11.1315036"><ele>181.0</ele><time>2026-05-02T09:21:04.553Z</time></trkpt><trkpt lat="43.3952523" lon="11.1314701"><ele>181.0</ele><time>2026-05-02T09:21:06.494Z</time></trkpt><trkpt lat="43.3951823" lon="11.1314578"><ele>181.0</ele><time>2026-05-02T09:21:08.504Z</time></trkpt><trkpt lat="43.3951144" lon="11.1314692"><ele>181.0</ele><time>2026-05-02T09:21:10.543Z</time></trkpt><trkpt lat="43.3950389" lon="11.1314857"><ele>181.0</ele><time>2026-05-02T09:21:12.486Z</time></trkpt><trkpt lat="43.3949648" lon="11.1315386"><ele>181.0</ele><time>2026-05-02T09:21:14.557Z</time></trkpt><trkpt lat="43.3949262" lon="11.1316075"><ele>181.0</ele><time>2026-05-02T09:21:16.472Z</time></trkpt><trkpt lat="43.3949054" lon="11.1316991"><ele>181.0</ele><time>2026-05-02T09:21:19.567Z</time></trkpt><trkpt lat="43.3948273" lon="11.1316684"><ele>181.0</ele><time>2026-05-02T09:21:23.494Z</time></trkpt><trkpt lat="43.3947624" lon="11.1316285"><ele>181.0</ele><time>2026-05-02T09:21:25.463Z</time></trkpt><trkpt lat="43.3946943" lon="11.1316006"><ele>181.0</ele><time>2026-05-02T09:21:27.479Z</time></trkpt><trkpt lat="43.3946306" lon="11.1315698"><ele>181.0</ele><time>2026-05-02T09:21:29.483Z</time></trkpt><trkpt lat="43.3945627" lon="11.1315489"><ele>180.85714285714286</ele><time>2026-05-02T09:21:31.495Z</time></trkpt><trkpt lat="43.3944838" lon="11.1315359"><ele>180.71428571428572</ele><time>2026-05-02T09:21:33.492Z</time></trkpt><trkpt lat="43.3944122" lon="11.1315138"><ele>180.57142857142856</ele><time>2026-05-02T09:21:35.495Z</time></trkpt><trkpt lat="43.3943433" lon="11.1314932"><ele>180.42857142857144</ele><time>2026-05-02T09:21:37.508Z</time></trkpt><trkpt lat="43.3942686" lon="11.1314629"><ele>180.2857142857143</ele><time>2026-05-02T09:21:39.485Z</time></trkpt><trkpt lat="43.3941915" lon="11.131439"><ele>180.14285714285714</ele><time>2026-05-02T09:21:41.507Z</time></trkpt><trkpt lat="43.3941258" lon="11.1314254"><ele>180.0</ele><time>2026-05-02T09:21:43.474Z</time></trkpt><trkpt lat="43.394042" lon="11.1313935"><ele>180.0</ele><time>2026-05-02T09:21:46.476Z</time></trkpt><trkpt lat="43.393966" lon="11.1314113"><ele>180.0</ele><time>2026-05-02T09:21:48.492Z</time></trkpt><trkpt lat="43.393886" lon="11.1314119"><ele>180.0</ele><time>2026-05-02T09:21:50.551Z</time></trkpt><trkpt lat="43.3938071" lon="11.1313801"><ele>180.0</ele><time>2026-05-02T09:21:52.49Z</time></trkpt><trkpt lat="43.3937304" lon="11.1313654"><ele>180.0</ele><time>2026-05-02T09:21:54.544Z</time></trkpt><trkpt lat="43.3936279" lon="11.1313206"><ele>180.0</ele><time>2026-05-02T09:21:56.472Z</time></trkpt><trkpt lat="43.3935378" lon="11.1312925"><ele>180.16666666666666</ele><time>2026-05-02T09:21:58.485Z</time></trkpt><trkpt lat="43.39346" lon="11.1312611"><ele>180.33333333333334</ele><time>2026-05-02T09:22:00.559Z</time></trkpt><trkpt lat="43.3933824" lon="11.1312282"><ele>180.5</ele><time>2026-05-02T09:22:02.484Z</time></trkpt><trkpt lat="43.3932972" lon="11.1312035"><ele>180.66666666666669</ele><time>2026-05-02T09:22:05.496Z</time></trkpt><trkpt lat="43.3932259" lon="11.1311827"><ele>180.83333333333334</ele><time>2026-05-02T09:22:07.506Z</time></trkpt><trkpt lat="43.3931475" lon="11.1311586"><ele>181.0</ele><time>2026-05-02T09:22:09.496Z</time></trkpt><trkpt lat="43.3930627" lon="11.1311314"><ele>181.0</ele><time>2026-05-02T09:22:11.487Z</time></trkpt><trkpt lat="43.3929792" lon="11.1311014"><ele>181.0</ele><time>2026-05-02T09:22:13.57Z</time></trkpt><trkpt lat="43.3928953" lon="11.1310703"><ele>181.0</ele><time>2026-05-02T09:22:15.554Z</time></trkpt><trkpt lat="43.3928116" lon="11.1310524"><ele>181.0</ele><time>2026-05-02T09:22:17.51Z</time></trkpt><trkpt lat="43.3927207" lon="11.1310287"><ele>181.0</ele><time>2026-05-02T09:22:19.563Z</time></trkpt><trkpt lat="43.3926529" lon="11.1310376"><ele>181.0</ele><time>2026-05-02T09:22:21.481Z</time></trkpt><trkpt lat="43.392558" lon="11.1310268"><ele>181.0</ele><time>2026-05-02T09:22:23.556Z</time></trkpt><trkpt lat="43.3924529" lon="11.1309652"><ele>181.0</ele><time>2026-05-02T09:22:25.497Z</time></trkpt><trkpt lat="43.3923556" lon="11.1309118"><ele>181.0</ele><time>2026-05-02T09:22:27.478Z</time></trkpt><trkpt lat="43.3922586" lon="11.1308892"><ele>181.0</ele><time>2026-05-02T09:22:29.476Z</time></trkpt><trkpt lat="43.3921738" lon="11.13086"><ele>181.0</ele><time>2026-05-02T09:22:31.472Z</time></trkpt><trkpt lat="43.3920885" lon="11.1308087"><ele>180.8</ele><time>2026-05-02T09:22:33.487Z</time></trkpt><trkpt lat="43.3919922" lon="11.1307824"><ele>180.60000000000002</ele><time>2026-05-02T09:22:35.482Z</time></trkpt><trkpt lat="43.3918886" lon="11.1307547"><ele>180.4</ele><time>2026-05-02T09:22:37.489Z</time></trkpt><trkpt lat="43.3917857" lon="11.1307234"><ele>180.2</ele><time>2026-05-02T09:22:39.49Z</time></trkpt><trkpt lat="43.3916947" lon="11.1307011"><ele>180.0</ele><time>2026-05-02T09:22:41.483Z</time></trkpt><trkpt lat="43.3916045" lon="11.1306699"><ele>179.8</ele><time>2026-05-02T09:22:43.488Z</time></trkpt><trkpt lat="43.3915114" lon="11.1306407"><ele>179.6</ele><time>2026-05-02T09:22:45.486Z</time></trkpt><trkpt lat="43.3914202" lon="11.1306089"><ele>179.39999999999998</ele><time>2026-05-02T09:22:47.489Z</time></trkpt><trkpt lat="43.3913365" lon="11.1306263"><ele>179.2</ele><time>2026-05-02T09:22:49.558Z</time></trkpt><trkpt lat="43.3912814" lon="11.1307133"><ele>179.0</ele><time>2026-05-02T09:22:51.467Z</time></trkpt><trkpt lat="43.3912545" lon="11.1308497"><ele>179.0</ele><time>2026-05-02T09:22:53.494Z</time></trkpt><trkpt lat="43.3912363" lon="11.1309907"><ele>179.0</ele><time>2026-05-02T09:22:55.555Z</time></trkpt><trkpt lat="43.3912205" lon="11.1311141"><ele>179.0</ele><time>2026-05-02T09:22:57.495Z</time></trkpt><trkpt lat="43.3912016" lon="11.1312207"><ele>179.0</ele><time>2026-05-02T09:22:59.567Z</time></trkpt><trkpt lat="43.391197" lon="11.1313207"><ele>179.0</ele><time>2026-05-02T09:23:01.484Z</time></trkpt><trkpt lat="43.3911879" lon="11.1314162"><ele>179.0</ele><time>2026-05-02T09:23:03.486Z</time></trkpt><trkpt lat="43.3911811" lon="11.1315158"><ele>179.16666666666666</ele><time>2026-05-02T09:23:05.558Z</time></trkpt><trkpt lat="43.3911728" lon="11.131621"><ele>179.33333333333331</ele><time>2026-05-02T09:23:07.499Z</time></trkpt><trkpt lat="43.3911316" lon="11.1317161"><ele>179.5</ele><time>2026-05-02T09:23:10.479Z</time></trkpt><trkpt lat="43.3910637" lon="11.1317541"><ele>179.66666666666666</ele><time>2026-05-02T09:23:13.477Z</time></trkpt><trkpt lat="43.3910053" lon="11.1318207"><ele>179.83333333333334</ele><time>2026-05-02T09:23:16.481Z</time></trkpt><trkpt lat="43.390992" lon="11.1319488"><ele>180.0</ele><time>2026-05-02T09:23:19.489Z</time></trkpt><trkpt lat="43.3909955" lon="11.1320354"><ele>180.0</ele><time>2026-05-02T09:23:21.483Z</time></trkpt><trkpt lat="43.391002" lon="11.1321234"><ele>180.0</ele><time>2026-05-02T09:23:23.49Z</time></trkpt><trkpt lat="43.3910128" lon="11.1322463"><ele>180.0</ele><time>2026-05-02T09:23:26.484Z</time></trkpt><trkpt lat="43.3910348" lon="11.1323285"><ele>180.0</ele><time>2026-05-02T09:23:28.486Z</time></trkpt><trkpt lat="43.3910541" lon="11.1324286"><ele>180.0</ele><time>2026-05-02T09:23:33.49Z</time></trkpt><trkpt lat="43.3910433" lon="11.1325394"><ele>180.0</ele><time>2026-05-02T09:23:37.491Z</time></trkpt><trkpt lat="43.3910232" lon="11.1326377"><ele>180.0</ele><time>2026-05-02T09:23:40.555Z</time></trkpt><trkpt lat="43.390996" lon="11.1327235"><ele>180.14285714285714</ele><time>2026-05-02T09:23:42.492Z</time></trkpt><trkpt lat="43.3909851" lon="11.1328217"><ele>180.2857142857143</ele><time>2026-05-02T09:23:44.468Z</time></trkpt><trkpt lat="43.3909662" lon="11.1329163"><ele>180.42857142857144</ele><time>2026-05-02T09:23:46.498Z</time></trkpt><trkpt lat="43.3909472" lon="11.1330063"><ele>180.57142857142856</ele><time>2026-05-02T09:23:48.503Z</time></trkpt><trkpt lat="43.3909392" lon="11.1330961"><ele>180.71428571428572</ele><time>2026-05-02T09:23:50.473Z</time></trkpt><trkpt lat="43.39094" lon="11.1331864"><ele>180.85714285714286</ele><time>2026-05-02T09:23:52.487Z</time></trkpt><trkpt lat="43.390954" lon="11.1332793"><ele>181.0</ele><time>2026-05-02T09:23:54.489Z</time></trkpt><trkpt lat="43.3909621" lon="11.1333667"><ele>181.0</ele><time>2026-05-02T09:23:56.492Z</time></trkpt><trkpt lat="43.3909711" lon="11.133456"><ele>181.0</ele><time>2026-05-02T09:23:58.551Z</time></trkpt><trkpt lat="43.3909822" lon="11.133545"><ele>181.0</ele><time>2026-05-02T09:24:00.5Z</time></trkpt><trkpt lat="43.3909983" lon="11.1336339"><ele>181.0</ele><time>2026-05-02T09:24:02.492Z</time></trkpt><trkpt lat="43.3910115" lon="11.133728"><ele>181.0</ele><time>2026-05-02T09:24:04.561Z</time></trkpt><trkpt lat="43.3910104" lon="11.1338315"><ele>181.0</ele><time>2026-05-02T09:24:06.498Z</time></trkpt><trkpt lat="43.3910114" lon="11.1339285"><ele>181.0</ele><time>2026-05-02T09:24:08.482Z</time></trkpt><trkpt lat="43.3910025" lon="11.1340174"><ele>181.16666666666669</ele><time>2026-05-02T09:24:10.555Z</time></trkpt><trkpt lat="43.3909953" lon="11.1341055"><ele>181.33333333333334</ele><time>2026-05-02T09:24:12.492Z</time></trkpt><trkpt lat="43.3909845" lon="11.1342332"><ele>181.5</ele><time>2026-05-02T09:24:15.554Z</time></trkpt><trkpt lat="43.3909763" lon="11.1343518"><ele>181.66666666666666</ele><time>2026-05-02T09:24:18.493Z</time></trkpt><trkpt lat="43.3909819" lon="11.1344386"><ele>181.83333333333331</ele><time>2026-05-02T09:24:20.563Z</time></trkpt><trkpt lat="43.390954" lon="11.1345403"><ele>182.0</ele><time>2026-05-02T09:24:23.467Z</time></trkpt><trkpt lat="43.3909036" lon="11.134627"><ele>182.0</ele><time>2026-05-02T09:24:27.484Z</time></trkpt><trkpt lat="43.3908639" lon="11.1347009"><ele>182.0</ele><time>2026-05-02T09:24:32.482Z</time></trkpt><trkpt lat="43.3908017" lon="11.1347545"><ele>182.0</ele><time>2026-05-02T09:24:37.489Z</time></trkpt><trkpt lat="43.3907301" lon="11.1347752"><ele>182.0</ele><time>2026-05-02T09:24:41.505Z</time></trkpt><trkpt lat="43.3906484" lon="11.1348242"><ele>182.0</ele><time>2026-05-02T09:24:45.565Z</time></trkpt><trkpt lat="43.39059" lon="11.1348633"><ele>182.0</ele><time>2026-05-02T09:24:47.483Z</time></trkpt><trkpt lat="43.3905365" lon="11.1349367"><ele>182.0</ele><time>2026-05-02T09:24:51.49Z</time></trkpt><trkpt lat="43.3904764" lon="11.1349947"><ele>183.71428571428572</ele><time>2026-05-02T09:24:54.555Z</time></trkpt><trkpt lat="43.3904088" lon="11.1350574"><ele>185.42857142857144</ele><time>2026-05-02T09:24:59.499Z</time></trkpt><trkpt lat="43.3903605" lon="11.1351227"><ele>187.14285714285714</ele><time>2026-05-02T09:25:03.493Z</time></trkpt><trkpt lat="43.3903156" lon="11.1352067"><ele>188.85714285714286</ele><time>2026-05-02T09:25:07.485Z</time></trkpt><trkpt lat="43.3902827" lon="11.1352918"><ele>190.57142857142858</ele><time>2026-05-02T09:25:11.468Z</time></trkpt><trkpt lat="43.3902667" lon="11.1353931"><ele>192.28571428571428</ele><time>2026-05-02T09:25:18.482Z</time></trkpt><trkpt lat="43.3902205" lon="11.1354539"><ele>194.0</ele><time>2026-05-02T09:25:21.466Z</time></trkpt><trkpt lat="43.3902016" lon="11.1355536"><ele>194.00000000000003</ele><time>2026-05-02T09:25:25.581Z</time></trkpt><trkpt lat="43.3902436" lon="11.1356548"><ele>194.0</ele><time>2026-05-02T09:25:29.57Z</time></trkpt><trkpt lat="43.3901884" lon="11.1357426"><ele>194.0</ele><time>2026-05-02T09:25:34.492Z</time></trkpt><trkpt lat="43.3901259" lon="11.1357998"><ele>194.0</ele><time>2026-05-02T09:25:40.489Z</time></trkpt><trkpt lat="43.390088" lon="11.1358753"><ele>194.00000000000003</ele><time>2026-05-02T09:25:45.492Z</time></trkpt><trkpt lat="43.3900348" lon="11.135935"><ele>194.0</ele><time>2026-05-02T09:25:49.561Z</time></trkpt><trkpt lat="43.3899726" lon="11.1359989"><ele>195.00000000000003</ele><time>2026-05-02T09:25:53.486Z</time></trkpt><trkpt lat="43.3899245" lon="11.1360572"><ele>196.0</ele><time>2026-05-02T09:25:56.485Z</time></trkpt><trkpt lat="43.3898679" lon="11.1361351"><ele>197.0</ele><time>2026-05-02T09:26:00.494Z</time></trkpt><trkpt lat="43.3898383" lon="11.1362194"><ele>198.0</ele><time>2026-05-02T09:26:03.476Z</time></trkpt><trkpt lat="43.3897864" lon="11.1362705"><ele>199.00000000000003</ele><time>2026-05-02T09:26:07.491Z</time></trkpt><trkpt lat="43.389775" lon="11.1363953"><ele>200.0</ele><time>2026-05-02T09:26:11.494Z</time></trkpt><trkpt lat="43.3897661" lon="11.1365175"><ele>200.66666666666669</ele><time>2026-05-02T09:26:14.483Z</time></trkpt><trkpt lat="43.3897434" lon="11.1366202"><ele>201.33333333333334</ele><time>2026-05-02T09:26:17.484Z</time></trkpt><trkpt lat="43.389699" lon="11.1367102"><ele>202.0</ele><time>2026-05-02T09:26:21.488Z</time></trkpt><trkpt lat="43.3896692" lon="11.1368117"><ele>202.66666666666669</ele><time>2026-05-02T09:26:24.576Z</time></trkpt><trkpt lat="43.3896742" lon="11.1369046"><ele>203.33333333333334</ele><time>2026-05-02T09:26:27.503Z</time></trkpt><trkpt lat="43.3897049" lon="11.1369983"><ele>204.0</ele><time>2026-05-02T09:26:31.495Z</time></trkpt><trkpt lat="43.3897333" lon="11.1371036"><ele>204.0</ele><time>2026-05-02T09:26:39.558Z</time></trkpt><trkpt lat="43.3897509" lon="11.1372053"><ele>204.0</ele><time>2026-05-02T09:26:43.495Z</time></trkpt><trkpt lat="43.3897072" lon="11.1373012"><ele>204.0</ele><time>2026-05-02T09:26:49.494Z</time></trkpt><trkpt lat="43.3896835" lon="11.137415"><ele>204.0</ele><time>2026-05-02T09:26:52.501Z</time></trkpt><trkpt lat="43.3896442" lon="11.1375356"><ele>204.0</ele><time>2026-05-02T09:26:54.49Z</time></trkpt><trkpt lat="43.3896055" lon="11.1376628"><ele>204.0</ele><time>2026-05-02T09:26:56.487Z</time></trkpt><trkpt lat="43.3895648" lon="11.1377901"><ele>204.33333333333334</ele><time>2026-05-02T09:26:58.492Z</time></trkpt><trkpt lat="43.3895052" lon="11.1378931"><ele>204.66666666666669</ele><time>2026-05-02T09:27:00.479Z</time></trkpt><trkpt lat="43.3894492" lon="11.1379514"><ele>205.0</ele><time>2026-05-02T09:27:02.494Z</time></trkpt><trkpt lat="43.3893658" lon="11.1380104"><ele>205.33333333333334</ele><time>2026-05-02T09:27:05.491Z</time></trkpt><trkpt lat="43.3892934" lon="11.1380681"><ele>205.66666666666669</ele><time>2026-05-02T09:27:08.485Z</time></trkpt><trkpt lat="43.3892072" lon="11.1381314"><ele>206.0</ele><time>2026-05-02T09:27:11.486Z</time></trkpt><trkpt lat="43.3891407" lon="11.13818"><ele>205.66666666666669</ele><time>2026-05-02T09:27:13.499Z</time></trkpt><trkpt lat="43.3890821" lon="11.1382303"><ele>205.33333333333334</ele><time>2026-05-02T09:27:15.588Z</time></trkpt><trkpt lat="43.3890022" lon="11.1382987"><ele>205.0</ele><time>2026-05-02T09:27:18.492Z</time></trkpt><trkpt lat="43.3889461" lon="11.1383421"><ele>204.66666666666669</ele><time>2026-05-02T09:27:20.491Z</time></trkpt><trkpt lat="43.3888844" lon="11.1383992"><ele>204.33333333333334</ele><time>2026-05-02T09:27:22.47Z</time></trkpt><trkpt lat="43.3888161" lon="11.1384679"><ele>204.0</ele><time>2026-05-02T09:27:24.483Z</time></trkpt><trkpt lat="43.3887513" lon="11.1385529"><ele>204.0</ele><time>2026-05-02T09:27:26.507Z</time></trkpt><trkpt lat="43.3886925" lon="11.1386382"><ele>204.0</ele><time>2026-05-02T09:27:28.489Z</time></trkpt><trkpt lat="43.3886269" lon="11.1387245"><ele>204.0</ele><time>2026-05-02T09:27:30.479Z</time></trkpt><trkpt lat="43.3885779" lon="11.1388206"><ele>204.0</ele><time>2026-05-02T09:27:32.487Z</time></trkpt><trkpt lat="43.3885146" lon="11.1389156"><ele>204.0</ele><time>2026-05-02T09:27:34.567Z</time></trkpt><trkpt lat="43.3884628" lon="11.1389981"><ele>204.0</ele><time>2026-05-02T09:27:36.479Z</time></trkpt><trkpt lat="43.3883563" lon="11.1390535"><ele>202.6</ele><time>2026-05-02T09:27:38.479Z</time></trkpt><trkpt lat="43.3882845" lon="11.1391237"><ele>201.2</ele><time>2026-05-02T09:27:40.57Z</time></trkpt><trkpt lat="43.3882562" lon="11.1392308"><ele>199.79999999999998</ele><time>2026-05-02T09:27:42.503Z</time></trkpt><trkpt lat="43.3882603" lon="11.1393693"><ele>198.39999999999998</ele><time>2026-05-02T09:27:44.495Z</time></trkpt><trkpt lat="43.3883134" lon="11.1394688"><ele>197.0</ele><time>2026-05-02T09:27:46.494Z</time></trkpt><trkpt lat="43.3883749" lon="11.1395704"><ele>197.0</ele><time>2026-05-02T09:27:48.477Z</time></trkpt><trkpt lat="43.3884367" lon="11.1396846"><ele>197.0</ele><time>2026-05-02T09:27:50.497Z</time></trkpt><trkpt lat="43.3885048" lon="11.1397994"><ele>197.0</ele><time>2026-05-02T09:27:52.486Z</time></trkpt><trkpt lat="43.3885762" lon="11.1399085"><ele>197.0</ele><time>2026-05-02T09:27:54.495Z</time></trkpt><trkpt lat="43.3886391" lon="11.140027"><ele>197.0</ele><time>2026-05-02T09:27:56.491Z</time></trkpt><trkpt lat="43.3887067" lon="11.140148"><ele>196.0</ele><time>2026-05-02T09:27:58.557Z</time></trkpt><trkpt lat="43.3887798" lon="11.1402692"><ele>195.0</ele><time>2026-05-02T09:28:00.492Z</time></trkpt><trkpt lat="43.388854" lon="11.1403963"><ele>194.0</ele><time>2026-05-02T09:28:02.483Z</time></trkpt><trkpt lat="43.3889196" lon="11.1405135"><ele>193.0</ele><time>2026-05-02T09:28:04.49Z</time></trkpt><trkpt lat="43.3889744" lon="11.1406286"><ele>192.0</ele><time>2026-05-02T09:28:06.5Z</time></trkpt><trkpt lat="43.3890223" lon="11.140739"><ele>191.33333333333334</ele><time>2026-05-02T09:28:08.496Z</time></trkpt><trkpt lat="43.3890669" lon="11.1408286"><ele>190.66666666666666</ele><time>2026-05-02T09:28:10.559Z</time></trkpt><trkpt lat="43.3891106" lon="11.1409011"><ele>190.0</ele><time>2026-05-02T09:28:12.489Z</time></trkpt><trkpt lat="43.3891607" lon="11.1409826"><ele>189.33333333333331</ele><time>2026-05-02T09:28:14.471Z</time></trkpt><trkpt lat="43.3892163" lon="11.141064"><ele>188.66666666666666</ele><time>2026-05-02T09:28:16.497Z</time></trkpt><trkpt lat="43.3892613" lon="11.1411752"><ele>188.0</ele><time>2026-05-02T09:28:18.493Z</time></trkpt><trkpt lat="43.3893111" lon="11.1412568"><ele>188.0</ele><time>2026-05-02T09:28:20.484Z</time></trkpt><trkpt lat="43.3893462" lon="11.141352"><ele>188.0</ele><time>2026-05-02T09:28:22.494Z</time></trkpt><trkpt lat="43.3893938" lon="11.141433"><ele>188.0</ele><time>2026-05-02T09:28:24.577Z</time></trkpt><trkpt lat="43.389424" lon="11.1415106"><ele>188.0</ele><time>2026-05-02T09:28:26.497Z</time></trkpt><trkpt lat="43.3894492" lon="11.141631"><ele>188.0</ele><time>2026-05-02T09:28:29.499Z</time></trkpt><trkpt lat="43.3894931" lon="11.1417003"><ele>188.0</ele><time>2026-05-02T09:28:31.491Z</time></trkpt><trkpt lat="43.3895319" lon="11.1417693"><ele>188.0</ele><time>2026-05-02T09:28:33.497Z</time></trkpt><trkpt lat="43.3895647" lon="11.1418445"><ele>188.0</ele><time>2026-05-02T09:28:35.501Z</time></trkpt><trkpt lat="43.3896061" lon="11.1419157"><ele>188.0</ele><time>2026-05-02T09:28:37.491Z</time></trkpt><trkpt lat="43.389663" lon="11.142011"><ele>188.0</ele><time>2026-05-02T09:28:40.486Z</time></trkpt><trkpt lat="43.3897193" lon="11.1421107"><ele>188.0</ele><time>2026-05-02T09:28:43.488Z</time></trkpt><trkpt lat="43.3897561" lon="11.1421817"><ele>188.0</ele><time>2026-05-02T09:28:45.503Z</time></trkpt><trkpt lat="43.3897951" lon="11.1422518"><ele>188.0</ele><time>2026-05-02T09:28:47.491Z</time></trkpt><trkpt lat="43.3898487" lon="11.1423631"><ele>188.14285714285714</ele><time>2026-05-02T09:28:50.49Z</time></trkpt><trkpt lat="43.3898918" lon="11.1424604"><ele>188.28571428571428</ele><time>2026-05-02T09:28:53.49Z</time></trkpt><trkpt lat="43.3899559" lon="11.1425551"><ele>188.42857142857144</ele><time>2026-05-02T09:28:56.482Z</time></trkpt><trkpt lat="43.389998" lon="11.142623"><ele>188.57142857142856</ele><time>2026-05-02T09:28:58.49Z</time></trkpt><trkpt lat="43.390042" lon="11.1426919"><ele>188.71428571428572</ele><time>2026-05-02T09:29:00.577Z</time></trkpt><trkpt lat="43.3900863" lon="11.1427541"><ele>188.85714285714286</ele><time>2026-05-02T09:29:02.492Z</time></trkpt><trkpt lat="43.3901334" lon="11.1428233"><ele>189.0</ele><time>2026-05-02T09:29:04.486Z</time></trkpt><trkpt lat="43.390177" lon="11.142897"><ele>189.0</ele><time>2026-05-02T09:29:06.494Z</time></trkpt><trkpt lat="43.3902162" lon="11.1429706"><ele>189.0</ele><time>2026-05-02T09:29:08.485Z</time></trkpt><trkpt lat="43.3902636" lon="11.14308"><ele>189.0</ele><time>2026-05-02T09:29:11.494Z</time></trkpt><trkpt lat="43.3903025" lon="11.1431752"><ele>189.0</ele><time>2026-05-02T09:29:14.484Z</time></trkpt><trkpt lat="43.3903762" lon="11.1432393"><ele>189.0</ele><time>2026-05-02T09:29:17.486Z</time></trkpt><trkpt lat="43.3904456" lon="11.1432524"><ele>189.0</ele><time>2026-05-02T09:29:19.57Z</time></trkpt><trkpt lat="43.3905422" lon="11.1432435"><ele>188.83333333333334</ele><time>2026-05-02T09:29:21.504Z</time></trkpt><trkpt lat="43.3905825" lon="11.143148"><ele>188.66666666666666</ele><time>2026-05-02T09:29:23.49Z</time></trkpt><trkpt lat="43.3906431" lon="11.1430799"><ele>188.5</ele><time>2026-05-02T09:29:25.557Z</time></trkpt><trkpt lat="43.3907259" lon="11.1430302"><ele>188.33333333333331</ele><time>2026-05-02T09:29:27.503Z</time></trkpt><trkpt lat="43.3907999" lon="11.1429777"><ele>188.16666666666666</ele><time>2026-05-02T09:29:29.479Z</time></trkpt><trkpt lat="43.3908737" lon="11.1429262"><ele>188.0</ele><time>2026-05-02T09:29:31.492Z</time></trkpt><trkpt lat="43.3909407" lon="11.1428738"><ele>188.0</ele><time>2026-05-02T09:29:33.504Z</time></trkpt><trkpt lat="43.3910124" lon="11.1428411"><ele>188.0</ele><time>2026-05-02T09:29:35.494Z</time></trkpt><trkpt lat="43.3910924" lon="11.1428016"><ele>188.0</ele><time>2026-05-02T09:29:37.499Z</time></trkpt><trkpt lat="43.3911604" lon="11.1428499"><ele>188.0</ele><time>2026-05-02T09:29:39.474Z</time></trkpt><trkpt lat="43.3912062" lon="11.1429458"><ele>188.0</ele><time>2026-05-02T09:29:41.499Z</time></trkpt><trkpt lat="43.391222" lon="11.1430437"><ele>188.0</ele><time>2026-05-02T09:29:43.487Z</time></trkpt><trkpt lat="43.391242" lon="11.1431364"><ele>188.0</ele><time>2026-05-02T09:29:45.475Z</time></trkpt><trkpt lat="43.3912537" lon="11.1432291"><ele>188.0</ele><time>2026-05-02T09:29:47.498Z</time></trkpt><trkpt lat="43.3912708" lon="11.1433235"><ele>188.0</ele><time>2026-05-02T09:29:49.497Z</time></trkpt><trkpt lat="43.3912985" lon="11.1434275"><ele>188.0</ele><time>2026-05-02T09:29:51.494Z</time></trkpt><trkpt lat="43.391325" lon="11.143536"><ele>188.0</ele><time>2026-05-02T09:29:53.499Z</time></trkpt><trkpt lat="43.3913508" lon="11.1436195"><ele>188.0</ele><time>2026-05-02T09:29:55.57Z</time></trkpt><trkpt lat="43.3913526" lon="11.1437214"><ele>188.0</ele><time>2026-05-02T09:29:57.489Z</time></trkpt><trkpt lat="43.3913729" lon="11.1438117"><ele>188.0</ele><time>2026-05-02T09:29:59.471Z</time></trkpt><trkpt lat="43.3913975" lon="11.1439279"><ele>188.0</ele><time>2026-05-02T09:30:01.539Z</time></trkpt><trkpt lat="43.3914181" lon="11.1440377"><ele>188.0</ele><time>2026-05-02T09:30:03.485Z</time></trkpt><trkpt lat="43.3914429" lon="11.1441411"><ele>188.0</ele><time>2026-05-02T09:30:05.471Z</time></trkpt><trkpt lat="43.3914603" lon="11.1442365"><ele>188.0</ele><time>2026-05-02T09:30:07.484Z</time></trkpt><trkpt lat="43.3914772" lon="11.144333"><ele>188.0</ele><time>2026-05-02T09:30:09.485Z</time></trkpt><trkpt lat="43.3914906" lon="11.1444179"><ele>188.0</ele><time>2026-05-02T09:30:11.49Z</time></trkpt><trkpt lat="43.3915051" lon="11.1445434"><ele>188.0</ele><time>2026-05-02T09:30:14.495Z</time></trkpt><trkpt lat="43.391504" lon="11.1446619"><ele>188.0</ele><time>2026-05-02T09:30:17.494Z</time></trkpt><trkpt lat="43.3914876" lon="11.1447833"><ele>188.0</ele><time>2026-05-02T09:30:20.49Z</time></trkpt><trkpt lat="43.3914694" lon="11.1448985"><ele>188.0</ele><time>2026-05-02T09:30:23.499Z</time></trkpt><trkpt lat="43.3914517" lon="11.1450069"><ele>188.0</ele><time>2026-05-02T09:30:26.493Z</time></trkpt><trkpt lat="43.3914397" lon="11.145113"><ele>188.16666666666666</ele><time>2026-05-02T09:30:29.469Z</time></trkpt><trkpt lat="43.3914396" lon="11.1452031"><ele>188.33333333333331</ele><time>2026-05-02T09:30:32.493Z</time></trkpt><trkpt lat="43.3914251" lon="11.1453188"><ele>188.5</ele><time>2026-05-02T09:30:35.482Z</time></trkpt><trkpt lat="43.3914017" lon="11.14544"><ele>188.66666666666666</ele><time>2026-05-02T09:30:38.506Z</time></trkpt><trkpt lat="43.3913796" lon="11.1455502"><ele>188.83333333333334</ele><time>2026-05-02T09:30:41.494Z</time></trkpt><trkpt lat="43.391355" lon="11.1456605"><ele>189.0</ele><time>2026-05-02T09:30:44.484Z</time></trkpt><trkpt lat="43.3913331" lon="11.1457612"><ele>189.0</ele><time>2026-05-02T09:30:47.498Z</time></trkpt><trkpt lat="43.3913118" lon="11.1458658"><ele>189.0</ele><time>2026-05-02T09:30:50.486Z</time></trkpt><trkpt lat="43.391287" lon="11.1459705"><ele>189.0</ele><time>2026-05-02T09:30:53.489Z</time></trkpt><trkpt lat="43.3912654" lon="11.1460738"><ele>189.0</ele><time>2026-05-02T09:30:55.497Z</time></trkpt><trkpt lat="43.3912413" lon="11.1461592"><ele>189.0</ele><time>2026-05-02T09:30:57.504Z</time></trkpt><trkpt lat="43.39121" lon="11.1462826"><ele>189.0</ele><time>2026-05-02T09:31:00.502Z</time></trkpt><trkpt lat="43.391185" lon="11.1463791"><ele>189.0</ele><time>2026-05-02T09:31:02.49Z</time></trkpt><trkpt lat="43.3911599" lon="11.1464739"><ele>189.0</ele><time>2026-05-02T09:31:04.5Z</time></trkpt><trkpt lat="43.3911392" lon="11.1465671"><ele>189.0</ele><time>2026-05-02T09:31:06.483Z</time></trkpt><trkpt lat="43.3911143" lon="11.1466567"><ele>189.0</ele><time>2026-05-02T09:31:08.481Z</time></trkpt><trkpt lat="43.3910891" lon="11.1467436"><ele>189.0</ele><time>2026-05-02T09:31:10.555Z</time></trkpt><trkpt lat="43.3910611" lon="11.1468383"><ele>189.0</ele><time>2026-05-02T09:31:12.487Z</time></trkpt><trkpt lat="43.3910426" lon="11.1469272"><ele>189.0</ele><time>2026-05-02T09:31:14.472Z</time></trkpt><trkpt lat="43.3910048" lon="11.1470608"><ele>189.0</ele><time>2026-05-02T09:31:17.479Z</time></trkpt><trkpt lat="43.3909751" lon="11.1471645"><ele>189.0</ele><time>2026-05-02T09:31:19.569Z</time></trkpt><trkpt lat="43.3909432" lon="11.1472634"><ele>189.0</ele><time>2026-05-02T09:31:21.483Z</time></trkpt><trkpt lat="43.3909063" lon="11.1473436"><ele>189.0</ele><time>2026-05-02T09:31:23.488Z</time></trkpt><trkpt lat="43.3908808" lon="11.1474417"><ele>189.0</ele><time>2026-05-02T09:31:25.495Z</time></trkpt><trkpt lat="43.3908537" lon="11.1475301"><ele>189.0</ele><time>2026-05-02T09:31:27.48Z</time></trkpt><trkpt lat="43.3908195" lon="11.1476525"><ele>189.16666666666666</ele><time>2026-05-02T09:31:30.484Z</time></trkpt><trkpt lat="43.3908022" lon="11.1477401"><ele>189.33333333333334</ele><time>2026-05-02T09:31:32.493Z</time></trkpt><trkpt lat="43.3907838" lon="11.1478354"><ele>189.5</ele><time>2026-05-02T09:31:34.486Z</time></trkpt><trkpt lat="43.3907638" lon="11.1479228"><ele>189.66666666666669</ele><time>2026-05-02T09:31:36.482Z</time></trkpt><trkpt lat="43.3907237" lon="11.148038"><ele>189.83333333333334</ele><time>2026-05-02T09:31:39.488Z</time></trkpt><trkpt lat="43.3907022" lon="11.1481354"><ele>190.0</ele><time>2026-05-02T09:31:42.478Z</time></trkpt><trkpt lat="43.3906783" lon="11.1482517"><ele>190.0</ele><time>2026-05-02T09:31:45.493Z</time></trkpt><trkpt lat="43.3906387" lon="11.1483755"><ele>190.0</ele><time>2026-05-02T09:31:48.492Z</time></trkpt><trkpt lat="43.3906038" lon="11.148474"><ele>190.0</ele><time>2026-05-02T09:31:50.482Z</time></trkpt><trkpt lat="43.3905781" lon="11.1485777"><ele>190.0</ele><time>2026-05-02T09:31:52.48Z</time></trkpt><trkpt lat="43.3905528" lon="11.1486776"><ele>190.0</ele><time>2026-05-02T09:31:54.477Z</time></trkpt><trkpt lat="43.3905287" lon="11.1487825"><ele>190.0</ele><time>2026-05-02T09:31:56.495Z</time></trkpt><trkpt lat="43.3905043" lon="11.1488746"><ele>190.57142857142858</ele><time>2026-05-02T09:31:58.481Z</time></trkpt><trkpt lat="43.3904836" lon="11.1489651"><ele>191.14285714285717</ele><time>2026-05-02T09:32:00.5Z</time></trkpt><trkpt lat="43.3904645" lon="11.1490528"><ele>191.71428571428572</ele><time>2026-05-02T09:32:02.497Z</time></trkpt><trkpt lat="43.3904436" lon="11.1491439"><ele>192.28571428571428</ele><time>2026-05-02T09:32:04.487Z</time></trkpt><trkpt lat="43.390425" lon="11.1492338"><ele>192.85714285714286</ele><time>2026-05-02T09:32:06.48Z</time></trkpt><trkpt lat="43.3904027" lon="11.1493311"><ele>193.42857142857142</ele><time>2026-05-02T09:32:08.473Z</time></trkpt><trkpt lat="43.3903811" lon="11.1494297"><ele>194.0</ele><time>2026-05-02T09:32:10.484Z</time></trkpt><trkpt lat="43.3903654" lon="11.1495156"><ele>194.16666666666669</ele><time>2026-05-02T09:32:12.49Z</time></trkpt><trkpt lat="43.3903426" lon="11.1495982"><ele>194.33333333333334</ele><time>2026-05-02T09:32:14.48Z</time></trkpt><trkpt lat="43.3903166" lon="11.1496823"><ele>194.5</ele><time>2026-05-02T09:32:16.482Z</time></trkpt><trkpt lat="43.3902942" lon="11.1497723"><ele>194.66666666666669</ele><time>2026-05-02T09:32:18.484Z</time></trkpt><trkpt lat="43.3902715" lon="11.1498771"><ele>194.83333333333334</ele><time>2026-05-02T09:32:20.475Z</time></trkpt><trkpt lat="43.3902551" lon="11.1499926"><ele>195.0</ele><time>2026-05-02T09:32:22.495Z</time></trkpt><trkpt lat="43.3902467" lon="11.150112"><ele>195.16666666666666</ele><time>2026-05-02T09:32:24.489Z</time></trkpt><trkpt lat="43.3902424" lon="11.150227"><ele>195.33333333333331</ele><time>2026-05-02T09:32:26.484Z</time></trkpt><trkpt lat="43.3902408" lon="11.1503421"><ele>195.5</ele><time>2026-05-02T09:32:28.509Z</time></trkpt><trkpt lat="43.3902314" lon="11.1504515"><ele>195.66666666666666</ele><time>2026-05-02T09:32:30.555Z</time></trkpt><trkpt lat="43.3902293" lon="11.1505646"><ele>195.83333333333331</ele><time>2026-05-02T09:32:32.478Z</time></trkpt><trkpt lat="43.3902246" lon="11.150675"><ele>196.0</ele><time>2026-05-02T09:32:34.564Z</time></trkpt><trkpt lat="43.3902338" lon="11.150771"><ele>195.71428571428572</ele><time>2026-05-02T09:32:36.491Z</time></trkpt><trkpt lat="43.3902845" lon="11.150843"><ele>195.42857142857144</ele><time>2026-05-02T09:32:38.483Z</time></trkpt><trkpt lat="43.3903363" lon="11.1509024"><ele>195.14285714285714</ele><time>2026-05-02T09:32:40.489Z</time></trkpt><trkpt lat="43.3903692" lon="11.1509837"><ele>194.85714285714286</ele><time>2026-05-02T09:32:42.48Z</time></trkpt><trkpt lat="43.3903664" lon="11.1510738"><ele>194.57142857142858</ele><time>2026-05-02T09:32:44.49Z</time></trkpt><trkpt lat="43.3903108" lon="11.15114"><ele>194.28571428571428</ele><time>2026-05-02T09:32:46.497Z</time></trkpt><trkpt lat="43.3902592" lon="11.1512044"><ele>194.0</ele><time>2026-05-02T09:32:48.503Z</time></trkpt><trkpt lat="43.3902007" lon="11.1512664"><ele>194.0</ele><time>2026-05-02T09:32:50.483Z</time></trkpt><trkpt lat="43.3901407" lon="11.1513349"><ele>194.0</ele><time>2026-05-02T09:32:52.488Z</time></trkpt><trkpt lat="43.3900811" lon="11.151394"><ele>194.0</ele><time>2026-05-02T09:32:54.563Z</time></trkpt><trkpt lat="43.3900229" lon="11.1514631"><ele>194.0</ele><time>2026-05-02T09:32:56.465Z</time></trkpt><trkpt lat="43.3899713" lon="11.1515214"><ele>194.0</ele><time>2026-05-02T09:32:58.471Z</time></trkpt><trkpt lat="43.3899166" lon="11.1515789"><ele>194.0</ele><time>2026-05-02T09:33:00.508Z</time></trkpt><trkpt lat="43.389863" lon="11.1516356"><ele>194.0</ele><time>2026-05-02T09:33:02.492Z</time></trkpt><trkpt lat="43.3897926" lon="11.1517172"><ele>194.00000000000003</ele><time>2026-05-02T09:33:05.468Z</time></trkpt><trkpt lat="43.3897487" lon="11.1517884"><ele>194.0</ele><time>2026-05-02T09:33:07.482Z</time></trkpt><trkpt lat="43.3896815" lon="11.1518699"><ele>194.0</ele><time>2026-05-02T09:33:10.556Z</time></trkpt><trkpt lat="43.3895989" lon="11.1519513"><ele>194.0</ele><time>2026-05-02T09:33:13.485Z</time></trkpt><trkpt lat="43.3895483" lon="11.1520057"><ele>194.00000000000003</ele><time>2026-05-02T09:33:15.486Z</time></trkpt><trkpt lat="43.3894967" lon="11.1520622"><ele>194.0</ele><time>2026-05-02T09:33:17.511Z</time></trkpt><trkpt lat="43.3894339" lon="11.1521375"><ele>194.50000000000003</ele><time>2026-05-02T09:33:20.488Z</time></trkpt><trkpt lat="43.3893839" lon="11.1521963"><ele>195.0</ele><time>2026-05-02T09:33:22.495Z</time></trkpt><trkpt lat="43.3893137" lon="11.1522797"><ele>195.5</ele><time>2026-05-02T09:33:25.491Z</time></trkpt><trkpt lat="43.3892455" lon="11.1523642"><ele>196.0</ele><time>2026-05-02T09:33:28.496Z</time></trkpt><trkpt lat="43.3891838" lon="11.152441"><ele>196.50000000000003</ele><time>2026-05-02T09:33:31.571Z</time></trkpt><trkpt lat="43.3891265" lon="11.1525029"><ele>197.0</ele><time>2026-05-02T09:33:34.477Z</time></trkpt><trkpt lat="43.3890638" lon="11.1525518"><ele>197.50000000000003</ele><time>2026-05-02T09:33:37.472Z</time></trkpt><trkpt lat="43.3890023" lon="11.152615"><ele>198.0</ele><time>2026-05-02T09:33:40.555Z</time></trkpt><trkpt lat="43.3889394" lon="11.1526998"><ele>198.5</ele><time>2026-05-02T09:33:43.487Z</time></trkpt><trkpt lat="43.3888753" lon="11.1527828"><ele>199.0</ele><time>2026-05-02T09:33:46.559Z</time></trkpt><trkpt lat="43.3888128" lon="11.1528443"><ele>199.50000000000003</ele><time>2026-05-02T09:33:49.49Z</time></trkpt><trkpt lat="43.3887499" lon="11.152902"><ele>200.0</ele><time>2026-05-02T09:33:52.494Z</time></trkpt><trkpt lat="43.3886754" lon="11.1529673"><ele>200.50000000000003</ele><time>2026-05-02T09:33:55.497Z</time></trkpt><trkpt lat="43.3886116" lon="11.1530282"><ele>201.0</ele><time>2026-05-02T09:33:58.582Z</time></trkpt><trkpt lat="43.3885389" lon="11.1530962"><ele>201.5</ele><time>2026-05-02T09:34:01.552Z</time></trkpt><trkpt lat="43.3884774" lon="11.1531633"><ele>202.0</ele><time>2026-05-02T09:34:04.496Z</time></trkpt><trkpt lat="43.3884141" lon="11.1532415"><ele>202.50000000000003</ele><time>2026-05-02T09:34:07.484Z</time></trkpt><trkpt lat="43.3883408" lon="11.1533207"><ele>203.0</ele><time>2026-05-02T09:34:10.569Z</time></trkpt><trkpt lat="43.3882953" lon="11.1533845"><ele>203.16666666666669</ele><time>2026-05-02T09:34:12.483Z</time></trkpt><trkpt lat="43.3882478" lon="11.1534437"><ele>203.33333333333334</ele><time>2026-05-02T09:34:14.485Z</time></trkpt><trkpt lat="43.3881851" lon="11.1535275"><ele>203.5</ele><time>2026-05-02T09:34:17.505Z</time></trkpt><trkpt lat="43.3881132" lon="11.1536063"><ele>203.66666666666669</ele><time>2026-05-02T09:34:21.497Z</time></trkpt><trkpt lat="43.3880548" lon="11.1536572"><ele>203.83333333333334</ele><time>2026-05-02T09:34:23.484Z</time></trkpt><trkpt lat="43.3879993" lon="11.1537095"><ele>204.0</ele><time>2026-05-02T09:34:25.495Z</time></trkpt><trkpt lat="43.387925" lon="11.1537889"><ele>204.5</ele><time>2026-05-02T09:34:28.482Z</time></trkpt><trkpt lat="43.3878683" lon="11.153839"><ele>205.0</ele><time>2026-05-02T09:34:30.509Z</time></trkpt><trkpt lat="43.387797" lon="11.1539051"><ele>205.5</ele><time>2026-05-02T09:34:33.485Z</time></trkpt><trkpt lat="43.3877265" lon="11.1539762"><ele>206.0</ele><time>2026-05-02T09:34:36.486Z</time></trkpt><trkpt lat="43.3876555" lon="11.1540545"><ele>206.5</ele><time>2026-05-02T09:34:39.567Z</time></trkpt><trkpt lat="43.3876043" lon="11.154105"><ele>207.0</ele><time>2026-05-02T09:34:41.473Z</time></trkpt><trkpt lat="43.3875468" lon="11.1541575"><ele>207.33333333333334</ele><time>2026-05-02T09:34:43.482Z</time></trkpt><trkpt lat="43.3874841" lon="11.15425"><ele>207.66666666666669</ele><time>2026-05-02T09:34:46.57Z</time></trkpt><trkpt lat="43.3874097" lon="11.1543379"><ele>208.0</ele><time>2026-05-02T09:34:49.56Z</time></trkpt><trkpt lat="43.3873554" lon="11.1544228"><ele>208.33333333333334</ele><time>2026-05-02T09:34:52.502Z</time></trkpt><trkpt lat="43.3872963" lon="11.1544635"><ele>208.66666666666669</ele><time>2026-05-02T09:34:54.565Z</time></trkpt><trkpt lat="43.3872243" lon="11.1545283"><ele>209.0</ele><time>2026-05-02T09:34:57.498Z</time></trkpt><trkpt lat="43.3871523" lon="11.1545984"><ele>210.0</ele><time>2026-05-02T09:35:00.505Z</time></trkpt><trkpt lat="43.3870981" lon="11.1546471"><ele>211.0</ele><time>2026-05-02T09:35:03.486Z</time></trkpt><trkpt lat="43.3870659" lon="11.1547336"><ele>212.0</ele><time>2026-05-02T09:35:07.471Z</time></trkpt><trkpt lat="43.3870629" lon="11.1548217"><ele>213.0</ele><time>2026-05-02T09:35:10.555Z</time></trkpt><trkpt lat="43.3870699" lon="11.1549118"><ele>214.0</ele><time>2026-05-02T09:35:13.503Z</time></trkpt><trkpt lat="43.3870718" lon="11.1550079"><ele>215.0</ele><time>2026-05-02T09:35:16.488Z</time></trkpt><trkpt lat="43.3870775" lon="11.1551262"><ele>216.0</ele><time>2026-05-02T09:35:20.574Z</time></trkpt><trkpt lat="43.3870875" lon="11.1552119"><ele>217.0</ele><time>2026-05-02T09:35:23.487Z</time></trkpt><trkpt lat="43.3870907" lon="11.1553236"><ele>218.0</ele><time>2026-05-02T09:35:27.488Z</time></trkpt><trkpt lat="43.3870921" lon="11.1554131"><ele>219.0</ele><time>2026-05-02T09:35:30.492Z</time></trkpt><trkpt lat="43.3871046" lon="11.1555087"><ele>220.0</ele><time>2026-05-02T09:35:33.494Z</time></trkpt><trkpt lat="43.3871042" lon="11.1556109"><ele>221.0</ele><time>2026-05-02T09:35:36.487Z</time></trkpt><trkpt lat="43.3871089" lon="11.1556983"><ele>222.0</ele><time>2026-05-02T09:35:38.494Z</time></trkpt><trkpt lat="43.3871113" lon="11.1557928"><ele>223.0</ele><time>2026-05-02T09:35:40.555Z</time></trkpt><trkpt lat="43.3871087" lon="11.1558872"><ele>223.16666666666666</ele><time>2026-05-02T09:35:42.507Z</time></trkpt><trkpt lat="43.3871248" lon="11.1559754"><ele>223.33333333333331</ele><time>2026-05-02T09:35:44.576Z</time></trkpt><trkpt lat="43.3871648" lon="11.156095"><ele>223.5</ele><time>2026-05-02T09:35:47.481Z</time></trkpt><trkpt lat="43.3872014" lon="11.1561728"><ele>223.66666666666669</ele><time>2026-05-02T09:35:49.466Z</time></trkpt><trkpt lat="43.3872232" lon="11.1562795"><ele>223.83333333333334</ele><time>2026-05-02T09:35:52.492Z</time></trkpt><trkpt lat="43.3872266" lon="11.1563944"><ele>224.0</ele><time>2026-05-02T09:35:55.551Z</time></trkpt><trkpt lat="43.3872435" lon="11.1564797"><ele>222.33333333333334</ele><time>2026-05-02T09:35:58.492Z</time></trkpt><trkpt lat="43.3872587" lon="11.156587"><ele>220.66666666666669</ele><time>2026-05-02T09:36:02.465Z</time></trkpt><trkpt lat="43.3872928" lon="11.1566811"><ele>219.0</ele><time>2026-05-02T09:36:04.481Z</time></trkpt><trkpt lat="43.3873251" lon="11.1567695"><ele>217.33333333333331</ele><time>2026-05-02T09:36:06.488Z</time></trkpt><trkpt lat="43.3873485" lon="11.1568558"><ele>215.66666666666666</ele><time>2026-05-02T09:36:08.488Z</time></trkpt><trkpt lat="43.3873903" lon="11.1569727"><ele>214.0</ele><time>2026-05-02T09:36:11.468Z</time></trkpt><trkpt lat="43.3874191" lon="11.1570553"><ele>213.99999999999997</ele><time>2026-05-02T09:36:13.497Z</time></trkpt><trkpt lat="43.3874579" lon="11.1571785"><ele>214.0</ele><time>2026-05-02T09:36:16.473Z</time></trkpt><trkpt lat="43.3874868" lon="11.1572845"><ele>214.0</ele><time>2026-05-02T09:36:18.479Z</time></trkpt><trkpt lat="43.3875324" lon="11.157387"><ele>214.0</ele><time>2026-05-02T09:36:20.556Z</time></trkpt><trkpt lat="43.3875708" lon="11.1574954"><ele>213.99999999999997</ele><time>2026-05-02T09:36:23.496Z</time></trkpt><trkpt lat="43.3875656" lon="11.1575945"><ele>214.0</ele><time>2026-05-02T09:36:25.567Z</time></trkpt><trkpt lat="43.3875399" lon="11.1577189"><ele>213.83333333333331</ele><time>2026-05-02T09:36:27.481Z</time></trkpt><trkpt lat="43.3875155" lon="11.1578324"><ele>213.66666666666666</ele><time>2026-05-02T09:36:29.559Z</time></trkpt><trkpt lat="43.3874747" lon="11.1579966"><ele>213.5</ele><time>2026-05-02T09:36:31.566Z</time></trkpt><trkpt lat="43.3874404" lon="11.1580809"><ele>213.33333333333331</ele><time>2026-05-02T09:36:32.483Z</time></trkpt><trkpt lat="43.387396" lon="11.1581531"><ele>213.16666666666666</ele><time>2026-05-02T09:36:33.484Z</time></trkpt><trkpt lat="43.3873598" lon="11.1582299"><ele>213.0</ele><time>2026-05-02T09:36:34.558Z</time></trkpt><trkpt lat="43.387357" lon="11.1583657"><ele>213.0</ele><time>2026-05-02T09:36:36.487Z</time></trkpt><trkpt lat="43.3874206" lon="11.1584995"><ele>213.0</ele><time>2026-05-02T09:36:38.494Z</time></trkpt><trkpt lat="43.3875246" lon="11.1585886"><ele>213.0</ele><time>2026-05-02T09:36:40.482Z</time></trkpt><trkpt lat="43.3876154" lon="11.1586161"><ele>213.0</ele><time>2026-05-02T09:36:42.493Z</time></trkpt><trkpt lat="43.3876835" lon="11.1586294"><ele>213.0</ele><time>2026-05-02T09:36:44.556Z</time></trkpt><trkpt lat="43.3877569" lon="11.1586121"><ele>213.0</ele><time>2026-05-02T09:36:47.49Z</time></trkpt><trkpt lat="43.3878388" lon="11.1585844"><ele>213.0</ele><time>2026-05-02T09:36:50.545Z</time></trkpt><trkpt lat="43.387914" lon="11.1585591"><ele>213.0</ele><time>2026-05-02T09:36:52.495Z</time></trkpt><trkpt lat="43.3879837" lon="11.1585451"><ele>213.0</ele><time>2026-05-02T09:36:54.559Z</time></trkpt><trkpt lat="43.3880499" lon="11.1585308"><ele>213.0</ele><time>2026-05-02T09:36:56.484Z</time></trkpt><trkpt lat="43.3881348" lon="11.1585183"><ele>213.0</ele><time>2026-05-02T09:36:58.491Z</time></trkpt><trkpt lat="43.388215" lon="11.1585134"><ele>212.5</ele><time>2026-05-02T09:37:00.572Z</time></trkpt><trkpt lat="43.388293" lon="11.158571"><ele>212.0</ele><time>2026-05-02T09:37:03.493Z</time></trkpt><trkpt lat="43.3883551" lon="11.1586136"><ele>211.5</ele><time>2026-05-02T09:37:05.554Z</time></trkpt><trkpt lat="43.3884247" lon="11.1586528"><ele>211.0</ele><time>2026-05-02T09:37:07.485Z</time></trkpt><trkpt lat="43.3884887" lon="11.1586968"><ele>210.5</ele><time>2026-05-02T09:37:09.501Z</time></trkpt><trkpt lat="43.3885678" lon="11.1587701"><ele>210.0</ele><time>2026-05-02T09:37:12.491Z</time></trkpt><trkpt lat="43.3886241" lon="11.1588242"><ele>210.0</ele><time>2026-05-02T09:37:14.487Z</time></trkpt><trkpt lat="43.3886835" lon="11.1588789"><ele>210.0</ele><time>2026-05-02T09:37:16.49Z</time></trkpt><trkpt lat="43.3887524" lon="11.1589274"><ele>210.0</ele><time>2026-05-02T09:37:18.496Z</time></trkpt><trkpt lat="43.3888242" lon="11.1589829"><ele>210.0</ele><time>2026-05-02T09:37:20.556Z</time></trkpt><trkpt lat="43.388888" lon="11.159021"><ele>210.0</ele><time>2026-05-02T09:37:22.482Z</time></trkpt><trkpt lat="43.3889522" lon="11.1590533"><ele>210.0</ele><time>2026-05-02T09:37:24.491Z</time></trkpt><trkpt lat="43.389027" lon="11.1591089"><ele>211.0</ele><time>2026-05-02T09:37:26.482Z</time></trkpt><trkpt lat="43.3891113" lon="11.1591671"><ele>212.0</ele><time>2026-05-02T09:37:28.48Z</time></trkpt><trkpt lat="43.3891727" lon="11.159209"><ele>213.0</ele><time>2026-05-02T09:37:30.559Z</time></trkpt><trkpt lat="43.3892557" lon="11.1591952"><ele>214.0</ele><time>2026-05-02T09:37:33.489Z</time></trkpt><trkpt lat="43.3893318" lon="11.1592441"><ele>215.0</ele><time>2026-05-02T09:37:37.488Z</time></trkpt><trkpt lat="43.3893867" lon="11.1593053"><ele>216.0</ele><time>2026-05-02T09:37:39.558Z</time></trkpt><trkpt lat="43.3894565" lon="11.1593874"><ele>216.0</ele><time>2026-05-02T09:37:42.49Z</time></trkpt><trkpt lat="43.3895061" lon="11.1594541"><ele>216.0</ele><time>2026-05-02T09:37:44.49Z</time></trkpt><trkpt lat="43.3895352" lon="11.1595361"><ele>216.0</ele><time>2026-05-02T09:37:46.5Z</time></trkpt><trkpt lat="43.3895591" lon="11.1596268"><ele>216.0</ele><time>2026-05-02T09:37:48.466Z</time></trkpt><trkpt lat="43.3895801" lon="11.1597288"><ele>216.0</ele><time>2026-05-02T09:37:50.495Z</time></trkpt><trkpt lat="43.389593" lon="11.1598372"><ele>216.0</ele><time>2026-05-02T09:37:52.498Z</time></trkpt><trkpt lat="43.3896074" lon="11.1599332"><ele>216.0</ele><time>2026-05-02T09:37:54.504Z</time></trkpt><trkpt lat="43.389619" lon="11.1600207"><ele>216.5</ele><time>2026-05-02T09:37:56.468Z</time></trkpt><trkpt lat="43.3896297" lon="11.1601107"><ele>217.0</ele><time>2026-05-02T09:37:58.487Z</time></trkpt><trkpt lat="43.3896455" lon="11.1601967"><ele>217.5</ele><time>2026-05-02T09:38:00.581Z</time></trkpt><trkpt lat="43.3896591" lon="11.160319"><ele>218.0</ele><time>2026-05-02T09:38:03.496Z</time></trkpt><trkpt lat="43.3896741" lon="11.1604384"><ele>218.5</ele><time>2026-05-02T09:38:06.477Z</time></trkpt><trkpt lat="43.3896912" lon="11.1605583"><ele>219.0</ele><time>2026-05-02T09:38:09.555Z</time></trkpt><trkpt lat="43.3897055" lon="11.1606691"><ele>219.85714285714286</ele><time>2026-05-02T09:38:12.486Z</time></trkpt><trkpt lat="43.389716" lon="11.1607662"><ele>220.71428571428572</ele><time>2026-05-02T09:38:14.57Z</time></trkpt><trkpt lat="43.3897333" lon="11.1608588"><ele>221.57142857142858</ele><time>2026-05-02T09:38:16.47Z</time></trkpt><trkpt lat="43.3897598" lon="11.1609456"><ele>222.42857142857144</ele><time>2026-05-02T09:38:18.482Z</time></trkpt><trkpt lat="43.3897932" lon="11.1610283"><ele>223.28571428571428</ele><time>2026-05-02T09:38:20.486Z</time></trkpt><trkpt lat="43.3898206" lon="11.1611105"><ele>224.14285714285717</ele><time>2026-05-02T09:38:22.493Z</time></trkpt><trkpt lat="43.3898464" lon="11.1612032"><ele>225.00000000000003</ele><time>2026-05-02T09:38:24.486Z</time></trkpt><trkpt lat="43.3898745" lon="11.1612876"><ele>225.00000000000003</ele><time>2026-05-02T09:38:26.502Z</time></trkpt><trkpt lat="43.3898977" lon="11.1613727"><ele>225.0</ele><time>2026-05-02T09:38:28.494Z</time></trkpt><trkpt lat="43.3899205" lon="11.1614619"><ele>225.00000000000003</ele><time>2026-05-02T09:38:30.476Z</time></trkpt><trkpt lat="43.3899563" lon="11.1615755"><ele>225.00000000000003</ele><time>2026-05-02T09:38:33.473Z</time></trkpt><trkpt lat="43.3899869" lon="11.1616584"><ele>225.0</ele><time>2026-05-02T09:38:35.479Z</time></trkpt><trkpt lat="43.3900229" lon="11.161741"><ele>225.00000000000003</ele><time>2026-05-02T09:38:37.487Z</time></trkpt><trkpt lat="43.3900532" lon="11.1618285"><ele>225.00000000000003</ele><time>2026-05-02T09:38:39.49Z</time></trkpt><trkpt lat="43.3900854" lon="11.1619089"><ele>224.8571428571429</ele><time>2026-05-02T09:38:41.489Z</time></trkpt><trkpt lat="43.3901174" lon="11.1619875"><ele>224.71428571428572</ele><time>2026-05-02T09:38:43.492Z</time></trkpt><trkpt lat="43.3901587" lon="11.1620546"><ele>224.57142857142858</ele><time>2026-05-02T09:38:45.485Z</time></trkpt><trkpt lat="43.3902072" lon="11.162119"><ele>224.42857142857144</ele><time>2026-05-02T09:38:47.489Z</time></trkpt><trkpt lat="43.3902878" lon="11.1621944"><ele>224.28571428571428</ele><time>2026-05-02T09:38:50.477Z</time></trkpt><trkpt lat="43.390347" lon="11.1622442"><ele>224.14285714285714</ele><time>2026-05-02T09:38:52.484Z</time></trkpt><trkpt lat="43.3904122" lon="11.1622738"><ele>224.0</ele><time>2026-05-02T09:38:54.485Z</time></trkpt><trkpt lat="43.3904798" lon="11.1623038"><ele>223.66666666666669</ele><time>2026-05-02T09:38:56.5Z</time></trkpt><trkpt lat="43.3905544" lon="11.1623311"><ele>223.33333333333334</ele><time>2026-05-02T09:38:58.495Z</time></trkpt><trkpt lat="43.3906205" lon="11.1623497"><ele>223.0</ele><time>2026-05-02T09:39:00.468Z</time></trkpt><trkpt lat="43.3906931" lon="11.1623743"><ele>222.66666666666669</ele><time>2026-05-02T09:39:02.466Z</time></trkpt><trkpt lat="43.3907656" lon="11.162396"><ele>222.33333333333334</ele><time>2026-05-02T09:39:04.562Z</time></trkpt><trkpt lat="43.3908426" lon="11.1624201"><ele>222.0</ele><time>2026-05-02T09:39:06.481Z</time></trkpt><trkpt lat="43.3909182" lon="11.1624504"><ele>222.0</ele><time>2026-05-02T09:39:08.488Z</time></trkpt><trkpt lat="43.3909948" lon="11.162473"><ele>222.0</ele><time>2026-05-02T09:39:10.568Z</time></trkpt><trkpt lat="43.3910692" lon="11.1625071"><ele>222.0</ele><time>2026-05-02T09:39:12.479Z</time></trkpt><trkpt lat="43.3911369" lon="11.1625567"><ele>222.0</ele><time>2026-05-02T09:39:14.558Z</time></trkpt><trkpt lat="43.3912002" lon="11.1626298"><ele>222.0</ele><time>2026-05-02T09:39:16.49Z</time></trkpt><trkpt lat="43.3912718" lon="11.1626933"><ele>222.0</ele><time>2026-05-02T09:39:18.499Z</time></trkpt><trkpt lat="43.3913143" lon="11.1627837"><ele>222.0</ele><time>2026-05-02T09:39:20.496Z</time></trkpt><trkpt lat="43.391331" lon="11.1628699"><ele>222.0</ele><time>2026-05-02T09:39:22.491Z</time></trkpt><trkpt lat="43.3913543" lon="11.1629632"><ele>222.0</ele><time>2026-05-02T09:39:24.507Z</time></trkpt><trkpt lat="43.3913636" lon="11.1630914"><ele>222.0</ele><time>2026-05-02T09:39:26.497Z</time></trkpt><trkpt lat="43.3913959" lon="11.1632094"><ele>222.0</ele><time>2026-05-02T09:39:28.505Z</time></trkpt><trkpt lat="43.3914312" lon="11.1633358"><ele>222.0</ele><time>2026-05-02T09:39:30.507Z</time></trkpt><trkpt lat="43.3914445" lon="11.163484"><ele>222.2</ele><time>2026-05-02T09:39:32.504Z</time></trkpt><trkpt lat="43.3914602" lon="11.1636227"><ele>222.39999999999998</ele><time>2026-05-02T09:39:34.491Z</time></trkpt><trkpt lat="43.3914736" lon="11.1637488"><ele>222.60000000000002</ele><time>2026-05-02T09:39:36.499Z</time></trkpt><trkpt lat="43.3914887" lon="11.1638704"><ele>222.8</ele><time>2026-05-02T09:39:38.495Z</time></trkpt><trkpt lat="43.3915034" lon="11.1639918"><ele>223.0</ele><time>2026-05-02T09:39:40.565Z</time></trkpt><trkpt lat="43.3914845" lon="11.1641114"><ele>222.99999999999997</ele><time>2026-05-02T09:39:42.499Z</time></trkpt><trkpt lat="43.3914186" lon="11.1641923"><ele>223.0</ele><time>2026-05-02T09:39:44.492Z</time></trkpt><trkpt lat="43.3913353" lon="11.1642193"><ele>223.0</ele><time>2026-05-02T09:39:46.547Z</time></trkpt><trkpt lat="43.3912623" lon="11.1642417"><ele>223.0</ele><time>2026-05-02T09:39:48.5Z</time></trkpt><trkpt lat="43.3911865" lon="11.1642866"><ele>222.99999999999997</ele><time>2026-05-02T09:39:50.569Z</time></trkpt><trkpt lat="43.3910965" lon="11.1643447"><ele>223.0</ele><time>2026-05-02T09:39:53.49Z</time></trkpt><trkpt lat="43.3910188" lon="11.1643721"><ele>222.99999999999997</ele><time>2026-05-02T09:39:55.572Z</time></trkpt><trkpt lat="43.3909443" lon="11.1643932"><ele>223.0</ele><time>2026-05-02T09:39:57.498Z</time></trkpt><trkpt lat="43.3908583" lon="11.1644503"><ele>223.0</ele><time>2026-05-02T09:39:59.559Z</time></trkpt><trkpt lat="43.3907706" lon="11.1645243"><ele>223.0</ele><time>2026-05-02T09:40:01.496Z</time></trkpt><trkpt lat="43.3906906" lon="11.1645403"><ele>222.99999999999997</ele><time>2026-05-02T09:40:03.485Z</time></trkpt><trkpt lat="43.3906148" lon="11.1645685"><ele>223.0</ele><time>2026-05-02T09:40:05.495Z</time></trkpt><trkpt lat="43.3905447" lon="11.1645959"><ele>222.99999999999997</ele><time>2026-05-02T09:40:07.508Z</time></trkpt><trkpt lat="43.3904698" lon="11.1646315"><ele>223.0</ele><time>2026-05-02T09:40:09.49Z</time></trkpt><trkpt lat="43.3903944" lon="11.1646663"><ele>223.0</ele><time>2026-05-02T09:40:11.484Z</time></trkpt><trkpt lat="43.3903146" lon="11.1647035"><ele>223.0</ele><time>2026-05-02T09:40:13.492Z</time></trkpt><trkpt lat="43.3902312" lon="11.1647476"><ele>222.99999999999997</ele><time>2026-05-02T09:40:15.487Z</time></trkpt><trkpt lat="43.3901441" lon="11.164791"><ele>223.0</ele><time>2026-05-02T09:40:17.499Z</time></trkpt><trkpt lat="43.3900581" lon="11.1648405"><ele>223.2</ele><time>2026-05-02T09:40:19.484Z</time></trkpt><trkpt lat="43.3899686" lon="11.1648872"><ele>223.4</ele><time>2026-05-02T09:40:21.479Z</time></trkpt><trkpt lat="43.3898768" lon="11.1649332"><ele>223.59999999999997</ele><time>2026-05-02T09:40:23.488Z</time></trkpt><trkpt lat="43.3897855" lon="11.1649755"><ele>223.79999999999998</ele><time>2026-05-02T09:40:25.559Z</time></trkpt><trkpt lat="43.3896951" lon="11.1650086"><ele>224.0</ele><time>2026-05-02T09:40:27.47Z</time></trkpt><trkpt lat="43.3896058" lon="11.1650489"><ele>224.66666666666669</ele><time>2026-05-02T09:40:29.49Z</time></trkpt><trkpt lat="43.3895194" lon="11.1650859"><ele>225.33333333333334</ele><time>2026-05-02T09:40:31.555Z</time></trkpt><trkpt lat="43.3894325" lon="11.1651188"><ele>226.0</ele><time>2026-05-02T09:40:33.489Z</time></trkpt><trkpt lat="43.3893472" lon="11.1651301"><ele>226.66666666666669</ele><time>2026-05-02T09:40:35.487Z</time></trkpt><trkpt lat="43.3892795" lon="11.1651665"><ele>227.33333333333334</ele><time>2026-05-02T09:40:37.485Z</time></trkpt><trkpt lat="43.3892161" lon="11.1652192"><ele>228.0</ele><time>2026-05-02T09:40:39.48Z</time></trkpt><trkpt lat="43.3891299" lon="11.1652485"><ele>228.0</ele><time>2026-05-02T09:40:41.508Z</time></trkpt><trkpt lat="43.3890577" lon="11.1652887"><ele>227.99999999999997</ele><time>2026-05-02T09:40:43.494Z</time></trkpt><trkpt lat="43.3889938" lon="11.1653261"><ele>228.0</ele><time>2026-05-02T09:40:45.48Z</time></trkpt><trkpt lat="43.3889254" lon="11.1653557"><ele>228.0</ele><time>2026-05-02T09:40:47.491Z</time></trkpt><trkpt lat="43.3888581" lon="11.1653696"><ele>227.99999999999997</ele><time>2026-05-02T09:40:49.565Z</time></trkpt><trkpt lat="43.3887837" lon="11.165387"><ele>228.0</ele><time>2026-05-02T09:40:52.488Z</time></trkpt><trkpt lat="43.3887219" lon="11.1654124"><ele>228.0</ele><time>2026-05-02T09:40:54.57Z</time></trkpt><trkpt lat="43.3886568" lon="11.1654495"><ele>228.66666666666666</ele><time>2026-05-02T09:40:56.499Z</time></trkpt><trkpt lat="43.3885884" lon="11.1654835"><ele>229.33333333333331</ele><time>2026-05-02T09:40:58.494Z</time></trkpt><trkpt lat="43.388523" lon="11.1655179"><ele>230.0</ele><time>2026-05-02T09:41:00.488Z</time></trkpt><trkpt lat="43.3884597" lon="11.1655519"><ele>230.66666666666666</ele><time>2026-05-02T09:41:02.485Z</time></trkpt><trkpt lat="43.3883722" lon="11.1655976"><ele>231.33333333333331</ele><time>2026-05-02T09:41:05.554Z</time></trkpt><trkpt lat="43.3882916" lon="11.1656463"><ele>232.0</ele><time>2026-05-02T09:41:08.501Z</time></trkpt><trkpt lat="43.3882284" lon="11.1656718"><ele>231.83333333333331</ele><time>2026-05-02T09:41:10.573Z</time></trkpt><trkpt lat="43.3881629" lon="11.1656954"><ele>231.66666666666666</ele><time>2026-05-02T09:41:12.499Z</time></trkpt><trkpt lat="43.3880956" lon="11.1657161"><ele>231.5</ele><time>2026-05-02T09:41:14.499Z</time></trkpt><trkpt lat="43.3880338" lon="11.1657373"><ele>231.33333333333331</ele><time>2026-05-02T09:41:16.495Z</time></trkpt><trkpt lat="43.3879503" lon="11.1657773"><ele>231.16666666666666</ele><time>2026-05-02T09:41:19.496Z</time></trkpt><trkpt lat="43.387871" lon="11.1658191"><ele>231.0</ele><time>2026-05-02T09:41:22.482Z</time></trkpt><trkpt lat="43.3877883" lon="11.1658586"><ele>231.5</ele><time>2026-05-02T09:41:25.564Z</time></trkpt><trkpt lat="43.3877049" lon="11.1658936"><ele>232.0</ele><time>2026-05-02T09:41:28.503Z</time></trkpt><trkpt lat="43.3876411" lon="11.1659183"><ele>232.5</ele><time>2026-05-02T09:41:30.491Z</time></trkpt><trkpt lat="43.387571" lon="11.1659828"><ele>233.0</ele><time>2026-05-02T09:41:33.489Z</time></trkpt><trkpt lat="43.3874785" lon="11.1660211"><ele>233.5</ele><time>2026-05-02T09:41:36.472Z</time></trkpt><trkpt lat="43.3874054" lon="11.1660448"><ele>234.0</ele><time>2026-05-02T09:41:38.485Z</time></trkpt><trkpt lat="43.3873369" lon="11.166074"><ele>234.0</ele><time>2026-05-02T09:41:40.569Z</time></trkpt><trkpt lat="43.3872561" lon="11.1660924"><ele>234.0</ele><time>2026-05-02T09:41:42.502Z</time></trkpt><trkpt lat="43.3871852" lon="11.166118"><ele>234.0</ele><time>2026-05-02T09:41:44.488Z</time></trkpt><trkpt lat="43.3871048" lon="11.1661609"><ele>234.0</ele><time>2026-05-02T09:41:47.491Z</time></trkpt><trkpt lat="43.3870198" lon="11.1662026"><ele>234.0</ele><time>2026-05-02T09:41:50.515Z</time></trkpt><trkpt lat="43.3869292" lon="11.1662391"><ele>234.0</ele><time>2026-05-02T09:41:53.488Z</time></trkpt><trkpt lat="43.3868679" lon="11.1662712"><ele>234.85714285714286</ele><time>2026-05-02T09:41:55.5Z</time></trkpt><trkpt lat="43.3868055" lon="11.1662974"><ele>235.71428571428572</ele><time>2026-05-02T09:41:57.482Z</time></trkpt><trkpt lat="43.3867432" lon="11.166326"><ele>236.57142857142858</ele><time>2026-05-02T09:41:59.488Z</time></trkpt><trkpt lat="43.3866856" lon="11.1663648"><ele>237.42857142857144</ele><time>2026-05-02T09:42:01.556Z</time></trkpt><trkpt lat="43.3866058" lon="11.1663777"><ele>238.28571428571428</ele><time>2026-05-02T09:42:03.488Z</time></trkpt><trkpt lat="43.3865371" lon="11.1664093"><ele>239.14285714285717</ele><time>2026-05-02T09:42:05.581Z</time></trkpt><trkpt lat="43.3864557" lon="11.1664587"><ele>240.0</ele><time>2026-05-02T09:42:08.487Z</time></trkpt><trkpt lat="43.3863805" lon="11.1665286"><ele>240.57142857142858</ele><time>2026-05-02T09:42:11.558Z</time></trkpt><trkpt lat="43.386328" lon="11.1666062"><ele>241.1428571428571</ele><time>2026-05-02T09:42:13.471Z</time></trkpt><trkpt lat="43.3862838" lon="11.1666745"><ele>241.7142857142857</ele><time>2026-05-02T09:42:15.569Z</time></trkpt><trkpt lat="43.386243" lon="11.1667442"><ele>242.28571428571428</ele><time>2026-05-02T09:42:17.486Z</time></trkpt><trkpt lat="43.3861897" lon="11.1668478"><ele>242.85714285714283</ele><time>2026-05-02T09:42:20.559Z</time></trkpt><trkpt lat="43.3861599" lon="11.1669258"><ele>243.4285714285714</ele><time>2026-05-02T09:42:22.487Z</time></trkpt><trkpt lat="43.3861189" lon="11.1669954"><ele>243.99999999999997</ele><time>2026-05-02T09:42:24.491Z</time></trkpt><trkpt lat="43.3860778" lon="11.1670687"><ele>243.99999999999997</ele><time>2026-05-02T09:42:26.49Z</time></trkpt><trkpt lat="43.386037" lon="11.1671428"><ele>244.0</ele><time>2026-05-02T09:42:28.507Z</time></trkpt><trkpt lat="43.3859936" lon="11.1672165"><ele>244.0</ele><time>2026-05-02T09:42:30.57Z</time></trkpt><trkpt lat="43.3859409" lon="11.1673286"><ele>244.0</ele><time>2026-05-02T09:42:33.489Z</time></trkpt><trkpt lat="43.3858909" lon="11.1673979"><ele>243.99999999999997</ele><time>2026-05-02T09:42:35.553Z</time></trkpt><trkpt lat="43.385829" lon="11.1674492"><ele>244.0</ele><time>2026-05-02T09:42:37.496Z</time></trkpt><trkpt lat="43.3857517" lon="11.1674813"><ele>244.16666666666666</ele><time>2026-05-02T09:42:39.486Z</time></trkpt><trkpt lat="43.3856812" lon="11.1674792"><ele>244.33333333333331</ele><time>2026-05-02T09:42:41.576Z</time></trkpt><trkpt lat="43.3856162" lon="11.1674675"><ele>244.5</ele><time>2026-05-02T09:42:43.509Z</time></trkpt><trkpt lat="43.3855386" lon="11.1674367"><ele>244.66666666666669</ele><time>2026-05-02T09:42:45.491Z</time></trkpt><trkpt lat="43.3854533" lon="11.1674203"><ele>244.83333333333334</ele><time>2026-05-02T09:42:47.483Z</time></trkpt><trkpt lat="43.3853598" lon="11.1674482"><ele>245.0</ele><time>2026-05-02T09:42:49.49Z</time></trkpt><trkpt lat="43.385269" lon="11.1674778"><ele>244.6</ele><time>2026-05-02T09:42:51.552Z</time></trkpt><trkpt lat="43.3851708" lon="11.1675018"><ele>244.2</ele><time>2026-05-02T09:42:53.475Z</time></trkpt><trkpt lat="43.3850781" lon="11.1675216"><ele>243.8</ele><time>2026-05-02T09:42:55.483Z</time></trkpt><trkpt lat="43.3849889" lon="11.1675501"><ele>243.4</ele><time>2026-05-02T09:42:57.493Z</time></trkpt><trkpt lat="43.384901" lon="11.167584"><ele>243.0</ele><time>2026-05-02T09:42:59.462Z</time></trkpt><trkpt lat="43.3848173" lon="11.1676226"><ele>243.0</ele><time>2026-05-02T09:43:01.48Z</time></trkpt><trkpt lat="43.3847353" lon="11.167655"><ele>243.0</ele><time>2026-05-02T09:43:03.483Z</time></trkpt><trkpt lat="43.3846604" lon="11.1676868"><ele>243.0</ele><time>2026-05-02T09:43:05.563Z</time></trkpt><trkpt lat="43.384587" lon="11.1677145"><ele>243.0</ele><time>2026-05-02T09:43:07.476Z</time></trkpt><trkpt lat="43.3845118" lon="11.1677492"><ele>243.0</ele><time>2026-05-02T09:43:09.49Z</time></trkpt><trkpt lat="43.3844328" lon="11.1677983"><ele>243.0</ele><time>2026-05-02T09:43:11.562Z</time></trkpt><trkpt lat="43.3843554" lon="11.1678519"><ele>242.5</ele><time>2026-05-02T09:43:13.495Z</time></trkpt><trkpt lat="43.3842859" lon="11.1679094"><ele>242.0</ele><time>2026-05-02T09:43:15.564Z</time></trkpt><trkpt lat="43.3842199" lon="11.1680127"><ele>241.5</ele><time>2026-05-02T09:43:18.496Z</time></trkpt><trkpt lat="43.3841541" lon="11.1680939"><ele>241.0</ele><time>2026-05-02T09:43:21.579Z</time></trkpt><trkpt lat="43.3841272" lon="11.1681726"><ele>240.5</ele><time>2026-05-02T09:43:23.49Z</time></trkpt><trkpt lat="43.3840815" lon="11.1682558"><ele>240.0</ele><time>2026-05-02T09:43:26.493Z</time></trkpt><trkpt lat="43.3840042" lon="11.1683033"><ele>240.85714285714286</ele><time>2026-05-02T09:43:29.49Z</time></trkpt><trkpt lat="43.38394" lon="11.1683653"><ele>241.71428571428572</ele><time>2026-05-02T09:43:32.498Z</time></trkpt><trkpt lat="43.3838755" lon="11.1684205"><ele>242.57142857142858</ele><time>2026-05-02T09:43:35.564Z</time></trkpt><trkpt lat="43.3838153" lon="11.1684859"><ele>243.42857142857144</ele><time>2026-05-02T09:43:38.487Z</time></trkpt><trkpt lat="43.3837605" lon="11.1685359"><ele>244.28571428571428</ele><time>2026-05-02T09:43:41.56Z</time></trkpt><trkpt lat="43.3836966" lon="11.1685819"><ele>245.14285714285717</ele><time>2026-05-02T09:43:45.569Z</time></trkpt><trkpt lat="43.383656" lon="11.168653"><ele>246.00000000000003</ele><time>2026-05-02T09:43:48.496Z</time></trkpt><trkpt lat="43.3836204" lon="11.1687557"><ele>246.14285714285717</ele><time>2026-05-02T09:43:52.485Z</time></trkpt><trkpt lat="43.3835745" lon="11.168835"><ele>246.28571428571428</ele><time>2026-05-02T09:43:55.561Z</time></trkpt><trkpt lat="43.3835211" lon="11.1688982"><ele>246.42857142857144</ele><time>2026-05-02T09:43:57.471Z</time></trkpt><trkpt lat="43.3834531" lon="11.1689536"><ele>246.57142857142858</ele><time>2026-05-02T09:43:59.49Z</time></trkpt><trkpt lat="43.38341" lon="11.1690375"><ele>246.71428571428572</ele><time>2026-05-02T09:44:01.502Z</time></trkpt><trkpt lat="43.3833631" lon="11.1691021"><ele>246.85714285714286</ele><time>2026-05-02T09:44:03.504Z</time></trkpt><trkpt lat="43.3833101" lon="11.169174"><ele>247.0</ele><time>2026-05-02T09:44:05.497Z</time></trkpt><trkpt lat="43.3832597" lon="11.1692486"><ele>247.14285714285717</ele><time>2026-05-02T09:44:07.487Z</time></trkpt><trkpt lat="43.3831995" lon="11.1693106"><ele>247.28571428571428</ele><time>2026-05-02T09:44:09.502Z</time></trkpt><trkpt lat="43.3831359" lon="11.1693719"><ele>247.42857142857144</ele><time>2026-05-02T09:44:11.491Z</time></trkpt><trkpt lat="43.3830812" lon="11.1694412"><ele>247.57142857142858</ele><time>2026-05-02T09:44:13.499Z</time></trkpt><trkpt lat="43.3830324" lon="11.1695066"><ele>247.71428571428572</ele><time>2026-05-02T09:44:15.485Z</time></trkpt><trkpt lat="43.3829928" lon="11.1695828"><ele>247.85714285714286</ele><time>2026-05-02T09:44:17.498Z</time></trkpt><trkpt lat="43.3829568" lon="11.169667"><ele>248.0</ele><time>2026-05-02T09:44:19.499Z</time></trkpt><trkpt lat="43.3829122" lon="11.1697558"><ele>248.14285714285717</ele><time>2026-05-02T09:44:21.581Z</time></trkpt><trkpt lat="43.3828702" lon="11.1698305"><ele>248.2857142857143</ele><time>2026-05-02T09:44:23.495Z</time></trkpt><trkpt lat="43.382835" lon="11.1699087"><ele>248.42857142857144</ele><time>2026-05-02T09:44:25.57Z</time></trkpt><trkpt lat="43.3827974" lon="11.1699911"><ele>248.57142857142856</ele><time>2026-05-02T09:44:27.487Z</time></trkpt><trkpt lat="43.3827523" lon="11.1700766"><ele>248.7142857142857</ele><time>2026-05-02T09:44:29.569Z</time></trkpt><trkpt lat="43.3827015" lon="11.1701442"><ele>248.85714285714283</ele><time>2026-05-02T09:44:31.488Z</time></trkpt><trkpt lat="43.3826439" lon="11.1702077"><ele>249.0</ele><time>2026-05-02T09:44:33.508Z</time></trkpt><trkpt lat="43.382563" lon="11.1702589"><ele>249.0</ele><time>2026-05-02T09:44:35.497Z</time></trkpt><trkpt lat="43.3824863" lon="11.1703199"><ele>249.0</ele><time>2026-05-02T09:44:37.493Z</time></trkpt><trkpt lat="43.3824196" lon="11.1703753"><ele>249.0</ele><time>2026-05-02T09:44:39.497Z</time></trkpt><trkpt lat="43.3823506" lon="11.1704306"><ele>249.0</ele><time>2026-05-02T09:44:41.49Z</time></trkpt><trkpt lat="43.3822752" lon="11.1704909"><ele>249.0</ele><time>2026-05-02T09:44:43.504Z</time></trkpt><trkpt lat="43.3821969" lon="11.1705416"><ele>249.0</ele><time>2026-05-02T09:44:45.546Z</time></trkpt><trkpt lat="43.3821262" lon="11.1705931"><ele>249.14285714285714</ele><time>2026-05-02T09:44:47.485Z</time></trkpt><trkpt lat="43.3820589" lon="11.1706418"><ele>249.28571428571428</ele><time>2026-05-02T09:44:49.495Z</time></trkpt><trkpt lat="43.3819995" lon="11.170694"><ele>249.42857142857142</ele><time>2026-05-02T09:44:51.57Z</time></trkpt><trkpt lat="43.3819413" lon="11.1707333"><ele>249.57142857142856</ele><time>2026-05-02T09:44:53.492Z</time></trkpt><trkpt lat="43.3818681" lon="11.1707622"><ele>249.71428571428572</ele><time>2026-05-02T09:44:55.483Z</time></trkpt><trkpt lat="43.3817923" lon="11.1707975"><ele>249.85714285714283</ele><time>2026-05-02T09:44:57.534Z</time></trkpt><trkpt lat="43.3817237" lon="11.1708261"><ele>250.0</ele><time>2026-05-02T09:44:59.486Z</time></trkpt><trkpt lat="43.3816596" lon="11.1708635"><ele>250.57142857142856</ele><time>2026-05-02T09:45:01.561Z</time></trkpt><trkpt lat="43.3815965" lon="11.1708771"><ele>251.14285714285717</ele><time>2026-05-02T09:45:03.486Z</time></trkpt><trkpt lat="43.3815129" lon="11.1708867"><ele>251.71428571428572</ele><time>2026-05-02T09:45:06.488Z</time></trkpt><trkpt lat="43.3814469" lon="11.1708988"><ele>252.28571428571428</ele><time>2026-05-02T09:45:08.488Z</time></trkpt><trkpt lat="43.3813838" lon="11.1709081"><ele>252.85714285714283</ele><time>2026-05-02T09:45:10.492Z</time></trkpt><trkpt lat="43.3813075" lon="11.1709564"><ele>253.42857142857144</ele><time>2026-05-02T09:45:13.483Z</time></trkpt><trkpt lat="43.3812407" lon="11.1710061"><ele>254.0</ele><time>2026-05-02T09:45:16.488Z</time></trkpt><trkpt lat="43.3811728" lon="11.1710331"><ele>254.66666666666669</ele><time>2026-05-02T09:45:19.491Z</time></trkpt><trkpt lat="43.3811008" lon="11.1710712"><ele>255.33333333333334</ele><time>2026-05-02T09:45:22.491Z</time></trkpt><trkpt lat="43.3810261" lon="11.1710933"><ele>256.0</ele><time>2026-05-02T09:45:25.566Z</time></trkpt><trkpt lat="43.3809557" lon="11.1711139"><ele>256.6666666666667</ele><time>2026-05-02T09:45:28.494Z</time></trkpt><trkpt lat="43.3808832" lon="11.1711389"><ele>257.3333333333333</ele><time>2026-05-02T09:45:31.567Z</time></trkpt><trkpt lat="43.3807882" lon="11.1711264"><ele>258.0</ele><time>2026-05-02T09:45:33.491Z</time></trkpt><trkpt lat="43.380711" lon="11.171122"><ele>257.99999999999994</ele><time>2026-05-02T09:45:37.473Z</time></trkpt><trkpt lat="43.3806436" lon="11.1711841"><ele>258.0</ele><time>2026-05-02T09:45:41.487Z</time></trkpt><trkpt lat="43.3805781" lon="11.1712186"><ele>258.0</ele><time>2026-05-02T09:45:45.496Z</time></trkpt><trkpt lat="43.3805235" lon="11.1712783"><ele>258.0</ele><time>2026-05-02T09:45:49.503Z</time></trkpt><trkpt lat="43.3804636" lon="11.1713499"><ele>258.0</ele><time>2026-05-02T09:45:53.522Z</time></trkpt><trkpt lat="43.3804212" lon="11.1714259"><ele>257.99999999999994</ele><time>2026-05-02T09:45:57.491Z</time></trkpt><trkpt lat="43.3803952" lon="11.1715086"><ele>258.0</ele><time>2026-05-02T09:46:00.482Z</time></trkpt><trkpt lat="43.3803729" lon="11.1715984"><ele>259.2857142857143</ele><time>2026-05-02T09:46:03.489Z</time></trkpt><trkpt lat="43.3803509" lon="11.1716998"><ele>260.57142857142856</ele><time>2026-05-02T09:46:06.58Z</time></trkpt><trkpt lat="43.3803258" lon="11.1717921"><ele>261.8571428571429</ele><time>2026-05-02T09:46:09.494Z</time></trkpt><trkpt lat="43.3802927" lon="11.171871"><ele>263.1428571428571</ele><time>2026-05-02T09:46:13.505Z</time></trkpt><trkpt lat="43.3802542" lon="11.1719795"><ele>264.42857142857144</ele><time>2026-05-02T09:46:16.476Z</time></trkpt><trkpt lat="43.3802189" lon="11.1720728"><ele>265.7142857142857</ele><time>2026-05-02T09:46:19.474Z</time></trkpt><trkpt lat="43.3801925" lon="11.1721613"><ele>267.0</ele><time>2026-05-02T09:46:22.471Z</time></trkpt><trkpt lat="43.3801596" lon="11.1722581"><ele>267.1666666666667</ele><time>2026-05-02T09:46:25.565Z</time></trkpt><trkpt lat="43.3801197" lon="11.1723764"><ele>267.3333333333333</ele><time>2026-05-02T09:46:28.475Z</time></trkpt><trkpt lat="43.3800894" lon="11.1724575"><ele>267.5</ele><time>2026-05-02T09:46:30.576Z</time></trkpt><trkpt lat="43.3800322" lon="11.1725581"><ele>267.66666666666663</ele><time>2026-05-02T09:46:33.468Z</time></trkpt><trkpt lat="43.3799779" lon="11.1726472"><ele>267.8333333333333</ele><time>2026-05-02T09:46:36.473Z</time></trkpt><trkpt lat="43.3798961" lon="11.1727237"><ele>268.0</ele><time>2026-05-02T09:46:39.498Z</time></trkpt><trkpt lat="43.3798155" lon="11.1727899"><ele>268.0</ele><time>2026-05-02T09:46:41.56Z</time></trkpt><trkpt lat="43.3797295" lon="11.1728483"><ele>268.0</ele><time>2026-05-02T09:46:43.499Z</time></trkpt><trkpt lat="43.3796298" lon="11.1728717"><ele>268.0</ele><time>2026-05-02T09:46:45.581Z</time></trkpt><trkpt lat="43.3795614" lon="11.1728214"><ele>268.0</ele><time>2026-05-02T09:46:47.504Z</time></trkpt><trkpt lat="43.3794903" lon="11.1727702"><ele>268.0</ele><time>2026-05-02T09:46:49.471Z</time></trkpt><trkpt lat="43.3794314" lon="11.1727314"><ele>268.0</ele><time>2026-05-02T09:46:51.486Z</time></trkpt><trkpt lat="43.379355" lon="11.1727453"><ele>268.3333333333333</ele><time>2026-05-02T09:46:54.487Z</time></trkpt><trkpt lat="43.3792957" lon="11.172813"><ele>268.66666666666663</ele><time>2026-05-02T09:46:57.489Z</time></trkpt><trkpt lat="43.3792345" lon="11.1728785"><ele>269.0</ele><time>2026-05-02T09:46:59.481Z</time></trkpt><trkpt lat="43.3791613" lon="11.1729461"><ele>269.3333333333333</ele><time>2026-05-02T09:47:01.466Z</time></trkpt><trkpt lat="43.3790989" lon="11.1730247"><ele>269.6666666666667</ele><time>2026-05-02T09:47:03.471Z</time></trkpt><trkpt lat="43.3790466" lon="11.1731139"><ele>270.0</ele><time>2026-05-02T09:47:05.473Z</time></trkpt><trkpt lat="43.3789817" lon="11.1732274"><ele>268.6</ele><time>2026-05-02T09:47:07.472Z</time></trkpt><trkpt lat="43.3789344" lon="11.1733332"><ele>267.2</ele><time>2026-05-02T09:47:09.5Z</time></trkpt><trkpt lat="43.3789215" lon="11.1734483"><ele>265.8</ele><time>2026-05-02T09:47:11.489Z</time></trkpt><trkpt lat="43.3789367" lon="11.1735825"><ele>264.4</ele><time>2026-05-02T09:47:13.497Z</time></trkpt><trkpt lat="43.3789574" lon="11.1737034"><ele>263.0</ele><time>2026-05-02T09:47:15.491Z</time></trkpt><trkpt lat="43.3789797" lon="11.1738207"><ele>263.0</ele><time>2026-05-02T09:47:17.471Z</time></trkpt><trkpt lat="43.3789726" lon="11.1739237"><ele>263.0</ele><time>2026-05-02T09:47:19.499Z</time></trkpt><trkpt lat="43.3789555" lon="11.1740316"><ele>263.0</ele><time>2026-05-02T09:47:21.497Z</time></trkpt><trkpt lat="43.3789605" lon="11.1741756"><ele>263.0</ele><time>2026-05-02T09:47:23.515Z</time></trkpt><trkpt lat="43.3789724" lon="11.1743391"><ele>263.0</ele><time>2026-05-02T09:47:25.495Z</time></trkpt><trkpt lat="43.37897" lon="11.1744322"><ele>263.0</ele><time>2026-05-02T09:47:26.49Z</time></trkpt><trkpt lat="43.3789626" lon="11.1745278"><ele>262.2857142857143</ele><time>2026-05-02T09:47:27.5Z</time></trkpt><trkpt lat="43.3789559" lon="11.1746251"><ele>261.57142857142856</ele><time>2026-05-02T09:47:28.494Z</time></trkpt><trkpt lat="43.3789417" lon="11.174725"><ele>260.85714285714283</ele><time>2026-05-02T09:47:29.483Z</time></trkpt><trkpt lat="43.3789287" lon="11.1748235"><ele>260.1428571428571</ele><time>2026-05-02T09:47:30.495Z</time></trkpt><trkpt lat="43.3789134" lon="11.1749248"><ele>259.42857142857144</ele><time>2026-05-02T09:47:31.491Z</time></trkpt><trkpt lat="43.3789004" lon="11.1750242"><ele>258.71428571428567</ele><time>2026-05-02T09:47:32.495Z</time></trkpt><trkpt lat="43.378887" lon="11.17512"><ele>258.0</ele><time>2026-05-02T09:47:33.506Z</time></trkpt><trkpt lat="43.3788743" lon="11.1752177"><ele>258.1666666666667</ele><time>2026-05-02T09:47:34.497Z</time></trkpt><trkpt lat="43.3788624" lon="11.1753128"><ele>258.3333333333333</ele><time>2026-05-02T09:47:35.47Z</time></trkpt><trkpt lat="43.3788516" lon="11.1754027"><ele>258.5</ele><time>2026-05-02T09:47:36.579Z</time></trkpt><trkpt lat="43.3788265" lon="11.1755862"><ele>258.66666666666663</ele><time>2026-05-02T09:47:38.486Z</time></trkpt><trkpt lat="43.3788178" lon="11.1756762"><ele>258.8333333333333</ele><time>2026-05-02T09:47:39.482Z</time></trkpt><trkpt lat="43.3788248" lon="11.1758224"><ele>259.0</ele><time>2026-05-02T09:47:41.568Z</time></trkpt><trkpt lat="43.3788454" lon="11.1759144"><ele>257.2</ele><time>2026-05-02T09:47:42.472Z</time></trkpt><trkpt lat="43.3788559" lon="11.1760645"><ele>255.39999999999998</ele><time>2026-05-02T09:47:44.474Z</time></trkpt><trkpt lat="43.3788575" lon="11.1762063"><ele>253.6</ele><time>2026-05-02T09:47:46.561Z</time></trkpt><trkpt lat="43.3788922" lon="11.1763158"><ele>251.8</ele><time>2026-05-02T09:47:49.491Z</time></trkpt><trkpt lat="43.3789472" lon="11.1763944"><ele>250.0</ele><time>2026-05-02T09:47:51.555Z</time></trkpt><trkpt lat="43.3790418" lon="11.1764795"><ele>251.4</ele><time>2026-05-02T09:47:53.486Z</time></trkpt><trkpt lat="43.3791268" lon="11.1765728"><ele>252.8</ele><time>2026-05-02T09:47:55.576Z</time></trkpt><trkpt lat="43.3792141" lon="11.1766391"><ele>254.2</ele><time>2026-05-02T09:47:57.466Z</time></trkpt><trkpt lat="43.3792969" lon="11.176726"><ele>255.6</ele><time>2026-05-02T09:47:59.482Z</time></trkpt><trkpt lat="43.3793848" lon="11.1768174"><ele>257.0</ele><time>2026-05-02T09:48:01.49Z</time></trkpt><trkpt lat="43.3794591" lon="11.1769014"><ele>257.0</ele><time>2026-05-02T09:48:03.485Z</time></trkpt><trkpt lat="43.3795417" lon="11.1769819"><ele>257.0</ele><time>2026-05-02T09:48:05.503Z</time></trkpt><trkpt lat="43.3796123" lon="11.1770646"><ele>257.0</ele><time>2026-05-02T09:48:07.495Z</time></trkpt><trkpt lat="43.3796793" lon="11.177154"><ele>257.0</ele><time>2026-05-02T09:48:09.505Z</time></trkpt><trkpt lat="43.3797399" lon="11.177248"><ele>257.0</ele><time>2026-05-02T09:48:11.483Z</time></trkpt><trkpt lat="43.379806" lon="11.1773475"><ele>256.0</ele><time>2026-05-02T09:48:13.5Z</time></trkpt><trkpt lat="43.3798786" lon="11.1774493"><ele>255.0</ele><time>2026-05-02T09:48:15.489Z</time></trkpt><trkpt lat="43.379959" lon="11.1775429"><ele>254.0</ele><time>2026-05-02T09:48:17.467Z</time></trkpt><trkpt lat="43.3800401" lon="11.1776451"><ele>253.0</ele><time>2026-05-02T09:48:19.488Z</time></trkpt><trkpt lat="43.3801132" lon="11.1777411"><ele>252.0</ele><time>2026-05-02T09:48:21.503Z</time></trkpt><trkpt lat="43.3801868" lon="11.1778366"><ele>252.0</ele><time>2026-05-02T09:48:23.482Z</time></trkpt><trkpt lat="43.3802666" lon="11.1779393"><ele>252.0</ele><time>2026-05-02T09:48:25.55Z</time></trkpt><trkpt lat="43.3803428" lon="11.178023"><ele>252.0</ele><time>2026-05-02T09:48:27.498Z</time></trkpt><trkpt lat="43.3804171" lon="11.1781057"><ele>252.0</ele><time>2026-05-02T09:48:29.485Z</time></trkpt><trkpt lat="43.3804847" lon="11.1781906"><ele>252.0</ele><time>2026-05-02T09:48:31.574Z</time></trkpt><trkpt lat="43.3805483" lon="11.1782763"><ele>251.33333333333334</ele><time>2026-05-02T09:48:33.499Z</time></trkpt><trkpt lat="43.3806149" lon="11.1783505"><ele>250.66666666666669</ele><time>2026-05-02T09:48:35.477Z</time></trkpt><trkpt lat="43.3806857" lon="11.1784321"><ele>250.0</ele><time>2026-05-02T09:48:37.502Z</time></trkpt><trkpt lat="43.3807486" lon="11.1785054"><ele>249.33333333333334</ele><time>2026-05-02T09:48:39.496Z</time></trkpt><trkpt lat="43.3808158" lon="11.1785795"><ele>248.66666666666669</ele><time>2026-05-02T09:48:41.493Z</time></trkpt><trkpt lat="43.3808798" lon="11.1786572"><ele>248.0</ele><time>2026-05-02T09:48:43.488Z</time></trkpt><trkpt lat="43.3809506" lon="11.178723"><ele>248.0</ele><time>2026-05-02T09:48:45.563Z</time></trkpt><trkpt lat="43.3810252" lon="11.178784"><ele>248.0</ele><time>2026-05-02T09:48:47.494Z</time></trkpt><trkpt lat="43.3811082" lon="11.1788351"><ele>248.0</ele><time>2026-05-02T09:48:49.5Z</time></trkpt><trkpt lat="43.3811887" lon="11.1789164"><ele>248.0</ele><time>2026-05-02T09:48:51.576Z</time></trkpt><trkpt lat="43.3812781" lon="11.1789991"><ele>248.0</ele><time>2026-05-02T09:48:53.497Z</time></trkpt><trkpt lat="43.3813631" lon="11.1790825"><ele>247.4</ele><time>2026-05-02T09:48:55.539Z</time></trkpt><trkpt lat="43.3814487" lon="11.1791751"><ele>246.8</ele><time>2026-05-02T09:48:57.498Z</time></trkpt><trkpt lat="43.3815367" lon="11.1792631"><ele>246.2</ele><time>2026-05-02T09:48:59.491Z</time></trkpt><trkpt lat="43.3816231" lon="11.1793466"><ele>245.6</ele><time>2026-05-02T09:49:01.501Z</time></trkpt><trkpt lat="43.381706" lon="11.1794316"><ele>245.0</ele><time>2026-05-02T09:49:03.505Z</time></trkpt><trkpt lat="43.381789" lon="11.1795206"><ele>245.0</ele><time>2026-05-02T09:49:05.558Z</time></trkpt><trkpt lat="43.3818785" lon="11.179601"><ele>245.0</ele><time>2026-05-02T09:49:07.504Z</time></trkpt><trkpt lat="43.3819718" lon="11.1796826"><ele>245.0</ele><time>2026-05-02T09:49:09.491Z</time></trkpt><trkpt lat="43.3820734" lon="11.1797855"><ele>245.0</ele><time>2026-05-02T09:49:11.486Z</time></trkpt><trkpt lat="43.3821248" lon="11.1798469"><ele>245.0</ele><time>2026-05-02T09:49:12.502Z</time></trkpt><trkpt lat="43.3821778" lon="11.1799102"><ele>244.33333333333334</ele><time>2026-05-02T09:49:13.488Z</time></trkpt><trkpt lat="43.3822288" lon="11.1799757"><ele>243.66666666666669</ele><time>2026-05-02T09:49:14.49Z</time></trkpt><trkpt lat="43.3822737" lon="11.1800497"><ele>243.0</ele><time>2026-05-02T09:49:15.504Z</time></trkpt><trkpt lat="43.3823162" lon="11.1801312"><ele>242.33333333333331</ele><time>2026-05-02T09:49:16.504Z</time></trkpt><trkpt lat="43.3823634" lon="11.1802191"><ele>241.66666666666666</ele><time>2026-05-02T09:49:17.486Z</time></trkpt><trkpt lat="43.3824139" lon="11.1803037"><ele>241.0</ele><time>2026-05-02T09:49:18.491Z</time></trkpt><trkpt lat="43.3824627" lon="11.1803898"><ele>240.99999999999997</ele><time>2026-05-02T09:49:19.502Z</time></trkpt><trkpt lat="43.3825078" lon="11.1804781"><ele>241.0</ele><time>2026-05-02T09:49:20.561Z</time></trkpt><trkpt lat="43.3825591" lon="11.1805681"><ele>241.0</ele><time>2026-05-02T09:49:21.554Z</time></trkpt><trkpt lat="43.3826121" lon="11.1806568"><ele>241.0</ele><time>2026-05-02T09:49:22.495Z</time></trkpt><trkpt lat="43.3826656" lon="11.1807459"><ele>240.99999999999997</ele><time>2026-05-02T09:49:23.493Z</time></trkpt><trkpt lat="43.3827181" lon="11.1808349"><ele>241.0</ele><time>2026-05-02T09:49:24.488Z</time></trkpt><trkpt lat="43.3827702" lon="11.1809246"><ele>241.16666666666666</ele><time>2026-05-02T09:49:25.57Z</time></trkpt><trkpt lat="43.3828198" lon="11.1810097"><ele>241.33333333333331</ele><time>2026-05-02T09:49:26.564Z</time></trkpt><trkpt lat="43.3828685" lon="11.1810947"><ele>241.5</ele><time>2026-05-02T09:49:27.537Z</time></trkpt><trkpt lat="43.3829168" lon="11.1811814"><ele>241.66666666666669</ele><time>2026-05-02T09:49:28.49Z</time></trkpt><trkpt lat="43.3829652" lon="11.1812713"><ele>241.83333333333334</ele><time>2026-05-02T09:49:29.497Z</time></trkpt><trkpt lat="43.3830092" lon="11.1813635"><ele>242.0</ele><time>2026-05-02T09:49:30.564Z</time></trkpt><trkpt lat="43.383051" lon="11.181447"><ele>241.00000000000003</ele><time>2026-05-02T09:49:31.561Z</time></trkpt><trkpt lat="43.383085" lon="11.1815334"><ele>240.0</ele><time>2026-05-02T09:49:32.486Z</time></trkpt><trkpt lat="43.3831151" lon="11.181631"><ele>239.0</ele><time>2026-05-02T09:49:33.488Z</time></trkpt><trkpt lat="43.3831362" lon="11.181734"><ele>238.0</ele><time>2026-05-02T09:49:34.498Z</time></trkpt><trkpt lat="43.3831517" lon="11.1818385"><ele>237.00000000000003</ele><time>2026-05-02T09:49:35.577Z</time></trkpt><trkpt lat="43.3831653" lon="11.1819421"><ele>236.0</ele><time>2026-05-02T09:49:36.563Z</time></trkpt><trkpt lat="43.3831753" lon="11.1820499"><ele>236.0</ele><time>2026-05-02T09:49:37.498Z</time></trkpt><trkpt lat="43.3831864" lon="11.1821628"><ele>236.0</ele><time>2026-05-02T09:49:38.5Z</time></trkpt><trkpt lat="43.3831967" lon="11.1822699"><ele>236.0</ele><time>2026-05-02T09:49:39.486Z</time></trkpt><trkpt lat="43.3832084" lon="11.1823734"><ele>236.0</ele><time>2026-05-02T09:49:40.556Z</time></trkpt><trkpt lat="43.3832206" lon="11.1824724"><ele>236.0</ele><time>2026-05-02T09:49:41.57Z</time></trkpt><trkpt lat="43.3832283" lon="11.1825611"><ele>236.0</ele><time>2026-05-02T09:49:42.486Z</time></trkpt><trkpt lat="43.3832442" lon="11.1826517"><ele>236.0</ele><time>2026-05-02T09:49:43.493Z</time></trkpt><trkpt lat="43.3832628" lon="11.1827401"><ele>236.33333333333334</ele><time>2026-05-02T09:49:44.491Z</time></trkpt><trkpt lat="43.3832826" lon="11.1828246"><ele>236.66666666666669</ele><time>2026-05-02T09:49:45.499Z</time></trkpt><trkpt lat="43.3833004" lon="11.1829145"><ele>237.0</ele><time>2026-05-02T09:49:46.501Z</time></trkpt><trkpt lat="43.3833374" lon="11.1830626"><ele>237.33333333333331</ele><time>2026-05-02T09:49:48.485Z</time></trkpt><trkpt lat="43.383365" lon="11.1831412"><ele>237.66666666666666</ele><time>2026-05-02T09:49:49.493Z</time></trkpt><trkpt lat="43.3833955" lon="11.1832197"><ele>238.0</ele><time>2026-05-02T09:49:50.504Z</time></trkpt><trkpt lat="43.3834574" lon="11.1833501"><ele>238.0</ele><time>2026-05-02T09:49:52.496Z</time></trkpt><trkpt lat="43.3835204" lon="11.1834681"><ele>238.0</ele><time>2026-05-02T09:49:54.492Z</time></trkpt><trkpt lat="43.383582" lon="11.1835807"><ele>238.0</ele><time>2026-05-02T09:49:56.557Z</time></trkpt><trkpt lat="43.3836393" lon="11.1837015"><ele>238.0</ele><time>2026-05-02T09:49:58.507Z</time></trkpt><trkpt lat="43.3836974" lon="11.1838116"><ele>238.0</ele><time>2026-05-02T09:50:00.497Z</time></trkpt><trkpt lat="43.3837701" lon="11.1839249"><ele>238.0</ele><time>2026-05-02T09:50:02.495Z</time></trkpt><trkpt lat="43.3838178" lon="11.1839886"><ele>238.0</ele><time>2026-05-02T09:50:03.501Z</time></trkpt><trkpt lat="43.3838792" lon="11.1840954"><ele>238.0</ele><time>2026-05-02T09:50:05.572Z</time></trkpt><trkpt lat="43.3839405" lon="11.1842433"><ele>238.0</ele><time>2026-05-02T09:50:07.479Z</time></trkpt><trkpt lat="43.3840124" lon="11.1843749"><ele>238.0</ele><time>2026-05-02T09:50:09.494Z</time></trkpt><trkpt lat="43.3840782" lon="11.1844996"><ele>237.0</ele><time>2026-05-02T09:50:11.561Z</time></trkpt><trkpt lat="43.3841472" lon="11.1846356"><ele>236.0</ele><time>2026-05-02T09:50:13.492Z</time></trkpt><trkpt lat="43.3842127" lon="11.1847583"><ele>235.0</ele><time>2026-05-02T09:50:15.473Z</time></trkpt><trkpt lat="43.3843208" lon="11.1849423"><ele>234.0</ele><time>2026-05-02T09:50:18.486Z</time></trkpt><trkpt lat="43.3843971" lon="11.185074"><ele>234.0</ele><time>2026-05-02T09:50:20.494Z</time></trkpt><trkpt lat="43.3844516" lon="11.185191"><ele>233.99999999999997</ele><time>2026-05-02T09:50:22.49Z</time></trkpt><trkpt lat="43.384507" lon="11.1852877"><ele>233.99999999999997</ele><time>2026-05-02T09:50:24.497Z</time></trkpt><trkpt lat="43.3845634" lon="11.1853862"><ele>234.0</ele><time>2026-05-02T09:50:26.501Z</time></trkpt><trkpt lat="43.3846173" lon="11.1854847"><ele>234.0</ele><time>2026-05-02T09:50:28.486Z</time></trkpt><trkpt lat="43.3846733" lon="11.1855909"><ele>234.0</ele><time>2026-05-02T09:50:30.574Z</time></trkpt><trkpt lat="43.3847331" lon="11.1856925"><ele>233.99999999999997</ele><time>2026-05-02T09:50:32.495Z</time></trkpt><trkpt lat="43.3847917" lon="11.1857957"><ele>233.99999999999997</ele><time>2026-05-02T09:50:34.495Z</time></trkpt><trkpt lat="43.3848525" lon="11.1858986"><ele>234.0</ele><time>2026-05-02T09:50:36.492Z</time></trkpt><trkpt lat="43.3849094" lon="11.1860009"><ele>234.0</ele><time>2026-05-02T09:50:38.486Z</time></trkpt><trkpt lat="43.3849693" lon="11.1861053"><ele>234.0</ele><time>2026-05-02T09:50:40.549Z</time></trkpt><trkpt lat="43.3850331" lon="11.1862055"><ele>233.99999999999997</ele><time>2026-05-02T09:50:42.472Z</time></trkpt><trkpt lat="43.3850963" lon="11.1863015"><ele>233.99999999999997</ele><time>2026-05-02T09:50:44.501Z</time></trkpt><trkpt lat="43.3851576" lon="11.1864018"><ele>234.0</ele><time>2026-05-02T09:50:46.561Z</time></trkpt><trkpt lat="43.3852083" lon="11.1865194"><ele>234.0</ele><time>2026-05-02T09:50:48.497Z</time></trkpt><trkpt lat="43.3852608" lon="11.1866633"><ele>234.0</ele><time>2026-05-02T09:50:50.562Z</time></trkpt><trkpt lat="43.3853064" lon="11.186791"><ele>233.99999999999997</ele><time>2026-05-02T09:50:52.473Z</time></trkpt><trkpt lat="43.3853498" lon="11.1869486"><ele>233.99999999999997</ele><time>2026-05-02T09:50:54.474Z</time></trkpt><trkpt lat="43.3853674" lon="11.1870494"><ele>234.0</ele><time>2026-05-02T09:50:55.493Z</time></trkpt><trkpt lat="43.3853823" lon="11.1871582"><ele>234.0</ele><time>2026-05-02T09:50:56.488Z</time></trkpt><trkpt lat="43.385395" lon="11.1872678"><ele>233.83333333333334</ele><time>2026-05-02T09:50:57.492Z</time></trkpt><trkpt lat="43.3854087" lon="11.187375"><ele>233.66666666666669</ele><time>2026-05-02T09:50:58.502Z</time></trkpt><trkpt lat="43.3854237" lon="11.1874808"><ele>233.5</ele><time>2026-05-02T09:50:59.484Z</time></trkpt><trkpt lat="43.3854422" lon="11.1875879"><ele>233.33333333333334</ele><time>2026-05-02T09:51:00.47Z</time></trkpt><trkpt lat="43.3854619" lon="11.1876938"><ele>233.16666666666669</ele><time>2026-05-02T09:51:01.489Z</time></trkpt><trkpt lat="43.3854812" lon="11.1877962"><ele>233.0</ele><time>2026-05-02T09:51:02.487Z</time></trkpt><trkpt lat="43.3855009" lon="11.1878974"><ele>232.16666666666669</ele><time>2026-05-02T09:51:03.489Z</time></trkpt><trkpt lat="43.385516" lon="11.1879964"><ele>231.33333333333334</ele><time>2026-05-02T09:51:04.567Z</time></trkpt><trkpt lat="43.3855268" lon="11.1880875"><ele>230.5</ele><time>2026-05-02T09:51:05.561Z</time></trkpt><trkpt lat="43.3855365" lon="11.1881828"><ele>229.66666666666669</ele><time>2026-05-02T09:51:06.559Z</time></trkpt><trkpt lat="43.3855442" lon="11.1882743"><ele>228.83333333333334</ele><time>2026-05-02T09:51:07.495Z</time></trkpt><trkpt lat="43.3855782" lon="11.1884282"><ele>228.0</ele><time>2026-05-02T09:51:09.499Z</time></trkpt><trkpt lat="43.3855987" lon="11.1885681"><ele>228.0</ele><time>2026-05-02T09:51:11.497Z</time></trkpt><trkpt lat="43.3856138" lon="11.1887059"><ele>228.0</ele><time>2026-05-02T09:51:13.49Z</time></trkpt><trkpt lat="43.385623" lon="11.1888419"><ele>228.0</ele><time>2026-05-02T09:51:15.553Z</time></trkpt><trkpt lat="43.3856467" lon="11.1889798"><ele>228.0</ele><time>2026-05-02T09:51:17.495Z</time></trkpt><trkpt lat="43.3856771" lon="11.1890764"><ele>228.0</ele><time>2026-05-02T09:51:19.494Z</time></trkpt><trkpt lat="43.3856481" lon="11.189224"><ele>228.4</ele><time>2026-05-02T09:51:21.546Z</time></trkpt><trkpt lat="43.3856201" lon="11.189342"><ele>228.8</ele><time>2026-05-02T09:51:22.469Z</time></trkpt><trkpt lat="43.3856031" lon="11.1894676"><ele>229.2</ele><time>2026-05-02T09:51:23.486Z</time></trkpt><trkpt lat="43.3856219" lon="11.1895773"><ele>229.6</ele><time>2026-05-02T09:51:25.562Z</time></trkpt><trkpt lat="43.385649" lon="11.1896786"><ele>230.0</ele><time>2026-05-02T09:51:27.499Z</time></trkpt><trkpt lat="43.3856798" lon="11.1898401"><ele>229.50000000000003</ele><time>2026-05-02T09:51:29.508Z</time></trkpt><trkpt lat="43.3856957" lon="11.1899335"><ele>229.0</ele><time>2026-05-02T09:51:30.496Z</time></trkpt><trkpt lat="43.3857175" lon="11.1900274"><ele>228.5</ele><time>2026-05-02T09:51:31.508Z</time></trkpt><trkpt lat="43.3857437" lon="11.1901238"><ele>228.0</ele><time>2026-05-02T09:51:32.49Z</time></trkpt><trkpt lat="43.3857723" lon="11.1902147"><ele>227.50000000000003</ele><time>2026-05-02T09:51:33.495Z</time></trkpt><trkpt lat="43.3857994" lon="11.1902974"><ele>227.0</ele><time>2026-05-02T09:51:34.489Z</time></trkpt><trkpt lat="43.3858194" lon="11.19044"><ele>227.0</ele><time>2026-05-02T09:51:36.478Z</time></trkpt><trkpt lat="43.3857977" lon="11.1905963"><ele>227.0</ele><time>2026-05-02T09:51:38.479Z</time></trkpt><trkpt lat="43.385755" lon="11.1907513"><ele>227.0</ele><time>2026-05-02T09:51:40.546Z</time></trkpt><trkpt lat="43.3857267" lon="11.1909077"><ele>227.0</ele><time>2026-05-02T09:51:42.481Z</time></trkpt><trkpt lat="43.3857071" lon="11.1910581"><ele>226.50000000000003</ele><time>2026-05-02T09:51:44.503Z</time></trkpt><trkpt lat="43.3856992" lon="11.1912106"><ele>226.0</ele><time>2026-05-02T09:51:46.556Z</time></trkpt><trkpt lat="43.3857083" lon="11.1913553"><ele>225.5</ele><time>2026-05-02T09:51:48.488Z</time></trkpt><trkpt lat="43.3857199" lon="11.1914595"><ele>225.0</ele><time>2026-05-02T09:51:50.494Z</time></trkpt><trkpt lat="43.3856729" lon="11.1915361"><ele>224.50000000000003</ele><time>2026-05-02T09:52:02.484Z</time></trkpt><trkpt lat="43.3856958" lon="11.1916312"><ele>224.0</ele><time>2026-05-02T09:52:26.48Z</time></trkpt><trkpt lat="43.3857402" lon="11.1917355"><ele>224.00000000000003</ele><time>2026-05-02T09:52:28.494Z</time></trkpt><trkpt lat="43.3857922" lon="11.1918008"><ele>224.0</ele><time>2026-05-02T09:52:29.464Z</time></trkpt><trkpt lat="43.385841" lon="11.191936"><ele>224.0</ele><time>2026-05-02T09:52:31.482Z</time></trkpt><trkpt lat="43.3858821" lon="11.1920329"><ele>224.0</ele><time>2026-05-02T09:52:33.499Z</time></trkpt><trkpt lat="43.385915" lon="11.1921173"><ele>224.00000000000003</ele><time>2026-05-02T09:52:35.573Z</time></trkpt><trkpt lat="43.3859306" lon="11.1922129"><ele>224.0</ele><time>2026-05-02T09:52:37.482Z</time></trkpt><trkpt lat="43.3859525" lon="11.1923091"><ele>224.0</ele><time>2026-05-02T09:52:39.491Z</time></trkpt><trkpt lat="43.3859786" lon="11.1924149"><ele>223.99999999999997</ele><time>2026-05-02T09:52:42.492Z</time></trkpt><trkpt lat="43.3860467" lon="11.1924959"><ele>223.99999999999997</ele><time>2026-05-02T09:52:45.491Z</time></trkpt><trkpt lat="43.3861116" lon="11.1925582"><ele>224.0</ele><time>2026-05-02T09:52:47.502Z</time></trkpt><trkpt lat="43.3861962" lon="11.192651"><ele>224.0</ele><time>2026-05-02T09:52:49.502Z</time></trkpt><trkpt lat="43.386279" lon="11.192768"><ele>224.0</ele><time>2026-05-02T09:52:51.489Z</time></trkpt><trkpt lat="43.3863424" lon="11.1928975"><ele>224.0</ele><time>2026-05-02T09:52:53.495Z</time></trkpt><trkpt lat="43.3863909" lon="11.1930483"><ele>224.0</ele><time>2026-05-02T09:52:55.569Z</time></trkpt><trkpt lat="43.38644" lon="11.1931891"><ele>224.0</ele><time>2026-05-02T09:52:57.49Z</time></trkpt><trkpt lat="43.3865129" lon="11.1933175"><ele>221.50000000000003</ele><time>2026-05-02T09:52:59.497Z</time></trkpt><trkpt lat="43.386561" lon="11.1933811"><ele>219.0</ele><time>2026-05-02T09:53:00.499Z</time></trkpt><trkpt lat="43.3866163" lon="11.1934462"><ele>216.5</ele><time>2026-05-02T09:53:01.567Z</time></trkpt><trkpt lat="43.3866757" lon="11.1935067"><ele>214.0</ele><time>2026-05-02T09:53:02.473Z</time></trkpt><trkpt lat="43.3867361" lon="11.1935682"><ele>211.50000000000003</ele><time>2026-05-02T09:53:03.494Z</time></trkpt><trkpt lat="43.3868019" lon="11.1936403"><ele>209.0</ele><time>2026-05-02T09:53:04.491Z</time></trkpt><trkpt lat="43.386866" lon="11.1937151"><ele>209.00000000000003</ele><time>2026-05-02T09:53:05.554Z</time></trkpt><trkpt lat="43.386934" lon="11.1937909"><ele>209.0</ele><time>2026-05-02T09:53:06.564Z</time></trkpt><trkpt lat="43.3870026" lon="11.1938594"><ele>209.0</ele><time>2026-05-02T09:53:07.501Z</time></trkpt><trkpt lat="43.387071" lon="11.1939374"><ele>209.0</ele><time>2026-05-02T09:53:08.5Z</time></trkpt><trkpt lat="43.387132" lon="11.1940193"><ele>209.00000000000003</ele><time>2026-05-02T09:53:09.483Z</time></trkpt><trkpt lat="43.3871976" lon="11.1940821"><ele>209.0</ele><time>2026-05-02T09:53:10.559Z</time></trkpt><trkpt lat="43.3872621" lon="11.1941483"><ele>208.50000000000003</ele><time>2026-05-02T09:53:11.57Z</time></trkpt><trkpt lat="43.3873593" lon="11.1941899"><ele>208.0</ele><time>2026-05-02T09:53:12.497Z</time></trkpt><trkpt lat="43.3874446" lon="11.1942099"><ele>207.5</ele><time>2026-05-02T09:53:13.499Z</time></trkpt><trkpt lat="43.3875092" lon="11.1942351"><ele>207.0</ele><time>2026-05-02T09:53:14.496Z</time></trkpt><trkpt lat="43.3875737" lon="11.1942635"><ele>206.50000000000003</ele><time>2026-05-02T09:53:15.506Z</time></trkpt><trkpt lat="43.3876564" lon="11.1943377"><ele>206.0</ele><time>2026-05-02T09:53:17.489Z</time></trkpt><trkpt lat="43.387744" lon="11.1944136"><ele>206.0</ele><time>2026-05-02T09:53:19.487Z</time></trkpt><trkpt lat="43.3878332" lon="11.194506"><ele>206.0</ele><time>2026-05-02T09:53:21.495Z</time></trkpt><trkpt lat="43.3879181" lon="11.1946185"><ele>206.0</ele><time>2026-05-02T09:53:23.488Z</time></trkpt><trkpt lat="43.3879997" lon="11.1947248"><ele>206.0</ele><time>2026-05-02T09:53:25.483Z</time></trkpt><trkpt lat="43.3880718" lon="11.1948369"><ele>205.0</ele><time>2026-05-02T09:53:27.489Z</time></trkpt><trkpt lat="43.3881493" lon="11.1949559"><ele>204.0</ele><time>2026-05-02T09:53:29.484Z</time></trkpt><trkpt lat="43.3882326" lon="11.1950726"><ele>203.0</ele><time>2026-05-02T09:53:31.569Z</time></trkpt><trkpt lat="43.3883097" lon="11.1951694"><ele>202.0</ele><time>2026-05-02T09:53:33.487Z</time></trkpt><trkpt lat="43.3883798" lon="11.1952515"><ele>201.0</ele><time>2026-05-02T09:53:35.56Z</time></trkpt><trkpt lat="43.3884156" lon="11.1953425"><ele>201.0</ele><time>2026-05-02T09:53:37.497Z</time></trkpt><trkpt lat="43.3884481" lon="11.195419"><ele>201.0</ele><time>2026-05-02T09:53:41.49Z</time></trkpt><trkpt lat="43.3885034" lon="11.195483"><ele>201.0</ele><time>2026-05-02T09:53:44.489Z</time></trkpt><trkpt lat="43.3885554" lon="11.1955531"><ele>201.0</ele><time>2026-05-02T09:53:46.549Z</time></trkpt><trkpt lat="43.3886031" lon="11.1956232"><ele>201.0</ele><time>2026-05-02T09:53:48.483Z</time></trkpt><trkpt lat="43.3886642" lon="11.1957258"><ele>201.0</ele><time>2026-05-02T09:53:50.567Z</time></trkpt><trkpt lat="43.3887252" lon="11.1958256"><ele>200.8</ele><time>2026-05-02T09:53:52.487Z</time></trkpt><trkpt lat="43.3887765" lon="11.1959266"><ele>200.60000000000002</ele><time>2026-05-02T09:53:54.498Z</time></trkpt><trkpt lat="43.3888335" lon="11.1960356"><ele>200.4</ele><time>2026-05-02T09:53:56.515Z</time></trkpt><trkpt lat="43.3888898" lon="11.1961337"><ele>200.2</ele><time>2026-05-02T09:53:58.491Z</time></trkpt><trkpt lat="43.3889384" lon="11.1962329"><ele>200.0</ele><time>2026-05-02T09:54:00.47Z</time></trkpt><trkpt lat="43.3889838" lon="11.1963376"><ele>200.00000000000003</ele><time>2026-05-02T09:54:02.471Z</time></trkpt><trkpt lat="43.3890233" lon="11.1964486"><ele>200.0</ele><time>2026-05-02T09:54:04.561Z</time></trkpt><trkpt lat="43.3890557" lon="11.1965612"><ele>200.0</ele><time>2026-05-02T09:54:06.477Z</time></trkpt><trkpt lat="43.3890938" lon="11.1966589"><ele>200.0</ele><time>2026-05-02T09:54:08.503Z</time></trkpt><trkpt lat="43.3891059" lon="11.1967558"><ele>200.00000000000003</ele><time>2026-05-02T09:54:10.561Z</time></trkpt><trkpt lat="43.3891193" lon="11.1968855"><ele>200.0</ele><time>2026-05-02T09:54:12.497Z</time></trkpt><trkpt lat="43.3891022" lon="11.1969713"><ele>199.83333333333334</ele><time>2026-05-02T09:54:14.489Z</time></trkpt><trkpt lat="43.3890825" lon="11.1970704"><ele>199.66666666666669</ele><time>2026-05-02T09:54:16.574Z</time></trkpt><trkpt lat="43.3890809" lon="11.1971868"><ele>199.5</ele><time>2026-05-02T09:54:18.5Z</time></trkpt><trkpt lat="43.3890666" lon="11.1972991"><ele>199.33333333333331</ele><time>2026-05-02T09:54:20.486Z</time></trkpt><trkpt lat="43.3890582" lon="11.1974006"><ele>199.16666666666666</ele><time>2026-05-02T09:54:22.491Z</time></trkpt><trkpt lat="43.3890383" lon="11.1975087"><ele>199.0</ele><time>2026-05-02T09:54:24.495Z</time></trkpt><trkpt lat="43.3890249" lon="11.1976362"><ele>198.83333333333331</ele><time>2026-05-02T09:54:26.556Z</time></trkpt><trkpt lat="43.3890226" lon="11.1977555"><ele>198.66666666666666</ele><time>2026-05-02T09:54:28.484Z</time></trkpt><trkpt lat="43.3890007" lon="11.1978649"><ele>198.5</ele><time>2026-05-02T09:54:30.488Z</time></trkpt><trkpt lat="43.3889243" lon="11.197935"><ele>198.33333333333331</ele><time>2026-05-02T09:54:32.48Z</time></trkpt><trkpt lat="43.3888611" lon="11.1980226"><ele>198.16666666666666</ele><time>2026-05-02T09:54:34.491Z</time></trkpt><trkpt lat="43.3888062" lon="11.1981109"><ele>198.0</ele><time>2026-05-02T09:54:36.49Z</time></trkpt><trkpt lat="43.3887568" lon="11.1982035"><ele>198.2857142857143</ele><time>2026-05-02T09:54:38.495Z</time></trkpt><trkpt lat="43.3887078" lon="11.198284"><ele>198.57142857142856</ele><time>2026-05-02T09:54:40.555Z</time></trkpt><trkpt lat="43.3886535" lon="11.1983574"><ele>198.85714285714286</ele><time>2026-05-02T09:54:42.492Z</time></trkpt><trkpt lat="43.3886002" lon="11.1984234"><ele>199.14285714285717</ele><time>2026-05-02T09:54:44.471Z</time></trkpt><trkpt lat="43.3885436" lon="11.1984847"><ele>199.42857142857144</ele><time>2026-05-02T09:54:46.558Z</time></trkpt><trkpt lat="43.388478" lon="11.1985394"><ele>199.71428571428572</ele><time>2026-05-02T09:54:48.482Z</time></trkpt><trkpt lat="43.3884086" lon="11.1985833"><ele>200.0</ele><time>2026-05-02T09:54:50.555Z</time></trkpt><trkpt lat="43.3883375" lon="11.1986067"><ele>200.00000000000003</ele><time>2026-05-02T09:54:52.487Z</time></trkpt><trkpt lat="43.3882532" lon="11.1985988"><ele>200.0</ele><time>2026-05-02T09:54:54.501Z</time></trkpt><trkpt lat="43.3881691" lon="11.1986222"><ele>200.0</ele><time>2026-05-02T09:54:56.564Z</time></trkpt><trkpt lat="43.3881076" lon="11.1986714"><ele>200.0</ele><time>2026-05-02T09:54:58.492Z</time></trkpt><trkpt lat="43.3880404" lon="11.198737"><ele>200.00000000000003</ele><time>2026-05-02T09:55:01.571Z</time></trkpt><trkpt lat="43.3879958" lon="11.1988002"><ele>200.0</ele><time>2026-05-02T09:55:03.489Z</time></trkpt><trkpt lat="43.3879608" lon="11.1988775"><ele>200.00000000000003</ele><time>2026-05-02T09:55:05.496Z</time></trkpt><trkpt lat="43.387924" lon="11.1989617"><ele>200.0</ele><time>2026-05-02T09:55:07.501Z</time></trkpt><trkpt lat="43.3878692" lon="11.1990385"><ele>200.0</ele><time>2026-05-02T09:55:09.488Z</time></trkpt><trkpt lat="43.3878132" lon="11.1991161"><ele>200.0</ele><time>2026-05-02T09:55:11.49Z</time></trkpt><trkpt lat="43.3877661" lon="11.199193"><ele>200.0</ele><time>2026-05-02T09:55:13.495Z</time></trkpt><trkpt lat="43.3877269" lon="11.199283"><ele>200.00000000000003</ele><time>2026-05-02T09:55:15.477Z</time></trkpt><trkpt lat="43.3876799" lon="11.199355"><ele>200.0</ele><time>2026-05-02T09:55:17.497Z</time></trkpt><trkpt lat="43.3876197" lon="11.1994209"><ele>200.2</ele><time>2026-05-02T09:55:19.498Z</time></trkpt><trkpt lat="43.3875602" lon="11.1994936"><ele>200.4</ele><time>2026-05-02T09:55:21.57Z</time></trkpt><trkpt lat="43.3874935" lon="11.1995872"><ele>200.60000000000002</ele><time>2026-05-02T09:55:23.5Z</time></trkpt><trkpt lat="43.3874518" lon="11.1996957"><ele>200.8</ele><time>2026-05-02T09:55:25.568Z</time></trkpt><trkpt lat="43.3874013" lon="11.1997979"><ele>201.0</ele><time>2026-05-02T09:55:27.493Z</time></trkpt><trkpt lat="43.3873446" lon="11.1999183"><ele>200.60000000000002</ele><time>2026-05-02T09:55:29.484Z</time></trkpt><trkpt lat="43.3872856" lon="11.2000376"><ele>200.2</ele><time>2026-05-02T09:55:31.572Z</time></trkpt><trkpt lat="43.3872364" lon="11.2001425"><ele>199.8</ele><time>2026-05-02T09:55:33.493Z</time></trkpt><trkpt lat="43.3871906" lon="11.2002696"><ele>199.39999999999998</ele><time>2026-05-02T09:55:35.574Z</time></trkpt><trkpt lat="43.3871195" lon="11.2003865"><ele>199.0</ele><time>2026-05-02T09:55:37.491Z</time></trkpt><trkpt lat="43.3870494" lon="11.2005181"><ele>198.83333333333331</ele><time>2026-05-02T09:55:39.504Z</time></trkpt><trkpt lat="43.3869763" lon="11.200651"><ele>198.66666666666666</ele><time>2026-05-02T09:55:41.492Z</time></trkpt><trkpt lat="43.3869382" lon="11.2007243"><ele>198.5</ele><time>2026-05-02T09:55:42.493Z</time></trkpt><trkpt lat="43.3868997" lon="11.2007959"><ele>198.33333333333331</ele><time>2026-05-02T09:55:43.511Z</time></trkpt><trkpt lat="43.3868193" lon="11.2009311"><ele>198.16666666666666</ele><time>2026-05-02T09:55:45.503Z</time></trkpt><trkpt lat="43.3867789" lon="11.2010068"><ele>198.0</ele><time>2026-05-02T09:55:46.499Z</time></trkpt><trkpt lat="43.386738" lon="11.2010802"><ele>197.85714285714286</ele><time>2026-05-02T09:55:47.494Z</time></trkpt><trkpt lat="43.3866984" lon="11.2011546"><ele>197.7142857142857</ele><time>2026-05-02T09:55:48.496Z</time></trkpt><trkpt lat="43.3866576" lon="11.2012314"><ele>197.57142857142856</ele><time>2026-05-02T09:55:49.496Z</time></trkpt><trkpt lat="43.386616" lon="11.2013092"><ele>197.42857142857144</ele><time>2026-05-02T09:55:50.501Z</time></trkpt><trkpt lat="43.3865771" lon="11.2013874"><ele>197.28571428571428</ele><time>2026-05-02T09:55:51.484Z</time></trkpt><trkpt lat="43.3865372" lon="11.2014696"><ele>197.14285714285714</ele><time>2026-05-02T09:55:52.515Z</time></trkpt><trkpt lat="43.386496" lon="11.201551"><ele>197.0</ele><time>2026-05-02T09:55:53.513Z</time></trkpt><trkpt lat="43.3864541" lon="11.2016277"><ele>196.8</ele><time>2026-05-02T09:55:54.568Z</time></trkpt><trkpt lat="43.3864155" lon="11.2017004"><ele>196.6</ele><time>2026-05-02T09:55:55.578Z</time></trkpt><trkpt lat="43.3863416" lon="11.2018347"><ele>196.4</ele><time>2026-05-02T09:55:57.502Z</time></trkpt><trkpt lat="43.3862695" lon="11.2019818"><ele>196.20000000000002</ele><time>2026-05-02T09:55:59.491Z</time></trkpt><trkpt lat="43.3862267" lon="11.2020577"><ele>196.0</ele><time>2026-05-02T09:56:00.556Z</time></trkpt><trkpt lat="43.386187" lon="11.2021264"><ele>195.83333333333331</ele><time>2026-05-02T09:56:01.562Z</time></trkpt><trkpt lat="43.386146" lon="11.2021923"><ele>195.66666666666666</ele><time>2026-05-02T09:56:02.488Z</time></trkpt><trkpt lat="43.3861032" lon="11.2022629"><ele>195.5</ele><time>2026-05-02T09:56:03.489Z</time></trkpt><trkpt lat="43.3860665" lon="11.2023343"><ele>195.33333333333331</ele><time>2026-05-02T09:56:04.487Z</time></trkpt><trkpt lat="43.385995" lon="11.2024686"><ele>195.16666666666666</ele><time>2026-05-02T09:56:06.57Z</time></trkpt><trkpt lat="43.3859237" lon="11.2025725"><ele>195.0</ele><time>2026-05-02T09:56:08.5Z</time></trkpt><trkpt lat="43.3858492" lon="11.2026668"><ele>195.0</ele><time>2026-05-02T09:56:10.56Z</time></trkpt><trkpt lat="43.3857973" lon="11.2027775"><ele>195.0</ele><time>2026-05-02T09:56:12.505Z</time></trkpt><trkpt lat="43.3857518" lon="11.202893"><ele>195.0</ele><time>2026-05-02T09:56:14.497Z</time></trkpt><trkpt lat="43.3857021" lon="11.2030093"><ele>195.0</ele><time>2026-05-02T09:56:16.51Z</time></trkpt><trkpt lat="43.3856333" lon="11.2031336"><ele>195.0</ele><time>2026-05-02T09:56:18.498Z</time></trkpt><trkpt lat="43.3855811" lon="11.2032624"><ele>195.0</ele><time>2026-05-02T09:56:20.501Z</time></trkpt><trkpt lat="43.3855281" lon="11.2033826"><ele>195.0</ele><time>2026-05-02T09:56:22.485Z</time></trkpt><trkpt lat="43.3854663" lon="11.2034979"><ele>195.0</ele><time>2026-05-02T09:56:24.49Z</time></trkpt><trkpt lat="43.3854074" lon="11.203618"><ele>195.0</ele><time>2026-05-02T09:56:26.498Z</time></trkpt><trkpt lat="43.3853533" lon="11.2037386"><ele>195.0</ele><time>2026-05-02T09:56:28.499Z</time></trkpt><trkpt lat="43.3853087" lon="11.2038617"><ele>195.0</ele><time>2026-05-02T09:56:30.576Z</time></trkpt><trkpt lat="43.3852484" lon="11.2039689"><ele>195.0</ele><time>2026-05-02T09:56:32.483Z</time></trkpt><trkpt lat="43.3851808" lon="11.2040665"><ele>195.0</ele><time>2026-05-02T09:56:34.494Z</time></trkpt><trkpt lat="43.3851226" lon="11.2041733"><ele>195.0</ele><time>2026-05-02T09:56:36.489Z</time></trkpt><trkpt lat="43.3850694" lon="11.2042896"><ele>195.0</ele><time>2026-05-02T09:56:38.503Z</time></trkpt><trkpt lat="43.3850083" lon="11.2044006"><ele>194.8</ele><time>2026-05-02T09:56:40.561Z</time></trkpt><trkpt lat="43.384942" lon="11.2044902"><ele>194.6</ele><time>2026-05-02T09:56:42.503Z</time></trkpt><trkpt lat="43.3848734" lon="11.2045781"><ele>194.39999999999998</ele><time>2026-05-02T09:56:44.495Z</time></trkpt><trkpt lat="43.3848304" lon="11.2046684"><ele>194.2</ele><time>2026-05-02T09:56:46.481Z</time></trkpt><trkpt lat="43.3847713" lon="11.2047804"><ele>194.0</ele><time>2026-05-02T09:56:48.498Z</time></trkpt><trkpt lat="43.3846989" lon="11.2048979"><ele>194.39999999999998</ele><time>2026-05-02T09:56:50.553Z</time></trkpt><trkpt lat="43.3846253" lon="11.2049952"><ele>194.8</ele><time>2026-05-02T09:56:52.497Z</time></trkpt><trkpt lat="43.384575" lon="11.2051171"><ele>195.2</ele><time>2026-05-02T09:56:54.489Z</time></trkpt><trkpt lat="43.3845252" lon="11.2052505"><ele>195.60000000000002</ele><time>2026-05-02T09:56:56.494Z</time></trkpt><trkpt lat="43.384472" lon="11.2053675"><ele>196.0</ele><time>2026-05-02T09:56:58.508Z</time></trkpt><trkpt lat="43.3844245" lon="11.2054766"><ele>195.99999999999997</ele><time>2026-05-02T09:57:00.495Z</time></trkpt><trkpt lat="43.3843757" lon="11.2055656"><ele>196.0</ele><time>2026-05-02T09:57:02.479Z</time></trkpt><trkpt lat="43.3843336" lon="11.2056435"><ele>196.0</ele><time>2026-05-02T09:57:04.566Z</time></trkpt><trkpt lat="43.3842835" lon="11.2057248"><ele>196.0</ele><time>2026-05-02T09:57:06.557Z</time></trkpt><trkpt lat="43.3842485" lon="11.2058091"><ele>195.99999999999997</ele><time>2026-05-02T09:57:08.5Z</time></trkpt><trkpt lat="43.3842438" lon="11.2059424"><ele>196.0</ele><time>2026-05-02T09:57:10.571Z</time></trkpt><trkpt lat="43.3842398" lon="11.2060516"><ele>195.66666666666666</ele><time>2026-05-02T09:57:12.487Z</time></trkpt><trkpt lat="43.38421" lon="11.2061594"><ele>195.33333333333331</ele><time>2026-05-02T09:57:14.49Z</time></trkpt><trkpt lat="43.3841846" lon="11.2062487"><ele>195.0</ele><time>2026-05-02T09:57:16.555Z</time></trkpt><trkpt lat="43.3841801" lon="11.2063469"><ele>194.66666666666669</ele><time>2026-05-02T09:57:18.496Z</time></trkpt><trkpt lat="43.384172" lon="11.206478"><ele>194.33333333333334</ele><time>2026-05-02T09:57:20.569Z</time></trkpt><trkpt lat="43.3841473" lon="11.2065865"><ele>194.0</ele><time>2026-05-02T09:57:22.487Z</time></trkpt><trkpt lat="43.3841272" lon="11.206699"><ele>193.83333333333334</ele><time>2026-05-02T09:57:24.486Z</time></trkpt><trkpt lat="43.3841103" lon="11.2068086"><ele>193.66666666666669</ele><time>2026-05-02T09:57:26.503Z</time></trkpt><trkpt lat="43.3840944" lon="11.2069187"><ele>193.5</ele><time>2026-05-02T09:57:28.472Z</time></trkpt><trkpt lat="43.3840774" lon="11.2070344"><ele>193.33333333333331</ele><time>2026-05-02T09:57:30.505Z</time></trkpt><trkpt lat="43.3840549" lon="11.2071439"><ele>193.16666666666666</ele><time>2026-05-02T09:57:32.483Z</time></trkpt><trkpt lat="43.3840351" lon="11.207247"><ele>193.0</ele><time>2026-05-02T09:57:34.559Z</time></trkpt><trkpt lat="43.3840229" lon="11.20736"><ele>192.99999999999997</ele><time>2026-05-02T09:57:36.553Z</time></trkpt><trkpt lat="43.38401" lon="11.207476"><ele>193.0</ele><time>2026-05-02T09:57:38.493Z</time></trkpt><trkpt lat="43.3839973" lon="11.2075934"><ele>193.0</ele><time>2026-05-02T09:57:40.557Z</time></trkpt><trkpt lat="43.3839813" lon="11.2077143"><ele>193.0</ele><time>2026-05-02T09:57:42.471Z</time></trkpt><trkpt lat="43.3839755" lon="11.2078287"><ele>192.99999999999997</ele><time>2026-05-02T09:57:44.491Z</time></trkpt><trkpt lat="43.3839556" lon="11.2079466"><ele>193.0</ele><time>2026-05-02T09:57:46.553Z</time></trkpt><trkpt lat="43.3839323" lon="11.2081093"><ele>192.8</ele><time>2026-05-02T09:57:48.489Z</time></trkpt><trkpt lat="43.3839209" lon="11.2082599"><ele>192.60000000000002</ele><time>2026-05-02T09:57:50.561Z</time></trkpt><trkpt lat="43.3839184" lon="11.2083811"><ele>192.39999999999998</ele><time>2026-05-02T09:57:52.49Z</time></trkpt><trkpt lat="43.383899" lon="11.2084986"><ele>192.2</ele><time>2026-05-02T09:57:54.486Z</time></trkpt><trkpt lat="43.3838794" lon="11.2086152"><ele>192.0</ele><time>2026-05-02T09:57:56.492Z</time></trkpt><trkpt lat="43.3838499" lon="11.2087247"><ele>192.0</ele><time>2026-05-02T09:57:58.487Z</time></trkpt><trkpt lat="43.3838493" lon="11.2088679"><ele>192.0</ele><time>2026-05-02T09:58:00.494Z</time></trkpt><trkpt lat="43.3838419" lon="11.2090022"><ele>192.0</ele><time>2026-05-02T09:58:02.485Z</time></trkpt><trkpt lat="43.3838236" lon="11.209123"><ele>192.0</ele><time>2026-05-02T09:58:04.483Z</time></trkpt><trkpt lat="43.3838091" lon="11.2092414"><ele>192.0</ele><time>2026-05-02T09:58:06.485Z</time></trkpt><trkpt lat="43.3838072" lon="11.2093402"><ele>192.39999999999998</ele><time>2026-05-02T09:58:08.499Z</time></trkpt><trkpt lat="43.3837971" lon="11.2094512"><ele>192.79999999999998</ele><time>2026-05-02T09:58:10.563Z</time></trkpt><trkpt lat="43.3837634" lon="11.2095976"><ele>193.2</ele><time>2026-05-02T09:58:12.49Z</time></trkpt><trkpt lat="43.3837398" lon="11.209735"><ele>193.6</ele><time>2026-05-02T09:58:14.506Z</time></trkpt><trkpt lat="43.3837227" lon="11.209836"><ele>194.0</ele><time>2026-05-02T09:58:16.559Z</time></trkpt><trkpt lat="43.3837608" lon="11.2099894"><ele>194.00000000000003</ele><time>2026-05-02T09:58:18.502Z</time></trkpt><trkpt lat="43.3837699" lon="11.2100978"><ele>194.0</ele><time>2026-05-02T09:58:20.478Z</time></trkpt><trkpt lat="43.3837216" lon="11.2101769"><ele>194.0</ele><time>2026-05-02T09:58:23.498Z</time></trkpt><trkpt lat="43.3836839" lon="11.2102967"><ele>194.0</ele><time>2026-05-02T09:58:25.572Z</time></trkpt><trkpt lat="43.3836428" lon="11.2103887"><ele>194.00000000000003</ele><time>2026-05-02T09:58:27.497Z</time></trkpt><trkpt lat="43.3836336" lon="11.2105114"><ele>194.0</ele><time>2026-05-02T09:58:29.506Z</time></trkpt><trkpt lat="43.3836188" lon="11.2106183"><ele>194.16666666666669</ele><time>2026-05-02T09:58:31.496Z</time></trkpt><trkpt lat="43.3836081" lon="11.2107418"><ele>194.33333333333334</ele><time>2026-05-02T09:58:33.499Z</time></trkpt><trkpt lat="43.3835903" lon="11.2108601"><ele>194.5</ele><time>2026-05-02T09:58:35.502Z</time></trkpt><trkpt lat="43.3835802" lon="11.2109834"><ele>194.66666666666669</ele><time>2026-05-02T09:58:37.504Z</time></trkpt><trkpt lat="43.383569" lon="11.2111072"><ele>194.83333333333334</ele><time>2026-05-02T09:58:39.497Z</time></trkpt><trkpt lat="43.3835548" lon="11.211229"><ele>195.0</ele><time>2026-05-02T09:58:41.49Z</time></trkpt><trkpt lat="43.3835207" lon="11.2113337"><ele>195.0</ele><time>2026-05-02T09:58:43.508Z</time></trkpt><trkpt lat="43.3834807" lon="11.2114447"><ele>195.0</ele><time>2026-05-02T09:58:45.502Z</time></trkpt><trkpt lat="43.3834712" lon="11.2115835"><ele>195.0</ele><time>2026-05-02T09:58:47.489Z</time></trkpt><trkpt lat="43.3834571" lon="11.2116865"><ele>195.0</ele><time>2026-05-02T09:58:48.489Z</time></trkpt><trkpt lat="43.3834516" lon="11.211826"><ele>195.0</ele><time>2026-05-02T09:58:50.557Z</time></trkpt><trkpt lat="43.3834053" lon="11.2119735"><ele>195.0</ele><time>2026-05-02T09:58:52.501Z</time></trkpt><trkpt lat="43.3833997" lon="11.2120667"><ele>195.0</ele><time>2026-05-02T09:58:53.512Z</time></trkpt><trkpt lat="43.3833785" lon="11.2121788"><ele>195.0</ele><time>2026-05-02T09:58:57.489Z</time></trkpt><trkpt lat="43.3833712" lon="11.2122895"><ele>195.0</ele><time>2026-05-02T09:58:59.481Z</time></trkpt><trkpt lat="43.3833914" lon="11.2124072"><ele>195.0</ele><time>2026-05-02T09:59:01.561Z</time></trkpt><trkpt lat="43.3834057" lon="11.2125276"><ele>195.0</ele><time>2026-05-02T09:59:03.508Z</time></trkpt><trkpt lat="43.3834179" lon="11.2126423"><ele>195.42857142857142</ele><time>2026-05-02T09:59:05.491Z</time></trkpt><trkpt lat="43.3834244" lon="11.2127521"><ele>195.85714285714283</ele><time>2026-05-02T09:59:07.491Z</time></trkpt><trkpt lat="43.3834444" lon="11.212837"><ele>196.28571428571428</ele><time>2026-05-02T09:59:09.488Z</time></trkpt><trkpt lat="43.3834862" lon="11.2129049"><ele>196.71428571428572</ele><time>2026-05-02T09:59:13.499Z</time></trkpt><trkpt lat="43.3835435" lon="11.2129436"><ele>197.14285714285714</ele><time>2026-05-02T09:59:17.491Z</time></trkpt><trkpt lat="43.383606" lon="11.212972"><ele>197.57142857142858</ele><time>2026-05-02T09:59:20.557Z</time></trkpt><trkpt lat="43.3836822" lon="11.2129815"><ele>198.0</ele><time>2026-05-02T09:59:23.485Z</time></trkpt><trkpt lat="43.3837653" lon="11.2129393"><ele>198.0</ele><time>2026-05-02T09:59:26.571Z</time></trkpt><trkpt lat="43.3838428" lon="11.2128837"><ele>198.0</ele><time>2026-05-02T09:59:28.491Z</time></trkpt><trkpt lat="43.3839158" lon="11.2128169"><ele>198.0</ele><time>2026-05-02T09:59:30.56Z</time></trkpt><trkpt lat="43.3840207" lon="11.2127266"><ele>198.0</ele><time>2026-05-02T09:59:33.494Z</time></trkpt><trkpt lat="43.3840788" lon="11.2126797"><ele>198.0</ele><time>2026-05-02T09:59:35.551Z</time></trkpt><trkpt lat="43.3841397" lon="11.2126241"><ele>198.0</ele><time>2026-05-02T09:59:37.481Z</time></trkpt><trkpt lat="43.3842125" lon="11.2125655"><ele>198.16666666666666</ele><time>2026-05-02T09:59:39.482Z</time></trkpt><trkpt lat="43.3842926" lon="11.2124927"><ele>198.33333333333331</ele><time>2026-05-02T09:59:41.495Z</time></trkpt><trkpt lat="43.384357" lon="11.2124419"><ele>198.5</ele><time>2026-05-02T09:59:43.496Z</time></trkpt><trkpt lat="43.3844402" lon="11.2123959"><ele>198.66666666666666</ele><time>2026-05-02T09:59:46.488Z</time></trkpt><trkpt lat="43.3845037" lon="11.2123305"><ele>198.83333333333331</ele><time>2026-05-02T09:59:48.491Z</time></trkpt><trkpt lat="43.3845837" lon="11.2122817"><ele>199.0</ele><time>2026-05-02T09:59:50.485Z</time></trkpt><trkpt lat="43.3846555" lon="11.2122482"><ele>198.49999999999997</ele><time>2026-05-02T09:59:52.484Z</time></trkpt><trkpt lat="43.3847265" lon="11.2122095"><ele>198.0</ele><time>2026-05-02T09:59:54.491Z</time></trkpt><trkpt lat="43.3848094" lon="11.2121989"><ele>197.5</ele><time>2026-05-02T09:59:56.563Z</time></trkpt><trkpt lat="43.3849081" lon="11.2121759"><ele>197.0</ele><time>2026-05-02T09:59:58.486Z</time></trkpt><trkpt lat="43.3849837" lon="11.21215"><ele>196.49999999999997</ele><time>2026-05-02T10:00:00.493Z</time></trkpt><trkpt lat="43.3850756" lon="11.212114"><ele>196.0</ele><time>2026-05-02T10:00:03.483Z</time></trkpt><trkpt lat="43.38514" lon="11.2121151"><ele>195.99999999999997</ele><time>2026-05-02T10:00:06.552Z</time></trkpt><trkpt lat="43.3852369" lon="11.2120866"><ele>196.0</ele><time>2026-05-02T10:00:09.5Z</time></trkpt><trkpt lat="43.3853056" lon="11.2120757"><ele>196.0</ele><time>2026-05-02T10:00:11.557Z</time></trkpt><trkpt lat="43.3853888" lon="11.2120943"><ele>196.0</ele><time>2026-05-02T10:00:14.482Z</time></trkpt><trkpt lat="43.3854628" lon="11.212136"><ele>195.99999999999997</ele><time>2026-05-02T10:00:16.492Z</time></trkpt><trkpt lat="43.3855316" lon="11.2120792"><ele>196.0</ele><time>2026-05-02T10:00:19.494Z</time></trkpt><trkpt lat="43.3856137" lon="11.2120272"><ele>195.99999999999997</ele><time>2026-05-02T10:00:21.501Z</time></trkpt><trkpt lat="43.3857187" lon="11.2119825"><ele>196.0</ele><time>2026-05-02T10:00:23.494Z</time></trkpt><trkpt lat="43.3857985" lon="11.2119369"><ele>196.0</ele><time>2026-05-02T10:00:25.485Z</time></trkpt><trkpt lat="43.3858763" lon="11.2119089"><ele>196.0</ele><time>2026-05-02T10:00:27.484Z</time></trkpt><trkpt lat="43.3859461" lon="11.2118885"><ele>195.99999999999997</ele><time>2026-05-02T10:00:29.499Z</time></trkpt><trkpt lat="43.3860102" lon="11.2118697"><ele>196.0</ele><time>2026-05-02T10:00:31.582Z</time></trkpt><trkpt lat="43.3860862" lon="11.2118343"><ele>195.99999999999997</ele><time>2026-05-02T10:00:33.475Z</time></trkpt><trkpt lat="43.3861568" lon="11.2118132"><ele>196.0</ele><time>2026-05-02T10:00:35.457Z</time></trkpt><trkpt lat="43.38622" lon="11.21179"><ele>196.0</ele><time>2026-05-02T10:00:37.47Z</time></trkpt><trkpt lat="43.3862953" lon="11.2116963"><ele>196.0</ele><time>2026-05-02T10:00:39.484Z</time></trkpt><trkpt lat="43.3863545" lon="11.2116134"><ele>195.99999999999997</ele><time>2026-05-02T10:00:41.545Z</time></trkpt><trkpt lat="43.3864036" lon="11.2115503"><ele>196.0</ele><time>2026-05-02T10:00:43.487Z</time></trkpt><trkpt lat="43.3864827" lon="11.2115426"><ele>197.0</ele><time>2026-05-02T10:00:45.558Z</time></trkpt><trkpt lat="43.3865782" lon="11.2115675"><ele>198.0</ele><time>2026-05-02T10:00:47.466Z</time></trkpt><trkpt lat="43.3866761" lon="11.2115661"><ele>199.0</ele><time>2026-05-02T10:00:49.497Z</time></trkpt><trkpt lat="43.3867864" lon="11.2115466"><ele>200.0</ele><time>2026-05-02T10:00:51.557Z</time></trkpt><trkpt lat="43.3868963" lon="11.2115283"><ele>201.0</ele><time>2026-05-02T10:00:53.484Z</time></trkpt><trkpt lat="43.3869972" lon="11.2115374"><ele>201.0</ele><time>2026-05-02T10:00:55.492Z</time></trkpt><trkpt lat="43.387085" lon="11.2115558"><ele>201.0</ele><time>2026-05-02T10:00:57.487Z</time></trkpt><trkpt lat="43.3871516" lon="11.2115726"><ele>201.0</ele><time>2026-05-02T10:00:59.511Z</time></trkpt><trkpt lat="43.3872248" lon="11.2115977"><ele>201.0</ele><time>2026-05-02T10:01:01.572Z</time></trkpt><trkpt lat="43.3873255" lon="11.2116378"><ele>201.0</ele><time>2026-05-02T10:01:03.486Z</time></trkpt><trkpt lat="43.3874216" lon="11.2116758"><ele>201.0</ele><time>2026-05-02T10:01:05.552Z</time></trkpt><trkpt lat="43.3874973" lon="11.2117037"><ele>200.60000000000002</ele><time>2026-05-02T10:01:07.486Z</time></trkpt><trkpt lat="43.3875752" lon="11.2117375"><ele>200.2</ele><time>2026-05-02T10:01:09.483Z</time></trkpt><trkpt lat="43.3876582" lon="11.2117885"><ele>199.8</ele><time>2026-05-02T10:01:11.534Z</time></trkpt><trkpt lat="43.38773" lon="11.2118639"><ele>199.39999999999998</ele><time>2026-05-02T10:01:13.506Z</time></trkpt><trkpt lat="43.3878031" lon="11.2119439"><ele>199.0</ele><time>2026-05-02T10:01:15.554Z</time></trkpt><trkpt lat="43.3878898" lon="11.2120042"><ele>198.99999999999997</ele><time>2026-05-02T10:01:17.505Z</time></trkpt><trkpt lat="43.3879511" lon="11.2120741"><ele>199.0</ele><time>2026-05-02T10:01:20.559Z</time></trkpt><trkpt lat="43.3880122" lon="11.212147"><ele>199.0</ele><time>2026-05-02T10:01:23.487Z</time></trkpt><trkpt lat="43.3880818" lon="11.2122059"><ele>199.0</ele><time>2026-05-02T10:01:25.486Z</time></trkpt><trkpt lat="43.3881516" lon="11.2122551"><ele>198.99999999999997</ele><time>2026-05-02T10:01:27.491Z</time></trkpt><trkpt lat="43.3882147" lon="11.2122959"><ele>199.0</ele><time>2026-05-02T10:01:29.487Z</time></trkpt><trkpt lat="43.3882804" lon="11.2123689"><ele>199.14285714285714</ele><time>2026-05-02T10:01:32.498Z</time></trkpt><trkpt lat="43.3883264" lon="11.2124642"><ele>199.28571428571428</ele><time>2026-05-02T10:01:35.484Z</time></trkpt><trkpt lat="43.3883853" lon="11.2125366"><ele>199.42857142857144</ele><time>2026-05-02T10:01:38.485Z</time></trkpt><trkpt lat="43.388436" lon="11.2126257"><ele>199.57142857142856</ele><time>2026-05-02T10:01:41.569Z</time></trkpt><trkpt lat="43.388484" lon="11.2126848"><ele>199.71428571428572</ele><time>2026-05-02T10:01:43.482Z</time></trkpt><trkpt lat="43.3885369" lon="11.2127457"><ele>199.85714285714286</ele><time>2026-05-02T10:01:45.574Z</time></trkpt><trkpt lat="43.3885883" lon="11.2128001"><ele>200.0</ele><time>2026-05-02T10:01:47.47Z</time></trkpt><trkpt lat="43.3886466" lon="11.2128694"><ele>200.00000000000003</ele><time>2026-05-02T10:01:49.484Z</time></trkpt><trkpt lat="43.3887008" lon="11.2129381"><ele>200.0</ele><time>2026-05-02T10:01:51.556Z</time></trkpt><trkpt lat="43.3887595" lon="11.2130009"><ele>200.0</ele><time>2026-05-02T10:01:53.5Z</time></trkpt><trkpt lat="43.3888094" lon="11.2130674"><ele>200.0</ele><time>2026-05-02T10:01:55.561Z</time></trkpt><trkpt lat="43.3888466" lon="11.2131477"><ele>200.00000000000003</ele><time>2026-05-02T10:01:57.498Z</time></trkpt><trkpt lat="43.3888835" lon="11.2132416"><ele>200.0</ele><time>2026-05-02T10:01:59.491Z</time></trkpt><trkpt lat="43.388939" lon="11.2133624"><ele>199.6</ele><time>2026-05-02T10:02:01.483Z</time></trkpt><trkpt lat="43.3889952" lon="11.2134811"><ele>199.2</ele><time>2026-05-02T10:02:03.497Z</time></trkpt><trkpt lat="43.3890362" lon="11.2136062"><ele>198.8</ele><time>2026-05-02T10:02:05.483Z</time></trkpt><trkpt lat="43.3890758" lon="11.213724"><ele>198.4</ele><time>2026-05-02T10:02:07.495Z</time></trkpt><trkpt lat="43.3891031" lon="11.2138576"><ele>198.0</ele><time>2026-05-02T10:02:09.495Z</time></trkpt><trkpt lat="43.3891174" lon="11.2139814"><ele>198.5</ele><time>2026-05-02T10:02:11.487Z</time></trkpt><trkpt lat="43.3891312" lon="11.2140942"><ele>199.0</ele><time>2026-05-02T10:02:13.497Z</time></trkpt><trkpt lat="43.3891454" lon="11.2142089"><ele>199.5</ele><time>2026-05-02T10:02:15.558Z</time></trkpt><trkpt lat="43.3891611" lon="11.2143151"><ele>200.0</ele><time>2026-05-02T10:02:17.495Z</time></trkpt><trkpt lat="43.3891887" lon="11.2144039"><ele>200.5</ele><time>2026-05-02T10:02:19.482Z</time></trkpt><trkpt lat="43.3892385" lon="11.2145127"><ele>201.0</ele><time>2026-05-02T10:02:22.468Z</time></trkpt><trkpt lat="43.3892828" lon="11.2145973"><ele>201.0</ele><time>2026-05-02T10:02:25.576Z</time></trkpt><trkpt lat="43.3893227" lon="11.2146904"><ele>201.0</ele><time>2026-05-02T10:02:28.492Z</time></trkpt><trkpt lat="43.3894153" lon="11.2147743"><ele>201.0</ele><time>2026-05-02T10:02:30.563Z</time></trkpt><trkpt lat="43.3894781" lon="11.2148419"><ele>201.0</ele><time>2026-05-02T10:02:32.483Z</time></trkpt><trkpt lat="43.3895505" lon="11.2149223"><ele>201.0</ele><time>2026-05-02T10:02:34.5Z</time></trkpt><trkpt lat="43.3896179" lon="11.2150063"><ele>200.5</ele><time>2026-05-02T10:02:36.471Z</time></trkpt><trkpt lat="43.3896712" lon="11.2150926"><ele>200.0</ele><time>2026-05-02T10:02:38.494Z</time></trkpt><trkpt lat="43.3897285" lon="11.2151677"><ele>199.5</ele><time>2026-05-02T10:02:40.51Z</time></trkpt><trkpt lat="43.3897752" lon="11.2152406"><ele>199.0</ele><time>2026-05-02T10:02:42.488Z</time></trkpt><trkpt lat="43.3898256" lon="11.2153151"><ele>198.5</ele><time>2026-05-02T10:02:44.489Z</time></trkpt><trkpt lat="43.3898811" lon="11.2154004"><ele>198.0</ele><time>2026-05-02T10:02:46.486Z</time></trkpt><trkpt lat="43.3899312" lon="11.2154783"><ele>198.0</ele><time>2026-05-02T10:02:48.473Z</time></trkpt><trkpt lat="43.3899773" lon="11.2155578"><ele>198.0</ele><time>2026-05-02T10:02:50.537Z</time></trkpt><trkpt lat="43.3900247" lon="11.2156383"><ele>198.0</ele><time>2026-05-02T10:02:52.495Z</time></trkpt><trkpt lat="43.3900709" lon="11.2157211"><ele>198.0</ele><time>2026-05-02T10:02:54.487Z</time></trkpt><trkpt lat="43.3901237" lon="11.2157934"><ele>198.0</ele><time>2026-05-02T10:02:56.562Z</time></trkpt><trkpt lat="43.3901737" lon="11.2158513"><ele>198.0</ele><time>2026-05-02T10:02:58.49Z</time></trkpt><trkpt lat="43.390267" lon="11.2159002"><ele>197.83333333333334</ele><time>2026-05-02T10:03:00.497Z</time></trkpt><trkpt lat="43.3903683" lon="11.2159423"><ele>197.66666666666669</ele><time>2026-05-02T10:03:02.502Z</time></trkpt><trkpt lat="43.390457" lon="11.2159992"><ele>197.5</ele><time>2026-05-02T10:03:04.569Z</time></trkpt><trkpt lat="43.3905522" lon="11.2160536"><ele>197.33333333333334</ele><time>2026-05-02T10:03:06.475Z</time></trkpt><trkpt lat="43.3906122" lon="11.2160894"><ele>197.16666666666669</ele><time>2026-05-02T10:03:07.497Z</time></trkpt><trkpt lat="43.3906756" lon="11.216128"><ele>197.0</ele><time>2026-05-02T10:03:08.488Z</time></trkpt><trkpt lat="43.3907328" lon="11.2161649"><ele>197.0</ele><time>2026-05-02T10:03:09.493Z</time></trkpt><trkpt lat="43.3908278" lon="11.2162627"><ele>197.0</ele><time>2026-05-02T10:03:11.561Z</time></trkpt><trkpt lat="43.390875" lon="11.2164128"><ele>197.0</ele><time>2026-05-02T10:03:13.486Z</time></trkpt><trkpt lat="43.3909289" lon="11.2165374"><ele>197.0</ele><time>2026-05-02T10:03:15.513Z</time></trkpt><trkpt lat="43.3909966" lon="11.2165805"><ele>197.0</ele><time>2026-05-02T10:03:17.498Z</time></trkpt><trkpt lat="43.3910596" lon="11.2166414"><ele>196.83333333333334</ele><time>2026-05-02T10:03:19.491Z</time></trkpt><trkpt lat="43.3911175" lon="11.2167033"><ele>196.66666666666669</ele><time>2026-05-02T10:03:21.49Z</time></trkpt><trkpt lat="43.3911736" lon="11.2167612"><ele>196.5</ele><time>2026-05-02T10:03:23.483Z</time></trkpt><trkpt lat="43.3912336" lon="11.2168236"><ele>196.33333333333331</ele><time>2026-05-02T10:03:25.56Z</time></trkpt><trkpt lat="43.3913063" lon="11.2168866"><ele>196.16666666666666</ele><time>2026-05-02T10:03:27.49Z</time></trkpt><trkpt lat="43.3913933" lon="11.2169496"><ele>196.0</ele><time>2026-05-02T10:03:29.489Z</time></trkpt><trkpt lat="43.3914764" lon="11.2170327"><ele>195.99999999999997</ele><time>2026-05-02T10:03:31.486Z</time></trkpt><trkpt lat="43.3915575" lon="11.2171"><ele>196.0</ele><time>2026-05-02T10:03:33.474Z</time></trkpt><trkpt lat="43.3916308" lon="11.2171481"><ele>196.0</ele><time>2026-05-02T10:03:35.474Z</time></trkpt><trkpt lat="43.3916947" lon="11.2171732"><ele>196.0</ele><time>2026-05-02T10:03:37.48Z</time></trkpt><trkpt lat="43.3917499" lon="11.2172154"><ele>195.99999999999997</ele><time>2026-05-02T10:03:39.497Z</time></trkpt><trkpt lat="43.3918136" lon="11.2172609"><ele>196.0</ele><time>2026-05-02T10:03:41.491Z</time></trkpt><trkpt lat="43.3918838" lon="11.2173286"><ele>196.4</ele><time>2026-05-02T10:03:43.491Z</time></trkpt><trkpt lat="43.3919631" lon="11.2174231"><ele>196.8</ele><time>2026-05-02T10:03:45.541Z</time></trkpt><trkpt lat="43.3920491" lon="11.2175222"><ele>197.20000000000002</ele><time>2026-05-02T10:03:47.491Z</time></trkpt><trkpt lat="43.3921185" lon="11.2176128"><ele>197.60000000000002</ele><time>2026-05-02T10:03:49.488Z</time></trkpt><trkpt lat="43.3921831" lon="11.2176888"><ele>198.0</ele><time>2026-05-02T10:03:51.485Z</time></trkpt><trkpt lat="43.3922473" lon="11.2177642"><ele>198.0</ele><time>2026-05-02T10:03:53.488Z</time></trkpt><trkpt lat="43.3923009" lon="11.2178532"><ele>198.0</ele><time>2026-05-02T10:03:55.499Z</time></trkpt><trkpt lat="43.3923524" lon="11.2179347"><ele>198.0</ele><time>2026-05-02T10:03:57.495Z</time></trkpt><trkpt lat="43.3923984" lon="11.218012"><ele>198.0</ele><time>2026-05-02T10:03:59.569Z</time></trkpt><trkpt lat="43.3924498" lon="11.2181017"><ele>198.0</ele><time>2026-05-02T10:04:01.566Z</time></trkpt><trkpt lat="43.3924941" lon="11.2181833"><ele>198.0</ele><time>2026-05-02T10:04:03.491Z</time></trkpt><trkpt lat="43.3925441" lon="11.2182712"><ele>199.33333333333334</ele><time>2026-05-02T10:04:06.49Z</time></trkpt><trkpt lat="43.3925957" lon="11.2183636"><ele>200.66666666666669</ele><time>2026-05-02T10:04:09.488Z</time></trkpt><trkpt lat="43.3926339" lon="11.2184681"><ele>202.0</ele><time>2026-05-02T10:04:14.489Z</time></trkpt><trkpt lat="43.392626" lon="11.2185773"><ele>203.33333333333334</ele><time>2026-05-02T10:04:18.494Z</time></trkpt><trkpt lat="43.3926448" lon="11.21868"><ele>204.66666666666669</ele><time>2026-05-02T10:04:20.489Z</time></trkpt><trkpt lat="43.3926546" lon="11.218798"><ele>206.0</ele><time>2026-05-02T10:04:23.483Z</time></trkpt><trkpt lat="43.3926659" lon="11.2188991"><ele>206.33333333333334</ele><time>2026-05-02T10:04:26.485Z</time></trkpt><trkpt lat="43.3926462" lon="11.2190004"><ele>206.66666666666669</ele><time>2026-05-02T10:04:29.485Z</time></trkpt><trkpt lat="43.3926803" lon="11.2190761"><ele>207.0</ele><time>2026-05-02T10:04:47.49Z</time></trkpt><trkpt lat="43.3926998" lon="11.219173"><ele>207.33333333333331</ele><time>2026-05-02T10:04:57.494Z</time></trkpt><trkpt lat="43.3927644" lon="11.219269"><ele>207.66666666666666</ele><time>2026-05-02T10:05:00.491Z</time></trkpt><trkpt lat="43.3928268" lon="11.2193503"><ele>208.0</ele><time>2026-05-02T10:05:02.482Z</time></trkpt><trkpt lat="43.3928941" lon="11.2193991"><ele>208.0</ele><time>2026-05-02T10:05:04.497Z</time></trkpt><trkpt lat="43.3929682" lon="11.2194267"><ele>208.0</ele><time>2026-05-02T10:05:06.503Z</time></trkpt><trkpt lat="43.3930517" lon="11.2194571"><ele>208.0</ele><time>2026-05-02T10:05:08.471Z</time></trkpt><trkpt lat="43.3931262" lon="11.2194859"><ele>208.0</ele><time>2026-05-02T10:05:10.551Z</time></trkpt><trkpt lat="43.3932321" lon="11.219522"><ele>208.0</ele><time>2026-05-02T10:05:12.483Z</time></trkpt><trkpt lat="43.3933428" lon="11.2195506"><ele>207.2</ele><time>2026-05-02T10:05:14.485Z</time></trkpt><trkpt lat="43.3934416" lon="11.2195718"><ele>206.4</ele><time>2026-05-02T10:05:16.562Z</time></trkpt><trkpt lat="43.3935247" lon="11.2196051"><ele>205.6</ele><time>2026-05-02T10:05:18.497Z</time></trkpt><trkpt lat="43.3936414" lon="11.2196366"><ele>204.79999999999998</ele><time>2026-05-02T10:05:20.565Z</time></trkpt><trkpt lat="43.3937105" lon="11.2196611"><ele>204.0</ele><time>2026-05-02T10:05:21.566Z</time></trkpt><trkpt lat="43.3938914" lon="11.2196843"><ele>203.33333333333334</ele><time>2026-05-02T10:05:24.491Z</time></trkpt><trkpt lat="43.3939874" lon="11.2196873"><ele>202.66666666666669</ele><time>2026-05-02T10:05:26.565Z</time></trkpt><trkpt lat="43.3940686" lon="11.219643"><ele>202.0</ele><time>2026-05-02T10:05:28.494Z</time></trkpt><trkpt lat="43.3941077" lon="11.2195508"><ele>201.33333333333334</ele><time>2026-05-02T10:05:30.565Z</time></trkpt><trkpt lat="43.3941282" lon="11.219465"><ele>200.66666666666669</ele><time>2026-05-02T10:05:32.477Z</time></trkpt><trkpt lat="43.3941634" lon="11.2193485"><ele>200.0</ele><time>2026-05-02T10:05:34.473Z</time></trkpt><trkpt lat="43.3942051" lon="11.219221"><ele>200.00000000000003</ele><time>2026-05-02T10:05:36.5Z</time></trkpt><trkpt lat="43.3942492" lon="11.2191294"><ele>200.0</ele><time>2026-05-02T10:05:38.5Z</time></trkpt><trkpt lat="43.3942963" lon="11.2190596"><ele>200.0</ele><time>2026-05-02T10:05:40.487Z</time></trkpt><trkpt lat="43.3943488" lon="11.2189816"><ele>200.0</ele><time>2026-05-02T10:05:42.51Z</time></trkpt><trkpt lat="43.3943955" lon="11.2188995"><ele>200.00000000000003</ele><time>2026-05-02T10:05:44.493Z</time></trkpt><trkpt lat="43.3944798" lon="11.2188261"><ele>200.0</ele><time>2026-05-02T10:05:46.569Z</time></trkpt><trkpt lat="43.3945767" lon="11.2187943"><ele>199.8</ele><time>2026-05-02T10:05:48.489Z</time></trkpt><trkpt lat="43.394625" lon="11.2187224"><ele>199.6</ele><time>2026-05-02T10:05:50.491Z</time></trkpt><trkpt lat="43.394691" lon="11.2186296"><ele>199.39999999999998</ele><time>2026-05-02T10:05:52.542Z</time></trkpt><trkpt lat="43.394771" lon="11.2185378"><ele>199.2</ele><time>2026-05-02T10:05:54.5Z</time></trkpt><trkpt lat="43.3948591" lon="11.2184442"><ele>199.0</ele><time>2026-05-02T10:05:56.469Z</time></trkpt><trkpt lat="43.3949549" lon="11.2183446"><ele>198.2</ele><time>2026-05-02T10:05:58.488Z</time></trkpt><trkpt lat="43.3950484" lon="11.2182502"><ele>197.39999999999998</ele><time>2026-05-02T10:06:00.495Z</time></trkpt><trkpt lat="43.395145" lon="11.2181629"><ele>196.6</ele><time>2026-05-02T10:06:02.494Z</time></trkpt><trkpt lat="43.3952051" lon="11.2181208"><ele>195.8</ele><time>2026-05-02T10:06:03.485Z</time></trkpt><trkpt lat="43.3953148" lon="11.2180372"><ele>195.0</ele><time>2026-05-02T10:06:05.488Z</time></trkpt><trkpt lat="43.3954239" lon="11.2179582"><ele>194.4</ele><time>2026-05-02T10:06:07.489Z</time></trkpt><trkpt lat="43.3955152" lon="11.2178526"><ele>193.8</ele><time>2026-05-02T10:06:09.478Z</time></trkpt><trkpt lat="43.3955755" lon="11.2177124"><ele>193.2</ele><time>2026-05-02T10:06:11.489Z</time></trkpt><trkpt lat="43.3956209" lon="11.2175845"><ele>192.6</ele><time>2026-05-02T10:06:13.505Z</time></trkpt><trkpt lat="43.3956436" lon="11.2174743"><ele>192.0</ele><time>2026-05-02T10:06:15.568Z</time></trkpt><trkpt lat="43.3956558" lon="11.2173696"><ele>192.28571428571428</ele><time>2026-05-02T10:06:17.48Z</time></trkpt><trkpt lat="43.3956678" lon="11.2172652"><ele>192.57142857142856</ele><time>2026-05-02T10:06:19.498Z</time></trkpt><trkpt lat="43.3956637" lon="11.2171761"><ele>192.85714285714283</ele><time>2026-05-02T10:06:21.573Z</time></trkpt><trkpt lat="43.3956813" lon="11.2170863"><ele>193.14285714285714</ele><time>2026-05-02T10:06:23.487Z</time></trkpt><trkpt lat="43.3957272" lon="11.2170211"><ele>193.42857142857144</ele><time>2026-05-02T10:06:25.558Z</time></trkpt><trkpt lat="43.3958097" lon="11.2169511"><ele>193.7142857142857</ele><time>2026-05-02T10:06:28.499Z</time></trkpt><trkpt lat="43.3958694" lon="11.2169045"><ele>194.0</ele><time>2026-05-02T10:06:30.579Z</time></trkpt><trkpt lat="43.3959569" lon="11.2168511"><ele>194.0</ele><time>2026-05-02T10:06:33.516Z</time></trkpt><trkpt lat="43.3960527" lon="11.2168279"><ele>194.0</ele><time>2026-05-02T10:06:36.501Z</time></trkpt><trkpt lat="43.3961368" lon="11.2168084"><ele>194.0</ele><time>2026-05-02T10:06:38.493Z</time></trkpt><trkpt lat="43.3962365" lon="11.2167734"><ele>194.0</ele><time>2026-05-02T10:06:40.503Z</time></trkpt><trkpt lat="43.3963363" lon="11.2167504"><ele>194.0</ele><time>2026-05-02T10:06:42.502Z</time></trkpt><trkpt lat="43.3964431" lon="11.2167232"><ele>193.6</ele><time>2026-05-02T10:06:44.494Z</time></trkpt><trkpt lat="43.3965514" lon="11.2167001"><ele>193.2</ele><time>2026-05-02T10:06:46.491Z</time></trkpt><trkpt lat="43.3966558" lon="11.2166747"><ele>192.79999999999998</ele><time>2026-05-02T10:06:48.491Z</time></trkpt><trkpt lat="43.3967588" lon="11.2166485"><ele>192.39999999999998</ele><time>2026-05-02T10:06:50.496Z</time></trkpt><trkpt lat="43.396875" lon="11.2166189"><ele>192.0</ele><time>2026-05-02T10:06:52.467Z</time></trkpt><trkpt lat="43.3969778" lon="11.2165876"><ele>192.0</ele><time>2026-05-02T10:06:54.505Z</time></trkpt><trkpt lat="43.3970774" lon="11.2165597"><ele>192.0</ele><time>2026-05-02T10:06:56.496Z</time></trkpt><trkpt lat="43.3971692" lon="11.216549"><ele>192.0</ele><time>2026-05-02T10:06:58.486Z</time></trkpt><trkpt lat="43.3972287" lon="11.2165133"><ele>192.0</ele><time>2026-05-02T10:07:00.487Z</time></trkpt><trkpt lat="43.3973109" lon="11.216493"><ele>192.0</ele><time>2026-05-02T10:07:02.502Z</time></trkpt><trkpt lat="43.3973935" lon="11.2164736"><ele>192.0</ele><time>2026-05-02T10:07:04.49Z</time></trkpt><trkpt lat="43.3974661" lon="11.2164555"><ele>192.16666666666666</ele><time>2026-05-02T10:07:06.555Z</time></trkpt><trkpt lat="43.3975328" lon="11.2164382"><ele>192.33333333333331</ele><time>2026-05-02T10:07:08.507Z</time></trkpt><trkpt lat="43.3976048" lon="11.2163906"><ele>192.5</ele><time>2026-05-02T10:07:10.495Z</time></trkpt><trkpt lat="43.3976884" lon="11.2163699"><ele>192.66666666666666</ele><time>2026-05-02T10:07:12.477Z</time></trkpt><trkpt lat="43.3977834" lon="11.2163625"><ele>192.83333333333331</ele><time>2026-05-02T10:07:14.494Z</time></trkpt><trkpt lat="43.3978512" lon="11.2163656"><ele>193.0</ele><time>2026-05-02T10:07:16.505Z</time></trkpt><trkpt lat="43.3979476" lon="11.216364"><ele>192.66666666666666</ele><time>2026-05-02T10:07:19.507Z</time></trkpt><trkpt lat="43.3980162" lon="11.2163309"><ele>192.33333333333331</ele><time>2026-05-02T10:07:21.494Z</time></trkpt><trkpt lat="43.3980859" lon="11.2163005"><ele>192.0</ele><time>2026-05-02T10:07:23.501Z</time></trkpt><trkpt lat="43.398155" lon="11.2162727"><ele>191.66666666666666</ele><time>2026-05-02T10:07:25.558Z</time></trkpt><trkpt lat="43.398237" lon="11.2162476"><ele>191.33333333333331</ele><time>2026-05-02T10:07:27.496Z</time></trkpt><trkpt lat="43.3983212" lon="11.2162364"><ele>191.0</ele><time>2026-05-02T10:07:29.489Z</time></trkpt><trkpt lat="43.3984017" lon="11.2162226"><ele>191.0</ele><time>2026-05-02T10:07:31.563Z</time></trkpt><trkpt lat="43.3984832" lon="11.2162265"><ele>191.0</ele><time>2026-05-02T10:07:33.506Z</time></trkpt><trkpt lat="43.3985567" lon="11.2162171"><ele>191.0</ele><time>2026-05-02T10:07:35.482Z</time></trkpt><trkpt lat="43.3986245" lon="11.2161542"><ele>191.0</ele><time>2026-05-02T10:07:37.474Z</time></trkpt><trkpt lat="43.3986985" lon="11.2160953"><ele>191.0</ele><time>2026-05-02T10:07:39.493Z</time></trkpt><trkpt lat="43.3987723" lon="11.2160309"><ele>191.0</ele><time>2026-05-02T10:07:41.494Z</time></trkpt><trkpt lat="43.3988625" lon="11.2159574"><ele>191.60000000000002</ele><time>2026-05-02T10:07:43.497Z</time></trkpt><trkpt lat="43.3989712" lon="11.2158876"><ele>192.2</ele><time>2026-05-02T10:07:45.563Z</time></trkpt><trkpt lat="43.3990794" lon="11.2158352"><ele>192.8</ele><time>2026-05-02T10:07:47.489Z</time></trkpt><trkpt lat="43.3991804" lon="11.2158466"><ele>193.39999999999998</ele><time>2026-05-02T10:07:49.491Z</time></trkpt><trkpt lat="43.3992608" lon="11.2158564"><ele>194.0</ele><time>2026-05-02T10:07:52.497Z</time></trkpt><trkpt lat="43.3993314" lon="11.2158525"><ele>194.00000000000003</ele><time>2026-05-02T10:07:55.489Z</time></trkpt><trkpt lat="43.3994202" lon="11.21586"><ele>194.0</ele><time>2026-05-02T10:07:58.491Z</time></trkpt><trkpt lat="43.3995001" lon="11.2158761"><ele>194.0</ele><time>2026-05-02T10:08:01.563Z</time></trkpt><trkpt lat="43.399579" lon="11.2159075"><ele>194.0</ele><time>2026-05-02T10:08:04.488Z</time></trkpt><trkpt lat="43.399654" lon="11.2159363"><ele>194.00000000000003</ele><time>2026-05-02T10:08:07.474Z</time></trkpt><trkpt lat="43.399737" lon="11.2159157"><ele>194.0</ele><time>2026-05-02T10:08:10.558Z</time></trkpt><trkpt lat="43.3998074" lon="11.215866"><ele>194.33333333333334</ele><time>2026-05-02T10:08:13.49Z</time></trkpt><trkpt lat="43.3998817" lon="11.2158112"><ele>194.66666666666669</ele><time>2026-05-02T10:08:16.561Z</time></trkpt><trkpt lat="43.3999356" lon="11.2157654"><ele>195.0</ele><time>2026-05-02T10:08:18.489Z</time></trkpt><trkpt lat="43.400017" lon="11.215709"><ele>195.33333333333331</ele><time>2026-05-02T10:08:21.503Z</time></trkpt><trkpt lat="43.4000975" lon="11.2156609"><ele>195.66666666666666</ele><time>2026-05-02T10:08:24.483Z</time></trkpt><trkpt lat="43.4001856" lon="11.2156365"><ele>196.0</ele><time>2026-05-02T10:08:27.491Z</time></trkpt><trkpt lat="43.4002534" lon="11.2156179"><ele>197.33333333333331</ele><time>2026-05-02T10:08:29.499Z</time></trkpt><trkpt lat="43.4003264" lon="11.2155746"><ele>198.66666666666666</ele><time>2026-05-02T10:08:31.482Z</time></trkpt><trkpt lat="43.400402" lon="11.2155312"><ele>200.0</ele><time>2026-05-02T10:08:33.494Z</time></trkpt><trkpt lat="43.4004796" lon="11.2154935"><ele>201.33333333333331</ele><time>2026-05-02T10:08:35.575Z</time></trkpt><trkpt lat="43.4005928" lon="11.2154464"><ele>202.66666666666666</ele><time>2026-05-02T10:08:37.484Z</time></trkpt><trkpt lat="43.4006508" lon="11.2154096"><ele>204.0</ele><time>2026-05-02T10:08:38.485Z</time></trkpt><trkpt lat="43.4007309" lon="11.2152978"><ele>204.0</ele><time>2026-05-02T10:08:40.569Z</time></trkpt><trkpt lat="43.4008236" lon="11.2152304"><ele>204.0</ele><time>2026-05-02T10:08:42.503Z</time></trkpt><trkpt lat="43.4009" lon="11.2152293"><ele>204.0</ele><time>2026-05-02T10:08:44.493Z</time></trkpt><trkpt lat="43.4009894" lon="11.2152301"><ele>204.0</ele><time>2026-05-02T10:08:47.494Z</time></trkpt><trkpt lat="43.401075" lon="11.2151695"><ele>204.0</ele><time>2026-05-02T10:08:50.565Z</time></trkpt><trkpt lat="43.4011415" lon="11.2151338"><ele>204.0</ele><time>2026-05-02T10:08:52.471Z</time></trkpt><trkpt lat="43.4012058" lon="11.2151119"><ele>204.0</ele><time>2026-05-02T10:08:54.501Z</time></trkpt><trkpt lat="43.4012681" lon="11.2150587"><ele>204.0</ele><time>2026-05-02T10:08:56.567Z</time></trkpt><trkpt lat="43.4013368" lon="11.2150058"><ele>204.0</ele><time>2026-05-02T10:08:58.499Z</time></trkpt><trkpt lat="43.4014148" lon="11.2149731"><ele>204.0</ele><time>2026-05-02T10:09:00.495Z</time></trkpt><trkpt lat="43.4014816" lon="11.2149154"><ele>204.0</ele><time>2026-05-02T10:09:02.491Z</time></trkpt><trkpt lat="43.4015497" lon="11.2148754"><ele>204.0</ele><time>2026-05-02T10:09:04.492Z</time></trkpt><trkpt lat="43.4016167" lon="11.2148332"><ele>205.5</ele><time>2026-05-02T10:09:06.48Z</time></trkpt><trkpt lat="43.4016826" lon="11.2147871"><ele>207.0</ele><time>2026-05-02T10:09:08.491Z</time></trkpt><trkpt lat="43.4017451" lon="11.2147474"><ele>208.5</ele><time>2026-05-02T10:09:10.562Z</time></trkpt><trkpt lat="43.4018049" lon="11.214716"><ele>210.0</ele><time>2026-05-02T10:09:12.491Z</time></trkpt><trkpt lat="43.4018802" lon="11.2146924"><ele>211.5</ele><time>2026-05-02T10:09:14.496Z</time></trkpt><trkpt lat="43.4019724" lon="11.2146672"><ele>213.0</ele><time>2026-05-02T10:09:16.556Z</time></trkpt><trkpt lat="43.4020683" lon="11.2146806"><ele>213.0</ele><time>2026-05-02T10:09:18.502Z</time></trkpt><trkpt lat="43.4021521" lon="11.2146654"><ele>213.0</ele><time>2026-05-02T10:09:20.56Z</time></trkpt><trkpt lat="43.4022255" lon="11.2146291"><ele>213.0</ele><time>2026-05-02T10:09:22.48Z</time></trkpt><trkpt lat="43.4022922" lon="11.214554"><ele>213.0</ele><time>2026-05-02T10:09:24.492Z</time></trkpt><trkpt lat="43.4023547" lon="11.2144889"><ele>213.0</ele><time>2026-05-02T10:09:26.57Z</time></trkpt><trkpt lat="43.4024173" lon="11.2144328"><ele>213.0</ele><time>2026-05-02T10:09:28.502Z</time></trkpt><trkpt lat="43.4024874" lon="11.2143843"><ele>209.4</ele><time>2026-05-02T10:09:30.569Z</time></trkpt><trkpt lat="43.4025714" lon="11.2143236"><ele>205.8</ele><time>2026-05-02T10:09:33.494Z</time></trkpt><trkpt lat="43.4026547" lon="11.214275"><ele>202.2</ele><time>2026-05-02T10:09:35.498Z</time></trkpt><trkpt lat="43.4027533" lon="11.2142122"><ele>198.6</ele><time>2026-05-02T10:09:37.494Z</time></trkpt><trkpt lat="43.4028435" lon="11.2141587"><ele>195.0</ele><time>2026-05-02T10:09:39.494Z</time></trkpt><trkpt lat="43.4029256" lon="11.2141119"><ele>194.33333333333334</ele><time>2026-05-02T10:09:41.471Z</time></trkpt><trkpt lat="43.403016" lon="11.2140609"><ele>193.66666666666666</ele><time>2026-05-02T10:09:43.507Z</time></trkpt><trkpt lat="43.4031003" lon="11.2140174"><ele>193.0</ele><time>2026-05-02T10:09:45.558Z</time></trkpt><trkpt lat="43.4031845" lon="11.2140065"><ele>192.33333333333331</ele><time>2026-05-02T10:09:47.465Z</time></trkpt><trkpt lat="43.4032602" lon="11.2139519"><ele>191.66666666666666</ele><time>2026-05-02T10:09:49.504Z</time></trkpt><trkpt lat="43.4033381" lon="11.2138981"><ele>191.0</ele><time>2026-05-02T10:09:51.576Z</time></trkpt><trkpt lat="43.4034028" lon="11.2138612"><ele>191.0</ele><time>2026-05-02T10:09:53.492Z</time></trkpt><trkpt lat="43.4034712" lon="11.2138168"><ele>191.0</ele><time>2026-05-02T10:09:55.489Z</time></trkpt><trkpt lat="43.4035485" lon="11.2137401"><ele>191.0</ele><time>2026-05-02T10:09:57.487Z</time></trkpt><trkpt lat="43.403601" lon="11.2136876"><ele>191.0</ele><time>2026-05-02T10:09:58.5Z</time></trkpt><trkpt lat="43.4036809" lon="11.2136247"><ele>191.0</ele><time>2026-05-02T10:10:00.557Z</time></trkpt><trkpt lat="43.4037655" lon="11.2135666"><ele>191.0</ele><time>2026-05-02T10:10:02.515Z</time></trkpt><trkpt lat="43.4038549" lon="11.2135446"><ele>190.83333333333331</ele><time>2026-05-02T10:10:04.5Z</time></trkpt><trkpt lat="43.4039358" lon="11.2135375"><ele>190.66666666666666</ele><time>2026-05-02T10:10:06.487Z</time></trkpt><trkpt lat="43.4040212" lon="11.2135976"><ele>190.5</ele><time>2026-05-02T10:10:09.487Z</time></trkpt><trkpt lat="43.4040981" lon="11.2135949"><ele>190.33333333333334</ele><time>2026-05-02T10:10:11.495Z</time></trkpt><trkpt lat="43.4041849" lon="11.2135821"><ele>190.16666666666669</ele><time>2026-05-02T10:10:13.49Z</time></trkpt><trkpt lat="43.4042667" lon="11.213569"><ele>190.0</ele><time>2026-05-02T10:10:15.496Z</time></trkpt><trkpt lat="43.4043468" lon="11.2135537"><ele>190.0</ele><time>2026-05-02T10:10:17.471Z</time></trkpt><trkpt lat="43.4044292" lon="11.2135396"><ele>190.0</ele><time>2026-05-02T10:10:19.489Z</time></trkpt><trkpt lat="43.4045091" lon="11.213532"><ele>190.0</ele><time>2026-05-02T10:10:21.497Z</time></trkpt><trkpt lat="43.4045834" lon="11.213529"><ele>190.0</ele><time>2026-05-02T10:10:23.489Z</time></trkpt><trkpt lat="43.4046583" lon="11.2135225"><ele>190.0</ele><time>2026-05-02T10:10:25.556Z</time></trkpt><trkpt lat="43.4047295" lon="11.2135151"><ele>190.0</ele><time>2026-05-02T10:10:27.503Z</time></trkpt><trkpt lat="43.4047982" lon="11.2135221"><ele>190.0</ele><time>2026-05-02T10:10:29.496Z</time></trkpt><trkpt lat="43.4048696" lon="11.2135123"><ele>190.0</ele><time>2026-05-02T10:10:31.564Z</time></trkpt><trkpt lat="43.4049445" lon="11.2134989"><ele>190.0</ele><time>2026-05-02T10:10:33.494Z</time></trkpt><trkpt lat="43.4050256" lon="11.2134877"><ele>190.0</ele><time>2026-05-02T10:10:35.501Z</time></trkpt><trkpt lat="43.4051089" lon="11.2134792"><ele>190.0</ele><time>2026-05-02T10:10:37.564Z</time></trkpt><trkpt lat="43.4051896" lon="11.2134675"><ele>190.0</ele><time>2026-05-02T10:10:39.493Z</time></trkpt><trkpt lat="43.405257" lon="11.2134883"><ele>190.0</ele><time>2026-05-02T10:10:41.489Z</time></trkpt><trkpt lat="43.4053136" lon="11.2135573"><ele>190.0</ele><time>2026-05-02T10:10:43.511Z</time></trkpt><trkpt lat="43.4053687" lon="11.2136121"><ele>190.0</ele><time>2026-05-02T10:10:45.496Z</time></trkpt><trkpt lat="43.4054528" lon="11.2135988"><ele>190.0</ele><time>2026-05-02T10:10:48.485Z</time></trkpt><trkpt lat="43.4055228" lon="11.2135743"><ele>190.0</ele><time>2026-05-02T10:10:50.5Z</time></trkpt><trkpt lat="43.4055989" lon="11.2135403"><ele>190.0</ele><time>2026-05-02T10:10:52.491Z</time></trkpt><trkpt lat="43.4056858" lon="11.2135101"><ele>189.5</ele><time>2026-05-02T10:10:54.505Z</time></trkpt><trkpt lat="43.4057711" lon="11.2134889"><ele>189.0</ele><time>2026-05-02T10:10:56.567Z</time></trkpt><trkpt lat="43.4058466" lon="11.2134499"><ele>188.5</ele><time>2026-05-02T10:10:58.503Z</time></trkpt><trkpt lat="43.4059183" lon="11.213414"><ele>188.0</ele><time>2026-05-02T10:11:00.497Z</time></trkpt><trkpt lat="43.4059892" lon="11.2133839"><ele>187.5</ele><time>2026-05-02T10:11:02.559Z</time></trkpt><trkpt lat="43.4060712" lon="11.2133882"><ele>187.0</ele><time>2026-05-02T10:11:04.5Z</time></trkpt><trkpt lat="43.4061576" lon="11.2133552"><ele>187.0</ele><time>2026-05-02T10:11:06.556Z</time></trkpt><trkpt lat="43.4062282" lon="11.213322"><ele>187.0</ele><time>2026-05-02T10:11:08.497Z</time></trkpt><trkpt lat="43.4063012" lon="11.213286"><ele>187.0</ele><time>2026-05-02T10:11:10.476Z</time></trkpt><trkpt lat="43.4063709" lon="11.2132549"><ele>187.0</ele><time>2026-05-02T10:11:12.481Z</time></trkpt><trkpt lat="43.4064366" lon="11.2131974"><ele>187.0</ele><time>2026-05-02T10:11:14.487Z</time></trkpt><trkpt lat="43.4065142" lon="11.2131413"><ele>187.0</ele><time>2026-05-02T10:11:16.558Z</time></trkpt><trkpt lat="43.4065866" lon="11.2131142"><ele>187.16666666666669</ele><time>2026-05-02T10:11:18.497Z</time></trkpt><trkpt lat="43.406677" lon="11.2130665"><ele>187.33333333333334</ele><time>2026-05-02T10:11:20.474Z</time></trkpt><trkpt lat="43.4067562" lon="11.2130352"><ele>187.5</ele><time>2026-05-02T10:11:22.517Z</time></trkpt><trkpt lat="43.4068364" lon="11.2130107"><ele>187.66666666666666</ele><time>2026-05-02T10:11:24.501Z</time></trkpt><trkpt lat="43.4069104" lon="11.2129763"><ele>187.83333333333331</ele><time>2026-05-02T10:11:26.557Z</time></trkpt><trkpt lat="43.4069901" lon="11.2129366"><ele>188.0</ele><time>2026-05-02T10:11:28.494Z</time></trkpt><trkpt lat="43.4070678" lon="11.2128936"><ele>188.0</ele><time>2026-05-02T10:11:30.554Z</time></trkpt><trkpt lat="43.407155" lon="11.2128715"><ele>188.0</ele><time>2026-05-02T10:11:32.555Z</time></trkpt><trkpt lat="43.4072567" lon="11.2128409"><ele>188.0</ele><time>2026-05-02T10:11:34.497Z</time></trkpt><trkpt lat="43.4073608" lon="11.2127873"><ele>188.0</ele><time>2026-05-02T10:11:36.561Z</time></trkpt><trkpt lat="43.4074264" lon="11.2127392"><ele>188.0</ele><time>2026-05-02T10:11:38.491Z</time></trkpt><trkpt lat="43.4074874" lon="11.2126816"><ele>188.0</ele><time>2026-05-02T10:11:40.566Z</time></trkpt><trkpt lat="43.4075561" lon="11.212643"><ele>188.0</ele><time>2026-05-02T10:11:42.485Z</time></trkpt><trkpt lat="43.4076292" lon="11.2125963"><ele>188.0</ele><time>2026-05-02T10:11:44.491Z</time></trkpt><trkpt lat="43.4076787" lon="11.2125144"><ele>188.0</ele><time>2026-05-02T10:11:46.558Z</time></trkpt><trkpt lat="43.4077462" lon="11.2123753"><ele>188.0</ele><time>2026-05-02T10:11:48.487Z</time></trkpt><trkpt lat="43.4078062" lon="11.2122528"><ele>188.16666666666666</ele><time>2026-05-02T10:11:50.501Z</time></trkpt><trkpt lat="43.4078378" lon="11.2121673"><ele>188.33333333333331</ele><time>2026-05-02T10:11:53.485Z</time></trkpt><trkpt lat="43.4079055" lon="11.212122"><ele>188.5</ele><time>2026-05-02T10:11:56.501Z</time></trkpt><trkpt lat="43.4079811" lon="11.2120972"><ele>188.66666666666666</ele><time>2026-05-02T10:11:59.492Z</time></trkpt><trkpt lat="43.4080674" lon="11.212068"><ele>188.83333333333334</ele><time>2026-05-02T10:12:02.478Z</time></trkpt><trkpt lat="43.4081493" lon="11.2120372"><ele>189.0</ele><time>2026-05-02T10:12:05.49Z</time></trkpt><trkpt lat="43.4082339" lon="11.2119924"><ele>189.16666666666666</ele><time>2026-05-02T10:12:08.503Z</time></trkpt><trkpt lat="43.4083042" lon="11.2119792"><ele>189.33333333333334</ele><time>2026-05-02T10:12:10.554Z</time></trkpt><trkpt lat="43.4083671" lon="11.2119412"><ele>189.5</ele><time>2026-05-02T10:12:13.508Z</time></trkpt><trkpt lat="43.408417" lon="11.211883"><ele>189.66666666666669</ele><time>2026-05-02T10:12:16.565Z</time></trkpt><trkpt lat="43.408429" lon="11.2117608"><ele>189.83333333333334</ele><time>2026-05-02T10:12:19.491Z</time></trkpt><trkpt lat="43.4084981" lon="11.2116849"><ele>190.0</ele><time>2026-05-02T10:12:22.504Z</time></trkpt><trkpt lat="43.4085586" lon="11.2116407"><ele>190.0</ele><time>2026-05-02T10:12:24.554Z</time></trkpt><trkpt lat="43.4086102" lon="11.21157"><ele>190.0</ele><time>2026-05-02T10:12:26.513Z</time></trkpt><trkpt lat="43.4086525" lon="11.2114852"><ele>190.0</ele><time>2026-05-02T10:12:28.503Z</time></trkpt><trkpt lat="43.4086916" lon="11.2113877"><ele>190.0</ele><time>2026-05-02T10:12:30.475Z</time></trkpt><trkpt lat="43.4087193" lon="11.2112921"><ele>190.0</ele><time>2026-05-02T10:12:32.494Z</time></trkpt><trkpt lat="43.4087507" lon="11.2112087"><ele>190.0</ele><time>2026-05-02T10:12:34.495Z</time></trkpt><trkpt lat="43.4087953" lon="11.211091"><ele>190.16666666666669</ele><time>2026-05-02T10:12:37.495Z</time></trkpt><trkpt lat="43.4088474" lon="11.2110227"><ele>190.33333333333334</ele><time>2026-05-02T10:12:39.509Z</time></trkpt><trkpt lat="43.4089066" lon="11.2109646"><ele>190.5</ele><time>2026-05-02T10:12:41.556Z</time></trkpt><trkpt lat="43.4089923" lon="11.210938"><ele>190.66666666666666</ele><time>2026-05-02T10:12:43.498Z</time></trkpt><trkpt lat="43.4090585" lon="11.2108589"><ele>190.83333333333331</ele><time>2026-05-02T10:12:47.503Z</time></trkpt><trkpt lat="43.4091193" lon="11.2108342"><ele>191.0</ele><time>2026-05-02T10:12:49.481Z</time></trkpt><trkpt lat="43.4092116" lon="11.2108244"><ele>191.0</ele><time>2026-05-02T10:12:52.473Z</time></trkpt><trkpt lat="43.409291" lon="11.2107918"><ele>191.0</ele><time>2026-05-02T10:12:54.502Z</time></trkpt><trkpt lat="43.4093627" lon="11.2107677"><ele>191.0</ele><time>2026-05-02T10:12:56.565Z</time></trkpt><trkpt lat="43.4094247" lon="11.2107247"><ele>191.0</ele><time>2026-05-02T10:12:58.499Z</time></trkpt><trkpt lat="43.4094925" lon="11.2106961"><ele>191.0</ele><time>2026-05-02T10:13:00.566Z</time></trkpt><trkpt lat="43.4095695" lon="11.2106561"><ele>191.0</ele><time>2026-05-02T10:13:02.481Z</time></trkpt><trkpt lat="43.4096376" lon="11.2106294"><ele>191.14285714285714</ele><time>2026-05-02T10:13:04.492Z</time></trkpt><trkpt lat="43.4097033" lon="11.2106061"><ele>191.28571428571428</ele><time>2026-05-02T10:13:06.495Z</time></trkpt><trkpt lat="43.4097704" lon="11.2105848"><ele>191.42857142857142</ele><time>2026-05-02T10:13:08.483Z</time></trkpt><trkpt lat="43.4098406" lon="11.2105632"><ele>191.57142857142856</ele><time>2026-05-02T10:13:10.484Z</time></trkpt><trkpt lat="43.4099072" lon="11.2105341"><ele>191.71428571428572</ele><time>2026-05-02T10:13:12.491Z</time></trkpt><trkpt lat="43.4099731" lon="11.2105073"><ele>191.85714285714283</ele><time>2026-05-02T10:13:14.493Z</time></trkpt><trkpt lat="43.4100393" lon="11.2104845"><ele>192.0</ele><time>2026-05-02T10:13:16.569Z</time></trkpt><trkpt lat="43.4101085" lon="11.2104634"><ele>192.0</ele><time>2026-05-02T10:13:18.486Z</time></trkpt><trkpt lat="43.4101807" lon="11.2104393"><ele>192.0</ele><time>2026-05-02T10:13:20.499Z</time></trkpt><trkpt lat="43.4102425" lon="11.2104206"><ele>192.0</ele><time>2026-05-02T10:13:22.563Z</time></trkpt><trkpt lat="43.4103152" lon="11.21038"><ele>192.0</ele><time>2026-05-02T10:13:25.493Z</time></trkpt><trkpt lat="43.410398" lon="11.2103565"><ele>192.0</ele><time>2026-05-02T10:13:27.491Z</time></trkpt><trkpt lat="43.4104805" lon="11.210319"><ele>192.0</ele><time>2026-05-02T10:13:29.499Z</time></trkpt><trkpt lat="43.4105566" lon="11.2102923"><ele>191.66666666666666</ele><time>2026-05-02T10:13:31.562Z</time></trkpt><trkpt lat="43.4106441" lon="11.2102716"><ele>191.33333333333334</ele><time>2026-05-02T10:13:33.492Z</time></trkpt><trkpt lat="43.4107081" lon="11.2102606"><ele>191.0</ele><time>2026-05-02T10:13:35.488Z</time></trkpt><trkpt lat="43.4107958" lon="11.2102222"><ele>190.66666666666669</ele><time>2026-05-02T10:13:38.491Z</time></trkpt><trkpt lat="43.4108698" lon="11.2101916"><ele>190.33333333333334</ele><time>2026-05-02T10:13:40.499Z</time></trkpt><trkpt lat="43.4109375" lon="11.2101629"><ele>190.0</ele><time>2026-05-02T10:13:42.487Z</time></trkpt><trkpt lat="43.4110066" lon="11.2101355"><ele>190.0</ele><time>2026-05-02T10:13:44.512Z</time></trkpt><trkpt lat="43.4110817" lon="11.2101154"><ele>190.0</ele><time>2026-05-02T10:13:46.492Z</time></trkpt><trkpt lat="43.4111545" lon="11.2101125"><ele>190.0</ele><time>2026-05-02T10:13:48.503Z</time></trkpt><trkpt lat="43.4112224" lon="11.2101368"><ele>190.0</ele><time>2026-05-02T10:13:50.559Z</time></trkpt><trkpt lat="43.4112893" lon="11.2101741"><ele>190.0</ele><time>2026-05-02T10:13:52.49Z</time></trkpt><trkpt lat="43.4113551" lon="11.2102247"><ele>190.0</ele><time>2026-05-02T10:13:54.493Z</time></trkpt><trkpt lat="43.4114153" lon="11.2102713"><ele>190.0</ele><time>2026-05-02T10:13:56.496Z</time></trkpt><trkpt lat="43.4114734" lon="11.2103287"><ele>189.85714285714286</ele><time>2026-05-02T10:13:58.485Z</time></trkpt><trkpt lat="43.4115148" lon="11.2104181"><ele>189.71428571428572</ele><time>2026-05-02T10:14:00.482Z</time></trkpt><trkpt lat="43.4115489" lon="11.2104942"><ele>189.57142857142856</ele><time>2026-05-02T10:14:02.491Z</time></trkpt><trkpt lat="43.4115931" lon="11.2105966"><ele>189.42857142857144</ele><time>2026-05-02T10:14:04.477Z</time></trkpt><trkpt lat="43.4116205" lon="11.2106892"><ele>189.28571428571428</ele><time>2026-05-02T10:14:06.489Z</time></trkpt><trkpt lat="43.4116581" lon="11.2107728"><ele>189.14285714285714</ele><time>2026-05-02T10:14:08.508Z</time></trkpt><trkpt lat="43.411691" lon="11.210848"><ele>189.0</ele><time>2026-05-02T10:14:10.559Z</time></trkpt><trkpt lat="43.4117405" lon="11.2109683"><ele>189.0</ele><time>2026-05-02T10:14:12.501Z</time></trkpt><trkpt lat="43.4117796" lon="11.2110375"><ele>189.0</ele><time>2026-05-02T10:14:14.483Z</time></trkpt><trkpt lat="43.4118032" lon="11.2111347"><ele>189.0</ele><time>2026-05-02T10:14:17.491Z</time></trkpt><trkpt lat="43.4118197" lon="11.2112377"><ele>189.0</ele><time>2026-05-02T10:14:20.499Z</time></trkpt><trkpt lat="43.4118324" lon="11.2113236"><ele>189.0</ele><time>2026-05-02T10:14:23.5Z</time></trkpt><trkpt lat="43.4118918" lon="11.2114138"><ele>189.0</ele><time>2026-05-02T10:14:26.493Z</time></trkpt><trkpt lat="43.4119728" lon="11.2113845"><ele>189.0</ele><time>2026-05-02T10:14:28.496Z</time></trkpt><trkpt lat="43.4120439" lon="11.2113645"><ele>189.0</ele><time>2026-05-02T10:14:30.489Z</time></trkpt><trkpt lat="43.4121176" lon="11.2113768"><ele>189.0</ele><time>2026-05-02T10:14:32.492Z</time></trkpt><trkpt lat="43.4121867" lon="11.2113469"><ele>189.0</ele><time>2026-05-02T10:14:34.484Z</time></trkpt><trkpt lat="43.4122752" lon="11.2112898"><ele>189.0</ele><time>2026-05-02T10:14:36.585Z</time></trkpt><trkpt lat="43.4123659" lon="11.2112441"><ele>189.0</ele><time>2026-05-02T10:14:38.482Z</time></trkpt><trkpt lat="43.4124544" lon="11.2111969"><ele>188.79999999999998</ele><time>2026-05-02T10:14:40.565Z</time></trkpt><trkpt lat="43.4125393" lon="11.2111306"><ele>188.6</ele><time>2026-05-02T10:14:42.482Z</time></trkpt><trkpt lat="43.4126227" lon="11.211084"><ele>188.4</ele><time>2026-05-02T10:14:44.503Z</time></trkpt><trkpt lat="43.412712" lon="11.2110325"><ele>188.2</ele><time>2026-05-02T10:14:46.555Z</time></trkpt><trkpt lat="43.4127985" lon="11.2109846"><ele>188.0</ele><time>2026-05-02T10:14:48.492Z</time></trkpt><trkpt lat="43.4128852" lon="11.2109247"><ele>188.0</ele><time>2026-05-02T10:14:50.495Z</time></trkpt><trkpt lat="43.4129822" lon="11.2108729"><ele>188.0</ele><time>2026-05-02T10:14:52.501Z</time></trkpt><trkpt lat="43.4130517" lon="11.21084"><ele>188.0</ele><time>2026-05-02T10:14:54.482Z</time></trkpt><trkpt lat="43.4131197" lon="11.2107942"><ele>188.0</ele><time>2026-05-02T10:14:56.493Z</time></trkpt><trkpt lat="43.4131897" lon="11.2107653"><ele>188.0</ele><time>2026-05-02T10:14:58.505Z</time></trkpt><trkpt lat="43.4132664" lon="11.210747"><ele>188.0</ele><time>2026-05-02T10:15:00.516Z</time></trkpt><trkpt lat="43.4133455" lon="11.210711"><ele>187.66666666666666</ele><time>2026-05-02T10:15:02.56Z</time></trkpt><trkpt lat="43.4134402" lon="11.2106576"><ele>187.33333333333331</ele><time>2026-05-02T10:15:04.492Z</time></trkpt><trkpt lat="43.4135272" lon="11.2106359"><ele>187.0</ele><time>2026-05-02T10:15:06.481Z</time></trkpt><trkpt lat="43.4136071" lon="11.2106275"><ele>186.66666666666666</ele><time>2026-05-02T10:15:08.474Z</time></trkpt><trkpt lat="43.4136823" lon="11.2106268"><ele>186.33333333333334</ele><time>2026-05-02T10:15:10.571Z</time></trkpt><trkpt lat="43.4137648" lon="11.2106378"><ele>186.0</ele><time>2026-05-02T10:15:12.49Z</time></trkpt><trkpt lat="43.4138296" lon="11.210654"><ele>186.0</ele><time>2026-05-02T10:15:14.497Z</time></trkpt><trkpt lat="43.4138926" lon="11.2106559"><ele>186.0</ele><time>2026-05-02T10:15:16.568Z</time></trkpt><trkpt lat="43.4139602" lon="11.2106914"><ele>186.0</ele><time>2026-05-02T10:15:18.501Z</time></trkpt><trkpt lat="43.4140519" lon="11.2107394"><ele>186.0</ele><time>2026-05-02T10:15:20.469Z</time></trkpt><trkpt lat="43.4141116" lon="11.2107683"><ele>186.0</ele><time>2026-05-02T10:15:21.561Z</time></trkpt><trkpt lat="43.4142058" lon="11.21082"><ele>186.0</ele><time>2026-05-02T10:15:23.491Z</time></trkpt><trkpt lat="43.4142764" lon="11.2107973"><ele>186.0</ele><time>2026-05-02T10:15:24.5Z</time></trkpt><trkpt lat="43.4143432" lon="11.2108078"><ele>186.0</ele><time>2026-05-02T10:15:25.497Z</time></trkpt><trkpt lat="43.4144402" lon="11.2108362"><ele>186.0</ele><time>2026-05-02T10:15:27.501Z</time></trkpt><trkpt lat="43.4145437" lon="11.2108734"><ele>186.0</ele><time>2026-05-02T10:15:29.493Z</time></trkpt><trkpt lat="43.4146481" lon="11.2109109"><ele>186.0</ele><time>2026-05-02T10:15:31.499Z</time></trkpt><trkpt lat="43.4147466" lon="11.2109512"><ele>186.0</ele><time>2026-05-02T10:15:33.479Z</time></trkpt><trkpt lat="43.4148488" lon="11.2109924"><ele>186.0</ele><time>2026-05-02T10:15:35.476Z</time></trkpt><trkpt lat="43.4149543" lon="11.2110298"><ele>186.0</ele><time>2026-05-02T10:15:37.478Z</time></trkpt><trkpt lat="43.4150528" lon="11.2110606"><ele>186.0</ele><time>2026-05-02T10:15:39.502Z</time></trkpt><trkpt lat="43.415148" lon="11.2110987"><ele>186.0</ele><time>2026-05-02T10:15:41.484Z</time></trkpt><trkpt lat="43.4152291" lon="11.2111387"><ele>186.0</ele><time>2026-05-02T10:15:43.5Z</time></trkpt><trkpt lat="43.4153213" lon="11.2111671"><ele>186.0</ele><time>2026-05-02T10:15:45.564Z</time></trkpt><trkpt lat="43.4153972" lon="11.2111839"><ele>186.0</ele><time>2026-05-02T10:15:47.506Z</time></trkpt><trkpt lat="43.4154889" lon="11.211234"><ele>186.0</ele><time>2026-05-02T10:15:49.487Z</time></trkpt><trkpt lat="43.4156026" lon="11.211229"><ele>186.0</ele><time>2026-05-02T10:15:51.542Z</time></trkpt><trkpt lat="43.415698" lon="11.2112552"><ele>185.8</ele><time>2026-05-02T10:15:53.513Z</time></trkpt><trkpt lat="43.4157844" lon="11.2113197"><ele>185.60000000000002</ele><time>2026-05-02T10:15:55.56Z</time></trkpt><trkpt lat="43.4158856" lon="11.2113685"><ele>185.4</ele><time>2026-05-02T10:15:57.562Z</time></trkpt><trkpt lat="43.4159924" lon="11.2114228"><ele>185.2</ele><time>2026-05-02T10:15:59.506Z</time></trkpt><trkpt lat="43.4160585" lon="11.2114738"><ele>185.0</ele><time>2026-05-02T10:16:01.495Z</time></trkpt><trkpt lat="43.4160922" lon="11.2115652"><ele>185.0</ele><time>2026-05-02T10:16:03.496Z</time></trkpt><trkpt lat="43.416138" lon="11.2116913"><ele>185.0</ele><time>2026-05-02T10:16:05.489Z</time></trkpt><trkpt lat="43.416201" lon="11.2118188"><ele>185.0</ele><time>2026-05-02T10:16:07.494Z</time></trkpt><trkpt lat="43.4162641" lon="11.2119585"><ele>185.0</ele><time>2026-05-02T10:16:09.495Z</time></trkpt><trkpt lat="43.4162955" lon="11.2120369"><ele>185.0</ele><time>2026-05-02T10:16:10.555Z</time></trkpt><trkpt lat="43.4163295" lon="11.2121121"><ele>184.16666666666666</ele><time>2026-05-02T10:16:11.502Z</time></trkpt><trkpt lat="43.416362" lon="11.2121881"><ele>183.33333333333331</ele><time>2026-05-02T10:16:12.488Z</time></trkpt><trkpt lat="43.416394" lon="11.2122659"><ele>182.5</ele><time>2026-05-02T10:16:13.497Z</time></trkpt><trkpt lat="43.4164246" lon="11.2123428"><ele>181.66666666666666</ele><time>2026-05-02T10:16:14.484Z</time></trkpt><trkpt lat="43.416454" lon="11.2124231"><ele>180.83333333333334</ele><time>2026-05-02T10:16:15.497Z</time></trkpt><trkpt lat="43.4164788" lon="11.212503"><ele>180.0</ele><time>2026-05-02T10:16:16.557Z</time></trkpt><trkpt lat="43.4165384" lon="11.2126597"><ele>180.0</ele><time>2026-05-02T10:16:18.5Z</time></trkpt><trkpt lat="43.4165971" lon="11.2128084"><ele>180.0</ele><time>2026-05-02T10:16:20.485Z</time></trkpt><trkpt lat="43.4166511" lon="11.2129563"><ele>180.0</ele><time>2026-05-02T10:16:22.474Z</time></trkpt><trkpt lat="43.4167097" lon="11.2131043"><ele>180.0</ele><time>2026-05-02T10:16:24.493Z</time></trkpt><trkpt lat="43.4167655" lon="11.213259"><ele>179.8</ele><time>2026-05-02T10:16:26.475Z</time></trkpt><trkpt lat="43.4167904" lon="11.2133447"><ele>179.6</ele><time>2026-05-02T10:16:27.491Z</time></trkpt><trkpt lat="43.4168398" lon="11.2134739"><ele>179.39999999999998</ele><time>2026-05-02T10:16:29.502Z</time></trkpt><trkpt lat="43.4168992" lon="11.2135935"><ele>179.2</ele><time>2026-05-02T10:16:31.575Z</time></trkpt><trkpt lat="43.4169514" lon="11.2137102"><ele>179.0</ele><time>2026-05-02T10:16:33.489Z</time></trkpt><trkpt lat="43.4170141" lon="11.2138418"><ele>179.0</ele><time>2026-05-02T10:16:35.479Z</time></trkpt><trkpt lat="43.4170621" lon="11.2139716"><ele>179.0</ele><time>2026-05-02T10:16:37.468Z</time></trkpt><trkpt lat="43.417115" lon="11.2140949"><ele>179.0</ele><time>2026-05-02T10:16:39.471Z</time></trkpt><trkpt lat="43.4171674" lon="11.2142152"><ele>179.0</ele><time>2026-05-02T10:16:41.5Z</time></trkpt><trkpt lat="43.4172241" lon="11.2143428"><ele>179.0</ele><time>2026-05-02T10:16:43.483Z</time></trkpt><trkpt lat="43.4172761" lon="11.2144725"><ele>178.5</ele><time>2026-05-02T10:16:45.476Z</time></trkpt><trkpt lat="43.4173328" lon="11.214605"><ele>178.0</ele><time>2026-05-02T10:16:47.469Z</time></trkpt><trkpt lat="43.4173907" lon="11.2147432"><ele>177.5</ele><time>2026-05-02T10:16:49.486Z</time></trkpt><trkpt lat="43.4174457" lon="11.2148815"><ele>177.0</ele><time>2026-05-02T10:16:51.482Z</time></trkpt><trkpt lat="43.4175048" lon="11.2150233"><ele>177.0</ele><time>2026-05-02T10:16:53.489Z</time></trkpt><trkpt lat="43.4175714" lon="11.2151619"><ele>177.0</ele><time>2026-05-02T10:16:55.566Z</time></trkpt><trkpt lat="43.4176027" lon="11.2152435"><ele>177.0</ele><time>2026-05-02T10:16:56.473Z</time></trkpt><trkpt lat="43.4176465" lon="11.2154069"><ele>177.0</ele><time>2026-05-02T10:16:58.503Z</time></trkpt><trkpt lat="43.4176776" lon="11.2154829"><ele>177.0</ele><time>2026-05-02T10:16:59.509Z</time></trkpt><trkpt lat="43.4177387" lon="11.2156262"><ele>177.39999999999998</ele><time>2026-05-02T10:17:01.47Z</time></trkpt><trkpt lat="43.417792" lon="11.2157633"><ele>177.79999999999998</ele><time>2026-05-02T10:17:03.488Z</time></trkpt><trkpt lat="43.4178505" lon="11.2158906"><ele>178.2</ele><time>2026-05-02T10:17:05.501Z</time></trkpt><trkpt lat="43.4178977" lon="11.2160424"><ele>178.6</ele><time>2026-05-02T10:17:07.583Z</time></trkpt><trkpt lat="43.417954" lon="11.2161521"><ele>179.0</ele><time>2026-05-02T10:17:09.491Z</time></trkpt><trkpt lat="43.418004" lon="11.2162609"><ele>179.2857142857143</ele><time>2026-05-02T10:17:12.499Z</time></trkpt><trkpt lat="43.4180424" lon="11.2163533"><ele>179.57142857142858</ele><time>2026-05-02T10:17:14.505Z</time></trkpt><trkpt lat="43.4180754" lon="11.2164445"><ele>179.85714285714286</ele><time>2026-05-02T10:17:16.506Z</time></trkpt><trkpt lat="43.4181072" lon="11.2165336"><ele>180.14285714285717</ele><time>2026-05-02T10:17:18.474Z</time></trkpt><trkpt lat="43.4181403" lon="11.2166199"><ele>180.42857142857142</ele><time>2026-05-02T10:17:20.502Z</time></trkpt><trkpt lat="43.4181711" lon="11.2167114"><ele>180.71428571428572</ele><time>2026-05-02T10:17:22.473Z</time></trkpt><trkpt lat="43.4182081" lon="11.2168025"><ele>181.0</ele><time>2026-05-02T10:17:24.502Z</time></trkpt><trkpt lat="43.4182454" lon="11.216888"><ele>181.57142857142856</ele><time>2026-05-02T10:17:26.562Z</time></trkpt><trkpt lat="43.4182786" lon="11.21697"><ele>182.14285714285714</ele><time>2026-05-02T10:17:28.508Z</time></trkpt><trkpt lat="43.4183099" lon="11.2170535"><ele>182.71428571428572</ele><time>2026-05-02T10:17:30.564Z</time></trkpt><trkpt lat="43.4183443" lon="11.2171369"><ele>183.28571428571428</ele><time>2026-05-02T10:17:32.498Z</time></trkpt><trkpt lat="43.418395" lon="11.2172264"><ele>183.85714285714286</ele><time>2026-05-02T10:17:34.49Z</time></trkpt><trkpt lat="43.4184232" lon="11.2173149"><ele>184.42857142857142</ele><time>2026-05-02T10:17:36.575Z</time></trkpt><trkpt lat="43.4184413" lon="11.2174186"><ele>185.0</ele><time>2026-05-02T10:17:38.486Z</time></trkpt><trkpt lat="43.4184578" lon="11.2175145"><ele>185.42857142857142</ele><time>2026-05-02T10:17:40.575Z</time></trkpt><trkpt lat="43.4184827" lon="11.2175943"><ele>185.85714285714286</ele><time>2026-05-02T10:17:42.487Z</time></trkpt><trkpt lat="43.4185258" lon="11.2176789"><ele>186.28571428571428</ele><time>2026-05-02T10:17:44.488Z</time></trkpt><trkpt lat="43.4185636" lon="11.2177579"><ele>186.71428571428572</ele><time>2026-05-02T10:17:46.498Z</time></trkpt><trkpt lat="43.4186169" lon="11.2178303"><ele>187.14285714285714</ele><time>2026-05-02T10:17:48.485Z</time></trkpt><trkpt lat="43.418658" lon="11.2179132"><ele>187.57142857142856</ele><time>2026-05-02T10:17:50.512Z</time></trkpt><trkpt lat="43.4186844" lon="11.2180147"><ele>188.0</ele><time>2026-05-02T10:17:53.491Z</time></trkpt><trkpt lat="43.418724" lon="11.2181147"><ele>188.60000000000002</ele><time>2026-05-02T10:17:56.511Z</time></trkpt><trkpt lat="43.4187652" lon="11.2182104"><ele>189.20000000000002</ele><time>2026-05-02T10:17:59.521Z</time></trkpt><trkpt lat="43.4188276" lon="11.2183614"><ele>189.8</ele><time>2026-05-02T10:18:03.499Z</time></trkpt><trkpt lat="43.4188606" lon="11.2184392"><ele>190.4</ele><time>2026-05-02T10:18:05.483Z</time></trkpt><trkpt lat="43.4188982" lon="11.2185474"><ele>191.0</ele><time>2026-05-02T10:18:08.484Z</time></trkpt><trkpt lat="43.4189585" lon="11.2186433"><ele>191.0</ele><time>2026-05-02T10:18:11.473Z</time></trkpt><trkpt lat="43.4190181" lon="11.2187307"><ele>191.0</ele><time>2026-05-02T10:18:14.499Z</time></trkpt><trkpt lat="43.4190687" lon="11.2188118"><ele>191.0</ele><time>2026-05-02T10:18:17.51Z</time></trkpt><trkpt lat="43.4191172" lon="11.2188925"><ele>191.0</ele><time>2026-05-02T10:18:20.497Z</time></trkpt><trkpt lat="43.4191646" lon="11.2189713"><ele>191.0</ele><time>2026-05-02T10:18:22.571Z</time></trkpt><trkpt lat="43.4192116" lon="11.2190495"><ele>191.0</ele><time>2026-05-02T10:18:24.495Z</time></trkpt><trkpt lat="43.419256" lon="11.2191315"><ele>191.2857142857143</ele><time>2026-05-02T10:18:26.504Z</time></trkpt><trkpt lat="43.4192981" lon="11.2192078"><ele>191.57142857142856</ele><time>2026-05-02T10:18:28.496Z</time></trkpt><trkpt lat="43.4193367" lon="11.2192834"><ele>191.85714285714286</ele><time>2026-05-02T10:18:30.491Z</time></trkpt><trkpt lat="43.4193698" lon="11.2193591"><ele>192.14285714285717</ele><time>2026-05-02T10:18:32.492Z</time></trkpt><trkpt lat="43.4194023" lon="11.2194384"><ele>192.42857142857144</ele><time>2026-05-02T10:18:34.507Z</time></trkpt><trkpt lat="43.4194332" lon="11.2195177"><ele>192.71428571428572</ele><time>2026-05-02T10:18:36.496Z</time></trkpt><trkpt lat="43.4194693" lon="11.2195932"><ele>193.0</ele><time>2026-05-02T10:18:38.491Z</time></trkpt><trkpt lat="43.4195088" lon="11.2196665"><ele>192.99999999999997</ele><time>2026-05-02T10:18:40.473Z</time></trkpt><trkpt lat="43.419544" lon="11.219788"><ele>193.0</ele><time>2026-05-02T10:18:43.505Z</time></trkpt><trkpt lat="43.4195566" lon="11.2198815"><ele>193.0</ele><time>2026-05-02T10:18:45.501Z</time></trkpt><trkpt lat="43.4195906" lon="11.2199973"><ele>193.0</ele><time>2026-05-02T10:18:48.488Z</time></trkpt><trkpt lat="43.4196204" lon="11.2201013"><ele>192.99999999999997</ele><time>2026-05-02T10:18:50.51Z</time></trkpt><trkpt lat="43.4196287" lon="11.2201955"><ele>193.0</ele><time>2026-05-02T10:18:52.555Z</time></trkpt><trkpt lat="43.4196395" lon="11.2202872"><ele>193.14285714285717</ele><time>2026-05-02T10:18:54.49Z</time></trkpt><trkpt lat="43.4196477" lon="11.2203772"><ele>193.28571428571428</ele><time>2026-05-02T10:18:56.474Z</time></trkpt><trkpt lat="43.4196617" lon="11.2204664"><ele>193.42857142857144</ele><time>2026-05-02T10:18:58.498Z</time></trkpt><trkpt lat="43.4196716" lon="11.2205562"><ele>193.57142857142858</ele><time>2026-05-02T10:19:00.498Z</time></trkpt><trkpt lat="43.4196818" lon="11.2206427"><ele>193.71428571428572</ele><time>2026-05-02T10:19:02.484Z</time></trkpt><trkpt lat="43.4196959" lon="11.2207294"><ele>193.85714285714286</ele><time>2026-05-02T10:19:04.493Z</time></trkpt><trkpt lat="43.4197076" lon="11.2208179"><ele>194.0</ele><time>2026-05-02T10:19:06.497Z</time></trkpt><trkpt lat="43.4197203" lon="11.2209039"><ele>194.66666666666669</ele><time>2026-05-02T10:19:08.492Z</time></trkpt><trkpt lat="43.4197392" lon="11.221031"><ele>195.33333333333334</ele><time>2026-05-02T10:19:11.479Z</time></trkpt><trkpt lat="43.4197639" lon="11.221146"><ele>196.0</ele><time>2026-05-02T10:19:14.502Z</time></trkpt><trkpt lat="43.4197733" lon="11.2212571"><ele>196.66666666666669</ele><time>2026-05-02T10:19:17.472Z</time></trkpt><trkpt lat="43.4197938" lon="11.2213402"><ele>197.33333333333334</ele><time>2026-05-02T10:19:19.491Z</time></trkpt><trkpt lat="43.4198122" lon="11.2214332"><ele>198.0</ele><time>2026-05-02T10:19:21.491Z</time></trkpt><trkpt lat="43.4198376" lon="11.2215488"><ele>198.2857142857143</ele><time>2026-05-02T10:19:24.576Z</time></trkpt><trkpt lat="43.4198745" lon="11.2216695"><ele>198.57142857142856</ele><time>2026-05-02T10:19:27.491Z</time></trkpt><trkpt lat="43.4199042" lon="11.2217486"><ele>198.85714285714286</ele><time>2026-05-02T10:19:29.503Z</time></trkpt><trkpt lat="43.4199372" lon="11.2218302"><ele>199.14285714285717</ele><time>2026-05-02T10:19:31.571Z</time></trkpt><trkpt lat="43.4199728" lon="11.221915"><ele>199.42857142857144</ele><time>2026-05-02T10:19:33.492Z</time></trkpt><trkpt lat="43.4200047" lon="11.2219922"><ele>199.71428571428572</ele><time>2026-05-02T10:19:35.499Z</time></trkpt><trkpt lat="43.4200484" lon="11.2220759"><ele>200.0</ele><time>2026-05-02T10:19:37.49Z</time></trkpt><trkpt lat="43.4200982" lon="11.2221559"><ele>200.00000000000003</ele><time>2026-05-02T10:19:39.474Z</time></trkpt><trkpt lat="43.4201463" lon="11.2222376"><ele>200.0</ele><time>2026-05-02T10:19:41.489Z</time></trkpt><trkpt lat="43.420194" lon="11.2223228"><ele>200.0</ele><time>2026-05-02T10:19:43.492Z</time></trkpt><trkpt lat="43.4202481" lon="11.2224037"><ele>200.0</ele><time>2026-05-02T10:19:45.581Z</time></trkpt><trkpt lat="43.4202997" lon="11.2224793"><ele>200.00000000000003</ele><time>2026-05-02T10:19:47.508Z</time></trkpt><trkpt lat="43.4203586" lon="11.222557"><ele>200.0</ele><time>2026-05-02T10:19:49.513Z</time></trkpt><trkpt lat="43.4204234" lon="11.2226207"><ele>200.00000000000003</ele><time>2026-05-02T10:19:51.502Z</time></trkpt><trkpt lat="43.420474" lon="11.2226851"><ele>200.0</ele><time>2026-05-02T10:19:53.495Z</time></trkpt><trkpt lat="43.4205505" lon="11.2227408"><ele>200.0</ele><time>2026-05-02T10:19:55.497Z</time></trkpt><trkpt lat="43.4206156" lon="11.2228198"><ele>200.0</ele><time>2026-05-02T10:19:57.49Z</time></trkpt><trkpt lat="43.4206798" lon="11.2229025"><ele>200.00000000000003</ele><time>2026-05-02T10:19:59.498Z</time></trkpt><trkpt lat="43.4207404" lon="11.2229648"><ele>200.0</ele><time>2026-05-02T10:20:01.561Z</time></trkpt><trkpt lat="43.4208011" lon="11.223012"><ele>200.00000000000003</ele><time>2026-05-02T10:20:03.494Z</time></trkpt><trkpt lat="43.4208939" lon="11.2230535"><ele>200.0</ele><time>2026-05-02T10:20:06.489Z</time></trkpt><trkpt lat="43.4209636" lon="11.2231193"><ele>200.0</ele><time>2026-05-02T10:20:08.509Z</time></trkpt><trkpt lat="43.4210138" lon="11.223192"><ele>200.0</ele><time>2026-05-02T10:20:10.504Z</time></trkpt><trkpt lat="43.4210523" lon="11.2232657"><ele>200.00000000000003</ele><time>2026-05-02T10:20:12.494Z</time></trkpt><trkpt lat="43.421097" lon="11.2233325"><ele>200.0</ele><time>2026-05-02T10:20:14.5Z</time></trkpt><trkpt lat="43.421163" lon="11.2234247"><ele>200.00000000000003</ele><time>2026-05-02T10:20:17.488Z</time></trkpt><trkpt lat="43.4212148" lon="11.2235171"><ele>200.0</ele><time>2026-05-02T10:20:20.472Z</time></trkpt><trkpt lat="43.4212566" lon="11.223602"><ele>200.0</ele><time>2026-05-02T10:20:23.498Z</time></trkpt><trkpt lat="43.4212838" lon="11.2236936"><ele>200.0</ele><time>2026-05-02T10:20:26.471Z</time></trkpt><trkpt lat="43.4213062" lon="11.2238058"><ele>200.00000000000003</ele><time>2026-05-02T10:20:29.509Z</time></trkpt><trkpt lat="43.421334" lon="11.2238837"><ele>200.0</ele><time>2026-05-02T10:20:31.561Z</time></trkpt><trkpt lat="43.4213773" lon="11.2240057"><ele>200.00000000000003</ele><time>2026-05-02T10:20:33.495Z</time></trkpt><trkpt lat="43.4214153" lon="11.2241014"><ele>200.0</ele><time>2026-05-02T10:20:36.577Z</time></trkpt><trkpt lat="43.4214434" lon="11.2241851"><ele>200.0</ele><time>2026-05-02T10:20:38.49Z</time></trkpt><trkpt lat="43.421465" lon="11.2242733"><ele>200.0</ele><time>2026-05-02T10:20:40.498Z</time></trkpt><trkpt lat="43.4214867" lon="11.2243691"><ele>200.0</ele><time>2026-05-02T10:20:42.497Z</time></trkpt><trkpt lat="43.4215058" lon="11.2244526"><ele>200.00000000000003</ele><time>2026-05-02T10:20:44.505Z</time></trkpt><trkpt lat="43.4215243" lon="11.2245421"><ele>200.0</ele><time>2026-05-02T10:20:46.474Z</time></trkpt><trkpt lat="43.4215501" lon="11.2246323"><ele>200.00000000000003</ele><time>2026-05-02T10:20:48.502Z</time></trkpt><trkpt lat="43.4215799" lon="11.2247222"><ele>200.0</ele><time>2026-05-02T10:20:50.503Z</time></trkpt><trkpt lat="43.421606" lon="11.2248051"><ele>200.0</ele><time>2026-05-02T10:20:52.502Z</time></trkpt><trkpt lat="43.4216255" lon="11.2248997"><ele>200.0</ele><time>2026-05-02T10:20:54.49Z</time></trkpt><trkpt lat="43.4216534" lon="11.2249984"><ele>200.0</ele><time>2026-05-02T10:20:56.492Z</time></trkpt><trkpt lat="43.42168" lon="11.2250892"><ele>200.00000000000003</ele><time>2026-05-02T10:20:58.482Z</time></trkpt><trkpt lat="43.4217082" lon="11.2251911"><ele>200.0</ele><time>2026-05-02T10:21:00.576Z</time></trkpt><trkpt lat="43.4217234" lon="11.2252802"><ele>199.85714285714286</ele><time>2026-05-02T10:21:02.484Z</time></trkpt><trkpt lat="43.4217444" lon="11.2253708"><ele>199.71428571428572</ele><time>2026-05-02T10:21:04.495Z</time></trkpt><trkpt lat="43.421769" lon="11.2254536"><ele>199.57142857142856</ele><time>2026-05-02T10:21:06.58Z</time></trkpt><trkpt lat="43.4218321" lon="11.2255163"><ele>199.42857142857144</ele><time>2026-05-02T10:21:09.503Z</time></trkpt><trkpt lat="43.4219085" lon="11.2255441"><ele>199.28571428571428</ele><time>2026-05-02T10:21:12.572Z</time></trkpt><trkpt lat="43.4219763" lon="11.2255781"><ele>199.14285714285714</ele><time>2026-05-02T10:21:15.484Z</time></trkpt><trkpt lat="43.422047" lon="11.2255554"><ele>199.0</ele><time>2026-05-02T10:21:18.509Z</time></trkpt><trkpt lat="43.4221321" lon="11.2255525"><ele>198.42857142857142</ele><time>2026-05-02T10:21:21.493Z</time></trkpt><trkpt lat="43.4221943" lon="11.2255376"><ele>197.85714285714286</ele><time>2026-05-02T10:21:23.493Z</time></trkpt><trkpt lat="43.4222621" lon="11.2255179"><ele>197.28571428571428</ele><time>2026-05-02T10:21:25.487Z</time></trkpt><trkpt lat="43.4223278" lon="11.2254882"><ele>196.71428571428572</ele><time>2026-05-02T10:21:27.487Z</time></trkpt><trkpt lat="43.4224019" lon="11.2254595"><ele>196.14285714285714</ele><time>2026-05-02T10:21:29.485Z</time></trkpt><trkpt lat="43.4224708" lon="11.2254373"><ele>195.57142857142856</ele><time>2026-05-02T10:21:31.562Z</time></trkpt><trkpt lat="43.4225404" lon="11.2254435"><ele>195.0</ele><time>2026-05-02T10:21:33.502Z</time></trkpt><trkpt lat="43.4226398" lon="11.225409"><ele>195.0</ele><time>2026-05-02T10:21:35.502Z</time></trkpt><trkpt lat="43.4227405" lon="11.2253667"><ele>195.0</ele><time>2026-05-02T10:21:37.561Z</time></trkpt><trkpt lat="43.4228007" lon="11.2253315"><ele>195.0</ele><time>2026-05-02T10:21:38.486Z</time></trkpt><trkpt lat="43.4228637" lon="11.2253074"><ele>195.0</ele><time>2026-05-02T10:21:39.512Z</time></trkpt><trkpt lat="43.4229481" lon="11.2252891"><ele>195.0</ele><time>2026-05-02T10:21:42.58Z</time></trkpt><trkpt lat="43.4230266" lon="11.2252672"><ele>195.0</ele><time>2026-05-02T10:21:44.496Z</time></trkpt><trkpt lat="43.4231147" lon="11.2252358"><ele>195.0</ele><time>2026-05-02T10:21:46.579Z</time></trkpt><trkpt lat="43.4232091" lon="11.2251869"><ele>195.0</ele><time>2026-05-02T10:21:48.495Z</time></trkpt><trkpt lat="43.423311" lon="11.2251476"><ele>195.0</ele><time>2026-05-02T10:21:50.471Z</time></trkpt><trkpt lat="43.4234014" lon="11.225131"><ele>195.0</ele><time>2026-05-02T10:21:52.569Z</time></trkpt><trkpt lat="43.4234932" lon="11.2251137"><ele>195.0</ele><time>2026-05-02T10:21:54.5Z</time></trkpt><trkpt lat="43.4235864" lon="11.2250935"><ele>195.0</ele><time>2026-05-02T10:21:56.491Z</time></trkpt><trkpt lat="43.4236889" lon="11.2250598"><ele>195.0</ele><time>2026-05-02T10:21:58.493Z</time></trkpt><trkpt lat="43.423801" lon="11.2250265"><ele>195.0</ele><time>2026-05-02T10:22:00.492Z</time></trkpt><trkpt lat="43.423895" lon="11.2250022"><ele>195.0</ele><time>2026-05-02T10:22:02.509Z</time></trkpt><trkpt lat="43.4239849" lon="11.2249804"><ele>195.0</ele><time>2026-05-02T10:22:04.489Z</time></trkpt><trkpt lat="43.4240609" lon="11.2249559"><ele>195.0</ele><time>2026-05-02T10:22:06.579Z</time></trkpt><trkpt lat="43.4241363" lon="11.2249283"><ele>195.0</ele><time>2026-05-02T10:22:08.492Z</time></trkpt><trkpt lat="43.4242041" lon="11.2249005"><ele>195.0</ele><time>2026-05-02T10:22:10.501Z</time></trkpt><trkpt lat="43.4242745" lon="11.2249128"><ele>195.0</ele><time>2026-05-02T10:22:12.485Z</time></trkpt><trkpt lat="43.4243534" lon="11.2249318"><ele>195.0</ele><time>2026-05-02T10:22:15.496Z</time></trkpt><trkpt lat="43.4244206" lon="11.2249107"><ele>195.0</ele><time>2026-05-02T10:22:17.484Z</time></trkpt><trkpt lat="43.4244802" lon="11.2248778"><ele>195.0</ele><time>2026-05-02T10:22:18.5Z</time></trkpt><trkpt lat="43.4245615" lon="11.2248625"><ele>195.0</ele><time>2026-05-02T10:22:20.498Z</time></trkpt><trkpt lat="43.4246283" lon="11.2248377"><ele>195.0</ele><time>2026-05-02T10:22:22.572Z</time></trkpt><trkpt lat="43.4246931" lon="11.2248054"><ele>195.0</ele><time>2026-05-02T10:22:24.509Z</time></trkpt><trkpt lat="43.4247724" lon="11.2247653"><ele>195.0</ele><time>2026-05-02T10:22:27.489Z</time></trkpt><trkpt lat="43.4248435" lon="11.2247366"><ele>195.0</ele><time>2026-05-02T10:22:30.491Z</time></trkpt><trkpt lat="43.424916" lon="11.2247161"><ele>195.0</ele><time>2026-05-02T10:22:33.495Z</time></trkpt><trkpt lat="43.4249888" lon="11.2246964"><ele>195.0</ele><time>2026-05-02T10:22:36.499Z</time></trkpt><trkpt lat="43.4250639" lon="11.2246645"><ele>195.57142857142856</ele><time>2026-05-02T10:22:39.5Z</time></trkpt><trkpt lat="43.4251394" lon="11.2246447"><ele>196.14285714285714</ele><time>2026-05-02T10:22:44.491Z</time></trkpt><trkpt lat="43.4252108" lon="11.2246271"><ele>196.71428571428572</ele><time>2026-05-02T10:22:48.493Z</time></trkpt><trkpt lat="43.4252891" lon="11.2245848"><ele>197.28571428571428</ele><time>2026-05-02T10:22:51.584Z</time></trkpt><trkpt lat="43.4253588" lon="11.2245366"><ele>197.85714285714286</ele><time>2026-05-02T10:22:53.513Z</time></trkpt><trkpt lat="43.4254154" lon="11.2244964"><ele>198.42857142857142</ele><time>2026-05-02T10:22:56.467Z</time></trkpt><trkpt lat="43.4254833" lon="11.2244746"><ele>199.0</ele><time>2026-05-02T10:22:59.496Z</time></trkpt><trkpt lat="43.4255478" lon="11.2244567"><ele>199.99999999999997</ele><time>2026-05-02T10:23:02.501Z</time></trkpt><trkpt lat="43.4256128" lon="11.2244287"><ele>201.0</ele><time>2026-05-02T10:23:05.503Z</time></trkpt><trkpt lat="43.4256801" lon="11.2244104"><ele>202.0</ele><time>2026-05-02T10:23:08.504Z</time></trkpt><trkpt lat="43.4257525" lon="11.2243796"><ele>203.0</ele><time>2026-05-02T10:23:11.496Z</time></trkpt><trkpt lat="43.4258266" lon="11.2243773"><ele>203.99999999999997</ele><time>2026-05-02T10:23:14.489Z</time></trkpt><trkpt lat="43.4259052" lon="11.2243596"><ele>205.0</ele><time>2026-05-02T10:23:17.503Z</time></trkpt><trkpt lat="43.4259879" lon="11.2243361"><ele>205.0</ele><time>2026-05-02T10:23:20.492Z</time></trkpt><trkpt lat="43.426059" lon="11.2242945"><ele>205.0</ele><time>2026-05-02T10:23:22.555Z</time></trkpt><trkpt lat="43.4261184" lon="11.2242496"><ele>205.0</ele><time>2026-05-02T10:23:24.499Z</time></trkpt><trkpt lat="43.4261972" lon="11.2242317"><ele>205.0</ele><time>2026-05-02T10:23:28.481Z</time></trkpt><trkpt lat="43.426261" lon="11.2242131"><ele>205.0</ele><time>2026-05-02T10:23:31.557Z</time></trkpt><trkpt lat="43.4263342" lon="11.2242037"><ele>205.0</ele><time>2026-05-02T10:23:33.487Z</time></trkpt><trkpt lat="43.426403" lon="11.224185"><ele>205.0</ele><time>2026-05-02T10:23:36.487Z</time></trkpt><trkpt lat="43.4264698" lon="11.2241749"><ele>207.14285714285714</ele><time>2026-05-02T10:23:39.497Z</time></trkpt><trkpt lat="43.4265353" lon="11.224164"><ele>209.28571428571428</ele><time>2026-05-02T10:23:42.49Z</time></trkpt><trkpt lat="43.4265965" lon="11.2241422"><ele>211.42857142857142</ele><time>2026-05-02T10:23:46.57Z</time></trkpt><trkpt lat="43.4266578" lon="11.2241086"><ele>213.57142857142856</ele><time>2026-05-02T10:23:51.49Z</time></trkpt><trkpt lat="43.426726" lon="11.2240872"><ele>215.71428571428572</ele><time>2026-05-02T10:23:55.488Z</time></trkpt><trkpt lat="43.4267933" lon="11.2240693"><ele>217.85714285714283</ele><time>2026-05-02T10:24:01.565Z</time></trkpt><trkpt lat="43.4268596" lon="11.2240455"><ele>220.0</ele><time>2026-05-02T10:24:07.481Z</time></trkpt><trkpt lat="43.4269278" lon="11.2240364"><ele>219.99999999999997</ele><time>2026-05-02T10:24:13.498Z</time></trkpt><trkpt lat="43.4270012" lon="11.2240073"><ele>220.0</ele><time>2026-05-02T10:24:23.489Z</time></trkpt><trkpt lat="43.4270688" lon="11.2239656"><ele>220.0</ele><time>2026-05-02T10:24:28.498Z</time></trkpt><trkpt lat="43.4271235" lon="11.2239111"><ele>220.0</ele><time>2026-05-02T10:24:35.477Z</time></trkpt><trkpt lat="43.4272115" lon="11.2239172"><ele>220.0</ele><time>2026-05-02T10:24:38.487Z</time></trkpt><trkpt lat="43.4272786" lon="11.2239341"><ele>219.99999999999997</ele><time>2026-05-02T10:24:41.488Z</time></trkpt><trkpt lat="43.4273095" lon="11.2240143"><ele>220.0</ele><time>2026-05-02T10:24:46.492Z</time></trkpt><trkpt lat="43.4273128" lon="11.2241137"><ele>221.49999999999997</ele><time>2026-05-02T10:24:50.494Z</time></trkpt><trkpt lat="43.4272945" lon="11.2242076"><ele>223.0</ele><time>2026-05-02T10:24:54.486Z</time></trkpt><trkpt lat="43.4272844" lon="11.2243072"><ele>224.5</ele><time>2026-05-02T10:24:58.478Z</time></trkpt><trkpt lat="43.4273062" lon="11.2243957"><ele>226.0</ele><time>2026-05-02T10:25:02.566Z</time></trkpt><trkpt lat="43.4273102" lon="11.2245079"><ele>227.49999999999997</ele><time>2026-05-02T10:25:05.493Z</time></trkpt><trkpt lat="43.427368" lon="11.2245853"><ele>229.0</ele><time>2026-05-02T10:25:08.483Z</time></trkpt><trkpt lat="43.4274465" lon="11.2246427"><ele>228.99999999999997</ele><time>2026-05-02T10:25:11.475Z</time></trkpt><trkpt lat="43.4275099" lon="11.2247085"><ele>229.0</ele><time>2026-05-02T10:25:14.501Z</time></trkpt><trkpt lat="43.4275761" lon="11.2247474"><ele>229.0</ele><time>2026-05-02T10:25:18.495Z</time></trkpt><trkpt lat="43.4275058" lon="11.2247965"><ele>229.0</ele><time>2026-05-02T10:25:32.493Z</time></trkpt><trkpt lat="43.4275572" lon="11.2247393"><ele>228.99999999999997</ele><time>2026-05-02T10:25:41.48Z</time></trkpt><trkpt lat="43.4276267" lon="11.2247004"><ele>229.0</ele><time>2026-05-02T10:25:45.501Z</time></trkpt><trkpt lat="43.4277047" lon="11.2246655"><ele>228.99999999999997</ele><time>2026-05-02T10:25:48.5Z</time></trkpt><trkpt lat="43.4277823" lon="11.224638"><ele>229.0</ele><time>2026-05-02T10:25:51.504Z</time></trkpt><trkpt lat="43.4278614" lon="11.2245927"><ele>229.0</ele><time>2026-05-02T10:25:55.498Z</time></trkpt><trkpt lat="43.4279254" lon="11.2246151"><ele>229.0</ele><time>2026-05-02T10:25:58.491Z</time></trkpt><trkpt lat="43.42799" lon="11.2246709"><ele>228.99999999999997</ele><time>2026-05-02T10:26:00.565Z</time></trkpt><trkpt lat="43.4280844" lon="11.2247026"><ele>229.0</ele><time>2026-05-02T10:26:02.492Z</time></trkpt><trkpt lat="43.4281919" lon="11.2247265"><ele>227.39999999999998</ele><time>2026-05-02T10:26:04.473Z</time></trkpt><trkpt lat="43.4282915" lon="11.2247511"><ele>225.79999999999998</ele><time>2026-05-02T10:26:06.487Z</time></trkpt><trkpt lat="43.4284366" lon="11.2247512"><ele>224.20000000000002</ele><time>2026-05-02T10:26:08.486Z</time></trkpt><trkpt lat="43.4285182" lon="11.2247393"><ele>222.60000000000002</ele><time>2026-05-02T10:26:09.487Z</time></trkpt><trkpt lat="43.4286223" lon="11.2246627"><ele>221.0</ele><time>2026-05-02T10:26:11.495Z</time></trkpt><trkpt lat="43.428741" lon="11.2245969"><ele>221.00000000000003</ele><time>2026-05-02T10:26:13.471Z</time></trkpt><trkpt lat="43.4288034" lon="11.2245467"><ele>221.0</ele><time>2026-05-02T10:26:14.474Z</time></trkpt><trkpt lat="43.4288567" lon="11.224476"><ele>221.0</ele><time>2026-05-02T10:26:15.496Z</time></trkpt><trkpt lat="43.4289283" lon="11.2244263"><ele>221.0</ele><time>2026-05-02T10:26:16.572Z</time></trkpt><trkpt lat="43.428995" lon="11.2243742"><ele>221.0</ele><time>2026-05-02T10:26:17.502Z</time></trkpt><trkpt lat="43.4290574" lon="11.2243235"><ele>221.00000000000003</ele><time>2026-05-02T10:26:18.499Z</time></trkpt><trkpt lat="43.4291178" lon="11.2242757"><ele>221.0</ele><time>2026-05-02T10:26:19.496Z</time></trkpt><trkpt lat="43.4291736" lon="11.2242148"><ele>219.25</ele><time>2026-05-02T10:26:20.56Z</time></trkpt><trkpt lat="43.4292345" lon="11.2241464"><ele>217.5</ele><time>2026-05-02T10:26:21.594Z</time></trkpt><trkpt lat="43.4293865" lon="11.2240155"><ele>215.75</ele><time>2026-05-02T10:26:23.506Z</time></trkpt><trkpt lat="43.4294773" lon="11.2239553"><ele>214.0</ele><time>2026-05-02T10:26:24.493Z</time></trkpt><trkpt lat="43.4295566" lon="11.2238912"><ele>213.66666666666666</ele><time>2026-05-02T10:26:25.5Z</time></trkpt><trkpt lat="43.4296354" lon="11.2238286"><ele>213.33333333333331</ele><time>2026-05-02T10:26:26.496Z</time></trkpt><trkpt lat="43.4297072" lon="11.2237722"><ele>213.0</ele><time>2026-05-02T10:26:27.507Z</time></trkpt><trkpt lat="43.4297737" lon="11.2237175"><ele>212.66666666666669</ele><time>2026-05-02T10:26:28.49Z</time></trkpt><trkpt lat="43.4298637" lon="11.2236548"><ele>212.33333333333334</ele><time>2026-05-02T10:26:30.499Z</time></trkpt><trkpt lat="43.4299294" lon="11.2236077"><ele>212.0</ele><time>2026-05-02T10:26:32.488Z</time></trkpt><trkpt lat="43.4299881" lon="11.223559"><ele>213.0</ele><time>2026-05-02T10:26:35.493Z</time></trkpt><trkpt lat="43.4300301" lon="11.2234518"><ele>214.0</ele><time>2026-05-02T10:26:42.492Z</time></trkpt><trkpt lat="43.4300989" lon="11.2233988"><ele>215.0</ele><time>2026-05-02T10:26:45.573Z</time></trkpt><trkpt lat="43.4301624" lon="11.223372"><ele>216.0</ele><time>2026-05-02T10:26:49.503Z</time></trkpt><trkpt lat="43.4302261" lon="11.223331"><ele>217.0</ele><time>2026-05-02T10:26:53.487Z</time></trkpt><trkpt lat="43.4302918" lon="11.2233016"><ele>218.0</ele><time>2026-05-02T10:26:57.499Z</time></trkpt><trkpt lat="43.4303508" lon="11.2232641"><ele>219.0</ele><time>2026-05-02T10:27:01.504Z</time></trkpt><trkpt lat="43.4304129" lon="11.2232205"><ele>219.0</ele><time>2026-05-02T10:27:06.488Z</time></trkpt><trkpt lat="43.4304714" lon="11.2231683"><ele>219.0</ele><time>2026-05-02T10:27:12.495Z</time></trkpt><trkpt lat="43.4305316" lon="11.2231073"><ele>219.0</ele><time>2026-05-02T10:27:18.503Z</time></trkpt><trkpt lat="43.430583" lon="11.2230373"><ele>219.0</ele><time>2026-05-02T10:27:22.571Z</time></trkpt><trkpt lat="43.4306558" lon="11.2230135"><ele>219.0</ele><time>2026-05-02T10:27:26.486Z</time></trkpt><trkpt lat="43.4307162" lon="11.2229811"><ele>219.0</ele><time>2026-05-02T10:27:35.499Z</time></trkpt><trkpt lat="43.4307832" lon="11.2229657"><ele>219.0</ele><time>2026-05-02T10:27:48.491Z</time></trkpt><trkpt lat="43.4308341" lon="11.222909"><ele>221.33333333333334</ele><time>2026-05-02T10:27:51.493Z</time></trkpt><trkpt lat="43.4308817" lon="11.2228404"><ele>223.66666666666669</ele><time>2026-05-02T10:27:55.488Z</time></trkpt><trkpt lat="43.4309472" lon="11.2227846"><ele>226.0</ele><time>2026-05-02T10:28:03.492Z</time></trkpt><trkpt lat="43.431015" lon="11.2227073"><ele>228.33333333333334</ele><time>2026-05-02T10:28:20.49Z</time></trkpt><trkpt lat="43.4310825" lon="11.2226651"><ele>230.66666666666669</ele><time>2026-05-02T10:28:24.491Z</time></trkpt><trkpt lat="43.4311287" lon="11.2225776"><ele>233.0</ele><time>2026-05-02T10:28:29.503Z</time></trkpt><trkpt lat="43.431193" lon="11.2225751"><ele>233.0</ele><time>2026-05-02T10:28:33.49Z</time></trkpt><trkpt lat="43.4312546" lon="11.2225383"><ele>233.0</ele><time>2026-05-02T10:28:42.498Z</time></trkpt><trkpt lat="43.4313263" lon="11.2224933"><ele>233.0</ele><time>2026-05-02T10:28:47.492Z</time></trkpt><trkpt lat="43.4313873" lon="11.2224367"><ele>233.0</ele><time>2026-05-02T10:28:53.492Z</time></trkpt><trkpt lat="43.4314177" lon="11.2223554"><ele>233.0</ele><time>2026-05-02T10:28:58.481Z</time></trkpt><trkpt lat="43.4313692" lon="11.2222658"><ele>233.0</ele><time>2026-05-02T10:29:00.485Z</time></trkpt><trkpt lat="43.4314318" lon="11.2222429"><ele>233.0</ele><time>2026-05-02T10:29:13.49Z</time></trkpt><trkpt lat="43.4315089" lon="11.2222565"><ele>234.16666666666669</ele><time>2026-05-02T10:29:17.493Z</time></trkpt><trkpt lat="43.4315803" lon="11.2222846"><ele>235.33333333333334</ele><time>2026-05-02T10:29:22.567Z</time></trkpt><trkpt lat="43.4316388" lon="11.2223722"><ele>236.5</ele><time>2026-05-02T10:29:25.497Z</time></trkpt><trkpt lat="43.4316265" lon="11.2222748"><ele>237.66666666666669</ele><time>2026-05-02T10:29:33.501Z</time></trkpt><trkpt lat="43.4316903" lon="11.2222345"><ele>238.83333333333334</ele><time>2026-05-02T10:30:36.499Z</time></trkpt><trkpt lat="43.4317679" lon="11.2221764"><ele>240.0</ele><time>2026-05-02T10:30:38.493Z</time></trkpt><trkpt lat="43.4318706" lon="11.2221307"><ele>240.0</ele><time>2026-05-02T10:30:40.489Z</time></trkpt><trkpt lat="43.4319874" lon="11.2220604"><ele>240.0</ele><time>2026-05-02T10:30:42.588Z</time></trkpt><trkpt lat="43.4320495" lon="11.2220169"><ele>240.0</ele><time>2026-05-02T10:30:43.492Z</time></trkpt><trkpt lat="43.4321243" lon="11.2219679"><ele>240.0</ele><time>2026-05-02T10:30:44.492Z</time></trkpt><trkpt lat="43.4321974" lon="11.22192"><ele>240.0</ele><time>2026-05-02T10:30:45.495Z</time></trkpt><trkpt lat="43.4322743" lon="11.2218727"><ele>240.0</ele><time>2026-05-02T10:30:46.566Z</time></trkpt><trkpt lat="43.4323466" lon="11.2218248"><ele>239.33333333333334</ele><time>2026-05-02T10:30:47.496Z</time></trkpt><trkpt lat="43.432415" lon="11.2217619"><ele>238.66666666666669</ele><time>2026-05-02T10:30:48.493Z</time></trkpt><trkpt lat="43.4324853" lon="11.2217094"><ele>238.0</ele><time>2026-05-02T10:30:49.497Z</time></trkpt><trkpt lat="43.4325582" lon="11.2216677"><ele>237.33333333333334</ele><time>2026-05-02T10:30:50.476Z</time></trkpt><trkpt lat="43.4326266" lon="11.2216171"><ele>236.66666666666669</ele><time>2026-05-02T10:30:51.566Z</time></trkpt><trkpt lat="43.4326971" lon="11.2215715"><ele>236.0</ele><time>2026-05-02T10:30:52.555Z</time></trkpt><trkpt lat="43.4327608" lon="11.2215241"><ele>236.4</ele><time>2026-05-02T10:30:53.491Z</time></trkpt><trkpt lat="43.4328517" lon="11.2214446"><ele>236.8</ele><time>2026-05-02T10:30:55.497Z</time></trkpt><trkpt lat="43.432944" lon="11.2213791"><ele>237.20000000000002</ele><time>2026-05-02T10:30:57.496Z</time></trkpt><trkpt lat="43.4330414" lon="11.2213308"><ele>237.60000000000002</ele><time>2026-05-02T10:30:59.491Z</time></trkpt><trkpt lat="43.4331293" lon="11.2212956"><ele>238.0</ele><time>2026-05-02T10:31:01.474Z</time></trkpt><trkpt lat="43.4332232" lon="11.2212562"><ele>237.2</ele><time>2026-05-02T10:31:03.496Z</time></trkpt><trkpt lat="43.4333126" lon="11.2211993"><ele>236.4</ele><time>2026-05-02T10:31:05.502Z</time></trkpt><trkpt lat="43.4333439" lon="11.2210813"><ele>235.59999999999997</ele><time>2026-05-02T10:31:07.489Z</time></trkpt><trkpt lat="43.433325" lon="11.2209404"><ele>234.79999999999998</ele><time>2026-05-02T10:31:09.495Z</time></trkpt><trkpt lat="43.433284" lon="11.2208234"><ele>234.0</ele><time>2026-05-02T10:31:11.47Z</time></trkpt><trkpt lat="43.4332341" lon="11.2207255"><ele>234.42857142857144</ele><time>2026-05-02T10:31:13.483Z</time></trkpt><trkpt lat="43.4331919" lon="11.2206454"><ele>234.8571428571429</ele><time>2026-05-02T10:31:15.498Z</time></trkpt><trkpt lat="43.4331675" lon="11.2205337"><ele>235.28571428571428</ele><time>2026-05-02T10:31:18.509Z</time></trkpt><trkpt lat="43.4331357" lon="11.2204507"><ele>235.71428571428572</ele><time>2026-05-02T10:31:21.487Z</time></trkpt><trkpt lat="43.4331146" lon="11.2203363"><ele>236.14285714285714</ele><time>2026-05-02T10:31:24.507Z</time></trkpt><trkpt lat="43.4330468" lon="11.2202935"><ele>236.57142857142856</ele><time>2026-05-02T10:31:27.576Z</time></trkpt><trkpt lat="43.4330054" lon="11.220228"><ele>236.99999999999997</ele><time>2026-05-02T10:31:30.498Z</time></trkpt><trkpt lat="43.432952" lon="11.220151"><ele>237.28571428571425</ele><time>2026-05-02T10:31:34.514Z</time></trkpt><trkpt lat="43.4329077" lon="11.220072"><ele>237.57142857142856</ele><time>2026-05-02T10:31:38.5Z</time></trkpt><trkpt lat="43.4328691" lon="11.2199881"><ele>237.85714285714286</ele><time>2026-05-02T10:31:42.495Z</time></trkpt><trkpt lat="43.4328356" lon="11.2198899"><ele>238.14285714285714</ele><time>2026-05-02T10:31:46.558Z</time></trkpt><trkpt lat="43.4328623" lon="11.2197886"><ele>238.42857142857144</ele><time>2026-05-02T10:31:48.487Z</time></trkpt><trkpt lat="43.432822" lon="11.2197137"><ele>238.71428571428575</ele><time>2026-05-02T10:31:52.557Z</time></trkpt><trkpt lat="43.432788" lon="11.2196201"><ele>239.00000000000003</ele><time>2026-05-02T10:31:57.495Z</time></trkpt><trkpt lat="43.4327885" lon="11.2195211"><ele>239.33333333333334</ele><time>2026-05-02T10:32:01.494Z</time></trkpt><trkpt lat="43.4328103" lon="11.2194105"><ele>239.66666666666669</ele><time>2026-05-02T10:32:07.507Z</time></trkpt><trkpt lat="43.4328243" lon="11.2193135"><ele>240.0</ele><time>2026-05-02T10:32:11.484Z</time></trkpt><trkpt lat="43.4328408" lon="11.2192097"><ele>240.33333333333331</ele><time>2026-05-02T10:32:16.591Z</time></trkpt><trkpt lat="43.4328385" lon="11.2191026"><ele>240.66666666666666</ele><time>2026-05-02T10:32:19.495Z</time></trkpt><trkpt lat="43.4328399" lon="11.2190053"><ele>241.0</ele><time>2026-05-02T10:32:23.494Z</time></trkpt><trkpt lat="43.43285" lon="11.2189032"><ele>241.0</ele><time>2026-05-02T10:32:26.473Z</time></trkpt><trkpt lat="43.432885" lon="11.2188217"><ele>241.00000000000003</ele><time>2026-05-02T10:32:29.495Z</time></trkpt><trkpt lat="43.4329038" lon="11.2187068"><ele>241.0</ele><time>2026-05-02T10:32:32.486Z</time></trkpt><trkpt lat="43.4329256" lon="11.2186252"><ele>241.0</ele><time>2026-05-02T10:32:34.49Z</time></trkpt><trkpt lat="43.432947" lon="11.2185335"><ele>241.00000000000003</ele><time>2026-05-02T10:32:36.497Z</time></trkpt><trkpt lat="43.4329547" lon="11.218437"><ele>241.0</ele><time>2026-05-02T10:32:38.51Z</time></trkpt><trkpt lat="43.4329611" lon="11.2183459"><ele>241.0</ele><time>2026-05-02T10:32:40.494Z</time></trkpt><trkpt lat="43.4329606" lon="11.2182556"><ele>241.16666666666666</ele><time>2026-05-02T10:32:42.49Z</time></trkpt><trkpt lat="43.4329696" lon="11.2181399"><ele>241.33333333333331</ele><time>2026-05-02T10:32:44.508Z</time></trkpt><trkpt lat="43.432985" lon="11.2180342"><ele>241.5</ele><time>2026-05-02T10:32:46.565Z</time></trkpt><trkpt lat="43.433" lon="11.2179281"><ele>241.66666666666669</ele><time>2026-05-02T10:32:48.489Z</time></trkpt><trkpt lat="43.4330154" lon="11.2178228"><ele>241.83333333333334</ele><time>2026-05-02T10:32:50.511Z</time></trkpt><trkpt lat="43.4330337" lon="11.2177309"><ele>242.0</ele><time>2026-05-02T10:32:52.565Z</time></trkpt><trkpt lat="43.4331066" lon="11.2175705"><ele>242.50000000000003</ele><time>2026-05-02T10:32:54.493Z</time></trkpt><trkpt lat="43.4331165" lon="11.2174612"><ele>243.0</ele><time>2026-05-02T10:32:56.503Z</time></trkpt><trkpt lat="43.4331001" lon="11.2173319"><ele>243.5</ele><time>2026-05-02T10:32:59.498Z</time></trkpt><trkpt lat="43.4330602" lon="11.2172332"><ele>244.0</ele><time>2026-05-02T10:33:02.498Z</time></trkpt><trkpt lat="43.4330475" lon="11.2171165"><ele>244.50000000000003</ele><time>2026-05-02T10:33:05.49Z</time></trkpt><trkpt lat="43.4330578" lon="11.2170164"><ele>245.0</ele><time>2026-05-02T10:33:07.567Z</time></trkpt><trkpt lat="43.4330663" lon="11.2168991"><ele>245.00000000000003</ele><time>2026-05-02T10:33:09.488Z</time></trkpt><trkpt lat="43.4330399" lon="11.2168078"><ele>245.0</ele><time>2026-05-02T10:33:12.503Z</time></trkpt><trkpt lat="43.4329977" lon="11.2167028"><ele>245.0</ele><time>2026-05-02T10:33:15.498Z</time></trkpt><trkpt lat="43.4329659" lon="11.2165939"><ele>245.0</ele><time>2026-05-02T10:33:18.505Z</time></trkpt><trkpt lat="43.4329306" lon="11.2164918"><ele>245.00000000000003</ele><time>2026-05-02T10:33:21.469Z</time></trkpt><trkpt lat="43.432906" lon="11.2163961"><ele>245.0</ele><time>2026-05-02T10:33:24.503Z</time></trkpt><trkpt lat="43.4328679" lon="11.2163151"><ele>246.33333333333334</ele><time>2026-05-02T10:33:27.582Z</time></trkpt><trkpt lat="43.4328426" lon="11.216221"><ele>247.66666666666669</ele><time>2026-05-02T10:33:30.492Z</time></trkpt><trkpt lat="43.4328081" lon="11.2161223"><ele>249.0</ele><time>2026-05-02T10:33:33.488Z</time></trkpt><trkpt lat="43.4327718" lon="11.2160042"><ele>250.33333333333331</ele><time>2026-05-02T10:33:36.491Z</time></trkpt><trkpt lat="43.4327598" lon="11.2158969"><ele>251.66666666666666</ele><time>2026-05-02T10:33:39.503Z</time></trkpt><trkpt lat="43.432723" lon="11.2157911"><ele>253.0</ele><time>2026-05-02T10:33:42.486Z</time></trkpt><trkpt lat="43.4326896" lon="11.2156739"><ele>253.16666666666666</ele><time>2026-05-02T10:33:45.493Z</time></trkpt><trkpt lat="43.432659" lon="11.2155645"><ele>253.33333333333331</ele><time>2026-05-02T10:33:48.486Z</time></trkpt><trkpt lat="43.432632" lon="11.2154553"><ele>253.5</ele><time>2026-05-02T10:33:51.499Z</time></trkpt><trkpt lat="43.4326034" lon="11.2153497"><ele>253.66666666666669</ele><time>2026-05-02T10:33:54.503Z</time></trkpt><trkpt lat="43.4325777" lon="11.2152377"><ele>253.83333333333334</ele><time>2026-05-02T10:33:57.505Z</time></trkpt><trkpt lat="43.4325469" lon="11.2151285"><ele>254.0</ele><time>2026-05-02T10:34:00.5Z</time></trkpt><trkpt lat="43.4325537" lon="11.2150019"><ele>254.00000000000003</ele><time>2026-05-02T10:34:02.506Z</time></trkpt><trkpt lat="43.4325885" lon="11.2148774"><ele>254.0</ele><time>2026-05-02T10:34:03.5Z</time></trkpt><trkpt lat="43.4325349" lon="11.2148282"><ele>254.0</ele><time>2026-05-02T10:34:07.575Z</time></trkpt><trkpt lat="43.4324958" lon="11.2147449"><ele>254.0</ele><time>2026-05-02T10:34:10.496Z</time></trkpt><trkpt lat="43.4324663" lon="11.2146336"><ele>254.00000000000003</ele><time>2026-05-02T10:34:12.494Z</time></trkpt><trkpt lat="43.4324432" lon="11.2144846"><ele>254.0</ele><time>2026-05-02T10:34:14.514Z</time></trkpt><trkpt lat="43.432437" lon="11.2143921"><ele>253.50000000000003</ele><time>2026-05-02T10:34:15.503Z</time></trkpt><trkpt lat="43.4324263" lon="11.2142968"><ele>253.0</ele><time>2026-05-02T10:34:16.56Z</time></trkpt><trkpt lat="43.4324083" lon="11.2142118"><ele>252.5</ele><time>2026-05-02T10:34:17.479Z</time></trkpt><trkpt lat="43.4323858" lon="11.2141198"><ele>252.0</ele><time>2026-05-02T10:34:18.499Z</time></trkpt><trkpt lat="43.4323722" lon="11.2140226"><ele>251.50000000000003</ele><time>2026-05-02T10:34:19.478Z</time></trkpt><trkpt lat="43.4323558" lon="11.2139035"><ele>251.0</ele><time>2026-05-02T10:34:20.508Z</time></trkpt><trkpt lat="43.4323406" lon="11.2137806"><ele>249.66666666666669</ele><time>2026-05-02T10:34:21.492Z</time></trkpt><trkpt lat="43.4323236" lon="11.2136661"><ele>248.33333333333334</ele><time>2026-05-02T10:34:22.49Z</time></trkpt><trkpt lat="43.4323037" lon="11.213554"><ele>247.0</ele><time>2026-05-02T10:34:23.494Z</time></trkpt><trkpt lat="43.4322855" lon="11.2134458"><ele>245.66666666666669</ele><time>2026-05-02T10:34:24.501Z</time></trkpt><trkpt lat="43.4322695" lon="11.2133331"><ele>244.33333333333334</ele><time>2026-05-02T10:34:25.5Z</time></trkpt><trkpt lat="43.4322526" lon="11.2132279"><ele>243.0</ele><time>2026-05-02T10:34:26.482Z</time></trkpt><trkpt lat="43.4322352" lon="11.2131231"><ele>242.42857142857142</ele><time>2026-05-02T10:34:27.49Z</time></trkpt><trkpt lat="43.4322217" lon="11.2130228"><ele>241.8571428571429</ele><time>2026-05-02T10:34:28.502Z</time></trkpt><trkpt lat="43.4322142" lon="11.2129293"><ele>241.2857142857143</ele><time>2026-05-02T10:34:29.511Z</time></trkpt><trkpt lat="43.4322048" lon="11.2128339"><ele>240.71428571428572</ele><time>2026-05-02T10:34:30.58Z</time></trkpt><trkpt lat="43.4321939" lon="11.2127406"><ele>240.14285714285717</ele><time>2026-05-02T10:34:31.532Z</time></trkpt><trkpt lat="43.4321851" lon="11.212647"><ele>239.5714285714286</ele><time>2026-05-02T10:34:32.497Z</time></trkpt><trkpt lat="43.432174" lon="11.212555"><ele>239.00000000000003</ele><time>2026-05-02T10:34:33.492Z</time></trkpt><trkpt lat="43.4321597" lon="11.2124657"><ele>239.00000000000003</ele><time>2026-05-02T10:34:34.493Z</time></trkpt><trkpt lat="43.432147" lon="11.2123769"><ele>239.0</ele><time>2026-05-02T10:34:35.491Z</time></trkpt><trkpt lat="43.4321327" lon="11.2122903"><ele>239.0</ele><time>2026-05-02T10:34:36.491Z</time></trkpt><trkpt lat="43.4321176" lon="11.2122044"><ele>239.0</ele><time>2026-05-02T10:34:37.569Z</time></trkpt><trkpt lat="43.4320882" lon="11.2120513"><ele>239.00000000000003</ele><time>2026-05-02T10:34:39.474Z</time></trkpt><trkpt lat="43.4320592" lon="11.211912"><ele>239.0</ele><time>2026-05-02T10:34:41.47Z</time></trkpt><trkpt lat="43.432028" lon="11.2117892"><ele>241.00000000000003</ele><time>2026-05-02T10:34:43.499Z</time></trkpt><trkpt lat="43.4320127" lon="11.2116734"><ele>243.0</ele><time>2026-05-02T10:34:46.575Z</time></trkpt><trkpt lat="43.4319889" lon="11.2115771"><ele>245.00000000000003</ele><time>2026-05-02T10:34:49.492Z</time></trkpt><trkpt lat="43.431977" lon="11.2114634"><ele>247.00000000000003</ele><time>2026-05-02T10:34:52.555Z</time></trkpt><trkpt lat="43.4319455" lon="11.2113755"><ele>249.0</ele><time>2026-05-02T10:34:56.514Z</time></trkpt><trkpt lat="43.4319039" lon="11.2113045"><ele>251.00000000000003</ele><time>2026-05-02T10:35:00.497Z</time></trkpt><trkpt lat="43.4318747" lon="11.2112247"><ele>253.00000000000003</ele><time>2026-05-02T10:35:04.492Z</time></trkpt><trkpt lat="43.4318503" lon="11.2111381"><ele>253.8571428571429</ele><time>2026-05-02T10:35:08.49Z</time></trkpt><trkpt lat="43.4318711" lon="11.2110487"><ele>254.71428571428572</ele><time>2026-05-02T10:35:11.482Z</time></trkpt><trkpt lat="43.4318096" lon="11.210992"><ele>255.57142857142858</ele><time>2026-05-02T10:35:16.554Z</time></trkpt><trkpt lat="43.4317791" lon="11.2109134"><ele>256.42857142857144</ele><time>2026-05-02T10:35:18.485Z</time></trkpt><trkpt lat="43.4317567" lon="11.2108304"><ele>257.2857142857143</ele><time>2026-05-02T10:35:23.482Z</time></trkpt><trkpt lat="43.4317141" lon="11.2107407"><ele>258.14285714285717</ele><time>2026-05-02T10:35:32.499Z</time></trkpt><trkpt lat="43.4316955" lon="11.2106349"><ele>259.0</ele><time>2026-05-02T10:35:37.487Z</time></trkpt><trkpt lat="43.4317012" lon="11.2105382"><ele>259.3333333333333</ele><time>2026-05-02T10:35:41.488Z</time></trkpt><trkpt lat="43.4317218" lon="11.2104542"><ele>259.66666666666663</ele><time>2026-05-02T10:35:44.488Z</time></trkpt><trkpt lat="43.431744" lon="11.2103528"><ele>260.0</ele><time>2026-05-02T10:35:47.488Z</time></trkpt><trkpt lat="43.4317578" lon="11.2102399"><ele>260.3333333333333</ele><time>2026-05-02T10:35:50.486Z</time></trkpt><trkpt lat="43.4317961" lon="11.2101596"><ele>260.6666666666667</ele><time>2026-05-02T10:35:52.567Z</time></trkpt><trkpt lat="43.4318578" lon="11.2100166"><ele>261.0</ele><time>2026-05-02T10:35:54.501Z</time></trkpt><trkpt lat="43.4319004" lon="11.2099377"><ele>260.6</ele><time>2026-05-02T10:35:55.502Z</time></trkpt><trkpt lat="43.4319712" lon="11.2098205"><ele>260.20000000000005</ele><time>2026-05-02T10:35:57.556Z</time></trkpt><trkpt lat="43.4320175" lon="11.2097178"><ele>259.79999999999995</ele><time>2026-05-02T10:35:59.473Z</time></trkpt><trkpt lat="43.4320394" lon="11.2095723"><ele>259.4</ele><time>2026-05-02T10:36:01.569Z</time></trkpt><trkpt lat="43.432041" lon="11.2094461"><ele>259.0</ele><time>2026-05-02T10:36:03.484Z</time></trkpt><trkpt lat="43.4319912" lon="11.2093564"><ele>259.0</ele><time>2026-05-02T10:36:06.49Z</time></trkpt><trkpt lat="43.4319535" lon="11.2092844"><ele>259.0</ele><time>2026-05-02T10:36:09.498Z</time></trkpt><trkpt lat="43.4319243" lon="11.2091932"><ele>259.0</ele><time>2026-05-02T10:36:15.49Z</time></trkpt><trkpt lat="43.4318691" lon="11.2091271"><ele>259.0</ele><time>2026-05-02T10:36:19.509Z</time></trkpt><trkpt lat="43.4318132" lon="11.2090421"><ele>259.0</ele><time>2026-05-02T10:36:23.487Z</time></trkpt><trkpt lat="43.4317869" lon="11.2089571"><ele>259.0</ele><time>2026-05-02T10:36:26.563Z</time></trkpt><trkpt lat="43.4317764" lon="11.2088688"><ele>259.0</ele><time>2026-05-02T10:36:29.516Z</time></trkpt><trkpt lat="43.4317311" lon="11.2087775"><ele>259.0</ele><time>2026-05-02T10:36:32.509Z</time></trkpt><trkpt lat="43.4316742" lon="11.2086865"><ele>259.0</ele><time>2026-05-02T10:36:35.485Z</time></trkpt><trkpt lat="43.4316505" lon="11.2085981"><ele>259.0</ele><time>2026-05-02T10:36:38.507Z</time></trkpt><trkpt lat="43.4316307" lon="11.2084828"><ele>259.0</ele><time>2026-05-02T10:36:41.491Z</time></trkpt><trkpt lat="43.4316075" lon="11.2083651"><ele>259.0</ele><time>2026-05-02T10:36:44.488Z</time></trkpt><trkpt lat="43.4315896" lon="11.2082545"><ele>259.0</ele><time>2026-05-02T10:36:47.482Z</time></trkpt><trkpt lat="43.4315888" lon="11.2081376"><ele>259.5</ele><time>2026-05-02T10:36:50.489Z</time></trkpt><trkpt lat="43.4315898" lon="11.208029"><ele>260.0</ele><time>2026-05-02T10:36:53.5Z</time></trkpt><trkpt lat="43.4315992" lon="11.2079257"><ele>260.5</ele><time>2026-05-02T10:36:56.476Z</time></trkpt><trkpt lat="43.431605" lon="11.207814"><ele>261.0</ele><time>2026-05-02T10:36:59.511Z</time></trkpt><trkpt lat="43.4316038" lon="11.2076947"><ele>261.5</ele><time>2026-05-02T10:37:02.488Z</time></trkpt><trkpt lat="43.4316085" lon="11.2076013"><ele>262.0</ele><time>2026-05-02T10:37:04.486Z</time></trkpt><trkpt lat="43.431627" lon="11.207496"><ele>262.0</ele><time>2026-05-02T10:37:06.549Z</time></trkpt><trkpt lat="43.4316554" lon="11.2073717"><ele>262.0</ele><time>2026-05-02T10:37:08.497Z</time></trkpt><trkpt lat="43.4316748" lon="11.2072377"><ele>262.0</ele><time>2026-05-02T10:37:10.496Z</time></trkpt><trkpt lat="43.4316808" lon="11.2071026"><ele>262.0</ele><time>2026-05-02T10:37:12.496Z</time></trkpt><trkpt lat="43.431674" lon="11.2069504"><ele>262.0</ele><time>2026-05-02T10:37:14.488Z</time></trkpt><trkpt lat="43.4316695" lon="11.2068107"><ele>262.0</ele><time>2026-05-02T10:37:16.491Z</time></trkpt><trkpt lat="43.4316783" lon="11.2066659"><ele>262.0</ele><time>2026-05-02T10:37:18.495Z</time></trkpt><trkpt lat="43.4316921" lon="11.206534"><ele>262.0</ele><time>2026-05-02T10:37:20.477Z</time></trkpt><trkpt lat="43.4317019" lon="11.2063959"><ele>262.0</ele><time>2026-05-02T10:37:22.475Z</time></trkpt><trkpt lat="43.4317067" lon="11.2062683"><ele>262.0</ele><time>2026-05-02T10:37:24.512Z</time></trkpt><trkpt lat="43.4317151" lon="11.2061386"><ele>262.0</ele><time>2026-05-02T10:37:26.493Z</time></trkpt><trkpt lat="43.4317249" lon="11.2060061"><ele>262.0</ele><time>2026-05-02T10:37:28.476Z</time></trkpt><trkpt lat="43.4317263" lon="11.2058702"><ele>262.0</ele><time>2026-05-02T10:37:30.499Z</time></trkpt><trkpt lat="43.4317259" lon="11.2057396"><ele>262.0</ele><time>2026-05-02T10:37:32.488Z</time></trkpt><trkpt lat="43.4317134" lon="11.2056213"><ele>262.0</ele><time>2026-05-02T10:37:34.49Z</time></trkpt><trkpt lat="43.4316965" lon="11.2055173"><ele>262.0</ele><time>2026-05-02T10:37:36.494Z</time></trkpt><trkpt lat="43.4316653" lon="11.2054015"><ele>262.0</ele><time>2026-05-02T10:37:38.489Z</time></trkpt><trkpt lat="43.4316298" lon="11.2052796"><ele>262.0</ele><time>2026-05-02T10:37:40.487Z</time></trkpt><trkpt lat="43.4316042" lon="11.2051602"><ele>262.0</ele><time>2026-05-02T10:37:42.487Z</time></trkpt><trkpt lat="43.4315709" lon="11.2050482"><ele>262.0</ele><time>2026-05-02T10:37:44.492Z</time></trkpt><trkpt lat="43.4315207" lon="11.2049284"><ele>261.8</ele><time>2026-05-02T10:37:46.504Z</time></trkpt><trkpt lat="43.4314642" lon="11.2047918"><ele>261.6</ele><time>2026-05-02T10:37:48.483Z</time></trkpt><trkpt lat="43.4314104" lon="11.2046328"><ele>261.40000000000003</ele><time>2026-05-02T10:37:50.481Z</time></trkpt><trkpt lat="43.43138" lon="11.2045516"><ele>261.2</ele><time>2026-05-02T10:37:51.495Z</time></trkpt><trkpt lat="43.4313492" lon="11.2044626"><ele>261.0</ele><time>2026-05-02T10:37:52.497Z</time></trkpt><trkpt lat="43.4313177" lon="11.2043687"><ele>260.5</ele><time>2026-05-02T10:37:53.485Z</time></trkpt><trkpt lat="43.4312884" lon="11.2042724"><ele>260.0</ele><time>2026-05-02T10:37:54.495Z</time></trkpt><trkpt lat="43.4312635" lon="11.2041756"><ele>259.5</ele><time>2026-05-02T10:37:55.484Z</time></trkpt><trkpt lat="43.4312344" lon="11.2040727"><ele>259.0</ele><time>2026-05-02T10:37:56.491Z</time></trkpt><trkpt lat="43.4312112" lon="11.2039693"><ele>258.5</ele><time>2026-05-02T10:37:57.581Z</time></trkpt><trkpt lat="43.4312013" lon="11.2038753"><ele>258.0</ele><time>2026-05-02T10:37:58.491Z</time></trkpt><trkpt lat="43.4312042" lon="11.2037769"><ele>257.71428571428567</ele><time>2026-05-02T10:37:59.483Z</time></trkpt><trkpt lat="43.4312194" lon="11.2036812"><ele>257.42857142857144</ele><time>2026-05-02T10:38:00.494Z</time></trkpt><trkpt lat="43.4312425" lon="11.2035858"><ele>257.1428571428571</ele><time>2026-05-02T10:38:01.559Z</time></trkpt><trkpt lat="43.4312661" lon="11.2034961"><ele>256.85714285714283</ele><time>2026-05-02T10:38:02.572Z</time></trkpt><trkpt lat="43.4312898" lon="11.2034109"><ele>256.57142857142856</ele><time>2026-05-02T10:38:03.49Z</time></trkpt><trkpt lat="43.4313177" lon="11.2033315"><ele>256.2857142857143</ele><time>2026-05-02T10:38:04.488Z</time></trkpt><trkpt lat="43.4313506" lon="11.2032537"><ele>256.0</ele><time>2026-05-02T10:38:05.501Z</time></trkpt><trkpt lat="43.431386" lon="11.2031752"><ele>255.83333333333331</ele><time>2026-05-02T10:38:06.505Z</time></trkpt><trkpt lat="43.4314241" lon="11.2031012"><ele>255.66666666666666</ele><time>2026-05-02T10:38:07.563Z</time></trkpt><trkpt lat="43.4314652" lon="11.2030282"><ele>255.5</ele><time>2026-05-02T10:38:08.48Z</time></trkpt><trkpt lat="43.4315047" lon="11.2029512"><ele>255.33333333333331</ele><time>2026-05-02T10:38:09.489Z</time></trkpt><trkpt lat="43.4315731" lon="11.2028199"><ele>255.16666666666666</ele><time>2026-05-02T10:38:11.576Z</time></trkpt><trkpt lat="43.4316456" lon="11.2026968"><ele>255.0</ele><time>2026-05-02T10:38:13.484Z</time></trkpt><trkpt lat="43.4316848" lon="11.2026242"><ele>255.0</ele><time>2026-05-02T10:38:14.488Z</time></trkpt><trkpt lat="43.4317211" lon="11.2024805"><ele>255.0</ele><time>2026-05-02T10:38:16.49Z</time></trkpt><trkpt lat="43.431734" lon="11.2023589"><ele>255.0</ele><time>2026-05-02T10:38:18.507Z</time></trkpt><trkpt lat="43.4317401" lon="11.2022321"><ele>255.0</ele><time>2026-05-02T10:38:20.506Z</time></trkpt><trkpt lat="43.4317566" lon="11.2021372"><ele>255.0</ele><time>2026-05-02T10:38:22.497Z</time></trkpt><trkpt lat="43.4317838" lon="11.2020257"><ele>255.0</ele><time>2026-05-02T10:38:25.498Z</time></trkpt><trkpt lat="43.4318061" lon="11.2019308"><ele>255.16666666666666</ele><time>2026-05-02T10:38:28.469Z</time></trkpt><trkpt lat="43.4318326" lon="11.2018377"><ele>255.33333333333331</ele><time>2026-05-02T10:38:31.565Z</time></trkpt><trkpt lat="43.4318387" lon="11.2017356"><ele>255.5</ele><time>2026-05-02T10:38:34.508Z</time></trkpt><trkpt lat="43.4318455" lon="11.2016271"><ele>255.66666666666666</ele><time>2026-05-02T10:38:37.561Z</time></trkpt><trkpt lat="43.4318566" lon="11.2015063"><ele>255.83333333333331</ele><time>2026-05-02T10:38:41.559Z</time></trkpt><trkpt lat="43.4318899" lon="11.2014206"><ele>256.0</ele><time>2026-05-02T10:38:44.469Z</time></trkpt><trkpt lat="43.4319123" lon="11.2013221"><ele>256.2857142857143</ele><time>2026-05-02T10:38:47.506Z</time></trkpt><trkpt lat="43.4319207" lon="11.2012208"><ele>256.57142857142856</ele><time>2026-05-02T10:38:49.492Z</time></trkpt><trkpt lat="43.4319263" lon="11.2010896"><ele>256.85714285714283</ele><time>2026-05-02T10:38:51.5Z</time></trkpt><trkpt lat="43.4319349" lon="11.2010015"><ele>257.1428571428571</ele><time>2026-05-02T10:38:52.471Z</time></trkpt><trkpt lat="43.4319459" lon="11.2009082"><ele>257.42857142857144</ele><time>2026-05-02T10:38:53.493Z</time></trkpt><trkpt lat="43.4319645" lon="11.2008228"><ele>257.71428571428567</ele><time>2026-05-02T10:38:54.498Z</time></trkpt><trkpt lat="43.4319829" lon="11.200735"><ele>258.0</ele><time>2026-05-02T10:38:55.484Z</time></trkpt><trkpt lat="43.4320052" lon="11.2006402"><ele>258.3333333333333</ele><time>2026-05-02T10:38:56.553Z</time></trkpt><trkpt lat="43.4320262" lon="11.2005527"><ele>258.6666666666667</ele><time>2026-05-02T10:38:57.575Z</time></trkpt><trkpt lat="43.4320486" lon="11.2004699"><ele>259.0</ele><time>2026-05-02T10:38:58.487Z</time></trkpt><trkpt lat="43.4320772" lon="11.2003098"><ele>259.33333333333337</ele><time>2026-05-02T10:39:00.504Z</time></trkpt><trkpt lat="43.432091" lon="11.2002202"><ele>259.6666666666667</ele><time>2026-05-02T10:39:01.565Z</time></trkpt><trkpt lat="43.4321307" lon="11.2000584"><ele>260.0</ele><time>2026-05-02T10:39:03.495Z</time></trkpt><trkpt lat="43.4321485" lon="11.1999715"><ele>256.83333333333337</ele><time>2026-05-02T10:39:04.492Z</time></trkpt><trkpt lat="43.4321642" lon="11.1998735"><ele>253.66666666666669</ele><time>2026-05-02T10:39:05.486Z</time></trkpt><trkpt lat="43.4321685" lon="11.1997799"><ele>250.5</ele><time>2026-05-02T10:39:06.556Z</time></trkpt><trkpt lat="43.4321684" lon="11.1996714"><ele>247.33333333333331</ele><time>2026-05-02T10:39:07.563Z</time></trkpt><trkpt lat="43.4321721" lon="11.1994906"><ele>244.16666666666666</ele><time>2026-05-02T10:39:09.489Z</time></trkpt><trkpt lat="43.4321755" lon="11.19938"><ele>241.0</ele><time>2026-05-02T10:39:10.493Z</time></trkpt><trkpt lat="43.432187" lon="11.1992702"><ele>240.49999999999997</ele><time>2026-05-02T10:39:11.566Z</time></trkpt><trkpt lat="43.4321898" lon="11.1991819"><ele>240.0</ele><time>2026-05-02T10:39:12.569Z</time></trkpt><trkpt lat="43.4322116" lon="11.1990228"><ele>239.5</ele><time>2026-05-02T10:39:14.49Z</time></trkpt><trkpt lat="43.4322144" lon="11.1988662"><ele>239.0</ele><time>2026-05-02T10:39:16.57Z</time></trkpt><trkpt lat="43.4322383" lon="11.1987795"><ele>238.49999999999997</ele><time>2026-05-02T10:39:17.566Z</time></trkpt><trkpt lat="43.4322573" lon="11.1986872"><ele>238.0</ele><time>2026-05-02T10:39:18.469Z</time></trkpt><trkpt lat="43.4322965" lon="11.1985214"><ele>237.85714285714286</ele><time>2026-05-02T10:39:20.484Z</time></trkpt><trkpt lat="43.4323241" lon="11.1984377"><ele>237.71428571428572</ele><time>2026-05-02T10:39:21.488Z</time></trkpt><trkpt lat="43.4323496" lon="11.1983533"><ele>237.57142857142856</ele><time>2026-05-02T10:39:22.486Z</time></trkpt><trkpt lat="43.432375" lon="11.198259"><ele>237.42857142857142</ele><time>2026-05-02T10:39:23.494Z</time></trkpt><trkpt lat="43.4323906" lon="11.1981604"><ele>237.28571428571428</ele><time>2026-05-02T10:39:24.496Z</time></trkpt><trkpt lat="43.432405" lon="11.1980523"><ele>237.1428571428571</ele><time>2026-05-02T10:39:25.497Z</time></trkpt><trkpt lat="43.4324225" lon="11.1979611"><ele>236.99999999999997</ele><time>2026-05-02T10:39:26.484Z</time></trkpt><trkpt lat="43.4324407" lon="11.1978657"><ele>237.5</ele><time>2026-05-02T10:39:27.499Z</time></trkpt><trkpt lat="43.4324502" lon="11.1977524"><ele>238.0</ele><time>2026-05-02T10:39:28.498Z</time></trkpt><trkpt lat="43.4324514" lon="11.1976305"><ele>238.5</ele><time>2026-05-02T10:39:29.503Z</time></trkpt><trkpt lat="43.4324552" lon="11.197522"><ele>239.0</ele><time>2026-05-02T10:39:30.489Z</time></trkpt><trkpt lat="43.4324628" lon="11.1974145"><ele>239.5</ele><time>2026-05-02T10:39:31.561Z</time></trkpt><trkpt lat="43.432472" lon="11.1973103"><ele>240.0</ele><time>2026-05-02T10:39:32.563Z</time></trkpt><trkpt lat="43.4325015" lon="11.1971995"><ele>240.83333333333334</ele><time>2026-05-02T10:39:33.488Z</time></trkpt><trkpt lat="43.4325326" lon="11.1970945"><ele>241.66666666666669</ele><time>2026-05-02T10:39:34.477Z</time></trkpt><trkpt lat="43.4325617" lon="11.1969945"><ele>242.5</ele><time>2026-05-02T10:39:35.487Z</time></trkpt><trkpt lat="43.4325826" lon="11.1968445"><ele>243.33333333333334</ele><time>2026-05-02T10:39:37.57Z</time></trkpt><trkpt lat="43.4326028" lon="11.1967592"><ele>244.16666666666669</ele><time>2026-05-02T10:39:38.474Z</time></trkpt><trkpt lat="43.432667" lon="11.1966329"><ele>245.0</ele><time>2026-05-02T10:39:40.471Z</time></trkpt><trkpt lat="43.4327581" lon="11.1965179"><ele>244.4</ele><time>2026-05-02T10:39:42.553Z</time></trkpt><trkpt lat="43.4328105" lon="11.1964526"><ele>243.8</ele><time>2026-05-02T10:39:43.489Z</time></trkpt><trkpt lat="43.4328931" lon="11.196381"><ele>243.2</ele><time>2026-05-02T10:39:45.494Z</time></trkpt><trkpt lat="43.432938" lon="11.1962462"><ele>242.6</ele><time>2026-05-02T10:39:47.548Z</time></trkpt><trkpt lat="43.4329727" lon="11.1961267"><ele>242.0</ele><time>2026-05-02T10:39:49.491Z</time></trkpt><trkpt lat="43.4330224" lon="11.1960266"><ele>242.00000000000003</ele><time>2026-05-02T10:39:51.57Z</time></trkpt><trkpt lat="43.4330628" lon="11.1959125"><ele>242.0</ele><time>2026-05-02T10:39:53.488Z</time></trkpt><trkpt lat="43.4331049" lon="11.1957994"><ele>242.0</ele><time>2026-05-02T10:39:55.49Z</time></trkpt><trkpt lat="43.4331499" lon="11.1956974"><ele>242.0</ele><time>2026-05-02T10:39:57.487Z</time></trkpt><trkpt lat="43.4331894" lon="11.1956121"><ele>242.00000000000003</ele><time>2026-05-02T10:39:59.483Z</time></trkpt><trkpt lat="43.4332467" lon="11.1955272"><ele>242.0</ele><time>2026-05-02T10:40:01.555Z</time></trkpt><trkpt lat="43.433302" lon="11.1954189"><ele>242.7142857142857</ele><time>2026-05-02T10:40:03.501Z</time></trkpt><trkpt lat="43.4333529" lon="11.1953427"><ele>243.4285714285714</ele><time>2026-05-02T10:40:05.49Z</time></trkpt><trkpt lat="43.4334029" lon="11.1952843"><ele>244.14285714285714</ele><time>2026-05-02T10:40:07.56Z</time></trkpt><trkpt lat="43.4334578" lon="11.1952191"><ele>244.85714285714283</ele><time>2026-05-02T10:40:10.495Z</time></trkpt><trkpt lat="43.4335177" lon="11.1951527"><ele>245.57142857142856</ele><time>2026-05-02T10:40:14.495Z</time></trkpt><trkpt lat="43.433578" lon="11.1951012"><ele>246.28571428571428</ele><time>2026-05-02T10:40:17.562Z</time></trkpt><trkpt lat="43.4336384" lon="11.1950569"><ele>247.0</ele><time>2026-05-02T10:40:20.497Z</time></trkpt><trkpt lat="43.433719" lon="11.1950043"><ele>246.85714285714286</ele><time>2026-05-02T10:40:24.488Z</time></trkpt><trkpt lat="43.4338058" lon="11.1949684"><ele>246.71428571428572</ele><time>2026-05-02T10:40:27.494Z</time></trkpt><trkpt lat="43.4338699" lon="11.1949402"><ele>246.57142857142858</ele><time>2026-05-02T10:40:29.49Z</time></trkpt><trkpt lat="43.4339363" lon="11.1949083"><ele>246.42857142857144</ele><time>2026-05-02T10:40:31.499Z</time></trkpt><trkpt lat="43.4340009" lon="11.1948833"><ele>246.28571428571428</ele><time>2026-05-02T10:40:34.49Z</time></trkpt><trkpt lat="43.4340665" lon="11.1948638"><ele>246.14285714285717</ele><time>2026-05-02T10:40:37.568Z</time></trkpt><trkpt lat="43.4341394" lon="11.1948188"><ele>246.00000000000003</ele><time>2026-05-02T10:40:40.488Z</time></trkpt><trkpt lat="43.4342265" lon="11.1947721"><ele>246.0</ele><time>2026-05-02T10:40:43.517Z</time></trkpt><trkpt lat="43.4343177" lon="11.1947425"><ele>246.0</ele><time>2026-05-02T10:40:46.558Z</time></trkpt><trkpt lat="43.4344004" lon="11.1947052"><ele>246.0</ele><time>2026-05-02T10:40:49.483Z</time></trkpt><trkpt lat="43.4344689" lon="11.19467"><ele>246.0</ele><time>2026-05-02T10:40:52.554Z</time></trkpt><trkpt lat="43.4345395" lon="11.1946305"><ele>246.0</ele><time>2026-05-02T10:40:55.485Z</time></trkpt><trkpt lat="43.4346048" lon="11.1946055"><ele>246.0</ele><time>2026-05-02T10:40:58.486Z</time></trkpt><trkpt lat="43.4346715" lon="11.1945977"><ele>246.28571428571433</ele><time>2026-05-02T10:41:02.494Z</time></trkpt><trkpt lat="43.4347317" lon="11.1945606"><ele>246.57142857142858</ele><time>2026-05-02T10:41:06.477Z</time></trkpt><trkpt lat="43.4347923" lon="11.1945281"><ele>246.8571428571429</ele><time>2026-05-02T10:41:10.5Z</time></trkpt><trkpt lat="43.4348498" lon="11.1944743"><ele>247.14285714285717</ele><time>2026-05-02T10:41:14.495Z</time></trkpt><trkpt lat="43.4349097" lon="11.1944271"><ele>247.42857142857144</ele><time>2026-05-02T10:41:18.506Z</time></trkpt><trkpt lat="43.4349671" lon="11.1943705"><ele>247.71428571428572</ele><time>2026-05-02T10:41:22.564Z</time></trkpt><trkpt lat="43.435046" lon="11.194323"><ele>248.0</ele><time>2026-05-02T10:41:26.572Z</time></trkpt><trkpt lat="43.4350707" lon="11.1942311"><ele>248.0</ele><time>2026-05-02T10:41:29.493Z</time></trkpt><trkpt lat="43.4350907" lon="11.194061"><ele>248.0</ele><time>2026-05-02T10:41:31.551Z</time></trkpt><trkpt lat="43.4350932" lon="11.1939132"><ele>248.0</ele><time>2026-05-02T10:41:33.497Z</time></trkpt><trkpt lat="43.4350807" lon="11.1938146"><ele>248.0</ele><time>2026-05-02T10:41:34.494Z</time></trkpt><trkpt lat="43.4350862" lon="11.1936706"><ele>248.0</ele><time>2026-05-02T10:41:36.496Z</time></trkpt><trkpt lat="43.4350963" lon="11.1935337"><ele>247.4</ele><time>2026-05-02T10:41:38.487Z</time></trkpt><trkpt lat="43.4351185" lon="11.1933848"><ele>246.8</ele><time>2026-05-02T10:41:40.493Z</time></trkpt><trkpt lat="43.4351485" lon="11.193253"><ele>246.2</ele><time>2026-05-02T10:41:42.493Z</time></trkpt><trkpt lat="43.4351674" lon="11.1931034"><ele>245.6</ele><time>2026-05-02T10:41:44.499Z</time></trkpt><trkpt lat="43.4351701" lon="11.1929361"><ele>245.0</ele><time>2026-05-02T10:41:46.564Z</time></trkpt><trkpt lat="43.4351731" lon="11.1928211"><ele>244.00000000000003</ele><time>2026-05-02T10:41:47.561Z</time></trkpt><trkpt lat="43.4351803" lon="11.1927124"><ele>243.0</ele><time>2026-05-02T10:41:48.476Z</time></trkpt><trkpt lat="43.4351947" lon="11.1926017"><ele>242.0</ele><time>2026-05-02T10:41:49.472Z</time></trkpt><trkpt lat="43.4351984" lon="11.1924929"><ele>241.0</ele><time>2026-05-02T10:41:50.491Z</time></trkpt><trkpt lat="43.4351886" lon="11.1923846"><ele>240.00000000000003</ele><time>2026-05-02T10:41:51.48Z</time></trkpt><trkpt lat="43.4351831" lon="11.1922701"><ele>239.0</ele><time>2026-05-02T10:41:52.569Z</time></trkpt><trkpt lat="43.4351721" lon="11.1921604"><ele>239.00000000000003</ele><time>2026-05-02T10:41:53.485Z</time></trkpt><trkpt lat="43.4351627" lon="11.1920548"><ele>239.0</ele><time>2026-05-02T10:41:54.501Z</time></trkpt><trkpt lat="43.4351662" lon="11.1919549"><ele>239.0</ele><time>2026-05-02T10:41:55.555Z</time></trkpt><trkpt lat="43.4351719" lon="11.1918683"><ele>239.0</ele><time>2026-05-02T10:41:56.563Z</time></trkpt><trkpt lat="43.435175" lon="11.1917802"><ele>239.00000000000003</ele><time>2026-05-02T10:41:57.565Z</time></trkpt><trkpt lat="43.4351932" lon="11.1916231"><ele>239.0</ele><time>2026-05-02T10:41:59.497Z</time></trkpt><trkpt lat="43.4352304" lon="11.1914796"><ele>239.79999999999998</ele><time>2026-05-02T10:42:01.555Z</time></trkpt><trkpt lat="43.4352859" lon="11.1913606"><ele>240.59999999999997</ele><time>2026-05-02T10:42:03.485Z</time></trkpt><trkpt lat="43.4353324" lon="11.1912467"><ele>241.4</ele><time>2026-05-02T10:42:05.486Z</time></trkpt><trkpt lat="43.435377" lon="11.1911319"><ele>242.2</ele><time>2026-05-02T10:42:07.555Z</time></trkpt><trkpt lat="43.4354142" lon="11.1910191"><ele>243.0</ele><time>2026-05-02T10:42:09.497Z</time></trkpt><trkpt lat="43.4354693" lon="11.1909157"><ele>240.60000000000002</ele><time>2026-05-02T10:42:11.481Z</time></trkpt><trkpt lat="43.4355271" lon="11.1908357"><ele>238.20000000000002</ele><time>2026-05-02T10:42:13.502Z</time></trkpt><trkpt lat="43.4355806" lon="11.1907506"><ele>235.8</ele><time>2026-05-02T10:42:15.48Z</time></trkpt><trkpt lat="43.4356262" lon="11.1906428"><ele>233.4</ele><time>2026-05-02T10:42:17.502Z</time></trkpt><trkpt lat="43.4356824" lon="11.1905209"><ele>231.0</ele><time>2026-05-02T10:42:19.495Z</time></trkpt><trkpt lat="43.4357419" lon="11.1904004"><ele>231.0</ele><time>2026-05-02T10:42:21.571Z</time></trkpt><trkpt lat="43.4358037" lon="11.1902501"><ele>231.0</ele><time>2026-05-02T10:42:23.499Z</time></trkpt><trkpt lat="43.4358585" lon="11.1901136"><ele>231.0</ele><time>2026-05-02T10:42:25.485Z</time></trkpt><trkpt lat="43.4359268" lon="11.1899831"><ele>231.0</ele><time>2026-05-02T10:42:27.489Z</time></trkpt><trkpt lat="43.4360107" lon="11.1898832"><ele>231.4</ele><time>2026-05-02T10:42:29.493Z</time></trkpt><trkpt lat="43.4360895" lon="11.1898016"><ele>231.8</ele><time>2026-05-02T10:42:31.546Z</time></trkpt><trkpt lat="43.4361701" lon="11.1896882"><ele>232.20000000000002</ele><time>2026-05-02T10:42:33.496Z</time></trkpt><trkpt lat="43.4362231" lon="11.1895382"><ele>232.60000000000002</ele><time>2026-05-02T10:42:35.49Z</time></trkpt><trkpt lat="43.436247" lon="11.1893861"><ele>233.0</ele><time>2026-05-02T10:42:37.494Z</time></trkpt><trkpt lat="43.4362396" lon="11.1892395"><ele>233.0</ele><time>2026-05-02T10:42:39.497Z</time></trkpt><trkpt lat="43.436234" lon="11.1890971"><ele>233.0</ele><time>2026-05-02T10:42:41.563Z</time></trkpt><trkpt lat="43.4362312" lon="11.1889622"><ele>233.0</ele><time>2026-05-02T10:42:43.502Z</time></trkpt><trkpt lat="43.4362262" lon="11.1888298"><ele>233.0</ele><time>2026-05-02T10:42:45.496Z</time></trkpt><trkpt lat="43.4362176" lon="11.1886944"><ele>233.0</ele><time>2026-05-02T10:42:47.493Z</time></trkpt><trkpt lat="43.4361756" lon="11.1885611"><ele>233.0</ele><time>2026-05-02T10:42:49.485Z</time></trkpt><trkpt lat="43.4361337" lon="11.1884176"><ele>233.0</ele><time>2026-05-02T10:42:51.505Z</time></trkpt><trkpt lat="43.4361262" lon="11.1882725"><ele>233.0</ele><time>2026-05-02T10:42:53.504Z</time></trkpt><trkpt lat="43.4361671" lon="11.1881291"><ele>233.0</ele><time>2026-05-02T10:42:55.506Z</time></trkpt><trkpt lat="43.436252" lon="11.188022"><ele>233.0</ele><time>2026-05-02T10:42:57.571Z</time></trkpt><trkpt lat="43.436368" lon="11.1879306"><ele>231.71428571428572</ele><time>2026-05-02T10:42:59.492Z</time></trkpt><trkpt lat="43.4364263" lon="11.1878792"><ele>230.42857142857142</ele><time>2026-05-02T10:43:00.487Z</time></trkpt><trkpt lat="43.4364749" lon="11.1878157"><ele>229.14285714285714</ele><time>2026-05-02T10:43:01.569Z</time></trkpt><trkpt lat="43.4364882" lon="11.1876981"><ele>227.85714285714286</ele><time>2026-05-02T10:43:03.537Z</time></trkpt><trkpt lat="43.4364764" lon="11.1876114"><ele>226.57142857142856</ele><time>2026-05-02T10:43:05.495Z</time></trkpt><trkpt lat="43.4365335" lon="11.1875627"><ele>225.28571428571428</ele><time>2026-05-02T10:43:08.475Z</time></trkpt><trkpt lat="43.4365942" lon="11.1874611"><ele>224.0</ele><time>2026-05-02T10:43:11.566Z</time></trkpt><trkpt lat="43.4366704" lon="11.1874141"><ele>224.00000000000003</ele><time>2026-05-02T10:43:14.493Z</time></trkpt><trkpt lat="43.4367463" lon="11.1873951"><ele>224.0</ele><time>2026-05-02T10:43:16.563Z</time></trkpt><trkpt lat="43.4368196" lon="11.187329"><ele>224.0</ele><time>2026-05-02T10:43:18.5Z</time></trkpt><trkpt lat="43.436921" lon="11.1872938"><ele>224.0</ele><time>2026-05-02T10:43:20.516Z</time></trkpt><trkpt lat="43.4369971" lon="11.1872618"><ele>224.00000000000003</ele><time>2026-05-02T10:43:22.495Z</time></trkpt><trkpt lat="43.4370713" lon="11.1872098"><ele>224.0</ele><time>2026-05-02T10:43:24.502Z</time></trkpt><trkpt lat="43.4371572" lon="11.1871586"><ele>223.6</ele><time>2026-05-02T10:43:26.565Z</time></trkpt><trkpt lat="43.4372276" lon="11.1871118"><ele>223.2</ele><time>2026-05-02T10:43:28.489Z</time></trkpt><trkpt lat="43.4372936" lon="11.1870691"><ele>222.79999999999998</ele><time>2026-05-02T10:43:30.493Z</time></trkpt><trkpt lat="43.4373968" lon="11.1870144"><ele>222.39999999999998</ele><time>2026-05-02T10:43:32.49Z</time></trkpt><trkpt lat="43.4374843" lon="11.1869635"><ele>222.0</ele><time>2026-05-02T10:43:34.498Z</time></trkpt><trkpt lat="43.4375684" lon="11.186873"><ele>222.0</ele><time>2026-05-02T10:43:36.569Z</time></trkpt><trkpt lat="43.4376582" lon="11.1867946"><ele>222.0</ele><time>2026-05-02T10:43:38.483Z</time></trkpt><trkpt lat="43.4377562" lon="11.1867205"><ele>222.0</ele><time>2026-05-02T10:43:40.498Z</time></trkpt><trkpt lat="43.4378462" lon="11.1866521"><ele>222.0</ele><time>2026-05-02T10:43:42.501Z</time></trkpt><trkpt lat="43.4379287" lon="11.1865647"><ele>222.0</ele><time>2026-05-02T10:43:44.497Z</time></trkpt><trkpt lat="43.4380226" lon="11.1864636"><ele>219.0</ele><time>2026-05-02T10:43:46.564Z</time></trkpt><trkpt lat="43.4380763" lon="11.1864145"><ele>216.0</ele><time>2026-05-02T10:43:47.49Z</time></trkpt><trkpt lat="43.4381668" lon="11.1863282"><ele>213.0</ele><time>2026-05-02T10:43:49.505Z</time></trkpt><trkpt lat="43.4382626" lon="11.1862552"><ele>210.0</ele><time>2026-05-02T10:43:51.478Z</time></trkpt><trkpt lat="43.4383218" lon="11.1862047"><ele>207.0</ele><time>2026-05-02T10:43:52.485Z</time></trkpt><trkpt lat="43.4383817" lon="11.1861556"><ele>204.0</ele><time>2026-05-02T10:43:53.492Z</time></trkpt><trkpt lat="43.4384603" lon="11.1860638"><ele>204.0</ele><time>2026-05-02T10:43:55.489Z</time></trkpt><trkpt lat="43.4385413" lon="11.1859578"><ele>204.0</ele><time>2026-05-02T10:43:57.497Z</time></trkpt><trkpt lat="43.438598" lon="11.1858689"><ele>204.0</ele><time>2026-05-02T10:43:59.49Z</time></trkpt><trkpt lat="43.4386556" lon="11.1858105"><ele>204.0</ele><time>2026-05-02T10:44:01.58Z</time></trkpt><trkpt lat="43.4387148" lon="11.1857599"><ele>204.0</ele><time>2026-05-02T10:44:03.489Z</time></trkpt><trkpt lat="43.4387728" lon="11.1856867"><ele>204.0</ele><time>2026-05-02T10:44:07.561Z</time></trkpt><trkpt lat="43.4387692" lon="11.1855935"><ele>201.83333333333334</ele><time>2026-05-02T10:44:12.491Z</time></trkpt><trkpt lat="43.4386904" lon="11.1856138"><ele>199.66666666666666</ele><time>2026-05-02T10:44:32.497Z</time></trkpt><trkpt lat="43.4386218" lon="11.1856071"><ele>197.5</ele><time>2026-05-02T10:44:35.492Z</time></trkpt><trkpt lat="43.4385511" lon="11.1856088"><ele>195.33333333333331</ele><time>2026-05-02T10:44:37.566Z</time></trkpt><trkpt lat="43.4384728" lon="11.1856229"><ele>193.16666666666666</ele><time>2026-05-02T10:44:39.503Z</time></trkpt><trkpt lat="43.4383857" lon="11.1856235"><ele>191.0</ele><time>2026-05-02T10:44:41.571Z</time></trkpt><trkpt lat="43.4383096" lon="11.1856141"><ele>191.0</ele><time>2026-05-02T10:44:43.48Z</time></trkpt><trkpt lat="43.4382344" lon="11.185644"><ele>191.0</ele><time>2026-05-02T10:44:45.483Z</time></trkpt><trkpt lat="43.4381545" lon="11.1856798"><ele>191.0</ele><time>2026-05-02T10:44:47.561Z</time></trkpt><trkpt lat="43.438058" lon="11.1856959"><ele>191.0</ele><time>2026-05-02T10:44:49.483Z</time></trkpt><trkpt lat="43.4379577" lon="11.1856928"><ele>191.0</ele><time>2026-05-02T10:44:51.553Z</time></trkpt><trkpt lat="43.4378532" lon="11.1857143"><ele>194.60000000000002</ele><time>2026-05-02T10:44:53.498Z</time></trkpt><trkpt lat="43.4377628" lon="11.1857445"><ele>198.2</ele><time>2026-05-02T10:44:55.487Z</time></trkpt><trkpt lat="43.4376788" lon="11.1857591"><ele>201.8</ele><time>2026-05-02T10:44:57.479Z</time></trkpt><trkpt lat="43.4375845" lon="11.1857584"><ele>205.39999999999998</ele><time>2026-05-02T10:44:59.482Z</time></trkpt><trkpt lat="43.4374679" lon="11.1857162"><ele>209.0</ele><time>2026-05-02T10:45:01.497Z</time></trkpt><trkpt lat="43.4374089" lon="11.1856811"><ele>205.85714285714286</ele><time>2026-05-02T10:45:02.491Z</time></trkpt><trkpt lat="43.437351" lon="11.1856453"><ele>202.71428571428572</ele><time>2026-05-02T10:45:03.493Z</time></trkpt><trkpt lat="43.4372932" lon="11.1856083"><ele>199.57142857142856</ele><time>2026-05-02T10:45:04.489Z</time></trkpt><trkpt lat="43.4372355" lon="11.1855722"><ele>196.42857142857144</ele><time>2026-05-02T10:45:05.487Z</time></trkpt><trkpt lat="43.4371722" lon="11.1855261"><ele>193.2857142857143</ele><time>2026-05-02T10:45:06.555Z</time></trkpt><trkpt lat="43.4370975" lon="11.1854718"><ele>190.14285714285714</ele><time>2026-05-02T10:45:07.558Z</time></trkpt><trkpt lat="43.4370157" lon="11.1854067"><ele>187.0</ele><time>2026-05-02T10:45:08.498Z</time></trkpt><trkpt lat="43.4369468" lon="11.1853677"><ele>186.6</ele><time>2026-05-02T10:45:09.486Z</time></trkpt><trkpt lat="43.4368771" lon="11.1853427"><ele>186.2</ele><time>2026-05-02T10:45:10.493Z</time></trkpt><trkpt lat="43.4367986" lon="11.1853231"><ele>185.8</ele><time>2026-05-02T10:45:11.603Z</time></trkpt><trkpt lat="43.4366658" lon="11.1852905"><ele>185.4</ele><time>2026-05-02T10:45:13.499Z</time></trkpt><trkpt lat="43.4365436" lon="11.1852399"><ele>185.0</ele><time>2026-05-02T10:45:15.495Z</time></trkpt><trkpt lat="43.43648" lon="11.1852133"><ele>184.99999999999997</ele><time>2026-05-02T10:45:16.505Z</time></trkpt><trkpt lat="43.4364168" lon="11.185192"><ele>185.0</ele><time>2026-05-02T10:45:17.572Z</time></trkpt><trkpt lat="43.4363511" lon="11.1851838"><ele>185.0</ele><time>2026-05-02T10:45:18.484Z</time></trkpt><trkpt lat="43.4362809" lon="11.1851824"><ele>185.0</ele><time>2026-05-02T10:45:19.494Z</time></trkpt><trkpt lat="43.4362028" lon="11.1851635"><ele>185.0</ele><time>2026-05-02T10:45:20.515Z</time></trkpt><trkpt lat="43.4361281" lon="11.185146"><ele>184.99999999999997</ele><time>2026-05-02T10:45:21.567Z</time></trkpt><trkpt lat="43.4360499" lon="11.1851245"><ele>185.0</ele><time>2026-05-02T10:45:22.568Z</time></trkpt><trkpt lat="43.4359701" lon="11.1851068"><ele>184.66666666666666</ele><time>2026-05-02T10:45:23.479Z</time></trkpt><trkpt lat="43.4358873" lon="11.1850936"><ele>184.33333333333331</ele><time>2026-05-02T10:45:24.509Z</time></trkpt><trkpt lat="43.4357968" lon="11.1850698"><ele>184.0</ele><time>2026-05-02T10:45:25.498Z</time></trkpt><trkpt lat="43.4357178" lon="11.1850584"><ele>183.66666666666666</ele><time>2026-05-02T10:45:26.562Z</time></trkpt><trkpt lat="43.4356381" lon="11.1850571"><ele>183.33333333333334</ele><time>2026-05-02T10:45:27.559Z</time></trkpt><trkpt lat="43.4355564" lon="11.1850418"><ele>183.0</ele><time>2026-05-02T10:45:28.476Z</time></trkpt><trkpt lat="43.4354638" lon="11.1850138"><ele>182.85714285714286</ele><time>2026-05-02T10:45:29.504Z</time></trkpt><trkpt lat="43.4353806" lon="11.1849962"><ele>182.71428571428572</ele><time>2026-05-02T10:45:30.502Z</time></trkpt><trkpt lat="43.4353034" lon="11.1849842"><ele>182.57142857142856</ele><time>2026-05-02T10:45:31.494Z</time></trkpt><trkpt lat="43.4352312" lon="11.1849732"><ele>182.42857142857144</ele><time>2026-05-02T10:45:32.494Z</time></trkpt><trkpt lat="43.4351628" lon="11.1849584"><ele>182.28571428571428</ele><time>2026-05-02T10:45:33.504Z</time></trkpt><trkpt lat="43.4350967" lon="11.1849362"><ele>182.14285714285714</ele><time>2026-05-02T10:45:34.509Z</time></trkpt><trkpt lat="43.4350295" lon="11.1849199"><ele>182.0</ele><time>2026-05-02T10:45:35.488Z</time></trkpt><trkpt lat="43.4349554" lon="11.184905"><ele>182.0</ele><time>2026-05-02T10:45:36.484Z</time></trkpt><trkpt lat="43.4348684" lon="11.1848895"><ele>182.0</ele><time>2026-05-02T10:45:37.496Z</time></trkpt><trkpt lat="43.4347742" lon="11.1848697"><ele>182.0</ele><time>2026-05-02T10:45:38.489Z</time></trkpt><trkpt lat="43.4346782" lon="11.1848473"><ele>182.0</ele><time>2026-05-02T10:45:39.504Z</time></trkpt><trkpt lat="43.4345794" lon="11.184823"><ele>182.0</ele><time>2026-05-02T10:45:40.562Z</time></trkpt><trkpt lat="43.4344695" lon="11.1847782"><ele>179.39999999999998</ele><time>2026-05-02T10:45:41.578Z</time></trkpt><trkpt lat="43.4343734" lon="11.1847184"><ele>176.79999999999998</ele><time>2026-05-02T10:45:42.565Z</time></trkpt><trkpt lat="43.4342837" lon="11.184659"><ele>174.2</ele><time>2026-05-02T10:45:43.506Z</time></trkpt><trkpt lat="43.4341846" lon="11.1846099"><ele>171.6</ele><time>2026-05-02T10:45:44.488Z</time></trkpt><trkpt lat="43.4340829" lon="11.1845724"><ele>169.0</ele><time>2026-05-02T10:45:45.489Z</time></trkpt><trkpt lat="43.4339783" lon="11.1845321"><ele>169.0</ele><time>2026-05-02T10:45:46.563Z</time></trkpt><trkpt lat="43.4338816" lon="11.184504"><ele>169.0</ele><time>2026-05-02T10:45:47.583Z</time></trkpt><trkpt lat="43.4337827" lon="11.1844729"><ele>169.0</ele><time>2026-05-02T10:45:48.492Z</time></trkpt><trkpt lat="43.4336747" lon="11.1844503"><ele>169.0</ele><time>2026-05-02T10:45:49.502Z</time></trkpt><trkpt lat="43.4335649" lon="11.1844084"><ele>169.0</ele><time>2026-05-02T10:45:50.498Z</time></trkpt><trkpt lat="43.4334658" lon="11.1843684"><ele>168.6</ele><time>2026-05-02T10:45:51.554Z</time></trkpt><trkpt lat="43.4333745" lon="11.1843338"><ele>168.2</ele><time>2026-05-02T10:45:52.576Z</time></trkpt><trkpt lat="43.4332807" lon="11.1842923"><ele>167.79999999999998</ele><time>2026-05-02T10:45:53.493Z</time></trkpt><trkpt lat="43.4331799" lon="11.1842452"><ele>167.39999999999998</ele><time>2026-05-02T10:45:54.489Z</time></trkpt><trkpt lat="43.4330765" lon="11.1841964"><ele>167.0</ele><time>2026-05-02T10:45:55.499Z</time></trkpt><trkpt lat="43.4329766" lon="11.1841519"><ele>167.33333333333331</ele><time>2026-05-02T10:45:56.575Z</time></trkpt><trkpt lat="43.4328948" lon="11.1841202"><ele>167.66666666666666</ele><time>2026-05-02T10:45:57.504Z</time></trkpt><trkpt lat="43.4328092" lon="11.1840917"><ele>168.0</ele><time>2026-05-02T10:45:58.499Z</time></trkpt><trkpt lat="43.4327185" lon="11.1840565"><ele>168.33333333333334</ele><time>2026-05-02T10:45:59.515Z</time></trkpt><trkpt lat="43.4326334" lon="11.1840308"><ele>168.66666666666669</ele><time>2026-05-02T10:46:00.504Z</time></trkpt><trkpt lat="43.4325516" lon="11.1839925"><ele>169.0</ele><time>2026-05-02T10:46:01.565Z</time></trkpt><trkpt lat="43.4324654" lon="11.1839538"><ele>167.0</ele><time>2026-05-02T10:46:02.499Z</time></trkpt><trkpt lat="43.4323733" lon="11.1839186"><ele>165.0</ele><time>2026-05-02T10:46:03.505Z</time></trkpt><trkpt lat="43.4322855" lon="11.1838865"><ele>163.0</ele><time>2026-05-02T10:46:04.493Z</time></trkpt><trkpt lat="43.4321994" lon="11.183848"><ele>161.0</ele><time>2026-05-02T10:46:05.486Z</time></trkpt><trkpt lat="43.432103" lon="11.1838162"><ele>159.0</ele><time>2026-05-02T10:46:06.497Z</time></trkpt><trkpt lat="43.4319987" lon="11.1837946"><ele>158.0</ele><time>2026-05-02T10:46:07.47Z</time></trkpt><trkpt lat="43.4318893" lon="11.1837754"><ele>157.0</ele><time>2026-05-02T10:46:08.504Z</time></trkpt><trkpt lat="43.4317827" lon="11.1837542"><ele>156.0</ele><time>2026-05-02T10:46:09.499Z</time></trkpt><trkpt lat="43.431674" lon="11.1837357"><ele>155.0</ele><time>2026-05-02T10:46:10.498Z</time></trkpt><trkpt lat="43.4315681" lon="11.1837185"><ele>154.0</ele><time>2026-05-02T10:46:11.561Z</time></trkpt><trkpt lat="43.4314652" lon="11.1836922"><ele>154.0</ele><time>2026-05-02T10:46:12.559Z</time></trkpt><trkpt lat="43.4313649" lon="11.1836536"><ele>154.0</ele><time>2026-05-02T10:46:13.473Z</time></trkpt><trkpt lat="43.4312672" lon="11.1835958"><ele>154.0</ele><time>2026-05-02T10:46:14.493Z</time></trkpt><trkpt lat="43.431184" lon="11.183505"><ele>154.0</ele><time>2026-05-02T10:46:15.495Z</time></trkpt><trkpt lat="43.4311294" lon="11.1833786"><ele>154.0</ele><time>2026-05-02T10:46:16.567Z</time></trkpt><trkpt lat="43.4310929" lon="11.1831153"><ele>156.5</ele><time>2026-05-02T10:46:18.485Z</time></trkpt><trkpt lat="43.4310852" lon="11.182991"><ele>159.0</ele><time>2026-05-02T10:46:19.501Z</time></trkpt><trkpt lat="43.4310727" lon="11.1828875"><ele>161.5</ele><time>2026-05-02T10:46:20.502Z</time></trkpt><trkpt lat="43.4310565" lon="11.1828012"><ele>164.0</ele><time>2026-05-02T10:46:21.573Z</time></trkpt><trkpt lat="43.4310322" lon="11.1826756"><ele>166.5</ele><time>2026-05-02T10:46:23.493Z</time></trkpt><trkpt lat="43.4310233" lon="11.1825702"><ele>169.0</ele><time>2026-05-02T10:46:25.495Z</time></trkpt><trkpt lat="43.4310193" lon="11.1824631"><ele>169.0</ele><time>2026-05-02T10:46:27.573Z</time></trkpt><trkpt lat="43.4310114" lon="11.1823595"><ele>169.0</ele><time>2026-05-02T10:46:29.5Z</time></trkpt><trkpt lat="43.4310102" lon="11.1822723"><ele>169.0</ele><time>2026-05-02T10:46:31.569Z</time></trkpt><trkpt lat="43.4310102" lon="11.1821578"><ele>169.0</ele><time>2026-05-02T10:46:34.483Z</time></trkpt><trkpt lat="43.4309874" lon="11.1820629"><ele>169.0</ele><time>2026-05-02T10:46:36.478Z</time></trkpt><trkpt lat="43.4309751" lon="11.1819653"><ele>169.0</ele><time>2026-05-02T10:46:38.485Z</time></trkpt><trkpt lat="43.4309482" lon="11.1818484"><ele>168.83333333333334</ele><time>2026-05-02T10:46:41.498Z</time></trkpt><trkpt lat="43.4309271" lon="11.1817496"><ele>168.66666666666669</ele><time>2026-05-02T10:46:44.485Z</time></trkpt><trkpt lat="43.4309112" lon="11.181639"><ele>168.5</ele><time>2026-05-02T10:46:48.49Z</time></trkpt><trkpt lat="43.4308661" lon="11.1815445"><ele>168.33333333333334</ele><time>2026-05-02T10:46:52.5Z</time></trkpt><trkpt lat="43.4308026" lon="11.1814506"><ele>168.16666666666666</ele><time>2026-05-02T10:46:56.565Z</time></trkpt><trkpt lat="43.4307305" lon="11.1813729"><ele>168.0</ele><time>2026-05-02T10:46:59.491Z</time></trkpt><trkpt lat="43.4306746" lon="11.1813219"><ele>167.16666666666666</ele><time>2026-05-02T10:47:01.56Z</time></trkpt><trkpt lat="43.4306218" lon="11.1812652"><ele>166.33333333333334</ele><time>2026-05-02T10:47:03.496Z</time></trkpt><trkpt lat="43.4305479" lon="11.1811885"><ele>165.5</ele><time>2026-05-02T10:47:06.562Z</time></trkpt><trkpt lat="43.4304802" lon="11.1811101"><ele>164.66666666666669</ele><time>2026-05-02T10:47:08.486Z</time></trkpt><trkpt lat="43.4304173" lon="11.1810372"><ele>163.83333333333334</ele><time>2026-05-02T10:47:10.502Z</time></trkpt><trkpt lat="43.4303401" lon="11.1809678"><ele>163.0</ele><time>2026-05-02T10:47:13.504Z</time></trkpt><trkpt lat="43.4302837" lon="11.1809181"><ele>163.0</ele><time>2026-05-02T10:47:15.486Z</time></trkpt><trkpt lat="43.4302043" lon="11.1808799"><ele>163.0</ele><time>2026-05-02T10:47:17.5Z</time></trkpt><trkpt lat="43.4301121" lon="11.1808739"><ele>163.0</ele><time>2026-05-02T10:47:19.507Z</time></trkpt><trkpt lat="43.4300348" lon="11.1809065"><ele>163.0</ele><time>2026-05-02T10:47:21.57Z</time></trkpt><trkpt lat="43.4299753" lon="11.1810141"><ele>163.0</ele><time>2026-05-02T10:47:23.494Z</time></trkpt><trkpt lat="43.4298948" lon="11.181121"><ele>163.0</ele><time>2026-05-02T10:47:25.494Z</time></trkpt><trkpt lat="43.4298233" lon="11.181161"><ele>163.0</ele><time>2026-05-02T10:47:26.473Z</time></trkpt><trkpt lat="43.4297571" lon="11.1812025"><ele>163.0</ele><time>2026-05-02T10:47:27.569Z</time></trkpt><trkpt lat="43.4296495" lon="11.1812853"><ele>163.0</ele><time>2026-05-02T10:47:29.493Z</time></trkpt><trkpt lat="43.4295809" lon="11.1813057"><ele>163.0</ele><time>2026-05-02T10:47:30.492Z</time></trkpt><trkpt lat="43.4295029" lon="11.1812879"><ele>163.0</ele><time>2026-05-02T10:47:31.493Z</time></trkpt><trkpt lat="43.4294189" lon="11.1812526"><ele>162.33333333333334</ele><time>2026-05-02T10:47:32.491Z</time></trkpt><trkpt lat="43.4293398" lon="11.1812114"><ele>161.66666666666669</ele><time>2026-05-02T10:47:33.5Z</time></trkpt><trkpt lat="43.4292652" lon="11.181142"><ele>161.0</ele><time>2026-05-02T10:47:34.501Z</time></trkpt><trkpt lat="43.4291978" lon="11.1810548"><ele>160.33333333333334</ele><time>2026-05-02T10:47:35.48Z</time></trkpt><trkpt lat="43.4291363" lon="11.1809633"><ele>159.66666666666666</ele><time>2026-05-02T10:47:36.496Z</time></trkpt><trkpt lat="43.4290851" lon="11.1808804"><ele>159.0</ele><time>2026-05-02T10:47:37.487Z</time></trkpt><trkpt lat="43.4290384" lon="11.1808077"><ele>159.0</ele><time>2026-05-02T10:47:38.48Z</time></trkpt><trkpt lat="43.4289959" lon="11.1807341"><ele>159.0</ele><time>2026-05-02T10:47:39.485Z</time></trkpt><trkpt lat="43.4289519" lon="11.1806616"><ele>159.0</ele><time>2026-05-02T10:47:40.497Z</time></trkpt><trkpt lat="43.4289021" lon="11.1806024"><ele>159.0</ele><time>2026-05-02T10:47:41.503Z</time></trkpt><trkpt lat="43.4287799" lon="11.1805661"><ele>159.0</ele><time>2026-05-02T10:47:43.497Z</time></trkpt><trkpt lat="43.4287086" lon="11.1805783"><ele>159.0</ele><time>2026-05-02T10:47:44.515Z</time></trkpt><trkpt lat="43.4286412" lon="11.180611"><ele>157.6</ele><time>2026-05-02T10:47:45.501Z</time></trkpt><trkpt lat="43.4285869" lon="11.1806627"><ele>156.2</ele><time>2026-05-02T10:47:46.489Z</time></trkpt><trkpt lat="43.4285423" lon="11.1807529"><ele>154.79999999999998</ele><time>2026-05-02T10:47:47.505Z</time></trkpt><trkpt lat="43.4284966" lon="11.1808646"><ele>153.4</ele><time>2026-05-02T10:47:48.488Z</time></trkpt><trkpt lat="43.4284427" lon="11.1809914"><ele>152.0</ele><time>2026-05-02T10:47:49.491Z</time></trkpt><trkpt lat="43.4283891" lon="11.181118"><ele>152.0</ele><time>2026-05-02T10:47:50.506Z</time></trkpt><trkpt lat="43.4283318" lon="11.1812466"><ele>152.0</ele><time>2026-05-02T10:47:51.482Z</time></trkpt><trkpt lat="43.4282757" lon="11.1813628"><ele>152.0</ele><time>2026-05-02T10:47:52.495Z</time></trkpt><trkpt lat="43.4282234" lon="11.1814763"><ele>152.0</ele><time>2026-05-02T10:47:53.499Z</time></trkpt><trkpt lat="43.4281785" lon="11.1815691"><ele>152.0</ele><time>2026-05-02T10:47:54.489Z</time></trkpt><trkpt lat="43.428137" lon="11.1816529"><ele>152.57142857142856</ele><time>2026-05-02T10:47:55.486Z</time></trkpt><trkpt lat="43.4280899" lon="11.1817162"><ele>153.14285714285717</ele><time>2026-05-02T10:47:56.489Z</time></trkpt><trkpt lat="43.4280262" lon="11.1817491"><ele>153.71428571428572</ele><time>2026-05-02T10:47:57.495Z</time></trkpt><trkpt lat="43.4279575" lon="11.1817556"><ele>154.28571428571428</ele><time>2026-05-02T10:47:58.487Z</time></trkpt><trkpt lat="43.4278832" lon="11.1817523"><ele>154.85714285714283</ele><time>2026-05-02T10:47:59.49Z</time></trkpt><trkpt lat="43.4278139" lon="11.18174"><ele>155.42857142857144</ele><time>2026-05-02T10:48:00.474Z</time></trkpt><trkpt lat="43.4277445" lon="11.1817111"><ele>156.0</ele><time>2026-05-02T10:48:01.5Z</time></trkpt><trkpt lat="43.4276748" lon="11.1816598"><ele>154.85714285714286</ele><time>2026-05-02T10:48:02.499Z</time></trkpt><trkpt lat="43.4275992" lon="11.1816147"><ele>153.7142857142857</ele><time>2026-05-02T10:48:03.496Z</time></trkpt><trkpt lat="43.4275307" lon="11.1816006"><ele>152.57142857142856</ele><time>2026-05-02T10:48:04.488Z</time></trkpt><trkpt lat="43.4274628" lon="11.1816257"><ele>151.42857142857144</ele><time>2026-05-02T10:48:05.488Z</time></trkpt><trkpt lat="43.4274007" lon="11.1816768"><ele>150.28571428571428</ele><time>2026-05-02T10:48:06.506Z</time></trkpt><trkpt lat="43.4273453" lon="11.181718"><ele>149.14285714285714</ele><time>2026-05-02T10:48:07.498Z</time></trkpt><trkpt lat="43.4272871" lon="11.1817644"><ele>148.0</ele><time>2026-05-02T10:48:08.487Z</time></trkpt><trkpt lat="43.4272244" lon="11.1818046"><ele>147.16666666666669</ele><time>2026-05-02T10:48:09.498Z</time></trkpt><trkpt lat="43.4271052" lon="11.181862"><ele>146.33333333333334</ele><time>2026-05-02T10:48:11.498Z</time></trkpt><trkpt lat="43.4270418" lon="11.1818876"><ele>145.5</ele><time>2026-05-02T10:48:12.501Z</time></trkpt><trkpt lat="43.4269751" lon="11.1819187"><ele>144.66666666666666</ele><time>2026-05-02T10:48:13.482Z</time></trkpt><trkpt lat="43.4269137" lon="11.1819467"><ele>143.83333333333331</ele><time>2026-05-02T10:48:14.484Z</time></trkpt><trkpt lat="43.4268003" lon="11.181996"><ele>143.0</ele><time>2026-05-02T10:48:16.499Z</time></trkpt><trkpt lat="43.4266938" lon="11.1820297"><ele>143.0</ele><time>2026-05-02T10:48:18.505Z</time></trkpt><trkpt lat="43.4265895" lon="11.1820547"><ele>143.0</ele><time>2026-05-02T10:48:20.497Z</time></trkpt><trkpt lat="43.426476" lon="11.1820827"><ele>143.0</ele><time>2026-05-02T10:48:22.487Z</time></trkpt><trkpt lat="43.4264119" lon="11.1820931"><ele>143.0</ele><time>2026-05-02T10:48:23.492Z</time></trkpt><trkpt lat="43.4262927" lon="11.1820995"><ele>143.0</ele><time>2026-05-02T10:48:25.498Z</time></trkpt><trkpt lat="43.4261757" lon="11.1820879"><ele>143.4</ele><time>2026-05-02T10:48:27.472Z</time></trkpt><trkpt lat="43.4260668" lon="11.1820852"><ele>143.8</ele><time>2026-05-02T10:48:29.505Z</time></trkpt><trkpt lat="43.4259684" lon="11.1820884"><ele>144.2</ele><time>2026-05-02T10:48:31.497Z</time></trkpt><trkpt lat="43.4258708" lon="11.1821259"><ele>144.6</ele><time>2026-05-02T10:48:33.51Z</time></trkpt><trkpt lat="43.4257996" lon="11.1822123"><ele>145.0</ele><time>2026-05-02T10:48:35.503Z</time></trkpt><trkpt lat="43.4257475" lon="11.1823232"><ele>144.5</ele><time>2026-05-02T10:48:37.49Z</time></trkpt><trkpt lat="43.4257031" lon="11.1824367"><ele>144.0</ele><time>2026-05-02T10:48:39.493Z</time></trkpt><trkpt lat="43.4256643" lon="11.1825523"><ele>143.5</ele><time>2026-05-02T10:48:41.487Z</time></trkpt><trkpt lat="43.4256223" lon="11.1826505"><ele>143.0</ele><time>2026-05-02T10:48:43.501Z</time></trkpt><trkpt lat="43.4255788" lon="11.1827439"><ele>142.5</ele><time>2026-05-02T10:48:45.488Z</time></trkpt><trkpt lat="43.4255325" lon="11.1828292"><ele>142.0</ele><time>2026-05-02T10:48:47.491Z</time></trkpt><trkpt lat="43.4254899" lon="11.1829111"><ele>143.71428571428572</ele><time>2026-05-02T10:48:49.488Z</time></trkpt><trkpt lat="43.4254511" lon="11.1829894"><ele>145.42857142857142</ele><time>2026-05-02T10:48:51.503Z</time></trkpt><trkpt lat="43.4254088" lon="11.1830656"><ele>147.14285714285714</ele><time>2026-05-02T10:48:53.488Z</time></trkpt><trkpt lat="43.4253761" lon="11.1831397"><ele>148.85714285714286</ele><time>2026-05-02T10:48:55.497Z</time></trkpt><trkpt lat="43.4253228" lon="11.1832365"><ele>150.57142857142856</ele><time>2026-05-02T10:48:58.496Z</time></trkpt><trkpt lat="43.4252601" lon="11.1833137"><ele>152.28571428571428</ele><time>2026-05-02T10:49:01.494Z</time></trkpt><trkpt lat="43.4251888" lon="11.1833188"><ele>154.0</ele><time>2026-05-02T10:49:04.488Z</time></trkpt><trkpt lat="43.4251281" lon="11.1832665"><ele>154.0</ele><time>2026-05-02T10:49:07.509Z</time></trkpt><trkpt lat="43.4250772" lon="11.1832091"><ele>154.0</ele><time>2026-05-02T10:49:10.489Z</time></trkpt><trkpt lat="43.425021" lon="11.1831348"><ele>154.0</ele><time>2026-05-02T10:49:14.498Z</time></trkpt><trkpt lat="43.4249604" lon="11.1830665"><ele>154.0</ele><time>2026-05-02T10:49:18.487Z</time></trkpt><trkpt lat="43.4249048" lon="11.1830034"><ele>154.0</ele><time>2026-05-02T10:49:22.475Z</time></trkpt><trkpt lat="43.4248425" lon="11.1829427"><ele>154.0</ele><time>2026-05-02T10:49:27.479Z</time></trkpt><trkpt lat="43.4248009" lon="11.1828486"><ele>154.85714285714286</ele><time>2026-05-02T10:49:37.491Z</time></trkpt><trkpt lat="43.4247614" lon="11.1827586"><ele>155.71428571428572</ele><time>2026-05-02T10:49:41.488Z</time></trkpt><trkpt lat="43.4247222" lon="11.1826744"><ele>156.57142857142856</ele><time>2026-05-02T10:49:45.485Z</time></trkpt><trkpt lat="43.4246757" lon="11.1826021"><ele>157.42857142857144</ele><time>2026-05-02T10:49:49.485Z</time></trkpt><trkpt lat="43.4246247" lon="11.1825348"><ele>158.28571428571428</ele><time>2026-05-02T10:49:56.554Z</time></trkpt><trkpt lat="43.4245596" lon="11.1824667"><ele>159.14285714285714</ele><time>2026-05-02T10:50:01.567Z</time></trkpt><trkpt lat="43.4245008" lon="11.182429"><ele>160.0</ele><time>2026-05-02T10:50:04.487Z</time></trkpt><trkpt lat="43.4244406" lon="11.182395"><ele>160.71428571428572</ele><time>2026-05-02T10:50:07.503Z</time></trkpt><trkpt lat="43.4243612" lon="11.182376"><ele>161.42857142857144</ele><time>2026-05-02T10:50:11.502Z</time></trkpt><trkpt lat="43.4242882" lon="11.1823615"><ele>162.14285714285717</ele><time>2026-05-02T10:50:16.562Z</time></trkpt><trkpt lat="43.4242232" lon="11.1823456"><ele>162.85714285714286</ele><time>2026-05-02T10:50:20.461Z</time></trkpt><trkpt lat="43.4242" lon="11.1822602"><ele>163.57142857142858</ele><time>2026-05-02T10:50:27.488Z</time></trkpt><trkpt lat="43.424257" lon="11.1821804"><ele>164.2857142857143</ele><time>2026-05-02T10:50:32.554Z</time></trkpt><trkpt lat="43.4242703" lon="11.1820763"><ele>165.0</ele><time>2026-05-02T10:50:37.486Z</time></trkpt><trkpt lat="43.4243105" lon="11.1820014"><ele>165.0</ele><time>2026-05-02T10:50:40.481Z</time></trkpt><trkpt lat="43.4243638" lon="11.181846"><ele>165.0</ele><time>2026-05-02T10:50:45.504Z</time></trkpt><trkpt lat="43.4244085" lon="11.181741"><ele>165.0</ele><time>2026-05-02T10:50:48.499Z</time></trkpt><trkpt lat="43.4244529" lon="11.1816714"><ele>165.0</ele><time>2026-05-02T10:50:50.484Z</time></trkpt><trkpt lat="43.4245099" lon="11.1815729"><ele>165.0</ele><time>2026-05-02T10:50:53.475Z</time></trkpt><trkpt lat="43.4245464" lon="11.1814942"><ele>165.0</ele><time>2026-05-02T10:50:55.477Z</time></trkpt><trkpt lat="43.4245904" lon="11.1814063"><ele>165.16666666666666</ele><time>2026-05-02T10:50:57.494Z</time></trkpt><trkpt lat="43.4246368" lon="11.1813296"><ele>165.33333333333334</ele><time>2026-05-02T10:50:59.492Z</time></trkpt><trkpt lat="43.4246996" lon="11.1812584"><ele>165.5</ele><time>2026-05-02T10:51:01.47Z</time></trkpt><trkpt lat="43.4247565" lon="11.1811773"><ele>165.66666666666669</ele><time>2026-05-02T10:51:03.483Z</time></trkpt><trkpt lat="43.4248049" lon="11.1810766"><ele>165.83333333333334</ele><time>2026-05-02T10:51:05.465Z</time></trkpt><trkpt lat="43.4248558" lon="11.1809781"><ele>166.0</ele><time>2026-05-02T10:51:07.473Z</time></trkpt><trkpt lat="43.4249055" lon="11.1808726"><ele>165.5</ele><time>2026-05-02T10:51:09.48Z</time></trkpt><trkpt lat="43.4249606" lon="11.1807663"><ele>165.0</ele><time>2026-05-02T10:51:11.478Z</time></trkpt><trkpt lat="43.4250043" lon="11.1806663"><ele>164.5</ele><time>2026-05-02T10:51:13.476Z</time></trkpt><trkpt lat="43.4250548" lon="11.180576"><ele>164.0</ele><time>2026-05-02T10:51:15.48Z</time></trkpt><trkpt lat="43.4251089" lon="11.1804855"><ele>163.5</ele><time>2026-05-02T10:51:17.476Z</time></trkpt><trkpt lat="43.4251564" lon="11.1803908"><ele>163.0</ele><time>2026-05-02T10:51:19.49Z</time></trkpt><trkpt lat="43.4252052" lon="11.1803086"><ele>163.0</ele><time>2026-05-02T10:51:21.48Z</time></trkpt><trkpt lat="43.4252564" lon="11.1802308"><ele>163.0</ele><time>2026-05-02T10:51:23.485Z</time></trkpt><trkpt lat="43.4253074" lon="11.1801416"><ele>163.0</ele><time>2026-05-02T10:51:25.474Z</time></trkpt><trkpt lat="43.4253551" lon="11.1800608"><ele>163.0</ele><time>2026-05-02T10:51:27.481Z</time></trkpt><trkpt lat="43.4254013" lon="11.1799843"><ele>163.0</ele><time>2026-05-02T10:51:29.477Z</time></trkpt><trkpt lat="43.4254377" lon="11.1798954"><ele>163.0</ele><time>2026-05-02T10:51:31.477Z</time></trkpt><trkpt lat="43.425483" lon="11.1798104"><ele>162.66666666666669</ele><time>2026-05-02T10:51:33.501Z</time></trkpt><trkpt lat="43.4255397" lon="11.1797348"><ele>162.33333333333334</ele><time>2026-05-02T10:51:35.491Z</time></trkpt><trkpt lat="43.425601" lon="11.1796668"><ele>162.0</ele><time>2026-05-02T10:51:37.477Z</time></trkpt><trkpt lat="43.4256536" lon="11.1795697"><ele>161.66666666666666</ele><time>2026-05-02T10:51:39.489Z</time></trkpt><trkpt lat="43.4257046" lon="11.1794738"><ele>161.33333333333331</ele><time>2026-05-02T10:51:41.498Z</time></trkpt><trkpt lat="43.4257584" lon="11.1793905"><ele>161.0</ele><time>2026-05-02T10:51:43.488Z</time></trkpt><trkpt lat="43.425811" lon="11.1793126"><ele>161.0</ele><time>2026-05-02T10:51:45.5Z</time></trkpt><trkpt lat="43.425883" lon="11.1792744"><ele>161.0</ele><time>2026-05-02T10:51:47.481Z</time></trkpt><trkpt lat="43.4259593" lon="11.1792424"><ele>161.0</ele><time>2026-05-02T10:51:49.486Z</time></trkpt><trkpt lat="43.426033" lon="11.1791961"><ele>161.0</ele><time>2026-05-02T10:51:51.477Z</time></trkpt><trkpt lat="43.4260854" lon="11.1791054"><ele>161.0</ele><time>2026-05-02T10:51:53.507Z</time></trkpt><trkpt lat="43.426104" lon="11.1790001"><ele>161.0</ele><time>2026-05-02T10:51:55.485Z</time></trkpt><trkpt lat="43.4260972" lon="11.1789036"><ele>162.16666666666666</ele><time>2026-05-02T10:51:57.478Z</time></trkpt><trkpt lat="43.4260512" lon="11.1788238"><ele>163.33333333333331</ele><time>2026-05-02T10:51:59.494Z</time></trkpt><trkpt lat="43.4259802" lon="11.1787877"><ele>164.5</ele><time>2026-05-02T10:52:01.484Z</time></trkpt><trkpt lat="43.425901" lon="11.1787858"><ele>165.66666666666666</ele><time>2026-05-02T10:52:03.489Z</time></trkpt><trkpt lat="43.4258113" lon="11.1788046"><ele>166.83333333333334</ele><time>2026-05-02T10:52:05.494Z</time></trkpt><trkpt lat="43.4257208" lon="11.1788313"><ele>168.0</ele><time>2026-05-02T10:52:07.484Z</time></trkpt><trkpt lat="43.425629" lon="11.1788289"><ele>168.0</ele><time>2026-05-02T10:52:09.477Z</time></trkpt><trkpt lat="43.4255448" lon="11.1788092"><ele>168.0</ele><time>2026-05-02T10:52:11.483Z</time></trkpt><trkpt lat="43.4254669" lon="11.1787916"><ele>168.0</ele><time>2026-05-02T10:52:13.479Z</time></trkpt><trkpt lat="43.4253871" lon="11.1787813"><ele>168.0</ele><time>2026-05-02T10:52:15.483Z</time></trkpt><trkpt lat="43.4253185" lon="11.1787742"><ele>168.0</ele><time>2026-05-02T10:52:17.484Z</time></trkpt><trkpt lat="43.4252478" lon="11.1787765"><ele>168.0</ele><time>2026-05-02T10:52:19.478Z</time></trkpt><trkpt lat="43.425175" lon="11.1787756"><ele>168.57142857142858</ele><time>2026-05-02T10:52:21.481Z</time></trkpt><trkpt lat="43.425109" lon="11.1787754"><ele>169.14285714285714</ele><time>2026-05-02T10:52:23.478Z</time></trkpt><trkpt lat="43.4250457" lon="11.1787817"><ele>169.71428571428572</ele><time>2026-05-02T10:52:25.487Z</time></trkpt><trkpt lat="43.4249555" lon="11.1787977"><ele>170.28571428571428</ele><time>2026-05-02T10:52:28.488Z</time></trkpt><trkpt lat="43.4248877" lon="11.1788"><ele>170.85714285714286</ele><time>2026-05-02T10:52:30.496Z</time></trkpt><trkpt lat="43.424819" lon="11.1788031"><ele>171.42857142857144</ele><time>2026-05-02T10:52:32.499Z</time></trkpt><trkpt lat="43.4247484" lon="11.1788192"><ele>172.0</ele><time>2026-05-02T10:52:34.49Z</time></trkpt><trkpt lat="43.4246795" lon="11.1788366"><ele>173.14285714285717</ele><time>2026-05-02T10:52:36.501Z</time></trkpt><trkpt lat="43.4246115" lon="11.1788476"><ele>174.28571428571428</ele><time>2026-05-02T10:52:38.478Z</time></trkpt><trkpt lat="43.4245422" lon="11.1788615"><ele>175.42857142857144</ele><time>2026-05-02T10:52:40.478Z</time></trkpt><trkpt lat="43.4244724" lon="11.1788722"><ele>176.57142857142858</ele><time>2026-05-02T10:52:42.486Z</time></trkpt><trkpt lat="43.4244032" lon="11.1788894"><ele>177.71428571428572</ele><time>2026-05-02T10:52:44.475Z</time></trkpt><trkpt lat="43.4243369" lon="11.1789044"><ele>178.85714285714286</ele><time>2026-05-02T10:52:46.482Z</time></trkpt><trkpt lat="43.424269" lon="11.178921"><ele>180.0</ele><time>2026-05-02T10:52:48.499Z</time></trkpt><trkpt lat="43.4241914" lon="11.1789306"><ele>180.0</ele><time>2026-05-02T10:52:50.493Z</time></trkpt><trkpt lat="43.4241172" lon="11.1789402"><ele>180.0</ele><time>2026-05-02T10:52:52.482Z</time></trkpt><trkpt lat="43.4240469" lon="11.1789458"><ele>180.0</ele><time>2026-05-02T10:52:54.495Z</time></trkpt><trkpt lat="43.4239779" lon="11.1789682"><ele>180.0</ele><time>2026-05-02T10:52:56.482Z</time></trkpt><trkpt lat="43.4239053" lon="11.1789857"><ele>180.0</ele><time>2026-05-02T10:52:58.484Z</time></trkpt><trkpt lat="43.4238333" lon="11.1790085"><ele>180.0</ele><time>2026-05-02T10:53:00.491Z</time></trkpt><trkpt lat="43.4237591" lon="11.1790329"><ele>180.0</ele><time>2026-05-02T10:53:02.477Z</time></trkpt><trkpt lat="43.4236874" lon="11.1790571"><ele>178.83333333333334</ele><time>2026-05-02T10:53:04.481Z</time></trkpt><trkpt lat="43.4236153" lon="11.1790725"><ele>177.66666666666666</ele><time>2026-05-02T10:53:06.498Z</time></trkpt><trkpt lat="43.4235445" lon="11.1790934"><ele>176.5</ele><time>2026-05-02T10:53:08.48Z</time></trkpt><trkpt lat="43.4234691" lon="11.1791177"><ele>175.33333333333331</ele><time>2026-05-02T10:53:10.49Z</time></trkpt><trkpt lat="43.4233932" lon="11.1791331"><ele>174.16666666666666</ele><time>2026-05-02T10:53:12.487Z</time></trkpt><trkpt lat="43.4233185" lon="11.1791549"><ele>173.0</ele><time>2026-05-02T10:53:14.486Z</time></trkpt><trkpt lat="43.423245" lon="11.179178"><ele>173.0</ele><time>2026-05-02T10:53:16.478Z</time></trkpt><trkpt lat="43.4231695" lon="11.179201"><ele>173.0</ele><time>2026-05-02T10:53:18.481Z</time></trkpt><trkpt lat="43.4230946" lon="11.1792141"><ele>173.0</ele><time>2026-05-02T10:53:20.486Z</time></trkpt><trkpt lat="43.4230179" lon="11.1792313"><ele>173.0</ele><time>2026-05-02T10:53:22.488Z</time></trkpt><trkpt lat="43.422939" lon="11.1792472"><ele>173.0</ele><time>2026-05-02T10:53:24.487Z</time></trkpt><trkpt lat="43.4228587" lon="11.1792566"><ele>173.0</ele><time>2026-05-02T10:53:26.48Z</time></trkpt><trkpt lat="43.4227853" lon="11.179275"><ele>173.83333333333331</ele><time>2026-05-02T10:53:28.49Z</time></trkpt><trkpt lat="43.4227073" lon="11.179297"><ele>174.66666666666666</ele><time>2026-05-02T10:53:30.497Z</time></trkpt><trkpt lat="43.4226281" lon="11.1793221"><ele>175.5</ele><time>2026-05-02T10:53:32.478Z</time></trkpt><trkpt lat="43.4225536" lon="11.1793445"><ele>176.33333333333334</ele><time>2026-05-02T10:53:34.486Z</time></trkpt><trkpt lat="43.4224816" lon="11.1793613"><ele>177.16666666666669</ele><time>2026-05-02T10:53:36.505Z</time></trkpt><trkpt lat="43.4224055" lon="11.1793851"><ele>178.0</ele><time>2026-05-02T10:53:38.471Z</time></trkpt><trkpt lat="43.4223318" lon="11.1794186"><ele>178.0</ele><time>2026-05-02T10:53:40.484Z</time></trkpt><trkpt lat="43.4222602" lon="11.179459"><ele>178.0</ele><time>2026-05-02T10:53:42.482Z</time></trkpt><trkpt lat="43.4221865" lon="11.17949"><ele>178.0</ele><time>2026-05-02T10:53:44.478Z</time></trkpt><trkpt lat="43.4221118" lon="11.1795135"><ele>178.0</ele><time>2026-05-02T10:53:46.502Z</time></trkpt><trkpt lat="43.4220403" lon="11.1795412"><ele>178.0</ele><time>2026-05-02T10:53:48.494Z</time></trkpt><trkpt lat="43.421968" lon="11.1795856"><ele>178.0</ele><time>2026-05-02T10:53:50.487Z</time></trkpt><trkpt lat="43.4218893" lon="11.1796211"><ele>177.66666666666669</ele><time>2026-05-02T10:53:52.505Z</time></trkpt><trkpt lat="43.4218118" lon="11.1796536"><ele>177.33333333333334</ele><time>2026-05-02T10:53:54.49Z</time></trkpt><trkpt lat="43.4217357" lon="11.1796915"><ele>177.0</ele><time>2026-05-02T10:53:56.491Z</time></trkpt><trkpt lat="43.4216561" lon="11.1797281"><ele>176.66666666666666</ele><time>2026-05-02T10:53:58.49Z</time></trkpt><trkpt lat="43.4215722" lon="11.1797627"><ele>176.33333333333331</ele><time>2026-05-02T10:54:00.508Z</time></trkpt><trkpt lat="43.4214871" lon="11.1797735"><ele>176.0</ele><time>2026-05-02T10:54:02.486Z</time></trkpt><trkpt lat="43.4214057" lon="11.1797673"><ele>176.0</ele><time>2026-05-02T10:54:04.49Z</time></trkpt><trkpt lat="43.4213335" lon="11.1797715"><ele>176.0</ele><time>2026-05-02T10:54:06.485Z</time></trkpt><trkpt lat="43.4212761" lon="11.179829"><ele>176.0</ele><time>2026-05-02T10:54:08.507Z</time></trkpt><trkpt lat="43.4212563" lon="11.1799266"><ele>176.0</ele><time>2026-05-02T10:54:10.473Z</time></trkpt><trkpt lat="43.4212685" lon="11.180044"><ele>176.0</ele><time>2026-05-02T10:54:12.487Z</time></trkpt><trkpt lat="43.4213267" lon="11.1801497"><ele>176.0</ele><time>2026-05-02T10:54:14.493Z</time></trkpt><trkpt lat="43.4213994" lon="11.1802563"><ele>175.66666666666666</ele><time>2026-05-02T10:54:16.48Z</time></trkpt><trkpt lat="43.4214664" lon="11.1803905"><ele>175.33333333333331</ele><time>2026-05-02T10:54:18.477Z</time></trkpt><trkpt lat="43.4214926" lon="11.1804715"><ele>175.0</ele><time>2026-05-02T10:54:19.496Z</time></trkpt><trkpt lat="43.4215187" lon="11.1805519"><ele>174.66666666666666</ele><time>2026-05-02T10:54:20.488Z</time></trkpt><trkpt lat="43.4215597" lon="11.1806889"><ele>174.33333333333334</ele><time>2026-05-02T10:54:22.484Z</time></trkpt><trkpt lat="43.4215752" lon="11.1807837"><ele>174.0</ele><time>2026-05-02T10:54:24.487Z</time></trkpt><trkpt lat="43.4216248" lon="11.1806983"><ele>173.85714285714286</ele><time>2026-05-02T10:54:28.482Z</time></trkpt><trkpt lat="43.4217077" lon="11.180626"><ele>173.71428571428572</ele><time>2026-05-02T10:54:31.489Z</time></trkpt><trkpt lat="43.4217707" lon="11.18058"><ele>173.57142857142856</ele><time>2026-05-02T10:54:33.483Z</time></trkpt><trkpt lat="43.4218301" lon="11.1805403"><ele>173.42857142857144</ele><time>2026-05-02T10:54:35.473Z</time></trkpt><trkpt lat="43.4218861" lon="11.1804987"><ele>173.2857142857143</ele><time>2026-05-02T10:54:37.499Z</time></trkpt><trkpt lat="43.4219442" lon="11.1804576"><ele>173.14285714285714</ele><time>2026-05-02T10:54:39.476Z</time></trkpt><trkpt lat="43.4220023" lon="11.1804146"><ele>173.0</ele><time>2026-05-02T10:54:41.477Z</time></trkpt><trkpt lat="43.4220731" lon="11.1803406"><ele>173.0</ele><time>2026-05-02T10:54:44.488Z</time></trkpt><trkpt lat="43.4221326" lon="11.1803745"><ele>173.0</ele><time>2026-05-02T10:54:47.476Z</time></trkpt><trkpt lat="43.4221431" lon="11.1805016"><ele>173.0</ele><time>2026-05-02T10:54:50.473Z</time></trkpt><trkpt lat="43.4221549" lon="11.1806252"><ele>173.0</ele><time>2026-05-02T10:54:53.486Z</time></trkpt><trkpt lat="43.4221707" lon="11.1807144"><ele>173.0</ele><time>2026-05-02T10:54:55.505Z</time></trkpt><trkpt lat="43.422198" lon="11.180813"><ele>173.0</ele><time>2026-05-02T10:54:57.486Z</time></trkpt><trkpt lat="43.4222267" lon="11.1809061"><ele>173.14285714285714</ele><time>2026-05-02T10:54:59.475Z</time></trkpt><trkpt lat="43.4222465" lon="11.1809977"><ele>173.2857142857143</ele><time>2026-05-02T10:55:02.492Z</time></trkpt><trkpt lat="43.4222559" lon="11.1810849"><ele>173.42857142857144</ele><time>2026-05-02T10:55:36.481Z</time></trkpt><trkpt lat="43.4222022" lon="11.1811374"><ele>173.57142857142856</ele><time>2026-05-02T10:55:40.477Z</time></trkpt><trkpt lat="43.422134" lon="11.1811888"><ele>173.71428571428572</ele><time>2026-05-02T10:55:44.472Z</time></trkpt><trkpt lat="43.4220694" lon="11.1811672"><ele>173.85714285714286</ele><time>2026-05-02T10:56:20.477Z</time></trkpt><trkpt lat="43.4220987" lon="11.1810828"><ele>174.0</ele><time>2026-05-02T10:56:31.479Z</time></trkpt><trkpt lat="43.4220154" lon="11.1810956"><ele>174.0</ele><time>2026-05-02T10:56:56.487Z</time></trkpt><trkpt lat="43.4220076" lon="11.1811875"><ele>174.0</ele><time>2026-05-02T10:57:26.457Z</time></trkpt></trkseg><trkseg><trkpt lat="43.4225728" lon="11.1812941"><ele>170.0</ele><time>2026-05-02T11:11:52.461Z</time></trkpt><trkpt lat="43.4225127" lon="11.1812365"><ele>170.0</ele><time>2026-05-02T11:11:54.461Z</time></trkpt><trkpt lat="43.4224334" lon="11.1812033"><ele>170.0</ele><time>2026-05-02T11:11:57.462Z</time></trkpt><trkpt lat="43.4223584" lon="11.1811973"><ele>170.0</ele><time>2026-05-02T11:11:59.453Z</time></trkpt><trkpt lat="43.4222928" lon="11.1811808"><ele>170.0</ele><time>2026-05-02T11:12:01.462Z</time></trkpt><trkpt lat="43.4222241" lon="11.181155"><ele>170.0</ele><time>2026-05-02T11:12:06.451Z</time></trkpt><trkpt lat="43.4221588" lon="11.1811101"><ele>170.0</ele><time>2026-05-02T11:12:30.456Z</time></trkpt><trkpt lat="43.4222022" lon="11.1810215"><ele>170.0</ele><time>2026-05-02T11:13:06.448Z</time></trkpt></trkseg></trk></gpx>